<?xml version='1.0' encoding='UTF-8'?><gpx version="1.1" creator="JPX - https://github.com/jenetics/jpx" xmlns="http://www.topografix.com/GPX/1/1"><trk><trkseg><trkpt lat="44.1979543" lon="12.1870021"><ele>23.0</ele><time>2026-04-25T08:15:51.526Z</time></trkpt><trkpt lat="44.1978756" lon="12.186931"><ele>23.0</ele><time>2026-04-25T08:15:52.522Z</time></trkpt><trkpt lat="44.1977842" lon="12.1868431"><ele>23.0</ele><time>2026-04-25T08:15:53.53Z</time></trkpt><trkpt lat="44.1976767" lon="12.1867401"><ele>23.0</ele><time>2026-04-25T08:15:54.525Z</time></trkpt><trkpt lat="44.1975721" lon="12.1866414"><ele>23.0</ele><time>2026-04-25T08:15:55.527Z</time></trkpt><trkpt lat="44.1974815" lon="12.1865592"><ele>23.0</ele><time>2026-04-25T08:15:56.52Z</time></trkpt><trkpt lat="44.1973897" lon="12.1864872"><ele>23.0</ele><time>2026-04-25T08:15:57.534Z</time></trkpt><trkpt lat="44.1972865" lon="12.1863956"><ele>23.0</ele><time>2026-04-25T08:15:58.527Z</time></trkpt><trkpt lat="44.1971569" lon="12.186295"><ele>23.333333333333336</ele><time>2026-04-25T08:15:59.54Z</time></trkpt><trkpt lat="44.1970159" lon="12.1861809"><ele>23.666666666666668</ele><time>2026-04-25T08:16:00.524Z</time></trkpt><trkpt lat="44.1968737" lon="12.1860638"><ele>24.0</ele><time>2026-04-25T08:16:01.552Z</time></trkpt><trkpt lat="44.1967355" lon="12.1859503"><ele>24.0</ele><time>2026-04-25T08:16:02.537Z</time></trkpt><trkpt lat="44.1966078" lon="12.1858344"><ele>24.0</ele><time>2026-04-25T08:16:03.515Z</time></trkpt><trkpt lat="44.196485" lon="12.1857251"><ele>24.0</ele><time>2026-04-25T08:16:04.517Z</time></trkpt><trkpt lat="44.1963557" lon="12.1856228"><ele>24.0</ele><time>2026-04-25T08:16:05.528Z</time></trkpt><trkpt lat="44.1962301" lon="12.1855154"><ele>23.0</ele><time>2026-04-25T08:16:06.523Z</time></trkpt><trkpt lat="44.1961014" lon="12.1854032"><ele>22.0</ele><time>2026-04-25T08:16:07.519Z</time></trkpt><trkpt lat="44.195971" lon="12.1852877"><ele>21.0</ele><time>2026-04-25T08:16:08.519Z</time></trkpt><trkpt lat="44.1958406" lon="12.1851594"><ele>21.0</ele><time>2026-04-25T08:16:09.521Z</time></trkpt><trkpt lat="44.1957061" lon="12.1850202"><ele>21.0</ele><time>2026-04-25T08:16:10.526Z</time></trkpt><trkpt lat="44.1955774" lon="12.1848745"><ele>21.0</ele><time>2026-04-25T08:16:11.521Z</time></trkpt><trkpt lat="44.1954457" lon="12.1847125"><ele>21.0</ele><time>2026-04-25T08:16:12.527Z</time></trkpt><trkpt lat="44.1953109" lon="12.1845282"><ele>21.0</ele><time>2026-04-25T08:16:13.518Z</time></trkpt><trkpt lat="44.1951652" lon="12.1843304"><ele>21.0</ele><time>2026-04-25T08:16:14.514Z</time></trkpt><trkpt lat="44.1950164" lon="12.1841251"><ele>20.666666666666668</ele><time>2026-04-25T08:16:15.52Z</time></trkpt><trkpt lat="44.1948719" lon="12.1839293"><ele>20.333333333333336</ele><time>2026-04-25T08:16:16.531Z</time></trkpt><trkpt lat="44.1947266" lon="12.1837349"><ele>20.0</ele><time>2026-04-25T08:16:17.519Z</time></trkpt><trkpt lat="44.1945869" lon="12.1835474"><ele>20.333333333333336</ele><time>2026-04-25T08:16:18.52Z</time></trkpt><trkpt lat="44.1944385" lon="12.1833548"><ele>20.666666666666668</ele><time>2026-04-25T08:16:19.526Z</time></trkpt><trkpt lat="44.194274" lon="12.1831491"><ele>21.0</ele><time>2026-04-25T08:16:20.526Z</time></trkpt><trkpt lat="44.1940999" lon="12.1829311"><ele>21.5</ele><time>2026-04-25T08:16:21.525Z</time></trkpt><trkpt lat="44.1939218" lon="12.1826914"><ele>22.0</ele><time>2026-04-25T08:16:22.524Z</time></trkpt><trkpt lat="44.1937449" lon="12.1824458"><ele>22.0</ele><time>2026-04-25T08:16:23.524Z</time></trkpt><trkpt lat="44.1935709" lon="12.1822104"><ele>22.0</ele><time>2026-04-25T08:16:24.515Z</time></trkpt><trkpt lat="44.1934167" lon="12.1820005"><ele>22.0</ele><time>2026-04-25T08:16:25.512Z</time></trkpt><trkpt lat="44.1932877" lon="12.1818189"><ele>22.0</ele><time>2026-04-25T08:16:26.521Z</time></trkpt><trkpt lat="44.1931658" lon="12.1816503"><ele>22.0</ele><time>2026-04-25T08:16:27.52Z</time></trkpt><trkpt lat="44.193056" lon="12.1814931"><ele>21.666666666666664</ele><time>2026-04-25T08:16:28.516Z</time></trkpt><trkpt lat="44.1929527" lon="12.1813442"><ele>21.333333333333332</ele><time>2026-04-25T08:16:29.516Z</time></trkpt><trkpt lat="44.1928379" lon="12.181201"><ele>21.0</ele><time>2026-04-25T08:16:30.523Z</time></trkpt><trkpt lat="44.1927177" lon="12.1810494"><ele>21.0</ele><time>2026-04-25T08:16:31.518Z</time></trkpt><trkpt lat="44.1925904" lon="12.1808834"><ele>21.0</ele><time>2026-04-25T08:16:32.525Z</time></trkpt><trkpt lat="44.1924494" lon="12.1807049"><ele>21.0</ele><time>2026-04-25T08:16:33.519Z</time></trkpt><trkpt lat="44.1922965" lon="12.1805028"><ele>20.5</ele><time>2026-04-25T08:16:34.522Z</time></trkpt><trkpt lat="44.1921309" lon="12.1802589"><ele>20.0</ele><time>2026-04-25T08:16:35.52Z</time></trkpt><trkpt lat="44.1919498" lon="12.1800026"><ele>20.5</ele><time>2026-04-25T08:16:36.533Z</time></trkpt><trkpt lat="44.1917734" lon="12.1797471"><ele>21.0</ele><time>2026-04-25T08:16:37.514Z</time></trkpt><trkpt lat="44.1915973" lon="12.1795072"><ele>21.0</ele><time>2026-04-25T08:16:38.519Z</time></trkpt><trkpt lat="44.1914323" lon="12.1792838"><ele>21.0</ele><time>2026-04-25T08:16:39.519Z</time></trkpt><trkpt lat="44.1912756" lon="12.1790779"><ele>21.0</ele><time>2026-04-25T08:16:40.523Z</time></trkpt><trkpt lat="44.1911289" lon="12.1788751"><ele>21.0</ele><time>2026-04-25T08:16:41.535Z</time></trkpt><trkpt lat="44.1909756" lon="12.1786662"><ele>21.0</ele><time>2026-04-25T08:16:42.527Z</time></trkpt><trkpt lat="44.1908235" lon="12.1784572"><ele>21.0</ele><time>2026-04-25T08:16:43.534Z</time></trkpt><trkpt lat="44.1906649" lon="12.1782383"><ele>21.5</ele><time>2026-04-25T08:16:44.523Z</time></trkpt><trkpt lat="44.1905033" lon="12.178015"><ele>22.0</ele><time>2026-04-25T08:16:45.519Z</time></trkpt><trkpt lat="44.1903316" lon="12.1777927"><ele>22.0</ele><time>2026-04-25T08:16:46.527Z</time></trkpt><trkpt lat="44.1901441" lon="12.177572"><ele>22.0</ele><time>2026-04-25T08:16:47.522Z</time></trkpt><trkpt lat="44.1899462" lon="12.1773514"><ele>22.5</ele><time>2026-04-25T08:16:48.517Z</time></trkpt><trkpt lat="44.189748" lon="12.1771195"><ele>23.0</ele><time>2026-04-25T08:16:49.534Z</time></trkpt><trkpt lat="44.1895444" lon="12.1768742"><ele>23.0</ele><time>2026-04-25T08:16:50.526Z</time></trkpt><trkpt lat="44.1893416" lon="12.176627"><ele>23.0</ele><time>2026-04-25T08:16:51.524Z</time></trkpt><trkpt lat="44.1891567" lon="12.1763895"><ele>22.0</ele><time>2026-04-25T08:16:52.523Z</time></trkpt><trkpt lat="44.1889801" lon="12.1761636"><ele>21.0</ele><time>2026-04-25T08:16:53.521Z</time></trkpt><trkpt lat="44.1888176" lon="12.1759553"><ele>21.0</ele><time>2026-04-25T08:16:54.521Z</time></trkpt><trkpt lat="44.1886707" lon="12.1757511"><ele>21.0</ele><time>2026-04-25T08:16:55.532Z</time></trkpt><trkpt lat="44.1885455" lon="12.1755653"><ele>21.0</ele><time>2026-04-25T08:16:56.535Z</time></trkpt><trkpt lat="44.1884273" lon="12.1753925"><ele>21.25</ele><time>2026-04-25T08:16:57.528Z</time></trkpt><trkpt lat="44.1883159" lon="12.1752365"><ele>21.5</ele><time>2026-04-25T08:16:58.524Z</time></trkpt><trkpt lat="44.1882084" lon="12.1750874"><ele>21.75</ele><time>2026-04-25T08:16:59.542Z</time></trkpt><trkpt lat="44.1881091" lon="12.17495"><ele>22.0</ele><time>2026-04-25T08:17:00.548Z</time></trkpt><trkpt lat="44.1880191" lon="12.1748284"><ele>22.0</ele><time>2026-04-25T08:17:01.527Z</time></trkpt><trkpt lat="44.1879431" lon="12.1747261"><ele>22.0</ele><time>2026-04-25T08:17:02.528Z</time></trkpt><trkpt lat="44.1878808" lon="12.1746412"><ele>22.0</ele><time>2026-04-25T08:17:03.528Z</time></trkpt><trkpt lat="44.1878307" lon="12.1745753"><ele>22.0</ele><time>2026-04-25T08:17:04.523Z</time></trkpt><trkpt lat="44.1877901" lon="12.1744326"><ele>22.0</ele><time>2026-04-25T08:17:06.525Z</time></trkpt><trkpt lat="44.1877937" lon="12.1743081"><ele>22.0</ele><time>2026-04-25T08:17:08.536Z</time></trkpt><trkpt lat="44.1877542" lon="12.174233"><ele>22.0</ele><time>2026-04-25T08:17:10.522Z</time></trkpt><trkpt lat="44.1876881" lon="12.1741931"><ele>22.0</ele><time>2026-04-25T08:17:13.521Z</time></trkpt><trkpt lat="44.1876169" lon="12.1741561"><ele>22.0</ele><time>2026-04-25T08:21:02.525Z</time></trkpt><trkpt lat="44.1875656" lon="12.1740795"><ele>22.0</ele><time>2026-04-25T08:21:04.523Z</time></trkpt><trkpt lat="44.1874968" lon="12.1740202"><ele>22.0</ele><time>2026-04-25T08:21:06.529Z</time></trkpt><trkpt lat="44.1873679" lon="12.1739692"><ele>22.0</ele><time>2026-04-25T08:21:08.515Z</time></trkpt><trkpt lat="44.1872991" lon="12.1738758"><ele>22.0</ele><time>2026-04-25T08:21:09.527Z</time></trkpt><trkpt lat="44.1872256" lon="12.1737695"><ele>22.0</ele><time>2026-04-25T08:21:10.525Z</time></trkpt><trkpt lat="44.1871312" lon="12.1736437"><ele>22.0</ele><time>2026-04-25T08:21:11.526Z</time></trkpt><trkpt lat="44.1870254" lon="12.1735059"><ele>22.0</ele><time>2026-04-25T08:21:12.535Z</time></trkpt><trkpt lat="44.1869155" lon="12.1733603"><ele>22.0</ele><time>2026-04-25T08:21:13.519Z</time></trkpt><trkpt lat="44.1868039" lon="12.1732026"><ele>22.0</ele><time>2026-04-25T08:21:14.519Z</time></trkpt><trkpt lat="44.1866842" lon="12.1730396"><ele>22.0</ele><time>2026-04-25T08:21:15.53Z</time></trkpt><trkpt lat="44.1865606" lon="12.1728686"><ele>22.0</ele><time>2026-04-25T08:21:16.535Z</time></trkpt><trkpt lat="44.1864302" lon="12.1726901"><ele>22.0</ele><time>2026-04-25T08:21:17.537Z</time></trkpt><trkpt lat="44.1862983" lon="12.1724978"><ele>21.666666666666664</ele><time>2026-04-25T08:21:18.523Z</time></trkpt><trkpt lat="44.1861561" lon="12.1723034"><ele>21.333333333333332</ele><time>2026-04-25T08:21:19.526Z</time></trkpt><trkpt lat="44.1860086" lon="12.1720992"><ele>21.0</ele><time>2026-04-25T08:21:20.527Z</time></trkpt><trkpt lat="44.1858502" lon="12.1718829"><ele>21.0</ele><time>2026-04-25T08:21:21.522Z</time></trkpt><trkpt lat="44.1856897" lon="12.1716633"><ele>21.0</ele><time>2026-04-25T08:21:22.522Z</time></trkpt><trkpt lat="44.1855184" lon="12.1714338"><ele>21.5</ele><time>2026-04-25T08:21:23.528Z</time></trkpt><trkpt lat="44.1853499" lon="12.1712051"><ele>22.0</ele><time>2026-04-25T08:21:24.542Z</time></trkpt><trkpt lat="44.1851765" lon="12.1709699"><ele>22.0</ele><time>2026-04-25T08:21:25.539Z</time></trkpt><trkpt lat="44.184999" lon="12.1707337"><ele>22.0</ele><time>2026-04-25T08:21:26.527Z</time></trkpt><trkpt lat="44.184825" lon="12.1704955"><ele>22.0</ele><time>2026-04-25T08:21:27.523Z</time></trkpt><trkpt lat="44.184643" lon="12.1702573"><ele>22.0</ele><time>2026-04-25T08:21:28.528Z</time></trkpt><trkpt lat="44.1844662" lon="12.1700202"><ele>22.5</ele><time>2026-04-25T08:21:29.528Z</time></trkpt><trkpt lat="44.1842897" lon="12.1697734"><ele>23.0</ele><time>2026-04-25T08:21:30.528Z</time></trkpt><trkpt lat="44.1841104" lon="12.1695302"><ele>22.5</ele><time>2026-04-25T08:21:31.521Z</time></trkpt><trkpt lat="44.183932" lon="12.1692861"><ele>22.0</ele><time>2026-04-25T08:21:32.514Z</time></trkpt><trkpt lat="44.183754" lon="12.169047"><ele>22.0</ele><time>2026-04-25T08:21:33.522Z</time></trkpt><trkpt lat="44.1835779" lon="12.1688148"><ele>22.0</ele><time>2026-04-25T08:21:34.518Z</time></trkpt><trkpt lat="44.1834041" lon="12.1685871"><ele>22.0</ele><time>2026-04-25T08:21:35.526Z</time></trkpt><trkpt lat="44.1832383" lon="12.1683594"><ele>22.0</ele><time>2026-04-25T08:21:36.523Z</time></trkpt><trkpt lat="44.1830711" lon="12.1681407"><ele>22.333333333333332</ele><time>2026-04-25T08:21:37.515Z</time></trkpt><trkpt lat="44.1829088" lon="12.1679264"><ele>22.666666666666668</ele><time>2026-04-25T08:21:38.521Z</time></trkpt><trkpt lat="44.1827518" lon="12.1677192"><ele>23.0</ele><time>2026-04-25T08:21:39.526Z</time></trkpt><trkpt lat="44.1825946" lon="12.1675292"><ele>22.666666666666668</ele><time>2026-04-25T08:21:40.521Z</time></trkpt><trkpt lat="44.1824348" lon="12.1673468"><ele>22.333333333333332</ele><time>2026-04-25T08:21:41.536Z</time></trkpt><trkpt lat="44.1822855" lon="12.16715"><ele>22.0</ele><time>2026-04-25T08:21:42.522Z</time></trkpt><trkpt lat="44.1821491" lon="12.1669333"><ele>22.333333333333332</ele><time>2026-04-25T08:21:43.53Z</time></trkpt><trkpt lat="44.1820247" lon="12.1667142"><ele>22.666666666666668</ele><time>2026-04-25T08:21:44.565Z</time></trkpt><trkpt lat="44.1819032" lon="12.1664876"><ele>23.0</ele><time>2026-04-25T08:21:45.519Z</time></trkpt><trkpt lat="44.1817865" lon="12.1662599"><ele>23.0</ele><time>2026-04-25T08:21:46.52Z</time></trkpt><trkpt lat="44.1816645" lon="12.1660319"><ele>23.0</ele><time>2026-04-25T08:21:47.522Z</time></trkpt><trkpt lat="44.1815396" lon="12.165796"><ele>23.0</ele><time>2026-04-25T08:21:48.534Z</time></trkpt><trkpt lat="44.1814112" lon="12.1655682"><ele>23.333333333333336</ele><time>2026-04-25T08:21:49.522Z</time></trkpt><trkpt lat="44.1812814" lon="12.1653337"><ele>23.666666666666668</ele><time>2026-04-25T08:21:50.516Z</time></trkpt><trkpt lat="44.1811534" lon="12.1651067"><ele>24.0</ele><time>2026-04-25T08:21:51.523Z</time></trkpt><trkpt lat="44.1810159" lon="12.1649017"><ele>23.666666666666668</ele><time>2026-04-25T08:21:52.519Z</time></trkpt><trkpt lat="44.1808682" lon="12.1647218"><ele>23.333333333333336</ele><time>2026-04-25T08:21:53.527Z</time></trkpt><trkpt lat="44.1807215" lon="12.1645609"><ele>23.0</ele><time>2026-04-25T08:21:54.518Z</time></trkpt><trkpt lat="44.180561" lon="12.1644251"><ele>23.666666666666668</ele><time>2026-04-25T08:21:55.53Z</time></trkpt><trkpt lat="44.1803896" lon="12.1643193"><ele>24.333333333333336</ele><time>2026-04-25T08:21:56.519Z</time></trkpt><trkpt lat="44.1802171" lon="12.1642326"><ele>25.0</ele><time>2026-04-25T08:21:57.526Z</time></trkpt><trkpt lat="44.1800352" lon="12.1641789"><ele>25.0</ele><time>2026-04-25T08:21:58.512Z</time></trkpt><trkpt lat="44.1798531" lon="12.1641406"><ele>25.0</ele><time>2026-04-25T08:21:59.519Z</time></trkpt><trkpt lat="44.1796712" lon="12.1641182"><ele>25.0</ele><time>2026-04-25T08:22:00.521Z</time></trkpt><trkpt lat="44.1794976" lon="12.164092"><ele>25.333333333333336</ele><time>2026-04-25T08:22:01.53Z</time></trkpt><trkpt lat="44.1793245" lon="12.1640619"><ele>25.666666666666664</ele><time>2026-04-25T08:22:02.523Z</time></trkpt><trkpt lat="44.1791512" lon="12.1640332"><ele>26.0</ele><time>2026-04-25T08:22:03.527Z</time></trkpt><trkpt lat="44.1789853" lon="12.1640098"><ele>25.333333333333332</ele><time>2026-04-25T08:22:04.527Z</time></trkpt><trkpt lat="44.178821" lon="12.1639926"><ele>24.666666666666664</ele><time>2026-04-25T08:22:05.527Z</time></trkpt><trkpt lat="44.1786607" lon="12.1639663"><ele>24.0</ele><time>2026-04-25T08:22:06.526Z</time></trkpt><trkpt lat="44.1785001" lon="12.1639432"><ele>24.0</ele><time>2026-04-25T08:22:07.513Z</time></trkpt><trkpt lat="44.1783368" lon="12.1639231"><ele>24.0</ele><time>2026-04-25T08:22:08.522Z</time></trkpt><trkpt lat="44.1781693" lon="12.1638969"><ele>24.0</ele><time>2026-04-25T08:22:09.528Z</time></trkpt><trkpt lat="44.1780013" lon="12.1638524"><ele>24.333333333333336</ele><time>2026-04-25T08:22:10.52Z</time></trkpt><trkpt lat="44.1778329" lon="12.1638038"><ele>24.666666666666668</ele><time>2026-04-25T08:22:11.524Z</time></trkpt><trkpt lat="44.1776652" lon="12.1637348"><ele>25.0</ele><time>2026-04-25T08:22:12.52Z</time></trkpt><trkpt lat="44.1775081" lon="12.1636623"><ele>26.0</ele><time>2026-04-25T08:22:13.54Z</time></trkpt><trkpt lat="44.1773513" lon="12.1635794"><ele>27.0</ele><time>2026-04-25T08:22:14.521Z</time></trkpt><trkpt lat="44.1771964" lon="12.1634942"><ele>28.0</ele><time>2026-04-25T08:22:15.53Z</time></trkpt><trkpt lat="44.1770437" lon="12.1634024"><ele>28.0</ele><time>2026-04-25T08:22:16.526Z</time></trkpt><trkpt lat="44.1768963" lon="12.1633161"><ele>28.0</ele><time>2026-04-25T08:22:17.527Z</time></trkpt><trkpt lat="44.176744" lon="12.1632341"><ele>28.0</ele><time>2026-04-25T08:22:18.524Z</time></trkpt><trkpt lat="44.1765867" lon="12.1631475"><ele>27.666666666666668</ele><time>2026-04-25T08:22:19.523Z</time></trkpt><trkpt lat="44.1764304" lon="12.1630581"><ele>27.333333333333336</ele><time>2026-04-25T08:22:20.519Z</time></trkpt><trkpt lat="44.1762714" lon="12.1629639"><ele>27.0</ele><time>2026-04-25T08:22:21.521Z</time></trkpt><trkpt lat="44.1761137" lon="12.1628727"><ele>27.0</ele><time>2026-04-25T08:22:22.536Z</time></trkpt><trkpt lat="44.1759571" lon="12.1627836"><ele>27.0</ele><time>2026-04-25T08:22:23.52Z</time></trkpt><trkpt lat="44.1757948" lon="12.1627027"><ele>27.0</ele><time>2026-04-25T08:22:24.518Z</time></trkpt><trkpt lat="44.175634" lon="12.1626256"><ele>26.666666666666664</ele><time>2026-04-25T08:22:25.517Z</time></trkpt><trkpt lat="44.1754709" lon="12.1625554"><ele>26.333333333333332</ele><time>2026-04-25T08:22:26.52Z</time></trkpt><trkpt lat="44.1753098" lon="12.1624853"><ele>26.0</ele><time>2026-04-25T08:22:27.522Z</time></trkpt><trkpt lat="44.175147" lon="12.1624173"><ele>25.666666666666664</ele><time>2026-04-25T08:22:28.521Z</time></trkpt><trkpt lat="44.1749856" lon="12.1623416"><ele>25.333333333333336</ele><time>2026-04-25T08:22:29.521Z</time></trkpt><trkpt lat="44.1748283" lon="12.1622659"><ele>25.0</ele><time>2026-04-25T08:22:30.517Z</time></trkpt><trkpt lat="44.1746745" lon="12.1621928"><ele>24.666666666666668</ele><time>2026-04-25T08:22:31.537Z</time></trkpt><trkpt lat="44.1745096" lon="12.1621238"><ele>24.333333333333336</ele><time>2026-04-25T08:22:32.521Z</time></trkpt><trkpt lat="44.1743438" lon="12.1620503"><ele>24.0</ele><time>2026-04-25T08:22:33.522Z</time></trkpt><trkpt lat="44.1741779" lon="12.1619805"><ele>24.333333333333336</ele><time>2026-04-25T08:22:34.527Z</time></trkpt><trkpt lat="44.1740175" lon="12.1619113"><ele>24.666666666666668</ele><time>2026-04-25T08:22:35.517Z</time></trkpt><trkpt lat="44.1738599" lon="12.1618502"><ele>25.0</ele><time>2026-04-25T08:22:36.523Z</time></trkpt><trkpt lat="44.1737096" lon="12.1617932"><ele>25.0</ele><time>2026-04-25T08:22:37.517Z</time></trkpt><trkpt lat="44.1735599" lon="12.1617358"><ele>25.0</ele><time>2026-04-25T08:22:38.523Z</time></trkpt><trkpt lat="44.1734147" lon="12.1616705"><ele>25.0</ele><time>2026-04-25T08:22:39.519Z</time></trkpt><trkpt lat="44.1732757" lon="12.1616062"><ele>25.0</ele><time>2026-04-25T08:22:40.519Z</time></trkpt><trkpt lat="44.1731484" lon="12.1615448"><ele>25.0</ele><time>2026-04-25T08:22:41.519Z</time></trkpt><trkpt lat="44.1730251" lon="12.1614956"><ele>25.0</ele><time>2026-04-25T08:22:42.509Z</time></trkpt><trkpt lat="44.1729199" lon="12.1614373"><ele>25.0</ele><time>2026-04-25T08:22:43.515Z</time></trkpt><trkpt lat="44.1728237" lon="12.1613885"><ele>25.0</ele><time>2026-04-25T08:22:44.528Z</time></trkpt><trkpt lat="44.1727391" lon="12.1613388"><ele>25.0</ele><time>2026-04-25T08:22:45.517Z</time></trkpt><trkpt lat="44.1726708" lon="12.161277"><ele>25.0</ele><time>2026-04-25T08:22:46.522Z</time></trkpt><trkpt lat="44.1726098" lon="12.1611921"><ele>25.0</ele><time>2026-04-25T08:22:47.52Z</time></trkpt><trkpt lat="44.1725578" lon="12.1610841"><ele>25.0</ele><time>2026-04-25T08:22:48.52Z</time></trkpt><trkpt lat="44.1725247" lon="12.1609496"><ele>25.0</ele><time>2026-04-25T08:22:49.514Z</time></trkpt><trkpt lat="44.1725113" lon="12.1607969"><ele>25.0</ele><time>2026-04-25T08:22:50.511Z</time></trkpt><trkpt lat="44.1725108" lon="12.1606345"><ele>25.0</ele><time>2026-04-25T08:22:51.529Z</time></trkpt><trkpt lat="44.1725299" lon="12.1604717"><ele>25.0</ele><time>2026-04-25T08:22:52.522Z</time></trkpt><trkpt lat="44.1725732" lon="12.160293"><ele>25.5</ele><time>2026-04-25T08:22:53.535Z</time></trkpt><trkpt lat="44.1726263" lon="12.1601115"><ele>26.0</ele><time>2026-04-25T08:22:54.535Z</time></trkpt><trkpt lat="44.172684" lon="12.1599251"><ele>26.5</ele><time>2026-04-25T08:22:55.523Z</time></trkpt><trkpt lat="44.1727506" lon="12.1597363"><ele>27.0</ele><time>2026-04-25T08:22:56.531Z</time></trkpt><trkpt lat="44.1728184" lon="12.1595523"><ele>27.0</ele><time>2026-04-25T08:22:57.52Z</time></trkpt><trkpt lat="44.1728901" lon="12.1593688"><ele>27.0</ele><time>2026-04-25T08:22:58.521Z</time></trkpt><trkpt lat="44.1729665" lon="12.1591759"><ele>27.0</ele><time>2026-04-25T08:22:59.522Z</time></trkpt><trkpt lat="44.1730471" lon="12.1589856"><ele>27.0</ele><time>2026-04-25T08:23:00.522Z</time></trkpt><trkpt lat="44.1731243" lon="12.1587889"><ele>27.0</ele><time>2026-04-25T08:23:01.526Z</time></trkpt><trkpt lat="44.1732034" lon="12.1585943"><ele>27.0</ele><time>2026-04-25T08:23:02.528Z</time></trkpt><trkpt lat="44.1732904" lon="12.1583956"><ele>26.0</ele><time>2026-04-25T08:23:03.527Z</time></trkpt><trkpt lat="44.1733724" lon="12.1581874"><ele>25.0</ele><time>2026-04-25T08:23:04.53Z</time></trkpt><trkpt lat="44.1734592" lon="12.1579801"><ele>24.0</ele><time>2026-04-25T08:23:05.522Z</time></trkpt><trkpt lat="44.173545" lon="12.1577788"><ele>24.0</ele><time>2026-04-25T08:23:06.526Z</time></trkpt><trkpt lat="44.1736326" lon="12.1575738"><ele>24.0</ele><time>2026-04-25T08:23:07.514Z</time></trkpt><trkpt lat="44.1737159" lon="12.1573686"><ele>24.0</ele><time>2026-04-25T08:23:08.518Z</time></trkpt><trkpt lat="44.1737971" lon="12.1571704"><ele>24.0</ele><time>2026-04-25T08:23:09.513Z</time></trkpt><trkpt lat="44.1738809" lon="12.1569711"><ele>24.0</ele><time>2026-04-25T08:23:10.515Z</time></trkpt><trkpt lat="44.1739666" lon="12.1567759"><ele>24.0</ele><time>2026-04-25T08:23:11.529Z</time></trkpt><trkpt lat="44.1740527" lon="12.1565789"><ele>24.666666666666664</ele><time>2026-04-25T08:23:12.526Z</time></trkpt><trkpt lat="44.1741367" lon="12.1563836"><ele>25.333333333333332</ele><time>2026-04-25T08:23:13.514Z</time></trkpt><trkpt lat="44.1742202" lon="12.1561939"><ele>26.0</ele><time>2026-04-25T08:23:14.512Z</time></trkpt><trkpt lat="44.1743006" lon="12.1559999"><ele>26.0</ele><time>2026-04-25T08:23:15.524Z</time></trkpt><trkpt lat="44.1743835" lon="12.1558015"><ele>26.0</ele><time>2026-04-25T08:23:16.523Z</time></trkpt><trkpt lat="44.1744708" lon="12.1555917"><ele>26.0</ele><time>2026-04-25T08:23:17.523Z</time></trkpt><trkpt lat="44.1745569" lon="12.1553844"><ele>26.0</ele><time>2026-04-25T08:23:18.532Z</time></trkpt><trkpt lat="44.1746442" lon="12.1551771"><ele>26.0</ele><time>2026-04-25T08:23:19.514Z</time></trkpt><trkpt lat="44.1747329" lon="12.1549618"><ele>26.0</ele><time>2026-04-25T08:23:20.526Z</time></trkpt><trkpt lat="44.1748237" lon="12.154754"><ele>25.666666666666664</ele><time>2026-04-25T08:23:21.512Z</time></trkpt><trkpt lat="44.1749119" lon="12.1545451"><ele>25.333333333333336</ele><time>2026-04-25T08:23:22.523Z</time></trkpt><trkpt lat="44.1749984" lon="12.1543385"><ele>25.0</ele><time>2026-04-25T08:23:23.521Z</time></trkpt><trkpt lat="44.1750814" lon="12.1541324"><ele>25.333333333333336</ele><time>2026-04-25T08:23:24.52Z</time></trkpt><trkpt lat="44.1751667" lon="12.1539299"><ele>25.666666666666664</ele><time>2026-04-25T08:23:25.529Z</time></trkpt><trkpt lat="44.1752517" lon="12.1537269"><ele>26.0</ele><time>2026-04-25T08:23:26.515Z</time></trkpt><trkpt lat="44.175337" lon="12.1535219"><ele>26.0</ele><time>2026-04-25T08:23:27.516Z</time></trkpt><trkpt lat="44.1754214" lon="12.1533105"><ele>26.0</ele><time>2026-04-25T08:23:28.523Z</time></trkpt><trkpt lat="44.1755089" lon="12.1530999"><ele>26.0</ele><time>2026-04-25T08:23:29.521Z</time></trkpt><trkpt lat="44.1755988" lon="12.1528808"><ele>25.666666666666664</ele><time>2026-04-25T08:23:30.522Z</time></trkpt><trkpt lat="44.1756913" lon="12.1526632"><ele>25.333333333333336</ele><time>2026-04-25T08:23:31.528Z</time></trkpt><trkpt lat="44.175778" lon="12.1524415"><ele>25.0</ele><time>2026-04-25T08:23:32.511Z</time></trkpt><trkpt lat="44.1758685" lon="12.1522248"><ele>25.0</ele><time>2026-04-25T08:23:33.519Z</time></trkpt><trkpt lat="44.1759573" lon="12.152007"><ele>25.0</ele><time>2026-04-25T08:23:34.53Z</time></trkpt><trkpt lat="44.1760479" lon="12.1517935"><ele>25.0</ele><time>2026-04-25T08:23:35.523Z</time></trkpt><trkpt lat="44.1761399" lon="12.1515759"><ele>25.0</ele><time>2026-04-25T08:23:36.534Z</time></trkpt><trkpt lat="44.176232" lon="12.1513554"><ele>25.0</ele><time>2026-04-25T08:23:37.525Z</time></trkpt><trkpt lat="44.1763286" lon="12.151135"><ele>25.0</ele><time>2026-04-25T08:23:38.524Z</time></trkpt><trkpt lat="44.1764175" lon="12.1509265"><ele>25.0</ele><time>2026-04-25T08:23:39.53Z</time></trkpt><trkpt lat="44.1765041" lon="12.150717"><ele>25.0</ele><time>2026-04-25T08:23:40.521Z</time></trkpt><trkpt lat="44.1765915" lon="12.1505095"><ele>25.0</ele><time>2026-04-25T08:23:41.518Z</time></trkpt><trkpt lat="44.1766755" lon="12.1503036"><ele>25.333333333333336</ele><time>2026-04-25T08:23:42.517Z</time></trkpt><trkpt lat="44.1767591" lon="12.1500965"><ele>25.666666666666664</ele><time>2026-04-25T08:23:43.513Z</time></trkpt><trkpt lat="44.1768456" lon="12.1498899"><ele>26.0</ele><time>2026-04-25T08:23:44.523Z</time></trkpt><trkpt lat="44.1769295" lon="12.149687"><ele>26.0</ele><time>2026-04-25T08:23:45.523Z</time></trkpt><trkpt lat="44.1770113" lon="12.149488"><ele>26.0</ele><time>2026-04-25T08:23:46.519Z</time></trkpt><trkpt lat="44.1770905" lon="12.1493022"><ele>26.0</ele><time>2026-04-25T08:23:47.52Z</time></trkpt><trkpt lat="44.1771625" lon="12.1491313"><ele>26.0</ele><time>2026-04-25T08:23:48.527Z</time></trkpt><trkpt lat="44.1772349" lon="12.1489589"><ele>26.0</ele><time>2026-04-25T08:23:49.521Z</time></trkpt><trkpt lat="44.1773095" lon="12.1487791"><ele>26.0</ele><time>2026-04-25T08:23:50.517Z</time></trkpt><trkpt lat="44.177393" lon="12.1485844"><ele>26.333333333333332</ele><time>2026-04-25T08:23:51.522Z</time></trkpt><trkpt lat="44.1774737" lon="12.1483899"><ele>26.666666666666664</ele><time>2026-04-25T08:23:52.524Z</time></trkpt><trkpt lat="44.1775498" lon="12.1481962"><ele>27.0</ele><time>2026-04-25T08:23:53.523Z</time></trkpt><trkpt lat="44.1776341" lon="12.1480052"><ele>27.333333333333336</ele><time>2026-04-25T08:23:54.532Z</time></trkpt><trkpt lat="44.1777141" lon="12.1478099"><ele>27.666666666666668</ele><time>2026-04-25T08:23:55.519Z</time></trkpt><trkpt lat="44.1777943" lon="12.1476176"><ele>28.0</ele><time>2026-04-25T08:23:56.528Z</time></trkpt><trkpt lat="44.1778783" lon="12.1474219"><ele>27.333333333333336</ele><time>2026-04-25T08:23:57.519Z</time></trkpt><trkpt lat="44.1779593" lon="12.1472225"><ele>26.666666666666664</ele><time>2026-04-25T08:23:58.534Z</time></trkpt><trkpt lat="44.1780424" lon="12.14702"><ele>26.0</ele><time>2026-04-25T08:23:59.524Z</time></trkpt><trkpt lat="44.1781275" lon="12.146814"><ele>26.0</ele><time>2026-04-25T08:24:00.524Z</time></trkpt><trkpt lat="44.1782112" lon="12.1466079"><ele>26.0</ele><time>2026-04-25T08:24:01.519Z</time></trkpt><trkpt lat="44.1783002" lon="12.146396"><ele>26.0</ele><time>2026-04-25T08:24:02.52Z</time></trkpt><trkpt lat="44.1783942" lon="12.1461741"><ele>26.0</ele><time>2026-04-25T08:24:03.523Z</time></trkpt><trkpt lat="44.1784887" lon="12.1459464"><ele>26.0</ele><time>2026-04-25T08:24:04.522Z</time></trkpt><trkpt lat="44.1785823" lon="12.1457181"><ele>26.0</ele><time>2026-04-25T08:24:05.514Z</time></trkpt><trkpt lat="44.1786801" lon="12.1454843"><ele>25.666666666666664</ele><time>2026-04-25T08:24:06.527Z</time></trkpt><trkpt lat="44.1787794" lon="12.1452513"><ele>25.333333333333336</ele><time>2026-04-25T08:24:07.517Z</time></trkpt><trkpt lat="44.1788842" lon="12.145023"><ele>25.0</ele><time>2026-04-25T08:24:08.529Z</time></trkpt><trkpt lat="44.1789824" lon="12.1447941"><ele>25.333333333333336</ele><time>2026-04-25T08:24:09.519Z</time></trkpt><trkpt lat="44.1790811" lon="12.1445638"><ele>25.666666666666664</ele><time>2026-04-25T08:24:10.529Z</time></trkpt><trkpt lat="44.1791724" lon="12.1443331"><ele>26.0</ele><time>2026-04-25T08:24:11.52Z</time></trkpt><trkpt lat="44.1792657" lon="12.1441005"><ele>26.0</ele><time>2026-04-25T08:24:12.52Z</time></trkpt><trkpt lat="44.1793606" lon="12.1438684"><ele>26.0</ele><time>2026-04-25T08:24:13.52Z</time></trkpt><trkpt lat="44.179456" lon="12.1436314"><ele>26.0</ele><time>2026-04-25T08:24:14.519Z</time></trkpt><trkpt lat="44.1795554" lon="12.1433974"><ele>26.0</ele><time>2026-04-25T08:24:15.52Z</time></trkpt><trkpt lat="44.1796541" lon="12.1431662"><ele>26.0</ele><time>2026-04-25T08:24:16.522Z</time></trkpt><trkpt lat="44.1797507" lon="12.1429304"><ele>26.0</ele><time>2026-04-25T08:24:17.517Z</time></trkpt><trkpt lat="44.1798455" lon="12.1426946"><ele>25.666666666666664</ele><time>2026-04-25T08:24:18.511Z</time></trkpt><trkpt lat="44.1799389" lon="12.1424649"><ele>25.333333333333336</ele><time>2026-04-25T08:24:19.525Z</time></trkpt><trkpt lat="44.1800348" lon="12.1422353"><ele>25.0</ele><time>2026-04-25T08:24:20.518Z</time></trkpt><trkpt lat="44.1801275" lon="12.1420123"><ele>25.0</ele><time>2026-04-25T08:24:21.523Z</time></trkpt><trkpt lat="44.1802236" lon="12.1417884"><ele>25.0</ele><time>2026-04-25T08:24:22.519Z</time></trkpt><trkpt lat="44.1803207" lon="12.1415737"><ele>25.0</ele><time>2026-04-25T08:24:23.523Z</time></trkpt><trkpt lat="44.1804182" lon="12.1413654"><ele>25.0</ele><time>2026-04-25T08:24:24.525Z</time></trkpt><trkpt lat="44.1805134" lon="12.1411662"><ele>25.0</ele><time>2026-04-25T08:24:25.521Z</time></trkpt><trkpt lat="44.1806153" lon="12.1409767"><ele>25.0</ele><time>2026-04-25T08:24:26.521Z</time></trkpt><trkpt lat="44.1807155" lon="12.1407919"><ele>25.666666666666668</ele><time>2026-04-25T08:24:27.522Z</time></trkpt><trkpt lat="44.1808182" lon="12.1406227"><ele>26.333333333333336</ele><time>2026-04-25T08:24:28.513Z</time></trkpt><trkpt lat="44.1809218" lon="12.1404688"><ele>27.0</ele><time>2026-04-25T08:24:29.511Z</time></trkpt><trkpt lat="44.1810171" lon="12.1403271"><ele>27.0</ele><time>2026-04-25T08:24:30.513Z</time></trkpt><trkpt lat="44.1811068" lon="12.1402042"><ele>27.0</ele><time>2026-04-25T08:24:31.519Z</time></trkpt><trkpt lat="44.181208" lon="12.140094"><ele>27.0</ele><time>2026-04-25T08:24:32.513Z</time></trkpt><trkpt lat="44.1813131" lon="12.1399959"><ele>27.0</ele><time>2026-04-25T08:24:33.516Z</time></trkpt><trkpt lat="44.1814206" lon="12.1399393"><ele>26.8</ele><time>2026-04-25T08:24:34.516Z</time></trkpt><trkpt lat="44.181532" lon="12.1399"><ele>26.6</ele><time>2026-04-25T08:24:35.528Z</time></trkpt><trkpt lat="44.1816418" lon="12.139883"><ele>26.400000000000002</ele><time>2026-04-25T08:24:36.522Z</time></trkpt><trkpt lat="44.1817394" lon="12.1398493"><ele>26.200000000000003</ele><time>2026-04-25T08:24:37.523Z</time></trkpt><trkpt lat="44.18182" lon="12.1397853"><ele>26.0</ele><time>2026-04-25T08:24:38.521Z</time></trkpt><trkpt lat="44.1818828" lon="12.139684"><ele>26.0</ele><time>2026-04-25T08:24:39.529Z</time></trkpt><trkpt lat="44.1819236" lon="12.1395705"><ele>26.0</ele><time>2026-04-25T08:24:40.541Z</time></trkpt><trkpt lat="44.181931" lon="12.1394422"><ele>26.0</ele><time>2026-04-25T08:24:41.522Z</time></trkpt><trkpt lat="44.181906" lon="12.1393148"><ele>26.0</ele><time>2026-04-25T08:24:42.519Z</time></trkpt><trkpt lat="44.1818563" lon="12.1392084"><ele>26.0</ele><time>2026-04-25T08:24:43.521Z</time></trkpt><trkpt lat="44.1817793" lon="12.1391255"><ele>25.999999999999996</ele><time>2026-04-25T08:24:44.52Z</time></trkpt><trkpt lat="44.1817063" lon="12.1390617"><ele>26.0</ele><time>2026-04-25T08:24:45.517Z</time></trkpt><trkpt lat="44.1816209" lon="12.1390075"><ele>26.0</ele><time>2026-04-25T08:24:46.52Z</time></trkpt><trkpt lat="44.1815601" lon="12.13893"><ele>26.0</ele><time>2026-04-25T08:24:47.523Z</time></trkpt><trkpt lat="44.181532" lon="12.1388242"><ele>25.999999999999996</ele><time>2026-04-25T08:24:48.519Z</time></trkpt><trkpt lat="44.1815373" lon="12.138702"><ele>26.0</ele><time>2026-04-25T08:24:49.513Z</time></trkpt><trkpt lat="44.1815706" lon="12.1385877"><ele>26.5</ele><time>2026-04-25T08:24:50.533Z</time></trkpt><trkpt lat="44.1816296" lon="12.1384622"><ele>27.0</ele><time>2026-04-25T08:24:51.52Z</time></trkpt><trkpt lat="44.1816914" lon="12.1383211"><ele>27.5</ele><time>2026-04-25T08:24:52.517Z</time></trkpt><trkpt lat="44.1817531" lon="12.1381679"><ele>28.0</ele><time>2026-04-25T08:24:53.519Z</time></trkpt><trkpt lat="44.1818142" lon="12.1380068"><ele>28.0</ele><time>2026-04-25T08:24:54.517Z</time></trkpt><trkpt lat="44.1818817" lon="12.1378373"><ele>28.0</ele><time>2026-04-25T08:24:55.511Z</time></trkpt><trkpt lat="44.1819545" lon="12.1376669"><ele>28.0</ele><time>2026-04-25T08:24:56.518Z</time></trkpt><trkpt lat="44.1820276" lon="12.1374983"><ele>28.0</ele><time>2026-04-25T08:24:57.516Z</time></trkpt><trkpt lat="44.1820957" lon="12.1373247"><ele>28.25</ele><time>2026-04-25T08:24:58.513Z</time></trkpt><trkpt lat="44.1821641" lon="12.1371473"><ele>28.5</ele><time>2026-04-25T08:24:59.515Z</time></trkpt><trkpt lat="44.1822319" lon="12.1369774"><ele>28.75</ele><time>2026-04-25T08:25:00.517Z</time></trkpt><trkpt lat="44.1822907" lon="12.1368168"><ele>29.0</ele><time>2026-04-25T08:25:01.513Z</time></trkpt><trkpt lat="44.182346" lon="12.1366713"><ele>29.0</ele><time>2026-04-25T08:25:02.527Z</time></trkpt><trkpt lat="44.1824007" lon="12.1365319"><ele>29.0</ele><time>2026-04-25T08:25:03.531Z</time></trkpt><trkpt lat="44.1824492" lon="12.1364059"><ele>29.0</ele><time>2026-04-25T08:25:04.519Z</time></trkpt><trkpt lat="44.1824962" lon="12.1362898"><ele>29.0</ele><time>2026-04-25T08:25:05.517Z</time></trkpt><trkpt lat="44.1825351" lon="12.1361842"><ele>29.0</ele><time>2026-04-25T08:25:06.524Z</time></trkpt><trkpt lat="44.1825687" lon="12.1360872"><ele>29.0</ele><time>2026-04-25T08:25:07.526Z</time></trkpt><trkpt lat="44.1826092" lon="12.1359797"><ele>29.0</ele><time>2026-04-25T08:25:08.517Z</time></trkpt><trkpt lat="44.182658" lon="12.1358629"><ele>29.0</ele><time>2026-04-25T08:25:09.517Z</time></trkpt><trkpt lat="44.182712" lon="12.1357505"><ele>29.0</ele><time>2026-04-25T08:25:10.519Z</time></trkpt><trkpt lat="44.1827708" lon="12.1356354"><ele>29.0</ele><time>2026-04-25T08:25:11.531Z</time></trkpt><trkpt lat="44.1828275" lon="12.1355223"><ele>29.166666666666664</ele><time>2026-04-25T08:25:12.514Z</time></trkpt><trkpt lat="44.1828912" lon="12.1354253"><ele>29.333333333333332</ele><time>2026-04-25T08:25:13.519Z</time></trkpt><trkpt lat="44.1829599" lon="12.1353581"><ele>29.5</ele><time>2026-04-25T08:25:14.52Z</time></trkpt><trkpt lat="44.1830285" lon="12.1352988"><ele>29.666666666666664</ele><time>2026-04-25T08:25:15.522Z</time></trkpt><trkpt lat="44.1830988" lon="12.1352618"><ele>29.833333333333332</ele><time>2026-04-25T08:25:16.519Z</time></trkpt><trkpt lat="44.1831772" lon="12.1352415"><ele>30.0</ele><time>2026-04-25T08:25:17.516Z</time></trkpt><trkpt lat="44.1832448" lon="12.1352268"><ele>29.8</ele><time>2026-04-25T08:25:18.52Z</time></trkpt><trkpt lat="44.1833227" lon="12.1351286"><ele>29.6</ele><time>2026-04-25T08:25:20.526Z</time></trkpt><trkpt lat="44.1833067" lon="12.1349869"><ele>29.4</ele><time>2026-04-25T08:25:22.535Z</time></trkpt><trkpt lat="44.1832377" lon="12.1348587"><ele>29.2</ele><time>2026-04-25T08:25:24.523Z</time></trkpt><trkpt lat="44.1831892" lon="12.1347267"><ele>29.0</ele><time>2026-04-25T08:25:26.535Z</time></trkpt><trkpt lat="44.1832083" lon="12.1346171"><ele>28.999999999999996</ele><time>2026-04-25T08:25:27.517Z</time></trkpt><trkpt lat="44.1832446" lon="12.1345102"><ele>29.0</ele><time>2026-04-25T08:25:28.53Z</time></trkpt><trkpt lat="44.183293" lon="12.1344099"><ele>29.0</ele><time>2026-04-25T08:25:29.517Z</time></trkpt><trkpt lat="44.1833338" lon="12.1343136"><ele>29.0</ele><time>2026-04-25T08:25:30.523Z</time></trkpt><trkpt lat="44.1833756" lon="12.1342123"><ele>28.999999999999996</ele><time>2026-04-25T08:25:31.523Z</time></trkpt><trkpt lat="44.1834186" lon="12.1340988"><ele>29.0</ele><time>2026-04-25T08:25:32.522Z</time></trkpt><trkpt lat="44.1834652" lon="12.1339894"><ele>29.166666666666664</ele><time>2026-04-25T08:25:33.517Z</time></trkpt><trkpt lat="44.1835076" lon="12.1338867"><ele>29.333333333333332</ele><time>2026-04-25T08:25:34.524Z</time></trkpt><trkpt lat="44.1835457" lon="12.1337955"><ele>29.5</ele><time>2026-04-25T08:25:35.514Z</time></trkpt><trkpt lat="44.1835795" lon="12.1337139"><ele>29.666666666666664</ele><time>2026-04-25T08:25:36.523Z</time></trkpt><trkpt lat="44.1836385" lon="12.1335888"><ele>29.833333333333332</ele><time>2026-04-25T08:25:38.508Z</time></trkpt><trkpt lat="44.1836827" lon="12.1334959"><ele>30.0</ele><time>2026-04-25T08:25:40.515Z</time></trkpt><trkpt lat="44.1837004" lon="12.1334018"><ele>30.0</ele><time>2026-04-25T08:25:44.522Z</time></trkpt><trkpt lat="44.183733" lon="12.133325"><ele>30.0</ele><time>2026-04-25T08:25:48.519Z</time></trkpt><trkpt lat="44.1837922" lon="12.1332098"><ele>30.0</ele><time>2026-04-25T08:26:11.517Z</time></trkpt><trkpt lat="44.1838273" lon="12.1330959"><ele>30.0</ele><time>2026-04-25T08:26:12.51Z</time></trkpt><trkpt lat="44.1838565" lon="12.1329479"><ele>30.0</ele><time>2026-04-25T08:26:13.521Z</time></trkpt><trkpt lat="44.1838992" lon="12.1327835"><ele>30.0</ele><time>2026-04-25T08:26:14.518Z</time></trkpt><trkpt lat="44.1839455" lon="12.1326126"><ele>30.0</ele><time>2026-04-25T08:26:15.516Z</time></trkpt><trkpt lat="44.1839998" lon="12.1324288"><ele>30.0</ele><time>2026-04-25T08:26:16.533Z</time></trkpt><trkpt lat="44.1840593" lon="12.132229"><ele>30.0</ele><time>2026-04-25T08:26:17.521Z</time></trkpt><trkpt lat="44.1841223" lon="12.1320224"><ele>30.0</ele><time>2026-04-25T08:26:18.519Z</time></trkpt><trkpt lat="44.1841798" lon="12.1318128"><ele>30.0</ele><time>2026-04-25T08:26:19.512Z</time></trkpt><trkpt lat="44.1842368" lon="12.1316144"><ele>30.0</ele><time>2026-04-25T08:26:20.525Z</time></trkpt><trkpt lat="44.1842966" lon="12.1314131"><ele>30.25</ele><time>2026-04-25T08:26:21.527Z</time></trkpt><trkpt lat="44.1843527" lon="12.1312226"><ele>30.5</ele><time>2026-04-25T08:26:22.522Z</time></trkpt><trkpt lat="44.1844125" lon="12.1310327"><ele>30.75</ele><time>2026-04-25T08:26:23.52Z</time></trkpt><trkpt lat="44.1844669" lon="12.1308342"><ele>31.0</ele><time>2026-04-25T08:26:24.517Z</time></trkpt><trkpt lat="44.1845251" lon="12.1306419"><ele>31.0</ele><time>2026-04-25T08:26:25.529Z</time></trkpt><trkpt lat="44.1845867" lon="12.1304432"><ele>31.0</ele><time>2026-04-25T08:26:26.517Z</time></trkpt><trkpt lat="44.1846449" lon="12.1302448"><ele>31.0</ele><time>2026-04-25T08:26:27.521Z</time></trkpt><trkpt lat="44.1846993" lon="12.1300686"><ele>31.0</ele><time>2026-04-25T08:26:28.522Z</time></trkpt><trkpt lat="44.1847495" lon="12.1298998"><ele>30.666666666666668</ele><time>2026-04-25T08:26:29.536Z</time></trkpt><trkpt lat="44.1847882" lon="12.1297661"><ele>30.333333333333336</ele><time>2026-04-25T08:26:30.521Z</time></trkpt><trkpt lat="44.1848279" lon="12.1296558"><ele>30.0</ele><time>2026-04-25T08:26:31.537Z</time></trkpt><trkpt lat="44.1848606" lon="12.1295657"><ele>29.666666666666664</ele><time>2026-04-25T08:26:32.523Z</time></trkpt><trkpt lat="44.1848983" lon="12.1294771"><ele>29.333333333333332</ele><time>2026-04-25T08:26:33.521Z</time></trkpt><trkpt lat="44.1849447" lon="12.1293756"><ele>29.0</ele><time>2026-04-25T08:26:34.513Z</time></trkpt><trkpt lat="44.1849768" lon="12.1292502"><ele>29.0</ele><time>2026-04-25T08:26:35.529Z</time></trkpt><trkpt lat="44.1850062" lon="12.1291129"><ele>29.0</ele><time>2026-04-25T08:26:36.524Z</time></trkpt><trkpt lat="44.18505" lon="12.1289628"><ele>29.0</ele><time>2026-04-25T08:26:37.515Z</time></trkpt><trkpt lat="44.1851024" lon="12.1288081"><ele>29.0</ele><time>2026-04-25T08:26:38.531Z</time></trkpt><trkpt lat="44.1851539" lon="12.1286478"><ele>29.5</ele><time>2026-04-25T08:26:39.55Z</time></trkpt><trkpt lat="44.1852018" lon="12.1284895"><ele>30.0</ele><time>2026-04-25T08:26:40.526Z</time></trkpt><trkpt lat="44.1852433" lon="12.1283409"><ele>30.5</ele><time>2026-04-25T08:26:41.514Z</time></trkpt><trkpt lat="44.1852859" lon="12.1281919"><ele>31.0</ele><time>2026-04-25T08:26:42.534Z</time></trkpt><trkpt lat="44.185326" lon="12.12805"><ele>31.200000000000003</ele><time>2026-04-25T08:26:43.531Z</time></trkpt><trkpt lat="44.1853682" lon="12.1279044"><ele>31.400000000000002</ele><time>2026-04-25T08:26:44.53Z</time></trkpt><trkpt lat="44.1854021" lon="12.127776"><ele>31.6</ele><time>2026-04-25T08:26:45.536Z</time></trkpt><trkpt lat="44.1854372" lon="12.1276648"><ele>31.8</ele><time>2026-04-25T08:26:46.524Z</time></trkpt><trkpt lat="44.1854749" lon="12.12757"><ele>32.0</ele><time>2026-04-25T08:26:47.53Z</time></trkpt><trkpt lat="44.1855109" lon="12.1274793"><ele>32.0</ele><time>2026-04-25T08:26:48.524Z</time></trkpt><trkpt lat="44.1855627" lon="12.1273538"><ele>32.0</ele><time>2026-04-25T08:26:50.538Z</time></trkpt><trkpt lat="44.1856123" lon="12.1272789"><ele>32.0</ele><time>2026-04-25T08:26:53.522Z</time></trkpt><trkpt lat="44.1856896" lon="12.1272359"><ele>32.0</ele><time>2026-04-25T08:27:00.535Z</time></trkpt><trkpt lat="44.1857481" lon="12.127155"><ele>32.0</ele><time>2026-04-25T08:27:02.537Z</time></trkpt><trkpt lat="44.1857704" lon="12.1269998"><ele>32.2</ele><time>2026-04-25T08:27:04.529Z</time></trkpt><trkpt lat="44.1858154" lon="12.1268434"><ele>32.400000000000006</ele><time>2026-04-25T08:27:06.52Z</time></trkpt><trkpt lat="44.1858898" lon="12.126784"><ele>32.599999999999994</ele><time>2026-04-25T08:27:07.534Z</time></trkpt><trkpt lat="44.1859797" lon="12.1267212"><ele>32.8</ele><time>2026-04-25T08:27:08.511Z</time></trkpt><trkpt lat="44.1860718" lon="12.1266587"><ele>33.0</ele><time>2026-04-25T08:27:09.518Z</time></trkpt><trkpt lat="44.1861595" lon="12.1265929"><ele>33.0</ele><time>2026-04-25T08:27:10.52Z</time></trkpt><trkpt lat="44.186238" lon="12.1265293"><ele>33.0</ele><time>2026-04-25T08:27:11.53Z</time></trkpt><trkpt lat="44.186309" lon="12.1264644"><ele>33.0</ele><time>2026-04-25T08:27:12.521Z</time></trkpt><trkpt lat="44.1863725" lon="12.1263873"><ele>33.0</ele><time>2026-04-25T08:27:13.517Z</time></trkpt><trkpt lat="44.186428" lon="12.1262987"><ele>33.0</ele><time>2026-04-25T08:27:14.528Z</time></trkpt><trkpt lat="44.1864759" lon="12.1261919"><ele>33.0</ele><time>2026-04-25T08:27:15.511Z</time></trkpt><trkpt lat="44.1865063" lon="12.1260936"><ele>32.833333333333336</ele><time>2026-04-25T08:27:16.532Z</time></trkpt><trkpt lat="44.1865225" lon="12.1260069"><ele>32.666666666666664</ele><time>2026-04-25T08:27:17.529Z</time></trkpt><trkpt lat="44.1865323" lon="12.1259201"><ele>32.5</ele><time>2026-04-25T08:27:18.538Z</time></trkpt><trkpt lat="44.1865465" lon="12.1257552"><ele>32.33333333333333</ele><time>2026-04-25T08:27:20.517Z</time></trkpt><trkpt lat="44.1865565" lon="12.1256091"><ele>32.166666666666664</ele><time>2026-04-25T08:27:22.53Z</time></trkpt><trkpt lat="44.1865762" lon="12.125482"><ele>32.0</ele><time>2026-04-25T08:27:24.53Z</time></trkpt><trkpt lat="44.1864891" lon="12.1254107"><ele>31.999999999999996</ele><time>2026-04-25T08:27:27.532Z</time></trkpt><trkpt lat="44.1864259" lon="12.1254271"><ele>32.0</ele><time>2026-04-25T08:27:28.526Z</time></trkpt><trkpt lat="44.1863613" lon="12.1254033"><ele>32.0</ele><time>2026-04-25T08:27:29.542Z</time></trkpt><trkpt lat="44.1862885" lon="12.1253438"><ele>32.0</ele><time>2026-04-25T08:27:30.545Z</time></trkpt><trkpt lat="44.186219" lon="12.1252754"><ele>31.999999999999996</ele><time>2026-04-25T08:27:31.518Z</time></trkpt><trkpt lat="44.1861395" lon="12.1252046"><ele>32.0</ele><time>2026-04-25T08:27:32.531Z</time></trkpt><trkpt lat="44.1860536" lon="12.1251362"><ele>32.0</ele><time>2026-04-25T08:27:33.521Z</time></trkpt><trkpt lat="44.1859665" lon="12.1250652"><ele>32.0</ele><time>2026-04-25T08:27:34.511Z</time></trkpt><trkpt lat="44.1858769" lon="12.1249883"><ele>32.0</ele><time>2026-04-25T08:27:35.517Z</time></trkpt><trkpt lat="44.1857833" lon="12.1249077"><ele>32.0</ele><time>2026-04-25T08:27:36.515Z</time></trkpt><trkpt lat="44.185698" lon="12.1248264"><ele>32.0</ele><time>2026-04-25T08:27:37.516Z</time></trkpt><trkpt lat="44.1856033" lon="12.124745"><ele>32.5</ele><time>2026-04-25T08:27:38.521Z</time></trkpt><trkpt lat="44.1855047" lon="12.1246532"><ele>33.0</ele><time>2026-04-25T08:27:39.514Z</time></trkpt><trkpt lat="44.1854115" lon="12.1245684"><ele>33.5</ele><time>2026-04-25T08:27:40.524Z</time></trkpt><trkpt lat="44.1853162" lon="12.1244855"><ele>34.0</ele><time>2026-04-25T08:27:41.519Z</time></trkpt><trkpt lat="44.1852171" lon="12.1244042"><ele>34.0</ele><time>2026-04-25T08:27:42.519Z</time></trkpt><trkpt lat="44.1851199" lon="12.1243266"><ele>34.0</ele><time>2026-04-25T08:27:43.517Z</time></trkpt><trkpt lat="44.1850274" lon="12.1242518"><ele>34.0</ele><time>2026-04-25T08:27:44.521Z</time></trkpt><trkpt lat="44.1849342" lon="12.1241809"><ele>34.0</ele><time>2026-04-25T08:27:45.515Z</time></trkpt><trkpt lat="44.1848452" lon="12.1240977"><ele>34.0</ele><time>2026-04-25T08:27:46.511Z</time></trkpt><trkpt lat="44.184752" lon="12.1240122"><ele>33.5</ele><time>2026-04-25T08:27:47.535Z</time></trkpt><trkpt lat="44.1846581" lon="12.1239245"><ele>33.0</ele><time>2026-04-25T08:27:48.543Z</time></trkpt><trkpt lat="44.1845606" lon="12.1238404"><ele>32.5</ele><time>2026-04-25T08:27:49.533Z</time></trkpt><trkpt lat="44.1844592" lon="12.1237504"><ele>32.0</ele><time>2026-04-25T08:27:50.533Z</time></trkpt><trkpt lat="44.1843529" lon="12.1236619"><ele>32.0</ele><time>2026-04-25T08:27:51.524Z</time></trkpt><trkpt lat="44.1842478" lon="12.1235694"><ele>32.0</ele><time>2026-04-25T08:27:52.541Z</time></trkpt><trkpt lat="44.1841426" lon="12.1234708"><ele>32.0</ele><time>2026-04-25T08:27:53.521Z</time></trkpt><trkpt lat="44.1840396" lon="12.1233703"><ele>32.0</ele><time>2026-04-25T08:27:54.523Z</time></trkpt><trkpt lat="44.1839364" lon="12.1232698"><ele>32.0</ele><time>2026-04-25T08:27:55.511Z</time></trkpt><trkpt lat="44.1838342" lon="12.1231715"><ele>32.0</ele><time>2026-04-25T08:27:56.515Z</time></trkpt><trkpt lat="44.1837263" lon="12.1230707"><ele>32.0</ele><time>2026-04-25T08:27:57.527Z</time></trkpt><trkpt lat="44.1836168" lon="12.1229679"><ele>32.0</ele><time>2026-04-25T08:27:58.513Z</time></trkpt><trkpt lat="44.1835038" lon="12.1228759"><ele>32.0</ele><time>2026-04-25T08:27:59.531Z</time></trkpt><trkpt lat="44.1833866" lon="12.1227839"><ele>32.0</ele><time>2026-04-25T08:28:00.523Z</time></trkpt><trkpt lat="44.1832627" lon="12.1226867"><ele>32.0</ele><time>2026-04-25T08:28:01.512Z</time></trkpt><trkpt lat="44.1831382" lon="12.1225896"><ele>32.0</ele><time>2026-04-25T08:28:02.515Z</time></trkpt><trkpt lat="44.1830155" lon="12.1224928"><ele>32.25</ele><time>2026-04-25T08:28:03.515Z</time></trkpt><trkpt lat="44.182891" lon="12.1223978"><ele>32.5</ele><time>2026-04-25T08:28:04.516Z</time></trkpt><trkpt lat="44.1827694" lon="12.1222982"><ele>32.75</ele><time>2026-04-25T08:28:05.533Z</time></trkpt><trkpt lat="44.1826407" lon="12.1222019"><ele>33.0</ele><time>2026-04-25T08:28:06.53Z</time></trkpt><trkpt lat="44.1825168" lon="12.1221028"><ele>33.0</ele><time>2026-04-25T08:28:07.535Z</time></trkpt><trkpt lat="44.1823837" lon="12.1220074"><ele>33.0</ele><time>2026-04-25T08:28:08.536Z</time></trkpt><trkpt lat="44.1822559" lon="12.1219125"><ele>33.0</ele><time>2026-04-25T08:28:09.521Z</time></trkpt><trkpt lat="44.1821263" lon="12.1218146"><ele>33.0</ele><time>2026-04-25T08:28:10.525Z</time></trkpt><trkpt lat="44.1819944" lon="12.1217103"><ele>32.666666666666664</ele><time>2026-04-25T08:28:11.521Z</time></trkpt><trkpt lat="44.1818584" lon="12.1216067"><ele>32.33333333333333</ele><time>2026-04-25T08:28:12.536Z</time></trkpt><trkpt lat="44.1817242" lon="12.1215065"><ele>32.0</ele><time>2026-04-25T08:28:13.517Z</time></trkpt><trkpt lat="44.1815911" lon="12.121406"><ele>32.33333333333333</ele><time>2026-04-25T08:28:14.522Z</time></trkpt><trkpt lat="44.181461" lon="12.1213043"><ele>32.666666666666664</ele><time>2026-04-25T08:28:15.529Z</time></trkpt><trkpt lat="44.1813256" lon="12.1212041"><ele>33.0</ele><time>2026-04-25T08:28:16.53Z</time></trkpt><trkpt lat="44.1811905" lon="12.1211072"><ele>33.0</ele><time>2026-04-25T08:28:17.514Z</time></trkpt><trkpt lat="44.1810636" lon="12.1210102"><ele>33.0</ele><time>2026-04-25T08:28:18.516Z</time></trkpt><trkpt lat="44.1809399" lon="12.1209201"><ele>33.0</ele><time>2026-04-25T08:28:19.528Z</time></trkpt><trkpt lat="44.180832" lon="12.1208278"><ele>33.0</ele><time>2026-04-25T08:28:20.517Z</time></trkpt><trkpt lat="44.1807296" lon="12.1207548"><ele>32.75</ele><time>2026-04-25T08:28:21.516Z</time></trkpt><trkpt lat="44.1806382" lon="12.1206844"><ele>32.5</ele><time>2026-04-25T08:28:22.52Z</time></trkpt><trkpt lat="44.1805406" lon="12.1206194"><ele>32.25</ele><time>2026-04-25T08:28:23.519Z</time></trkpt><trkpt lat="44.1804374" lon="12.1205498"><ele>32.0</ele><time>2026-04-25T08:28:24.52Z</time></trkpt><trkpt lat="44.1803281" lon="12.1204633"><ele>32.0</ele><time>2026-04-25T08:28:25.528Z</time></trkpt><trkpt lat="44.1802179" lon="12.12037"><ele>32.0</ele><time>2026-04-25T08:28:26.518Z</time></trkpt><trkpt lat="44.1800987" lon="12.120283"><ele>32.0</ele><time>2026-04-25T08:28:27.514Z</time></trkpt><trkpt lat="44.1799809" lon="12.1201901"><ele>32.0</ele><time>2026-04-25T08:28:28.53Z</time></trkpt><trkpt lat="44.1798597" lon="12.1200917"><ele>32.0</ele><time>2026-04-25T08:28:29.515Z</time></trkpt><trkpt lat="44.1797343" lon="12.1199975"><ele>32.0</ele><time>2026-04-25T08:28:30.514Z</time></trkpt><trkpt lat="44.179614" lon="12.1198949"><ele>32.0</ele><time>2026-04-25T08:28:31.524Z</time></trkpt><trkpt lat="44.1794833" lon="12.1198008"><ele>32.0</ele><time>2026-04-25T08:28:32.511Z</time></trkpt><trkpt lat="44.1793629" lon="12.1196918"><ele>32.0</ele><time>2026-04-25T08:28:33.525Z</time></trkpt><trkpt lat="44.1792356" lon="12.1195862"><ele>32.0</ele><time>2026-04-25T08:28:34.513Z</time></trkpt><trkpt lat="44.179106" lon="12.1194771"><ele>32.0</ele><time>2026-04-25T08:28:35.516Z</time></trkpt><trkpt lat="44.1789799" lon="12.1193707"><ele>32.0</ele><time>2026-04-25T08:28:36.517Z</time></trkpt><trkpt lat="44.1788549" lon="12.1192649"><ele>32.25</ele><time>2026-04-25T08:28:37.514Z</time></trkpt><trkpt lat="44.1787306" lon="12.1191625"><ele>32.5</ele><time>2026-04-25T08:28:38.512Z</time></trkpt><trkpt lat="44.1786108" lon="12.1190586"><ele>32.75</ele><time>2026-04-25T08:28:39.51Z</time></trkpt><trkpt lat="44.1784958" lon="12.1189562"><ele>33.0</ele><time>2026-04-25T08:28:40.514Z</time></trkpt><trkpt lat="44.1783804" lon="12.1188455"><ele>33.0</ele><time>2026-04-25T08:28:41.525Z</time></trkpt><trkpt lat="44.1782688" lon="12.1187246"><ele>33.0</ele><time>2026-04-25T08:28:42.54Z</time></trkpt><trkpt lat="44.1781545" lon="12.1185994"><ele>33.0</ele><time>2026-04-25T08:28:43.532Z</time></trkpt><trkpt lat="44.1780465" lon="12.1184638"><ele>33.0</ele><time>2026-04-25T08:28:44.515Z</time></trkpt><trkpt lat="44.1779378" lon="12.1183102"><ele>32.666666666666664</ele><time>2026-04-25T08:28:45.527Z</time></trkpt><trkpt lat="44.1778329" lon="12.1181529"><ele>32.33333333333333</ele><time>2026-04-25T08:28:46.513Z</time></trkpt><trkpt lat="44.1777291" lon="12.1179916"><ele>32.0</ele><time>2026-04-25T08:28:47.515Z</time></trkpt><trkpt lat="44.1776231" lon="12.1178317"><ele>32.0</ele><time>2026-04-25T08:28:48.52Z</time></trkpt><trkpt lat="44.1775255" lon="12.1176665"><ele>32.0</ele><time>2026-04-25T08:28:49.516Z</time></trkpt><trkpt lat="44.1774327" lon="12.1175007"><ele>32.0</ele><time>2026-04-25T08:28:50.517Z</time></trkpt><trkpt lat="44.1773496" lon="12.1173232"><ele>32.33333333333333</ele><time>2026-04-25T08:28:51.516Z</time></trkpt><trkpt lat="44.1772663" lon="12.1171448"><ele>32.666666666666664</ele><time>2026-04-25T08:28:52.514Z</time></trkpt><trkpt lat="44.1771867" lon="12.1169626"><ele>33.0</ele><time>2026-04-25T08:28:53.524Z</time></trkpt><trkpt lat="44.1771179" lon="12.1167756"><ele>33.0</ele><time>2026-04-25T08:28:54.535Z</time></trkpt><trkpt lat="44.1770479" lon="12.1165817"><ele>33.0</ele><time>2026-04-25T08:28:55.516Z</time></trkpt><trkpt lat="44.1769783" lon="12.1163927"><ele>33.0</ele><time>2026-04-25T08:28:56.512Z</time></trkpt><trkpt lat="44.1769248" lon="12.1161953"><ele>33.0</ele><time>2026-04-25T08:28:57.52Z</time></trkpt><trkpt lat="44.1768691" lon="12.1160087"><ele>33.0</ele><time>2026-04-25T08:28:58.519Z</time></trkpt><trkpt lat="44.1768162" lon="12.1158258"><ele>33.0</ele><time>2026-04-25T08:28:59.526Z</time></trkpt><trkpt lat="44.1767667" lon="12.1156508"><ele>33.0</ele><time>2026-04-25T08:29:00.531Z</time></trkpt><trkpt lat="44.1767173" lon="12.1154822"><ele>33.0</ele><time>2026-04-25T08:29:01.519Z</time></trkpt><trkpt lat="44.1766653" lon="12.1153197"><ele>33.0</ele><time>2026-04-25T08:29:02.514Z</time></trkpt><trkpt lat="44.1766169" lon="12.1151471"><ele>33.0</ele><time>2026-04-25T08:29:03.53Z</time></trkpt><trkpt lat="44.1765691" lon="12.1149811"><ele>33.0</ele><time>2026-04-25T08:29:04.507Z</time></trkpt><trkpt lat="44.1765239" lon="12.1148109"><ele>32.75</ele><time>2026-04-25T08:29:05.545Z</time></trkpt><trkpt lat="44.176473" lon="12.114641"><ele>32.5</ele><time>2026-04-25T08:29:06.536Z</time></trkpt><trkpt lat="44.1764237" lon="12.1144773"><ele>32.25</ele><time>2026-04-25T08:29:07.514Z</time></trkpt><trkpt lat="44.1763771" lon="12.1143073"><ele>32.0</ele><time>2026-04-25T08:29:08.515Z</time></trkpt><trkpt lat="44.1763292" lon="12.1141375"><ele>32.25</ele><time>2026-04-25T08:29:09.517Z</time></trkpt><trkpt lat="44.1762802" lon="12.1139639"><ele>32.5</ele><time>2026-04-25T08:29:10.522Z</time></trkpt><trkpt lat="44.1762319" lon="12.1137905"><ele>32.75</ele><time>2026-04-25T08:29:11.521Z</time></trkpt><trkpt lat="44.176181" lon="12.1136139"><ele>33.0</ele><time>2026-04-25T08:29:12.537Z</time></trkpt><trkpt lat="44.1761299" lon="12.1134469"><ele>33.0</ele><time>2026-04-25T08:29:13.539Z</time></trkpt><trkpt lat="44.1760818" lon="12.1132801"><ele>33.0</ele><time>2026-04-25T08:29:14.517Z</time></trkpt><trkpt lat="44.1760346" lon="12.1131165"><ele>33.0</ele><time>2026-04-25T08:29:15.539Z</time></trkpt><trkpt lat="44.1759839" lon="12.1129471"><ele>33.0</ele><time>2026-04-25T08:29:16.512Z</time></trkpt><trkpt lat="44.1759364" lon="12.1127711"><ele>33.25</ele><time>2026-04-25T08:29:17.512Z</time></trkpt><trkpt lat="44.1758802" lon="12.1126006"><ele>33.5</ele><time>2026-04-25T08:29:18.52Z</time></trkpt><trkpt lat="44.1758218" lon="12.1124298"><ele>33.75</ele><time>2026-04-25T08:29:19.524Z</time></trkpt><trkpt lat="44.1757625" lon="12.1122677"><ele>34.0</ele><time>2026-04-25T08:29:20.517Z</time></trkpt><trkpt lat="44.1756964" lon="12.1121077"><ele>34.0</ele><time>2026-04-25T08:29:21.519Z</time></trkpt><trkpt lat="44.175633" lon="12.1119518"><ele>34.0</ele><time>2026-04-25T08:29:22.523Z</time></trkpt><trkpt lat="44.1755654" lon="12.1117959"><ele>34.0</ele><time>2026-04-25T08:29:23.525Z</time></trkpt><trkpt lat="44.1754935" lon="12.1116534"><ele>34.0</ele><time>2026-04-25T08:29:24.538Z</time></trkpt><trkpt lat="44.1754175" lon="12.1115146"><ele>34.0</ele><time>2026-04-25T08:29:25.514Z</time></trkpt><trkpt lat="44.1753299" lon="12.1113858"><ele>34.0</ele><time>2026-04-25T08:29:26.518Z</time></trkpt><trkpt lat="44.1752428" lon="12.1112628"><ele>34.0</ele><time>2026-04-25T08:29:27.512Z</time></trkpt><trkpt lat="44.1751519" lon="12.1111444"><ele>34.0</ele><time>2026-04-25T08:29:28.532Z</time></trkpt><trkpt lat="44.1750639" lon="12.1110303"><ele>34.0</ele><time>2026-04-25T08:29:29.515Z</time></trkpt><trkpt lat="44.1749745" lon="12.1109166"><ele>34.0</ele><time>2026-04-25T08:29:30.519Z</time></trkpt><trkpt lat="44.1748878" lon="12.1107971"><ele>34.0</ele><time>2026-04-25T08:29:31.506Z</time></trkpt><trkpt lat="44.1747966" lon="12.1106783"><ele>34.0</ele><time>2026-04-25T08:29:32.521Z</time></trkpt><trkpt lat="44.1747024" lon="12.1105692"><ele>34.2</ele><time>2026-04-25T08:29:33.52Z</time></trkpt><trkpt lat="44.1746154" lon="12.1104615"><ele>34.4</ele><time>2026-04-25T08:29:34.52Z</time></trkpt><trkpt lat="44.1745369" lon="12.1103615"><ele>34.6</ele><time>2026-04-25T08:29:35.504Z</time></trkpt><trkpt lat="44.1744683" lon="12.1102644"><ele>34.8</ele><time>2026-04-25T08:29:36.537Z</time></trkpt><trkpt lat="44.1744085" lon="12.1101653"><ele>35.0</ele><time>2026-04-25T08:29:37.499Z</time></trkpt><trkpt lat="44.1743283" lon="12.1100701"><ele>35.0</ele><time>2026-04-25T08:29:38.57Z</time></trkpt><trkpt lat="44.1742441" lon="12.1099652"><ele>35.0</ele><time>2026-04-25T08:29:39.524Z</time></trkpt><trkpt lat="44.1741639" lon="12.1098543"><ele>35.0</ele><time>2026-04-25T08:29:40.503Z</time></trkpt><trkpt lat="44.1740796" lon="12.1097503"><ele>35.0</ele><time>2026-04-25T08:29:41.518Z</time></trkpt><trkpt lat="44.1739981" lon="12.1096388"><ele>35.0</ele><time>2026-04-25T08:29:42.519Z</time></trkpt><trkpt lat="44.1739079" lon="12.1095311"><ele>35.0</ele><time>2026-04-25T08:29:43.522Z</time></trkpt><trkpt lat="44.173823" lon="12.1094211"><ele>35.0</ele><time>2026-04-25T08:29:44.519Z</time></trkpt><trkpt lat="44.1737375" lon="12.1093084"><ele>35.0</ele><time>2026-04-25T08:29:45.516Z</time></trkpt><trkpt lat="44.1736455" lon="12.1091954"><ele>35.0</ele><time>2026-04-25T08:29:46.515Z</time></trkpt><trkpt lat="44.173558" lon="12.1090801"><ele>35.0</ele><time>2026-04-25T08:29:47.495Z</time></trkpt><trkpt lat="44.173472" lon="12.1089653"><ele>35.0</ele><time>2026-04-25T08:29:48.513Z</time></trkpt><trkpt lat="44.1733881" lon="12.1088474"><ele>35.0</ele><time>2026-04-25T08:29:49.516Z</time></trkpt><trkpt lat="44.1732993" lon="12.1087348"><ele>35.0</ele><time>2026-04-25T08:29:50.513Z</time></trkpt><trkpt lat="44.1732113" lon="12.108621"><ele>35.0</ele><time>2026-04-25T08:29:51.531Z</time></trkpt><trkpt lat="44.173126" lon="12.1085118"><ele>35.0</ele><time>2026-04-25T08:29:52.52Z</time></trkpt><trkpt lat="44.1730397" lon="12.1084081"><ele>35.0</ele><time>2026-04-25T08:29:53.518Z</time></trkpt><trkpt lat="44.1729541" lon="12.1082962"><ele>34.75</ele><time>2026-04-25T08:29:54.514Z</time></trkpt><trkpt lat="44.1728682" lon="12.1081828"><ele>34.5</ele><time>2026-04-25T08:29:55.515Z</time></trkpt><trkpt lat="44.1727829" lon="12.1080747"><ele>34.25</ele><time>2026-04-25T08:29:56.508Z</time></trkpt><trkpt lat="44.1726971" lon="12.1079642"><ele>34.0</ele><time>2026-04-25T08:29:57.517Z</time></trkpt><trkpt lat="44.1726094" lon="12.1078519"><ele>34.0</ele><time>2026-04-25T08:29:58.512Z</time></trkpt><trkpt lat="44.1725254" lon="12.1077421"><ele>34.0</ele><time>2026-04-25T08:29:59.521Z</time></trkpt><trkpt lat="44.1724408" lon="12.1076285"><ele>34.0</ele><time>2026-04-25T08:30:00.518Z</time></trkpt><trkpt lat="44.1723554" lon="12.107515"><ele>34.0</ele><time>2026-04-25T08:30:01.517Z</time></trkpt><trkpt lat="44.1722573" lon="12.1074042"><ele>34.25</ele><time>2026-04-25T08:30:02.524Z</time></trkpt><trkpt lat="44.1721695" lon="12.1072954"><ele>34.5</ele><time>2026-04-25T08:30:03.513Z</time></trkpt><trkpt lat="44.1720814" lon="12.1071789"><ele>34.75</ele><time>2026-04-25T08:30:04.52Z</time></trkpt><trkpt lat="44.1719986" lon="12.1070615"><ele>35.0</ele><time>2026-04-25T08:30:05.524Z</time></trkpt><trkpt lat="44.1719093" lon="12.1069433"><ele>35.0</ele><time>2026-04-25T08:30:06.519Z</time></trkpt><trkpt lat="44.1718148" lon="12.106827"><ele>35.0</ele><time>2026-04-25T08:30:07.533Z</time></trkpt><trkpt lat="44.1717221" lon="12.106708"><ele>35.0</ele><time>2026-04-25T08:30:08.51Z</time></trkpt><trkpt lat="44.1716311" lon="12.1065885"><ele>35.0</ele><time>2026-04-25T08:30:09.525Z</time></trkpt><trkpt lat="44.1715452" lon="12.1064686"><ele>35.25</ele><time>2026-04-25T08:30:10.527Z</time></trkpt><trkpt lat="44.1714636" lon="12.10635"><ele>35.5</ele><time>2026-04-25T08:30:11.513Z</time></trkpt><trkpt lat="44.1713878" lon="12.1062288"><ele>35.75</ele><time>2026-04-25T08:30:12.525Z</time></trkpt><trkpt lat="44.1713192" lon="12.1060974"><ele>36.0</ele><time>2026-04-25T08:30:13.517Z</time></trkpt><trkpt lat="44.1712661" lon="12.1059617"><ele>36.0</ele><time>2026-04-25T08:30:14.528Z</time></trkpt><trkpt lat="44.1712319" lon="12.1058281"><ele>36.0</ele><time>2026-04-25T08:30:15.52Z</time></trkpt><trkpt lat="44.1712076" lon="12.10569"><ele>36.0</ele><time>2026-04-25T08:30:16.529Z</time></trkpt><trkpt lat="44.1711971" lon="12.1055478"><ele>36.0</ele><time>2026-04-25T08:30:17.516Z</time></trkpt><trkpt lat="44.1712109" lon="12.1054203"><ele>36.0</ele><time>2026-04-25T08:30:18.513Z</time></trkpt><trkpt lat="44.1712432" lon="12.105312"><ele>35.833333333333336</ele><time>2026-04-25T08:30:19.515Z</time></trkpt><trkpt lat="44.1712922" lon="12.1052222"><ele>35.666666666666664</ele><time>2026-04-25T08:30:20.519Z</time></trkpt><trkpt lat="44.1713548" lon="12.1051438"><ele>35.5</ele><time>2026-04-25T08:30:21.528Z</time></trkpt><trkpt lat="44.1714197" lon="12.1050634"><ele>35.33333333333333</ele><time>2026-04-25T08:30:22.534Z</time></trkpt><trkpt lat="44.1714687" lon="12.1049647"><ele>35.166666666666664</ele><time>2026-04-25T08:30:23.528Z</time></trkpt><trkpt lat="44.1714935" lon="12.1048569"><ele>35.0</ele><time>2026-04-25T08:30:24.517Z</time></trkpt><trkpt lat="44.1714935" lon="12.1047591"><ele>34.83333333333333</ele><time>2026-04-25T08:30:25.531Z</time></trkpt><trkpt lat="44.1714677" lon="12.1046562"><ele>34.666666666666664</ele><time>2026-04-25T08:30:26.544Z</time></trkpt><trkpt lat="44.1714169" lon="12.1045753"><ele>34.5</ele><time>2026-04-25T08:30:27.53Z</time></trkpt><trkpt lat="44.1713525" lon="12.1045142"><ele>34.333333333333336</ele><time>2026-04-25T08:30:28.515Z</time></trkpt><trkpt lat="44.1712706" lon="12.104481"><ele>34.16666666666667</ele><time>2026-04-25T08:30:29.534Z</time></trkpt><trkpt lat="44.1711817" lon="12.1044756"><ele>34.0</ele><time>2026-04-25T08:30:30.526Z</time></trkpt><trkpt lat="44.1710828" lon="12.104502"><ele>34.0</ele><time>2026-04-25T08:30:31.531Z</time></trkpt><trkpt lat="44.1709746" lon="12.1045318"><ele>34.0</ele><time>2026-04-25T08:30:32.536Z</time></trkpt><trkpt lat="44.1708507" lon="12.1045327"><ele>34.0</ele><time>2026-04-25T08:30:33.507Z</time></trkpt><trkpt lat="44.1707248" lon="12.1044976"><ele>34.0</ele><time>2026-04-25T08:30:34.514Z</time></trkpt><trkpt lat="44.1705777" lon="12.1044567"><ele>34.5</ele><time>2026-04-25T08:30:35.524Z</time></trkpt><trkpt lat="44.170439" lon="12.1044118"><ele>35.0</ele><time>2026-04-25T08:30:36.527Z</time></trkpt><trkpt lat="44.1703022" lon="12.1043655"><ele>35.5</ele><time>2026-04-25T08:30:37.52Z</time></trkpt><trkpt lat="44.1701491" lon="12.1043095"><ele>36.0</ele><time>2026-04-25T08:30:38.529Z</time></trkpt><trkpt lat="44.1700014" lon="12.1042272"><ele>36.0</ele><time>2026-04-25T08:30:39.524Z</time></trkpt><trkpt lat="44.1698652" lon="12.1041232"><ele>36.0</ele><time>2026-04-25T08:30:40.529Z</time></trkpt><trkpt lat="44.169726" lon="12.1040037"><ele>36.0</ele><time>2026-04-25T08:30:41.535Z</time></trkpt><trkpt lat="44.1695903" lon="12.1038744"><ele>36.333333333333336</ele><time>2026-04-25T08:30:42.526Z</time></trkpt><trkpt lat="44.1694524" lon="12.1037385"><ele>36.66666666666667</ele><time>2026-04-25T08:30:43.523Z</time></trkpt><trkpt lat="44.1693241" lon="12.1035915"><ele>37.0</ele><time>2026-04-25T08:30:44.536Z</time></trkpt><trkpt lat="44.1691988" lon="12.1034435"><ele>37.0</ele><time>2026-04-25T08:30:45.516Z</time></trkpt><trkpt lat="44.1690787" lon="12.1032893"><ele>37.0</ele><time>2026-04-25T08:30:46.517Z</time></trkpt><trkpt lat="44.1689605" lon="12.1031321"><ele>37.0</ele><time>2026-04-25T08:30:47.517Z</time></trkpt><trkpt lat="44.1688409" lon="12.1029783"><ele>37.0</ele><time>2026-04-25T08:30:48.523Z</time></trkpt><trkpt lat="44.1687182" lon="12.1028221"><ele>37.0</ele><time>2026-04-25T08:30:49.537Z</time></trkpt><trkpt lat="44.1685953" lon="12.1026645"><ele>37.0</ele><time>2026-04-25T08:30:50.525Z</time></trkpt><trkpt lat="44.1684719" lon="12.1025059"><ele>36.66666666666667</ele><time>2026-04-25T08:30:51.518Z</time></trkpt><trkpt lat="44.1683498" lon="12.1023449"><ele>36.333333333333336</ele><time>2026-04-25T08:30:52.523Z</time></trkpt><trkpt lat="44.1682267" lon="12.1021933"><ele>36.0</ele><time>2026-04-25T08:30:53.525Z</time></trkpt><trkpt lat="44.1681081" lon="12.1020404"><ele>36.0</ele><time>2026-04-25T08:30:54.531Z</time></trkpt><trkpt lat="44.167992" lon="12.1018954"><ele>36.0</ele><time>2026-04-25T08:30:55.539Z</time></trkpt><trkpt lat="44.1678781" lon="12.1017498"><ele>36.0</ele><time>2026-04-25T08:30:56.532Z</time></trkpt><trkpt lat="44.1677702" lon="12.1016093"><ele>35.75</ele><time>2026-04-25T08:30:57.518Z</time></trkpt><trkpt lat="44.1676678" lon="12.1014843"><ele>35.5</ele><time>2026-04-25T08:30:58.531Z</time></trkpt><trkpt lat="44.1675789" lon="12.1013665"><ele>35.25</ele><time>2026-04-25T08:30:59.523Z</time></trkpt><trkpt lat="44.1674935" lon="12.1012652"><ele>35.0</ele><time>2026-04-25T08:31:00.524Z</time></trkpt><trkpt lat="44.1674173" lon="12.1011731"><ele>35.166666666666664</ele><time>2026-04-25T08:31:01.524Z</time></trkpt><trkpt lat="44.1673405" lon="12.1010908"><ele>35.33333333333333</ele><time>2026-04-25T08:31:02.542Z</time></trkpt><trkpt lat="44.1672729" lon="12.1010202"><ele>35.5</ele><time>2026-04-25T08:31:03.516Z</time></trkpt><trkpt lat="44.1672047" lon="12.1009596"><ele>35.666666666666664</ele><time>2026-04-25T08:31:04.521Z</time></trkpt><trkpt lat="44.1671424" lon="12.1008984"><ele>35.833333333333336</ele><time>2026-04-25T08:31:05.536Z</time></trkpt><trkpt lat="44.1670736" lon="12.1008283"><ele>36.0</ele><time>2026-04-25T08:31:06.526Z</time></trkpt><trkpt lat="44.1670008" lon="12.1007416"><ele>36.0</ele><time>2026-04-25T08:31:07.521Z</time></trkpt><trkpt lat="44.1669468" lon="12.1006354"><ele>36.0</ele><time>2026-04-25T08:31:08.535Z</time></trkpt><trkpt lat="44.1669015" lon="12.1005255"><ele>36.0</ele><time>2026-04-25T08:31:09.523Z</time></trkpt><trkpt lat="44.1668462" lon="12.1004344"><ele>36.0</ele><time>2026-04-25T08:31:10.527Z</time></trkpt><trkpt lat="44.1667749" lon="12.1003729"><ele>36.0</ele><time>2026-04-25T08:31:11.516Z</time></trkpt><trkpt lat="44.1666874" lon="12.1003446"><ele>36.0</ele><time>2026-04-25T08:31:12.53Z</time></trkpt><trkpt lat="44.1665953" lon="12.1003363"><ele>35.4</ele><time>2026-04-25T08:31:13.518Z</time></trkpt><trkpt lat="44.1665008" lon="12.1003185"><ele>34.8</ele><time>2026-04-25T08:31:14.531Z</time></trkpt><trkpt lat="44.1664015" lon="12.1002484"><ele>34.199999999999996</ele><time>2026-04-25T08:31:15.527Z</time></trkpt><trkpt lat="44.1663073" lon="12.1001651"><ele>33.6</ele><time>2026-04-25T08:31:16.544Z</time></trkpt><trkpt lat="44.1662017" lon="12.1000937"><ele>33.0</ele><time>2026-04-25T08:31:17.513Z</time></trkpt><trkpt lat="44.1660935" lon="12.1000168"><ele>33.0</ele><time>2026-04-25T08:31:18.517Z</time></trkpt><trkpt lat="44.1659847" lon="12.0999391"><ele>33.0</ele><time>2026-04-25T08:31:19.518Z</time></trkpt><trkpt lat="44.1658685" lon="12.0998623"><ele>33.0</ele><time>2026-04-25T08:31:20.523Z</time></trkpt><trkpt lat="44.1657493" lon="12.0997713"><ele>33.0</ele><time>2026-04-25T08:31:21.528Z</time></trkpt><trkpt lat="44.1656264" lon="12.0996804"><ele>32.0</ele><time>2026-04-25T08:31:22.518Z</time></trkpt><trkpt lat="44.1654895" lon="12.099593"><ele>31.0</ele><time>2026-04-25T08:31:23.519Z</time></trkpt><trkpt lat="44.1653658" lon="12.0994952"><ele>30.0</ele><time>2026-04-25T08:31:24.542Z</time></trkpt><trkpt lat="44.165242" lon="12.0994004"><ele>29.0</ele><time>2026-04-25T08:31:25.511Z</time></trkpt><trkpt lat="44.1651168" lon="12.0993155"><ele>29.0</ele><time>2026-04-25T08:31:26.516Z</time></trkpt><trkpt lat="44.1649934" lon="12.0992297"><ele>29.0</ele><time>2026-04-25T08:31:27.535Z</time></trkpt><trkpt lat="44.1648705" lon="12.099144"><ele>29.0</ele><time>2026-04-25T08:31:28.517Z</time></trkpt><trkpt lat="44.1647505" lon="12.0990503"><ele>29.0</ele><time>2026-04-25T08:31:29.508Z</time></trkpt><trkpt lat="44.1646286" lon="12.0989619"><ele>29.0</ele><time>2026-04-25T08:31:30.531Z</time></trkpt><trkpt lat="44.1645062" lon="12.0988745"><ele>29.0</ele><time>2026-04-25T08:31:31.522Z</time></trkpt><trkpt lat="44.1643808" lon="12.0987889"><ele>29.0</ele><time>2026-04-25T08:31:32.514Z</time></trkpt><trkpt lat="44.1642554" lon="12.0986979"><ele>29.0</ele><time>2026-04-25T08:31:33.522Z</time></trkpt><trkpt lat="44.1641357" lon="12.0986005"><ele>29.25</ele><time>2026-04-25T08:31:34.521Z</time></trkpt><trkpt lat="44.164013" lon="12.098512"><ele>29.5</ele><time>2026-04-25T08:31:35.532Z</time></trkpt><trkpt lat="44.1638873" lon="12.0984171"><ele>29.75</ele><time>2026-04-25T08:31:36.519Z</time></trkpt><trkpt lat="44.1637626" lon="12.0983273"><ele>30.0</ele><time>2026-04-25T08:31:37.529Z</time></trkpt><trkpt lat="44.1636391" lon="12.0982392"><ele>30.25</ele><time>2026-04-25T08:31:38.513Z</time></trkpt><trkpt lat="44.1635147" lon="12.0981548"><ele>30.5</ele><time>2026-04-25T08:31:39.526Z</time></trkpt><trkpt lat="44.1633888" lon="12.0980686"><ele>30.75</ele><time>2026-04-25T08:31:40.527Z</time></trkpt><trkpt lat="44.1632666" lon="12.0979745"><ele>31.0</ele><time>2026-04-25T08:31:41.528Z</time></trkpt><trkpt lat="44.1631471" lon="12.0978783"><ele>31.0</ele><time>2026-04-25T08:31:42.525Z</time></trkpt><trkpt lat="44.1630236" lon="12.0977901"><ele>31.0</ele><time>2026-04-25T08:31:43.527Z</time></trkpt><trkpt lat="44.1628945" lon="12.0977029"><ele>31.0</ele><time>2026-04-25T08:31:44.522Z</time></trkpt><trkpt lat="44.1627662" lon="12.0976164"><ele>31.0</ele><time>2026-04-25T08:31:45.522Z</time></trkpt><trkpt lat="44.1626433" lon="12.0975221"><ele>31.0</ele><time>2026-04-25T08:31:46.523Z</time></trkpt><trkpt lat="44.1625219" lon="12.097429"><ele>31.0</ele><time>2026-04-25T08:31:47.527Z</time></trkpt><trkpt lat="44.1623989" lon="12.0973401"><ele>31.0</ele><time>2026-04-25T08:31:48.516Z</time></trkpt><trkpt lat="44.1622709" lon="12.0972541"><ele>31.0</ele><time>2026-04-25T08:31:49.526Z</time></trkpt><trkpt lat="44.1621429" lon="12.0971616"><ele>31.333333333333336</ele><time>2026-04-25T08:31:50.521Z</time></trkpt><trkpt lat="44.1620123" lon="12.0970554"><ele>31.666666666666664</ele><time>2026-04-25T08:31:51.529Z</time></trkpt><trkpt lat="44.1618769" lon="12.0969436"><ele>32.0</ele><time>2026-04-25T08:31:52.525Z</time></trkpt><trkpt lat="44.1617354" lon="12.0968357"><ele>32.0</ele><time>2026-04-25T08:31:53.505Z</time></trkpt><trkpt lat="44.1615935" lon="12.0967328"><ele>32.0</ele><time>2026-04-25T08:31:54.522Z</time></trkpt><trkpt lat="44.1614496" lon="12.0966317"><ele>32.0</ele><time>2026-04-25T08:31:55.524Z</time></trkpt><trkpt lat="44.1613115" lon="12.096528"><ele>31.333333333333332</ele><time>2026-04-25T08:31:56.52Z</time></trkpt><trkpt lat="44.1611751" lon="12.0964206"><ele>30.666666666666664</ele><time>2026-04-25T08:31:57.519Z</time></trkpt><trkpt lat="44.1610353" lon="12.0963144"><ele>30.0</ele><time>2026-04-25T08:31:58.52Z</time></trkpt><trkpt lat="44.1609003" lon="12.0962128"><ele>30.0</ele><time>2026-04-25T08:31:59.524Z</time></trkpt><trkpt lat="44.16077" lon="12.0961276"><ele>30.0</ele><time>2026-04-25T08:32:00.526Z</time></trkpt><trkpt lat="44.1606356" lon="12.0960314"><ele>30.0</ele><time>2026-04-25T08:32:01.525Z</time></trkpt><trkpt lat="44.1605086" lon="12.0959373"><ele>30.0</ele><time>2026-04-25T08:32:02.523Z</time></trkpt><trkpt lat="44.1603816" lon="12.0958398"><ele>30.25</ele><time>2026-04-25T08:32:03.529Z</time></trkpt><trkpt lat="44.1602572" lon="12.0957343"><ele>30.5</ele><time>2026-04-25T08:32:04.529Z</time></trkpt><trkpt lat="44.1601285" lon="12.0956324"><ele>30.75</ele><time>2026-04-25T08:32:05.519Z</time></trkpt><trkpt lat="44.1599995" lon="12.0955309"><ele>31.0</ele><time>2026-04-25T08:32:06.521Z</time></trkpt><trkpt lat="44.1598665" lon="12.0954284"><ele>31.25</ele><time>2026-04-25T08:32:07.522Z</time></trkpt><trkpt lat="44.1597344" lon="12.095327"><ele>31.5</ele><time>2026-04-25T08:32:08.526Z</time></trkpt><trkpt lat="44.1596043" lon="12.0952222"><ele>31.75</ele><time>2026-04-25T08:32:09.517Z</time></trkpt><trkpt lat="44.1594751" lon="12.0951211"><ele>32.0</ele><time>2026-04-25T08:32:10.53Z</time></trkpt><trkpt lat="44.1593414" lon="12.0950294"><ele>32.0</ele><time>2026-04-25T08:32:11.52Z</time></trkpt><trkpt lat="44.1592027" lon="12.0949348"><ele>32.0</ele><time>2026-04-25T08:32:12.518Z</time></trkpt><trkpt lat="44.159063" lon="12.0948387"><ele>32.0</ele><time>2026-04-25T08:32:13.517Z</time></trkpt><trkpt lat="44.1589245" lon="12.0947373"><ele>32.0</ele><time>2026-04-25T08:32:14.519Z</time></trkpt><trkpt lat="44.1587813" lon="12.0946352"><ele>32.0</ele><time>2026-04-25T08:32:15.52Z</time></trkpt><trkpt lat="44.1586315" lon="12.0945353"><ele>32.0</ele><time>2026-04-25T08:32:16.521Z</time></trkpt><trkpt lat="44.1584802" lon="12.0944296"><ele>32.0</ele><time>2026-04-25T08:32:17.518Z</time></trkpt><trkpt lat="44.1583291" lon="12.094318"><ele>32.0</ele><time>2026-04-25T08:32:18.524Z</time></trkpt><trkpt lat="44.1581753" lon="12.0942107"><ele>32.0</ele><time>2026-04-25T08:32:19.517Z</time></trkpt><trkpt lat="44.1580176" lon="12.0941026"><ele>31.666666666666664</ele><time>2026-04-25T08:32:20.529Z</time></trkpt><trkpt lat="44.1578597" lon="12.0939907"><ele>31.333333333333336</ele><time>2026-04-25T08:32:21.52Z</time></trkpt><trkpt lat="44.1576975" lon="12.0938757"><ele>31.0</ele><time>2026-04-25T08:32:22.523Z</time></trkpt><trkpt lat="44.1575362" lon="12.0937635"><ele>31.0</ele><time>2026-04-25T08:32:23.515Z</time></trkpt><trkpt lat="44.1573783" lon="12.0936508"><ele>31.0</ele><time>2026-04-25T08:32:24.516Z</time></trkpt><trkpt lat="44.1572192" lon="12.0935306"><ele>31.0</ele><time>2026-04-25T08:32:25.52Z</time></trkpt><trkpt lat="44.1570629" lon="12.0934189"><ele>31.333333333333336</ele><time>2026-04-25T08:32:26.519Z</time></trkpt><trkpt lat="44.1569097" lon="12.0933027"><ele>31.666666666666664</ele><time>2026-04-25T08:32:27.524Z</time></trkpt><trkpt lat="44.1567566" lon="12.0931851"><ele>32.0</ele><time>2026-04-25T08:32:28.516Z</time></trkpt><trkpt lat="44.1566034" lon="12.0930641"><ele>32.666666666666664</ele><time>2026-04-25T08:32:29.518Z</time></trkpt><trkpt lat="44.1564454" lon="12.0929439"><ele>33.333333333333336</ele><time>2026-04-25T08:32:30.517Z</time></trkpt><trkpt lat="44.1562897" lon="12.0928216"><ele>34.0</ele><time>2026-04-25T08:32:31.526Z</time></trkpt><trkpt lat="44.1561394" lon="12.092688"><ele>34.0</ele><time>2026-04-25T08:32:32.526Z</time></trkpt><trkpt lat="44.1559874" lon="12.0925497"><ele>34.0</ele><time>2026-04-25T08:32:33.52Z</time></trkpt><trkpt lat="44.1558395" lon="12.0924055"><ele>34.0</ele><time>2026-04-25T08:32:34.528Z</time></trkpt><trkpt lat="44.155697" lon="12.0922584"><ele>34.0</ele><time>2026-04-25T08:32:35.54Z</time></trkpt><trkpt lat="44.1555601" lon="12.0921028"><ele>34.0</ele><time>2026-04-25T08:32:36.553Z</time></trkpt><trkpt lat="44.1554264" lon="12.0919481"><ele>34.0</ele><time>2026-04-25T08:32:37.517Z</time></trkpt><trkpt lat="44.1552939" lon="12.0917841"><ele>34.0</ele><time>2026-04-25T08:32:38.517Z</time></trkpt><trkpt lat="44.1551629" lon="12.0916141"><ele>34.0</ele><time>2026-04-25T08:32:39.514Z</time></trkpt><trkpt lat="44.1550327" lon="12.0914422"><ele>34.0</ele><time>2026-04-25T08:32:40.528Z</time></trkpt><trkpt lat="44.1549053" lon="12.0912637"><ele>34.0</ele><time>2026-04-25T08:32:41.52Z</time></trkpt><trkpt lat="44.1547801" lon="12.0910779"><ele>34.0</ele><time>2026-04-25T08:32:42.517Z</time></trkpt><trkpt lat="44.1546542" lon="12.0908874"><ele>34.0</ele><time>2026-04-25T08:32:43.522Z</time></trkpt><trkpt lat="44.1545318" lon="12.0906946"><ele>33.66666666666667</ele><time>2026-04-25T08:32:44.52Z</time></trkpt><trkpt lat="44.1544089" lon="12.0905036"><ele>33.333333333333336</ele><time>2026-04-25T08:32:45.513Z</time></trkpt><trkpt lat="44.1542821" lon="12.0903112"><ele>33.0</ele><time>2026-04-25T08:32:46.519Z</time></trkpt><trkpt lat="44.1541555" lon="12.0901207"><ele>32.666666666666664</ele><time>2026-04-25T08:32:47.52Z</time></trkpt><trkpt lat="44.1540285" lon="12.0899313"><ele>32.33333333333333</ele><time>2026-04-25T08:32:48.527Z</time></trkpt><trkpt lat="44.153904" lon="12.0897419"><ele>32.0</ele><time>2026-04-25T08:32:49.519Z</time></trkpt><trkpt lat="44.1537822" lon="12.0895529"><ele>32.0</ele><time>2026-04-25T08:32:50.518Z</time></trkpt><trkpt lat="44.153662" lon="12.0893537"><ele>32.0</ele><time>2026-04-25T08:32:51.515Z</time></trkpt><trkpt lat="44.1535339" lon="12.0891639"><ele>32.0</ele><time>2026-04-25T08:32:52.516Z</time></trkpt><trkpt lat="44.1534116" lon="12.0889723"><ele>32.666666666666664</ele><time>2026-04-25T08:32:53.519Z</time></trkpt><trkpt lat="44.1532917" lon="12.0887829"><ele>33.333333333333336</ele><time>2026-04-25T08:32:54.519Z</time></trkpt><trkpt lat="44.1531674" lon="12.0885909"><ele>34.0</ele><time>2026-04-25T08:32:55.523Z</time></trkpt><trkpt lat="44.1530451" lon="12.0883967"><ele>34.333333333333336</ele><time>2026-04-25T08:32:56.518Z</time></trkpt><trkpt lat="44.1529287" lon="12.0882021"><ele>34.666666666666664</ele><time>2026-04-25T08:32:57.515Z</time></trkpt><trkpt lat="44.1528061" lon="12.088013"><ele>35.0</ele><time>2026-04-25T08:32:58.512Z</time></trkpt><trkpt lat="44.1526863" lon="12.0878255"><ele>35.0</ele><time>2026-04-25T08:32:59.527Z</time></trkpt><trkpt lat="44.1525669" lon="12.0876357"><ele>35.0</ele><time>2026-04-25T08:33:00.518Z</time></trkpt><trkpt lat="44.1524472" lon="12.0874447"><ele>35.0</ele><time>2026-04-25T08:33:01.508Z</time></trkpt><trkpt lat="44.1523273" lon="12.0872572"><ele>35.33333333333333</ele><time>2026-04-25T08:33:02.516Z</time></trkpt><trkpt lat="44.1522093" lon="12.08707"><ele>35.666666666666664</ele><time>2026-04-25T08:33:03.52Z</time></trkpt><trkpt lat="44.1520884" lon="12.0868792"><ele>36.0</ele><time>2026-04-25T08:33:04.526Z</time></trkpt><trkpt lat="44.1519689" lon="12.0866905"><ele>37.0</ele><time>2026-04-25T08:33:05.523Z</time></trkpt><trkpt lat="44.1518471" lon="12.0865024"><ele>38.0</ele><time>2026-04-25T08:33:06.519Z</time></trkpt><trkpt lat="44.1517326" lon="12.0863178"><ele>39.0</ele><time>2026-04-25T08:33:07.517Z</time></trkpt><trkpt lat="44.1516222" lon="12.0861362"><ele>39.0</ele><time>2026-04-25T08:33:08.522Z</time></trkpt><trkpt lat="44.1515165" lon="12.0859657"><ele>39.0</ele><time>2026-04-25T08:33:09.531Z</time></trkpt><trkpt lat="44.1514162" lon="12.0857999"><ele>39.0</ele><time>2026-04-25T08:33:10.532Z</time></trkpt><trkpt lat="44.1513193" lon="12.0856375"><ele>39.75</ele><time>2026-04-25T08:33:11.523Z</time></trkpt><trkpt lat="44.1512312" lon="12.0854857"><ele>40.5</ele><time>2026-04-25T08:33:12.525Z</time></trkpt><trkpt lat="44.1511518" lon="12.0853435"><ele>41.25</ele><time>2026-04-25T08:33:13.515Z</time></trkpt><trkpt lat="44.1510816" lon="12.0852111"><ele>42.0</ele><time>2026-04-25T08:33:14.518Z</time></trkpt><trkpt lat="44.151018" lon="12.0850879"><ele>42.0</ele><time>2026-04-25T08:33:15.528Z</time></trkpt><trkpt lat="44.1509659" lon="12.0849741"><ele>42.0</ele><time>2026-04-25T08:33:16.513Z</time></trkpt><trkpt lat="44.1509283" lon="12.0848658"><ele>42.0</ele><time>2026-04-25T08:33:17.519Z</time></trkpt><trkpt lat="44.1509019" lon="12.0847526"><ele>42.0</ele><time>2026-04-25T08:33:18.524Z</time></trkpt><trkpt lat="44.1508915" lon="12.0846231"><ele>42.0</ele><time>2026-04-25T08:33:19.516Z</time></trkpt><trkpt lat="44.1508846" lon="12.0844903"><ele>42.0</ele><time>2026-04-25T08:33:20.513Z</time></trkpt><trkpt lat="44.1508628" lon="12.0843659"><ele>42.0</ele><time>2026-04-25T08:33:21.523Z</time></trkpt><trkpt lat="44.1508107" lon="12.0842639"><ele>42.0</ele><time>2026-04-25T08:33:22.518Z</time></trkpt><trkpt lat="44.1507407" lon="12.0841842"><ele>42.0</ele><time>2026-04-25T08:33:23.525Z</time></trkpt><trkpt lat="44.150659" lon="12.0841066"><ele>42.0</ele><time>2026-04-25T08:33:24.52Z</time></trkpt><trkpt lat="44.1505749" lon="12.0840115"><ele>42.0</ele><time>2026-04-25T08:33:25.517Z</time></trkpt><trkpt lat="44.150504" lon="12.0838897"><ele>42.0</ele><time>2026-04-25T08:33:26.518Z</time></trkpt><trkpt lat="44.150452" lon="12.0837417"><ele>42.0</ele><time>2026-04-25T08:33:27.518Z</time></trkpt><trkpt lat="44.1503947" lon="12.0835804"><ele>42.0</ele><time>2026-04-25T08:33:28.519Z</time></trkpt><trkpt lat="44.1503369" lon="12.0834066"><ele>42.0</ele><time>2026-04-25T08:33:29.515Z</time></trkpt><trkpt lat="44.1502776" lon="12.083226"><ele>42.0</ele><time>2026-04-25T08:33:30.523Z</time></trkpt><trkpt lat="44.1502157" lon="12.0830357"><ele>42.0</ele><time>2026-04-25T08:33:31.513Z</time></trkpt><trkpt lat="44.1501492" lon="12.0828417"><ele>42.0</ele><time>2026-04-25T08:33:32.537Z</time></trkpt><trkpt lat="44.1500857" lon="12.0826374"><ele>42.0</ele><time>2026-04-25T08:33:33.545Z</time></trkpt><trkpt lat="44.1500184" lon="12.0824265"><ele>42.0</ele><time>2026-04-25T08:33:34.546Z</time></trkpt><trkpt lat="44.1499482" lon="12.0822081"><ele>42.0</ele><time>2026-04-25T08:33:35.51Z</time></trkpt><trkpt lat="44.1498767" lon="12.0819849"><ele>42.333333333333336</ele><time>2026-04-25T08:33:36.527Z</time></trkpt><trkpt lat="44.1497996" lon="12.0817618"><ele>42.66666666666667</ele><time>2026-04-25T08:33:37.536Z</time></trkpt><trkpt lat="44.1497265" lon="12.0815259"><ele>43.0</ele><time>2026-04-25T08:33:38.512Z</time></trkpt><trkpt lat="44.1496488" lon="12.0812861"><ele>43.0</ele><time>2026-04-25T08:33:39.518Z</time></trkpt><trkpt lat="44.1495696" lon="12.0810439"><ele>43.0</ele><time>2026-04-25T08:33:40.551Z</time></trkpt><trkpt lat="44.1494902" lon="12.0807938"><ele>43.0</ele><time>2026-04-25T08:33:41.519Z</time></trkpt><trkpt lat="44.1494101" lon="12.0805433"><ele>43.0</ele><time>2026-04-25T08:33:42.519Z</time></trkpt><trkpt lat="44.1493243" lon="12.0802916"><ele>43.0</ele><time>2026-04-25T08:33:43.518Z</time></trkpt><trkpt lat="44.1492419" lon="12.0800365"><ele>43.0</ele><time>2026-04-25T08:33:44.523Z</time></trkpt><trkpt lat="44.1491565" lon="12.0797782"><ele>42.66666666666667</ele><time>2026-04-25T08:33:45.514Z</time></trkpt><trkpt lat="44.1490699" lon="12.0795163"><ele>42.333333333333336</ele><time>2026-04-25T08:33:46.519Z</time></trkpt><trkpt lat="44.148982" lon="12.0792585"><ele>42.0</ele><time>2026-04-25T08:33:47.513Z</time></trkpt><trkpt lat="44.1488967" lon="12.0789975"><ele>43.0</ele><time>2026-04-25T08:33:48.52Z</time></trkpt><trkpt lat="44.1488105" lon="12.0787345"><ele>44.0</ele><time>2026-04-25T08:33:49.52Z</time></trkpt><trkpt lat="44.1487292" lon="12.0784693"><ele>45.0</ele><time>2026-04-25T08:33:50.519Z</time></trkpt><trkpt lat="44.1486433" lon="12.0781993"><ele>45.0</ele><time>2026-04-25T08:33:51.515Z</time></trkpt><trkpt lat="44.1485584" lon="12.0779325"><ele>45.0</ele><time>2026-04-25T08:33:52.521Z</time></trkpt><trkpt lat="44.1484716" lon="12.0776612"><ele>45.0</ele><time>2026-04-25T08:33:53.518Z</time></trkpt><trkpt lat="44.1483805" lon="12.0773902"><ele>44.666666666666664</ele><time>2026-04-25T08:33:54.52Z</time></trkpt><trkpt lat="44.1482913" lon="12.0771175"><ele>44.33333333333333</ele><time>2026-04-25T08:33:55.524Z</time></trkpt><trkpt lat="44.1482031" lon="12.0768405"><ele>44.0</ele><time>2026-04-25T08:33:56.518Z</time></trkpt><trkpt lat="44.1481165" lon="12.0765684"><ele>44.666666666666664</ele><time>2026-04-25T08:33:57.519Z</time></trkpt><trkpt lat="44.1480272" lon="12.076295"><ele>45.333333333333336</ele><time>2026-04-25T08:33:58.511Z</time></trkpt><trkpt lat="44.1479347" lon="12.0760219"><ele>46.0</ele><time>2026-04-25T08:33:59.52Z</time></trkpt><trkpt lat="44.1478485" lon="12.0757548"><ele>46.0</ele><time>2026-04-25T08:34:00.518Z</time></trkpt><trkpt lat="44.1477678" lon="12.0755016"><ele>46.0</ele><time>2026-04-25T08:34:01.514Z</time></trkpt><trkpt lat="44.147686" lon="12.0752607"><ele>46.0</ele><time>2026-04-25T08:34:02.52Z</time></trkpt><trkpt lat="44.1476113" lon="12.075023"><ele>46.333333333333336</ele><time>2026-04-25T08:34:03.51Z</time></trkpt><trkpt lat="44.1475374" lon="12.0747877"><ele>46.666666666666664</ele><time>2026-04-25T08:34:04.527Z</time></trkpt><trkpt lat="44.147463" lon="12.0745579"><ele>47.0</ele><time>2026-04-25T08:34:05.518Z</time></trkpt><trkpt lat="44.1473864" lon="12.0743376"><ele>47.0</ele><time>2026-04-25T08:34:06.509Z</time></trkpt><trkpt lat="44.1473105" lon="12.0741193"><ele>47.0</ele><time>2026-04-25T08:34:07.518Z</time></trkpt><trkpt lat="44.1472294" lon="12.073914"><ele>47.0</ele><time>2026-04-25T08:34:08.524Z</time></trkpt><trkpt lat="44.1471474" lon="12.0737245"><ele>47.0</ele><time>2026-04-25T08:34:09.538Z</time></trkpt><trkpt lat="44.1470738" lon="12.0735505"><ele>47.0</ele><time>2026-04-25T08:34:10.523Z</time></trkpt><trkpt lat="44.1470061" lon="12.0733942"><ele>47.0</ele><time>2026-04-25T08:34:11.518Z</time></trkpt><trkpt lat="44.1469374" lon="12.0732539"><ele>47.0</ele><time>2026-04-25T08:34:12.526Z</time></trkpt><trkpt lat="44.1468827" lon="12.0731139"><ele>47.0</ele><time>2026-04-25T08:34:13.516Z</time></trkpt><trkpt lat="44.146829" lon="12.0729809"><ele>47.0</ele><time>2026-04-25T08:34:14.52Z</time></trkpt><trkpt lat="44.1467918" lon="12.07284"><ele>47.0</ele><time>2026-04-25T08:34:15.513Z</time></trkpt><trkpt lat="44.1467678" lon="12.0727058"><ele>47.0</ele><time>2026-04-25T08:34:16.517Z</time></trkpt><trkpt lat="44.1467641" lon="12.0725857"><ele>47.0</ele><time>2026-04-25T08:34:17.514Z</time></trkpt><trkpt lat="44.1467738" lon="12.0724578"><ele>47.0</ele><time>2026-04-25T08:34:18.521Z</time></trkpt><trkpt lat="44.1468119" lon="12.0723424"><ele>47.0</ele><time>2026-04-25T08:34:19.516Z</time></trkpt><trkpt lat="44.146865" lon="12.0722396"><ele>47.0</ele><time>2026-04-25T08:34:20.513Z</time></trkpt><trkpt lat="44.1469266" lon="12.0721466"><ele>47.0</ele><time>2026-04-25T08:34:21.518Z</time></trkpt><trkpt lat="44.1469759" lon="12.0720395"><ele>47.0</ele><time>2026-04-25T08:34:22.511Z</time></trkpt><trkpt lat="44.1470023" lon="12.071923"><ele>47.0</ele><time>2026-04-25T08:34:23.514Z</time></trkpt><trkpt lat="44.1470142" lon="12.0718086"><ele>47.0</ele><time>2026-04-25T08:34:24.517Z</time></trkpt><trkpt lat="44.1469953" lon="12.0716994"><ele>47.0</ele><time>2026-04-25T08:34:25.519Z</time></trkpt><trkpt lat="44.1469504" lon="12.0715975"><ele>47.0</ele><time>2026-04-25T08:34:26.518Z</time></trkpt><trkpt lat="44.1468834" lon="12.0715069"><ele>47.0</ele><time>2026-04-25T08:34:27.512Z</time></trkpt><trkpt lat="44.1467978" lon="12.0714531"><ele>47.0</ele><time>2026-04-25T08:34:28.525Z</time></trkpt><trkpt lat="44.146705" lon="12.0714324"><ele>47.2</ele><time>2026-04-25T08:34:29.516Z</time></trkpt><trkpt lat="44.1466065" lon="12.0714402"><ele>47.400000000000006</ele><time>2026-04-25T08:34:30.516Z</time></trkpt><trkpt lat="44.1465164" lon="12.0714848"><ele>47.599999999999994</ele><time>2026-04-25T08:34:31.509Z</time></trkpt><trkpt lat="44.146425" lon="12.0715624"><ele>47.8</ele><time>2026-04-25T08:34:32.521Z</time></trkpt><trkpt lat="44.1463299" lon="12.0716544"><ele>48.0</ele><time>2026-04-25T08:34:33.519Z</time></trkpt><trkpt lat="44.1462284" lon="12.0717285"><ele>47.5</ele><time>2026-04-25T08:34:34.528Z</time></trkpt><trkpt lat="44.1461175" lon="12.0717598"><ele>47.0</ele><time>2026-04-25T08:34:35.522Z</time></trkpt><trkpt lat="44.1459958" lon="12.0717765"><ele>46.5</ele><time>2026-04-25T08:34:36.512Z</time></trkpt><trkpt lat="44.1458726" lon="12.0717675"><ele>46.0</ele><time>2026-04-25T08:34:37.541Z</time></trkpt><trkpt lat="44.1457311" lon="12.0717459"><ele>46.0</ele><time>2026-04-25T08:34:38.54Z</time></trkpt><trkpt lat="44.1455887" lon="12.0717109"><ele>46.0</ele><time>2026-04-25T08:34:39.526Z</time></trkpt><trkpt lat="44.1454416" lon="12.071663"><ele>46.0</ele><time>2026-04-25T08:34:40.519Z</time></trkpt><trkpt lat="44.1452983" lon="12.0716024"><ele>46.0</ele><time>2026-04-25T08:34:41.526Z</time></trkpt><trkpt lat="44.1451561" lon="12.0715221"><ele>46.66666666666667</ele><time>2026-04-25T08:34:42.522Z</time></trkpt><trkpt lat="44.145012" lon="12.0714298"><ele>47.333333333333336</ele><time>2026-04-25T08:34:43.527Z</time></trkpt><trkpt lat="44.1448668" lon="12.0713131"><ele>48.0</ele><time>2026-04-25T08:34:44.509Z</time></trkpt><trkpt lat="44.1447226" lon="12.0711813"><ele>48.0</ele><time>2026-04-25T08:34:45.519Z</time></trkpt><trkpt lat="44.1445817" lon="12.0710294"><ele>48.0</ele><time>2026-04-25T08:34:46.521Z</time></trkpt><trkpt lat="44.1444353" lon="12.0708685"><ele>48.0</ele><time>2026-04-25T08:34:47.522Z</time></trkpt><trkpt lat="44.1442996" lon="12.0707021"><ele>48.33333333333333</ele><time>2026-04-25T08:34:48.535Z</time></trkpt><trkpt lat="44.1441788" lon="12.0705353"><ele>48.666666666666664</ele><time>2026-04-25T08:34:49.531Z</time></trkpt><trkpt lat="44.144053" lon="12.0703833"><ele>49.0</ele><time>2026-04-25T08:34:50.516Z</time></trkpt><trkpt lat="44.143932" lon="12.0702446"><ele>49.0</ele><time>2026-04-25T08:34:51.529Z</time></trkpt><trkpt lat="44.1438179" lon="12.070114"><ele>49.0</ele><time>2026-04-25T08:34:52.53Z</time></trkpt><trkpt lat="44.1437102" lon="12.0699883"><ele>49.0</ele><time>2026-04-25T08:34:53.524Z</time></trkpt><trkpt lat="44.1436102" lon="12.0698594"><ele>49.0</ele><time>2026-04-25T08:34:54.517Z</time></trkpt><trkpt lat="44.1435141" lon="12.0697329"><ele>49.0</ele><time>2026-04-25T08:34:55.539Z</time></trkpt><trkpt lat="44.1434255" lon="12.069625"><ele>49.0</ele><time>2026-04-25T08:34:56.518Z</time></trkpt><trkpt lat="44.1433415" lon="12.0695268"><ele>49.0</ele><time>2026-04-25T08:34:57.516Z</time></trkpt><trkpt lat="44.1432611" lon="12.0694376"><ele>49.0</ele><time>2026-04-25T08:34:58.526Z</time></trkpt><trkpt lat="44.1431732" lon="12.0693428"><ele>49.0</ele><time>2026-04-25T08:34:59.517Z</time></trkpt><trkpt lat="44.1430833" lon="12.0692367"><ele>49.0</ele><time>2026-04-25T08:35:00.519Z</time></trkpt><trkpt lat="44.1430024" lon="12.0691238"><ele>49.0</ele><time>2026-04-25T08:35:01.512Z</time></trkpt><trkpt lat="44.1429297" lon="12.0690009"><ele>49.0</ele><time>2026-04-25T08:35:02.534Z</time></trkpt><trkpt lat="44.1428633" lon="12.0688787"><ele>49.0</ele><time>2026-04-25T08:35:03.535Z</time></trkpt><trkpt lat="44.1427842" lon="12.0687872"><ele>49.0</ele><time>2026-04-25T08:35:04.512Z</time></trkpt><trkpt lat="44.1426994" lon="12.0687224"><ele>49.0</ele><time>2026-04-25T08:35:05.521Z</time></trkpt><trkpt lat="44.1425945" lon="12.0686802"><ele>49.0</ele><time>2026-04-25T08:35:06.54Z</time></trkpt><trkpt lat="44.1424854" lon="12.0686285"><ele>49.0</ele><time>2026-04-25T08:35:07.531Z</time></trkpt><trkpt lat="44.1423726" lon="12.0685522"><ele>49.0</ele><time>2026-04-25T08:35:08.536Z</time></trkpt><trkpt lat="44.1422568" lon="12.0684725"><ele>49.0</ele><time>2026-04-25T08:35:09.521Z</time></trkpt><trkpt lat="44.1421514" lon="12.0683828"><ele>49.0</ele><time>2026-04-25T08:35:10.529Z</time></trkpt><trkpt lat="44.1420427" lon="12.0682993"><ele>49.0</ele><time>2026-04-25T08:35:11.519Z</time></trkpt><trkpt lat="44.141929" lon="12.0682253"><ele>49.0</ele><time>2026-04-25T08:35:12.522Z</time></trkpt><trkpt lat="44.1418116" lon="12.0681509"><ele>49.25</ele><time>2026-04-25T08:35:13.522Z</time></trkpt><trkpt lat="44.1416878" lon="12.0680745"><ele>49.5</ele><time>2026-04-25T08:35:14.516Z</time></trkpt><trkpt lat="44.1415582" lon="12.068002"><ele>49.75</ele><time>2026-04-25T08:35:15.534Z</time></trkpt><trkpt lat="44.1414236" lon="12.0679287"><ele>50.0</ele><time>2026-04-25T08:35:16.523Z</time></trkpt><trkpt lat="44.1412873" lon="12.0678636"><ele>49.5</ele><time>2026-04-25T08:35:17.506Z</time></trkpt><trkpt lat="44.1411427" lon="12.0677934"><ele>49.0</ele><time>2026-04-25T08:35:18.512Z</time></trkpt><trkpt lat="44.1410068" lon="12.0677319"><ele>48.5</ele><time>2026-04-25T08:35:19.522Z</time></trkpt><trkpt lat="44.1408823" lon="12.0676738"><ele>48.0</ele><time>2026-04-25T08:35:20.529Z</time></trkpt><trkpt lat="44.1407591" lon="12.0676142"><ele>48.25</ele><time>2026-04-25T08:35:21.535Z</time></trkpt><trkpt lat="44.1406312" lon="12.0675531"><ele>48.5</ele><time>2026-04-25T08:35:22.514Z</time></trkpt><trkpt lat="44.1405022" lon="12.0674822"><ele>48.75</ele><time>2026-04-25T08:35:23.519Z</time></trkpt><trkpt lat="44.1403687" lon="12.067412"><ele>49.0</ele><time>2026-04-25T08:35:24.509Z</time></trkpt><trkpt lat="44.1402368" lon="12.0673413"><ele>49.0</ele><time>2026-04-25T08:35:25.515Z</time></trkpt><trkpt lat="44.1401067" lon="12.06728"><ele>49.0</ele><time>2026-04-25T08:35:26.532Z</time></trkpt><trkpt lat="44.1399721" lon="12.0672271"><ele>49.0</ele><time>2026-04-25T08:35:27.527Z</time></trkpt><trkpt lat="44.1398343" lon="12.0671601"><ele>49.0</ele><time>2026-04-25T08:35:28.511Z</time></trkpt><trkpt lat="44.1396883" lon="12.0670875"><ele>49.0</ele><time>2026-04-25T08:35:29.525Z</time></trkpt><trkpt lat="44.139538" lon="12.0670118"><ele>49.0</ele><time>2026-04-25T08:35:30.517Z</time></trkpt><trkpt lat="44.1393795" lon="12.0669398"><ele>49.0</ele><time>2026-04-25T08:35:31.513Z</time></trkpt><trkpt lat="44.1392221" lon="12.0668693"><ele>49.0</ele><time>2026-04-25T08:35:32.533Z</time></trkpt><trkpt lat="44.1390646" lon="12.0667978"><ele>49.0</ele><time>2026-04-25T08:35:33.524Z</time></trkpt><trkpt lat="44.1389058" lon="12.0667268"><ele>49.0</ele><time>2026-04-25T08:35:34.53Z</time></trkpt><trkpt lat="44.1387478" lon="12.0666538"><ele>49.33333333333333</ele><time>2026-04-25T08:35:35.519Z</time></trkpt><trkpt lat="44.1385956" lon="12.0665805"><ele>49.66666666666667</ele><time>2026-04-25T08:35:36.529Z</time></trkpt><trkpt lat="44.1384396" lon="12.0665057"><ele>50.0</ele><time>2026-04-25T08:35:37.516Z</time></trkpt><trkpt lat="44.1382878" lon="12.0664299"><ele>50.0</ele><time>2026-04-25T08:35:38.528Z</time></trkpt><trkpt lat="44.1381368" lon="12.0663536"><ele>50.0</ele><time>2026-04-25T08:35:39.515Z</time></trkpt><trkpt lat="44.137979" lon="12.0662792"><ele>50.0</ele><time>2026-04-25T08:35:40.521Z</time></trkpt><trkpt lat="44.1378291" lon="12.0662057"><ele>50.0</ele><time>2026-04-25T08:35:41.517Z</time></trkpt><trkpt lat="44.1376779" lon="12.0661316"><ele>50.0</ele><time>2026-04-25T08:35:42.518Z</time></trkpt><trkpt lat="44.1375275" lon="12.0660628"><ele>50.0</ele><time>2026-04-25T08:35:43.522Z</time></trkpt><trkpt lat="44.1373795" lon="12.0659903"><ele>50.0</ele><time>2026-04-25T08:35:44.518Z</time></trkpt><trkpt lat="44.1372311" lon="12.0659136"><ele>50.0</ele><time>2026-04-25T08:35:45.528Z</time></trkpt><trkpt lat="44.1370891" lon="12.0658347"><ele>50.0</ele><time>2026-04-25T08:35:46.523Z</time></trkpt><trkpt lat="44.1369478" lon="12.065752"><ele>50.0</ele><time>2026-04-25T08:35:47.518Z</time></trkpt><trkpt lat="44.1368051" lon="12.0656634"><ele>50.0</ele><time>2026-04-25T08:35:48.521Z</time></trkpt><trkpt lat="44.1366703" lon="12.0655722"><ele>50.0</ele><time>2026-04-25T08:35:49.52Z</time></trkpt><trkpt lat="44.1365424" lon="12.0654801"><ele>49.5</ele><time>2026-04-25T08:35:50.519Z</time></trkpt><trkpt lat="44.1364143" lon="12.0653857"><ele>49.0</ele><time>2026-04-25T08:35:51.509Z</time></trkpt><trkpt lat="44.1362847" lon="12.0652878"><ele>48.5</ele><time>2026-04-25T08:35:52.523Z</time></trkpt><trkpt lat="44.1361582" lon="12.065177"><ele>48.0</ele><time>2026-04-25T08:35:53.528Z</time></trkpt><trkpt lat="44.1360363" lon="12.065062"><ele>48.0</ele><time>2026-04-25T08:35:54.519Z</time></trkpt><trkpt lat="44.1359123" lon="12.064941"><ele>48.0</ele><time>2026-04-25T08:35:55.518Z</time></trkpt><trkpt lat="44.135792" lon="12.0648192"><ele>48.0</ele><time>2026-04-25T08:35:56.517Z</time></trkpt><trkpt lat="44.1356745" lon="12.0647015"><ele>48.0</ele><time>2026-04-25T08:35:57.532Z</time></trkpt><trkpt lat="44.1355589" lon="12.0645862"><ele>48.0</ele><time>2026-04-25T08:35:58.532Z</time></trkpt><trkpt lat="44.1354447" lon="12.0644687"><ele>48.0</ele><time>2026-04-25T08:35:59.52Z</time></trkpt><trkpt lat="44.135332" lon="12.0643529"><ele>48.0</ele><time>2026-04-25T08:36:00.514Z</time></trkpt><trkpt lat="44.1352285" lon="12.0642462"><ele>48.0</ele><time>2026-04-25T08:36:01.519Z</time></trkpt><trkpt lat="44.1351323" lon="12.0641493"><ele>48.5</ele><time>2026-04-25T08:36:02.536Z</time></trkpt><trkpt lat="44.1350455" lon="12.0640545"><ele>49.0</ele><time>2026-04-25T08:36:03.526Z</time></trkpt><trkpt lat="44.1349573" lon="12.0639579"><ele>49.5</ele><time>2026-04-25T08:36:04.518Z</time></trkpt><trkpt lat="44.1348702" lon="12.0638563"><ele>50.0</ele><time>2026-04-25T08:36:05.522Z</time></trkpt><trkpt lat="44.1347879" lon="12.063743"><ele>50.0</ele><time>2026-04-25T08:36:06.518Z</time></trkpt><trkpt lat="44.1347112" lon="12.0636284"><ele>50.0</ele><time>2026-04-25T08:36:07.518Z</time></trkpt><trkpt lat="44.1346419" lon="12.0635083"><ele>50.0</ele><time>2026-04-25T08:36:08.514Z</time></trkpt><trkpt lat="44.1345807" lon="12.0633901"><ele>50.0</ele><time>2026-04-25T08:36:09.516Z</time></trkpt><trkpt lat="44.1345321" lon="12.0632764"><ele>50.0</ele><time>2026-04-25T08:36:10.52Z</time></trkpt><trkpt lat="44.1344976" lon="12.0631687"><ele>50.00000000000001</ele><time>2026-04-25T08:36:11.519Z</time></trkpt><trkpt lat="44.1344872" lon="12.0630506"><ele>50.0</ele><time>2026-04-25T08:36:12.518Z</time></trkpt><trkpt lat="44.1344852" lon="12.0629421"><ele>50.0</ele><time>2026-04-25T08:36:13.51Z</time></trkpt><trkpt lat="44.1344655" lon="12.0628512"><ele>50.0</ele><time>2026-04-25T08:36:14.524Z</time></trkpt><trkpt lat="44.1344292" lon="12.0627724"><ele>50.0</ele><time>2026-04-25T08:36:15.517Z</time></trkpt><trkpt lat="44.1343815" lon="12.0626975"><ele>50.00000000000001</ele><time>2026-04-25T08:36:16.524Z</time></trkpt><trkpt lat="44.1343311" lon="12.0626283"><ele>50.0</ele><time>2026-04-25T08:36:17.522Z</time></trkpt><trkpt lat="44.1342832" lon="12.0625412"><ele>50.4</ele><time>2026-04-25T08:36:18.514Z</time></trkpt><trkpt lat="44.1342608" lon="12.0624461"><ele>50.8</ele><time>2026-04-25T08:36:19.51Z</time></trkpt><trkpt lat="44.1342408" lon="12.0623537"><ele>51.2</ele><time>2026-04-25T08:36:20.512Z</time></trkpt><trkpt lat="44.1342134" lon="12.0622012"><ele>51.6</ele><time>2026-04-25T08:36:22.513Z</time></trkpt><trkpt lat="44.1341715" lon="12.0620654"><ele>52.0</ele><time>2026-04-25T08:36:24.519Z</time></trkpt><trkpt lat="44.1341313" lon="12.0619434"><ele>52.0</ele><time>2026-04-25T08:36:26.533Z</time></trkpt><trkpt lat="44.1341015" lon="12.0618315"><ele>52.0</ele><time>2026-04-25T08:36:28.522Z</time></trkpt><trkpt lat="44.1340799" lon="12.0617258"><ele>52.0</ele><time>2026-04-25T08:36:30.521Z</time></trkpt><trkpt lat="44.1340896" lon="12.0616043"><ele>52.0</ele><time>2026-04-25T08:36:32.517Z</time></trkpt><trkpt lat="44.1341207" lon="12.0614446"><ele>52.0</ele><time>2026-04-25T08:36:34.53Z</time></trkpt><trkpt lat="44.1341102" lon="12.0612909"><ele>52.666666666666664</ele><time>2026-04-25T08:36:36.524Z</time></trkpt><trkpt lat="44.1340426" lon="12.0612007"><ele>53.33333333333333</ele><time>2026-04-25T08:36:38.522Z</time></trkpt><trkpt lat="44.1339855" lon="12.0611502"><ele>54.0</ele><time>2026-04-25T08:36:40.517Z</time></trkpt><trkpt lat="44.133929" lon="12.0610992"><ele>54.66666666666667</ele><time>2026-04-25T08:36:43.533Z</time></trkpt><trkpt lat="44.1338484" lon="12.0610367"><ele>55.333333333333336</ele><time>2026-04-25T08:36:51.521Z</time></trkpt><trkpt lat="44.1337876" lon="12.0609843"><ele>56.0</ele><time>2026-04-25T08:36:52.517Z</time></trkpt><trkpt lat="44.1337269" lon="12.0609096"><ele>56.00000000000001</ele><time>2026-04-25T08:36:53.517Z</time></trkpt><trkpt lat="44.1336633" lon="12.0608387"><ele>56.0</ele><time>2026-04-25T08:36:54.52Z</time></trkpt><trkpt lat="44.1336004" lon="12.0607724"><ele>56.0</ele><time>2026-04-25T08:36:55.52Z</time></trkpt><trkpt lat="44.1335383" lon="12.0607233"><ele>56.0</ele><time>2026-04-25T08:36:56.52Z</time></trkpt><trkpt lat="44.1334844" lon="12.060676"><ele>56.00000000000001</ele><time>2026-04-25T08:36:57.518Z</time></trkpt><trkpt lat="44.1333838" lon="12.0605799"><ele>56.0</ele><time>2026-04-25T08:36:59.529Z</time></trkpt><trkpt lat="44.1333127" lon="12.0605257"><ele>56.199999999999996</ele><time>2026-04-25T08:37:00.522Z</time></trkpt><trkpt lat="44.1332426" lon="12.0604761"><ele>56.39999999999999</ele><time>2026-04-25T08:37:01.521Z</time></trkpt><trkpt lat="44.1331831" lon="12.0604332"><ele>56.6</ele><time>2026-04-25T08:37:02.534Z</time></trkpt><trkpt lat="44.1331061" lon="12.0603671"><ele>56.8</ele><time>2026-04-25T08:37:04.515Z</time></trkpt><trkpt lat="44.1330293" lon="12.0603364"><ele>57.0</ele><time>2026-04-25T08:37:40.521Z</time></trkpt><trkpt lat="44.1328954" lon="12.0602891"><ele>58.25</ele><time>2026-04-25T08:37:42.516Z</time></trkpt><trkpt lat="44.1327832" lon="12.0602497"><ele>59.5</ele><time>2026-04-25T08:37:43.535Z</time></trkpt><trkpt lat="44.13265" lon="12.0602145"><ele>60.75</ele><time>2026-04-25T08:37:44.521Z</time></trkpt><trkpt lat="44.1324981" lon="12.0601709"><ele>62.0</ele><time>2026-04-25T08:37:45.514Z</time></trkpt><trkpt lat="44.1323318" lon="12.0601308"><ele>62.66666666666667</ele><time>2026-04-25T08:37:46.526Z</time></trkpt><trkpt lat="44.1321668" lon="12.0600938"><ele>63.33333333333333</ele><time>2026-04-25T08:37:47.52Z</time></trkpt><trkpt lat="44.1320061" lon="12.0600616"><ele>64.0</ele><time>2026-04-25T08:37:48.516Z</time></trkpt><trkpt lat="44.1318465" lon="12.0600307"><ele>64.0</ele><time>2026-04-25T08:37:49.519Z</time></trkpt><trkpt lat="44.1316902" lon="12.0599893"><ele>64.0</ele><time>2026-04-25T08:37:50.512Z</time></trkpt><trkpt lat="44.1315301" lon="12.0599545"><ele>64.0</ele><time>2026-04-25T08:37:51.523Z</time></trkpt><trkpt lat="44.1313712" lon="12.0599115"><ele>65.0</ele><time>2026-04-25T08:37:52.523Z</time></trkpt><trkpt lat="44.1312053" lon="12.0598719"><ele>66.0</ele><time>2026-04-25T08:37:53.519Z</time></trkpt><trkpt lat="44.1310366" lon="12.0598233"><ele>67.0</ele><time>2026-04-25T08:37:54.516Z</time></trkpt><trkpt lat="44.1308641" lon="12.0597787"><ele>69.0</ele><time>2026-04-25T08:37:55.523Z</time></trkpt><trkpt lat="44.1306993" lon="12.0597344"><ele>71.0</ele><time>2026-04-25T08:37:56.522Z</time></trkpt><trkpt lat="44.1305366" lon="12.0596934"><ele>73.0</ele><time>2026-04-25T08:37:57.512Z</time></trkpt><trkpt lat="44.1303739" lon="12.0596502"><ele>73.0</ele><time>2026-04-25T08:37:58.518Z</time></trkpt><trkpt lat="44.1302153" lon="12.0596061"><ele>73.0</ele><time>2026-04-25T08:37:59.514Z</time></trkpt><trkpt lat="44.1300506" lon="12.0595642"><ele>73.0</ele><time>2026-04-25T08:38:00.514Z</time></trkpt><trkpt lat="44.1298883" lon="12.0595212"><ele>75.33333333333333</ele><time>2026-04-25T08:38:01.512Z</time></trkpt><trkpt lat="44.1297225" lon="12.0594855"><ele>77.66666666666667</ele><time>2026-04-25T08:38:02.522Z</time></trkpt><trkpt lat="44.1295561" lon="12.0594458"><ele>80.0</ele><time>2026-04-25T08:38:03.518Z</time></trkpt><trkpt lat="44.1293861" lon="12.0594041"><ele>80.0</ele><time>2026-04-25T08:38:04.515Z</time></trkpt><trkpt lat="44.1292157" lon="12.0593593"><ele>80.0</ele><time>2026-04-25T08:38:05.517Z</time></trkpt><trkpt lat="44.129046" lon="12.0593209"><ele>80.0</ele><time>2026-04-25T08:38:06.519Z</time></trkpt><trkpt lat="44.1288871" lon="12.0592645"><ele>79.0</ele><time>2026-04-25T08:38:07.518Z</time></trkpt><trkpt lat="44.1287269" lon="12.0592114"><ele>78.0</ele><time>2026-04-25T08:38:08.52Z</time></trkpt><trkpt lat="44.1285794" lon="12.0591582"><ele>77.0</ele><time>2026-04-25T08:38:09.527Z</time></trkpt><trkpt lat="44.1284404" lon="12.0591094"><ele>78.0</ele><time>2026-04-25T08:38:10.522Z</time></trkpt><trkpt lat="44.1283003" lon="12.0590682"><ele>79.0</ele><time>2026-04-25T08:38:11.502Z</time></trkpt><trkpt lat="44.1281635" lon="12.0590271"><ele>80.0</ele><time>2026-04-25T08:38:12.523Z</time></trkpt><trkpt lat="44.1280285" lon="12.0589854"><ele>81.0</ele><time>2026-04-25T08:38:13.519Z</time></trkpt><trkpt lat="44.1278985" lon="12.0589507"><ele>81.0</ele><time>2026-04-25T08:38:14.513Z</time></trkpt><trkpt lat="44.1277703" lon="12.0589068"><ele>81.0</ele><time>2026-04-25T08:38:15.526Z</time></trkpt><trkpt lat="44.1276424" lon="12.0588666"><ele>81.0</ele><time>2026-04-25T08:38:16.517Z</time></trkpt><trkpt lat="44.1275178" lon="12.0588224"><ele>81.0</ele><time>2026-04-25T08:38:17.514Z</time></trkpt><trkpt lat="44.1273921" lon="12.0587845"><ele>79.5</ele><time>2026-04-25T08:38:18.522Z</time></trkpt><trkpt lat="44.1272643" lon="12.0587475"><ele>78.0</ele><time>2026-04-25T08:38:19.518Z</time></trkpt><trkpt lat="44.1271417" lon="12.0587031"><ele>76.5</ele><time>2026-04-25T08:38:20.521Z</time></trkpt><trkpt lat="44.1270203" lon="12.0586651"><ele>75.0</ele><time>2026-04-25T08:38:21.519Z</time></trkpt><trkpt lat="44.1268966" lon="12.0586264"><ele>75.0</ele><time>2026-04-25T08:38:22.532Z</time></trkpt><trkpt lat="44.1267747" lon="12.0585862"><ele>75.0</ele><time>2026-04-25T08:38:23.522Z</time></trkpt><trkpt lat="44.1266476" lon="12.0585535"><ele>75.0</ele><time>2026-04-25T08:38:24.53Z</time></trkpt><trkpt lat="44.1265183" lon="12.0585149"><ele>75.0</ele><time>2026-04-25T08:38:25.515Z</time></trkpt><trkpt lat="44.1263844" lon="12.0584739"><ele>74.25</ele><time>2026-04-25T08:38:26.526Z</time></trkpt><trkpt lat="44.1262463" lon="12.0584356"><ele>73.5</ele><time>2026-04-25T08:38:27.514Z</time></trkpt><trkpt lat="44.1261092" lon="12.0584088"><ele>72.75</ele><time>2026-04-25T08:38:28.519Z</time></trkpt><trkpt lat="44.1259688" lon="12.0583946"><ele>72.0</ele><time>2026-04-25T08:38:29.511Z</time></trkpt><trkpt lat="44.1258271" lon="12.0583947"><ele>72.75</ele><time>2026-04-25T08:38:30.51Z</time></trkpt><trkpt lat="44.1256799" lon="12.0584013"><ele>73.5</ele><time>2026-04-25T08:38:31.522Z</time></trkpt><trkpt lat="44.1255334" lon="12.0584203"><ele>74.25</ele><time>2026-04-25T08:38:32.507Z</time></trkpt><trkpt lat="44.1253957" lon="12.0584436"><ele>75.0</ele><time>2026-04-25T08:38:33.522Z</time></trkpt><trkpt lat="44.125257" lon="12.0584724"><ele>75.0</ele><time>2026-04-25T08:38:34.532Z</time></trkpt><trkpt lat="44.1251197" lon="12.0585106"><ele>75.0</ele><time>2026-04-25T08:38:35.519Z</time></trkpt><trkpt lat="44.1249856" lon="12.0585569"><ele>75.0</ele><time>2026-04-25T08:38:36.527Z</time></trkpt><trkpt lat="44.1248449" lon="12.0586068"><ele>75.0</ele><time>2026-04-25T08:38:37.533Z</time></trkpt><trkpt lat="44.1247044" lon="12.0586614"><ele>75.5</ele><time>2026-04-25T08:38:38.518Z</time></trkpt><trkpt lat="44.1245667" lon="12.0587127"><ele>76.0</ele><time>2026-04-25T08:38:39.5Z</time></trkpt><trkpt lat="44.124437" lon="12.0587578"><ele>76.5</ele><time>2026-04-25T08:38:40.527Z</time></trkpt><trkpt lat="44.1243134" lon="12.0588035"><ele>77.0</ele><time>2026-04-25T08:38:41.523Z</time></trkpt><trkpt lat="44.1241884" lon="12.0588489"><ele>77.25</ele><time>2026-04-25T08:38:42.524Z</time></trkpt><trkpt lat="44.124056" lon="12.0588906"><ele>77.5</ele><time>2026-04-25T08:38:43.525Z</time></trkpt><trkpt lat="44.123928" lon="12.0589345"><ele>77.75</ele><time>2026-04-25T08:38:44.518Z</time></trkpt><trkpt lat="44.1238018" lon="12.0589834"><ele>78.0</ele><time>2026-04-25T08:38:45.499Z</time></trkpt><trkpt lat="44.1236741" lon="12.0590257"><ele>78.0</ele><time>2026-04-25T08:38:46.548Z</time></trkpt><trkpt lat="44.1235483" lon="12.0590725"><ele>78.0</ele><time>2026-04-25T08:38:47.509Z</time></trkpt><trkpt lat="44.1234229" lon="12.0591224"><ele>78.0</ele><time>2026-04-25T08:38:48.521Z</time></trkpt><trkpt lat="44.1232944" lon="12.0591692"><ele>78.0</ele><time>2026-04-25T08:38:49.53Z</time></trkpt><trkpt lat="44.1231696" lon="12.0592084"><ele>76.25</ele><time>2026-04-25T08:38:50.525Z</time></trkpt><trkpt lat="44.1230415" lon="12.0592443"><ele>74.5</ele><time>2026-04-25T08:38:51.524Z</time></trkpt><trkpt lat="44.1229134" lon="12.0592699"><ele>72.75</ele><time>2026-04-25T08:38:52.506Z</time></trkpt><trkpt lat="44.1227965" lon="12.0592838"><ele>71.0</ele><time>2026-04-25T08:38:53.516Z</time></trkpt><trkpt lat="44.122681" lon="12.059294"><ele>71.0</ele><time>2026-04-25T08:38:54.522Z</time></trkpt><trkpt lat="44.1225578" lon="12.0593025"><ele>71.0</ele><time>2026-04-25T08:38:55.516Z</time></trkpt><trkpt lat="44.1224312" lon="12.0593095"><ele>71.0</ele><time>2026-04-25T08:38:56.515Z</time></trkpt><trkpt lat="44.1222942" lon="12.0593224"><ele>71.0</ele><time>2026-04-25T08:38:57.52Z</time></trkpt><trkpt lat="44.1221579" lon="12.0593273"><ele>70.75</ele><time>2026-04-25T08:38:58.514Z</time></trkpt><trkpt lat="44.122023" lon="12.0593419"><ele>70.5</ele><time>2026-04-25T08:38:59.516Z</time></trkpt><trkpt lat="44.1218943" lon="12.0593553"><ele>70.25</ele><time>2026-04-25T08:39:00.512Z</time></trkpt><trkpt lat="44.1217786" lon="12.0593601"><ele>70.0</ele><time>2026-04-25T08:39:01.515Z</time></trkpt><trkpt lat="44.1216592" lon="12.0593662"><ele>69.25</ele><time>2026-04-25T08:39:02.516Z</time></trkpt><trkpt lat="44.1215342" lon="12.0593802"><ele>68.5</ele><time>2026-04-25T08:39:03.515Z</time></trkpt><trkpt lat="44.1214133" lon="12.0593894"><ele>67.75</ele><time>2026-04-25T08:39:04.525Z</time></trkpt><trkpt lat="44.121296" lon="12.0593919"><ele>67.0</ele><time>2026-04-25T08:39:05.517Z</time></trkpt><trkpt lat="44.1211722" lon="12.0593978"><ele>67.0</ele><time>2026-04-25T08:39:06.517Z</time></trkpt><trkpt lat="44.1210473" lon="12.0593993"><ele>67.0</ele><time>2026-04-25T08:39:07.518Z</time></trkpt><trkpt lat="44.1209254" lon="12.0594007"><ele>67.0</ele><time>2026-04-25T08:39:08.516Z</time></trkpt><trkpt lat="44.1207969" lon="12.0593997"><ele>67.0</ele><time>2026-04-25T08:39:09.519Z</time></trkpt><trkpt lat="44.1206625" lon="12.0593855"><ele>66.5</ele><time>2026-04-25T08:39:10.514Z</time></trkpt><trkpt lat="44.1205337" lon="12.0593665"><ele>66.0</ele><time>2026-04-25T08:39:11.516Z</time></trkpt><trkpt lat="44.1204095" lon="12.0593384"><ele>65.5</ele><time>2026-04-25T08:39:12.516Z</time></trkpt><trkpt lat="44.120294" lon="12.0593051"><ele>65.0</ele><time>2026-04-25T08:39:13.514Z</time></trkpt><trkpt lat="44.1201743" lon="12.0592669"><ele>65.0</ele><time>2026-04-25T08:39:14.526Z</time></trkpt><trkpt lat="44.1200556" lon="12.0592229"><ele>65.0</ele><time>2026-04-25T08:39:15.511Z</time></trkpt><trkpt lat="44.1199448" lon="12.0591725"><ele>65.0</ele><time>2026-04-25T08:39:16.522Z</time></trkpt><trkpt lat="44.1198472" lon="12.0591063"><ele>65.0</ele><time>2026-04-25T08:39:17.521Z</time></trkpt><trkpt lat="44.119758" lon="12.0590163"><ele>65.75</ele><time>2026-04-25T08:39:18.528Z</time></trkpt><trkpt lat="44.1196643" lon="12.0589013"><ele>66.5</ele><time>2026-04-25T08:39:19.509Z</time></trkpt><trkpt lat="44.1195739" lon="12.0587941"><ele>67.25</ele><time>2026-04-25T08:39:20.516Z</time></trkpt><trkpt lat="44.1194809" lon="12.0586907"><ele>68.0</ele><time>2026-04-25T08:39:21.517Z</time></trkpt><trkpt lat="44.1193822" lon="12.0585921"><ele>68.0</ele><time>2026-04-25T08:39:22.521Z</time></trkpt><trkpt lat="44.1192872" lon="12.058489"><ele>68.0</ele><time>2026-04-25T08:39:23.517Z</time></trkpt><trkpt lat="44.1191975" lon="12.0583894"><ele>68.0</ele><time>2026-04-25T08:39:24.511Z</time></trkpt><trkpt lat="44.1191041" lon="12.0582906"><ele>68.0</ele><time>2026-04-25T08:39:25.517Z</time></trkpt><trkpt lat="44.1190077" lon="12.0581826"><ele>67.25</ele><time>2026-04-25T08:39:26.515Z</time></trkpt><trkpt lat="44.1189119" lon="12.0580758"><ele>66.5</ele><time>2026-04-25T08:39:27.522Z</time></trkpt><trkpt lat="44.1188187" lon="12.0579668"><ele>65.75</ele><time>2026-04-25T08:39:28.514Z</time></trkpt><trkpt lat="44.118724" lon="12.0578681"><ele>65.0</ele><time>2026-04-25T08:39:29.537Z</time></trkpt><trkpt lat="44.1186241" lon="12.057783"><ele>65.0</ele><time>2026-04-25T08:39:30.52Z</time></trkpt><trkpt lat="44.1185172" lon="12.0577173"><ele>65.0</ele><time>2026-04-25T08:39:31.52Z</time></trkpt><trkpt lat="44.1183981" lon="12.0576647"><ele>65.0</ele><time>2026-04-25T08:39:32.519Z</time></trkpt><trkpt lat="44.1182818" lon="12.0576233"><ele>65.0</ele><time>2026-04-25T08:39:33.533Z</time></trkpt><trkpt lat="44.1181579" lon="12.0576052"><ele>67.0</ele><time>2026-04-25T08:39:34.516Z</time></trkpt><trkpt lat="44.1180367" lon="12.0576084"><ele>69.0</ele><time>2026-04-25T08:39:35.516Z</time></trkpt><trkpt lat="44.1179094" lon="12.0576242"><ele>71.0</ele><time>2026-04-25T08:39:36.514Z</time></trkpt><trkpt lat="44.1177892" lon="12.0576581"><ele>73.0</ele><time>2026-04-25T08:39:37.524Z</time></trkpt><trkpt lat="44.1176739" lon="12.0577014"><ele>73.0</ele><time>2026-04-25T08:39:38.539Z</time></trkpt><trkpt lat="44.1175578" lon="12.0577509"><ele>73.0</ele><time>2026-04-25T08:39:39.525Z</time></trkpt><trkpt lat="44.1174459" lon="12.0577945"><ele>73.0</ele><time>2026-04-25T08:39:40.571Z</time></trkpt><trkpt lat="44.1173352" lon="12.0578358"><ele>73.0</ele><time>2026-04-25T08:39:41.525Z</time></trkpt><trkpt lat="44.1172228" lon="12.0578819"><ele>74.2</ele><time>2026-04-25T08:39:42.53Z</time></trkpt><trkpt lat="44.1171167" lon="12.0579197"><ele>75.4</ele><time>2026-04-25T08:39:43.523Z</time></trkpt><trkpt lat="44.1170067" lon="12.0579605"><ele>76.60000000000001</ele><time>2026-04-25T08:39:44.516Z</time></trkpt><trkpt lat="44.1168988" lon="12.0580018"><ele>77.8</ele><time>2026-04-25T08:39:45.524Z</time></trkpt><trkpt lat="44.1167955" lon="12.0580437"><ele>79.0</ele><time>2026-04-25T08:39:46.529Z</time></trkpt><trkpt lat="44.116685" lon="12.05809"><ele>79.0</ele><time>2026-04-25T08:39:47.525Z</time></trkpt><trkpt lat="44.1165713" lon="12.0581253"><ele>79.0</ele><time>2026-04-25T08:39:48.52Z</time></trkpt><trkpt lat="44.1164621" lon="12.0581549"><ele>79.0</ele><time>2026-04-25T08:39:49.52Z</time></trkpt><trkpt lat="44.1163469" lon="12.0581913"><ele>79.0</ele><time>2026-04-25T08:39:50.517Z</time></trkpt><trkpt lat="44.1162333" lon="12.0582244"><ele>78.75</ele><time>2026-04-25T08:39:51.521Z</time></trkpt><trkpt lat="44.1161181" lon="12.0582528"><ele>78.5</ele><time>2026-04-25T08:39:52.528Z</time></trkpt><trkpt lat="44.1159961" lon="12.0582761"><ele>78.25</ele><time>2026-04-25T08:39:53.51Z</time></trkpt><trkpt lat="44.1158765" lon="12.0582901"><ele>78.0</ele><time>2026-04-25T08:39:54.525Z</time></trkpt><trkpt lat="44.1157522" lon="12.0582984"><ele>77.75</ele><time>2026-04-25T08:39:55.541Z</time></trkpt><trkpt lat="44.115623" lon="12.0583015"><ele>77.5</ele><time>2026-04-25T08:39:56.538Z</time></trkpt><trkpt lat="44.1154912" lon="12.0582918"><ele>77.25</ele><time>2026-04-25T08:39:57.535Z</time></trkpt><trkpt lat="44.1153613" lon="12.0582756"><ele>77.0</ele><time>2026-04-25T08:39:58.522Z</time></trkpt><trkpt lat="44.1152362" lon="12.0582498"><ele>77.0</ele><time>2026-04-25T08:39:59.515Z</time></trkpt><trkpt lat="44.1151169" lon="12.0582072"><ele>77.0</ele><time>2026-04-25T08:40:00.539Z</time></trkpt><trkpt lat="44.1149965" lon="12.0581615"><ele>77.0</ele><time>2026-04-25T08:40:01.535Z</time></trkpt><trkpt lat="44.1148821" lon="12.0581048"><ele>77.0</ele><time>2026-04-25T08:40:02.514Z</time></trkpt><trkpt lat="44.1147643" lon="12.058045"><ele>77.5</ele><time>2026-04-25T08:40:03.521Z</time></trkpt><trkpt lat="44.1146415" lon="12.0579884"><ele>78.0</ele><time>2026-04-25T08:40:04.522Z</time></trkpt><trkpt lat="44.1145271" lon="12.0579213"><ele>78.5</ele><time>2026-04-25T08:40:05.522Z</time></trkpt><trkpt lat="44.1144182" lon="12.057845"><ele>79.0</ele><time>2026-04-25T08:40:06.527Z</time></trkpt><trkpt lat="44.1143071" lon="12.0577694"><ele>79.0</ele><time>2026-04-25T08:40:07.517Z</time></trkpt><trkpt lat="44.1141903" lon="12.0576909"><ele>79.0</ele><time>2026-04-25T08:40:08.529Z</time></trkpt><trkpt lat="44.1140688" lon="12.0576152"><ele>79.0</ele><time>2026-04-25T08:40:09.515Z</time></trkpt><trkpt lat="44.1139491" lon="12.0575395"><ele>79.0</ele><time>2026-04-25T08:40:10.52Z</time></trkpt><trkpt lat="44.113828" lon="12.0574672"><ele>79.0</ele><time>2026-04-25T08:40:11.523Z</time></trkpt><trkpt lat="44.113709" lon="12.0573872"><ele>79.0</ele><time>2026-04-25T08:40:12.515Z</time></trkpt><trkpt lat="44.1135843" lon="12.0573058"><ele>79.0</ele><time>2026-04-25T08:40:13.523Z</time></trkpt><trkpt lat="44.1134584" lon="12.0572205"><ele>79.0</ele><time>2026-04-25T08:40:14.52Z</time></trkpt><trkpt lat="44.1133416" lon="12.0571383"><ele>79.25</ele><time>2026-04-25T08:40:15.514Z</time></trkpt><trkpt lat="44.1132263" lon="12.0570612"><ele>79.5</ele><time>2026-04-25T08:40:16.515Z</time></trkpt><trkpt lat="44.1131125" lon="12.0569859"><ele>79.75</ele><time>2026-04-25T08:40:17.52Z</time></trkpt><trkpt lat="44.1130037" lon="12.0569143"><ele>80.0</ele><time>2026-04-25T08:40:18.551Z</time></trkpt><trkpt lat="44.1128986" lon="12.0568463"><ele>80.0</ele><time>2026-04-25T08:40:19.521Z</time></trkpt><trkpt lat="44.1127908" lon="12.056779"><ele>80.0</ele><time>2026-04-25T08:40:20.531Z</time></trkpt><trkpt lat="44.1126751" lon="12.0567017"><ele>80.0</ele><time>2026-04-25T08:40:21.51Z</time></trkpt><trkpt lat="44.1125545" lon="12.0566221"><ele>80.0</ele><time>2026-04-25T08:40:22.513Z</time></trkpt><trkpt lat="44.1124329" lon="12.0565442"><ele>80.5</ele><time>2026-04-25T08:40:23.522Z</time></trkpt><trkpt lat="44.1123104" lon="12.0564612"><ele>81.0</ele><time>2026-04-25T08:40:24.511Z</time></trkpt><trkpt lat="44.1121866" lon="12.0563821"><ele>81.5</ele><time>2026-04-25T08:40:25.531Z</time></trkpt><trkpt lat="44.1120666" lon="12.0563034"><ele>82.0</ele><time>2026-04-25T08:40:26.52Z</time></trkpt><trkpt lat="44.1119478" lon="12.0562263"><ele>82.0</ele><time>2026-04-25T08:40:27.523Z</time></trkpt><trkpt lat="44.1118223" lon="12.0561526"><ele>82.0</ele><time>2026-04-25T08:40:28.516Z</time></trkpt><trkpt lat="44.1117004" lon="12.0560683"><ele>82.0</ele><time>2026-04-25T08:40:29.514Z</time></trkpt><trkpt lat="44.1115717" lon="12.055986"><ele>82.0</ele><time>2026-04-25T08:40:30.523Z</time></trkpt><trkpt lat="44.1114427" lon="12.0559046"><ele>82.25</ele><time>2026-04-25T08:40:31.52Z</time></trkpt><trkpt lat="44.11132" lon="12.0558253"><ele>82.5</ele><time>2026-04-25T08:40:32.518Z</time></trkpt><trkpt lat="44.1112008" lon="12.0557529"><ele>82.75</ele><time>2026-04-25T08:40:33.52Z</time></trkpt><trkpt lat="44.1110904" lon="12.0556793"><ele>83.0</ele><time>2026-04-25T08:40:34.517Z</time></trkpt><trkpt lat="44.1109851" lon="12.0556047"><ele>83.0</ele><time>2026-04-25T08:40:35.518Z</time></trkpt><trkpt lat="44.1108748" lon="12.0555344"><ele>83.0</ele><time>2026-04-25T08:40:36.511Z</time></trkpt><trkpt lat="44.1107653" lon="12.0554652"><ele>83.0</ele><time>2026-04-25T08:40:37.512Z</time></trkpt><trkpt lat="44.1106471" lon="12.0553934"><ele>83.0</ele><time>2026-04-25T08:40:38.515Z</time></trkpt><trkpt lat="44.1105295" lon="12.0553195"><ele>83.0</ele><time>2026-04-25T08:40:39.523Z</time></trkpt><trkpt lat="44.1104141" lon="12.0552383"><ele>83.0</ele><time>2026-04-25T08:40:40.522Z</time></trkpt><trkpt lat="44.1102938" lon="12.0551603"><ele>83.0</ele><time>2026-04-25T08:40:41.517Z</time></trkpt><trkpt lat="44.1101742" lon="12.0550846"><ele>83.0</ele><time>2026-04-25T08:40:42.523Z</time></trkpt><trkpt lat="44.1100506" lon="12.0550075"><ele>82.75</ele><time>2026-04-25T08:40:43.532Z</time></trkpt><trkpt lat="44.1099248" lon="12.0549315"><ele>82.5</ele><time>2026-04-25T08:40:44.52Z</time></trkpt><trkpt lat="44.1098018" lon="12.0548497"><ele>82.25</ele><time>2026-04-25T08:40:45.521Z</time></trkpt><trkpt lat="44.1096766" lon="12.0547691"><ele>82.0</ele><time>2026-04-25T08:40:46.52Z</time></trkpt><trkpt lat="44.1095457" lon="12.0546906"><ele>82.5</ele><time>2026-04-25T08:40:47.524Z</time></trkpt><trkpt lat="44.1094127" lon="12.0546091"><ele>83.0</ele><time>2026-04-25T08:40:48.523Z</time></trkpt><trkpt lat="44.109284" lon="12.0545262"><ele>83.5</ele><time>2026-04-25T08:40:49.52Z</time></trkpt><trkpt lat="44.109149" lon="12.0544442"><ele>84.0</ele><time>2026-04-25T08:40:50.52Z</time></trkpt><trkpt lat="44.1090156" lon="12.0543584"><ele>84.0</ele><time>2026-04-25T08:40:51.517Z</time></trkpt><trkpt lat="44.1088775" lon="12.054276"><ele>84.0</ele><time>2026-04-25T08:40:52.521Z</time></trkpt><trkpt lat="44.1087412" lon="12.054187"><ele>84.0</ele><time>2026-04-25T08:40:53.521Z</time></trkpt><trkpt lat="44.1086078" lon="12.0540964"><ele>84.0</ele><time>2026-04-25T08:40:54.523Z</time></trkpt><trkpt lat="44.1084734" lon="12.0540063"><ele>84.33333333333333</ele><time>2026-04-25T08:40:55.526Z</time></trkpt><trkpt lat="44.108338" lon="12.0539155"><ele>84.66666666666666</ele><time>2026-04-25T08:40:56.519Z</time></trkpt><trkpt lat="44.108196" lon="12.0538367"><ele>85.0</ele><time>2026-04-25T08:40:57.524Z</time></trkpt><trkpt lat="44.1080579" lon="12.0537539"><ele>85.33333333333333</ele><time>2026-04-25T08:40:58.529Z</time></trkpt><trkpt lat="44.1079229" lon="12.0536602"><ele>85.66666666666667</ele><time>2026-04-25T08:40:59.514Z</time></trkpt><trkpt lat="44.1077848" lon="12.0535664"><ele>86.0</ele><time>2026-04-25T08:41:00.521Z</time></trkpt><trkpt lat="44.1076485" lon="12.0534731"><ele>86.0</ele><time>2026-04-25T08:41:01.508Z</time></trkpt><trkpt lat="44.107509" lon="12.0533819"><ele>86.0</ele><time>2026-04-25T08:41:02.518Z</time></trkpt><trkpt lat="44.1073705" lon="12.0532943"><ele>86.0</ele><time>2026-04-25T08:41:03.518Z</time></trkpt><trkpt lat="44.1072376" lon="12.0532027"><ele>86.5</ele><time>2026-04-25T08:41:04.518Z</time></trkpt><trkpt lat="44.1071078" lon="12.0531185"><ele>87.0</ele><time>2026-04-25T08:41:05.52Z</time></trkpt><trkpt lat="44.1069764" lon="12.0530317"><ele>87.5</ele><time>2026-04-25T08:41:06.517Z</time></trkpt><trkpt lat="44.1068415" lon="12.0529469"><ele>88.0</ele><time>2026-04-25T08:41:07.517Z</time></trkpt><trkpt lat="44.1067061" lon="12.0528582"><ele>88.33333333333333</ele><time>2026-04-25T08:41:08.514Z</time></trkpt><trkpt lat="44.106569" lon="12.0527697"><ele>88.66666666666667</ele><time>2026-04-25T08:41:09.518Z</time></trkpt><trkpt lat="44.1064298" lon="12.0526767"><ele>89.0</ele><time>2026-04-25T08:41:10.515Z</time></trkpt><trkpt lat="44.1062899" lon="12.0525852"><ele>89.0</ele><time>2026-04-25T08:41:11.514Z</time></trkpt><trkpt lat="44.1061479" lon="12.0524934"><ele>89.0</ele><time>2026-04-25T08:41:12.511Z</time></trkpt><trkpt lat="44.1060059" lon="12.0524014"><ele>89.0</ele><time>2026-04-25T08:41:13.52Z</time></trkpt><trkpt lat="44.1058623" lon="12.0523112"><ele>90.0</ele><time>2026-04-25T08:41:14.519Z</time></trkpt><trkpt lat="44.1057142" lon="12.0522116"><ele>91.0</ele><time>2026-04-25T08:41:15.513Z</time></trkpt><trkpt lat="44.1055641" lon="12.0521195"><ele>92.0</ele><time>2026-04-25T08:41:16.518Z</time></trkpt><trkpt lat="44.1054128" lon="12.0520315"><ele>92.0</ele><time>2026-04-25T08:41:17.516Z</time></trkpt><trkpt lat="44.1052588" lon="12.0519565"><ele>92.0</ele><time>2026-04-25T08:41:18.518Z</time></trkpt><trkpt lat="44.1051085" lon="12.0518934"><ele>92.0</ele><time>2026-04-25T08:41:19.515Z</time></trkpt><trkpt lat="44.1049603" lon="12.0518401"><ele>92.0</ele><time>2026-04-25T08:41:20.515Z</time></trkpt><trkpt lat="44.1048168" lon="12.0517841"><ele>92.0</ele><time>2026-04-25T08:41:21.517Z</time></trkpt><trkpt lat="44.1046717" lon="12.0517377"><ele>92.0</ele><time>2026-04-25T08:41:22.516Z</time></trkpt><trkpt lat="44.1045308" lon="12.0516889"><ele>92.0</ele><time>2026-04-25T08:41:23.524Z</time></trkpt><trkpt lat="44.1043865" lon="12.0516475"><ele>92.0</ele><time>2026-04-25T08:41:24.521Z</time></trkpt><trkpt lat="44.1042486" lon="12.0516032"><ele>92.0</ele><time>2026-04-25T08:41:25.515Z</time></trkpt><trkpt lat="44.1041076" lon="12.0515605"><ele>92.0</ele><time>2026-04-25T08:41:26.515Z</time></trkpt><trkpt lat="44.1039708" lon="12.0515145"><ele>92.0</ele><time>2026-04-25T08:41:27.52Z</time></trkpt><trkpt lat="44.1038316" lon="12.0514687"><ele>92.0</ele><time>2026-04-25T08:41:28.516Z</time></trkpt><trkpt lat="44.1036958" lon="12.0514259"><ele>92.0</ele><time>2026-04-25T08:41:29.519Z</time></trkpt><trkpt lat="44.1035588" lon="12.0513841"><ele>92.0</ele><time>2026-04-25T08:41:30.513Z</time></trkpt><trkpt lat="44.1034179" lon="12.0513419"><ele>92.0</ele><time>2026-04-25T08:41:31.533Z</time></trkpt><trkpt lat="44.1032739" lon="12.0512886"><ele>92.0</ele><time>2026-04-25T08:41:32.521Z</time></trkpt><trkpt lat="44.1031262" lon="12.0512427"><ele>92.0</ele><time>2026-04-25T08:41:33.521Z</time></trkpt><trkpt lat="44.1029771" lon="12.051195"><ele>92.0</ele><time>2026-04-25T08:41:34.521Z</time></trkpt><trkpt lat="44.1028273" lon="12.0511522"><ele>92.0</ele><time>2026-04-25T08:41:35.522Z</time></trkpt><trkpt lat="44.1026746" lon="12.0511057"><ele>92.0</ele><time>2026-04-25T08:41:36.517Z</time></trkpt><trkpt lat="44.1025218" lon="12.0510602"><ele>92.0</ele><time>2026-04-25T08:41:37.518Z</time></trkpt><trkpt lat="44.10237" lon="12.0510099"><ele>92.25</ele><time>2026-04-25T08:41:38.516Z</time></trkpt><trkpt lat="44.1022201" lon="12.0509601"><ele>92.5</ele><time>2026-04-25T08:41:39.514Z</time></trkpt><trkpt lat="44.102073" lon="12.0509154"><ele>92.75</ele><time>2026-04-25T08:41:40.512Z</time></trkpt><trkpt lat="44.1019314" lon="12.0508756"><ele>93.0</ele><time>2026-04-25T08:41:41.508Z</time></trkpt><trkpt lat="44.1017895" lon="12.050832"><ele>93.25</ele><time>2026-04-25T08:41:42.515Z</time></trkpt><trkpt lat="44.1016483" lon="12.0507875"><ele>93.5</ele><time>2026-04-25T08:41:43.526Z</time></trkpt><trkpt lat="44.1015044" lon="12.0507397"><ele>93.75</ele><time>2026-04-25T08:41:44.509Z</time></trkpt><trkpt lat="44.10136" lon="12.050694"><ele>94.0</ele><time>2026-04-25T08:41:45.518Z</time></trkpt><trkpt lat="44.1012144" lon="12.0506457"><ele>94.33333333333333</ele><time>2026-04-25T08:41:46.522Z</time></trkpt><trkpt lat="44.1010666" lon="12.0505949"><ele>94.66666666666667</ele><time>2026-04-25T08:41:47.507Z</time></trkpt><trkpt lat="44.1009198" lon="12.0505453"><ele>95.0</ele><time>2026-04-25T08:41:48.514Z</time></trkpt><trkpt lat="44.1007707" lon="12.0505002"><ele>95.0</ele><time>2026-04-25T08:41:49.521Z</time></trkpt><trkpt lat="44.1006185" lon="12.0504559"><ele>95.0</ele><time>2026-04-25T08:41:50.533Z</time></trkpt><trkpt lat="44.1004635" lon="12.0504097"><ele>95.0</ele><time>2026-04-25T08:41:51.514Z</time></trkpt><trkpt lat="44.1003118" lon="12.0503634"><ele>95.0</ele><time>2026-04-25T08:41:52.514Z</time></trkpt><trkpt lat="44.1001612" lon="12.0503143"><ele>95.0</ele><time>2026-04-25T08:41:53.531Z</time></trkpt><trkpt lat="44.1000156" lon="12.050269"><ele>95.0</ele><time>2026-04-25T08:41:54.512Z</time></trkpt><trkpt lat="44.0998731" lon="12.0502198"><ele>95.0</ele><time>2026-04-25T08:41:55.512Z</time></trkpt><trkpt lat="44.0997357" lon="12.0501746"><ele>95.0</ele><time>2026-04-25T08:41:56.529Z</time></trkpt><trkpt lat="44.0995915" lon="12.0501279"><ele>95.0</ele><time>2026-04-25T08:41:57.52Z</time></trkpt><trkpt lat="44.0994511" lon="12.0500854"><ele>95.0</ele><time>2026-04-25T08:41:58.522Z</time></trkpt><trkpt lat="44.0993069" lon="12.0500406"><ele>95.0</ele><time>2026-04-25T08:41:59.517Z</time></trkpt><trkpt lat="44.0991675" lon="12.0499964"><ele>95.0</ele><time>2026-04-25T08:42:00.515Z</time></trkpt><trkpt lat="44.0990276" lon="12.0499494"><ele>95.0</ele><time>2026-04-25T08:42:01.515Z</time></trkpt><trkpt lat="44.0988913" lon="12.0499027"><ele>95.0</ele><time>2026-04-25T08:42:02.515Z</time></trkpt><trkpt lat="44.0987575" lon="12.0498589"><ele>95.5</ele><time>2026-04-25T08:42:03.515Z</time></trkpt><trkpt lat="44.09862" lon="12.0498145"><ele>96.0</ele><time>2026-04-25T08:42:04.518Z</time></trkpt><trkpt lat="44.0984802" lon="12.0497736"><ele>96.5</ele><time>2026-04-25T08:42:05.517Z</time></trkpt><trkpt lat="44.0983451" lon="12.0497331"><ele>97.0</ele><time>2026-04-25T08:42:06.518Z</time></trkpt><trkpt lat="44.0982117" lon="12.0496934"><ele>95.5</ele><time>2026-04-25T08:42:07.518Z</time></trkpt><trkpt lat="44.098083" lon="12.0496544"><ele>94.0</ele><time>2026-04-25T08:42:08.515Z</time></trkpt><trkpt lat="44.0979602" lon="12.0496115"><ele>92.5</ele><time>2026-04-25T08:42:09.523Z</time></trkpt><trkpt lat="44.09784" lon="12.049573"><ele>91.0</ele><time>2026-04-25T08:42:10.524Z</time></trkpt><trkpt lat="44.0977138" lon="12.0495368"><ele>91.0</ele><time>2026-04-25T08:42:11.518Z</time></trkpt><trkpt lat="44.0975898" lon="12.0494932"><ele>91.0</ele><time>2026-04-25T08:42:12.519Z</time></trkpt><trkpt lat="44.0974655" lon="12.049445"><ele>91.0</ele><time>2026-04-25T08:42:13.546Z</time></trkpt><trkpt lat="44.0973365" lon="12.0494039"><ele>91.0</ele><time>2026-04-25T08:42:14.52Z</time></trkpt><trkpt lat="44.0972055" lon="12.0493641"><ele>91.25</ele><time>2026-04-25T08:42:15.528Z</time></trkpt><trkpt lat="44.0970808" lon="12.0493207"><ele>91.5</ele><time>2026-04-25T08:42:16.534Z</time></trkpt><trkpt lat="44.0969558" lon="12.0492843"><ele>91.75</ele><time>2026-04-25T08:42:17.52Z</time></trkpt><trkpt lat="44.0968256" lon="12.0492514"><ele>92.0</ele><time>2026-04-25T08:42:18.526Z</time></trkpt><trkpt lat="44.096704" lon="12.0492104"><ele>92.75</ele><time>2026-04-25T08:42:19.521Z</time></trkpt><trkpt lat="44.0965792" lon="12.049171"><ele>93.5</ele><time>2026-04-25T08:42:20.521Z</time></trkpt><trkpt lat="44.0964569" lon="12.0491343"><ele>94.25</ele><time>2026-04-25T08:42:21.52Z</time></trkpt><trkpt lat="44.0963373" lon="12.0490965"><ele>95.0</ele><time>2026-04-25T08:42:22.518Z</time></trkpt><trkpt lat="44.0962169" lon="12.0490557"><ele>95.0</ele><time>2026-04-25T08:42:23.525Z</time></trkpt><trkpt lat="44.0960989" lon="12.0490177"><ele>95.0</ele><time>2026-04-25T08:42:24.521Z</time></trkpt><trkpt lat="44.0959768" lon="12.0489851"><ele>95.0</ele><time>2026-04-25T08:42:25.511Z</time></trkpt><trkpt lat="44.0958543" lon="12.048945"><ele>95.0</ele><time>2026-04-25T08:42:26.521Z</time></trkpt><trkpt lat="44.0957338" lon="12.0489029"><ele>95.75</ele><time>2026-04-25T08:42:27.513Z</time></trkpt><trkpt lat="44.0956128" lon="12.0488695"><ele>96.5</ele><time>2026-04-25T08:42:28.523Z</time></trkpt><trkpt lat="44.09549" lon="12.0488335"><ele>97.25</ele><time>2026-04-25T08:42:29.513Z</time></trkpt><trkpt lat="44.0953699" lon="12.0487934"><ele>98.0</ele><time>2026-04-25T08:42:30.519Z</time></trkpt><trkpt lat="44.095248" lon="12.0487524"><ele>98.0</ele><time>2026-04-25T08:42:31.515Z</time></trkpt><trkpt lat="44.0951232" lon="12.0487054"><ele>98.0</ele><time>2026-04-25T08:42:32.522Z</time></trkpt><trkpt lat="44.0949985" lon="12.0486528"><ele>98.0</ele><time>2026-04-25T08:42:33.513Z</time></trkpt><trkpt lat="44.0948687" lon="12.0485943"><ele>98.0</ele><time>2026-04-25T08:42:34.528Z</time></trkpt><trkpt lat="44.0947397" lon="12.0485258"><ele>98.5</ele><time>2026-04-25T08:42:35.538Z</time></trkpt><trkpt lat="44.0946153" lon="12.0484471"><ele>99.0</ele><time>2026-04-25T08:42:36.521Z</time></trkpt><trkpt lat="44.0944964" lon="12.0483589"><ele>99.5</ele><time>2026-04-25T08:42:37.512Z</time></trkpt><trkpt lat="44.0943817" lon="12.0482595"><ele>100.0</ele><time>2026-04-25T08:42:38.522Z</time></trkpt><trkpt lat="44.0942651" lon="12.048163"><ele>100.25</ele><time>2026-04-25T08:42:39.522Z</time></trkpt><trkpt lat="44.0941501" lon="12.048067"><ele>100.5</ele><time>2026-04-25T08:42:40.514Z</time></trkpt><trkpt lat="44.0940333" lon="12.0479708"><ele>100.75</ele><time>2026-04-25T08:42:41.52Z</time></trkpt><trkpt lat="44.0939159" lon="12.0478734"><ele>101.0</ele><time>2026-04-25T08:42:42.514Z</time></trkpt><trkpt lat="44.0937995" lon="12.0477763"><ele>101.5</ele><time>2026-04-25T08:42:43.524Z</time></trkpt><trkpt lat="44.093681" lon="12.0476778"><ele>102.0</ele><time>2026-04-25T08:42:44.513Z</time></trkpt><trkpt lat="44.0935597" lon="12.0475771"><ele>102.5</ele><time>2026-04-25T08:42:45.519Z</time></trkpt><trkpt lat="44.093443" lon="12.0474734"><ele>103.0</ele><time>2026-04-25T08:42:46.51Z</time></trkpt><trkpt lat="44.0933206" lon="12.0473797"><ele>103.25</ele><time>2026-04-25T08:42:47.514Z</time></trkpt><trkpt lat="44.0932064" lon="12.0472865"><ele>103.5</ele><time>2026-04-25T08:42:48.513Z</time></trkpt><trkpt lat="44.0930945" lon="12.0471942"><ele>103.75</ele><time>2026-04-25T08:42:49.515Z</time></trkpt><trkpt lat="44.0929875" lon="12.0471035"><ele>104.0</ele><time>2026-04-25T08:42:50.516Z</time></trkpt><trkpt lat="44.0928815" lon="12.0470127"><ele>104.0</ele><time>2026-04-25T08:42:51.522Z</time></trkpt><trkpt lat="44.0927745" lon="12.0469185"><ele>104.0</ele><time>2026-04-25T08:42:52.523Z</time></trkpt><trkpt lat="44.0926651" lon="12.0468195"><ele>104.0</ele><time>2026-04-25T08:42:53.521Z</time></trkpt><trkpt lat="44.0925579" lon="12.0467193"><ele>104.0</ele><time>2026-04-25T08:42:54.516Z</time></trkpt><trkpt lat="44.0924467" lon="12.0466223"><ele>103.75</ele><time>2026-04-25T08:42:55.515Z</time></trkpt><trkpt lat="44.0923431" lon="12.0465134"><ele>103.5</ele><time>2026-04-25T08:42:56.522Z</time></trkpt><trkpt lat="44.0922362" lon="12.046403"><ele>103.25</ele><time>2026-04-25T08:42:57.522Z</time></trkpt><trkpt lat="44.0921414" lon="12.046307"><ele>103.0</ele><time>2026-04-25T08:42:58.514Z</time></trkpt><trkpt lat="44.0920533" lon="12.0462153"><ele>103.00000000000001</ele><time>2026-04-25T08:42:59.518Z</time></trkpt><trkpt lat="44.0919758" lon="12.0461275"><ele>103.0</ele><time>2026-04-25T08:43:00.511Z</time></trkpt><trkpt lat="44.0919074" lon="12.046044"><ele>103.0</ele><time>2026-04-25T08:43:01.517Z</time></trkpt><trkpt lat="44.0918598" lon="12.0459496"><ele>103.0</ele><time>2026-04-25T08:43:02.515Z</time></trkpt><trkpt lat="44.0918257" lon="12.0458465"><ele>103.00000000000001</ele><time>2026-04-25T08:43:03.512Z</time></trkpt><trkpt lat="44.0917819" lon="12.0457391"><ele>103.0</ele><time>2026-04-25T08:43:04.517Z</time></trkpt><trkpt lat="44.091719" lon="12.0456438"><ele>102.80000000000001</ele><time>2026-04-25T08:43:05.521Z</time></trkpt><trkpt lat="44.0916449" lon="12.0455723"><ele>102.6</ele><time>2026-04-25T08:43:06.519Z</time></trkpt><trkpt lat="44.0915475" lon="12.0455223"><ele>102.4</ele><time>2026-04-25T08:43:07.513Z</time></trkpt><trkpt lat="44.0914371" lon="12.0454888"><ele>102.19999999999999</ele><time>2026-04-25T08:43:08.518Z</time></trkpt><trkpt lat="44.0913165" lon="12.0454655"><ele>102.0</ele><time>2026-04-25T08:43:09.514Z</time></trkpt><trkpt lat="44.0911883" lon="12.045432"><ele>102.0</ele><time>2026-04-25T08:43:10.53Z</time></trkpt><trkpt lat="44.0910656" lon="12.0453654"><ele>102.0</ele><time>2026-04-25T08:43:11.521Z</time></trkpt><trkpt lat="44.0909398" lon="12.0452955"><ele>102.0</ele><time>2026-04-25T08:43:12.527Z</time></trkpt><trkpt lat="44.0908134" lon="12.0452163"><ele>102.0</ele><time>2026-04-25T08:43:13.535Z</time></trkpt><trkpt lat="44.0906902" lon="12.0451323"><ele>102.0</ele><time>2026-04-25T08:43:14.516Z</time></trkpt><trkpt lat="44.0905718" lon="12.0450541"><ele>102.0</ele><time>2026-04-25T08:43:15.513Z</time></trkpt><trkpt lat="44.090455" lon="12.0449783"><ele>102.0</ele><time>2026-04-25T08:43:16.518Z</time></trkpt><trkpt lat="44.0903331" lon="12.0449002"><ele>102.0</ele><time>2026-04-25T08:43:17.521Z</time></trkpt><trkpt lat="44.0902047" lon="12.0448123"><ele>102.0</ele><time>2026-04-25T08:43:18.515Z</time></trkpt><trkpt lat="44.0900771" lon="12.0447109"><ele>102.0</ele><time>2026-04-25T08:43:19.512Z</time></trkpt><trkpt lat="44.0899473" lon="12.0445975"><ele>102.0</ele><time>2026-04-25T08:43:20.519Z</time></trkpt><trkpt lat="44.0898147" lon="12.0444813"><ele>101.0</ele><time>2026-04-25T08:43:21.515Z</time></trkpt><trkpt lat="44.0896758" lon="12.0443691"><ele>100.0</ele><time>2026-04-25T08:43:22.513Z</time></trkpt><trkpt lat="44.089539" lon="12.0442542"><ele>99.0</ele><time>2026-04-25T08:43:23.52Z</time></trkpt><trkpt lat="44.0894019" lon="12.0441364"><ele>99.0</ele><time>2026-04-25T08:43:24.519Z</time></trkpt><trkpt lat="44.0892624" lon="12.0440194"><ele>99.0</ele><time>2026-04-25T08:43:25.539Z</time></trkpt><trkpt lat="44.0891209" lon="12.0439027"><ele>99.0</ele><time>2026-04-25T08:43:26.514Z</time></trkpt><trkpt lat="44.0889779" lon="12.0437814"><ele>99.0</ele><time>2026-04-25T08:43:27.514Z</time></trkpt><trkpt lat="44.088836" lon="12.0436647"><ele>99.0</ele><time>2026-04-25T08:43:28.509Z</time></trkpt><trkpt lat="44.0886883" lon="12.0435474"><ele>99.0</ele><time>2026-04-25T08:43:29.505Z</time></trkpt><trkpt lat="44.0885377" lon="12.043425"><ele>99.0</ele><time>2026-04-25T08:43:30.522Z</time></trkpt><trkpt lat="44.088386" lon="12.0432979"><ele>99.0</ele><time>2026-04-25T08:43:31.514Z</time></trkpt><trkpt lat="44.0882339" lon="12.0431694"><ele>99.0</ele><time>2026-04-25T08:43:32.525Z</time></trkpt><trkpt lat="44.0880838" lon="12.043045"><ele>99.0</ele><time>2026-04-25T08:43:33.517Z</time></trkpt><trkpt lat="44.0879371" lon="12.0429206"><ele>99.0</ele><time>2026-04-25T08:43:34.518Z</time></trkpt><trkpt lat="44.0877908" lon="12.0427958"><ele>99.0</ele><time>2026-04-25T08:43:35.506Z</time></trkpt><trkpt lat="44.0876438" lon="12.042677"><ele>99.0</ele><time>2026-04-25T08:43:36.518Z</time></trkpt><trkpt lat="44.0874965" lon="12.042557"><ele>99.0</ele><time>2026-04-25T08:43:37.535Z</time></trkpt><trkpt lat="44.0873473" lon="12.0424369"><ele>99.0</ele><time>2026-04-25T08:43:38.512Z</time></trkpt><trkpt lat="44.0872034" lon="12.0423168"><ele>99.66666666666666</ele><time>2026-04-25T08:43:39.512Z</time></trkpt><trkpt lat="44.0870566" lon="12.0421972"><ele>100.33333333333333</ele><time>2026-04-25T08:43:40.551Z</time></trkpt><trkpt lat="44.0869094" lon="12.0420731"><ele>101.0</ele><time>2026-04-25T08:43:41.517Z</time></trkpt><trkpt lat="44.0867587" lon="12.0419535"><ele>101.0</ele><time>2026-04-25T08:43:42.531Z</time></trkpt><trkpt lat="44.0866132" lon="12.0418302"><ele>101.0</ele><time>2026-04-25T08:43:43.521Z</time></trkpt><trkpt lat="44.0864635" lon="12.0417067"><ele>101.0</ele><time>2026-04-25T08:43:44.531Z</time></trkpt><trkpt lat="44.0863135" lon="12.0415806"><ele>100.0</ele><time>2026-04-25T08:43:45.523Z</time></trkpt><trkpt lat="44.0861614" lon="12.0414543"><ele>99.0</ele><time>2026-04-25T08:43:46.517Z</time></trkpt><trkpt lat="44.0860085" lon="12.0413321"><ele>98.0</ele><time>2026-04-25T08:43:47.512Z</time></trkpt><trkpt lat="44.085857" lon="12.0412075"><ele>95.66666666666666</ele><time>2026-04-25T08:43:48.512Z</time></trkpt><trkpt lat="44.0857075" lon="12.0410793"><ele>93.33333333333333</ele><time>2026-04-25T08:43:49.52Z</time></trkpt><trkpt lat="44.085558" lon="12.040947"><ele>91.0</ele><time>2026-04-25T08:43:50.522Z</time></trkpt><trkpt lat="44.0854095" lon="12.04081"><ele>91.33333333333333</ele><time>2026-04-25T08:43:51.522Z</time></trkpt><trkpt lat="44.0852529" lon="12.0406786"><ele>91.66666666666667</ele><time>2026-04-25T08:43:52.525Z</time></trkpt><trkpt lat="44.0851028" lon="12.0405338"><ele>92.0</ele><time>2026-04-25T08:43:53.519Z</time></trkpt><trkpt lat="44.0849458" lon="12.0403939"><ele>92.66666666666667</ele><time>2026-04-25T08:43:54.518Z</time></trkpt><trkpt lat="44.0847868" lon="12.0402513"><ele>93.33333333333333</ele><time>2026-04-25T08:43:55.516Z</time></trkpt><trkpt lat="44.0846263" lon="12.0401082"><ele>94.0</ele><time>2026-04-25T08:43:56.505Z</time></trkpt><trkpt lat="44.0844638" lon="12.0399608"><ele>94.0</ele><time>2026-04-25T08:43:57.515Z</time></trkpt><trkpt lat="44.0843127" lon="12.0398118"><ele>94.0</ele><time>2026-04-25T08:43:58.517Z</time></trkpt><trkpt lat="44.0841626" lon="12.0396636"><ele>94.0</ele><time>2026-04-25T08:43:59.513Z</time></trkpt><trkpt lat="44.0840215" lon="12.0395156"><ele>93.66666666666666</ele><time>2026-04-25T08:44:00.516Z</time></trkpt><trkpt lat="44.0838842" lon="12.0393768"><ele>93.33333333333333</ele><time>2026-04-25T08:44:01.508Z</time></trkpt><trkpt lat="44.0837518" lon="12.0392464"><ele>93.0</ele><time>2026-04-25T08:44:02.52Z</time></trkpt><trkpt lat="44.0836284" lon="12.0391194"><ele>94.75</ele><time>2026-04-25T08:44:03.514Z</time></trkpt><trkpt lat="44.0835157" lon="12.0390031"><ele>96.5</ele><time>2026-04-25T08:44:04.515Z</time></trkpt><trkpt lat="44.0834094" lon="12.0388953"><ele>98.25</ele><time>2026-04-25T08:44:05.515Z</time></trkpt><trkpt lat="44.0833101" lon="12.0387906"><ele>100.0</ele><time>2026-04-25T08:44:06.527Z</time></trkpt><trkpt lat="44.0832091" lon="12.0386827"><ele>100.25</ele><time>2026-04-25T08:44:07.527Z</time></trkpt><trkpt lat="44.0831086" lon="12.0385772"><ele>100.5</ele><time>2026-04-25T08:44:08.534Z</time></trkpt><trkpt lat="44.0830036" lon="12.0384648"><ele>100.75</ele><time>2026-04-25T08:44:09.516Z</time></trkpt><trkpt lat="44.0828976" lon="12.0383548"><ele>101.0</ele><time>2026-04-25T08:44:10.525Z</time></trkpt><trkpt lat="44.0827939" lon="12.0382472"><ele>101.5</ele><time>2026-04-25T08:44:11.513Z</time></trkpt><trkpt lat="44.0826896" lon="12.0381409"><ele>102.0</ele><time>2026-04-25T08:44:12.519Z</time></trkpt><trkpt lat="44.0825929" lon="12.0380379"><ele>102.5</ele><time>2026-04-25T08:44:13.518Z</time></trkpt><trkpt lat="44.0825093" lon="12.0379445"><ele>103.0</ele><time>2026-04-25T08:44:14.518Z</time></trkpt><trkpt lat="44.0824283" lon="12.0378593"><ele>103.16666666666667</ele><time>2026-04-25T08:44:15.528Z</time></trkpt><trkpt lat="44.0823494" lon="12.0377775"><ele>103.33333333333334</ele><time>2026-04-25T08:44:16.516Z</time></trkpt><trkpt lat="44.0822788" lon="12.0377051"><ele>103.5</ele><time>2026-04-25T08:44:17.516Z</time></trkpt><trkpt lat="44.0822241" lon="12.0376501"><ele>103.66666666666666</ele><time>2026-04-25T08:44:18.515Z</time></trkpt><trkpt lat="44.082171" lon="12.0375576"><ele>103.83333333333333</ele><time>2026-04-25T08:44:20.532Z</time></trkpt><trkpt lat="44.0821808" lon="12.0374524"><ele>104.0</ele><time>2026-04-25T08:44:22.526Z</time></trkpt><trkpt lat="44.0822543" lon="12.0373968"><ele>103.99999999999999</ele><time>2026-04-25T08:44:24.517Z</time></trkpt><trkpt lat="44.0823119" lon="12.0373531"><ele>104.0</ele><time>2026-04-25T08:44:26.535Z</time></trkpt><trkpt lat="44.0823755" lon="12.0373975"><ele>104.0</ele><time>2026-04-25T08:44:38.492Z</time></trkpt><trkpt lat="44.0824061" lon="12.0375084"><ele>104.0</ele><time>2026-04-25T08:44:41.515Z</time></trkpt><trkpt lat="44.0823479" lon="12.0374557"><ele>103.99999999999999</ele><time>2026-04-25T09:09:02.504Z</time></trkpt><trkpt lat="44.0822617" lon="12.037421"><ele>104.0</ele><time>2026-04-25T09:09:05.509Z</time></trkpt><trkpt lat="44.0821874" lon="12.0374583"><ele>104.0</ele><time>2026-04-25T09:09:07.501Z</time></trkpt><trkpt lat="44.0820923" lon="12.0374803"><ele>104.0</ele><time>2026-04-25T09:09:09.506Z</time></trkpt><trkpt lat="44.0820293" lon="12.0374393"><ele>104.0</ele><time>2026-04-25T09:09:10.512Z</time></trkpt><trkpt lat="44.0819552" lon="12.0373741"><ele>104.0</ele><time>2026-04-25T09:09:11.503Z</time></trkpt><trkpt lat="44.0818766" lon="12.0372905"><ele>104.0</ele><time>2026-04-25T09:09:12.502Z</time></trkpt><trkpt lat="44.0817963" lon="12.0372015"><ele>104.0</ele><time>2026-04-25T09:09:13.508Z</time></trkpt><trkpt lat="44.0817071" lon="12.0371107"><ele>104.0</ele><time>2026-04-25T09:09:14.509Z</time></trkpt><trkpt lat="44.0816155" lon="12.0369982"><ele>104.0</ele><time>2026-04-25T09:09:15.496Z</time></trkpt><trkpt lat="44.0815158" lon="12.0368746"><ele>104.0</ele><time>2026-04-25T09:09:16.5Z</time></trkpt><trkpt lat="44.0814144" lon="12.0367616"><ele>103.25</ele><time>2026-04-25T09:09:17.506Z</time></trkpt><trkpt lat="44.0813181" lon="12.0366418"><ele>102.5</ele><time>2026-04-25T09:09:18.511Z</time></trkpt><trkpt lat="44.0812226" lon="12.0365318"><ele>101.75</ele><time>2026-04-25T09:09:19.507Z</time></trkpt><trkpt lat="44.0811156" lon="12.0364226"><ele>101.0</ele><time>2026-04-25T09:09:20.507Z</time></trkpt><trkpt lat="44.0810093" lon="12.0363153"><ele>101.0</ele><time>2026-04-25T09:09:21.507Z</time></trkpt><trkpt lat="44.0809098" lon="12.0362052"><ele>101.0</ele><time>2026-04-25T09:09:22.5Z</time></trkpt><trkpt lat="44.0808083" lon="12.0360919"><ele>101.0</ele><time>2026-04-25T09:09:23.518Z</time></trkpt><trkpt lat="44.0807062" lon="12.0359746"><ele>101.0</ele><time>2026-04-25T09:09:24.51Z</time></trkpt><trkpt lat="44.0806122" lon="12.0358699"><ele>102.0</ele><time>2026-04-25T09:09:25.501Z</time></trkpt><trkpt lat="44.0805267" lon="12.035779"><ele>103.0</ele><time>2026-04-25T09:09:26.499Z</time></trkpt><trkpt lat="44.0804509" lon="12.0356932"><ele>104.0</ele><time>2026-04-25T09:09:27.506Z</time></trkpt><trkpt lat="44.0803827" lon="12.035622"><ele>105.0</ele><time>2026-04-25T09:09:28.508Z</time></trkpt><trkpt lat="44.0803199" lon="12.0355537"><ele>106.0</ele><time>2026-04-25T09:09:29.507Z</time></trkpt><trkpt lat="44.0802499" lon="12.0354784"><ele>106.00000000000001</ele><time>2026-04-25T09:09:30.506Z</time></trkpt><trkpt lat="44.0801694" lon="12.0353904"><ele>106.0</ele><time>2026-04-25T09:09:31.507Z</time></trkpt><trkpt lat="44.0800983" lon="12.035297"><ele>106.0</ele><time>2026-04-25T09:09:32.507Z</time></trkpt><trkpt lat="44.0800288" lon="12.0352118"><ele>106.0</ele><time>2026-04-25T09:09:33.506Z</time></trkpt><trkpt lat="44.0799666" lon="12.0351387"><ele>106.00000000000001</ele><time>2026-04-25T09:09:34.506Z</time></trkpt><trkpt lat="44.0799137" lon="12.0350712"><ele>106.0</ele><time>2026-04-25T09:09:35.505Z</time></trkpt><trkpt lat="44.0798918" lon="12.0349218"><ele>105.83333333333334</ele><time>2026-04-25T09:09:37.508Z</time></trkpt><trkpt lat="44.0799189" lon="12.0348419"><ele>105.66666666666667</ele><time>2026-04-25T09:09:38.51Z</time></trkpt><trkpt lat="44.0799653" lon="12.0347647"><ele>105.5</ele><time>2026-04-25T09:09:39.513Z</time></trkpt><trkpt lat="44.0800091" lon="12.0346769"><ele>105.33333333333334</ele><time>2026-04-25T09:09:40.532Z</time></trkpt><trkpt lat="44.0800572" lon="12.0345792"><ele>105.16666666666667</ele><time>2026-04-25T09:09:41.509Z</time></trkpt><trkpt lat="44.0801024" lon="12.0344628"><ele>105.0</ele><time>2026-04-25T09:09:42.508Z</time></trkpt><trkpt lat="44.0801562" lon="12.0343361"><ele>105.4</ele><time>2026-04-25T09:09:43.51Z</time></trkpt><trkpt lat="44.0802153" lon="12.0342104"><ele>105.8</ele><time>2026-04-25T09:09:44.513Z</time></trkpt><trkpt lat="44.0802745" lon="12.0340838"><ele>106.19999999999999</ele><time>2026-04-25T09:09:45.517Z</time></trkpt><trkpt lat="44.0803344" lon="12.0339555"><ele>106.6</ele><time>2026-04-25T09:09:46.504Z</time></trkpt><trkpt lat="44.0803922" lon="12.0338302"><ele>107.0</ele><time>2026-04-25T09:09:47.507Z</time></trkpt><trkpt lat="44.0804474" lon="12.033711"><ele>107.39999999999999</ele><time>2026-04-25T09:09:48.507Z</time></trkpt><trkpt lat="44.0804989" lon="12.0335981"><ele>107.79999999999998</ele><time>2026-04-25T09:09:49.515Z</time></trkpt><trkpt lat="44.0805448" lon="12.0334966"><ele>108.2</ele><time>2026-04-25T09:09:50.517Z</time></trkpt><trkpt lat="44.0805823" lon="12.0334013"><ele>108.6</ele><time>2026-04-25T09:09:51.506Z</time></trkpt><trkpt lat="44.0806401" lon="12.0332578"><ele>109.0</ele><time>2026-04-25T09:09:53.511Z</time></trkpt><trkpt lat="44.0806907" lon="12.0331805"><ele>109.6</ele><time>2026-04-25T09:09:55.503Z</time></trkpt><trkpt lat="44.0808104" lon="12.0331971"><ele>110.2</ele><time>2026-04-25T09:09:58.513Z</time></trkpt><trkpt lat="44.0808714" lon="12.0332507"><ele>110.79999999999998</ele><time>2026-04-25T09:09:59.515Z</time></trkpt><trkpt lat="44.0809349" lon="12.0333082"><ele>111.39999999999999</ele><time>2026-04-25T09:10:00.503Z</time></trkpt><trkpt lat="44.0809937" lon="12.0333451"><ele>112.0</ele><time>2026-04-25T09:10:01.52Z</time></trkpt><trkpt lat="44.0811171" lon="12.0333481"><ele>114.00000000000001</ele><time>2026-04-25T09:10:03.507Z</time></trkpt><trkpt lat="44.0811769" lon="12.0333034"><ele>116.0</ele><time>2026-04-25T09:10:04.502Z</time></trkpt><trkpt lat="44.0812285" lon="12.0332348"><ele>118.0</ele><time>2026-04-25T09:10:05.5Z</time></trkpt><trkpt lat="44.0812764" lon="12.0331464"><ele>120.0</ele><time>2026-04-25T09:10:06.504Z</time></trkpt><trkpt lat="44.0813237" lon="12.0330407"><ele>122.00000000000001</ele><time>2026-04-25T09:10:07.519Z</time></trkpt><trkpt lat="44.0813712" lon="12.0329131"><ele>124.0</ele><time>2026-04-25T09:10:08.513Z</time></trkpt><trkpt lat="44.0814249" lon="12.032787"><ele>124.0</ele><time>2026-04-25T09:10:09.52Z</time></trkpt><trkpt lat="44.0814828" lon="12.0326574"><ele>124.0</ele><time>2026-04-25T09:10:10.518Z</time></trkpt><trkpt lat="44.0815396" lon="12.0325305"><ele>124.0</ele><time>2026-04-25T09:10:11.525Z</time></trkpt><trkpt lat="44.0815871" lon="12.0324072"><ele>124.0</ele><time>2026-04-25T09:10:12.501Z</time></trkpt><trkpt lat="44.0816273" lon="12.0322892"><ele>124.0</ele><time>2026-04-25T09:10:13.51Z</time></trkpt><trkpt lat="44.0816592" lon="12.0321944"><ele>125.50000000000001</ele><time>2026-04-25T09:10:14.514Z</time></trkpt><trkpt lat="44.0816567" lon="12.0320539"><ele>127.0</ele><time>2026-04-25T09:10:16.516Z</time></trkpt><trkpt lat="44.081592" lon="12.0319179"><ele>128.5</ele><time>2026-04-25T09:10:18.505Z</time></trkpt><trkpt lat="44.0815287" lon="12.0318714"><ele>130.0</ele><time>2026-04-25T09:10:19.527Z</time></trkpt><trkpt lat="44.0814515" lon="12.0318357"><ele>131.5</ele><time>2026-04-25T09:10:20.518Z</time></trkpt><trkpt lat="44.0813784" lon="12.0317969"><ele>133.0</ele><time>2026-04-25T09:10:21.512Z</time></trkpt><trkpt lat="44.081308" lon="12.0317478"><ele>133.5</ele><time>2026-04-25T09:10:22.519Z</time></trkpt><trkpt lat="44.081238" lon="12.0316837"><ele>134.0</ele><time>2026-04-25T09:10:23.504Z</time></trkpt><trkpt lat="44.0811891" lon="12.0316001"><ele>134.5</ele><time>2026-04-25T09:10:24.51Z</time></trkpt><trkpt lat="44.081151" lon="12.0315086"><ele>135.0</ele><time>2026-04-25T09:10:25.506Z</time></trkpt><trkpt lat="44.0811246" lon="12.0314255"><ele>135.5</ele><time>2026-04-25T09:10:26.507Z</time></trkpt><trkpt lat="44.0811051" lon="12.0313416"><ele>136.0</ele><time>2026-04-25T09:10:27.506Z</time></trkpt><trkpt lat="44.0810653" lon="12.0311913"><ele>137.7142857142857</ele><time>2026-04-25T09:10:29.514Z</time></trkpt><trkpt lat="44.0810387" lon="12.0310905"><ele>139.42857142857142</ele><time>2026-04-25T09:10:31.512Z</time></trkpt><trkpt lat="44.0810349" lon="12.0309881"><ele>141.14285714285714</ele><time>2026-04-25T09:10:34.533Z</time></trkpt><trkpt lat="44.081032" lon="12.0311047"><ele>142.85714285714283</ele><time>2026-04-25T09:10:39.514Z</time></trkpt><trkpt lat="44.0810678" lon="12.0311789"><ele>144.57142857142856</ele><time>2026-04-25T09:10:40.507Z</time></trkpt><trkpt lat="44.0810951" lon="12.0312583"><ele>146.28571428571428</ele><time>2026-04-25T09:10:41.511Z</time></trkpt><trkpt lat="44.0811175" lon="12.0313474"><ele>148.0</ele><time>2026-04-25T09:10:42.498Z</time></trkpt><trkpt lat="44.0811417" lon="12.0314347"><ele>148.0</ele><time>2026-04-25T09:10:43.522Z</time></trkpt><trkpt lat="44.0811996" lon="12.0315959"><ele>148.0</ele><time>2026-04-25T09:10:45.508Z</time></trkpt><trkpt lat="44.0812456" lon="12.0316633"><ele>148.0</ele><time>2026-04-25T09:10:46.503Z</time></trkpt><trkpt lat="44.0812937" lon="12.0317245"><ele>148.0</ele><time>2026-04-25T09:10:47.511Z</time></trkpt><trkpt lat="44.0814037" lon="12.0317897"><ele>148.0</ele><time>2026-04-25T09:10:49.518Z</time></trkpt><trkpt lat="44.0815094" lon="12.0318317"><ele>146.0</ele><time>2026-04-25T09:10:51.515Z</time></trkpt><trkpt lat="44.0816067" lon="12.0318939"><ele>144.0</ele><time>2026-04-25T09:10:53.51Z</time></trkpt><trkpt lat="44.0816724" lon="12.0320073"><ele>142.0</ele><time>2026-04-25T09:10:55.512Z</time></trkpt><trkpt lat="44.0816822" lon="12.0321258"><ele>140.0</ele><time>2026-04-25T09:10:57.503Z</time></trkpt><trkpt lat="44.0816234" lon="12.0321984"><ele>138.0</ele><time>2026-04-25T09:11:00.508Z</time></trkpt><trkpt lat="44.0815717" lon="12.0321461"><ele>136.0</ele><time>2026-04-25T09:11:02.525Z</time></trkpt><trkpt lat="44.0815165" lon="12.0320591"><ele>136.0</ele><time>2026-04-25T09:11:04.526Z</time></trkpt><trkpt lat="44.0814351" lon="12.0319675"><ele>136.0</ele><time>2026-04-25T09:11:06.518Z</time></trkpt><trkpt lat="44.0813212" lon="12.0318902"><ele>136.0</ele><time>2026-04-25T09:11:08.517Z</time></trkpt><trkpt lat="44.0812559" lon="12.0318541"><ele>136.0</ele><time>2026-04-25T09:11:09.514Z</time></trkpt><trkpt lat="44.0811983" lon="12.0318177"><ele>136.0</ele><time>2026-04-25T09:11:10.511Z</time></trkpt><trkpt lat="44.0811144" lon="12.0317565"><ele>136.0</ele><time>2026-04-25T09:11:12.511Z</time></trkpt><trkpt lat="44.0810589" lon="12.0316979"><ele>136.0</ele><time>2026-04-25T09:11:14.514Z</time></trkpt><trkpt lat="44.081005" lon="12.031584"><ele>136.0</ele><time>2026-04-25T09:11:17.519Z</time></trkpt><trkpt lat="44.0809631" lon="12.0314463"><ele>136.0</ele><time>2026-04-25T09:11:19.523Z</time></trkpt><trkpt lat="44.0809197" lon="12.0313274"><ele>136.0</ele><time>2026-04-25T09:11:21.514Z</time></trkpt><trkpt lat="44.0808537" lon="12.0313116"><ele>136.0</ele><time>2026-04-25T09:11:25.522Z</time></trkpt><trkpt lat="44.080764" lon="12.0313138"><ele>136.2</ele><time>2026-04-25T09:11:27.508Z</time></trkpt><trkpt lat="44.080684" lon="12.0313182"><ele>136.39999999999998</ele><time>2026-04-25T09:11:29.515Z</time></trkpt><trkpt lat="44.0805922" lon="12.0312923"><ele>136.6</ele><time>2026-04-25T09:11:31.516Z</time></trkpt><trkpt lat="44.0805191" lon="12.0312227"><ele>136.79999999999998</ele><time>2026-04-25T09:11:33.509Z</time></trkpt><trkpt lat="44.0804365" lon="12.0311323"><ele>137.0</ele><time>2026-04-25T09:11:35.512Z</time></trkpt><trkpt lat="44.0803441" lon="12.0310578"><ele>137.0</ele><time>2026-04-25T09:11:37.51Z</time></trkpt><trkpt lat="44.0802836" lon="12.0310071"><ele>137.0</ele><time>2026-04-25T09:11:39.512Z</time></trkpt><trkpt lat="44.080213" lon="12.0309489"><ele>137.0</ele><time>2026-04-25T09:11:41.523Z</time></trkpt><trkpt lat="44.0801347" lon="12.0308729"><ele>137.0</ele><time>2026-04-25T09:11:43.511Z</time></trkpt><trkpt lat="44.0800432" lon="12.0307895"><ele>137.0</ele><time>2026-04-25T09:11:45.524Z</time></trkpt><trkpt lat="44.0799505" lon="12.0307004"><ele>136.83333333333331</ele><time>2026-04-25T09:11:47.522Z</time></trkpt><trkpt lat="44.0798689" lon="12.0306223"><ele>136.66666666666666</ele><time>2026-04-25T09:11:49.521Z</time></trkpt><trkpt lat="44.0797759" lon="12.0305334"><ele>136.5</ele><time>2026-04-25T09:11:51.52Z</time></trkpt><trkpt lat="44.0797139" lon="12.0304883"><ele>136.33333333333334</ele><time>2026-04-25T09:11:52.517Z</time></trkpt><trkpt lat="44.0796479" lon="12.0304452"><ele>136.16666666666669</ele><time>2026-04-25T09:11:53.508Z</time></trkpt><trkpt lat="44.0795896" lon="12.0304117"><ele>136.0</ele><time>2026-04-25T09:11:54.511Z</time></trkpt><trkpt lat="44.0794828" lon="12.030346"><ele>136.0</ele><time>2026-04-25T09:11:56.518Z</time></trkpt><trkpt lat="44.07939" lon="12.0302784"><ele>136.0</ele><time>2026-04-25T09:11:58.515Z</time></trkpt><trkpt lat="44.0793042" lon="12.0302079"><ele>136.0</ele><time>2026-04-25T09:12:00.508Z</time></trkpt><trkpt lat="44.0791943" lon="12.0301248"><ele>136.0</ele><time>2026-04-25T09:12:02.511Z</time></trkpt><trkpt lat="44.0790861" lon="12.0300462"><ele>136.5</ele><time>2026-04-25T09:12:04.507Z</time></trkpt><trkpt lat="44.0790228" lon="12.0299991"><ele>137.0</ele><time>2026-04-25T09:12:05.509Z</time></trkpt><trkpt lat="44.0789595" lon="12.0299435"><ele>137.5</ele><time>2026-04-25T09:12:06.507Z</time></trkpt><trkpt lat="44.0789072" lon="12.0298865"><ele>138.0</ele><time>2026-04-25T09:12:07.508Z</time></trkpt><trkpt lat="44.0788149" lon="12.0297887"><ele>138.5</ele><time>2026-04-25T09:12:09.515Z</time></trkpt><trkpt lat="44.0787322" lon="12.0297161"><ele>139.0</ele><time>2026-04-25T09:12:11.509Z</time></trkpt><trkpt lat="44.07868" lon="12.0296298"><ele>139.0</ele><time>2026-04-25T09:12:29.512Z</time></trkpt><trkpt lat="44.078622" lon="12.0295695"><ele>139.0</ele><time>2026-04-25T09:12:31.51Z</time></trkpt><trkpt lat="44.0785557" lon="12.0295059"><ele>139.0</ele><time>2026-04-25T09:12:33.516Z</time></trkpt><trkpt lat="44.0784947" lon="12.0294622"><ele>139.0</ele><time>2026-04-25T09:12:35.506Z</time></trkpt><trkpt lat="44.0784324" lon="12.0294056"><ele>139.0</ele><time>2026-04-25T09:12:38.511Z</time></trkpt><trkpt lat="44.07841" lon="12.0293199"><ele>139.0</ele><time>2026-04-25T09:12:40.537Z</time></trkpt><trkpt lat="44.0784128" lon="12.0292108"><ele>139.0</ele><time>2026-04-25T09:12:42.517Z</time></trkpt><trkpt lat="44.078432" lon="12.0290998"><ele>140.66666666666669</ele><time>2026-04-25T09:12:45.512Z</time></trkpt><trkpt lat="44.0784408" lon="12.0290016"><ele>142.33333333333334</ele><time>2026-04-25T09:12:47.522Z</time></trkpt><trkpt lat="44.0784493" lon="12.0288924"><ele>144.0</ele><time>2026-04-25T09:12:49.507Z</time></trkpt><trkpt lat="44.0784573" lon="12.0287671"><ele>145.66666666666666</ele><time>2026-04-25T09:12:51.514Z</time></trkpt><trkpt lat="44.0784649" lon="12.0286451"><ele>147.33333333333331</ele><time>2026-04-25T09:12:53.514Z</time></trkpt><trkpt lat="44.0784952" lon="12.0285338"><ele>149.0</ele><time>2026-04-25T09:12:55.515Z</time></trkpt><trkpt lat="44.0785356" lon="12.0284101"><ele>151.8</ele><time>2026-04-25T09:12:57.511Z</time></trkpt><trkpt lat="44.0785916" lon="12.0282905"><ele>154.60000000000002</ele><time>2026-04-25T09:12:59.507Z</time></trkpt><trkpt lat="44.078672" lon="12.0281927"><ele>157.4</ele><time>2026-04-25T09:13:01.512Z</time></trkpt><trkpt lat="44.0787544" lon="12.0280817"><ele>160.20000000000002</ele><time>2026-04-25T09:13:03.515Z</time></trkpt><trkpt lat="44.0788307" lon="12.0279848"><ele>163.0</ele><time>2026-04-25T09:13:05.509Z</time></trkpt><trkpt lat="44.0789138" lon="12.0278606"><ele>163.0</ele><time>2026-04-25T09:13:07.513Z</time></trkpt><trkpt lat="44.0789483" lon="12.0277858"><ele>163.0</ele><time>2026-04-25T09:13:08.522Z</time></trkpt><trkpt lat="44.0789802" lon="12.0277042"><ele>163.0</ele><time>2026-04-25T09:13:09.513Z</time></trkpt><trkpt lat="44.0790036" lon="12.0276182"><ele>163.0</ele><time>2026-04-25T09:13:10.532Z</time></trkpt><trkpt lat="44.0790401" lon="12.0274713"><ele>163.0</ele><time>2026-04-25T09:13:12.517Z</time></trkpt><trkpt lat="44.079049" lon="12.0273836"><ele>163.0</ele><time>2026-04-25T09:13:14.521Z</time></trkpt><trkpt lat="44.0790088" lon="12.027292"><ele>163.0</ele><time>2026-04-25T09:13:17.514Z</time></trkpt><trkpt lat="44.078956" lon="12.0271969"><ele>165.66666666666669</ele><time>2026-04-25T09:13:20.508Z</time></trkpt><trkpt lat="44.0789472" lon="12.0271048"><ele>168.33333333333334</ele><time>2026-04-25T09:13:26.522Z</time></trkpt><trkpt lat="44.0789422" lon="12.0270106"><ele>171.0</ele><time>2026-04-25T09:13:28.547Z</time></trkpt><trkpt lat="44.0789633" lon="12.0268969"><ele>173.66666666666666</ele><time>2026-04-25T09:13:30.504Z</time></trkpt><trkpt lat="44.0790265" lon="12.0267772"><ele>176.33333333333331</ele><time>2026-04-25T09:13:32.508Z</time></trkpt><trkpt lat="44.0791057" lon="12.0266454"><ele>179.0</ele><time>2026-04-25T09:13:34.514Z</time></trkpt><trkpt lat="44.0791583" lon="12.0265795"><ele>182.5</ele><time>2026-04-25T09:13:35.511Z</time></trkpt><trkpt lat="44.0792095" lon="12.0265178"><ele>186.0</ele><time>2026-04-25T09:13:36.511Z</time></trkpt><trkpt lat="44.0792623" lon="12.0264538"><ele>189.5</ele><time>2026-04-25T09:13:37.509Z</time></trkpt><trkpt lat="44.079313" lon="12.0263908"><ele>193.0</ele><time>2026-04-25T09:13:38.513Z</time></trkpt><trkpt lat="44.0793613" lon="12.0263325"><ele>196.50000000000003</ele><time>2026-04-25T09:13:39.516Z</time></trkpt><trkpt lat="44.0794504" lon="12.0262297"><ele>200.0</ele><time>2026-04-25T09:13:41.519Z</time></trkpt><trkpt lat="44.0795247" lon="12.0261411"><ele>200.00000000000003</ele><time>2026-04-25T09:13:43.506Z</time></trkpt><trkpt lat="44.0795685" lon="12.0260704"><ele>200.0</ele><time>2026-04-25T09:14:06.511Z</time></trkpt><trkpt lat="44.0796201" lon="12.0260032"><ele>200.0</ele><time>2026-04-25T09:14:21.522Z</time></trkpt><trkpt lat="44.0795769" lon="12.02608"><ele>200.0</ele><time>2026-04-25T09:16:50.521Z</time></trkpt><trkpt lat="44.0795703" lon="12.0261795"><ele>200.0</ele><time>2026-04-25T09:20:11.511Z</time></trkpt><trkpt lat="44.0795176" lon="12.0262854"><ele>200.00000000000003</ele><time>2026-04-25T09:20:14.517Z</time></trkpt><trkpt lat="44.0794842" lon="12.0263709"><ele>200.0</ele><time>2026-04-25T09:20:16.519Z</time></trkpt><trkpt lat="44.0794248" lon="12.0265063"><ele>200.00000000000003</ele><time>2026-04-25T09:20:18.525Z</time></trkpt><trkpt lat="44.0793882" lon="12.0265891"><ele>200.0</ele><time>2026-04-25T09:20:19.517Z</time></trkpt><trkpt lat="44.0793476" lon="12.0266844"><ele>200.0</ele><time>2026-04-25T09:20:20.512Z</time></trkpt><trkpt lat="44.0793099" lon="12.0267784"><ele>200.0</ele><time>2026-04-25T09:20:21.521Z</time></trkpt><trkpt lat="44.079272" lon="12.0268768"><ele>200.00000000000003</ele><time>2026-04-25T09:20:22.513Z</time></trkpt><trkpt lat="44.0792328" lon="12.0269721"><ele>200.0</ele><time>2026-04-25T09:20:23.522Z</time></trkpt><trkpt lat="44.079204" lon="12.0270564"><ele>198.00000000000003</ele><time>2026-04-25T09:20:24.526Z</time></trkpt><trkpt lat="44.0791499" lon="12.0271883"><ele>196.0</ele><time>2026-04-25T09:20:26.516Z</time></trkpt><trkpt lat="44.0791239" lon="12.0273048"><ele>194.0</ele><time>2026-04-25T09:20:28.519Z</time></trkpt><trkpt lat="44.0791029" lon="12.0273968"><ele>192.0</ele><time>2026-04-25T09:20:30.529Z</time></trkpt><trkpt lat="44.0790622" lon="12.0275014"><ele>190.0</ele><time>2026-04-25T09:20:33.517Z</time></trkpt><trkpt lat="44.0790203" lon="12.0276042"><ele>188.0</ele><time>2026-04-25T09:20:44.508Z</time></trkpt><trkpt lat="44.078965" lon="12.0277"><ele>183.0</ele><time>2026-04-25T09:20:46.512Z</time></trkpt><trkpt lat="44.0788988" lon="12.0278288"><ele>178.0</ele><time>2026-04-25T09:20:48.508Z</time></trkpt><trkpt lat="44.0788358" lon="12.0279436"><ele>173.0</ele><time>2026-04-25T09:20:50.516Z</time></trkpt><trkpt lat="44.0787722" lon="12.0280592"><ele>168.0</ele><time>2026-04-25T09:20:52.512Z</time></trkpt><trkpt lat="44.0787083" lon="12.028188"><ele>163.0</ele><time>2026-04-25T09:20:54.52Z</time></trkpt><trkpt lat="44.0786422" lon="12.0283276"><ele>160.20000000000002</ele><time>2026-04-25T09:20:56.509Z</time></trkpt><trkpt lat="44.0785765" lon="12.0284512"><ele>157.4</ele><time>2026-04-25T09:20:58.515Z</time></trkpt><trkpt lat="44.0785273" lon="12.0285645"><ele>154.60000000000002</ele><time>2026-04-25T09:21:00.513Z</time></trkpt><trkpt lat="44.0784867" lon="12.0286774"><ele>151.8</ele><time>2026-04-25T09:21:02.505Z</time></trkpt><trkpt lat="44.0784439" lon="12.0287749"><ele>149.0</ele><time>2026-04-25T09:21:04.516Z</time></trkpt><trkpt lat="44.0783972" lon="12.0288814"><ele>149.0</ele><time>2026-04-25T09:21:06.518Z</time></trkpt><trkpt lat="44.0783627" lon="12.0289925"><ele>149.0</ele><time>2026-04-25T09:21:08.516Z</time></trkpt><trkpt lat="44.0783325" lon="12.0290835"><ele>149.0</ele><time>2026-04-25T09:21:10.512Z</time></trkpt><trkpt lat="44.0783226" lon="12.0292112"><ele>149.0</ele><time>2026-04-25T09:21:13.509Z</time></trkpt><trkpt lat="44.0783597" lon="12.0293073"><ele>149.0</ele><time>2026-04-25T09:21:15.517Z</time></trkpt><trkpt lat="44.0784171" lon="12.0293965"><ele>149.0</ele><time>2026-04-25T09:21:17.517Z</time></trkpt><trkpt lat="44.0784901" lon="12.0294824"><ele>147.33333333333331</ele><time>2026-04-25T09:21:19.511Z</time></trkpt><trkpt lat="44.0785966" lon="12.0295238"><ele>145.66666666666666</ele><time>2026-04-25T09:21:21.513Z</time></trkpt><trkpt lat="44.0786575" lon="12.0295629"><ele>144.0</ele><time>2026-04-25T09:21:22.518Z</time></trkpt><trkpt lat="44.0787135" lon="12.0296139"><ele>142.33333333333334</ele><time>2026-04-25T09:21:23.505Z</time></trkpt><trkpt lat="44.0787771" lon="12.0296717"><ele>140.66666666666669</ele><time>2026-04-25T09:21:24.518Z</time></trkpt><trkpt lat="44.0788489" lon="12.0297358"><ele>139.0</ele><time>2026-04-25T09:21:25.514Z</time></trkpt><trkpt lat="44.0789125" lon="12.0297907"><ele>139.0</ele><time>2026-04-25T09:21:26.512Z</time></trkpt><trkpt lat="44.0789705" lon="12.0298388"><ele>139.0</ele><time>2026-04-25T09:21:27.528Z</time></trkpt><trkpt lat="44.0790251" lon="12.0298896"><ele>139.0</ele><time>2026-04-25T09:21:28.514Z</time></trkpt><trkpt lat="44.0791206" lon="12.0299896"><ele>139.0</ele><time>2026-04-25T09:21:30.52Z</time></trkpt><trkpt lat="44.0792113" lon="12.0300819"><ele>139.0</ele><time>2026-04-25T09:21:32.511Z</time></trkpt><trkpt lat="44.079268" lon="12.0301296"><ele>139.0</ele><time>2026-04-25T09:21:33.513Z</time></trkpt><trkpt lat="44.0793277" lon="12.0301802"><ele>138.5</ele><time>2026-04-25T09:21:34.515Z</time></trkpt><trkpt lat="44.079387" lon="12.0302321"><ele>138.0</ele><time>2026-04-25T09:21:35.51Z</time></trkpt><trkpt lat="44.0794556" lon="12.0302868"><ele>137.5</ele><time>2026-04-25T09:21:36.513Z</time></trkpt><trkpt lat="44.0795274" lon="12.0303426"><ele>137.0</ele><time>2026-04-25T09:21:37.517Z</time></trkpt><trkpt lat="44.0796066" lon="12.0304021"><ele>136.5</ele><time>2026-04-25T09:21:38.521Z</time></trkpt><trkpt lat="44.0796892" lon="12.0304642"><ele>136.0</ele><time>2026-04-25T09:21:39.516Z</time></trkpt><trkpt lat="44.0797721" lon="12.0305264"><ele>136.0</ele><time>2026-04-25T09:21:40.519Z</time></trkpt><trkpt lat="44.0798555" lon="12.0305744"><ele>136.0</ele><time>2026-04-25T09:21:41.512Z</time></trkpt><trkpt lat="44.0799401" lon="12.0306237"><ele>136.0</ele><time>2026-04-25T09:21:42.518Z</time></trkpt><trkpt lat="44.0800236" lon="12.0306857"><ele>136.0</ele><time>2026-04-25T09:21:43.504Z</time></trkpt><trkpt lat="44.0801008" lon="12.0307747"><ele>136.0</ele><time>2026-04-25T09:21:44.513Z</time></trkpt><trkpt lat="44.0801806" lon="12.0308532"><ele>136.16666666666669</ele><time>2026-04-25T09:21:45.507Z</time></trkpt><trkpt lat="44.0802515" lon="12.0309288"><ele>136.33333333333334</ele><time>2026-04-25T09:21:46.512Z</time></trkpt><trkpt lat="44.0803193" lon="12.0309978"><ele>136.5</ele><time>2026-04-25T09:21:47.514Z</time></trkpt><trkpt lat="44.0803772" lon="12.0310652"><ele>136.66666666666666</ele><time>2026-04-25T09:21:48.523Z</time></trkpt><trkpt lat="44.0804419" lon="12.0311312"><ele>136.83333333333331</ele><time>2026-04-25T09:21:49.52Z</time></trkpt><trkpt lat="44.0805135" lon="12.0312001"><ele>137.0</ele><time>2026-04-25T09:21:50.502Z</time></trkpt><trkpt lat="44.0805882" lon="12.0312768"><ele>137.0</ele><time>2026-04-25T09:21:51.511Z</time></trkpt><trkpt lat="44.0806616" lon="12.0313598"><ele>137.0</ele><time>2026-04-25T09:21:52.514Z</time></trkpt><trkpt lat="44.080729" lon="12.0314376"><ele>137.0</ele><time>2026-04-25T09:21:53.512Z</time></trkpt><trkpt lat="44.0807837" lon="12.0315104"><ele>137.0</ele><time>2026-04-25T09:21:54.517Z</time></trkpt><trkpt lat="44.08084" lon="12.0315672"><ele>137.0</ele><time>2026-04-25T09:21:55.506Z</time></trkpt><trkpt lat="44.0808984" lon="12.0316203"><ele>137.0</ele><time>2026-04-25T09:21:56.512Z</time></trkpt><trkpt lat="44.0809546" lon="12.0316663"><ele>136.83333333333331</ele><time>2026-04-25T09:21:57.517Z</time></trkpt><trkpt lat="44.0810633" lon="12.0317454"><ele>136.66666666666666</ele><time>2026-04-25T09:21:59.512Z</time></trkpt><trkpt lat="44.0811495" lon="12.0318073"><ele>136.5</ele><time>2026-04-25T09:22:01.505Z</time></trkpt><trkpt lat="44.0812293" lon="12.0318505"><ele>136.33333333333334</ele><time>2026-04-25T09:22:03.511Z</time></trkpt><trkpt lat="44.0812979" lon="12.0318896"><ele>136.16666666666669</ele><time>2026-04-25T09:22:05.521Z</time></trkpt><trkpt lat="44.0813589" lon="12.0319322"><ele>136.0</ele><time>2026-04-25T09:22:07.515Z</time></trkpt><trkpt lat="44.0814186" lon="12.0319771"><ele>136.0</ele><time>2026-04-25T09:22:09.51Z</time></trkpt><trkpt lat="44.0814751" lon="12.0320192"><ele>136.0</ele><time>2026-04-25T09:22:11.508Z</time></trkpt><trkpt lat="44.0815246" lon="12.0320811"><ele>136.0</ele><time>2026-04-25T09:22:13.513Z</time></trkpt><trkpt lat="44.0815867" lon="12.0321693"><ele>136.0</ele><time>2026-04-25T09:22:16.515Z</time></trkpt><trkpt lat="44.0816629" lon="12.0322005"><ele>136.0</ele><time>2026-04-25T09:22:19.51Z</time></trkpt><trkpt lat="44.0816827" lon="12.0320899"><ele>136.0</ele><time>2026-04-25T09:22:22.507Z</time></trkpt><trkpt lat="44.0816497" lon="12.0319594"><ele>136.0</ele><time>2026-04-25T09:22:24.511Z</time></trkpt><trkpt lat="44.0815699" lon="12.0318911"><ele>136.0</ele><time>2026-04-25T09:22:26.516Z</time></trkpt><trkpt lat="44.0814658" lon="12.0318233"><ele>136.0</ele><time>2026-04-25T09:22:28.519Z</time></trkpt><trkpt lat="44.0814079" lon="12.0317841"><ele>136.0</ele><time>2026-04-25T09:22:29.516Z</time></trkpt><trkpt lat="44.0813409" lon="12.0317459"><ele>136.0</ele><time>2026-04-25T09:22:30.511Z</time></trkpt><trkpt lat="44.0812808" lon="12.0317016"><ele>136.0</ele><time>2026-04-25T09:22:31.51Z</time></trkpt><trkpt lat="44.0811842" lon="12.0315783"><ele>138.0</ele><time>2026-04-25T09:22:33.518Z</time></trkpt><trkpt lat="44.0811441" lon="12.0314828"><ele>140.0</ele><time>2026-04-25T09:22:34.513Z</time></trkpt><trkpt lat="44.0811161" lon="12.0313857"><ele>142.0</ele><time>2026-04-25T09:22:35.512Z</time></trkpt><trkpt lat="44.0810938" lon="12.0312873"><ele>144.0</ele><time>2026-04-25T09:22:36.511Z</time></trkpt><trkpt lat="44.0810624" lon="12.0311849"><ele>146.0</ele><time>2026-04-25T09:22:37.514Z</time></trkpt><trkpt lat="44.0810332" lon="12.0310951"><ele>148.0</ele><time>2026-04-25T09:22:38.505Z</time></trkpt><trkpt lat="44.0809985" lon="12.0309617"><ele>148.0</ele><time>2026-04-25T09:22:40.514Z</time></trkpt><trkpt lat="44.0809805" lon="12.0308503"><ele>148.0</ele><time>2026-04-25T09:22:43.513Z</time></trkpt><trkpt lat="44.0809604" lon="12.0307558"><ele>148.0</ele><time>2026-04-25T09:22:45.51Z</time></trkpt><trkpt lat="44.0808806" lon="12.0306404"><ele>148.0</ele><time>2026-04-25T09:22:47.516Z</time></trkpt><trkpt lat="44.0808314" lon="12.0305782"><ele>148.0</ele><time>2026-04-25T09:22:48.513Z</time></trkpt><trkpt lat="44.0807937" lon="12.0304977"><ele>148.0</ele><time>2026-04-25T09:22:49.514Z</time></trkpt><trkpt lat="44.0807544" lon="12.0304159"><ele>147.83333333333334</ele><time>2026-04-25T09:22:50.5Z</time></trkpt><trkpt lat="44.0807247" lon="12.0303378"><ele>147.66666666666669</ele><time>2026-04-25T09:22:51.512Z</time></trkpt><trkpt lat="44.0806781" lon="12.0302074"><ele>147.5</ele><time>2026-04-25T09:22:53.495Z</time></trkpt><trkpt lat="44.0806521" lon="12.0301018"><ele>147.33333333333334</ele><time>2026-04-25T09:22:56.532Z</time></trkpt><trkpt lat="44.0805967" lon="12.0300412"><ele>147.16666666666666</ele><time>2026-04-25T09:23:00.517Z</time></trkpt><trkpt lat="44.0806124" lon="12.0301567"><ele>147.0</ele><time>2026-04-25T09:23:03.504Z</time></trkpt><trkpt lat="44.0806785" lon="12.0302533"><ele>147.0</ele><time>2026-04-25T09:23:05.507Z</time></trkpt><trkpt lat="44.0807329" lon="12.0303593"><ele>147.0</ele><time>2026-04-25T09:23:07.501Z</time></trkpt><trkpt lat="44.0807903" lon="12.0304715"><ele>147.0</ele><time>2026-04-25T09:23:09.522Z</time></trkpt><trkpt lat="44.0808574" lon="12.0305895"><ele>147.0</ele><time>2026-04-25T09:23:11.512Z</time></trkpt><trkpt lat="44.0809286" lon="12.0307203"><ele>147.0</ele><time>2026-04-25T09:23:13.511Z</time></trkpt><trkpt lat="44.0809645" lon="12.0307968"><ele>147.2</ele><time>2026-04-25T09:23:14.516Z</time></trkpt><trkpt lat="44.0809924" lon="12.030882"><ele>147.39999999999998</ele><time>2026-04-25T09:23:15.518Z</time></trkpt><trkpt lat="44.0810271" lon="12.0310336"><ele>147.60000000000002</ele><time>2026-04-25T09:23:17.518Z</time></trkpt><trkpt lat="44.081056" lon="12.0311711"><ele>147.8</ele><time>2026-04-25T09:23:19.519Z</time></trkpt><trkpt lat="44.0811003" lon="12.0312899"><ele>148.0</ele><time>2026-04-25T09:23:21.513Z</time></trkpt><trkpt lat="44.0811414" lon="12.0314154"><ele>148.0</ele><time>2026-04-25T09:23:23.509Z</time></trkpt><trkpt lat="44.0811893" lon="12.0315437"><ele>148.0</ele><time>2026-04-25T09:23:25.511Z</time></trkpt><trkpt lat="44.0812614" lon="12.0316473"><ele>148.0</ele><time>2026-04-25T09:23:27.519Z</time></trkpt><trkpt lat="44.0813652" lon="12.0317347"><ele>148.0</ele><time>2026-04-25T09:23:29.519Z</time></trkpt><trkpt lat="44.0814642" lon="12.0317953"><ele>148.0</ele><time>2026-04-25T09:23:31.515Z</time></trkpt><trkpt lat="44.0815591" lon="12.031856"><ele>145.5</ele><time>2026-04-25T09:23:33.514Z</time></trkpt><trkpt lat="44.0816387" lon="12.031941"><ele>143.0</ele><time>2026-04-25T09:23:35.515Z</time></trkpt><trkpt lat="44.0816812" lon="12.0320623"><ele>140.5</ele><time>2026-04-25T09:23:37.508Z</time></trkpt><trkpt lat="44.081676" lon="12.0321598"><ele>138.0</ele><time>2026-04-25T09:23:39.525Z</time></trkpt><trkpt lat="44.081633" lon="12.0322667"><ele>135.5</ele><time>2026-04-25T09:23:41.52Z</time></trkpt><trkpt lat="44.0816009" lon="12.0323826"><ele>133.0</ele><time>2026-04-25T09:23:43.516Z</time></trkpt><trkpt lat="44.0815671" lon="12.0324891"><ele>131.5</ele><time>2026-04-25T09:23:45.528Z</time></trkpt><trkpt lat="44.0815187" lon="12.0325938"><ele>130.0</ele><time>2026-04-25T09:23:47.521Z</time></trkpt><trkpt lat="44.0814727" lon="12.0327182"><ele>128.5</ele><time>2026-04-25T09:23:49.524Z</time></trkpt><trkpt lat="44.081418" lon="12.0328254"><ele>127.0</ele><time>2026-04-25T09:23:51.509Z</time></trkpt><trkpt lat="44.0813761" lon="12.032928"><ele>125.50000000000001</ele><time>2026-04-25T09:23:53.511Z</time></trkpt><trkpt lat="44.0813329" lon="12.0330167"><ele>124.0</ele><time>2026-04-25T09:23:55.52Z</time></trkpt><trkpt lat="44.0813057" lon="12.0331107"><ele>124.00000000000001</ele><time>2026-04-25T09:23:57.513Z</time></trkpt><trkpt lat="44.0812687" lon="12.0332029"><ele>124.0</ele><time>2026-04-25T09:24:00.532Z</time></trkpt><trkpt lat="44.0812247" lon="12.0332673"><ele>124.0</ele><time>2026-04-25T09:24:18.519Z</time></trkpt><trkpt lat="44.0811197" lon="12.0333438"><ele>124.0</ele><time>2026-04-25T09:24:20.526Z</time></trkpt><trkpt lat="44.0810456" lon="12.0333531"><ele>124.00000000000001</ele><time>2026-04-25T09:24:21.512Z</time></trkpt><trkpt lat="44.0809689" lon="12.0333238"><ele>124.0</ele><time>2026-04-25T09:24:22.521Z</time></trkpt><trkpt lat="44.0808955" lon="12.0332555"><ele>124.00000000000001</ele><time>2026-04-25T09:24:23.51Z</time></trkpt><trkpt lat="44.0808401" lon="12.0332059"><ele>124.0</ele><time>2026-04-25T09:24:24.517Z</time></trkpt><trkpt lat="44.0807763" lon="12.033175"><ele>124.0</ele><time>2026-04-25T09:24:25.512Z</time></trkpt><trkpt lat="44.0806678" lon="12.0332281"><ele>124.0</ele><time>2026-04-25T09:24:27.511Z</time></trkpt><trkpt lat="44.0806257" lon="12.0332997"><ele>124.00000000000001</ele><time>2026-04-25T09:24:28.516Z</time></trkpt><trkpt lat="44.0805815" lon="12.033403"><ele>124.0</ele><time>2026-04-25T09:24:29.513Z</time></trkpt><trkpt lat="44.0805357" lon="12.0335037"><ele>121.0</ele><time>2026-04-25T09:24:30.519Z</time></trkpt><trkpt lat="44.080487" lon="12.0336099"><ele>118.0</ele><time>2026-04-25T09:24:31.506Z</time></trkpt><trkpt lat="44.0804378" lon="12.0337207"><ele>115.0</ele><time>2026-04-25T09:24:32.516Z</time></trkpt><trkpt lat="44.0803888" lon="12.0338359"><ele>112.0</ele><time>2026-04-25T09:24:33.517Z</time></trkpt><trkpt lat="44.0803405" lon="12.0339459"><ele>109.0</ele><time>2026-04-25T09:24:34.512Z</time></trkpt><trkpt lat="44.0802875" lon="12.034063"><ele>108.66666666666667</ele><time>2026-04-25T09:24:35.514Z</time></trkpt><trkpt lat="44.0802361" lon="12.0341743"><ele>108.33333333333334</ele><time>2026-04-25T09:24:36.512Z</time></trkpt><trkpt lat="44.0801919" lon="12.0342781"><ele>108.0</ele><time>2026-04-25T09:24:37.514Z</time></trkpt><trkpt lat="44.0801427" lon="12.0343728"><ele>107.66666666666666</ele><time>2026-04-25T09:24:38.51Z</time></trkpt><trkpt lat="44.0800993" lon="12.0344676"><ele>107.33333333333333</ele><time>2026-04-25T09:24:39.519Z</time></trkpt><trkpt lat="44.0800638" lon="12.0345593"><ele>107.0</ele><time>2026-04-25T09:24:40.509Z</time></trkpt><trkpt lat="44.0800234" lon="12.0346435"><ele>106.99999999999999</ele><time>2026-04-25T09:24:41.512Z</time></trkpt><trkpt lat="44.0799845" lon="12.0347183"><ele>107.0</ele><time>2026-04-25T09:24:42.529Z</time></trkpt><trkpt lat="44.0799292" lon="12.0348476"><ele>107.0</ele><time>2026-04-25T09:24:44.508Z</time></trkpt><trkpt lat="44.0798823" lon="12.0349165"><ele>107.0</ele><time>2026-04-25T09:24:46.517Z</time></trkpt><trkpt lat="44.0798592" lon="12.0350547"><ele>106.99999999999999</ele><time>2026-04-25T09:24:49.517Z</time></trkpt><trkpt lat="44.0798887" lon="12.0351416"><ele>107.0</ele><time>2026-04-25T09:24:50.526Z</time></trkpt><trkpt lat="44.0799461" lon="12.0352009"><ele>106.8</ele><time>2026-04-25T09:24:51.516Z</time></trkpt><trkpt lat="44.0800203" lon="12.0352664"><ele>106.6</ele><time>2026-04-25T09:24:52.521Z</time></trkpt><trkpt lat="44.0801021" lon="12.0353482"><ele>106.39999999999999</ele><time>2026-04-25T09:24:53.521Z</time></trkpt><trkpt lat="44.0801865" lon="12.0354349"><ele>106.19999999999999</ele><time>2026-04-25T09:24:54.511Z</time></trkpt><trkpt lat="44.0802721" lon="12.0355287"><ele>106.0</ele><time>2026-04-25T09:24:55.512Z</time></trkpt><trkpt lat="44.0803616" lon="12.0356344"><ele>106.0</ele><time>2026-04-25T09:24:56.515Z</time></trkpt><trkpt lat="44.0804543" lon="12.0357375"><ele>106.0</ele><time>2026-04-25T09:24:57.512Z</time></trkpt><trkpt lat="44.0805469" lon="12.035843"><ele>106.0</ele><time>2026-04-25T09:24:58.504Z</time></trkpt><trkpt lat="44.0806398" lon="12.0359486"><ele>106.0</ele><time>2026-04-25T09:24:59.508Z</time></trkpt><trkpt lat="44.0807269" lon="12.0360496"><ele>104.75</ele><time>2026-04-25T09:25:00.501Z</time></trkpt><trkpt lat="44.0808143" lon="12.0361451"><ele>103.5</ele><time>2026-04-25T09:25:01.514Z</time></trkpt><trkpt lat="44.0808961" lon="12.0362419"><ele>102.25</ele><time>2026-04-25T09:25:02.511Z</time></trkpt><trkpt lat="44.0809868" lon="12.0363467"><ele>101.0</ele><time>2026-04-25T09:25:03.522Z</time></trkpt><trkpt lat="44.0810846" lon="12.03646"><ele>101.0</ele><time>2026-04-25T09:25:04.511Z</time></trkpt><trkpt lat="44.0811833" lon="12.0365755"><ele>101.0</ele><time>2026-04-25T09:25:05.511Z</time></trkpt><trkpt lat="44.0812887" lon="12.0366882"><ele>101.0</ele><time>2026-04-25T09:25:06.51Z</time></trkpt><trkpt lat="44.0813962" lon="12.0367991"><ele>101.0</ele><time>2026-04-25T09:25:07.519Z</time></trkpt><trkpt lat="44.0814991" lon="12.0369102"><ele>101.0</ele><time>2026-04-25T09:25:08.51Z</time></trkpt><trkpt lat="44.0815936" lon="12.0370123"><ele>101.0</ele><time>2026-04-25T09:25:09.524Z</time></trkpt><trkpt lat="44.0816856" lon="12.0371084"><ele>101.0</ele><time>2026-04-25T09:25:10.518Z</time></trkpt><trkpt lat="44.0817657" lon="12.0371997"><ele>101.0</ele><time>2026-04-25T09:25:11.505Z</time></trkpt><trkpt lat="44.0818346" lon="12.0372786"><ele>101.0</ele><time>2026-04-25T09:25:12.524Z</time></trkpt><trkpt lat="44.0818965" lon="12.0373385"><ele>101.42857142857143</ele><time>2026-04-25T09:25:13.502Z</time></trkpt><trkpt lat="44.0819492" lon="12.0374011"><ele>101.85714285714286</ele><time>2026-04-25T09:25:14.513Z</time></trkpt><trkpt lat="44.0820085" lon="12.0374466"><ele>102.28571428571428</ele><time>2026-04-25T09:25:15.518Z</time></trkpt><trkpt lat="44.082076" lon="12.037468"><ele>102.71428571428572</ele><time>2026-04-25T09:25:16.511Z</time></trkpt><trkpt lat="44.0821518" lon="12.0374504"><ele>103.14285714285715</ele><time>2026-04-25T09:25:17.51Z</time></trkpt><trkpt lat="44.0822223" lon="12.0374143"><ele>103.57142857142857</ele><time>2026-04-25T09:25:18.512Z</time></trkpt><trkpt lat="44.0822893" lon="12.0373405"><ele>104.0</ele><time>2026-04-25T09:25:19.509Z</time></trkpt><trkpt lat="44.0823581" lon="12.0372373"><ele>104.0</ele><time>2026-04-25T09:25:20.508Z</time></trkpt><trkpt lat="44.0824319" lon="12.0371158"><ele>104.0</ele><time>2026-04-25T09:25:21.52Z</time></trkpt><trkpt lat="44.0825173" lon="12.0369687"><ele>104.0</ele><time>2026-04-25T09:25:22.517Z</time></trkpt><trkpt lat="44.0826135" lon="12.0368014"><ele>104.0</ele><time>2026-04-25T09:25:23.517Z</time></trkpt><trkpt lat="44.0827112" lon="12.036621"><ele>105.66666666666666</ele><time>2026-04-25T09:25:24.516Z</time></trkpt><trkpt lat="44.0828097" lon="12.0364566"><ele>107.33333333333334</ele><time>2026-04-25T09:25:25.536Z</time></trkpt><trkpt lat="44.0828995" lon="12.036293"><ele>109.0</ele><time>2026-04-25T09:25:26.532Z</time></trkpt><trkpt lat="44.0829908" lon="12.036126"><ele>109.0</ele><time>2026-04-25T09:25:27.532Z</time></trkpt><trkpt lat="44.0830761" lon="12.0359645"><ele>109.0</ele><time>2026-04-25T09:25:28.509Z</time></trkpt><trkpt lat="44.083157" lon="12.0358238"><ele>109.0</ele><time>2026-04-25T09:25:29.532Z</time></trkpt><trkpt lat="44.0832274" lon="12.0357053"><ele>109.0</ele><time>2026-04-25T09:25:30.527Z</time></trkpt><trkpt lat="44.0832877" lon="12.035594"><ele>110.00000000000001</ele><time>2026-04-25T09:25:31.524Z</time></trkpt><trkpt lat="44.0833372" lon="12.0355139"><ele>111.0</ele><time>2026-04-25T09:25:32.519Z</time></trkpt><trkpt lat="44.083374" lon="12.0354416"><ele>112.0</ele><time>2026-04-25T09:25:33.526Z</time></trkpt><trkpt lat="44.083367" lon="12.0352813"><ele>113.0</ele><time>2026-04-25T09:25:35.52Z</time></trkpt><trkpt lat="44.0833392" lon="12.0351728"><ele>114.00000000000001</ele><time>2026-04-25T09:25:36.518Z</time></trkpt><trkpt lat="44.0832992" lon="12.0350468"><ele>115.0</ele><time>2026-04-25T09:25:37.526Z</time></trkpt><trkpt lat="44.0832626" lon="12.0349149"><ele>115.0</ele><time>2026-04-25T09:25:38.51Z</time></trkpt><trkpt lat="44.0832354" lon="12.0347827"><ele>115.0</ele><time>2026-04-25T09:25:39.517Z</time></trkpt><trkpt lat="44.0832169" lon="12.0346456"><ele>115.0</ele><time>2026-04-25T09:25:40.518Z</time></trkpt><trkpt lat="44.0831962" lon="12.0345036"><ele>115.0</ele><time>2026-04-25T09:25:41.503Z</time></trkpt><trkpt lat="44.0831757" lon="12.0343566"><ele>115.0</ele><time>2026-04-25T09:25:42.51Z</time></trkpt><trkpt lat="44.0831538" lon="12.0342151"><ele>114.83333333333334</ele><time>2026-04-25T09:25:43.503Z</time></trkpt><trkpt lat="44.0831377" lon="12.0341031"><ele>114.66666666666667</ele><time>2026-04-25T09:25:44.517Z</time></trkpt><trkpt lat="44.0831312" lon="12.0340062"><ele>114.5</ele><time>2026-04-25T09:25:45.505Z</time></trkpt><trkpt lat="44.0831665" lon="12.0338354"><ele>114.33333333333334</ele><time>2026-04-25T09:25:47.501Z</time></trkpt><trkpt lat="44.0832122" lon="12.0337523"><ele>114.16666666666667</ele><time>2026-04-25T09:25:48.504Z</time></trkpt><trkpt lat="44.0832733" lon="12.0336774"><ele>114.0</ele><time>2026-04-25T09:25:49.508Z</time></trkpt><trkpt lat="44.0833424" lon="12.0336201"><ele>117.0</ele><time>2026-04-25T09:25:50.503Z</time></trkpt><trkpt lat="44.083416" lon="12.0335753"><ele>120.0</ele><time>2026-04-25T09:25:51.505Z</time></trkpt><trkpt lat="44.0834896" lon="12.0335423"><ele>123.0</ele><time>2026-04-25T09:25:52.505Z</time></trkpt><trkpt lat="44.0835673" lon="12.0335262"><ele>126.0</ele><time>2026-04-25T09:25:53.508Z</time></trkpt><trkpt lat="44.08368" lon="12.03359"><ele>129.0</ele><time>2026-04-25T09:25:55.516Z</time></trkpt><trkpt lat="44.0837221" lon="12.0336755"><ele>132.0</ele><time>2026-04-25T09:25:56.521Z</time></trkpt><trkpt lat="44.0837577" lon="12.033782"><ele>132.0</ele><time>2026-04-25T09:25:57.519Z</time></trkpt><trkpt lat="44.0837924" lon="12.0338891"><ele>132.0</ele><time>2026-04-25T09:25:58.518Z</time></trkpt><trkpt lat="44.0838432" lon="12.0339661"><ele>132.0</ele><time>2026-04-25T09:25:59.51Z</time></trkpt><trkpt lat="44.0839092" lon="12.0340112"><ele>132.0</ele><time>2026-04-25T09:26:00.518Z</time></trkpt><trkpt lat="44.0839799" lon="12.0340347"><ele>132.0</ele><time>2026-04-25T09:26:01.504Z</time></trkpt><trkpt lat="44.0840625" lon="12.034051"><ele>132.0</ele><time>2026-04-25T09:26:02.512Z</time></trkpt><trkpt lat="44.0841614" lon="12.0340808"><ele>137.0</ele><time>2026-04-25T09:26:03.511Z</time></trkpt><trkpt lat="44.0842624" lon="12.0341274"><ele>142.0</ele><time>2026-04-25T09:26:04.512Z</time></trkpt><trkpt lat="44.0843668" lon="12.0341848"><ele>147.0</ele><time>2026-04-25T09:26:05.506Z</time></trkpt><trkpt lat="44.0844728" lon="12.0342468"><ele>152.0</ele><time>2026-04-25T09:26:06.507Z</time></trkpt><trkpt lat="44.0845836" lon="12.0343069"><ele>152.0</ele><time>2026-04-25T09:26:07.504Z</time></trkpt><trkpt lat="44.0846839" lon="12.0343619"><ele>152.0</ele><time>2026-04-25T09:26:08.507Z</time></trkpt><trkpt lat="44.0847727" lon="12.0344156"><ele>152.0</ele><time>2026-04-25T09:26:09.503Z</time></trkpt><trkpt lat="44.0848547" lon="12.0344672"><ele>152.0</ele><time>2026-04-25T09:26:10.506Z</time></trkpt><trkpt lat="44.084933" lon="12.0345173"><ele>152.0</ele><time>2026-04-25T09:26:11.51Z</time></trkpt><trkpt lat="44.085" lon="12.0345592"><ele>155.16666666666666</ele><time>2026-04-25T09:26:12.508Z</time></trkpt><trkpt lat="44.0850861" lon="12.0345787"><ele>158.33333333333331</ele><time>2026-04-25T09:26:14.51Z</time></trkpt><trkpt lat="44.0851465" lon="12.0345189"><ele>161.5</ele><time>2026-04-25T09:26:16.507Z</time></trkpt><trkpt lat="44.0851451" lon="12.0344221"><ele>164.66666666666666</ele><time>2026-04-25T09:26:18.521Z</time></trkpt><trkpt lat="44.0850722" lon="12.0343409"><ele>167.83333333333334</ele><time>2026-04-25T09:26:20.522Z</time></trkpt><trkpt lat="44.0849849" lon="12.034227"><ele>171.0</ele><time>2026-04-25T09:26:22.507Z</time></trkpt><trkpt lat="44.08494" lon="12.0341596"><ele>168.66666666666666</ele><time>2026-04-25T09:26:23.508Z</time></trkpt><trkpt lat="44.0848978" lon="12.034088"><ele>166.33333333333334</ele><time>2026-04-25T09:26:24.518Z</time></trkpt><trkpt lat="44.0848656" lon="12.0340124"><ele>164.0</ele><time>2026-04-25T09:26:25.511Z</time></trkpt><trkpt lat="44.084814" lon="12.0338668"><ele>161.66666666666669</ele><time>2026-04-25T09:26:27.51Z</time></trkpt><trkpt lat="44.0847665" lon="12.0337453"><ele>159.33333333333334</ele><time>2026-04-25T09:26:29.501Z</time></trkpt><trkpt lat="44.0847422" lon="12.03364"><ele>157.0</ele><time>2026-04-25T09:26:31.509Z</time></trkpt><trkpt lat="44.0847306" lon="12.0335359"><ele>157.0</ele><time>2026-04-25T09:26:33.51Z</time></trkpt><trkpt lat="44.0847179" lon="12.0334265"><ele>157.0</ele><time>2026-04-25T09:26:35.511Z</time></trkpt><trkpt lat="44.0847111" lon="12.0332942"><ele>157.0</ele><time>2026-04-25T09:26:37.507Z</time></trkpt><trkpt lat="44.0847284" lon="12.0331604"><ele>157.0</ele><time>2026-04-25T09:26:39.508Z</time></trkpt><trkpt lat="44.0847618" lon="12.0330109"><ele>157.0</ele><time>2026-04-25T09:26:41.505Z</time></trkpt><trkpt lat="44.0847819" lon="12.0329258"><ele>157.0</ele><time>2026-04-25T09:26:42.515Z</time></trkpt><trkpt lat="44.0848241" lon="12.03276"><ele>156.85714285714283</ele><time>2026-04-25T09:26:44.516Z</time></trkpt><trkpt lat="44.084852" lon="12.0326638"><ele>156.71428571428572</ele><time>2026-04-25T09:26:45.503Z</time></trkpt><trkpt lat="44.0848728" lon="12.0325677"><ele>156.57142857142856</ele><time>2026-04-25T09:26:46.517Z</time></trkpt><trkpt lat="44.084888" lon="12.0324624"><ele>156.42857142857142</ele><time>2026-04-25T09:26:47.507Z</time></trkpt><trkpt lat="44.0848986" lon="12.0323642"><ele>156.28571428571428</ele><time>2026-04-25T09:26:48.513Z</time></trkpt><trkpt lat="44.0849087" lon="12.0322634"><ele>156.14285714285714</ele><time>2026-04-25T09:26:49.501Z</time></trkpt><trkpt lat="44.084923" lon="12.032155"><ele>156.0</ele><time>2026-04-25T09:26:50.51Z</time></trkpt><trkpt lat="44.0849348" lon="12.0320525"><ele>160.0</ele><time>2026-04-25T09:26:51.505Z</time></trkpt><trkpt lat="44.084946" lon="12.0319506"><ele>164.0</ele><time>2026-04-25T09:26:52.515Z</time></trkpt><trkpt lat="44.0849582" lon="12.0318519"><ele>168.0</ele><time>2026-04-25T09:26:53.508Z</time></trkpt><trkpt lat="44.0849727" lon="12.0317537"><ele>172.0</ele><time>2026-04-25T09:26:54.521Z</time></trkpt><trkpt lat="44.0849867" lon="12.0316567"><ele>176.0</ele><time>2026-04-25T09:26:55.496Z</time></trkpt><trkpt lat="44.0850006" lon="12.031552"><ele>180.0</ele><time>2026-04-25T09:26:56.511Z</time></trkpt><trkpt lat="44.0850193" lon="12.0314437"><ele>184.0</ele><time>2026-04-25T09:26:57.511Z</time></trkpt><trkpt lat="44.0850341" lon="12.0313344"><ele>184.16666666666669</ele><time>2026-04-25T09:26:58.51Z</time></trkpt><trkpt lat="44.085051" lon="12.0312294"><ele>184.33333333333334</ele><time>2026-04-25T09:26:59.509Z</time></trkpt><trkpt lat="44.0850689" lon="12.0311362"><ele>184.5</ele><time>2026-04-25T09:27:00.509Z</time></trkpt><trkpt lat="44.0850903" lon="12.0309991"><ele>184.66666666666666</ele><time>2026-04-25T09:27:02.51Z</time></trkpt><trkpt lat="44.0851145" lon="12.0308917"><ele>184.83333333333331</ele><time>2026-04-25T09:27:05.511Z</time></trkpt><trkpt lat="44.0851444" lon="12.0307907"><ele>185.0</ele><time>2026-04-25T09:31:11.517Z</time></trkpt><trkpt lat="44.0851595" lon="12.0306813"><ele>184.66666666666666</ele><time>2026-04-25T09:31:13.502Z</time></trkpt><trkpt lat="44.0851834" lon="12.0305687"><ele>184.33333333333331</ele><time>2026-04-25T09:31:15.506Z</time></trkpt><trkpt lat="44.0852055" lon="12.0304761"><ele>184.0</ele><time>2026-04-25T09:31:17.503Z</time></trkpt><trkpt lat="44.0852223" lon="12.030377"><ele>183.66666666666666</ele><time>2026-04-25T09:31:19.508Z</time></trkpt><trkpt lat="44.0852397" lon="12.0302766"><ele>183.33333333333334</ele><time>2026-04-25T09:31:21.503Z</time></trkpt><trkpt lat="44.0852569" lon="12.0301699"><ele>183.0</ele><time>2026-04-25T09:31:23.51Z</time></trkpt><trkpt lat="44.0852874" lon="12.0300275"><ele>182.8</ele><time>2026-04-25T09:31:25.507Z</time></trkpt><trkpt lat="44.0853192" lon="12.0298489"><ele>182.60000000000002</ele><time>2026-04-25T09:31:27.514Z</time></trkpt><trkpt lat="44.0853411" lon="12.0297434"><ele>182.39999999999998</ele><time>2026-04-25T09:31:28.52Z</time></trkpt><trkpt lat="44.0853693" lon="12.0296236"><ele>182.2</ele><time>2026-04-25T09:31:29.501Z</time></trkpt><trkpt lat="44.0853984" lon="12.0294841"><ele>182.0</ele><time>2026-04-25T09:31:30.51Z</time></trkpt><trkpt lat="44.0854326" lon="12.0293244"><ele>182.0</ele><time>2026-04-25T09:31:31.515Z</time></trkpt><trkpt lat="44.0854724" lon="12.0291491"><ele>182.0</ele><time>2026-04-25T09:31:32.504Z</time></trkpt><trkpt lat="44.0855169" lon="12.0289488"><ele>182.0</ele><time>2026-04-25T09:31:33.506Z</time></trkpt><trkpt lat="44.0855613" lon="12.0287248"><ele>181.5</ele><time>2026-04-25T09:31:34.503Z</time></trkpt><trkpt lat="44.0856038" lon="12.0285058"><ele>181.0</ele><time>2026-04-25T09:31:35.508Z</time></trkpt><trkpt lat="44.0856361" lon="12.0283113"><ele>180.5</ele><time>2026-04-25T09:31:36.515Z</time></trkpt><trkpt lat="44.0856621" lon="12.028161"><ele>180.0</ele><time>2026-04-25T09:31:37.506Z</time></trkpt><trkpt lat="44.085692" lon="12.0280271"><ele>180.8</ele><time>2026-04-25T09:31:38.512Z</time></trkpt><trkpt lat="44.0857316" lon="12.0279019"><ele>181.6</ele><time>2026-04-25T09:31:39.502Z</time></trkpt><trkpt lat="44.0857791" lon="12.0277829"><ele>182.39999999999998</ele><time>2026-04-25T09:31:40.507Z</time></trkpt><trkpt lat="44.0858189" lon="12.0276613"><ele>183.2</ele><time>2026-04-25T09:31:41.518Z</time></trkpt><trkpt lat="44.0858462" lon="12.0275292"><ele>184.0</ele><time>2026-04-25T09:31:42.505Z</time></trkpt><trkpt lat="44.0858583" lon="12.0273737"><ele>191.0</ele><time>2026-04-25T09:31:43.515Z</time></trkpt><trkpt lat="44.0858566" lon="12.0272032"><ele>198.0</ele><time>2026-04-25T09:31:44.509Z</time></trkpt><trkpt lat="44.0858485" lon="12.0270221"><ele>205.0</ele><time>2026-04-25T09:31:45.501Z</time></trkpt><trkpt lat="44.0858423" lon="12.0268383"><ele>212.0</ele><time>2026-04-25T09:31:46.516Z</time></trkpt><trkpt lat="44.0858323" lon="12.0266429"><ele>213.75</ele><time>2026-04-25T09:31:47.516Z</time></trkpt><trkpt lat="44.085823" lon="12.0264509"><ele>215.5</ele><time>2026-04-25T09:31:48.507Z</time></trkpt><trkpt lat="44.0858167" lon="12.0262674"><ele>217.25</ele><time>2026-04-25T09:31:49.518Z</time></trkpt><trkpt lat="44.0858071" lon="12.0260801"><ele>219.0</ele><time>2026-04-25T09:31:50.51Z</time></trkpt><trkpt lat="44.0857939" lon="12.0258921"><ele>220.5</ele><time>2026-04-25T09:31:51.516Z</time></trkpt><trkpt lat="44.0857834" lon="12.0257073"><ele>222.0</ele><time>2026-04-25T09:31:52.519Z</time></trkpt><trkpt lat="44.085775" lon="12.0255215"><ele>223.5</ele><time>2026-04-25T09:31:53.521Z</time></trkpt><trkpt lat="44.0857627" lon="12.0253449"><ele>225.0</ele><time>2026-04-25T09:31:54.498Z</time></trkpt><trkpt lat="44.0857467" lon="12.0251701"><ele>224.16666666666666</ele><time>2026-04-25T09:31:55.52Z</time></trkpt><trkpt lat="44.0857363" lon="12.0250173"><ele>223.33333333333331</ele><time>2026-04-25T09:31:56.53Z</time></trkpt><trkpt lat="44.0857267" lon="12.0248906"><ele>222.5</ele><time>2026-04-25T09:31:57.515Z</time></trkpt><trkpt lat="44.085713" lon="12.0247732"><ele>221.66666666666666</ele><time>2026-04-25T09:31:58.508Z</time></trkpt><trkpt lat="44.0856875" lon="12.0246707"><ele>220.83333333333331</ele><time>2026-04-25T09:31:59.512Z</time></trkpt><trkpt lat="44.0856531" lon="12.0245767"><ele>220.0</ele><time>2026-04-25T09:32:00.509Z</time></trkpt><trkpt lat="44.0856289" lon="12.0244946"><ele>219.99999999999997</ele><time>2026-04-25T09:32:01.508Z</time></trkpt><trkpt lat="44.0855799" lon="12.0243692"><ele>220.0</ele><time>2026-04-25T09:32:03.519Z</time></trkpt><trkpt lat="44.0855342" lon="12.0242812"><ele>220.0</ele><time>2026-04-25T09:32:07.517Z</time></trkpt><trkpt lat="44.0854823" lon="12.0242177"><ele>220.0</ele><time>2026-04-25T09:32:09.519Z</time></trkpt><trkpt lat="44.0854335" lon="12.0241541"><ele>219.99999999999997</ele><time>2026-04-25T09:32:11.509Z</time></trkpt><trkpt lat="44.0853791" lon="12.0240772"><ele>220.0</ele><time>2026-04-25T09:32:14.504Z</time></trkpt><trkpt lat="44.0853314" lon="12.0240054"><ele>223.4</ele><time>2026-04-25T09:32:16.523Z</time></trkpt><trkpt lat="44.0852804" lon="12.0239186"><ele>226.8</ele><time>2026-04-25T09:32:31.51Z</time></trkpt><trkpt lat="44.0852374" lon="12.0237733"><ele>230.2</ele><time>2026-04-25T09:32:34.517Z</time></trkpt><trkpt lat="44.0852032" lon="12.0236332"><ele>233.6</ele><time>2026-04-25T09:32:36.513Z</time></trkpt><trkpt lat="44.0851742" lon="12.0235227"><ele>237.0</ele><time>2026-04-25T09:32:38.515Z</time></trkpt><trkpt lat="44.0851713" lon="12.023415"><ele>239.2</ele><time>2026-04-25T09:32:45.508Z</time></trkpt><trkpt lat="44.0851608" lon="12.0232791"><ele>241.39999999999998</ele><time>2026-04-25T09:32:47.512Z</time></trkpt><trkpt lat="44.0851395" lon="12.0231343"><ele>243.60000000000002</ele><time>2026-04-25T09:32:49.505Z</time></trkpt><trkpt lat="44.0851163" lon="12.0229991"><ele>245.8</ele><time>2026-04-25T09:32:51.511Z</time></trkpt><trkpt lat="44.085068" lon="12.0228726"><ele>248.0</ele><time>2026-04-25T09:32:53.521Z</time></trkpt><trkpt lat="44.0850024" lon="12.0227484"><ele>248.0</ele><time>2026-04-25T09:32:55.503Z</time></trkpt><trkpt lat="44.0849381" lon="12.0225992"><ele>248.0</ele><time>2026-04-25T09:32:57.511Z</time></trkpt><trkpt lat="44.0849411" lon="12.022453"><ele>248.0</ele><time>2026-04-25T09:32:59.51Z</time></trkpt><trkpt lat="44.0849776" lon="12.0223015"><ele>248.0</ele><time>2026-04-25T09:33:01.514Z</time></trkpt><trkpt lat="44.0849868" lon="12.0221608"><ele>248.0</ele><time>2026-04-25T09:33:03.504Z</time></trkpt><trkpt lat="44.0849438" lon="12.0220213"><ele>247.57142857142858</ele><time>2026-04-25T09:33:05.496Z</time></trkpt><trkpt lat="44.0849041" lon="12.0219451"><ele>247.14285714285717</ele><time>2026-04-25T09:33:06.519Z</time></trkpt><trkpt lat="44.0848599" lon="12.0218651"><ele>246.71428571428572</ele><time>2026-04-25T09:33:07.507Z</time></trkpt><trkpt lat="44.084814" lon="12.0217864"><ele>246.28571428571428</ele><time>2026-04-25T09:33:08.51Z</time></trkpt><trkpt lat="44.0847712" lon="12.0217019"><ele>245.85714285714286</ele><time>2026-04-25T09:33:09.523Z</time></trkpt><trkpt lat="44.0847323" lon="12.021613"><ele>245.42857142857144</ele><time>2026-04-25T09:33:10.516Z</time></trkpt><trkpt lat="44.0846976" lon="12.0215145"><ele>245.0</ele><time>2026-04-25T09:33:11.514Z</time></trkpt><trkpt lat="44.0846637" lon="12.0214153"><ele>247.50000000000003</ele><time>2026-04-25T09:33:12.505Z</time></trkpt><trkpt lat="44.0846365" lon="12.0213248"><ele>250.0</ele><time>2026-04-25T09:33:13.504Z</time></trkpt><trkpt lat="44.0846222" lon="12.021232"><ele>252.5</ele><time>2026-04-25T09:33:14.509Z</time></trkpt><trkpt lat="44.0846201" lon="12.0211379"><ele>255.0</ele><time>2026-04-25T09:33:15.504Z</time></trkpt><trkpt lat="44.0846347" lon="12.0210513"><ele>257.5</ele><time>2026-04-25T09:33:16.517Z</time></trkpt><trkpt lat="44.0846717" lon="12.0208887"><ele>260.0</ele><time>2026-04-25T09:33:18.504Z</time></trkpt><trkpt lat="44.0846975" lon="12.0207983"><ele>261.83333333333337</ele><time>2026-04-25T09:33:19.504Z</time></trkpt><trkpt lat="44.0847248" lon="12.020712"><ele>263.6666666666667</ele><time>2026-04-25T09:33:20.503Z</time></trkpt><trkpt lat="44.0847559" lon="12.0206277"><ele>265.5</ele><time>2026-04-25T09:33:21.501Z</time></trkpt><trkpt lat="44.08479" lon="12.0205035"><ele>267.3333333333333</ele><time>2026-04-25T09:33:23.503Z</time></trkpt><trkpt lat="44.0847937" lon="12.020378"><ele>269.16666666666663</ele><time>2026-04-25T09:35:48.51Z</time></trkpt><trkpt lat="44.0847965" lon="12.0202818"><ele>271.0</ele><time>2026-04-25T09:35:50.51Z</time></trkpt><trkpt lat="44.0848021" lon="12.0201705"><ele>271.0</ele><time>2026-04-25T09:35:52.506Z</time></trkpt><trkpt lat="44.0847998" lon="12.0200701"><ele>271.0</ele><time>2026-04-25T09:35:54.502Z</time></trkpt><trkpt lat="44.0848026" lon="12.0199336"><ele>271.0</ele><time>2026-04-25T09:35:56.517Z</time></trkpt><trkpt lat="44.0848049" lon="12.0198087"><ele>271.0</ele><time>2026-04-25T09:35:58.496Z</time></trkpt><trkpt lat="44.0848129" lon="12.0196757"><ele>271.0</ele><time>2026-04-25T09:36:00.517Z</time></trkpt><trkpt lat="44.0848225" lon="12.0195136"><ele>273.66666666666663</ele><time>2026-04-25T09:36:02.502Z</time></trkpt><trkpt lat="44.0848271" lon="12.0194248"><ele>276.3333333333333</ele><time>2026-04-25T09:36:03.508Z</time></trkpt><trkpt lat="44.0848323" lon="12.019324"><ele>279.0</ele><time>2026-04-25T09:36:04.507Z</time></trkpt><trkpt lat="44.0848373" lon="12.0192192"><ele>281.6666666666667</ele><time>2026-04-25T09:36:05.501Z</time></trkpt><trkpt lat="44.0848379" lon="12.0191297"><ele>284.33333333333337</ele><time>2026-04-25T09:36:06.501Z</time></trkpt><trkpt lat="44.0848128" lon="12.0189716"><ele>287.0</ele><time>2026-04-25T09:36:08.524Z</time></trkpt><trkpt lat="44.0847929" lon="12.0188706"><ele>291.4</ele><time>2026-04-25T09:36:09.51Z</time></trkpt><trkpt lat="44.084769" lon="12.0187592"><ele>295.79999999999995</ele><time>2026-04-25T09:36:10.513Z</time></trkpt><trkpt lat="44.084744" lon="12.0186457"><ele>300.2</ele><time>2026-04-25T09:36:11.503Z</time></trkpt><trkpt lat="44.0847175" lon="12.0185204"><ele>304.59999999999997</ele><time>2026-04-25T09:36:12.53Z</time></trkpt><trkpt lat="44.0846886" lon="12.0183811"><ele>309.0</ele><time>2026-04-25T09:36:13.505Z</time></trkpt><trkpt lat="44.0846678" lon="12.0182406"><ele>311.3333333333333</ele><time>2026-04-25T09:36:14.513Z</time></trkpt><trkpt lat="44.0846458" lon="12.0181132"><ele>313.6666666666667</ele><time>2026-04-25T09:36:15.506Z</time></trkpt><trkpt lat="44.0846235" lon="12.017994"><ele>316.0</ele><time>2026-04-25T09:36:16.519Z</time></trkpt><trkpt lat="44.0845985" lon="12.0178821"><ele>318.33333333333337</ele><time>2026-04-25T09:36:17.507Z</time></trkpt><trkpt lat="44.0845656" lon="12.0177719"><ele>320.6666666666667</ele><time>2026-04-25T09:36:18.523Z</time></trkpt><trkpt lat="44.084518" lon="12.0176612"><ele>323.0</ele><time>2026-04-25T09:36:19.5Z</time></trkpt><trkpt lat="44.0844592" lon="12.0175456"><ele>325.79999999999995</ele><time>2026-04-25T09:36:20.506Z</time></trkpt><trkpt lat="44.0843937" lon="12.0174302"><ele>328.6</ele><time>2026-04-25T09:36:21.511Z</time></trkpt><trkpt lat="44.0843218" lon="12.0173096"><ele>331.4</ele><time>2026-04-25T09:36:22.522Z</time></trkpt><trkpt lat="44.0842485" lon="12.0171947"><ele>334.20000000000005</ele><time>2026-04-25T09:36:23.504Z</time></trkpt><trkpt lat="44.0841841" lon="12.0170849"><ele>337.0</ele><time>2026-04-25T09:36:24.513Z</time></trkpt><trkpt lat="44.0841264" lon="12.0169729"><ele>336.16666666666663</ele><time>2026-04-25T09:36:25.507Z</time></trkpt><trkpt lat="44.0840857" lon="12.0168635"><ele>335.3333333333333</ele><time>2026-04-25T09:36:26.513Z</time></trkpt><trkpt lat="44.0840547" lon="12.0167423"><ele>334.5</ele><time>2026-04-25T09:36:27.498Z</time></trkpt><trkpt lat="44.0840345" lon="12.0166273"><ele>333.6666666666667</ele><time>2026-04-25T09:36:28.513Z</time></trkpt><trkpt lat="44.0840335" lon="12.0165117"><ele>332.83333333333337</ele><time>2026-04-25T09:36:29.504Z</time></trkpt><trkpt lat="44.0840432" lon="12.0164099"><ele>332.0</ele><time>2026-04-25T09:36:30.498Z</time></trkpt><trkpt lat="44.0840602" lon="12.0163072"><ele>332.0</ele><time>2026-04-25T09:36:31.504Z</time></trkpt><trkpt lat="44.0840891" lon="12.0161982"><ele>332.0</ele><time>2026-04-25T09:36:32.507Z</time></trkpt><trkpt lat="44.0841194" lon="12.0160977"><ele>332.0</ele><time>2026-04-25T09:36:33.502Z</time></trkpt><trkpt lat="44.0841524" lon="12.0159885"><ele>332.0</ele><time>2026-04-25T09:36:34.5Z</time></trkpt><trkpt lat="44.0841856" lon="12.0158796"><ele>332.0</ele><time>2026-04-25T09:36:35.505Z</time></trkpt><trkpt lat="44.0842209" lon="12.0157739"><ele>332.0</ele><time>2026-04-25T09:36:36.503Z</time></trkpt><trkpt lat="44.0842604" lon="12.0156695"><ele>338.1666666666667</ele><time>2026-04-25T09:36:37.504Z</time></trkpt><trkpt lat="44.0843088" lon="12.0155992"><ele>344.33333333333337</ele><time>2026-04-25T09:36:38.513Z</time></trkpt><trkpt lat="44.0844013" lon="12.0155497"><ele>350.5</ele><time>2026-04-25T09:36:40.519Z</time></trkpt><trkpt lat="44.0844622" lon="12.0154948"><ele>356.6666666666667</ele><time>2026-04-25T09:36:42.506Z</time></trkpt><trkpt lat="44.0844466" lon="12.0154035"><ele>362.8333333333333</ele><time>2026-04-25T09:36:46.515Z</time></trkpt><trkpt lat="44.0843668" lon="12.0153719"><ele>369.0</ele><time>2026-04-25T09:36:48.514Z</time></trkpt><trkpt lat="44.0842972" lon="12.0153119"><ele>369.0</ele><time>2026-04-25T09:36:51.511Z</time></trkpt><trkpt lat="44.0842352" lon="12.0151744"><ele>369.0</ele><time>2026-04-25T09:37:04.505Z</time></trkpt><trkpt lat="44.084199" lon="12.0150886"><ele>369.0</ele><time>2026-04-25T09:37:05.504Z</time></trkpt><trkpt lat="44.0841633" lon="12.0149325"><ele>369.0</ele><time>2026-04-25T09:37:07.501Z</time></trkpt><trkpt lat="44.0841552" lon="12.014845"><ele>369.0</ele><time>2026-04-25T09:37:08.505Z</time></trkpt><trkpt lat="44.0840925" lon="12.0147011"><ele>369.0</ele><time>2026-04-25T09:37:10.506Z</time></trkpt><trkpt lat="44.0840453" lon="12.0146219"><ele>369.0</ele><time>2026-04-25T09:37:11.501Z</time></trkpt><trkpt lat="44.0840001" lon="12.0145369"><ele>369.0</ele><time>2026-04-25T09:37:12.504Z</time></trkpt><trkpt lat="44.0839513" lon="12.01446"><ele>369.0</ele><time>2026-04-25T09:37:13.505Z</time></trkpt><trkpt lat="44.0838962" lon="12.0143822"><ele>369.0</ele><time>2026-04-25T09:37:14.521Z</time></trkpt><trkpt lat="44.0838446" lon="12.0143016"><ele>369.0</ele><time>2026-04-25T09:37:15.495Z</time></trkpt><trkpt lat="44.0838031" lon="12.0142077"><ele>369.5</ele><time>2026-04-25T09:37:16.503Z</time></trkpt><trkpt lat="44.0837637" lon="12.0141207"><ele>370.0</ele><time>2026-04-25T09:37:17.499Z</time></trkpt><trkpt lat="44.0837389" lon="12.0140292"><ele>370.5</ele><time>2026-04-25T09:37:18.505Z</time></trkpt><trkpt lat="44.0837327" lon="12.0139281"><ele>371.0</ele><time>2026-04-25T09:37:19.505Z</time></trkpt><trkpt lat="44.0837492" lon="12.0138247"><ele>371.5</ele><time>2026-04-25T09:37:20.512Z</time></trkpt><trkpt lat="44.0837813" lon="12.0137087"><ele>372.0</ele><time>2026-04-25T09:37:21.507Z</time></trkpt><trkpt lat="44.0838137" lon="12.013577"><ele>372.0</ele><time>2026-04-25T09:37:22.511Z</time></trkpt><trkpt lat="44.0838474" lon="12.0134311"><ele>372.0</ele><time>2026-04-25T09:37:23.498Z</time></trkpt><trkpt lat="44.0838661" lon="12.0132869"><ele>372.0</ele><time>2026-04-25T09:37:24.507Z</time></trkpt><trkpt lat="44.083883" lon="12.013159"><ele>372.0</ele><time>2026-04-25T09:37:25.502Z</time></trkpt><trkpt lat="44.0838968" lon="12.0130222"><ele>372.0</ele><time>2026-04-25T09:37:26.51Z</time></trkpt><trkpt lat="44.0839056" lon="12.0129181"><ele>372.20000000000005</ele><time>2026-04-25T09:37:27.503Z</time></trkpt><trkpt lat="44.0839092" lon="12.0128044"><ele>372.4</ele><time>2026-04-25T09:37:29.513Z</time></trkpt><trkpt lat="44.0839144" lon="12.012698"><ele>372.6</ele><time>2026-04-25T09:37:31.509Z</time></trkpt><trkpt lat="44.0838895" lon="12.0125726"><ele>372.79999999999995</ele><time>2026-04-25T09:37:33.514Z</time></trkpt><trkpt lat="44.0838358" lon="12.0124048"><ele>373.0</ele><time>2026-04-25T09:37:35.511Z</time></trkpt><trkpt lat="44.0838291" lon="12.0122585"><ele>374.4</ele><time>2026-04-25T09:37:37.506Z</time></trkpt><trkpt lat="44.0838452" lon="12.0121721"><ele>375.79999999999995</ele><time>2026-04-25T09:37:39.505Z</time></trkpt><trkpt lat="44.0838455" lon="12.0120479"><ele>377.2</ele><time>2026-04-25T09:44:12.51Z</time></trkpt><trkpt lat="44.083841" lon="12.0119133"><ele>378.6</ele><time>2026-04-25T09:44:14.512Z</time></trkpt><trkpt lat="44.0838199" lon="12.0117192"><ele>380.0</ele><time>2026-04-25T09:44:16.5Z</time></trkpt><trkpt lat="44.0837928" lon="12.0115946"><ele>381.8</ele><time>2026-04-25T09:44:17.501Z</time></trkpt><trkpt lat="44.0837549" lon="12.011456"><ele>383.6</ele><time>2026-04-25T09:44:18.505Z</time></trkpt><trkpt lat="44.0837214" lon="12.011314"><ele>385.4</ele><time>2026-04-25T09:44:19.502Z</time></trkpt><trkpt lat="44.083696" lon="12.0111846"><ele>387.2</ele><time>2026-04-25T09:44:20.505Z</time></trkpt><trkpt lat="44.0836724" lon="12.01106"><ele>389.0</ele><time>2026-04-25T09:44:21.499Z</time></trkpt><trkpt lat="44.0836472" lon="12.0109375"><ele>389.0</ele><time>2026-04-25T09:44:22.506Z</time></trkpt><trkpt lat="44.0836316" lon="12.0108364"><ele>389.0</ele><time>2026-04-25T09:44:23.499Z</time></trkpt><trkpt lat="44.0836579" lon="12.0106551"><ele>389.0</ele><time>2026-04-25T09:44:25.515Z</time></trkpt><trkpt lat="44.0837018" lon="12.0105553"><ele>389.0</ele><time>2026-04-25T09:44:26.508Z</time></trkpt><trkpt lat="44.0837648" lon="12.0104296"><ele>389.0</ele><time>2026-04-25T09:44:27.501Z</time></trkpt><trkpt lat="44.0838281" lon="12.0102996"><ele>387.5</ele><time>2026-04-25T09:44:28.518Z</time></trkpt><trkpt lat="44.0838745" lon="12.0101584"><ele>386.0</ele><time>2026-04-25T09:44:29.505Z</time></trkpt><trkpt lat="44.083905" lon="12.0099952"><ele>384.5</ele><time>2026-04-25T09:44:30.51Z</time></trkpt><trkpt lat="44.0839293" lon="12.0098012"><ele>383.0</ele><time>2026-04-25T09:44:31.505Z</time></trkpt><trkpt lat="44.0839483" lon="12.0096021"><ele>381.4</ele><time>2026-04-25T09:44:32.496Z</time></trkpt><trkpt lat="44.0839649" lon="12.0094366"><ele>379.79999999999995</ele><time>2026-04-25T09:44:33.502Z</time></trkpt><trkpt lat="44.083986" lon="12.0093055"><ele>378.2</ele><time>2026-04-25T09:44:34.502Z</time></trkpt><trkpt lat="44.0840116" lon="12.0092149"><ele>376.6</ele><time>2026-04-25T09:44:35.498Z</time></trkpt><trkpt lat="44.0840411" lon="12.0091185"><ele>375.0</ele><time>2026-04-25T09:44:36.507Z</time></trkpt><trkpt lat="44.0840995" lon="12.0090079"><ele>378.8333333333333</ele><time>2026-04-25T09:44:37.513Z</time></trkpt><trkpt lat="44.0841609" lon="12.008882"><ele>382.66666666666663</ele><time>2026-04-25T09:44:38.505Z</time></trkpt><trkpt lat="44.0842111" lon="12.008765"><ele>386.5</ele><time>2026-04-25T09:44:39.501Z</time></trkpt><trkpt lat="44.0842418" lon="12.0086452"><ele>390.3333333333333</ele><time>2026-04-25T09:44:40.507Z</time></trkpt><trkpt lat="44.0842586" lon="12.008552"><ele>394.16666666666663</ele><time>2026-04-25T09:44:41.502Z</time></trkpt><trkpt lat="44.0842783" lon="12.0084604"><ele>398.0</ele><time>2026-04-25T09:44:42.498Z</time></trkpt><trkpt lat="44.0843062" lon="12.0083549"><ele>398.66666666666663</ele><time>2026-04-25T09:44:43.5Z</time></trkpt><trkpt lat="44.0843347" lon="12.0082482"><ele>399.3333333333333</ele><time>2026-04-25T09:44:44.505Z</time></trkpt><trkpt lat="44.0843544" lon="12.0081566"><ele>400.0</ele><time>2026-04-25T09:44:45.502Z</time></trkpt><trkpt lat="44.0843666" lon="12.0080322"><ele>400.66666666666663</ele><time>2026-04-25T09:44:47.501Z</time></trkpt><trkpt lat="44.0844079" lon="12.0079479"><ele>401.3333333333333</ele><time>2026-04-25T09:44:49.506Z</time></trkpt><trkpt lat="44.084498" lon="12.0078682"><ele>402.0</ele><time>2026-04-25T09:44:51.495Z</time></trkpt><trkpt lat="44.0845807" lon="12.0077922"><ele>402.0</ele><time>2026-04-25T09:44:53.505Z</time></trkpt><trkpt lat="44.084568" lon="12.0076642"><ele>402.0</ele><time>2026-04-25T09:44:55.502Z</time></trkpt><trkpt lat="44.0845371" lon="12.0075573"><ele>402.0</ele><time>2026-04-25T09:44:56.51Z</time></trkpt><trkpt lat="44.0844919" lon="12.0074666"><ele>402.0</ele><time>2026-04-25T09:44:57.499Z</time></trkpt><trkpt lat="44.0844485" lon="12.0073281"><ele>402.0</ele><time>2026-04-25T09:44:59.504Z</time></trkpt><trkpt lat="44.0844793" lon="12.0071711"><ele>401.1666666666667</ele><time>2026-04-25T09:45:01.522Z</time></trkpt><trkpt lat="44.0845434" lon="12.0070262"><ele>400.33333333333337</ele><time>2026-04-25T09:45:03.509Z</time></trkpt><trkpt lat="44.0845819" lon="12.0069452"><ele>399.5</ele><time>2026-04-25T09:45:04.52Z</time></trkpt><trkpt lat="44.0846334" lon="12.0068678"><ele>398.6666666666667</ele><time>2026-04-25T09:45:05.506Z</time></trkpt><trkpt lat="44.0846815" lon="12.0067898"><ele>397.83333333333337</ele><time>2026-04-25T09:45:06.513Z</time></trkpt><trkpt lat="44.0847188" lon="12.0067037"><ele>397.0</ele><time>2026-04-25T09:45:07.498Z</time></trkpt><trkpt lat="44.0847519" lon="12.0066202"><ele>398.83333333333337</ele><time>2026-04-25T09:45:08.514Z</time></trkpt><trkpt lat="44.0847867" lon="12.0065345"><ele>400.6666666666667</ele><time>2026-04-25T09:45:09.507Z</time></trkpt><trkpt lat="44.084823" lon="12.0064546"><ele>402.5</ele><time>2026-04-25T09:45:10.523Z</time></trkpt><trkpt lat="44.0848918" lon="12.0063107"><ele>404.33333333333337</ele><time>2026-04-25T09:45:12.507Z</time></trkpt><trkpt lat="44.084932" lon="12.00624"><ele>406.1666666666667</ele><time>2026-04-25T09:45:13.505Z</time></trkpt><trkpt lat="44.0849809" lon="12.0061524"><ele>408.0</ele><time>2026-04-25T09:45:14.501Z</time></trkpt><trkpt lat="44.0850327" lon="12.0060572"><ele>408.0</ele><time>2026-04-25T09:45:15.525Z</time></trkpt><trkpt lat="44.0850764" lon="12.0059622"><ele>408.0</ele><time>2026-04-25T09:45:16.539Z</time></trkpt><trkpt lat="44.0851161" lon="12.0058606"><ele>408.0</ele><time>2026-04-25T09:45:17.523Z</time></trkpt><trkpt lat="44.0851351" lon="12.0057375"><ele>408.0</ele><time>2026-04-25T09:45:18.524Z</time></trkpt><trkpt lat="44.0851471" lon="12.0056"><ele>408.0</ele><time>2026-04-25T09:45:19.506Z</time></trkpt><trkpt lat="44.0851538" lon="12.0054717"><ele>408.0</ele><time>2026-04-25T09:45:20.511Z</time></trkpt><trkpt lat="44.0851625" lon="12.0053217"><ele>406.4</ele><time>2026-04-25T09:45:22.513Z</time></trkpt><trkpt lat="44.0851906" lon="12.0051864"><ele>404.79999999999995</ele><time>2026-04-25T09:45:24.514Z</time></trkpt><trkpt lat="44.0852735" lon="12.0050499"><ele>403.2</ele><time>2026-04-25T09:45:26.508Z</time></trkpt><trkpt lat="44.0853241" lon="12.0049831"><ele>401.6</ele><time>2026-04-25T09:45:27.514Z</time></trkpt><trkpt lat="44.0853781" lon="12.004925"><ele>400.0</ele><time>2026-04-25T09:45:28.509Z</time></trkpt><trkpt lat="44.0854487" lon="12.0048413"><ele>398.00000000000006</ele><time>2026-04-25T09:45:30.51Z</time></trkpt><trkpt lat="44.085486" lon="12.0047444"><ele>396.0</ele><time>2026-04-25T09:45:32.525Z</time></trkpt><trkpt lat="44.0854644" lon="12.0046026"><ele>394.0</ele><time>2026-04-25T09:45:34.502Z</time></trkpt><trkpt lat="44.0854327" lon="12.0045151"><ele>392.0</ele><time>2026-04-25T09:45:35.497Z</time></trkpt><trkpt lat="44.0854303" lon="12.0044132"><ele>390.00000000000006</ele><time>2026-04-25T09:45:36.517Z</time></trkpt><trkpt lat="44.0854418" lon="12.0043076"><ele>388.0</ele><time>2026-04-25T09:45:37.496Z</time></trkpt><trkpt lat="44.0854516" lon="12.0041777"><ele>387.0</ele><time>2026-04-25T09:45:38.5Z</time></trkpt><trkpt lat="44.085451" lon="12.0040332"><ele>386.0</ele><time>2026-04-25T09:45:39.495Z</time></trkpt><trkpt lat="44.0854487" lon="12.0038769"><ele>385.0</ele><time>2026-04-25T09:45:40.505Z</time></trkpt><trkpt lat="44.0854433" lon="12.0037535"><ele>384.0</ele><time>2026-04-25T09:45:41.497Z</time></trkpt><trkpt lat="44.0854344" lon="12.0036504"><ele>383.0</ele><time>2026-04-25T09:45:42.496Z</time></trkpt><trkpt lat="44.0854146" lon="12.0035339"><ele>383.0</ele><time>2026-04-25T09:45:43.499Z</time></trkpt><trkpt lat="44.085392" lon="12.0034158"><ele>383.0</ele><time>2026-04-25T09:45:44.497Z</time></trkpt><trkpt lat="44.0853713" lon="12.0033002"><ele>383.0</ele><time>2026-04-25T09:45:45.486Z</time></trkpt><trkpt lat="44.0853618" lon="12.0031904"><ele>383.0</ele><time>2026-04-25T09:45:46.502Z</time></trkpt><trkpt lat="44.0853668" lon="12.0030917"><ele>383.0</ele><time>2026-04-25T09:45:47.504Z</time></trkpt><trkpt lat="44.085394" lon="12.0029892"><ele>383.0</ele><time>2026-04-25T09:45:48.505Z</time></trkpt><trkpt lat="44.0854338" lon="12.0028714"><ele>382.59999999999997</ele><time>2026-04-25T09:45:49.494Z</time></trkpt><trkpt lat="44.0854655" lon="12.0027586"><ele>382.2</ele><time>2026-04-25T09:45:50.501Z</time></trkpt><trkpt lat="44.0854777" lon="12.0026375"><ele>381.8</ele><time>2026-04-25T09:45:51.494Z</time></trkpt><trkpt lat="44.0854816" lon="12.0024906"><ele>381.4</ele><time>2026-04-25T09:45:52.5Z</time></trkpt><trkpt lat="44.0854923" lon="12.0023416"><ele>381.0</ele><time>2026-04-25T09:45:53.499Z</time></trkpt><trkpt lat="44.0855013" lon="12.0022004"><ele>382.4</ele><time>2026-04-25T09:45:54.496Z</time></trkpt><trkpt lat="44.085498" lon="12.0020645"><ele>383.8</ele><time>2026-04-25T09:45:55.49Z</time></trkpt><trkpt lat="44.0854903" lon="12.0019293"><ele>385.2</ele><time>2026-04-25T09:45:56.505Z</time></trkpt><trkpt lat="44.0854718" lon="12.0018005"><ele>386.59999999999997</ele><time>2026-04-25T09:45:57.492Z</time></trkpt><trkpt lat="44.0854301" lon="12.0016633"><ele>388.0</ele><time>2026-04-25T09:45:58.503Z</time></trkpt><trkpt lat="44.0853845" lon="12.0015195"><ele>389.79999999999995</ele><time>2026-04-25T09:45:59.501Z</time></trkpt><trkpt lat="44.0853436" lon="12.0013805"><ele>391.6</ele><time>2026-04-25T09:46:00.5Z</time></trkpt><trkpt lat="44.0853143" lon="12.0012442"><ele>393.4</ele><time>2026-04-25T09:46:01.493Z</time></trkpt><trkpt lat="44.0852873" lon="12.001128"><ele>395.20000000000005</ele><time>2026-04-25T09:46:02.495Z</time></trkpt><trkpt lat="44.0852679" lon="12.0010378"><ele>397.0</ele><time>2026-04-25T09:46:03.487Z</time></trkpt><trkpt lat="44.0852458" lon="12.0009166"><ele>398.20000000000005</ele><time>2026-04-25T09:46:05.494Z</time></trkpt><trkpt lat="44.0852336" lon="12.0007551"><ele>399.4</ele><time>2026-04-25T09:46:07.497Z</time></trkpt><trkpt lat="44.085218" lon="12.0006384"><ele>400.6</ele><time>2026-04-25T09:46:08.513Z</time></trkpt><trkpt lat="44.085202" lon="12.0005141"><ele>401.79999999999995</ele><time>2026-04-25T09:46:09.499Z</time></trkpt><trkpt lat="44.0851931" lon="12.0003896"><ele>403.0</ele><time>2026-04-25T09:46:10.502Z</time></trkpt><trkpt lat="44.0851842" lon="12.0002711"><ele>403.0</ele><time>2026-04-25T09:46:11.51Z</time></trkpt><trkpt lat="44.0851858" lon="12.0001434"><ele>403.0</ele><time>2026-04-25T09:46:12.506Z</time></trkpt><trkpt lat="44.0851937" lon="12.0000094"><ele>403.0</ele><time>2026-04-25T09:46:13.492Z</time></trkpt><trkpt lat="44.0851927" lon="11.9998671"><ele>403.0</ele><time>2026-04-25T09:46:14.494Z</time></trkpt><trkpt lat="44.0851785" lon="11.9997307"><ele>403.0</ele><time>2026-04-25T09:46:15.519Z</time></trkpt><trkpt lat="44.0851681" lon="11.999609"><ele>403.00000000000006</ele><time>2026-04-25T09:46:16.516Z</time></trkpt><trkpt lat="44.0851615" lon="11.9994996"><ele>403.0</ele><time>2026-04-25T09:46:17.505Z</time></trkpt><trkpt lat="44.0851519" lon="11.9993836"><ele>403.0</ele><time>2026-04-25T09:46:18.499Z</time></trkpt><trkpt lat="44.085134" lon="11.9992805"><ele>403.0</ele><time>2026-04-25T09:46:19.511Z</time></trkpt><trkpt lat="44.0850885" lon="11.9991867"><ele>403.00000000000006</ele><time>2026-04-25T09:46:20.511Z</time></trkpt><trkpt lat="44.0850351" lon="11.999094"><ele>403.0</ele><time>2026-04-25T09:46:21.508Z</time></trkpt><trkpt lat="44.0849718" lon="11.9990375"><ele>399.50000000000006</ele><time>2026-04-25T09:46:22.508Z</time></trkpt><trkpt lat="44.0848926" lon="11.9990199"><ele>396.0</ele><time>2026-04-25T09:46:23.504Z</time></trkpt><trkpt lat="44.0848115" lon="11.999008"><ele>392.5</ele><time>2026-04-25T09:46:24.507Z</time></trkpt><trkpt lat="44.0847357" lon="11.9989816"><ele>389.0</ele><time>2026-04-25T09:46:25.497Z</time></trkpt><trkpt lat="44.0846646" lon="11.998937"><ele>385.5</ele><time>2026-04-25T09:46:26.509Z</time></trkpt><trkpt lat="44.0845882" lon="11.9988896"><ele>382.0</ele><time>2026-04-25T09:46:27.504Z</time></trkpt><trkpt lat="44.0845217" lon="11.9988446"><ele>382.0</ele><time>2026-04-25T09:46:28.504Z</time></trkpt><trkpt lat="44.0844602" lon="11.9987836"><ele>382.0</ele><time>2026-04-25T09:46:29.509Z</time></trkpt><trkpt lat="44.0843995" lon="11.998707"><ele>382.0</ele><time>2026-04-25T09:46:30.511Z</time></trkpt><trkpt lat="44.0843344" lon="11.9986135"><ele>382.0</ele><time>2026-04-25T09:46:31.514Z</time></trkpt><trkpt lat="44.084268" lon="11.9984972"><ele>382.0</ele><time>2026-04-25T09:46:32.516Z</time></trkpt><trkpt lat="44.0842052" lon="11.9983992"><ele>381.66666666666663</ele><time>2026-04-25T09:46:33.506Z</time></trkpt><trkpt lat="44.0841544" lon="11.9983156"><ele>381.3333333333333</ele><time>2026-04-25T09:46:34.498Z</time></trkpt><trkpt lat="44.084119" lon="11.9982333"><ele>381.0</ele><time>2026-04-25T09:46:35.519Z</time></trkpt><trkpt lat="44.0840997" lon="11.9981462"><ele>380.6666666666667</ele><time>2026-04-25T09:46:36.506Z</time></trkpt><trkpt lat="44.084063" lon="11.9980424"><ele>380.33333333333337</ele><time>2026-04-25T09:46:38.502Z</time></trkpt><trkpt lat="44.0840166" lon="11.9979399"><ele>380.0</ele><time>2026-04-25T09:46:41.497Z</time></trkpt><trkpt lat="44.0839599" lon="11.9978524"><ele>380.0</ele><time>2026-04-25T09:46:45.494Z</time></trkpt><trkpt lat="44.0838859" lon="11.9977957"><ele>380.0</ele><time>2026-04-25T09:46:48.513Z</time></trkpt><trkpt lat="44.0838188" lon="11.997771"><ele>380.0</ele><time>2026-04-25T09:46:50.498Z</time></trkpt><trkpt lat="44.0837593" lon="11.997742"><ele>380.0</ele><time>2026-04-25T09:46:51.498Z</time></trkpt><trkpt lat="44.0836859" lon="11.9976961"><ele>380.0</ele><time>2026-04-25T09:46:52.512Z</time></trkpt><trkpt lat="44.0835893" lon="11.9976375"><ele>380.0</ele><time>2026-04-25T09:46:53.493Z</time></trkpt><trkpt lat="44.083494" lon="11.9975779"><ele>380.0</ele><time>2026-04-25T09:46:54.508Z</time></trkpt><trkpt lat="44.0834282" lon="11.9975048"><ele>380.0</ele><time>2026-04-25T09:46:55.498Z</time></trkpt><trkpt lat="44.0833633" lon="11.9974271"><ele>380.0</ele><time>2026-04-25T09:46:56.501Z</time></trkpt><trkpt lat="44.0832926" lon="11.99735"><ele>380.0</ele><time>2026-04-25T09:46:57.5Z</time></trkpt><trkpt lat="44.0832192" lon="11.9972509"><ele>380.0</ele><time>2026-04-25T09:46:58.505Z</time></trkpt><trkpt lat="44.0831445" lon="11.9971419"><ele>380.2</ele><time>2026-04-25T09:46:59.499Z</time></trkpt><trkpt lat="44.0830746" lon="11.997025"><ele>380.4</ele><time>2026-04-25T09:47:00.504Z</time></trkpt><trkpt lat="44.0830251" lon="11.9969263"><ele>380.6</ele><time>2026-04-25T09:47:01.501Z</time></trkpt><trkpt lat="44.0829466" lon="11.9967997"><ele>380.8</ele><time>2026-04-25T09:47:03.504Z</time></trkpt><trkpt lat="44.0829042" lon="11.9967114"><ele>381.0</ele><time>2026-04-25T09:47:04.5Z</time></trkpt><trkpt lat="44.0828576" lon="11.9966157"><ele>381.0</ele><time>2026-04-25T09:47:05.497Z</time></trkpt><trkpt lat="44.0828106" lon="11.9965386"><ele>381.0</ele><time>2026-04-25T09:47:06.509Z</time></trkpt><trkpt lat="44.0827445" lon="11.9964536"><ele>381.0</ele><time>2026-04-25T09:47:08.495Z</time></trkpt><trkpt lat="44.0826716" lon="11.9964084"><ele>381.0</ele><time>2026-04-25T09:47:11.497Z</time></trkpt><trkpt lat="44.0825919" lon="11.9963846"><ele>381.0</ele><time>2026-04-25T09:47:14.517Z</time></trkpt><trkpt lat="44.0825175" lon="11.9963294"><ele>381.0</ele><time>2026-04-25T09:47:16.507Z</time></trkpt><trkpt lat="44.0824355" lon="11.9962509"><ele>377.0</ele><time>2026-04-25T09:47:18.507Z</time></trkpt><trkpt lat="44.0823588" lon="11.9961762"><ele>373.0</ele><time>2026-04-25T09:47:20.507Z</time></trkpt><trkpt lat="44.0822838" lon="11.9960956"><ele>369.0</ele><time>2026-04-25T09:47:22.5Z</time></trkpt><trkpt lat="44.0822052" lon="11.9959975"><ele>365.0</ele><time>2026-04-25T09:47:24.495Z</time></trkpt><trkpt lat="44.0821158" lon="11.995865"><ele>361.0</ele><time>2026-04-25T09:47:26.508Z</time></trkpt><trkpt lat="44.0820715" lon="11.9957954"><ele>361.0</ele><time>2026-04-25T09:47:27.493Z</time></trkpt><trkpt lat="44.0820264" lon="11.9957251"><ele>361.0</ele><time>2026-04-25T09:47:28.497Z</time></trkpt><trkpt lat="44.0819854" lon="11.9956578"><ele>361.0</ele><time>2026-04-25T09:47:29.493Z</time></trkpt><trkpt lat="44.0819207" lon="11.9955394"><ele>361.0</ele><time>2026-04-25T09:47:31.5Z</time></trkpt><trkpt lat="44.0818533" lon="11.9954339"><ele>361.0</ele><time>2026-04-25T09:47:33.494Z</time></trkpt><trkpt lat="44.0817791" lon="11.9952962"><ele>361.0</ele><time>2026-04-25T09:47:35.501Z</time></trkpt><trkpt lat="44.0816981" lon="11.9951627"><ele>361.0</ele><time>2026-04-25T09:47:37.489Z</time></trkpt><trkpt lat="44.081653" lon="11.9950997"><ele>361.0</ele><time>2026-04-25T09:47:38.505Z</time></trkpt><trkpt lat="44.081583" lon="11.9950073"><ele>361.0</ele><time>2026-04-25T09:47:40.512Z</time></trkpt><trkpt lat="44.0815208" lon="11.9949422"><ele>361.0</ele><time>2026-04-25T09:47:42.506Z</time></trkpt><trkpt lat="44.0814537" lon="11.9948711"><ele>361.0</ele><time>2026-04-25T09:47:44.504Z</time></trkpt><trkpt lat="44.081396" lon="11.9948144"><ele>357.5</ele><time>2026-04-25T09:47:45.496Z</time></trkpt><trkpt lat="44.081343" lon="11.9947524"><ele>354.0</ele><time>2026-04-25T09:47:46.503Z</time></trkpt><trkpt lat="44.0812939" lon="11.9946881"><ele>350.5</ele><time>2026-04-25T09:47:47.498Z</time></trkpt><trkpt lat="44.0812255" lon="11.9946179"><ele>347.0</ele><time>2026-04-25T09:47:48.497Z</time></trkpt><trkpt lat="44.0811492" lon="11.9945408"><ele>343.5</ele><time>2026-04-25T09:47:49.496Z</time></trkpt><trkpt lat="44.0810658" lon="11.9944532"><ele>340.0</ele><time>2026-04-25T09:47:50.502Z</time></trkpt><trkpt lat="44.0809854" lon="11.9943658"><ele>340.0</ele><time>2026-04-25T09:47:51.496Z</time></trkpt><trkpt lat="44.0808995" lon="11.9942729"><ele>340.0</ele><time>2026-04-25T09:47:52.503Z</time></trkpt><trkpt lat="44.0808216" lon="11.9941907"><ele>340.0</ele><time>2026-04-25T09:47:53.5Z</time></trkpt><trkpt lat="44.08076" lon="11.9941178"><ele>340.0</ele><time>2026-04-25T09:47:54.523Z</time></trkpt><trkpt lat="44.0807104" lon="11.9940387"><ele>340.0</ele><time>2026-04-25T09:47:55.494Z</time></trkpt><trkpt lat="44.0806717" lon="11.9939389"><ele>340.0</ele><time>2026-04-25T09:47:56.503Z</time></trkpt><trkpt lat="44.0806425" lon="11.9938186"><ele>340.4</ele><time>2026-04-25T09:47:57.501Z</time></trkpt><trkpt lat="44.0806164" lon="11.9936818"><ele>340.8</ele><time>2026-04-25T09:47:58.499Z</time></trkpt><trkpt lat="44.0805916" lon="11.9935502"><ele>341.20000000000005</ele><time>2026-04-25T09:47:59.494Z</time></trkpt><trkpt lat="44.080559" lon="11.9934316"><ele>341.6</ele><time>2026-04-25T09:48:00.503Z</time></trkpt><trkpt lat="44.0805098" lon="11.9933024"><ele>342.0</ele><time>2026-04-25T09:48:01.496Z</time></trkpt><trkpt lat="44.0804463" lon="11.993179"><ele>342.0</ele><time>2026-04-25T09:48:02.49Z</time></trkpt><trkpt lat="44.0803588" lon="11.9930598"><ele>342.0</ele><time>2026-04-25T09:48:03.495Z</time></trkpt><trkpt lat="44.0802754" lon="11.9929364"><ele>342.0</ele><time>2026-04-25T09:48:04.498Z</time></trkpt><trkpt lat="44.0801945" lon="11.9928347"><ele>342.0</ele><time>2026-04-25T09:48:05.495Z</time></trkpt><trkpt lat="44.0801044" lon="11.9927397"><ele>342.0</ele><time>2026-04-25T09:48:06.492Z</time></trkpt><trkpt lat="44.0800078" lon="11.9926446"><ele>342.0</ele><time>2026-04-25T09:48:07.5Z</time></trkpt><trkpt lat="44.0799102" lon="11.992546"><ele>342.0</ele><time>2026-04-25T09:48:08.537Z</time></trkpt><trkpt lat="44.0798161" lon="11.992456"><ele>342.0</ele><time>2026-04-25T09:48:09.497Z</time></trkpt><trkpt lat="44.0797193" lon="11.9923743"><ele>344.0</ele><time>2026-04-25T09:48:10.505Z</time></trkpt><trkpt lat="44.0796174" lon="11.9922891"><ele>346.0</ele><time>2026-04-25T09:48:11.497Z</time></trkpt><trkpt lat="44.0795178" lon="11.9921993"><ele>348.0</ele><time>2026-04-25T09:48:12.51Z</time></trkpt><trkpt lat="44.0794205" lon="11.9921099"><ele>350.0</ele><time>2026-04-25T09:48:13.5Z</time></trkpt><trkpt lat="44.0793355" lon="11.992023"><ele>350.0</ele><time>2026-04-25T09:48:14.503Z</time></trkpt><trkpt lat="44.0792679" lon="11.9919416"><ele>350.0</ele><time>2026-04-25T09:48:15.495Z</time></trkpt><trkpt lat="44.0792163" lon="11.9918603"><ele>350.0</ele><time>2026-04-25T09:48:16.507Z</time></trkpt><trkpt lat="44.0791706" lon="11.9917792"><ele>350.0</ele><time>2026-04-25T09:48:17.493Z</time></trkpt><trkpt lat="44.0791195" lon="11.9916879"><ele>350.0</ele><time>2026-04-25T09:48:18.509Z</time></trkpt><trkpt lat="44.0790638" lon="11.9915994"><ele>350.0</ele><time>2026-04-25T09:48:19.495Z</time></trkpt><trkpt lat="44.0790075" lon="11.9915351"><ele>351.33333333333337</ele><time>2026-04-25T09:48:20.499Z</time></trkpt><trkpt lat="44.0789428" lon="11.9914843"><ele>352.6666666666667</ele><time>2026-04-25T09:48:21.491Z</time></trkpt><trkpt lat="44.078871" lon="11.9914528"><ele>354.0</ele><time>2026-04-25T09:48:22.504Z</time></trkpt><trkpt lat="44.078789" lon="11.9914316"><ele>355.3333333333333</ele><time>2026-04-25T09:48:23.506Z</time></trkpt><trkpt lat="44.0786963" lon="11.991411"><ele>356.66666666666663</ele><time>2026-04-25T09:48:24.513Z</time></trkpt><trkpt lat="44.078612" lon="11.9913876"><ele>358.0</ele><time>2026-04-25T09:48:25.496Z</time></trkpt><trkpt lat="44.0785362" lon="11.9913689"><ele>358.0</ele><time>2026-04-25T09:48:26.497Z</time></trkpt><trkpt lat="44.0784582" lon="11.9913539"><ele>358.0</ele><time>2026-04-25T09:48:27.496Z</time></trkpt><trkpt lat="44.0783787" lon="11.9913385"><ele>358.0</ele><time>2026-04-25T09:48:28.504Z</time></trkpt><trkpt lat="44.0782921" lon="11.9913065"><ele>358.0</ele><time>2026-04-25T09:48:29.505Z</time></trkpt><trkpt lat="44.0781953" lon="11.9912631"><ele>358.0</ele><time>2026-04-25T09:48:30.499Z</time></trkpt><trkpt lat="44.0781006" lon="11.9912358"><ele>358.0</ele><time>2026-04-25T09:48:31.512Z</time></trkpt><trkpt lat="44.0780049" lon="11.9912181"><ele>359.5</ele><time>2026-04-25T09:48:32.503Z</time></trkpt><trkpt lat="44.0779301" lon="11.9912004"><ele>361.0</ele><time>2026-04-25T09:48:33.522Z</time></trkpt><trkpt lat="44.0778672" lon="11.9911103"><ele>362.5</ele><time>2026-04-25T09:48:35.512Z</time></trkpt><trkpt lat="44.0778756" lon="11.9909503"><ele>364.0</ele><time>2026-04-25T09:48:37.494Z</time></trkpt><trkpt lat="44.0778955" lon="11.9908613"><ele>365.5</ele><time>2026-04-25T09:48:38.507Z</time></trkpt><trkpt lat="44.0778969" lon="11.9907675"><ele>367.0</ele><time>2026-04-25T09:48:39.508Z</time></trkpt><trkpt lat="44.0778778" lon="11.9906799"><ele>367.0</ele><time>2026-04-25T09:48:40.508Z</time></trkpt><trkpt lat="44.0778431" lon="11.9905948"><ele>367.0</ele><time>2026-04-25T09:48:41.516Z</time></trkpt><trkpt lat="44.077808" lon="11.9904985"><ele>367.0</ele><time>2026-04-25T09:48:42.516Z</time></trkpt><trkpt lat="44.0777767" lon="11.9903976"><ele>367.0</ele><time>2026-04-25T09:48:43.505Z</time></trkpt><trkpt lat="44.0777096" lon="11.9902796"><ele>367.0</ele><time>2026-04-25T09:48:45.498Z</time></trkpt><trkpt lat="44.0776621" lon="11.9902086"><ele>367.0</ele><time>2026-04-25T09:48:46.499Z</time></trkpt><trkpt lat="44.0776017" lon="11.9901101"><ele>366.40000000000003</ele><time>2026-04-25T09:48:47.485Z</time></trkpt><trkpt lat="44.0775403" lon="11.9899866"><ele>365.8</ele><time>2026-04-25T09:48:48.518Z</time></trkpt><trkpt lat="44.0774848" lon="11.9898662"><ele>365.2</ele><time>2026-04-25T09:48:49.496Z</time></trkpt><trkpt lat="44.0774325" lon="11.9897547"><ele>364.6</ele><time>2026-04-25T09:48:50.514Z</time></trkpt><trkpt lat="44.0773797" lon="11.9896469"><ele>364.0</ele><time>2026-04-25T09:48:51.506Z</time></trkpt><trkpt lat="44.0773262" lon="11.9895374"><ele>364.0</ele><time>2026-04-25T09:48:52.493Z</time></trkpt><trkpt lat="44.0772957" lon="11.9894396"><ele>364.0</ele><time>2026-04-25T09:48:53.496Z</time></trkpt><trkpt lat="44.0772584" lon="11.9892914"><ele>364.0</ele><time>2026-04-25T09:48:55.502Z</time></trkpt><trkpt lat="44.0771919" lon="11.9891513"><ele>364.0</ele><time>2026-04-25T09:48:57.495Z</time></trkpt><trkpt lat="44.0771208" lon="11.9890532"><ele>364.0</ele><time>2026-04-25T09:48:59.492Z</time></trkpt><trkpt lat="44.0770442" lon="11.9889519"><ele>365.2857142857143</ele><time>2026-04-25T09:49:01.492Z</time></trkpt><trkpt lat="44.0770039" lon="11.9888752"><ele>366.57142857142856</ele><time>2026-04-25T09:49:03.505Z</time></trkpt><trkpt lat="44.0769693" lon="11.9887995"><ele>367.8571428571429</ele><time>2026-04-25T09:49:05.505Z</time></trkpt><trkpt lat="44.0769168" lon="11.9887307"><ele>369.1428571428571</ele><time>2026-04-25T09:49:07.497Z</time></trkpt><trkpt lat="44.076972" lon="11.9886608"><ele>370.42857142857144</ele><time>2026-04-25T09:49:12.523Z</time></trkpt><trkpt lat="44.0770364" lon="11.9886539"><ele>371.7142857142857</ele><time>2026-04-25T09:49:14.509Z</time></trkpt><trkpt lat="44.0771173" lon="11.988589"><ele>373.0</ele><time>2026-04-25T09:49:17.495Z</time></trkpt><trkpt lat="44.0772007" lon="11.9884992"><ele>373.0</ele><time>2026-04-25T09:49:19.49Z</time></trkpt><trkpt lat="44.0773007" lon="11.988419"><ele>373.0</ele><time>2026-04-25T09:49:21.494Z</time></trkpt><trkpt lat="44.0773683" lon="11.9883996"><ele>373.0</ele><time>2026-04-25T09:49:23.497Z</time></trkpt><trkpt lat="44.0774307" lon="11.9883787"><ele>373.0</ele><time>2026-04-25T09:49:25.492Z</time></trkpt><trkpt lat="44.0774928" lon="11.9883504"><ele>373.0</ele><time>2026-04-25T09:49:27.491Z</time></trkpt><trkpt lat="44.0775552" lon="11.9883175"><ele>373.0</ele><time>2026-04-25T09:49:29.492Z</time></trkpt><trkpt lat="44.0776165" lon="11.9882909"><ele>373.0</ele><time>2026-04-25T09:49:31.488Z</time></trkpt><trkpt lat="44.0776845" lon="11.9882498"><ele>372.66666666666663</ele><time>2026-04-25T09:49:34.507Z</time></trkpt><trkpt lat="44.0777766" lon="11.9881968"><ele>372.3333333333333</ele><time>2026-04-25T09:49:37.497Z</time></trkpt><trkpt lat="44.0778404" lon="11.9881604"><ele>372.0</ele><time>2026-04-25T09:49:38.491Z</time></trkpt><trkpt lat="44.0779098" lon="11.9881197"><ele>371.6666666666667</ele><time>2026-04-25T09:49:39.493Z</time></trkpt><trkpt lat="44.0779691" lon="11.9880788"><ele>371.33333333333337</ele><time>2026-04-25T09:49:40.49Z</time></trkpt><trkpt lat="44.0780634" lon="11.9879974"><ele>371.0</ele><time>2026-04-25T09:49:42.503Z</time></trkpt><trkpt lat="44.0781288" lon="11.9879522"><ele>371.0</ele><time>2026-04-25T09:49:44.506Z</time></trkpt><trkpt lat="44.0782072" lon="11.9879423"><ele>371.0</ele><time>2026-04-25T09:49:47.496Z</time></trkpt><trkpt lat="44.0782797" lon="11.9879254"><ele>371.0</ele><time>2026-04-25T09:49:50.505Z</time></trkpt><trkpt lat="44.0783536" lon="11.9878882"><ele>371.0</ele><time>2026-04-25T09:49:54.507Z</time></trkpt><trkpt lat="44.0784097" lon="11.9878276"><ele>371.0</ele><time>2026-04-25T09:49:58.495Z</time></trkpt><trkpt lat="44.0784619" lon="11.9877492"><ele>371.0</ele><time>2026-04-25T09:50:02.491Z</time></trkpt><trkpt lat="44.0784838" lon="11.9876554"><ele>371.0</ele><time>2026-04-25T09:50:05.492Z</time></trkpt><trkpt lat="44.0784993" lon="11.9875461"><ele>371.0</ele><time>2026-04-25T09:50:08.5Z</time></trkpt><trkpt lat="44.0784598" lon="11.9874608"><ele>371.0</ele><time>2026-04-25T09:50:11.495Z</time></trkpt><trkpt lat="44.0783715" lon="11.9874518"><ele>371.0</ele><time>2026-04-25T09:50:14.504Z</time></trkpt><trkpt lat="44.0783055" lon="11.9875069"><ele>371.0</ele><time>2026-04-25T09:50:16.501Z</time></trkpt><trkpt lat="44.078255" lon="11.9875985"><ele>371.0</ele><time>2026-04-25T09:50:19.495Z</time></trkpt><trkpt lat="44.0782134" lon="11.9876806"><ele>371.0</ele><time>2026-04-25T09:50:21.498Z</time></trkpt><trkpt lat="44.0781694" lon="11.9877553"><ele>371.0</ele><time>2026-04-25T09:50:23.492Z</time></trkpt><trkpt lat="44.0781204" lon="11.9878573"><ele>371.0</ele><time>2026-04-25T09:50:25.496Z</time></trkpt><trkpt lat="44.0780728" lon="11.9879572"><ele>371.0</ele><time>2026-04-25T09:50:27.493Z</time></trkpt><trkpt lat="44.0779905" lon="11.9880603"><ele>371.0</ele><time>2026-04-25T09:50:29.499Z</time></trkpt><trkpt lat="44.077894" lon="11.9881428"><ele>371.0</ele><time>2026-04-25T09:50:31.489Z</time></trkpt><trkpt lat="44.0778132" lon="11.9881971"><ele>371.0</ele><time>2026-04-25T09:50:33.497Z</time></trkpt><trkpt lat="44.0777358" lon="11.9882335"><ele>371.0</ele><time>2026-04-25T09:50:35.511Z</time></trkpt><trkpt lat="44.0776432" lon="11.9882696"><ele>371.0</ele><time>2026-04-25T09:50:37.515Z</time></trkpt><trkpt lat="44.0775407" lon="11.9883323"><ele>371.0</ele><time>2026-04-25T09:50:39.5Z</time></trkpt><trkpt lat="44.0774222" lon="11.9883896"><ele>371.0</ele><time>2026-04-25T09:50:41.502Z</time></trkpt><trkpt lat="44.0773557" lon="11.988409"><ele>371.2857142857143</ele><time>2026-04-25T09:50:42.503Z</time></trkpt><trkpt lat="44.0772935" lon="11.9884326"><ele>371.57142857142856</ele><time>2026-04-25T09:50:43.499Z</time></trkpt><trkpt lat="44.0772361" lon="11.9884727"><ele>371.8571428571429</ele><time>2026-04-25T09:50:44.496Z</time></trkpt><trkpt lat="44.0771813" lon="11.9885211"><ele>372.1428571428571</ele><time>2026-04-25T09:50:45.494Z</time></trkpt><trkpt lat="44.0771293" lon="11.9885714"><ele>372.42857142857144</ele><time>2026-04-25T09:50:46.5Z</time></trkpt><trkpt lat="44.0770751" lon="11.9886771"><ele>372.7142857142857</ele><time>2026-04-25T09:50:48.498Z</time></trkpt><trkpt lat="44.0770925" lon="11.988789"><ele>373.0</ele><time>2026-04-25T09:50:50.505Z</time></trkpt><trkpt lat="44.0771328" lon="11.988906"><ele>373.0</ele><time>2026-04-25T09:50:52.497Z</time></trkpt><trkpt lat="44.0771654" lon="11.98906"><ele>373.0</ele><time>2026-04-25T09:50:54.499Z</time></trkpt><trkpt lat="44.0772183" lon="11.989206"><ele>373.0</ele><time>2026-04-25T09:50:56.504Z</time></trkpt><trkpt lat="44.0772771" lon="11.9893373"><ele>373.0</ele><time>2026-04-25T09:50:58.504Z</time></trkpt><trkpt lat="44.0773211" lon="11.9894757"><ele>373.2</ele><time>2026-04-25T09:51:00.51Z</time></trkpt><trkpt lat="44.0773589" lon="11.9896105"><ele>373.4</ele><time>2026-04-25T09:51:02.487Z</time></trkpt><trkpt lat="44.077405" lon="11.9896825"><ele>373.59999999999997</ele><time>2026-04-25T09:51:04.509Z</time></trkpt><trkpt lat="44.0774841" lon="11.9896524"><ele>373.79999999999995</ele><time>2026-04-25T09:51:07.496Z</time></trkpt><trkpt lat="44.0775109" lon="11.989518"><ele>374.0</ele><time>2026-04-25T09:51:09.5Z</time></trkpt><trkpt lat="44.0775388" lon="11.9893528"><ele>374.0</ele><time>2026-04-25T09:51:11.496Z</time></trkpt><trkpt lat="44.0775275" lon="11.9891835"><ele>374.0</ele><time>2026-04-25T09:51:13.494Z</time></trkpt><trkpt lat="44.0775194" lon="11.9890897"><ele>374.0</ele><time>2026-04-25T09:51:14.496Z</time></trkpt><trkpt lat="44.0775254" lon="11.9889946"><ele>374.0</ele><time>2026-04-25T09:51:15.492Z</time></trkpt><trkpt lat="44.0775361" lon="11.9889041"><ele>374.0</ele><time>2026-04-25T09:51:16.492Z</time></trkpt><trkpt lat="44.0775718" lon="11.9887636"><ele>374.0</ele><time>2026-04-25T09:51:18.5Z</time></trkpt><trkpt lat="44.0776211" lon="11.9886488"><ele>373.4</ele><time>2026-04-25T09:51:20.501Z</time></trkpt><trkpt lat="44.0777095" lon="11.9885482"><ele>372.79999999999995</ele><time>2026-04-25T09:51:22.498Z</time></trkpt><trkpt lat="44.0777678" lon="11.9884607"><ele>372.20000000000005</ele><time>2026-04-25T09:51:24.491Z</time></trkpt><trkpt lat="44.0778234" lon="11.9883936"><ele>371.6</ele><time>2026-04-25T09:51:26.521Z</time></trkpt><trkpt lat="44.0779199" lon="11.9883157"><ele>371.0</ele><time>2026-04-25T09:51:28.507Z</time></trkpt><trkpt lat="44.0780092" lon="11.9882453"><ele>371.0</ele><time>2026-04-25T09:51:30.494Z</time></trkpt><trkpt lat="44.0780909" lon="11.9881614"><ele>371.0</ele><time>2026-04-25T09:51:32.496Z</time></trkpt><trkpt lat="44.0782009" lon="11.9881101"><ele>371.0</ele><time>2026-04-25T09:51:34.492Z</time></trkpt><trkpt lat="44.0783185" lon="11.9881199"><ele>371.0</ele><time>2026-04-25T09:51:36.503Z</time></trkpt><trkpt lat="44.0784376" lon="11.9881101"><ele>367.6666666666667</ele><time>2026-04-25T09:51:38.493Z</time></trkpt><trkpt lat="44.0785017" lon="11.9880843"><ele>364.33333333333337</ele><time>2026-04-25T09:51:39.497Z</time></trkpt><trkpt lat="44.0785531" lon="11.9880334"><ele>361.0</ele><time>2026-04-25T09:51:40.49Z</time></trkpt><trkpt lat="44.0786291" lon="11.9879301"><ele>357.6666666666667</ele><time>2026-04-25T09:51:42.505Z</time></trkpt><trkpt lat="44.078676" lon="11.987849"><ele>354.3333333333333</ele><time>2026-04-25T09:51:44.498Z</time></trkpt><trkpt lat="44.0787286" lon="11.9877704"><ele>351.0</ele><time>2026-04-25T09:51:47.494Z</time></trkpt><trkpt lat="44.0787936" lon="11.9876864"><ele>351.0</ele><time>2026-04-25T09:51:50.509Z</time></trkpt><trkpt lat="44.0788934" lon="11.9876443"><ele>351.0</ele><time>2026-04-25T09:51:52.497Z</time></trkpt><trkpt lat="44.0789568" lon="11.9876261"><ele>351.0</ele><time>2026-04-25T09:51:53.486Z</time></trkpt><trkpt lat="44.0790212" lon="11.9875995"><ele>351.0</ele><time>2026-04-25T09:51:54.519Z</time></trkpt><trkpt lat="44.0791273" lon="11.9875309"><ele>351.0</ele><time>2026-04-25T09:51:56.482Z</time></trkpt><trkpt lat="44.0791823" lon="11.9874822"><ele>351.0</ele><time>2026-04-25T09:51:57.492Z</time></trkpt><trkpt lat="44.0792711" lon="11.9873805"><ele>348.3333333333333</ele><time>2026-04-25T09:51:59.491Z</time></trkpt><trkpt lat="44.0793252" lon="11.9873009"><ele>345.6666666666667</ele><time>2026-04-25T09:52:01.492Z</time></trkpt><trkpt lat="44.0793906" lon="11.9872269"><ele>343.0</ele><time>2026-04-25T09:52:04.491Z</time></trkpt><trkpt lat="44.0794513" lon="11.9872958"><ele>340.33333333333337</ele><time>2026-04-25T09:52:07.495Z</time></trkpt><trkpt lat="44.0794441" lon="11.9874153"><ele>337.6666666666667</ele><time>2026-04-25T09:52:09.494Z</time></trkpt><trkpt lat="44.0794332" lon="11.9875677"><ele>335.0</ele><time>2026-04-25T09:52:11.494Z</time></trkpt><trkpt lat="44.079414" lon="11.9877075"><ele>334.0</ele><time>2026-04-25T09:52:13.494Z</time></trkpt><trkpt lat="44.0793894" lon="11.9878347"><ele>333.0</ele><time>2026-04-25T09:52:15.481Z</time></trkpt><trkpt lat="44.0793554" lon="11.9879747"><ele>332.0</ele><time>2026-04-25T09:52:17.489Z</time></trkpt><trkpt lat="44.079316" lon="11.9880982"><ele>331.0</ele><time>2026-04-25T09:52:19.492Z</time></trkpt><trkpt lat="44.0792848" lon="11.9882"><ele>330.0</ele><time>2026-04-25T09:52:22.491Z</time></trkpt><trkpt lat="44.0792862" lon="11.9881112"><ele>329.0</ele><time>2026-04-25T09:57:05.484Z</time></trkpt><trkpt lat="44.0792965" lon="11.9880215"><ele>329.0</ele><time>2026-04-25T09:57:08.481Z</time></trkpt><trkpt lat="44.0793294" lon="11.9879205"><ele>329.0</ele><time>2026-04-25T09:57:27.486Z</time></trkpt><trkpt lat="44.0793662" lon="11.9877664"><ele>329.0</ele><time>2026-04-25T09:57:29.499Z</time></trkpt><trkpt lat="44.0793858" lon="11.9876656"><ele>329.0</ele><time>2026-04-25T09:57:30.511Z</time></trkpt><trkpt lat="44.0794045" lon="11.9875535"><ele>329.0</ele><time>2026-04-25T09:57:31.492Z</time></trkpt><trkpt lat="44.0794207" lon="11.9874445"><ele>329.0</ele><time>2026-04-25T09:57:32.501Z</time></trkpt><trkpt lat="44.0794198" lon="11.9873506"><ele>330.2</ele><time>2026-04-25T09:57:33.49Z</time></trkpt><trkpt lat="44.0793688" lon="11.9872329"><ele>331.4</ele><time>2026-04-25T09:57:35.497Z</time></trkpt><trkpt lat="44.0792875" lon="11.9873258"><ele>332.6</ele><time>2026-04-25T09:57:38.492Z</time></trkpt><trkpt lat="44.0791736" lon="11.9874427"><ele>333.8</ele><time>2026-04-25T09:57:40.49Z</time></trkpt><trkpt lat="44.079091" lon="11.9874964"><ele>335.0</ele><time>2026-04-25T09:57:41.496Z</time></trkpt><trkpt lat="44.0790044" lon="11.9875434"><ele>337.6666666666667</ele><time>2026-04-25T09:57:42.492Z</time></trkpt><trkpt lat="44.0789138" lon="11.9875749"><ele>340.33333333333337</ele><time>2026-04-25T09:57:43.481Z</time></trkpt><trkpt lat="44.0788227" lon="11.9876081"><ele>343.0</ele><time>2026-04-25T09:57:44.488Z</time></trkpt><trkpt lat="44.0787449" lon="11.9876603"><ele>345.6666666666667</ele><time>2026-04-25T09:57:45.487Z</time></trkpt><trkpt lat="44.0786835" lon="11.987721"><ele>348.3333333333333</ele><time>2026-04-25T09:57:46.502Z</time></trkpt><trkpt lat="44.0786405" lon="11.9877903"><ele>351.0</ele><time>2026-04-25T09:57:47.491Z</time></trkpt><trkpt lat="44.0785768" lon="11.9879277"><ele>351.0</ele><time>2026-04-25T09:57:49.479Z</time></trkpt><trkpt lat="44.0784735" lon="11.9880192"><ele>351.0</ele><time>2026-04-25T09:57:51.49Z</time></trkpt><trkpt lat="44.0784002" lon="11.9880426"><ele>351.0</ele><time>2026-04-25T09:57:52.486Z</time></trkpt><trkpt lat="44.078334" lon="11.9880383"><ele>351.0</ele><time>2026-04-25T09:57:53.491Z</time></trkpt><trkpt lat="44.0782508" lon="11.9880475"><ele>351.0</ele><time>2026-04-25T09:57:54.492Z</time></trkpt><trkpt lat="44.0781541" lon="11.9880604"><ele>351.0</ele><time>2026-04-25T09:57:55.497Z</time></trkpt><trkpt lat="44.0780738" lon="11.9880804"><ele>355.0</ele><time>2026-04-25T09:57:56.498Z</time></trkpt><trkpt lat="44.0779958" lon="11.9881449"><ele>359.0</ele><time>2026-04-25T09:57:57.502Z</time></trkpt><trkpt lat="44.077922" lon="11.9882245"><ele>363.0</ele><time>2026-04-25T09:57:58.507Z</time></trkpt><trkpt lat="44.0778464" lon="11.9883064"><ele>367.0</ele><time>2026-04-25T09:57:59.489Z</time></trkpt><trkpt lat="44.0777754" lon="11.9883958"><ele>371.0</ele><time>2026-04-25T09:58:00.497Z</time></trkpt><trkpt lat="44.0777171" lon="11.98847"><ele>371.0</ele><time>2026-04-25T09:58:01.494Z</time></trkpt><trkpt lat="44.0776638" lon="11.988544"><ele>371.0</ele><time>2026-04-25T09:58:02.499Z</time></trkpt><trkpt lat="44.0776088" lon="11.9886261"><ele>371.0</ele><time>2026-04-25T09:58:03.492Z</time></trkpt><trkpt lat="44.0775564" lon="11.988713"><ele>371.0</ele><time>2026-04-25T09:58:04.497Z</time></trkpt><trkpt lat="44.0775279" lon="11.9888222"><ele>371.0</ele><time>2026-04-25T09:58:05.486Z</time></trkpt><trkpt lat="44.0775246" lon="11.9889599"><ele>371.0</ele><time>2026-04-25T09:58:06.493Z</time></trkpt><trkpt lat="44.0775291" lon="11.9891071"><ele>371.5</ele><time>2026-04-25T09:58:07.489Z</time></trkpt><trkpt lat="44.077533" lon="11.9892492"><ele>372.0</ele><time>2026-04-25T09:58:08.484Z</time></trkpt><trkpt lat="44.0775342" lon="11.9893646"><ele>372.5</ele><time>2026-04-25T09:58:09.487Z</time></trkpt><trkpt lat="44.0775226" lon="11.9894667"><ele>373.0</ele><time>2026-04-25T09:58:10.491Z</time></trkpt><trkpt lat="44.0774978" lon="11.9895769"><ele>373.5</ele><time>2026-04-25T09:58:11.492Z</time></trkpt><trkpt lat="44.0774644" lon="11.9896615"><ele>374.0</ele><time>2026-04-25T09:58:12.494Z</time></trkpt><trkpt lat="44.0773974" lon="11.9896825"><ele>373.79999999999995</ele><time>2026-04-25T09:58:17.486Z</time></trkpt><trkpt lat="44.0773296" lon="11.9895453"><ele>373.59999999999997</ele><time>2026-04-25T09:58:33.498Z</time></trkpt><trkpt lat="44.0772797" lon="11.9893885"><ele>373.4</ele><time>2026-04-25T09:58:35.486Z</time></trkpt><trkpt lat="44.0772556" lon="11.9893064"><ele>373.2</ele><time>2026-04-25T09:58:36.502Z</time></trkpt><trkpt lat="44.0772183" lon="11.98922"><ele>373.0</ele><time>2026-04-25T09:58:37.486Z</time></trkpt><trkpt lat="44.0771664" lon="11.9891246"><ele>373.0</ele><time>2026-04-25T09:58:38.493Z</time></trkpt><trkpt lat="44.0771026" lon="11.9890345"><ele>373.0</ele><time>2026-04-25T09:58:39.491Z</time></trkpt><trkpt lat="44.0770347" lon="11.9889444"><ele>373.0</ele><time>2026-04-25T09:58:40.496Z</time></trkpt><trkpt lat="44.0769782" lon="11.9888628"><ele>373.0</ele><time>2026-04-25T09:58:41.494Z</time></trkpt><trkpt lat="44.0769302" lon="11.9887786"><ele>373.0</ele><time>2026-04-25T09:58:42.501Z</time></trkpt><trkpt lat="44.0768796" lon="11.9887003"><ele>373.0</ele><time>2026-04-25T09:58:43.497Z</time></trkpt><trkpt lat="44.076815" lon="11.9886379"><ele>373.0</ele><time>2026-04-25T09:58:44.494Z</time></trkpt><trkpt lat="44.0767387" lon="11.9885904"><ele>373.0</ele><time>2026-04-25T09:58:45.493Z</time></trkpt><trkpt lat="44.07667" lon="11.988554"><ele>373.0</ele><time>2026-04-25T09:58:46.497Z</time></trkpt><trkpt lat="44.0765702" lon="11.9885243"><ele>373.0</ele><time>2026-04-25T09:58:48.507Z</time></trkpt><trkpt lat="44.0764226" lon="11.9885143"><ele>373.0</ele><time>2026-04-25T09:58:50.502Z</time></trkpt><trkpt lat="44.0763162" lon="11.9885018"><ele>373.2</ele><time>2026-04-25T09:58:51.502Z</time></trkpt><trkpt lat="44.0762217" lon="11.9884976"><ele>373.4</ele><time>2026-04-25T09:58:52.503Z</time></trkpt><trkpt lat="44.0761373" lon="11.9884936"><ele>373.59999999999997</ele><time>2026-04-25T09:58:53.486Z</time></trkpt><trkpt lat="44.0760713" lon="11.9884961"><ele>373.79999999999995</ele><time>2026-04-25T09:58:54.505Z</time></trkpt><trkpt lat="44.075956" lon="11.9884769"><ele>374.0</ele><time>2026-04-25T09:58:56.501Z</time></trkpt><trkpt lat="44.0758441" lon="11.9884278"><ele>374.0</ele><time>2026-04-25T09:58:58.495Z</time></trkpt><trkpt lat="44.0757456" lon="11.988346"><ele>374.0</ele><time>2026-04-25T09:59:00.497Z</time></trkpt><trkpt lat="44.0756979" lon="11.9882658"><ele>374.0</ele><time>2026-04-25T09:59:02.495Z</time></trkpt><trkpt lat="44.0757282" lon="11.9883475"><ele>374.0</ele><time>2026-04-25T09:59:09.501Z</time></trkpt><trkpt lat="44.0757958" lon="11.9883823"><ele>374.0</ele><time>2026-04-25T09:59:11.511Z</time></trkpt><trkpt lat="44.0758882" lon="11.9884437"><ele>374.0</ele><time>2026-04-25T09:59:13.478Z</time></trkpt><trkpt lat="44.0759906" lon="11.9884888"><ele>374.0</ele><time>2026-04-25T09:59:15.5Z</time></trkpt><trkpt lat="44.076093" lon="11.98849"><ele>374.0</ele><time>2026-04-25T09:59:17.501Z</time></trkpt><trkpt lat="44.0761816" lon="11.9884877"><ele>374.0</ele><time>2026-04-25T09:59:19.511Z</time></trkpt><trkpt lat="44.0762822" lon="11.9884859"><ele>374.0</ele><time>2026-04-25T09:59:21.506Z</time></trkpt><trkpt lat="44.0763768" lon="11.9884836"><ele>374.0</ele><time>2026-04-25T09:59:23.507Z</time></trkpt><trkpt lat="44.0764536" lon="11.9884936"><ele>374.0</ele><time>2026-04-25T09:59:25.51Z</time></trkpt><trkpt lat="44.076463" lon="11.9886012"><ele>374.0</ele><time>2026-04-25T09:59:28.499Z</time></trkpt><trkpt lat="44.0763954" lon="11.9886804"><ele>374.0</ele><time>2026-04-25T09:59:30.503Z</time></trkpt><trkpt lat="44.0763341" lon="11.9887398"><ele>374.0</ele><time>2026-04-25T09:59:31.493Z</time></trkpt><trkpt lat="44.076286" lon="11.9888063"><ele>374.0</ele><time>2026-04-25T09:59:32.495Z</time></trkpt><trkpt lat="44.0762389" lon="11.9888806"><ele>374.0</ele><time>2026-04-25T09:59:33.504Z</time></trkpt><trkpt lat="44.0761875" lon="11.9889401"><ele>374.0</ele><time>2026-04-25T09:59:34.51Z</time></trkpt><trkpt lat="44.0761315" lon="11.9889881"><ele>374.0</ele><time>2026-04-25T09:59:35.494Z</time></trkpt><trkpt lat="44.0760629" lon="11.9890382"><ele>374.0</ele><time>2026-04-25T09:59:36.512Z</time></trkpt><trkpt lat="44.0759898" lon="11.989071"><ele>374.0</ele><time>2026-04-25T09:59:37.497Z</time></trkpt><trkpt lat="44.0759027" lon="11.989064"><ele>374.0</ele><time>2026-04-25T09:59:38.505Z</time></trkpt><trkpt lat="44.075815" lon="11.9890391"><ele>374.0</ele><time>2026-04-25T09:59:39.495Z</time></trkpt><trkpt lat="44.0757206" lon="11.9890183"><ele>374.0</ele><time>2026-04-25T09:59:40.492Z</time></trkpt><trkpt lat="44.0756373" lon="11.9890142"><ele>375.2</ele><time>2026-04-25T09:59:41.495Z</time></trkpt><trkpt lat="44.0755526" lon="11.9890517"><ele>376.4</ele><time>2026-04-25T09:59:42.494Z</time></trkpt><trkpt lat="44.0754698" lon="11.9891272"><ele>377.6</ele><time>2026-04-25T09:59:43.49Z</time></trkpt><trkpt lat="44.0753794" lon="11.9892115"><ele>378.8</ele><time>2026-04-25T09:59:44.481Z</time></trkpt><trkpt lat="44.0752828" lon="11.9893246"><ele>380.0</ele><time>2026-04-25T09:59:45.49Z</time></trkpt><trkpt lat="44.0751817" lon="11.9894195"><ele>380.0</ele><time>2026-04-25T09:59:46.492Z</time></trkpt><trkpt lat="44.0750895" lon="11.9894953"><ele>380.0</ele><time>2026-04-25T09:59:47.502Z</time></trkpt><trkpt lat="44.0750033" lon="11.9895698"><ele>380.0</ele><time>2026-04-25T09:59:48.49Z</time></trkpt><trkpt lat="44.0748994" lon="11.9896471"><ele>380.0</ele><time>2026-04-25T09:59:49.485Z</time></trkpt><trkpt lat="44.0748035" lon="11.9897227"><ele>380.0</ele><time>2026-04-25T09:59:50.489Z</time></trkpt><trkpt lat="44.0747158" lon="11.989804"><ele>380.0</ele><time>2026-04-25T09:59:51.487Z</time></trkpt><trkpt lat="44.0746245" lon="11.9899103"><ele>380.0</ele><time>2026-04-25T09:59:52.529Z</time></trkpt><trkpt lat="44.0745417" lon="11.9900272"><ele>380.0</ele><time>2026-04-25T09:59:53.493Z</time></trkpt><trkpt lat="44.0744536" lon="11.9901381"><ele>380.0</ele><time>2026-04-25T09:59:54.49Z</time></trkpt><trkpt lat="44.0743672" lon="11.9902473"><ele>375.75</ele><time>2026-04-25T09:59:55.494Z</time></trkpt><trkpt lat="44.0742549" lon="11.9903574"><ele>371.5</ele><time>2026-04-25T09:59:56.482Z</time></trkpt><trkpt lat="44.0741155" lon="11.9904621"><ele>367.25</ele><time>2026-04-25T09:59:57.491Z</time></trkpt><trkpt lat="44.0739903" lon="11.990566"><ele>363.0</ele><time>2026-04-25T09:59:58.49Z</time></trkpt><trkpt lat="44.073886" lon="11.990654"><ele>363.0</ele><time>2026-04-25T09:59:59.49Z</time></trkpt><trkpt lat="44.0737799" lon="11.9907526"><ele>363.0</ele><time>2026-04-25T10:00:00.501Z</time></trkpt><trkpt lat="44.0736758" lon="11.9908452"><ele>363.0</ele><time>2026-04-25T10:00:01.493Z</time></trkpt><trkpt lat="44.0735602" lon="11.9909246"><ele>363.0</ele><time>2026-04-25T10:00:02.494Z</time></trkpt><trkpt lat="44.0734382" lon="11.9909966"><ele>359.59999999999997</ele><time>2026-04-25T10:00:03.486Z</time></trkpt><trkpt lat="44.0733257" lon="11.9910699"><ele>356.2</ele><time>2026-04-25T10:00:04.487Z</time></trkpt><trkpt lat="44.0732168" lon="11.9911289"><ele>352.8</ele><time>2026-04-25T10:00:05.481Z</time></trkpt><trkpt lat="44.0731172" lon="11.9911665"><ele>349.4</ele><time>2026-04-25T10:00:06.489Z</time></trkpt><trkpt lat="44.0730185" lon="11.9911854"><ele>346.0</ele><time>2026-04-25T10:00:07.489Z</time></trkpt><trkpt lat="44.0729236" lon="11.9911851"><ele>345.20000000000005</ele><time>2026-04-25T10:00:08.49Z</time></trkpt><trkpt lat="44.0728219" lon="11.9911602"><ele>344.40000000000003</ele><time>2026-04-25T10:00:09.496Z</time></trkpt><trkpt lat="44.0727029" lon="11.9911182"><ele>343.6</ele><time>2026-04-25T10:00:10.495Z</time></trkpt><trkpt lat="44.0725894" lon="11.9910779"><ele>342.8</ele><time>2026-04-25T10:00:11.495Z</time></trkpt><trkpt lat="44.0724861" lon="11.9910514"><ele>342.0</ele><time>2026-04-25T10:00:12.488Z</time></trkpt><trkpt lat="44.0723904" lon="11.9910279"><ele>340.40000000000003</ele><time>2026-04-25T10:00:13.497Z</time></trkpt><trkpt lat="44.0722855" lon="11.9910061"><ele>338.8</ele><time>2026-04-25T10:00:14.51Z</time></trkpt><trkpt lat="44.0721773" lon="11.9910101"><ele>337.2</ele><time>2026-04-25T10:00:15.487Z</time></trkpt><trkpt lat="44.0720756" lon="11.9910399"><ele>335.6</ele><time>2026-04-25T10:00:16.491Z</time></trkpt><trkpt lat="44.0719771" lon="11.9910813"><ele>334.0</ele><time>2026-04-25T10:00:17.487Z</time></trkpt><trkpt lat="44.071893" lon="11.991106"><ele>334.0</ele><time>2026-04-25T10:00:18.5Z</time></trkpt><trkpt lat="44.0718049" lon="11.9910968"><ele>334.0</ele><time>2026-04-25T10:00:19.491Z</time></trkpt><trkpt lat="44.0717138" lon="11.9910588"><ele>334.0</ele><time>2026-04-25T10:00:20.5Z</time></trkpt><trkpt lat="44.0716314" lon="11.990995"><ele>334.0</ele><time>2026-04-25T10:00:21.491Z</time></trkpt><trkpt lat="44.0715388" lon="11.9909447"><ele>334.0</ele><time>2026-04-25T10:00:22.485Z</time></trkpt><trkpt lat="44.0714422" lon="11.9909142"><ele>334.2</ele><time>2026-04-25T10:00:23.49Z</time></trkpt><trkpt lat="44.071353" lon="11.9909147"><ele>334.4</ele><time>2026-04-25T10:00:24.489Z</time></trkpt><trkpt lat="44.0712664" lon="11.9909441"><ele>334.6</ele><time>2026-04-25T10:00:25.496Z</time></trkpt><trkpt lat="44.071179" lon="11.991011"><ele>334.8</ele><time>2026-04-25T10:00:26.501Z</time></trkpt><trkpt lat="44.0710967" lon="11.9911047"><ele>335.0</ele><time>2026-04-25T10:00:27.504Z</time></trkpt><trkpt lat="44.071023" lon="11.9912236"><ele>335.0</ele><time>2026-04-25T10:00:28.49Z</time></trkpt><trkpt lat="44.0709626" lon="11.9913164"><ele>335.0</ele><time>2026-04-25T10:00:29.484Z</time></trkpt><trkpt lat="44.0708936" lon="11.9913958"><ele>335.0</ele><time>2026-04-25T10:00:30.493Z</time></trkpt><trkpt lat="44.0708292" lon="11.9914466"><ele>335.0</ele><time>2026-04-25T10:00:31.49Z</time></trkpt><trkpt lat="44.070741" lon="11.9914698"><ele>335.0</ele><time>2026-04-25T10:00:32.487Z</time></trkpt><trkpt lat="44.0706353" lon="11.9914921"><ele>336.4</ele><time>2026-04-25T10:00:33.501Z</time></trkpt><trkpt lat="44.0705328" lon="11.9915064"><ele>337.8</ele><time>2026-04-25T10:00:34.494Z</time></trkpt><trkpt lat="44.0704237" lon="11.9915273"><ele>339.20000000000005</ele><time>2026-04-25T10:00:35.49Z</time></trkpt><trkpt lat="44.0703108" lon="11.9915618"><ele>340.6</ele><time>2026-04-25T10:00:36.511Z</time></trkpt><trkpt lat="44.0701973" lon="11.9916175"><ele>342.0</ele><time>2026-04-25T10:00:37.485Z</time></trkpt><trkpt lat="44.0700917" lon="11.9916777"><ele>341.8</ele><time>2026-04-25T10:00:38.495Z</time></trkpt><trkpt lat="44.0699914" lon="11.9917529"><ele>341.6</ele><time>2026-04-25T10:00:39.504Z</time></trkpt><trkpt lat="44.0699045" lon="11.9918418"><ele>341.40000000000003</ele><time>2026-04-25T10:00:40.498Z</time></trkpt><trkpt lat="44.06983" lon="11.9919294"><ele>341.20000000000005</ele><time>2026-04-25T10:00:41.495Z</time></trkpt><trkpt lat="44.0697763" lon="11.9920248"><ele>341.0</ele><time>2026-04-25T10:00:42.495Z</time></trkpt><trkpt lat="44.0697302" lon="11.9921446"><ele>341.0</ele><time>2026-04-25T10:00:43.483Z</time></trkpt><trkpt lat="44.0697065" lon="11.9922707"><ele>341.0</ele><time>2026-04-25T10:00:44.498Z</time></trkpt><trkpt lat="44.0696907" lon="11.9923856"><ele>341.0</ele><time>2026-04-25T10:00:45.494Z</time></trkpt><trkpt lat="44.0696713" lon="11.992487"><ele>341.0</ele><time>2026-04-25T10:00:46.495Z</time></trkpt><trkpt lat="44.0696499" lon="11.9925794"><ele>341.0</ele><time>2026-04-25T10:00:47.49Z</time></trkpt><trkpt lat="44.069631" lon="11.9926778"><ele>341.0</ele><time>2026-04-25T10:00:48.496Z</time></trkpt><trkpt lat="44.0696116" lon="11.9927813"><ele>339.20000000000005</ele><time>2026-04-25T10:00:49.482Z</time></trkpt><trkpt lat="44.0695989" lon="11.9928974"><ele>337.40000000000003</ele><time>2026-04-25T10:00:50.494Z</time></trkpt><trkpt lat="44.0696022" lon="11.9930459"><ele>335.6</ele><time>2026-04-25T10:00:51.505Z</time></trkpt><trkpt lat="44.0695946" lon="11.9932128"><ele>333.8</ele><time>2026-04-25T10:00:52.495Z</time></trkpt><trkpt lat="44.0695913" lon="11.9933752"><ele>332.0</ele><time>2026-04-25T10:00:53.498Z</time></trkpt><trkpt lat="44.0695912" lon="11.9935501"><ele>328.75</ele><time>2026-04-25T10:00:54.491Z</time></trkpt><trkpt lat="44.0695924" lon="11.9937322"><ele>325.5</ele><time>2026-04-25T10:00:55.49Z</time></trkpt><trkpt lat="44.0695844" lon="11.9939131"><ele>322.25</ele><time>2026-04-25T10:00:56.494Z</time></trkpt><trkpt lat="44.0695762" lon="11.9940867"><ele>319.0</ele><time>2026-04-25T10:00:57.493Z</time></trkpt><trkpt lat="44.069575" lon="11.9942483"><ele>315.75</ele><time>2026-04-25T10:00:58.498Z</time></trkpt><trkpt lat="44.0695829" lon="11.994405"><ele>312.5</ele><time>2026-04-25T10:00:59.493Z</time></trkpt><trkpt lat="44.0695931" lon="11.9945524"><ele>309.25</ele><time>2026-04-25T10:01:00.505Z</time></trkpt><trkpt lat="44.0696211" lon="11.9947103"><ele>306.0</ele><time>2026-04-25T10:01:01.494Z</time></trkpt><trkpt lat="44.0696675" lon="11.9948739"><ele>303.8</ele><time>2026-04-25T10:01:02.507Z</time></trkpt><trkpt lat="44.0697316" lon="11.9950299"><ele>301.6</ele><time>2026-04-25T10:01:03.498Z</time></trkpt><trkpt lat="44.069785" lon="11.9951553"><ele>299.4</ele><time>2026-04-25T10:01:04.493Z</time></trkpt><trkpt lat="44.0698271" lon="11.99526"><ele>297.2</ele><time>2026-04-25T10:01:05.501Z</time></trkpt><trkpt lat="44.0698576" lon="11.9953549"><ele>295.0</ele><time>2026-04-25T10:01:06.494Z</time></trkpt><trkpt lat="44.0698289" lon="11.9955027"><ele>295.0</ele><time>2026-04-25T10:01:08.494Z</time></trkpt><trkpt lat="44.0697698" lon="11.9955808"><ele>295.0</ele><time>2026-04-25T10:01:09.5Z</time></trkpt><trkpt lat="44.0696931" lon="11.995639"><ele>295.0</ele><time>2026-04-25T10:01:10.503Z</time></trkpt><trkpt lat="44.0696075" lon="11.9956795"><ele>295.0</ele><time>2026-04-25T10:01:11.498Z</time></trkpt><trkpt lat="44.0695191" lon="11.9956691"><ele>295.0</ele><time>2026-04-25T10:01:12.495Z</time></trkpt><trkpt lat="44.0694521" lon="11.9956153"><ele>295.0</ele><time>2026-04-25T10:01:13.491Z</time></trkpt><trkpt lat="44.0693906" lon="11.9955417"><ele>295.0</ele><time>2026-04-25T10:01:14.504Z</time></trkpt><trkpt lat="44.0693413" lon="11.9954461"><ele>295.0</ele><time>2026-04-25T10:01:15.492Z</time></trkpt><trkpt lat="44.0692836" lon="11.9953498"><ele>295.0</ele><time>2026-04-25T10:01:16.493Z</time></trkpt><trkpt lat="44.0692038" lon="11.9952912"><ele>295.0</ele><time>2026-04-25T10:01:17.495Z</time></trkpt><trkpt lat="44.0691054" lon="11.9952781"><ele>295.0</ele><time>2026-04-25T10:01:18.492Z</time></trkpt><trkpt lat="44.0689983" lon="11.9952943"><ele>293.75</ele><time>2026-04-25T10:01:19.501Z</time></trkpt><trkpt lat="44.0688866" lon="11.9953179"><ele>292.5</ele><time>2026-04-25T10:01:20.493Z</time></trkpt><trkpt lat="44.068769" lon="11.9953124"><ele>291.25</ele><time>2026-04-25T10:01:21.488Z</time></trkpt><trkpt lat="44.0686432" lon="11.9953097"><ele>290.0</ele><time>2026-04-25T10:01:22.516Z</time></trkpt><trkpt lat="44.0685321" lon="11.9953199"><ele>290.0</ele><time>2026-04-25T10:01:23.493Z</time></trkpt><trkpt lat="44.0684215" lon="11.9953659"><ele>290.0</ele><time>2026-04-25T10:01:24.49Z</time></trkpt><trkpt lat="44.0683326" lon="11.9954148"><ele>290.0</ele><time>2026-04-25T10:01:25.499Z</time></trkpt><trkpt lat="44.0682631" lon="11.995444"><ele>290.0</ele><time>2026-04-25T10:01:26.493Z</time></trkpt><trkpt lat="44.0682168" lon="11.9955568"><ele>290.0</ele><time>2026-04-25T10:01:28.491Z</time></trkpt><trkpt lat="44.0682713" lon="11.9956664"><ele>290.0</ele><time>2026-04-25T10:01:30.505Z</time></trkpt><trkpt lat="44.0683377" lon="11.9957202"><ele>290.0</ele><time>2026-04-25T10:01:31.497Z</time></trkpt><trkpt lat="44.0684238" lon="11.9957814"><ele>290.0</ele><time>2026-04-25T10:01:32.493Z</time></trkpt><trkpt lat="44.0685259" lon="11.9958533"><ele>290.0</ele><time>2026-04-25T10:01:33.493Z</time></trkpt><trkpt lat="44.0686183" lon="11.9959283"><ele>290.0</ele><time>2026-04-25T10:01:34.503Z</time></trkpt><trkpt lat="44.0687016" lon="11.9960017"><ele>288.33333333333337</ele><time>2026-04-25T10:01:35.491Z</time></trkpt><trkpt lat="44.0687818" lon="11.9960707"><ele>286.6666666666667</ele><time>2026-04-25T10:01:36.502Z</time></trkpt><trkpt lat="44.0688543" lon="11.9961289"><ele>285.0</ele><time>2026-04-25T10:01:37.498Z</time></trkpt><trkpt lat="44.0689044" lon="11.9962096"><ele>283.3333333333333</ele><time>2026-04-25T10:01:38.512Z</time></trkpt><trkpt lat="44.0689324" lon="11.99632"><ele>281.66666666666663</ele><time>2026-04-25T10:01:39.497Z</time></trkpt><trkpt lat="44.0689424" lon="11.9964662"><ele>280.0</ele><time>2026-04-25T10:01:40.496Z</time></trkpt><trkpt lat="44.0689312" lon="11.9966413"><ele>278.5</ele><time>2026-04-25T10:01:41.497Z</time></trkpt><trkpt lat="44.0689163" lon="11.9968206"><ele>277.0</ele><time>2026-04-25T10:01:42.498Z</time></trkpt><trkpt lat="44.0689092" lon="11.9970155"><ele>275.5</ele><time>2026-04-25T10:01:43.491Z</time></trkpt><trkpt lat="44.0689233" lon="11.9972013"><ele>274.0</ele><time>2026-04-25T10:01:44.505Z</time></trkpt><trkpt lat="44.0689294" lon="11.9973794"><ele>273.2</ele><time>2026-04-25T10:01:45.487Z</time></trkpt><trkpt lat="44.0689232" lon="11.9975436"><ele>272.4</ele><time>2026-04-25T10:01:46.496Z</time></trkpt><trkpt lat="44.068918" lon="11.9976924"><ele>271.6</ele><time>2026-04-25T10:01:47.496Z</time></trkpt><trkpt lat="44.068929" lon="11.9978207"><ele>270.8</ele><time>2026-04-25T10:01:48.493Z</time></trkpt><trkpt lat="44.0689607" lon="11.9979416"><ele>270.0</ele><time>2026-04-25T10:01:49.492Z</time></trkpt><trkpt lat="44.0690063" lon="11.9980543"><ele>270.0</ele><time>2026-04-25T10:01:50.5Z</time></trkpt><trkpt lat="44.0690591" lon="11.9981576"><ele>270.0</ele><time>2026-04-25T10:01:51.492Z</time></trkpt><trkpt lat="44.0691359" lon="11.9982784"><ele>270.0</ele><time>2026-04-25T10:01:52.501Z</time></trkpt><trkpt lat="44.069235" lon="11.9984105"><ele>270.0</ele><time>2026-04-25T10:01:53.498Z</time></trkpt><trkpt lat="44.0693256" lon="11.9985361"><ele>266.8</ele><time>2026-04-25T10:01:54.506Z</time></trkpt><trkpt lat="44.0694005" lon="11.9986502"><ele>263.6</ele><time>2026-04-25T10:01:55.49Z</time></trkpt><trkpt lat="44.0694666" lon="11.9987555"><ele>260.4</ele><time>2026-04-25T10:01:56.499Z</time></trkpt><trkpt lat="44.0695321" lon="11.9988321"><ele>257.2</ele><time>2026-04-25T10:01:57.496Z</time></trkpt><trkpt lat="44.0696257" lon="11.998886"><ele>254.0</ele><time>2026-04-25T10:01:58.502Z</time></trkpt><trkpt lat="44.069736" lon="11.9989162"><ele>254.0</ele><time>2026-04-25T10:01:59.491Z</time></trkpt><trkpt lat="44.069867" lon="11.9989277"><ele>254.0</ele><time>2026-04-25T10:02:00.505Z</time></trkpt><trkpt lat="44.0700005" lon="11.9989393"><ele>254.0</ele><time>2026-04-25T10:02:01.503Z</time></trkpt><trkpt lat="44.0701281" lon="11.9989442"><ele>254.0</ele><time>2026-04-25T10:02:02.509Z</time></trkpt><trkpt lat="44.0702485" lon="11.9989381"><ele>254.39999999999998</ele><time>2026-04-25T10:02:03.497Z</time></trkpt><trkpt lat="44.0703526" lon="11.998934"><ele>254.79999999999998</ele><time>2026-04-25T10:02:04.491Z</time></trkpt><trkpt lat="44.0704386" lon="11.998926"><ele>255.20000000000002</ele><time>2026-04-25T10:02:05.492Z</time></trkpt><trkpt lat="44.0705105" lon="11.9989191"><ele>255.60000000000002</ele><time>2026-04-25T10:02:06.503Z</time></trkpt><trkpt lat="44.0706211" lon="11.9990051"><ele>256.0</ele><time>2026-04-25T10:02:08.507Z</time></trkpt><trkpt lat="44.0706398" lon="11.9991709"><ele>253.60000000000002</ele><time>2026-04-25T10:02:10.502Z</time></trkpt><trkpt lat="44.0706177" lon="11.9992758"><ele>251.20000000000002</ele><time>2026-04-25T10:02:11.489Z</time></trkpt><trkpt lat="44.0705739" lon="11.9994012"><ele>248.79999999999998</ele><time>2026-04-25T10:02:12.502Z</time></trkpt><trkpt lat="44.0705123" lon="11.9995281"><ele>246.39999999999998</ele><time>2026-04-25T10:02:13.501Z</time></trkpt><trkpt lat="44.0704316" lon="11.9996746"><ele>244.0</ele><time>2026-04-25T10:02:14.498Z</time></trkpt><trkpt lat="44.0703425" lon="11.9998301"><ele>244.0</ele><time>2026-04-25T10:02:15.49Z</time></trkpt><trkpt lat="44.0702461" lon="11.9999746"><ele>244.0</ele><time>2026-04-25T10:02:16.502Z</time></trkpt><trkpt lat="44.0701398" lon="12.0001062"><ele>244.0</ele><time>2026-04-25T10:02:17.495Z</time></trkpt><trkpt lat="44.0700351" lon="12.0002389"><ele>244.0</ele><time>2026-04-25T10:02:18.495Z</time></trkpt><trkpt lat="44.0699435" lon="12.0003574"><ele>243.99999999999997</ele><time>2026-04-25T10:02:19.492Z</time></trkpt><trkpt lat="44.0698654" lon="12.0004584"><ele>244.0</ele><time>2026-04-25T10:02:20.497Z</time></trkpt><trkpt lat="44.0698011" lon="12.0005496"><ele>244.0</ele><time>2026-04-25T10:02:21.494Z</time></trkpt><trkpt lat="44.0697564" lon="12.0006374"><ele>244.0</ele><time>2026-04-25T10:02:22.489Z</time></trkpt><trkpt lat="44.0697307" lon="12.0007445"><ele>243.99999999999997</ele><time>2026-04-25T10:02:23.492Z</time></trkpt><trkpt lat="44.0697345" lon="12.0008643"><ele>244.0</ele><time>2026-04-25T10:02:24.504Z</time></trkpt><trkpt lat="44.0697535" lon="12.0009932"><ele>241.25</ele><time>2026-04-25T10:02:25.509Z</time></trkpt><trkpt lat="44.0697878" lon="12.0011151"><ele>238.5</ele><time>2026-04-25T10:02:26.497Z</time></trkpt><trkpt lat="44.0698568" lon="12.0012477"><ele>235.75</ele><time>2026-04-25T10:02:27.492Z</time></trkpt><trkpt lat="44.0699265" lon="12.0013924"><ele>233.0</ele><time>2026-04-25T10:02:28.501Z</time></trkpt><trkpt lat="44.0699985" lon="12.0015414"><ele>230.0</ele><time>2026-04-25T10:02:29.501Z</time></trkpt><trkpt lat="44.0700712" lon="12.0016856"><ele>227.0</ele><time>2026-04-25T10:02:30.492Z</time></trkpt><trkpt lat="44.0701467" lon="12.0018251"><ele>224.0</ele><time>2026-04-25T10:02:31.494Z</time></trkpt><trkpt lat="44.070221" lon="12.0019606"><ele>221.0</ele><time>2026-04-25T10:02:32.494Z</time></trkpt><trkpt lat="44.0702939" lon="12.0021024"><ele>221.0</ele><time>2026-04-25T10:02:33.494Z</time></trkpt><trkpt lat="44.070376" lon="12.0022606"><ele>221.0</ele><time>2026-04-25T10:02:34.488Z</time></trkpt><trkpt lat="44.0704616" lon="12.0024316"><ele>221.0</ele><time>2026-04-25T10:02:35.493Z</time></trkpt><trkpt lat="44.0705414" lon="12.0025952"><ele>221.0</ele><time>2026-04-25T10:02:36.513Z</time></trkpt><trkpt lat="44.0706096" lon="12.0027446"><ele>218.25</ele><time>2026-04-25T10:02:37.494Z</time></trkpt><trkpt lat="44.0706798" lon="12.0028846"><ele>215.5</ele><time>2026-04-25T10:02:38.494Z</time></trkpt><trkpt lat="44.0707486" lon="12.003018"><ele>212.75</ele><time>2026-04-25T10:02:39.504Z</time></trkpt><trkpt lat="44.0708137" lon="12.0031429"><ele>210.0</ele><time>2026-04-25T10:02:40.509Z</time></trkpt><trkpt lat="44.0708682" lon="12.0032783"><ele>208.0</ele><time>2026-04-25T10:02:41.503Z</time></trkpt><trkpt lat="44.0709014" lon="12.003432"><ele>206.0</ele><time>2026-04-25T10:02:42.507Z</time></trkpt><trkpt lat="44.0709328" lon="12.0036085"><ele>204.0</ele><time>2026-04-25T10:02:43.503Z</time></trkpt><trkpt lat="44.0709707" lon="12.0037988"><ele>202.0</ele><time>2026-04-25T10:02:44.492Z</time></trkpt><trkpt lat="44.0710071" lon="12.0039834"><ele>199.5</ele><time>2026-04-25T10:02:45.496Z</time></trkpt><trkpt lat="44.0710389" lon="12.0041647"><ele>197.0</ele><time>2026-04-25T10:02:46.498Z</time></trkpt><trkpt lat="44.0710695" lon="12.0043432"><ele>194.5</ele><time>2026-04-25T10:02:47.494Z</time></trkpt><trkpt lat="44.0710995" lon="12.0045223"><ele>192.0</ele><time>2026-04-25T10:02:48.504Z</time></trkpt><trkpt lat="44.0711343" lon="12.0046937"><ele>192.0</ele><time>2026-04-25T10:02:49.499Z</time></trkpt><trkpt lat="44.071186" lon="12.0048751"><ele>192.0</ele><time>2026-04-25T10:02:50.502Z</time></trkpt><trkpt lat="44.0712369" lon="12.0050552"><ele>192.0</ele><time>2026-04-25T10:02:51.499Z</time></trkpt><trkpt lat="44.0712802" lon="12.0052107"><ele>192.0</ele><time>2026-04-25T10:02:52.489Z</time></trkpt><trkpt lat="44.071324" lon="12.0053558"><ele>189.8</ele><time>2026-04-25T10:02:53.498Z</time></trkpt><trkpt lat="44.07136" lon="12.0054819"><ele>187.6</ele><time>2026-04-25T10:02:54.511Z</time></trkpt><trkpt lat="44.0714005" lon="12.0055962"><ele>185.4</ele><time>2026-04-25T10:02:55.491Z</time></trkpt><trkpt lat="44.0714298" lon="12.0056868"><ele>183.20000000000002</ele><time>2026-04-25T10:02:56.499Z</time></trkpt><trkpt lat="44.0714315" lon="12.0057776"><ele>181.0</ele><time>2026-04-25T10:02:57.492Z</time></trkpt><trkpt lat="44.0713408" lon="12.0059043"><ele>179.20000000000002</ele><time>2026-04-25T10:02:59.489Z</time></trkpt><trkpt lat="44.0712697" lon="12.0059276"><ele>177.4</ele><time>2026-04-25T10:03:00.514Z</time></trkpt><trkpt lat="44.0711651" lon="12.0059058"><ele>175.6</ele><time>2026-04-25T10:03:01.503Z</time></trkpt><trkpt lat="44.0710391" lon="12.0058913"><ele>173.8</ele><time>2026-04-25T10:03:02.515Z</time></trkpt><trkpt lat="44.0709268" lon="12.0058846"><ele>172.0</ele><time>2026-04-25T10:03:03.496Z</time></trkpt><trkpt lat="44.0708303" lon="12.0058643"><ele>173.6</ele><time>2026-04-25T10:03:04.502Z</time></trkpt><trkpt lat="44.0707338" lon="12.0058427"><ele>175.2</ele><time>2026-04-25T10:03:05.501Z</time></trkpt><trkpt lat="44.0706353" lon="12.0058374"><ele>176.8</ele><time>2026-04-25T10:03:06.501Z</time></trkpt><trkpt lat="44.0705396" lon="12.0058663"><ele>178.4</ele><time>2026-04-25T10:03:07.51Z</time></trkpt><trkpt lat="44.0704393" lon="12.0059277"><ele>180.0</ele><time>2026-04-25T10:03:08.508Z</time></trkpt><trkpt lat="44.0703306" lon="12.0060091"><ele>180.0</ele><time>2026-04-25T10:03:09.511Z</time></trkpt><trkpt lat="44.0702308" lon="12.0060796"><ele>180.0</ele><time>2026-04-25T10:03:10.502Z</time></trkpt><trkpt lat="44.0701653" lon="12.0061367"><ele>180.0</ele><time>2026-04-25T10:03:11.488Z</time></trkpt><trkpt lat="44.0701194" lon="12.0062052"><ele>180.0</ele><time>2026-04-25T10:03:12.484Z</time></trkpt><trkpt lat="44.0701469" lon="12.0063707"><ele>180.0</ele><time>2026-04-25T10:03:14.511Z</time></trkpt><trkpt lat="44.0702074" lon="12.0064394"><ele>180.0</ele><time>2026-04-25T10:03:15.486Z</time></trkpt><trkpt lat="44.0702855" lon="12.0064906"><ele>180.0</ele><time>2026-04-25T10:03:16.502Z</time></trkpt><trkpt lat="44.0703677" lon="12.0065525"><ele>180.0</ele><time>2026-04-25T10:03:17.501Z</time></trkpt><trkpt lat="44.0704311" lon="12.0066537"><ele>180.0</ele><time>2026-04-25T10:03:18.506Z</time></trkpt><trkpt lat="44.0704844" lon="12.0067692"><ele>180.0</ele><time>2026-04-25T10:03:19.499Z</time></trkpt><trkpt lat="44.0705232" lon="12.0068902"><ele>181.0</ele><time>2026-04-25T10:03:20.5Z</time></trkpt><trkpt lat="44.0705408" lon="12.0070014"><ele>182.0</ele><time>2026-04-25T10:03:21.496Z</time></trkpt><trkpt lat="44.0705369" lon="12.007119"><ele>183.0</ele><time>2026-04-25T10:03:22.5Z</time></trkpt><trkpt lat="44.0705101" lon="12.0072539"><ele>184.0</ele><time>2026-04-25T10:03:23.502Z</time></trkpt><trkpt lat="44.0704507" lon="12.0073872"><ele>185.0</ele><time>2026-04-25T10:03:24.511Z</time></trkpt><trkpt lat="44.0703884" lon="12.0075211"><ele>186.75</ele><time>2026-04-25T10:03:25.488Z</time></trkpt><trkpt lat="44.0703423" lon="12.0076702"><ele>188.5</ele><time>2026-04-25T10:03:26.502Z</time></trkpt><trkpt lat="44.0703066" lon="12.0078381"><ele>190.25</ele><time>2026-04-25T10:03:27.497Z</time></trkpt><trkpt lat="44.070262" lon="12.0079961"><ele>192.0</ele><time>2026-04-25T10:03:28.499Z</time></trkpt><trkpt lat="44.0702124" lon="12.0081445"><ele>192.0</ele><time>2026-04-25T10:03:29.501Z</time></trkpt><trkpt lat="44.070148" lon="12.0083066"><ele>192.0</ele><time>2026-04-25T10:03:30.494Z</time></trkpt><trkpt lat="44.07007" lon="12.0084646"><ele>192.0</ele><time>2026-04-25T10:03:31.486Z</time></trkpt><trkpt lat="44.0700046" lon="12.0086042"><ele>192.0</ele><time>2026-04-25T10:03:32.501Z</time></trkpt><trkpt lat="44.0699534" lon="12.0087444"><ele>196.0</ele><time>2026-04-25T10:03:33.493Z</time></trkpt><trkpt lat="44.0699225" lon="12.0088826"><ele>200.0</ele><time>2026-04-25T10:03:34.494Z</time></trkpt><trkpt lat="44.069905" lon="12.0090324"><ele>204.0</ele><time>2026-04-25T10:03:35.505Z</time></trkpt><trkpt lat="44.0698794" lon="12.0091921"><ele>208.0</ele><time>2026-04-25T10:03:36.503Z</time></trkpt><trkpt lat="44.0698425" lon="12.0093599"><ele>208.25</ele><time>2026-04-25T10:03:37.503Z</time></trkpt><trkpt lat="44.0697895" lon="12.0095089"><ele>208.5</ele><time>2026-04-25T10:03:38.508Z</time></trkpt><trkpt lat="44.0697285" lon="12.0096604"><ele>208.75</ele><time>2026-04-25T10:03:39.514Z</time></trkpt><trkpt lat="44.0696639" lon="12.0098085"><ele>209.0</ele><time>2026-04-25T10:03:40.502Z</time></trkpt><trkpt lat="44.0696036" lon="12.0099244"><ele>209.0</ele><time>2026-04-25T10:03:41.51Z</time></trkpt><trkpt lat="44.0695467" lon="12.0099907"><ele>209.0</ele><time>2026-04-25T10:03:42.509Z</time></trkpt><trkpt lat="44.0694301" lon="12.0100411"><ele>209.0</ele><time>2026-04-25T10:03:44.493Z</time></trkpt><trkpt lat="44.0693507" lon="12.0100207"><ele>209.0</ele><time>2026-04-25T10:03:45.507Z</time></trkpt><trkpt lat="44.0692628" lon="12.0099869"><ele>209.0</ele><time>2026-04-25T10:03:46.506Z</time></trkpt><trkpt lat="44.0691602" lon="12.0099546"><ele>212.39999999999998</ele><time>2026-04-25T10:03:47.504Z</time></trkpt><trkpt lat="44.0690609" lon="12.0099415"><ele>215.8</ele><time>2026-04-25T10:03:48.503Z</time></trkpt><trkpt lat="44.0689755" lon="12.0099745"><ele>219.20000000000002</ele><time>2026-04-25T10:03:49.495Z</time></trkpt><trkpt lat="44.068883" lon="12.0100347"><ele>222.60000000000002</ele><time>2026-04-25T10:03:50.495Z</time></trkpt><trkpt lat="44.0688146" lon="12.0101364"><ele>226.0</ele><time>2026-04-25T10:03:51.491Z</time></trkpt><trkpt lat="44.0687497" lon="12.0102626"><ele>226.0</ele><time>2026-04-25T10:03:52.509Z</time></trkpt><trkpt lat="44.0686603" lon="12.0104016"><ele>226.0</ele><time>2026-04-25T10:03:53.494Z</time></trkpt><trkpt lat="44.068568" lon="12.0105277"><ele>226.0</ele><time>2026-04-25T10:03:54.498Z</time></trkpt><trkpt lat="44.0684894" lon="12.0106389"><ele>226.0</ele><time>2026-04-25T10:03:55.489Z</time></trkpt><trkpt lat="44.0684321" lon="12.0107295"><ele>225.99999999999997</ele><time>2026-04-25T10:03:56.493Z</time></trkpt><trkpt lat="44.0683853" lon="12.0108058"><ele>226.0</ele><time>2026-04-25T10:03:57.51Z</time></trkpt><trkpt lat="44.0683342" lon="12.0109084"><ele>226.0</ele><time>2026-04-25T10:03:59.499Z</time></trkpt><trkpt lat="44.0682931" lon="12.0109813"><ele>226.0</ele><time>2026-04-25T10:04:22.497Z</time></trkpt><trkpt lat="44.0682202" lon="12.0111322"><ele>225.99999999999997</ele><time>2026-04-25T10:04:24.508Z</time></trkpt><trkpt lat="44.0681878" lon="12.0112376"><ele>226.0</ele><time>2026-04-25T10:04:25.506Z</time></trkpt><trkpt lat="44.06817" lon="12.0113365"><ele>227.20000000000002</ele><time>2026-04-25T10:04:26.489Z</time></trkpt><trkpt lat="44.0681509" lon="12.011434"><ele>228.40000000000003</ele><time>2026-04-25T10:04:27.501Z</time></trkpt><trkpt lat="44.0681353" lon="12.0115447"><ele>229.6</ele><time>2026-04-25T10:04:28.497Z</time></trkpt><trkpt lat="44.0681158" lon="12.0116817"><ele>230.8</ele><time>2026-04-25T10:04:29.497Z</time></trkpt><trkpt lat="44.0680875" lon="12.0118322"><ele>232.0</ele><time>2026-04-25T10:04:30.501Z</time></trkpt><trkpt lat="44.0680544" lon="12.0119911"><ele>232.0</ele><time>2026-04-25T10:04:31.5Z</time></trkpt><trkpt lat="44.0680204" lon="12.0121592"><ele>232.0</ele><time>2026-04-25T10:04:32.497Z</time></trkpt><trkpt lat="44.067989" lon="12.0123306"><ele>232.0</ele><time>2026-04-25T10:04:33.506Z</time></trkpt><trkpt lat="44.0679595" lon="12.0124924"><ele>232.0</ele><time>2026-04-25T10:04:34.502Z</time></trkpt><trkpt lat="44.0679237" lon="12.0126361"><ele>231.25</ele><time>2026-04-25T10:04:35.493Z</time></trkpt><trkpt lat="44.0678819" lon="12.0127694"><ele>230.5</ele><time>2026-04-25T10:04:36.499Z</time></trkpt><trkpt lat="44.0678268" lon="12.0128957"><ele>229.75</ele><time>2026-04-25T10:04:37.498Z</time></trkpt><trkpt lat="44.0677556" lon="12.0130401"><ele>229.0</ele><time>2026-04-25T10:04:38.494Z</time></trkpt><trkpt lat="44.067669" lon="12.01318"><ele>227.66666666666666</ele><time>2026-04-25T10:04:39.495Z</time></trkpt><trkpt lat="44.0675743" lon="12.013335"><ele>226.33333333333331</ele><time>2026-04-25T10:04:40.515Z</time></trkpt><trkpt lat="44.0674646" lon="12.0135146"><ele>225.0</ele><time>2026-04-25T10:04:41.5Z</time></trkpt><trkpt lat="44.0673427" lon="12.0137019"><ele>227.66666666666669</ele><time>2026-04-25T10:04:42.5Z</time></trkpt><trkpt lat="44.0672194" lon="12.0138889"><ele>230.33333333333334</ele><time>2026-04-25T10:04:43.497Z</time></trkpt><trkpt lat="44.0671065" lon="12.0140761"><ele>233.0</ele><time>2026-04-25T10:04:44.494Z</time></trkpt><trkpt lat="44.0670031" lon="12.0142433"><ele>233.2</ele><time>2026-04-25T10:04:45.488Z</time></trkpt><trkpt lat="44.0669125" lon="12.0143957"><ele>233.4</ele><time>2026-04-25T10:04:46.495Z</time></trkpt><trkpt lat="44.0668338" lon="12.0145224"><ele>233.59999999999997</ele><time>2026-04-25T10:04:47.502Z</time></trkpt><trkpt lat="44.0667686" lon="12.0146286"><ele>233.79999999999998</ele><time>2026-04-25T10:04:48.496Z</time></trkpt><trkpt lat="44.0667207" lon="12.0147251"><ele>234.0</ele><time>2026-04-25T10:04:49.505Z</time></trkpt><trkpt lat="44.066679" lon="12.0148015"><ele>234.0</ele><time>2026-04-25T10:04:50.496Z</time></trkpt><trkpt lat="44.0666147" lon="12.0149316"><ele>233.99999999999997</ele><time>2026-04-25T10:04:52.489Z</time></trkpt><trkpt lat="44.0665888" lon="12.0150975"><ele>233.99999999999997</ele><time>2026-04-25T10:04:54.496Z</time></trkpt><trkpt lat="44.0666205" lon="12.0151818"><ele>234.0</ele><time>2026-04-25T10:04:55.49Z</time></trkpt><trkpt lat="44.0666766" lon="12.015244"><ele>234.0</ele><time>2026-04-25T10:04:56.508Z</time></trkpt><trkpt lat="44.0667396" lon="12.0153136"><ele>233.79999999999998</ele><time>2026-04-25T10:04:57.496Z</time></trkpt><trkpt lat="44.0668" lon="12.0153986"><ele>233.59999999999997</ele><time>2026-04-25T10:04:58.507Z</time></trkpt><trkpt lat="44.0668743" lon="12.0155061"><ele>233.4</ele><time>2026-04-25T10:04:59.508Z</time></trkpt><trkpt lat="44.0669576" lon="12.0156238"><ele>233.2</ele><time>2026-04-25T10:05:00.496Z</time></trkpt><trkpt lat="44.0670394" lon="12.0157307"><ele>233.0</ele><time>2026-04-25T10:05:01.517Z</time></trkpt><trkpt lat="44.0671254" lon="12.0158309"><ele>230.60000000000002</ele><time>2026-04-25T10:05:02.509Z</time></trkpt><trkpt lat="44.0672161" lon="12.0159078"><ele>228.20000000000002</ele><time>2026-04-25T10:05:03.495Z</time></trkpt><trkpt lat="44.0673025" lon="12.0159817"><ele>225.8</ele><time>2026-04-25T10:05:04.512Z</time></trkpt><trkpt lat="44.067382" lon="12.0160569"><ele>223.4</ele><time>2026-04-25T10:05:05.501Z</time></trkpt><trkpt lat="44.0674653" lon="12.0161402"><ele>221.0</ele><time>2026-04-25T10:05:06.51Z</time></trkpt><trkpt lat="44.0675443" lon="12.0162433"><ele>221.0</ele><time>2026-04-25T10:05:07.497Z</time></trkpt><trkpt lat="44.0676187" lon="12.0163561"><ele>221.00000000000003</ele><time>2026-04-25T10:05:08.491Z</time></trkpt><trkpt lat="44.0676853" lon="12.0164713"><ele>221.00000000000003</ele><time>2026-04-25T10:05:09.509Z</time></trkpt><trkpt lat="44.0677453" lon="12.0166117"><ele>221.0</ele><time>2026-04-25T10:05:10.513Z</time></trkpt><trkpt lat="44.0677945" lon="12.0167536"><ele>221.0</ele><time>2026-04-25T10:05:11.504Z</time></trkpt><trkpt lat="44.0678246" lon="12.0168959"><ele>219.8</ele><time>2026-04-25T10:05:12.508Z</time></trkpt><trkpt lat="44.0678479" lon="12.0170422"><ele>218.60000000000002</ele><time>2026-04-25T10:05:13.494Z</time></trkpt><trkpt lat="44.0678694" lon="12.0171844"><ele>217.4</ele><time>2026-04-25T10:05:14.491Z</time></trkpt><trkpt lat="44.0678884" lon="12.0173289"><ele>216.2</ele><time>2026-04-25T10:05:15.493Z</time></trkpt><trkpt lat="44.067907" lon="12.0174634"><ele>215.0</ele><time>2026-04-25T10:05:16.492Z</time></trkpt><trkpt lat="44.067921" lon="12.0175798"><ele>212.85714285714286</ele><time>2026-04-25T10:05:17.506Z</time></trkpt><trkpt lat="44.0679397" lon="12.0176868"><ele>210.71428571428572</ele><time>2026-04-25T10:05:18.482Z</time></trkpt><trkpt lat="44.0679715" lon="12.0177757"><ele>208.57142857142858</ele><time>2026-04-25T10:05:19.502Z</time></trkpt><trkpt lat="44.0680232" lon="12.0178402"><ele>206.42857142857144</ele><time>2026-04-25T10:05:20.497Z</time></trkpt><trkpt lat="44.0680867" lon="12.0178633"><ele>204.28571428571428</ele><time>2026-04-25T10:05:21.501Z</time></trkpt><trkpt lat="44.0681515" lon="12.017871"><ele>202.14285714285717</ele><time>2026-04-25T10:05:22.49Z</time></trkpt><trkpt lat="44.0682124" lon="12.0179029"><ele>200.0</ele><time>2026-04-25T10:05:23.494Z</time></trkpt><trkpt lat="44.0682145" lon="12.0180591"><ele>200.0</ele><time>2026-04-25T10:05:25.493Z</time></trkpt><trkpt lat="44.0681612" lon="12.0181221"><ele>200.0</ele><time>2026-04-25T10:05:26.493Z</time></trkpt><trkpt lat="44.068084" lon="12.0181625"><ele>200.0</ele><time>2026-04-25T10:05:27.491Z</time></trkpt><trkpt lat="44.0679973" lon="12.018177"><ele>200.0</ele><time>2026-04-25T10:05:28.492Z</time></trkpt><trkpt lat="44.0678915" lon="12.0181646"><ele>200.0</ele><time>2026-04-25T10:05:29.487Z</time></trkpt><trkpt lat="44.0677902" lon="12.0181323"><ele>200.0</ele><time>2026-04-25T10:05:30.489Z</time></trkpt><trkpt lat="44.0676959" lon="12.0180816"><ele>200.0</ele><time>2026-04-25T10:05:31.492Z</time></trkpt><trkpt lat="44.0675907" lon="12.018007"><ele>200.0</ele><time>2026-04-25T10:05:32.495Z</time></trkpt><trkpt lat="44.0674831" lon="12.017923"><ele>200.0</ele><time>2026-04-25T10:05:33.503Z</time></trkpt><trkpt lat="44.0673898" lon="12.017851"><ele>200.0</ele><time>2026-04-25T10:05:34.503Z</time></trkpt><trkpt lat="44.0672968" lon="12.0177904"><ele>196.75</ele><time>2026-04-25T10:05:35.493Z</time></trkpt><trkpt lat="44.0672004" lon="12.0177423"><ele>193.5</ele><time>2026-04-25T10:05:36.501Z</time></trkpt><trkpt lat="44.0670939" lon="12.0176976"><ele>190.25</ele><time>2026-04-25T10:05:37.484Z</time></trkpt><trkpt lat="44.0669777" lon="12.0176709"><ele>187.0</ele><time>2026-04-25T10:05:38.493Z</time></trkpt><trkpt lat="44.0668462" lon="12.0176513"><ele>187.0</ele><time>2026-04-25T10:05:39.492Z</time></trkpt><trkpt lat="44.066711" lon="12.0176298"><ele>187.0</ele><time>2026-04-25T10:05:40.51Z</time></trkpt><trkpt lat="44.0665779" lon="12.0176082"><ele>187.0</ele><time>2026-04-25T10:05:41.502Z</time></trkpt><trkpt lat="44.066441" lon="12.017589"><ele>187.0</ele><time>2026-04-25T10:05:42.493Z</time></trkpt><trkpt lat="44.0663044" lon="12.0175676"><ele>185.2</ele><time>2026-04-25T10:05:43.502Z</time></trkpt><trkpt lat="44.066183" lon="12.0175481"><ele>183.39999999999998</ele><time>2026-04-25T10:05:44.487Z</time></trkpt><trkpt lat="44.0660783" lon="12.0175326"><ele>181.60000000000002</ele><time>2026-04-25T10:05:45.486Z</time></trkpt><trkpt lat="44.0659844" lon="12.0175338"><ele>179.8</ele><time>2026-04-25T10:05:46.479Z</time></trkpt><trkpt lat="44.065898" lon="12.0175523"><ele>178.0</ele><time>2026-04-25T10:05:47.501Z</time></trkpt><trkpt lat="44.0658203" lon="12.0175702"><ele>177.16666666666669</ele><time>2026-04-25T10:05:48.494Z</time></trkpt><trkpt lat="44.0657416" lon="12.0176006"><ele>176.33333333333334</ele><time>2026-04-25T10:05:49.501Z</time></trkpt><trkpt lat="44.0656659" lon="12.0176462"><ele>175.5</ele><time>2026-04-25T10:05:50.497Z</time></trkpt><trkpt lat="44.0656082" lon="12.0177022"><ele>174.66666666666666</ele><time>2026-04-25T10:05:51.509Z</time></trkpt><trkpt lat="44.0655653" lon="12.0177895"><ele>173.83333333333331</ele><time>2026-04-25T10:05:52.506Z</time></trkpt><trkpt lat="44.0655351" lon="12.0178988"><ele>173.0</ele><time>2026-04-25T10:05:53.493Z</time></trkpt><trkpt lat="44.0655078" lon="12.0180159"><ele>173.0</ele><time>2026-04-25T10:05:54.482Z</time></trkpt><trkpt lat="44.0654866" lon="12.0181139"><ele>173.0</ele><time>2026-04-25T10:05:55.488Z</time></trkpt><trkpt lat="44.0654455" lon="12.018201"><ele>173.0</ele><time>2026-04-25T10:05:56.5Z</time></trkpt><trkpt lat="44.0653836" lon="12.0182762"><ele>173.0</ele><time>2026-04-25T10:05:57.488Z</time></trkpt><trkpt lat="44.065322" lon="12.0183418"><ele>173.0</ele><time>2026-04-25T10:05:58.493Z</time></trkpt><trkpt lat="44.0652493" lon="12.0183956"><ele>173.0</ele><time>2026-04-25T10:05:59.502Z</time></trkpt><trkpt lat="44.0651818" lon="12.0184419"><ele>171.16666666666666</ele><time>2026-04-25T10:06:00.498Z</time></trkpt><trkpt lat="44.0651246" lon="12.0185009"><ele>169.33333333333331</ele><time>2026-04-25T10:06:01.489Z</time></trkpt><trkpt lat="44.0650789" lon="12.0185797"><ele>167.5</ele><time>2026-04-25T10:06:02.501Z</time></trkpt><trkpt lat="44.0650718" lon="12.0187591"><ele>165.66666666666666</ele><time>2026-04-25T10:06:04.49Z</time></trkpt><trkpt lat="44.0651151" lon="12.0188398"><ele>163.83333333333334</ele><time>2026-04-25T10:06:05.506Z</time></trkpt><trkpt lat="44.0651641" lon="12.0189289"><ele>162.0</ele><time>2026-04-25T10:06:06.494Z</time></trkpt><trkpt lat="44.0652287" lon="12.019022"><ele>162.0</ele><time>2026-04-25T10:06:07.488Z</time></trkpt><trkpt lat="44.0653092" lon="12.0191082"><ele>162.0</ele><time>2026-04-25T10:06:08.511Z</time></trkpt><trkpt lat="44.065396" lon="12.0191945"><ele>162.0</ele><time>2026-04-25T10:06:09.488Z</time></trkpt><trkpt lat="44.0654746" lon="12.0192757"><ele>162.0</ele><time>2026-04-25T10:06:10.494Z</time></trkpt><trkpt lat="44.0655515" lon="12.0193601"><ele>162.0</ele><time>2026-04-25T10:06:11.503Z</time></trkpt><trkpt lat="44.0656286" lon="12.0194386"><ele>160.79999999999998</ele><time>2026-04-25T10:06:12.509Z</time></trkpt><trkpt lat="44.0657146" lon="12.0195236"><ele>159.6</ele><time>2026-04-25T10:06:13.491Z</time></trkpt><trkpt lat="44.0658007" lon="12.0196053"><ele>158.39999999999998</ele><time>2026-04-25T10:06:14.52Z</time></trkpt><trkpt lat="44.0658892" lon="12.0196926"><ele>157.2</ele><time>2026-04-25T10:06:15.498Z</time></trkpt><trkpt lat="44.0659782" lon="12.0197823"><ele>156.0</ele><time>2026-04-25T10:06:16.498Z</time></trkpt><trkpt lat="44.066067" lon="12.0198786"><ele>156.0</ele><time>2026-04-25T10:06:17.495Z</time></trkpt><trkpt lat="44.066141" lon="12.0199695"><ele>156.0</ele><time>2026-04-25T10:06:18.49Z</time></trkpt><trkpt lat="44.0662106" lon="12.0200572"><ele>156.0</ele><time>2026-04-25T10:06:19.491Z</time></trkpt><trkpt lat="44.0662758" lon="12.0201446"><ele>156.0</ele><time>2026-04-25T10:06:20.488Z</time></trkpt><trkpt lat="44.0663401" lon="12.0202303"><ele>156.0</ele><time>2026-04-25T10:06:21.498Z</time></trkpt><trkpt lat="44.0664003" lon="12.0203071"><ele>154.33333333333334</ele><time>2026-04-25T10:06:22.509Z</time></trkpt><trkpt lat="44.0664528" lon="12.020384"><ele>152.66666666666666</ele><time>2026-04-25T10:06:23.503Z</time></trkpt><trkpt lat="44.0664919" lon="12.0204598"><ele>151.0</ele><time>2026-04-25T10:06:24.499Z</time></trkpt><trkpt lat="44.0665159" lon="12.0205608"><ele>149.33333333333331</ele><time>2026-04-25T10:06:25.503Z</time></trkpt><trkpt lat="44.0665071" lon="12.020669"><ele>147.66666666666666</ele><time>2026-04-25T10:06:26.496Z</time></trkpt><trkpt lat="44.066473" lon="12.0207658"><ele>146.0</ele><time>2026-04-25T10:06:27.496Z</time></trkpt><trkpt lat="44.0664185" lon="12.0208402"><ele>143.4</ele><time>2026-04-25T10:06:28.499Z</time></trkpt><trkpt lat="44.0663484" lon="12.0208786"><ele>140.8</ele><time>2026-04-25T10:06:29.491Z</time></trkpt><trkpt lat="44.0662647" lon="12.0209182"><ele>138.20000000000002</ele><time>2026-04-25T10:06:30.493Z</time></trkpt><trkpt lat="44.0661669" lon="12.0209415"><ele>135.6</ele><time>2026-04-25T10:06:31.494Z</time></trkpt><trkpt lat="44.0660677" lon="12.0209578"><ele>133.0</ele><time>2026-04-25T10:06:32.507Z</time></trkpt><trkpt lat="44.0659572" lon="12.0209694"><ele>133.0</ele><time>2026-04-25T10:06:33.488Z</time></trkpt><trkpt lat="44.0658437" lon="12.0209852"><ele>133.0</ele><time>2026-04-25T10:06:34.494Z</time></trkpt><trkpt lat="44.0657376" lon="12.0209991"><ele>133.0</ele><time>2026-04-25T10:06:35.489Z</time></trkpt><trkpt lat="44.0656378" lon="12.0210156"><ele>133.0</ele><time>2026-04-25T10:06:36.495Z</time></trkpt><trkpt lat="44.0655382" lon="12.0210326"><ele>133.0</ele><time>2026-04-25T10:06:37.504Z</time></trkpt><trkpt lat="44.0654339" lon="12.0210333"><ele>132.25</ele><time>2026-04-25T10:06:38.496Z</time></trkpt><trkpt lat="44.0653313" lon="12.0210302"><ele>131.5</ele><time>2026-04-25T10:06:39.496Z</time></trkpt><trkpt lat="44.065221" lon="12.0210141"><ele>130.75</ele><time>2026-04-25T10:06:40.502Z</time></trkpt><trkpt lat="44.0651083" lon="12.0209744"><ele>130.0</ele><time>2026-04-25T10:06:41.514Z</time></trkpt><trkpt lat="44.0649913" lon="12.0209311"><ele>130.25</ele><time>2026-04-25T10:06:42.495Z</time></trkpt><trkpt lat="44.0648654" lon="12.0208944"><ele>130.5</ele><time>2026-04-25T10:06:43.504Z</time></trkpt><trkpt lat="44.0647464" lon="12.0208536"><ele>130.75</ele><time>2026-04-25T10:06:44.5Z</time></trkpt><trkpt lat="44.0646325" lon="12.0208148"><ele>131.0</ele><time>2026-04-25T10:06:45.503Z</time></trkpt><trkpt lat="44.0645143" lon="12.0207715"><ele>131.0</ele><time>2026-04-25T10:06:46.496Z</time></trkpt><trkpt lat="44.0643816" lon="12.020737"><ele>131.0</ele><time>2026-04-25T10:06:47.501Z</time></trkpt><trkpt lat="44.0642396" lon="12.0206921"><ele>131.0</ele><time>2026-04-25T10:06:48.495Z</time></trkpt><trkpt lat="44.0640989" lon="12.0206494"><ele>131.0</ele><time>2026-04-25T10:06:49.498Z</time></trkpt><trkpt lat="44.0639603" lon="12.020608"><ele>129.0</ele><time>2026-04-25T10:06:50.493Z</time></trkpt><trkpt lat="44.0638273" lon="12.0205721"><ele>127.0</ele><time>2026-04-25T10:06:51.484Z</time></trkpt><trkpt lat="44.0637053" lon="12.0205424"><ele>125.0</ele><time>2026-04-25T10:06:52.509Z</time></trkpt><trkpt lat="44.063589" lon="12.0205113"><ele>123.0</ele><time>2026-04-25T10:06:53.501Z</time></trkpt><trkpt lat="44.0634874" lon="12.0204831"><ele>123.0</ele><time>2026-04-25T10:06:54.499Z</time></trkpt><trkpt lat="44.0633956" lon="12.0204531"><ele>123.0</ele><time>2026-04-25T10:06:55.487Z</time></trkpt><trkpt lat="44.0633071" lon="12.0204264"><ele>123.0</ele><time>2026-04-25T10:06:56.506Z</time></trkpt><trkpt lat="44.0632284" lon="12.0204096"><ele>123.0</ele><time>2026-04-25T10:06:57.493Z</time></trkpt><trkpt lat="44.0631478" lon="12.0204297"><ele>123.0</ele><time>2026-04-25T10:06:58.507Z</time></trkpt><trkpt lat="44.0630766" lon="12.0204913"><ele>123.0</ele><time>2026-04-25T10:06:59.494Z</time></trkpt><trkpt lat="44.063019" lon="12.0205693"><ele>121.60000000000001</ele><time>2026-04-25T10:07:00.492Z</time></trkpt><trkpt lat="44.062965" lon="12.0206756"><ele>120.20000000000002</ele><time>2026-04-25T10:07:01.497Z</time></trkpt><trkpt lat="44.0629127" lon="12.0207882"><ele>118.8</ele><time>2026-04-25T10:07:02.499Z</time></trkpt><trkpt lat="44.0628548" lon="12.0209014"><ele>117.4</ele><time>2026-04-25T10:07:03.493Z</time></trkpt><trkpt lat="44.0627952" lon="12.0210161"><ele>116.0</ele><time>2026-04-25T10:07:04.511Z</time></trkpt><trkpt lat="44.0627398" lon="12.0211218"><ele>115.16666666666666</ele><time>2026-04-25T10:07:05.488Z</time></trkpt><trkpt lat="44.0626848" lon="12.0212176"><ele>114.33333333333333</ele><time>2026-04-25T10:07:06.496Z</time></trkpt><trkpt lat="44.0626234" lon="12.0212814"><ele>113.5</ele><time>2026-04-25T10:07:07.498Z</time></trkpt><trkpt lat="44.0625498" lon="12.0213118"><ele>112.66666666666666</ele><time>2026-04-25T10:07:08.503Z</time></trkpt><trkpt lat="44.0624731" lon="12.0212949"><ele>111.83333333333333</ele><time>2026-04-25T10:07:09.506Z</time></trkpt><trkpt lat="44.0623979" lon="12.0212476"><ele>111.0</ele><time>2026-04-25T10:07:10.501Z</time></trkpt><trkpt lat="44.0623341" lon="12.0211793"><ele>110.4</ele><time>2026-04-25T10:07:11.496Z</time></trkpt><trkpt lat="44.0622489" lon="12.0211037"><ele>109.8</ele><time>2026-04-25T10:07:12.494Z</time></trkpt><trkpt lat="44.0621577" lon="12.0210326"><ele>109.20000000000002</ele><time>2026-04-25T10:07:13.511Z</time></trkpt><trkpt lat="44.0620771" lon="12.0209639"><ele>108.60000000000001</ele><time>2026-04-25T10:07:14.495Z</time></trkpt><trkpt lat="44.0619925" lon="12.0209012"><ele>108.0</ele><time>2026-04-25T10:07:15.5Z</time></trkpt><trkpt lat="44.061915" lon="12.0208302"><ele>108.0</ele><time>2026-04-25T10:07:16.495Z</time></trkpt><trkpt lat="44.0618508" lon="12.0207441"><ele>108.0</ele><time>2026-04-25T10:07:17.505Z</time></trkpt><trkpt lat="44.0617946" lon="12.0206622"><ele>108.0</ele><time>2026-04-25T10:07:18.489Z</time></trkpt><trkpt lat="44.0617423" lon="12.0205819"><ele>108.0</ele><time>2026-04-25T10:07:19.508Z</time></trkpt><trkpt lat="44.0616925" lon="12.0204991"><ele>108.0</ele><time>2026-04-25T10:07:20.497Z</time></trkpt><trkpt lat="44.0616391" lon="12.0204216"><ele>108.0</ele><time>2026-04-25T10:07:21.492Z</time></trkpt><trkpt lat="44.0615879" lon="12.0203643"><ele>107.0</ele><time>2026-04-25T10:07:22.492Z</time></trkpt><trkpt lat="44.0614773" lon="12.0203221"><ele>106.00000000000001</ele><time>2026-04-25T10:07:24.499Z</time></trkpt><trkpt lat="44.0613742" lon="12.0204281"><ele>105.0</ele><time>2026-04-25T10:07:26.502Z</time></trkpt><trkpt lat="44.0613139" lon="12.0205258"><ele>104.0</ele><time>2026-04-25T10:07:27.494Z</time></trkpt><trkpt lat="44.0612403" lon="12.0206084"><ele>103.0</ele><time>2026-04-25T10:07:28.502Z</time></trkpt><trkpt lat="44.0611713" lon="12.0207048"><ele>103.0</ele><time>2026-04-25T10:07:29.505Z</time></trkpt><trkpt lat="44.0611002" lon="12.0208106"><ele>103.0</ele><time>2026-04-25T10:07:30.51Z</time></trkpt><trkpt lat="44.0610382" lon="12.0209184"><ele>103.0</ele><time>2026-04-25T10:07:31.504Z</time></trkpt><trkpt lat="44.0609863" lon="12.0210357"><ele>103.0</ele><time>2026-04-25T10:07:32.512Z</time></trkpt><trkpt lat="44.0609521" lon="12.0211605"><ele>103.0</ele><time>2026-04-25T10:07:33.506Z</time></trkpt><trkpt lat="44.0609289" lon="12.0212883"><ele>102.80000000000001</ele><time>2026-04-25T10:07:34.495Z</time></trkpt><trkpt lat="44.0609241" lon="12.0214339"><ele>102.6</ele><time>2026-04-25T10:07:35.502Z</time></trkpt><trkpt lat="44.0609285" lon="12.0215881"><ele>102.4</ele><time>2026-04-25T10:07:36.497Z</time></trkpt><trkpt lat="44.0609457" lon="12.0217429"><ele>102.19999999999999</ele><time>2026-04-25T10:07:37.499Z</time></trkpt><trkpt lat="44.0609577" lon="12.0218983"><ele>102.0</ele><time>2026-04-25T10:07:38.49Z</time></trkpt><trkpt lat="44.0609642" lon="12.0220566"><ele>101.6</ele><time>2026-04-25T10:07:39.496Z</time></trkpt><trkpt lat="44.0609635" lon="12.02221"><ele>101.19999999999999</ele><time>2026-04-25T10:07:40.501Z</time></trkpt><trkpt lat="44.0609546" lon="12.0223584"><ele>100.8</ele><time>2026-04-25T10:07:41.495Z</time></trkpt><trkpt lat="44.0609349" lon="12.0225014"><ele>100.4</ele><time>2026-04-25T10:07:42.501Z</time></trkpt><trkpt lat="44.0609064" lon="12.0226484"><ele>100.0</ele><time>2026-04-25T10:07:43.493Z</time></trkpt><trkpt lat="44.0608683" lon="12.0227905"><ele>100.0</ele><time>2026-04-25T10:07:44.503Z</time></trkpt><trkpt lat="44.0608288" lon="12.0229387"><ele>100.0</ele><time>2026-04-25T10:07:45.492Z</time></trkpt><trkpt lat="44.0607884" lon="12.0230847"><ele>100.0</ele><time>2026-04-25T10:07:46.506Z</time></trkpt><trkpt lat="44.0607452" lon="12.0232219"><ele>100.0</ele><time>2026-04-25T10:07:47.509Z</time></trkpt><trkpt lat="44.0606976" lon="12.0233669"><ele>100.0</ele><time>2026-04-25T10:07:48.496Z</time></trkpt><trkpt lat="44.0606515" lon="12.0235057"><ele>100.0</ele><time>2026-04-25T10:07:49.501Z</time></trkpt><trkpt lat="44.0606071" lon="12.0236421"><ele>100.0</ele><time>2026-04-25T10:07:50.492Z</time></trkpt><trkpt lat="44.0605657" lon="12.0237774"><ele>100.0</ele><time>2026-04-25T10:07:51.506Z</time></trkpt><trkpt lat="44.0605176" lon="12.0238904"><ele>100.0</ele><time>2026-04-25T10:07:52.496Z</time></trkpt><trkpt lat="44.0604655" lon="12.0239679"><ele>100.0</ele><time>2026-04-25T10:07:53.503Z</time></trkpt><trkpt lat="44.060404" lon="12.0240256"><ele>100.00000000000001</ele><time>2026-04-25T10:07:54.495Z</time></trkpt><trkpt lat="44.0603423" lon="12.0240674"><ele>100.0</ele><time>2026-04-25T10:07:55.502Z</time></trkpt><trkpt lat="44.060282" lon="12.0240957"><ele>100.0</ele><time>2026-04-25T10:07:56.488Z</time></trkpt><trkpt lat="44.0601612" lon="12.0241379"><ele>100.0</ele><time>2026-04-25T10:07:58.501Z</time></trkpt><trkpt lat="44.060092" lon="12.0241519"><ele>100.00000000000001</ele><time>2026-04-25T10:07:59.506Z</time></trkpt><trkpt lat="44.060029" lon="12.024161"><ele>100.0</ele><time>2026-04-25T10:08:00.5Z</time></trkpt><trkpt lat="44.0599559" lon="12.0241683"><ele>100.00000000000001</ele><time>2026-04-25T10:08:02.505Z</time></trkpt><trkpt lat="44.0599714" lon="12.0242817"><ele>100.0</ele><time>2026-04-25T10:10:15.504Z</time></trkpt><trkpt lat="44.060043" lon="12.0242417"><ele>100.0</ele><time>2026-04-25T10:10:17.499Z</time></trkpt><trkpt lat="44.0601023" lon="12.0242019"><ele>100.0</ele><time>2026-04-25T10:10:19.499Z</time></trkpt><trkpt lat="44.0601707" lon="12.0241688"><ele>100.00000000000001</ele><time>2026-04-25T10:10:21.5Z</time></trkpt><trkpt lat="44.0602532" lon="12.0240998"><ele>100.0</ele><time>2026-04-25T10:10:23.5Z</time></trkpt><trkpt lat="44.0603636" lon="12.0240367"><ele>100.00000000000001</ele><time>2026-04-25T10:10:25.496Z</time></trkpt><trkpt lat="44.0604518" lon="12.0239447"><ele>100.0</ele><time>2026-04-25T10:10:27.495Z</time></trkpt><trkpt lat="44.0605029" lon="12.023873"><ele>100.0</ele><time>2026-04-25T10:10:28.499Z</time></trkpt><trkpt lat="44.0605415" lon="12.0237793"><ele>100.0</ele><time>2026-04-25T10:10:29.478Z</time></trkpt><trkpt lat="44.0605776" lon="12.0236842"><ele>100.00000000000001</ele><time>2026-04-25T10:10:30.494Z</time></trkpt><trkpt lat="44.060615" lon="12.02358"><ele>100.0</ele><time>2026-04-25T10:10:31.489Z</time></trkpt><trkpt lat="44.0606614" lon="12.0234547"><ele>100.00000000000001</ele><time>2026-04-25T10:10:32.501Z</time></trkpt><trkpt lat="44.0607034" lon="12.0233317"><ele>100.0</ele><time>2026-04-25T10:10:33.495Z</time></trkpt><trkpt lat="44.0607425" lon="12.0232026"><ele>100.0</ele><time>2026-04-25T10:10:34.489Z</time></trkpt><trkpt lat="44.0607756" lon="12.0230834"><ele>100.0</ele><time>2026-04-25T10:10:35.493Z</time></trkpt><trkpt lat="44.0608101" lon="12.0229875"><ele>100.00000000000001</ele><time>2026-04-25T10:10:36.492Z</time></trkpt><trkpt lat="44.0608462" lon="12.0228885"><ele>100.0</ele><time>2026-04-25T10:10:37.499Z</time></trkpt><trkpt lat="44.0608703" lon="12.0227889"><ele>100.0</ele><time>2026-04-25T10:10:38.512Z</time></trkpt><trkpt lat="44.0608945" lon="12.0226779"><ele>100.0</ele><time>2026-04-25T10:10:39.517Z</time></trkpt><trkpt lat="44.0609238" lon="12.0225499"><ele>100.0</ele><time>2026-04-25T10:10:40.5Z</time></trkpt><trkpt lat="44.0609442" lon="12.0224084"><ele>100.0</ele><time>2026-04-25T10:10:41.488Z</time></trkpt><trkpt lat="44.0609556" lon="12.0222552"><ele>100.0</ele><time>2026-04-25T10:10:42.494Z</time></trkpt><trkpt lat="44.060957" lon="12.0220857"><ele>100.0</ele><time>2026-04-25T10:10:43.499Z</time></trkpt><trkpt lat="44.0609512" lon="12.0219121"><ele>100.0</ele><time>2026-04-25T10:10:44.494Z</time></trkpt><trkpt lat="44.0609363" lon="12.0217413"><ele>100.0</ele><time>2026-04-25T10:10:45.487Z</time></trkpt><trkpt lat="44.0609251" lon="12.021577"><ele>100.0</ele><time>2026-04-25T10:10:46.503Z</time></trkpt><trkpt lat="44.0609211" lon="12.0214227"><ele>100.4</ele><time>2026-04-25T10:10:47.494Z</time></trkpt><trkpt lat="44.0609287" lon="12.0212721"><ele>100.8</ele><time>2026-04-25T10:10:48.498Z</time></trkpt><trkpt lat="44.0609537" lon="12.021127"><ele>101.19999999999999</ele><time>2026-04-25T10:10:49.488Z</time></trkpt><trkpt lat="44.0609929" lon="12.0210061"><ele>101.6</ele><time>2026-04-25T10:10:50.495Z</time></trkpt><trkpt lat="44.0610469" lon="12.0208928"><ele>102.0</ele><time>2026-04-25T10:10:51.491Z</time></trkpt><trkpt lat="44.0611048" lon="12.0207761"><ele>102.19999999999999</ele><time>2026-04-25T10:10:52.496Z</time></trkpt><trkpt lat="44.0611772" lon="12.0206701"><ele>102.4</ele><time>2026-04-25T10:10:53.498Z</time></trkpt><trkpt lat="44.0612552" lon="12.0205695"><ele>102.6</ele><time>2026-04-25T10:10:54.496Z</time></trkpt><trkpt lat="44.061319" lon="12.0204849"><ele>102.80000000000001</ele><time>2026-04-25T10:10:55.496Z</time></trkpt><trkpt lat="44.0613793" lon="12.020418"><ele>103.0</ele><time>2026-04-25T10:10:56.496Z</time></trkpt><trkpt lat="44.061447" lon="12.0203706"><ele>103.0</ele><time>2026-04-25T10:10:57.495Z</time></trkpt><trkpt lat="44.0615211" lon="12.0203588"><ele>103.0</ele><time>2026-04-25T10:10:58.486Z</time></trkpt><trkpt lat="44.0616081" lon="12.0203862"><ele>103.0</ele><time>2026-04-25T10:10:59.493Z</time></trkpt><trkpt lat="44.0616773" lon="12.020468"><ele>103.0</ele><time>2026-04-25T10:11:00.505Z</time></trkpt><trkpt lat="44.0617344" lon="12.0205727"><ele>103.0</ele><time>2026-04-25T10:11:01.494Z</time></trkpt><trkpt lat="44.061796" lon="12.0206918"><ele>104.25</ele><time>2026-04-25T10:11:02.495Z</time></trkpt><trkpt lat="44.0618795" lon="12.0208002"><ele>105.5</ele><time>2026-04-25T10:11:03.512Z</time></trkpt><trkpt lat="44.0619814" lon="12.0209031"><ele>106.75</ele><time>2026-04-25T10:11:04.512Z</time></trkpt><trkpt lat="44.062093" lon="12.0209822"><ele>108.0</ele><time>2026-04-25T10:11:05.488Z</time></trkpt><trkpt lat="44.0621979" lon="12.0210693"><ele>108.0</ele><time>2026-04-25T10:11:06.497Z</time></trkpt><trkpt lat="44.0622888" lon="12.021153"><ele>108.0</ele><time>2026-04-25T10:11:07.512Z</time></trkpt><trkpt lat="44.0623655" lon="12.0212215"><ele>108.0</ele><time>2026-04-25T10:11:08.496Z</time></trkpt><trkpt lat="44.0624436" lon="12.0212723"><ele>108.0</ele><time>2026-04-25T10:11:09.503Z</time></trkpt><trkpt lat="44.0625266" lon="12.0212997"><ele>108.0</ele><time>2026-04-25T10:11:10.494Z</time></trkpt><trkpt lat="44.0626001" lon="12.0212946"><ele>108.0</ele><time>2026-04-25T10:11:11.497Z</time></trkpt><trkpt lat="44.0626526" lon="12.0212414"><ele>108.60000000000001</ele><time>2026-04-25T10:11:12.503Z</time></trkpt><trkpt lat="44.0627126" lon="12.0211726"><ele>109.20000000000002</ele><time>2026-04-25T10:11:13.501Z</time></trkpt><trkpt lat="44.0627565" lon="12.0210689"><ele>109.8</ele><time>2026-04-25T10:11:14.5Z</time></trkpt><trkpt lat="44.0628123" lon="12.020973"><ele>110.4</ele><time>2026-04-25T10:11:15.497Z</time></trkpt><trkpt lat="44.0628684" lon="12.0208637"><ele>111.0</ele><time>2026-04-25T10:11:16.497Z</time></trkpt><trkpt lat="44.0629269" lon="12.0207452"><ele>112.0</ele><time>2026-04-25T10:11:17.492Z</time></trkpt><trkpt lat="44.0629868" lon="12.020634"><ele>113.0</ele><time>2026-04-25T10:11:18.502Z</time></trkpt><trkpt lat="44.0630532" lon="12.0205266"><ele>114.0</ele><time>2026-04-25T10:11:19.492Z</time></trkpt><trkpt lat="44.0631271" lon="12.020447"><ele>115.0</ele><time>2026-04-25T10:11:20.502Z</time></trkpt><trkpt lat="44.0632115" lon="12.0204167"><ele>116.0</ele><time>2026-04-25T10:11:21.501Z</time></trkpt><trkpt lat="44.0633049" lon="12.0204119"><ele>117.75</ele><time>2026-04-25T10:11:22.482Z</time></trkpt><trkpt lat="44.0634127" lon="12.0204507"><ele>119.5</ele><time>2026-04-25T10:11:23.499Z</time></trkpt><trkpt lat="44.0635357" lon="12.0204955"><ele>121.25</ele><time>2026-04-25T10:11:24.488Z</time></trkpt><trkpt lat="44.0636721" lon="12.0205348"><ele>123.0</ele><time>2026-04-25T10:11:25.489Z</time></trkpt><trkpt lat="44.0638341" lon="12.020572"><ele>123.0</ele><time>2026-04-25T10:11:26.502Z</time></trkpt><trkpt lat="44.0640049" lon="12.0206245"><ele>123.0</ele><time>2026-04-25T10:11:27.494Z</time></trkpt><trkpt lat="44.0641658" lon="12.0206658"><ele>123.0</ele><time>2026-04-25T10:11:28.493Z</time></trkpt><trkpt lat="44.06431" lon="12.0207056"><ele>122.5</ele><time>2026-04-25T10:11:29.502Z</time></trkpt><trkpt lat="44.064448" lon="12.0207402"><ele>122.0</ele><time>2026-04-25T10:11:30.499Z</time></trkpt><trkpt lat="44.0645906" lon="12.0207896"><ele>121.5</ele><time>2026-04-25T10:11:31.504Z</time></trkpt><trkpt lat="44.064734" lon="12.0208385"><ele>121.0</ele><time>2026-04-25T10:11:32.492Z</time></trkpt><trkpt lat="44.0648711" lon="12.0208877"><ele>123.25</ele><time>2026-04-25T10:11:33.502Z</time></trkpt><trkpt lat="44.0649984" lon="12.0209274"><ele>125.5</ele><time>2026-04-25T10:11:34.501Z</time></trkpt><trkpt lat="44.0651174" lon="12.02097"><ele>127.75</ele><time>2026-04-25T10:11:35.487Z</time></trkpt><trkpt lat="44.0652373" lon="12.0210053"><ele>130.0</ele><time>2026-04-25T10:11:36.49Z</time></trkpt><trkpt lat="44.0653483" lon="12.0210282"><ele>130.0</ele><time>2026-04-25T10:11:37.496Z</time></trkpt><trkpt lat="44.0654507" lon="12.0210445"><ele>130.0</ele><time>2026-04-25T10:11:38.494Z</time></trkpt><trkpt lat="44.0655503" lon="12.0210407"><ele>130.0</ele><time>2026-04-25T10:11:39.498Z</time></trkpt><trkpt lat="44.0656596" lon="12.0210221"><ele>130.0</ele><time>2026-04-25T10:11:40.489Z</time></trkpt><trkpt lat="44.0657762" lon="12.0210015"><ele>130.0</ele><time>2026-04-25T10:11:41.494Z</time></trkpt><trkpt lat="44.0659035" lon="12.0209755"><ele>130.6</ele><time>2026-04-25T10:11:42.496Z</time></trkpt><trkpt lat="44.0660306" lon="12.0209543"><ele>131.2</ele><time>2026-04-25T10:11:43.5Z</time></trkpt><trkpt lat="44.0661471" lon="12.0209395"><ele>131.8</ele><time>2026-04-25T10:11:44.49Z</time></trkpt><trkpt lat="44.0662499" lon="12.0209201"><ele>132.4</ele><time>2026-04-25T10:11:45.497Z</time></trkpt><trkpt lat="44.066344" lon="12.0208819"><ele>133.0</ele><time>2026-04-25T10:11:46.498Z</time></trkpt><trkpt lat="44.0664204" lon="12.0208204"><ele>134.85714285714286</ele><time>2026-04-25T10:11:47.499Z</time></trkpt><trkpt lat="44.0664779" lon="12.020745"><ele>136.71428571428572</ele><time>2026-04-25T10:11:48.506Z</time></trkpt><trkpt lat="44.0664914" lon="12.0206418"><ele>138.57142857142856</ele><time>2026-04-25T10:11:49.489Z</time></trkpt><trkpt lat="44.0664865" lon="12.0205442"><ele>140.42857142857144</ele><time>2026-04-25T10:11:50.5Z</time></trkpt><trkpt lat="44.0664573" lon="12.0204488"><ele>142.28571428571428</ele><time>2026-04-25T10:11:51.497Z</time></trkpt><trkpt lat="44.0664143" lon="12.020371"><ele>144.14285714285714</ele><time>2026-04-25T10:11:52.505Z</time></trkpt><trkpt lat="44.066359" lon="12.0202961"><ele>146.0</ele><time>2026-04-25T10:11:53.497Z</time></trkpt><trkpt lat="44.0663026" lon="12.0202241"><ele>146.0</ele><time>2026-04-25T10:11:54.511Z</time></trkpt><trkpt lat="44.0662399" lon="12.0201394"><ele>146.0</ele><time>2026-04-25T10:11:55.506Z</time></trkpt><trkpt lat="44.0661713" lon="12.0200521"><ele>146.0</ele><time>2026-04-25T10:11:56.499Z</time></trkpt><trkpt lat="44.0660992" lon="12.0199574"><ele>146.0</ele><time>2026-04-25T10:11:57.496Z</time></trkpt><trkpt lat="44.066022" lon="12.0198667"><ele>146.0</ele><time>2026-04-25T10:11:58.496Z</time></trkpt><trkpt lat="44.0659464" lon="12.0197743"><ele>147.6</ele><time>2026-04-25T10:11:59.5Z</time></trkpt><trkpt lat="44.0658636" lon="12.0196772"><ele>149.2</ele><time>2026-04-25T10:12:00.504Z</time></trkpt><trkpt lat="44.0657828" lon="12.019605"><ele>150.8</ele><time>2026-04-25T10:12:01.483Z</time></trkpt><trkpt lat="44.0657025" lon="12.0195232"><ele>152.4</ele><time>2026-04-25T10:12:02.518Z</time></trkpt><trkpt lat="44.0656232" lon="12.0194486"><ele>154.0</ele><time>2026-04-25T10:12:03.496Z</time></trkpt><trkpt lat="44.0655425" lon="12.0193619"><ele>154.0</ele><time>2026-04-25T10:12:04.504Z</time></trkpt><trkpt lat="44.0654617" lon="12.0192766"><ele>154.0</ele><time>2026-04-25T10:12:05.496Z</time></trkpt><trkpt lat="44.065382" lon="12.0191916"><ele>154.0</ele><time>2026-04-25T10:12:06.495Z</time></trkpt><trkpt lat="44.0653046" lon="12.019109"><ele>154.0</ele><time>2026-04-25T10:12:07.494Z</time></trkpt><trkpt lat="44.0652334" lon="12.0190258"><ele>154.0</ele><time>2026-04-25T10:12:08.49Z</time></trkpt><trkpt lat="44.0651758" lon="12.018955"><ele>155.33333333333334</ele><time>2026-04-25T10:12:09.501Z</time></trkpt><trkpt lat="44.0651248" lon="12.018884"><ele>156.66666666666669</ele><time>2026-04-25T10:12:10.492Z</time></trkpt><trkpt lat="44.0650797" lon="12.0187871"><ele>158.0</ele><time>2026-04-25T10:12:11.5Z</time></trkpt><trkpt lat="44.0650548" lon="12.0186934"><ele>159.33333333333334</ele><time>2026-04-25T10:12:12.498Z</time></trkpt><trkpt lat="44.0650606" lon="12.0186053"><ele>160.66666666666666</ele><time>2026-04-25T10:12:13.495Z</time></trkpt><trkpt lat="44.0651141" lon="12.0184702"><ele>162.0</ele><time>2026-04-25T10:12:15.482Z</time></trkpt><trkpt lat="44.0652128" lon="12.0183992"><ele>164.2</ele><time>2026-04-25T10:12:17.498Z</time></trkpt><trkpt lat="44.0653406" lon="12.0183165"><ele>166.39999999999998</ele><time>2026-04-25T10:12:19.504Z</time></trkpt><trkpt lat="44.0654059" lon="12.0182412"><ele>168.60000000000002</ele><time>2026-04-25T10:12:20.501Z</time></trkpt><trkpt lat="44.065463" lon="12.0181481"><ele>170.8</ele><time>2026-04-25T10:12:21.497Z</time></trkpt><trkpt lat="44.0655009" lon="12.0180395"><ele>173.0</ele><time>2026-04-25T10:12:22.498Z</time></trkpt><trkpt lat="44.0655216" lon="12.0179145"><ele>173.0</ele><time>2026-04-25T10:12:23.496Z</time></trkpt><trkpt lat="44.0655462" lon="12.0178002"><ele>173.0</ele><time>2026-04-25T10:12:24.496Z</time></trkpt><trkpt lat="44.0655847" lon="12.0177066"><ele>173.0</ele><time>2026-04-25T10:12:25.49Z</time></trkpt><trkpt lat="44.0656404" lon="12.0176349"><ele>173.0</ele><time>2026-04-25T10:12:26.495Z</time></trkpt><trkpt lat="44.0657025" lon="12.0175866"><ele>173.0</ele><time>2026-04-25T10:12:27.495Z</time></trkpt><trkpt lat="44.0657737" lon="12.0175516"><ele>173.0</ele><time>2026-04-25T10:12:28.49Z</time></trkpt><trkpt lat="44.0658506" lon="12.0175405"><ele>174.25</ele><time>2026-04-25T10:12:29.492Z</time></trkpt><trkpt lat="44.0659441" lon="12.0175367"><ele>175.5</ele><time>2026-04-25T10:12:30.493Z</time></trkpt><trkpt lat="44.0660523" lon="12.017554"><ele>176.75</ele><time>2026-04-25T10:12:31.497Z</time></trkpt><trkpt lat="44.066191" lon="12.0175645"><ele>178.0</ele><time>2026-04-25T10:12:32.493Z</time></trkpt><trkpt lat="44.0663536" lon="12.0175836"><ele>178.0</ele><time>2026-04-25T10:12:33.502Z</time></trkpt><trkpt lat="44.0665307" lon="12.0176099"><ele>178.0</ele><time>2026-04-25T10:12:34.494Z</time></trkpt><trkpt lat="44.0666978" lon="12.0176352"><ele>178.0</ele><time>2026-04-25T10:12:35.491Z</time></trkpt><trkpt lat="44.0668397" lon="12.0176491"><ele>180.25</ele><time>2026-04-25T10:12:36.484Z</time></trkpt><trkpt lat="44.0669462" lon="12.0176657"><ele>182.5</ele><time>2026-04-25T10:12:37.487Z</time></trkpt><trkpt lat="44.0670499" lon="12.0176959"><ele>184.75</ele><time>2026-04-25T10:12:38.493Z</time></trkpt><trkpt lat="44.0671765" lon="12.0177343"><ele>187.0</ele><time>2026-04-25T10:12:39.496Z</time></trkpt><trkpt lat="44.0673041" lon="12.0177917"><ele>187.0</ele><time>2026-04-25T10:12:40.491Z</time></trkpt><trkpt lat="44.0674366" lon="12.0178671"><ele>187.0</ele><time>2026-04-25T10:12:41.494Z</time></trkpt><trkpt lat="44.0675518" lon="12.0179445"><ele>187.0</ele><time>2026-04-25T10:12:42.483Z</time></trkpt><trkpt lat="44.0676478" lon="12.018007"><ele>187.0</ele><time>2026-04-25T10:12:43.488Z</time></trkpt><trkpt lat="44.0677282" lon="12.0180634"><ele>189.16666666666669</ele><time>2026-04-25T10:12:44.497Z</time></trkpt><trkpt lat="44.0678049" lon="12.0181051"><ele>191.33333333333334</ele><time>2026-04-25T10:12:45.486Z</time></trkpt><trkpt lat="44.0678747" lon="12.0181384"><ele>193.5</ele><time>2026-04-25T10:12:46.497Z</time></trkpt><trkpt lat="44.0679489" lon="12.0181552"><ele>195.66666666666669</ele><time>2026-04-25T10:12:47.483Z</time></trkpt><trkpt lat="44.0680292" lon="12.0181525"><ele>197.83333333333334</ele><time>2026-04-25T10:12:48.49Z</time></trkpt><trkpt lat="44.0681104" lon="12.0181289"><ele>200.0</ele><time>2026-04-25T10:12:49.485Z</time></trkpt><trkpt lat="44.0681882" lon="12.0180808"><ele>200.0</ele><time>2026-04-25T10:12:50.494Z</time></trkpt><trkpt lat="44.0682403" lon="12.0179475"><ele>200.0</ele><time>2026-04-25T10:12:52.5Z</time></trkpt><trkpt lat="44.0681826" lon="12.0178463"><ele>200.0</ele><time>2026-04-25T10:12:54.498Z</time></trkpt><trkpt lat="44.0680528" lon="12.0178165"><ele>200.0</ele><time>2026-04-25T10:12:56.486Z</time></trkpt><trkpt lat="44.0679884" lon="12.0177796"><ele>200.0</ele><time>2026-04-25T10:12:57.485Z</time></trkpt><trkpt lat="44.0679404" lon="12.0176673"><ele>200.0</ele><time>2026-04-25T10:12:58.487Z</time></trkpt><trkpt lat="44.0679037" lon="12.0175453"><ele>200.0</ele><time>2026-04-25T10:12:59.488Z</time></trkpt><trkpt lat="44.0678765" lon="12.0173899"><ele>200.0</ele><time>2026-04-25T10:13:00.511Z</time></trkpt><trkpt lat="44.0678558" lon="12.0172174"><ele>200.0</ele><time>2026-04-25T10:13:01.482Z</time></trkpt><trkpt lat="44.0678458" lon="12.0170468"><ele>203.0</ele><time>2026-04-25T10:13:02.502Z</time></trkpt><trkpt lat="44.0678178" lon="12.0168819"><ele>206.0</ele><time>2026-04-25T10:13:03.495Z</time></trkpt><trkpt lat="44.0677918" lon="12.0167474"><ele>209.0</ele><time>2026-04-25T10:13:04.488Z</time></trkpt><trkpt lat="44.0677366" lon="12.0166145"><ele>212.0</ele><time>2026-04-25T10:13:05.485Z</time></trkpt><trkpt lat="44.0676711" lon="12.0164799"><ele>215.0</ele><time>2026-04-25T10:13:06.5Z</time></trkpt><trkpt lat="44.0675883" lon="12.016344"><ele>216.5</ele><time>2026-04-25T10:13:07.496Z</time></trkpt><trkpt lat="44.0674973" lon="12.0162184"><ele>218.0</ele><time>2026-04-25T10:13:08.521Z</time></trkpt><trkpt lat="44.0673992" lon="12.0161004"><ele>219.5</ele><time>2026-04-25T10:13:09.49Z</time></trkpt><trkpt lat="44.0673009" lon="12.0160023"><ele>221.0</ele><time>2026-04-25T10:13:10.495Z</time></trkpt><trkpt lat="44.0672022" lon="12.0159121"><ele>221.0</ele><time>2026-04-25T10:13:11.501Z</time></trkpt><trkpt lat="44.0671104" lon="12.0158238"><ele>221.0</ele><time>2026-04-25T10:13:12.494Z</time></trkpt><trkpt lat="44.0670205" lon="12.0157204"><ele>221.0</ele><time>2026-04-25T10:13:13.488Z</time></trkpt><trkpt lat="44.0669315" lon="12.0155999"><ele>221.0</ele><time>2026-04-25T10:13:14.493Z</time></trkpt><trkpt lat="44.066841" lon="12.0154673"><ele>222.8</ele><time>2026-04-25T10:13:15.487Z</time></trkpt><trkpt lat="44.0667539" lon="12.0153436"><ele>224.60000000000002</ele><time>2026-04-25T10:13:16.494Z</time></trkpt><trkpt lat="44.0666779" lon="12.0152373"><ele>226.4</ele><time>2026-04-25T10:13:17.489Z</time></trkpt><trkpt lat="44.0666185" lon="12.015155"><ele>228.2</ele><time>2026-04-25T10:13:18.491Z</time></trkpt><trkpt lat="44.0665965" lon="12.0150032"><ele>230.0</ele><time>2026-04-25T10:13:20.498Z</time></trkpt><trkpt lat="44.0666293" lon="12.0149191"><ele>230.8</ele><time>2026-04-25T10:13:21.491Z</time></trkpt><trkpt lat="44.0666657" lon="12.0148301"><ele>231.6</ele><time>2026-04-25T10:13:22.496Z</time></trkpt><trkpt lat="44.0667216" lon="12.0147292"><ele>232.39999999999998</ele><time>2026-04-25T10:13:23.484Z</time></trkpt><trkpt lat="44.066783" lon="12.0146281"><ele>233.2</ele><time>2026-04-25T10:13:24.504Z</time></trkpt><trkpt lat="44.0668463" lon="12.0145224"><ele>234.0</ele><time>2026-04-25T10:13:25.481Z</time></trkpt><trkpt lat="44.0669111" lon="12.0144072"><ele>234.0</ele><time>2026-04-25T10:13:26.489Z</time></trkpt><trkpt lat="44.0669852" lon="12.0142763"><ele>234.0</ele><time>2026-04-25T10:13:27.487Z</time></trkpt><trkpt lat="44.0670701" lon="12.0141271"><ele>234.0</ele><time>2026-04-25T10:13:28.501Z</time></trkpt><trkpt lat="44.0671653" lon="12.0139701"><ele>234.0</ele><time>2026-04-25T10:13:29.506Z</time></trkpt><trkpt lat="44.0672631" lon="12.013802"><ele>233.66666666666669</ele><time>2026-04-25T10:13:30.489Z</time></trkpt><trkpt lat="44.0673724" lon="12.0136355"><ele>233.33333333333334</ele><time>2026-04-25T10:13:31.493Z</time></trkpt><trkpt lat="44.0674852" lon="12.0134689"><ele>233.0</ele><time>2026-04-25T10:13:32.485Z</time></trkpt><trkpt lat="44.0675854" lon="12.0133121"><ele>232.0</ele><time>2026-04-25T10:13:33.496Z</time></trkpt><trkpt lat="44.0676746" lon="12.013166"><ele>231.0</ele><time>2026-04-25T10:13:34.48Z</time></trkpt><trkpt lat="44.0677555" lon="12.0130295"><ele>230.0</ele><time>2026-04-25T10:13:35.492Z</time></trkpt><trkpt lat="44.0678211" lon="12.0129046"><ele>229.0</ele><time>2026-04-25T10:13:36.494Z</time></trkpt><trkpt lat="44.0678729" lon="12.0127701"><ele>229.0</ele><time>2026-04-25T10:13:37.495Z</time></trkpt><trkpt lat="44.0679178" lon="12.0126254"><ele>228.99999999999997</ele><time>2026-04-25T10:13:38.494Z</time></trkpt><trkpt lat="44.0679539" lon="12.0124893"><ele>228.99999999999997</ele><time>2026-04-25T10:13:39.498Z</time></trkpt><trkpt lat="44.0679841" lon="12.0123535"><ele>229.0</ele><time>2026-04-25T10:13:40.495Z</time></trkpt><trkpt lat="44.0680142" lon="12.0122004"><ele>229.0</ele><time>2026-04-25T10:13:41.51Z</time></trkpt><trkpt lat="44.0680458" lon="12.0120301"><ele>229.75</ele><time>2026-04-25T10:13:42.506Z</time></trkpt><trkpt lat="44.0680792" lon="12.011836"><ele>230.5</ele><time>2026-04-25T10:13:43.489Z</time></trkpt><trkpt lat="44.0681187" lon="12.0116371"><ele>231.25</ele><time>2026-04-25T10:13:44.501Z</time></trkpt><trkpt lat="44.0681557" lon="12.0114516"><ele>232.0</ele><time>2026-04-25T10:13:45.485Z</time></trkpt><trkpt lat="44.0681879" lon="12.0112883"><ele>230.99999999999997</ele><time>2026-04-25T10:13:46.492Z</time></trkpt><trkpt lat="44.0682246" lon="12.0111483"><ele>230.0</ele><time>2026-04-25T10:13:47.488Z</time></trkpt><trkpt lat="44.0682667" lon="12.0110382"><ele>229.0</ele><time>2026-04-25T10:13:48.497Z</time></trkpt><trkpt lat="44.0683078" lon="12.0109617"><ele>228.0</ele><time>2026-04-25T10:13:49.505Z</time></trkpt><trkpt lat="44.0683638" lon="12.0108709"><ele>226.99999999999997</ele><time>2026-04-25T10:13:51.497Z</time></trkpt><trkpt lat="44.0684042" lon="12.0108035"><ele>226.0</ele><time>2026-04-25T10:13:54.497Z</time></trkpt><trkpt lat="44.0684553" lon="12.0107353"><ele>226.0</ele><time>2026-04-25T10:13:57.504Z</time></trkpt><trkpt lat="44.0685041" lon="12.0106736"><ele>226.00000000000003</ele><time>2026-04-25T10:13:59.491Z</time></trkpt><trkpt lat="44.0685882" lon="12.0105353"><ele>226.00000000000003</ele><time>2026-04-25T10:14:01.492Z</time></trkpt><trkpt lat="44.0686452" lon="12.0104323"><ele>226.0</ele><time>2026-04-25T10:14:02.491Z</time></trkpt><trkpt lat="44.0687169" lon="12.0103223"><ele>226.0</ele><time>2026-04-25T10:14:03.487Z</time></trkpt><trkpt lat="44.0687739" lon="12.0102193"><ele>225.99999999999997</ele><time>2026-04-25T10:14:04.494Z</time></trkpt><trkpt lat="44.0688268" lon="12.0101245"><ele>226.0</ele><time>2026-04-25T10:14:05.494Z</time></trkpt><trkpt lat="44.0688802" lon="12.0100473"><ele>226.0</ele><time>2026-04-25T10:14:06.505Z</time></trkpt><trkpt lat="44.068938" lon="12.0099818"><ele>226.0</ele><time>2026-04-25T10:14:07.486Z</time></trkpt><trkpt lat="44.0690138" lon="12.0099445"><ele>225.99999999999997</ele><time>2026-04-25T10:14:08.493Z</time></trkpt><trkpt lat="44.0690992" lon="12.00993"><ele>226.0</ele><time>2026-04-25T10:14:09.496Z</time></trkpt><trkpt lat="44.0691931" lon="12.0099529"><ele>223.16666666666666</ele><time>2026-04-25T10:14:10.495Z</time></trkpt><trkpt lat="44.0692766" lon="12.0099891"><ele>220.33333333333331</ele><time>2026-04-25T10:14:11.498Z</time></trkpt><trkpt lat="44.0693482" lon="12.0100254"><ele>217.5</ele><time>2026-04-25T10:14:12.487Z</time></trkpt><trkpt lat="44.0694134" lon="12.0100447"><ele>214.66666666666669</ele><time>2026-04-25T10:14:13.504Z</time></trkpt><trkpt lat="44.0694804" lon="12.0100369"><ele>211.83333333333334</ele><time>2026-04-25T10:14:14.502Z</time></trkpt><trkpt lat="44.069595" lon="12.009952"><ele>209.0</ele><time>2026-04-25T10:14:16.498Z</time></trkpt><trkpt lat="44.0696444" lon="12.0098655"><ele>209.00000000000003</ele><time>2026-04-25T10:14:17.506Z</time></trkpt><trkpt lat="44.0696851" lon="12.0097676"><ele>209.0</ele><time>2026-04-25T10:14:18.497Z</time></trkpt><trkpt lat="44.0697287" lon="12.0096563"><ele>209.0</ele><time>2026-04-25T10:14:19.484Z</time></trkpt><trkpt lat="44.0697728" lon="12.0095542"><ele>209.0</ele><time>2026-04-25T10:14:20.492Z</time></trkpt><trkpt lat="44.0698147" lon="12.0094583"><ele>209.00000000000003</ele><time>2026-04-25T10:14:21.488Z</time></trkpt><trkpt lat="44.0698557" lon="12.0093573"><ele>209.0</ele><time>2026-04-25T10:14:22.5Z</time></trkpt><trkpt lat="44.0698809" lon="12.0092557"><ele>208.83333333333334</ele><time>2026-04-25T10:14:23.493Z</time></trkpt><trkpt lat="44.0698967" lon="12.0091395"><ele>208.66666666666669</ele><time>2026-04-25T10:14:24.487Z</time></trkpt><trkpt lat="44.0699056" lon="12.0090176"><ele>208.5</ele><time>2026-04-25T10:14:25.489Z</time></trkpt><trkpt lat="44.0699231" lon="12.0088963"><ele>208.33333333333331</ele><time>2026-04-25T10:14:26.498Z</time></trkpt><trkpt lat="44.0699468" lon="12.0087839"><ele>208.16666666666666</ele><time>2026-04-25T10:14:27.492Z</time></trkpt><trkpt lat="44.0699749" lon="12.0086835"><ele>208.0</ele><time>2026-04-25T10:14:28.499Z</time></trkpt><trkpt lat="44.0700111" lon="12.0085841"><ele>205.2</ele><time>2026-04-25T10:14:29.488Z</time></trkpt><trkpt lat="44.0700604" lon="12.0084904"><ele>202.4</ele><time>2026-04-25T10:14:30.493Z</time></trkpt><trkpt lat="44.070114" lon="12.0083897"><ele>199.6</ele><time>2026-04-25T10:14:31.493Z</time></trkpt><trkpt lat="44.0701707" lon="12.0082716"><ele>196.79999999999998</ele><time>2026-04-25T10:14:32.49Z</time></trkpt><trkpt lat="44.0702168" lon="12.0081411"><ele>194.0</ele><time>2026-04-25T10:14:33.496Z</time></trkpt><trkpt lat="44.0702644" lon="12.0080022"><ele>193.6</ele><time>2026-04-25T10:14:34.492Z</time></trkpt><trkpt lat="44.0703024" lon="12.0078645"><ele>193.2</ele><time>2026-04-25T10:14:35.492Z</time></trkpt><trkpt lat="44.0703355" lon="12.0077369"><ele>192.79999999999998</ele><time>2026-04-25T10:14:36.495Z</time></trkpt><trkpt lat="44.0703667" lon="12.0076142"><ele>192.39999999999998</ele><time>2026-04-25T10:14:37.497Z</time></trkpt><trkpt lat="44.0704008" lon="12.0074934"><ele>192.0</ele><time>2026-04-25T10:14:38.491Z</time></trkpt><trkpt lat="44.0704506" lon="12.0073916"><ele>190.83333333333334</ele><time>2026-04-25T10:14:39.493Z</time></trkpt><trkpt lat="44.0704968" lon="12.0072788"><ele>189.66666666666666</ele><time>2026-04-25T10:14:40.502Z</time></trkpt><trkpt lat="44.0705291" lon="12.0071669"><ele>188.5</ele><time>2026-04-25T10:14:41.499Z</time></trkpt><trkpt lat="44.0705489" lon="12.0070573"><ele>187.33333333333331</ele><time>2026-04-25T10:14:42.497Z</time></trkpt><trkpt lat="44.0705415" lon="12.0069417"><ele>186.16666666666666</ele><time>2026-04-25T10:14:43.491Z</time></trkpt><trkpt lat="44.0705162" lon="12.0068195"><ele>185.0</ele><time>2026-04-25T10:14:44.494Z</time></trkpt><trkpt lat="44.0704676" lon="12.0067118"><ele>184.16666666666666</ele><time>2026-04-25T10:14:45.493Z</time></trkpt><trkpt lat="44.0704171" lon="12.006612"><ele>183.33333333333331</ele><time>2026-04-25T10:14:46.492Z</time></trkpt><trkpt lat="44.070358" lon="12.0065326"><ele>182.5</ele><time>2026-04-25T10:14:47.494Z</time></trkpt><trkpt lat="44.0702873" lon="12.0064803"><ele>181.66666666666666</ele><time>2026-04-25T10:14:48.493Z</time></trkpt><trkpt lat="44.0702164" lon="12.0064508"><ele>180.83333333333334</ele><time>2026-04-25T10:14:49.5Z</time></trkpt><trkpt lat="44.0701526" lon="12.0064013"><ele>180.0</ele><time>2026-04-25T10:14:50.495Z</time></trkpt><trkpt lat="44.070093" lon="12.0062676"><ele>180.0</ele><time>2026-04-25T10:14:52.5Z</time></trkpt><trkpt lat="44.0701327" lon="12.0061709"><ele>180.0</ele><time>2026-04-25T10:14:53.502Z</time></trkpt><trkpt lat="44.0701874" lon="12.006106"><ele>180.0</ele><time>2026-04-25T10:14:54.493Z</time></trkpt><trkpt lat="44.0702632" lon="12.0060525"><ele>180.0</ele><time>2026-04-25T10:14:55.5Z</time></trkpt><trkpt lat="44.0703611" lon="12.0060012"><ele>180.0</ele><time>2026-04-25T10:14:56.474Z</time></trkpt><trkpt lat="44.0704813" lon="12.0059318"><ele>180.0</ele><time>2026-04-25T10:14:57.495Z</time></trkpt><trkpt lat="44.0705927" lon="12.0058861"><ele>180.0</ele><time>2026-04-25T10:14:58.494Z</time></trkpt><trkpt lat="44.070713" lon="12.0058623"><ele>180.0</ele><time>2026-04-25T10:14:59.496Z</time></trkpt><trkpt lat="44.0708433" lon="12.0058718"><ele>180.0</ele><time>2026-04-25T10:15:00.494Z</time></trkpt><trkpt lat="44.0709819" lon="12.0058928"><ele>180.2</ele><time>2026-04-25T10:15:01.491Z</time></trkpt><trkpt lat="44.0711268" lon="12.00591"><ele>180.4</ele><time>2026-04-25T10:15:02.497Z</time></trkpt><trkpt lat="44.0712406" lon="12.005912"><ele>180.60000000000002</ele><time>2026-04-25T10:15:03.51Z</time></trkpt><trkpt lat="44.0713134" lon="12.0059089"><ele>180.8</ele><time>2026-04-25T10:15:04.498Z</time></trkpt><trkpt lat="44.0713727" lon="12.005861"><ele>181.0</ele><time>2026-04-25T10:15:05.489Z</time></trkpt><trkpt lat="44.071415" lon="12.0057733"><ele>181.0</ele><time>2026-04-25T10:15:06.503Z</time></trkpt><trkpt lat="44.0714272" lon="12.0056697"><ele>181.0</ele><time>2026-04-25T10:15:07.49Z</time></trkpt><trkpt lat="44.0714032" lon="12.0055555"><ele>181.0</ele><time>2026-04-25T10:15:08.49Z</time></trkpt><trkpt lat="44.0713641" lon="12.0054218"><ele>181.0</ele><time>2026-04-25T10:15:09.511Z</time></trkpt><trkpt lat="44.0713095" lon="12.0052683"><ele>181.0</ele><time>2026-04-25T10:15:10.496Z</time></trkpt><trkpt lat="44.071265" lon="12.0050931"><ele>184.66666666666669</ele><time>2026-04-25T10:15:11.494Z</time></trkpt><trkpt lat="44.0712049" lon="12.004892"><ele>188.33333333333334</ele><time>2026-04-25T10:15:12.505Z</time></trkpt><trkpt lat="44.071145" lon="12.004681"><ele>192.0</ele><time>2026-04-25T10:15:13.491Z</time></trkpt><trkpt lat="44.0710981" lon="12.0044726"><ele>192.0</ele><time>2026-04-25T10:15:14.5Z</time></trkpt><trkpt lat="44.0710673" lon="12.0042656"><ele>192.0</ele><time>2026-04-25T10:15:15.505Z</time></trkpt><trkpt lat="44.0710376" lon="12.0040546"><ele>192.0</ele><time>2026-04-25T10:15:16.501Z</time></trkpt><trkpt lat="44.0709979" lon="12.003839"><ele>194.5</ele><time>2026-04-25T10:15:17.495Z</time></trkpt><trkpt lat="44.0709522" lon="12.0036234"><ele>197.0</ele><time>2026-04-25T10:15:18.497Z</time></trkpt><trkpt lat="44.0709168" lon="12.0034442"><ele>199.5</ele><time>2026-04-25T10:15:19.496Z</time></trkpt><trkpt lat="44.0708929" lon="12.0032893"><ele>202.0</ele><time>2026-04-25T10:15:20.494Z</time></trkpt><trkpt lat="44.0708373" lon="12.0031494"><ele>203.75</ele><time>2026-04-25T10:15:21.495Z</time></trkpt><trkpt lat="44.070774" lon="12.0030148"><ele>205.5</ele><time>2026-04-25T10:15:22.486Z</time></trkpt><trkpt lat="44.0706873" lon="12.0028652"><ele>207.25</ele><time>2026-04-25T10:15:23.504Z</time></trkpt><trkpt lat="44.0705956" lon="12.0027033"><ele>209.0</ele><time>2026-04-25T10:15:24.509Z</time></trkpt><trkpt lat="44.0705064" lon="12.0025303"><ele>213.0</ele><time>2026-04-25T10:15:25.496Z</time></trkpt><trkpt lat="44.0704219" lon="12.0023541"><ele>217.0</ele><time>2026-04-25T10:15:26.504Z</time></trkpt><trkpt lat="44.0703256" lon="12.0021773"><ele>221.0</ele><time>2026-04-25T10:15:27.498Z</time></trkpt><trkpt lat="44.0702321" lon="12.0019982"><ele>221.0</ele><time>2026-04-25T10:15:28.494Z</time></trkpt><trkpt lat="44.0701418" lon="12.0018293"><ele>221.0</ele><time>2026-04-25T10:15:29.51Z</time></trkpt><trkpt lat="44.0700594" lon="12.0016703"><ele>221.0</ele><time>2026-04-25T10:15:30.496Z</time></trkpt><trkpt lat="44.0699837" lon="12.0015151"><ele>221.0</ele><time>2026-04-25T10:15:31.496Z</time></trkpt><trkpt lat="44.0699113" lon="12.0013711"><ele>223.4</ele><time>2026-04-25T10:15:32.494Z</time></trkpt><trkpt lat="44.0698531" lon="12.0012512"><ele>225.8</ele><time>2026-04-25T10:15:33.5Z</time></trkpt><trkpt lat="44.0698084" lon="12.001147"><ele>228.20000000000002</ele><time>2026-04-25T10:15:34.503Z</time></trkpt><trkpt lat="44.0697683" lon="12.0010636"><ele>230.60000000000002</ele><time>2026-04-25T10:15:35.485Z</time></trkpt><trkpt lat="44.06974" lon="12.0008943"><ele>233.0</ele><time>2026-04-25T10:15:37.493Z</time></trkpt><trkpt lat="44.0697427" lon="12.0007394"><ele>235.2</ele><time>2026-04-25T10:15:39.496Z</time></trkpt><trkpt lat="44.0697792" lon="12.0006131"><ele>237.4</ele><time>2026-04-25T10:15:41.496Z</time></trkpt><trkpt lat="44.0698553" lon="12.000482"><ele>239.59999999999997</ele><time>2026-04-25T10:15:43.494Z</time></trkpt><trkpt lat="44.0698948" lon="12.0004135"><ele>241.79999999999998</ele><time>2026-04-25T10:15:44.497Z</time></trkpt><trkpt lat="44.0699869" lon="12.000301"><ele>244.0</ele><time>2026-04-25T10:15:46.5Z</time></trkpt><trkpt lat="44.0700391" lon="12.0002362"><ele>243.99999999999997</ele><time>2026-04-25T10:15:47.5Z</time></trkpt><trkpt lat="44.0700876" lon="12.0001738"><ele>244.0</ele><time>2026-04-25T10:15:48.514Z</time></trkpt><trkpt lat="44.0701436" lon="12.000109"><ele>244.0</ele><time>2026-04-25T10:15:49.502Z</time></trkpt><trkpt lat="44.0702031" lon="12.0000297"><ele>244.0</ele><time>2026-04-25T10:15:50.493Z</time></trkpt><trkpt lat="44.0702676" lon="11.999936"><ele>243.99999999999997</ele><time>2026-04-25T10:15:51.501Z</time></trkpt><trkpt lat="44.0703369" lon="11.9998335"><ele>244.0</ele><time>2026-04-25T10:15:52.5Z</time></trkpt><trkpt lat="44.0704112" lon="11.9997186"><ele>244.0</ele><time>2026-04-25T10:15:53.503Z</time></trkpt><trkpt lat="44.0704884" lon="11.9995843"><ele>243.99999999999997</ele><time>2026-04-25T10:15:54.502Z</time></trkpt><trkpt lat="44.0705512" lon="11.9994442"><ele>243.99999999999997</ele><time>2026-04-25T10:15:55.489Z</time></trkpt><trkpt lat="44.0705975" lon="11.9993161"><ele>244.0</ele><time>2026-04-25T10:15:56.494Z</time></trkpt><trkpt lat="44.0706277" lon="11.9991986"><ele>244.0</ele><time>2026-04-25T10:15:57.499Z</time></trkpt><trkpt lat="44.0706308" lon="11.9991028"><ele>246.39999999999998</ele><time>2026-04-25T10:15:58.5Z</time></trkpt><trkpt lat="44.0705588" lon="11.9989752"><ele>248.79999999999998</ele><time>2026-04-25T10:16:00.5Z</time></trkpt><trkpt lat="44.0704844" lon="11.9989462"><ele>251.20000000000002</ele><time>2026-04-25T10:16:01.491Z</time></trkpt><trkpt lat="44.0704005" lon="11.9989355"><ele>253.60000000000002</ele><time>2026-04-25T10:16:02.505Z</time></trkpt><trkpt lat="44.0703049" lon="11.9989473"><ele>256.0</ele><time>2026-04-25T10:16:03.485Z</time></trkpt><trkpt lat="44.0701956" lon="11.998958"><ele>256.0</ele><time>2026-04-25T10:16:04.501Z</time></trkpt><trkpt lat="44.07006" lon="11.9989591"><ele>256.0</ele><time>2026-04-25T10:16:05.502Z</time></trkpt><trkpt lat="44.0699127" lon="11.9989512"><ele>256.0</ele><time>2026-04-25T10:16:06.511Z</time></trkpt><trkpt lat="44.0697711" lon="11.9989342"><ele>256.0</ele><time>2026-04-25T10:16:07.51Z</time></trkpt><trkpt lat="44.0696555" lon="11.9989103"><ele>255.60000000000002</ele><time>2026-04-25T10:16:08.517Z</time></trkpt><trkpt lat="44.0695683" lon="11.9988701"><ele>255.20000000000002</ele><time>2026-04-25T10:16:09.501Z</time></trkpt><trkpt lat="44.0694951" lon="11.998813"><ele>254.79999999999998</ele><time>2026-04-25T10:16:10.497Z</time></trkpt><trkpt lat="44.0694352" lon="11.9987283"><ele>254.39999999999998</ele><time>2026-04-25T10:16:11.511Z</time></trkpt><trkpt lat="44.0693673" lon="11.9985965"><ele>254.0</ele><time>2026-04-25T10:16:12.501Z</time></trkpt><trkpt lat="44.0692793" lon="11.998446"><ele>257.75</ele><time>2026-04-25T10:16:13.494Z</time></trkpt><trkpt lat="44.0691798" lon="11.9983103"><ele>261.5</ele><time>2026-04-25T10:16:14.502Z</time></trkpt><trkpt lat="44.0690882" lon="11.9981823"><ele>265.25</ele><time>2026-04-25T10:16:15.495Z</time></trkpt><trkpt lat="44.0690197" lon="11.9980574"><ele>269.0</ele><time>2026-04-25T10:16:16.501Z</time></trkpt><trkpt lat="44.068977" lon="11.9979567"><ele>269.2</ele><time>2026-04-25T10:16:17.495Z</time></trkpt><trkpt lat="44.0689496" lon="11.9978398"><ele>269.4</ele><time>2026-04-25T10:16:18.496Z</time></trkpt><trkpt lat="44.0689276" lon="11.9976978"><ele>269.6</ele><time>2026-04-25T10:16:19.503Z</time></trkpt><trkpt lat="44.0689263" lon="11.9975368"><ele>269.8</ele><time>2026-04-25T10:16:20.501Z</time></trkpt><trkpt lat="44.0689267" lon="11.9973505"><ele>270.0</ele><time>2026-04-25T10:16:21.494Z</time></trkpt><trkpt lat="44.068923" lon="11.997159"><ele>270.8</ele><time>2026-04-25T10:16:22.502Z</time></trkpt><trkpt lat="44.0689155" lon="11.9969833"><ele>271.6</ele><time>2026-04-25T10:16:23.494Z</time></trkpt><trkpt lat="44.0689086" lon="11.9968256"><ele>272.4</ele><time>2026-04-25T10:16:24.498Z</time></trkpt><trkpt lat="44.0689126" lon="11.99668"><ele>273.2</ele><time>2026-04-25T10:16:25.496Z</time></trkpt><trkpt lat="44.0689287" lon="11.996548"><ele>274.0</ele><time>2026-04-25T10:16:26.493Z</time></trkpt><trkpt lat="44.0689274" lon="11.996412"><ele>275.2</ele><time>2026-04-25T10:16:27.497Z</time></trkpt><trkpt lat="44.0689081" lon="11.9962769"><ele>276.4</ele><time>2026-04-25T10:16:28.496Z</time></trkpt><trkpt lat="44.068864" lon="11.9961654"><ele>277.6</ele><time>2026-04-25T10:16:29.504Z</time></trkpt><trkpt lat="44.0687962" lon="11.996089"><ele>278.8</ele><time>2026-04-25T10:16:30.495Z</time></trkpt><trkpt lat="44.0686965" lon="11.9960167"><ele>280.0</ele><time>2026-04-25T10:16:31.488Z</time></trkpt><trkpt lat="44.0685921" lon="11.9959248"><ele>280.0</ele><time>2026-04-25T10:16:32.493Z</time></trkpt><trkpt lat="44.0684928" lon="11.9958378"><ele>280.0</ele><time>2026-04-25T10:16:33.498Z</time></trkpt><trkpt lat="44.0683892" lon="11.9957658"><ele>280.0</ele><time>2026-04-25T10:16:34.494Z</time></trkpt><trkpt lat="44.0683173" lon="11.9957155"><ele>280.0</ele><time>2026-04-25T10:16:35.484Z</time></trkpt><trkpt lat="44.0682668" lon="11.9956594"><ele>280.0</ele><time>2026-04-25T10:16:36.487Z</time></trkpt><trkpt lat="44.0682501" lon="11.9955058"><ele>281.66666666666663</ele><time>2026-04-25T10:16:38.492Z</time></trkpt><trkpt lat="44.0682942" lon="11.9954317"><ele>283.3333333333333</ele><time>2026-04-25T10:16:39.504Z</time></trkpt><trkpt lat="44.0683568" lon="11.9953757"><ele>285.0</ele><time>2026-04-25T10:16:40.507Z</time></trkpt><trkpt lat="44.068426" lon="11.995345"><ele>286.6666666666667</ele><time>2026-04-25T10:16:41.493Z</time></trkpt><trkpt lat="44.0685221" lon="11.9953239"><ele>288.33333333333337</ele><time>2026-04-25T10:16:42.503Z</time></trkpt><trkpt lat="44.0686366" lon="11.9953163"><ele>290.0</ele><time>2026-04-25T10:16:43.515Z</time></trkpt><trkpt lat="44.0687525" lon="11.9953156"><ele>290.0</ele><time>2026-04-25T10:16:44.497Z</time></trkpt><trkpt lat="44.0688808" lon="11.9953202"><ele>290.0</ele><time>2026-04-25T10:16:45.488Z</time></trkpt><trkpt lat="44.0690001" lon="11.9952965"><ele>290.0</ele><time>2026-04-25T10:16:46.489Z</time></trkpt><trkpt lat="44.0691022" lon="11.9952533"><ele>290.0</ele><time>2026-04-25T10:16:47.493Z</time></trkpt><trkpt lat="44.0691917" lon="11.9952515"><ele>290.0</ele><time>2026-04-25T10:16:48.498Z</time></trkpt><trkpt lat="44.0692737" lon="11.995303"><ele>290.83333333333337</ele><time>2026-04-25T10:16:49.497Z</time></trkpt><trkpt lat="44.0693373" lon="11.9953894"><ele>291.6666666666667</ele><time>2026-04-25T10:16:50.49Z</time></trkpt><trkpt lat="44.0693924" lon="11.9955041"><ele>292.5</ele><time>2026-04-25T10:16:51.502Z</time></trkpt><trkpt lat="44.0694367" lon="11.9956212"><ele>293.3333333333333</ele><time>2026-04-25T10:16:52.498Z</time></trkpt><trkpt lat="44.0694962" lon="11.995672"><ele>294.16666666666663</ele><time>2026-04-25T10:16:53.493Z</time></trkpt><trkpt lat="44.0695688" lon="11.9956799"><ele>295.0</ele><time>2026-04-25T10:16:54.494Z</time></trkpt><trkpt lat="44.069646" lon="11.9956625"><ele>295.0</ele><time>2026-04-25T10:16:55.489Z</time></trkpt><trkpt lat="44.0697214" lon="11.995615"><ele>295.0</ele><time>2026-04-25T10:16:56.498Z</time></trkpt><trkpt lat="44.0697919" lon="11.9955343"><ele>295.0</ele><time>2026-04-25T10:16:57.507Z</time></trkpt><trkpt lat="44.0698398" lon="11.9954463"><ele>295.0</ele><time>2026-04-25T10:16:58.486Z</time></trkpt><trkpt lat="44.0698345" lon="11.9952693"><ele>295.0</ele><time>2026-04-25T10:17:00.496Z</time></trkpt><trkpt lat="44.0698025" lon="11.9951649"><ele>295.0</ele><time>2026-04-25T10:17:01.492Z</time></trkpt><trkpt lat="44.0697463" lon="11.9950428"><ele>295.0</ele><time>2026-04-25T10:17:02.513Z</time></trkpt><trkpt lat="44.0696913" lon="11.9949008"><ele>295.0</ele><time>2026-04-25T10:17:03.499Z</time></trkpt><trkpt lat="44.0696476" lon="11.9947588"><ele>295.0</ele><time>2026-04-25T10:17:04.493Z</time></trkpt><trkpt lat="44.0696191" lon="11.9946238"><ele>295.0</ele><time>2026-04-25T10:17:05.488Z</time></trkpt><trkpt lat="44.0695978" lon="11.9944734"><ele>297.75</ele><time>2026-04-25T10:17:06.496Z</time></trkpt><trkpt lat="44.0695928" lon="11.9943002"><ele>300.5</ele><time>2026-04-25T10:17:07.499Z</time></trkpt><trkpt lat="44.0695957" lon="11.9941119"><ele>303.25</ele><time>2026-04-25T10:17:08.5Z</time></trkpt><trkpt lat="44.0695955" lon="11.9939196"><ele>306.0</ele><time>2026-04-25T10:17:09.492Z</time></trkpt><trkpt lat="44.069595" lon="11.993717"><ele>309.25</ele><time>2026-04-25T10:17:10.496Z</time></trkpt><trkpt lat="44.0695957" lon="11.9935052"><ele>312.5</ele><time>2026-04-25T10:17:11.497Z</time></trkpt><trkpt lat="44.0695994" lon="11.9932943"><ele>315.75</ele><time>2026-04-25T10:17:12.491Z</time></trkpt><trkpt lat="44.0696006" lon="11.9930976"><ele>319.0</ele><time>2026-04-25T10:17:13.496Z</time></trkpt><trkpt lat="44.0696084" lon="11.9929334"><ele>321.6</ele><time>2026-04-25T10:17:14.49Z</time></trkpt><trkpt lat="44.0696126" lon="11.9927955"><ele>324.2</ele><time>2026-04-25T10:17:15.493Z</time></trkpt><trkpt lat="44.0696333" lon="11.9926707"><ele>326.8</ele><time>2026-04-25T10:17:16.498Z</time></trkpt><trkpt lat="44.0696616" lon="11.9925515"><ele>329.40000000000003</ele><time>2026-04-25T10:17:17.487Z</time></trkpt><trkpt lat="44.0696854" lon="11.9924012"><ele>332.0</ele><time>2026-04-25T10:17:18.511Z</time></trkpt><trkpt lat="44.0697036" lon="11.9922348"><ele>330.8</ele><time>2026-04-25T10:17:19.496Z</time></trkpt><trkpt lat="44.069741" lon="11.9920983"><ele>329.6</ele><time>2026-04-25T10:17:20.497Z</time></trkpt><trkpt lat="44.0697944" lon="11.9919912"><ele>328.40000000000003</ele><time>2026-04-25T10:17:21.499Z</time></trkpt><trkpt lat="44.0698684" lon="11.9918948"><ele>327.20000000000005</ele><time>2026-04-25T10:17:22.496Z</time></trkpt><trkpt lat="44.0699446" lon="11.9918145"><ele>326.0</ele><time>2026-04-25T10:17:23.497Z</time></trkpt><trkpt lat="44.0700406" lon="11.9917493"><ele>326.0</ele><time>2026-04-25T10:17:24.497Z</time></trkpt><trkpt lat="44.0701457" lon="11.9916933"><ele>326.0</ele><time>2026-04-25T10:17:25.495Z</time></trkpt><trkpt lat="44.0702464" lon="11.9916311"><ele>326.0</ele><time>2026-04-25T10:17:26.499Z</time></trkpt><trkpt lat="44.0703491" lon="11.991576"><ele>326.0</ele><time>2026-04-25T10:17:27.508Z</time></trkpt><trkpt lat="44.0704596" lon="11.9915443"><ele>326.0</ele><time>2026-04-25T10:17:28.489Z</time></trkpt><trkpt lat="44.0705771" lon="11.9915231"><ele>327.8</ele><time>2026-04-25T10:17:29.492Z</time></trkpt><trkpt lat="44.0706895" lon="11.9915015"><ele>329.6</ele><time>2026-04-25T10:17:30.487Z</time></trkpt><trkpt lat="44.0707833" lon="11.9914783"><ele>331.4</ele><time>2026-04-25T10:17:31.488Z</time></trkpt><trkpt lat="44.0708572" lon="11.9914503"><ele>333.2</ele><time>2026-04-25T10:17:32.509Z</time></trkpt><trkpt lat="44.0709273" lon="11.9913886"><ele>335.0</ele><time>2026-04-25T10:17:33.496Z</time></trkpt><trkpt lat="44.0709908" lon="11.9913059"><ele>335.0</ele><time>2026-04-25T10:17:34.492Z</time></trkpt><trkpt lat="44.0710538" lon="11.9911928"><ele>335.0</ele><time>2026-04-25T10:17:35.493Z</time></trkpt><trkpt lat="44.0711188" lon="11.9910786"><ele>335.0</ele><time>2026-04-25T10:17:36.492Z</time></trkpt><trkpt lat="44.0711862" lon="11.9909897"><ele>335.0</ele><time>2026-04-25T10:17:37.489Z</time></trkpt><trkpt lat="44.0712481" lon="11.9909168"><ele>335.0</ele><time>2026-04-25T10:17:38.492Z</time></trkpt><trkpt lat="44.0713171" lon="11.9908645"><ele>335.0</ele><time>2026-04-25T10:17:39.494Z</time></trkpt><trkpt lat="44.0714125" lon="11.9908581"><ele>335.0</ele><time>2026-04-25T10:17:40.523Z</time></trkpt><trkpt lat="44.0715135" lon="11.9908854"><ele>335.0</ele><time>2026-04-25T10:17:41.486Z</time></trkpt><trkpt lat="44.0716171" lon="11.9909296"><ele>335.0</ele><time>2026-04-25T10:17:42.498Z</time></trkpt><trkpt lat="44.0717085" lon="11.9909851"><ele>335.0</ele><time>2026-04-25T10:17:43.495Z</time></trkpt><trkpt lat="44.0717948" lon="11.9910327"><ele>334.83333333333337</ele><time>2026-04-25T10:17:44.491Z</time></trkpt><trkpt lat="44.0718707" lon="11.9910657"><ele>334.6666666666667</ele><time>2026-04-25T10:17:45.488Z</time></trkpt><trkpt lat="44.0719514" lon="11.9910599"><ele>334.5</ele><time>2026-04-25T10:17:46.501Z</time></trkpt><trkpt lat="44.0720423" lon="11.9910357"><ele>334.3333333333333</ele><time>2026-04-25T10:17:47.493Z</time></trkpt><trkpt lat="44.0721143" lon="11.9909897"><ele>334.16666666666663</ele><time>2026-04-25T10:17:48.493Z</time></trkpt><trkpt lat="44.0721889" lon="11.9909458"><ele>334.0</ele><time>2026-04-25T10:17:49.491Z</time></trkpt><trkpt lat="44.0722865" lon="11.9909236"><ele>334.0</ele><time>2026-04-25T10:17:50.497Z</time></trkpt><trkpt lat="44.0723961" lon="11.990922"><ele>334.0</ele><time>2026-04-25T10:17:51.493Z</time></trkpt><trkpt lat="44.0725048" lon="11.9909472"><ele>334.0</ele><time>2026-04-25T10:17:52.495Z</time></trkpt><trkpt lat="44.0726246" lon="11.9909946"><ele>334.0</ele><time>2026-04-25T10:17:53.504Z</time></trkpt><trkpt lat="44.0727579" lon="11.9910405"><ele>335.6</ele><time>2026-04-25T10:17:54.485Z</time></trkpt><trkpt lat="44.0728811" lon="11.9911005"><ele>337.2</ele><time>2026-04-25T10:17:55.501Z</time></trkpt><trkpt lat="44.0729879" lon="11.9911331"><ele>338.8</ele><time>2026-04-25T10:17:56.486Z</time></trkpt><trkpt lat="44.0730828" lon="11.9911368"><ele>340.40000000000003</ele><time>2026-04-25T10:17:57.495Z</time></trkpt><trkpt lat="44.0731815" lon="11.9911078"><ele>342.0</ele><time>2026-04-25T10:17:58.492Z</time></trkpt><trkpt lat="44.0733048" lon="11.9910361"><ele>343.0</ele><time>2026-04-25T10:17:59.489Z</time></trkpt><trkpt lat="44.0734412" lon="11.9909418"><ele>344.0</ele><time>2026-04-25T10:18:00.488Z</time></trkpt><trkpt lat="44.0735715" lon="11.9908447"><ele>345.0</ele><time>2026-04-25T10:18:01.488Z</time></trkpt><trkpt lat="44.0736872" lon="11.9907628"><ele>346.0</ele><time>2026-04-25T10:18:02.5Z</time></trkpt><trkpt lat="44.0737952" lon="11.9906804"><ele>349.75</ele><time>2026-04-25T10:18:03.488Z</time></trkpt><trkpt lat="44.0738898" lon="11.9905936"><ele>353.5</ele><time>2026-04-25T10:18:04.486Z</time></trkpt><trkpt lat="44.0739755" lon="11.9905089"><ele>357.25</ele><time>2026-04-25T10:18:05.491Z</time></trkpt><trkpt lat="44.0740843" lon="11.9904015"><ele>361.0</ele><time>2026-04-25T10:18:06.486Z</time></trkpt><trkpt lat="44.0742065" lon="11.9903032"><ele>361.0</ele><time>2026-04-25T10:18:07.488Z</time></trkpt><trkpt lat="44.0743174" lon="11.9902053"><ele>361.0</ele><time>2026-04-25T10:18:08.493Z</time></trkpt><trkpt lat="44.074426" lon="11.9901076"><ele>361.0</ele><time>2026-04-25T10:18:09.49Z</time></trkpt><trkpt lat="44.0745309" lon="11.9899915"><ele>361.0</ele><time>2026-04-25T10:18:10.479Z</time></trkpt><trkpt lat="44.074623" lon="11.9898731"><ele>361.6</ele><time>2026-04-25T10:18:11.489Z</time></trkpt><trkpt lat="44.074699" lon="11.9897555"><ele>362.20000000000005</ele><time>2026-04-25T10:18:12.492Z</time></trkpt><trkpt lat="44.0747582" lon="11.989663"><ele>362.79999999999995</ele><time>2026-04-25T10:18:13.481Z</time></trkpt><trkpt lat="44.0748313" lon="11.9895916"><ele>363.4</ele><time>2026-04-25T10:18:14.503Z</time></trkpt><trkpt lat="44.0749296" lon="11.9895364"><ele>364.0</ele><time>2026-04-25T10:18:15.489Z</time></trkpt><trkpt lat="44.0750375" lon="11.9894698"><ele>364.0</ele><time>2026-04-25T10:18:16.5Z</time></trkpt><trkpt lat="44.0751579" lon="11.9893896"><ele>364.0</ele><time>2026-04-25T10:18:17.491Z</time></trkpt><trkpt lat="44.0752698" lon="11.9893003"><ele>364.0</ele><time>2026-04-25T10:18:18.489Z</time></trkpt><trkpt lat="44.0753757" lon="11.9892052"><ele>364.0</ele><time>2026-04-25T10:18:19.491Z</time></trkpt><trkpt lat="44.0754631" lon="11.9891085"><ele>366.0</ele><time>2026-04-25T10:18:20.487Z</time></trkpt><trkpt lat="44.0755443" lon="11.9890337"><ele>368.0</ele><time>2026-04-25T10:18:21.494Z</time></trkpt><trkpt lat="44.0756393" lon="11.9890041"><ele>370.0</ele><time>2026-04-25T10:18:22.484Z</time></trkpt><trkpt lat="44.075752" lon="11.989029"><ele>372.0</ele><time>2026-04-25T10:18:23.493Z</time></trkpt><trkpt lat="44.0758637" lon="11.9890668"><ele>374.0</ele><time>2026-04-25T10:18:24.506Z</time></trkpt><trkpt lat="44.0759659" lon="11.9890981"><ele>374.0</ele><time>2026-04-25T10:18:25.497Z</time></trkpt><trkpt lat="44.0760545" lon="11.9890819"><ele>374.0</ele><time>2026-04-25T10:18:26.493Z</time></trkpt><trkpt lat="44.076137" lon="11.9890428"><ele>374.0</ele><time>2026-04-25T10:18:27.505Z</time></trkpt><trkpt lat="44.0762145" lon="11.9889662"><ele>374.0</ele><time>2026-04-25T10:18:28.509Z</time></trkpt><trkpt lat="44.0762734" lon="11.9888548"><ele>374.0</ele><time>2026-04-25T10:18:29.487Z</time></trkpt><trkpt lat="44.076329" lon="11.988745"><ele>374.0</ele><time>2026-04-25T10:18:30.499Z</time></trkpt><trkpt lat="44.0763862" lon="11.9886448"><ele>374.0</ele><time>2026-04-25T10:18:31.505Z</time></trkpt><trkpt lat="44.0764569" lon="11.9885727"><ele>374.0</ele><time>2026-04-25T10:18:32.499Z</time></trkpt><trkpt lat="44.076535" lon="11.9885408"><ele>374.0</ele><time>2026-04-25T10:18:33.492Z</time></trkpt><trkpt lat="44.0766254" lon="11.9885314"><ele>374.0</ele><time>2026-04-25T10:18:34.489Z</time></trkpt><trkpt lat="44.0766958" lon="11.9885469"><ele>374.0</ele><time>2026-04-25T10:18:35.488Z</time></trkpt><trkpt lat="44.0767678" lon="11.9885851"><ele>373.83333333333337</ele><time>2026-04-25T10:18:36.495Z</time></trkpt><trkpt lat="44.0768325" lon="11.9886322"><ele>373.6666666666667</ele><time>2026-04-25T10:18:37.496Z</time></trkpt><trkpt lat="44.0768837" lon="11.9886877"><ele>373.5</ele><time>2026-04-25T10:18:38.503Z</time></trkpt><trkpt lat="44.0769383" lon="11.9887837"><ele>373.3333333333333</ele><time>2026-04-25T10:18:39.489Z</time></trkpt><trkpt lat="44.0769976" lon="11.9888908"><ele>373.16666666666663</ele><time>2026-04-25T10:18:40.492Z</time></trkpt><trkpt lat="44.0770717" lon="11.9890037"><ele>373.0</ele><time>2026-04-25T10:18:41.497Z</time></trkpt><trkpt lat="44.0771637" lon="11.9891086"><ele>373.16666666666663</ele><time>2026-04-25T10:18:42.494Z</time></trkpt><trkpt lat="44.0772348" lon="11.9891991"><ele>373.3333333333333</ele><time>2026-04-25T10:18:43.499Z</time></trkpt><trkpt lat="44.077281" lon="11.9893011"><ele>373.5</ele><time>2026-04-25T10:18:44.499Z</time></trkpt><trkpt lat="44.0773119" lon="11.9894047"><ele>373.6666666666667</ele><time>2026-04-25T10:18:45.491Z</time></trkpt><trkpt lat="44.0773433" lon="11.9895111"><ele>373.83333333333337</ele><time>2026-04-25T10:18:46.501Z</time></trkpt><trkpt lat="44.0773837" lon="11.9896309"><ele>374.0</ele><time>2026-04-25T10:18:47.491Z</time></trkpt><trkpt lat="44.0774416" lon="11.989765"><ele>374.0</ele><time>2026-04-25T10:18:48.498Z</time></trkpt><trkpt lat="44.0775067" lon="11.9899029"><ele>374.0</ele><time>2026-04-25T10:18:49.518Z</time></trkpt><trkpt lat="44.0775671" lon="11.9900257"><ele>374.0</ele><time>2026-04-25T10:18:50.505Z</time></trkpt><trkpt lat="44.0776222" lon="11.9901397"><ele>374.0</ele><time>2026-04-25T10:18:51.508Z</time></trkpt><trkpt lat="44.0776713" lon="11.9902281"><ele>374.0</ele><time>2026-04-25T10:18:52.488Z</time></trkpt><trkpt lat="44.077723" lon="11.9903111"><ele>372.83333333333337</ele><time>2026-04-25T10:18:54.493Z</time></trkpt><trkpt lat="44.0777763" lon="11.9903916"><ele>371.6666666666667</ele><time>2026-04-25T10:18:57.501Z</time></trkpt><trkpt lat="44.077812" lon="11.9905368"><ele>370.5</ele><time>2026-04-25T10:18:59.501Z</time></trkpt><trkpt lat="44.0778438" lon="11.9906152"><ele>369.3333333333333</ele><time>2026-04-25T10:19:00.498Z</time></trkpt><trkpt lat="44.0778891" lon="11.9907604"><ele>368.16666666666663</ele><time>2026-04-25T10:19:02.489Z</time></trkpt><trkpt lat="44.0778873" lon="11.990853"><ele>367.0</ele><time>2026-04-25T10:19:03.519Z</time></trkpt><trkpt lat="44.0778737" lon="11.9909524"><ele>363.3333333333333</ele><time>2026-04-25T10:19:04.504Z</time></trkpt><trkpt lat="44.0778692" lon="11.99104"><ele>359.66666666666663</ele><time>2026-04-25T10:19:05.502Z</time></trkpt><trkpt lat="44.0779105" lon="11.991163"><ele>356.0</ele><time>2026-04-25T10:19:07.498Z</time></trkpt><trkpt lat="44.0780094" lon="11.9912197"><ele>352.3333333333333</ele><time>2026-04-25T10:19:09.488Z</time></trkpt><trkpt lat="44.0780837" lon="11.9912332"><ele>348.6666666666667</ele><time>2026-04-25T10:19:10.496Z</time></trkpt><trkpt lat="44.0781652" lon="11.9912476"><ele>345.0</ele><time>2026-04-25T10:19:11.495Z</time></trkpt><trkpt lat="44.0782559" lon="11.9912731"><ele>348.25</ele><time>2026-04-25T10:19:12.491Z</time></trkpt><trkpt lat="44.0783628" lon="11.9913004"><ele>351.5</ele><time>2026-04-25T10:19:13.501Z</time></trkpt><trkpt lat="44.0784924" lon="11.991326"><ele>354.75</ele><time>2026-04-25T10:19:14.496Z</time></trkpt><trkpt lat="44.0786213" lon="11.9913503"><ele>358.0</ele><time>2026-04-25T10:19:15.491Z</time></trkpt><trkpt lat="44.0787239" lon="11.9913782"><ele>358.00000000000006</ele><time>2026-04-25T10:19:16.501Z</time></trkpt><trkpt lat="44.0787978" lon="11.9913987"><ele>358.0</ele><time>2026-04-25T10:19:17.503Z</time></trkpt><trkpt lat="44.0788628" lon="11.9914236"><ele>358.0</ele><time>2026-04-25T10:19:18.501Z</time></trkpt><trkpt lat="44.0789414" lon="11.9914605"><ele>358.0</ele><time>2026-04-25T10:19:19.516Z</time></trkpt><trkpt lat="44.0790064" lon="11.9915067"><ele>358.0</ele><time>2026-04-25T10:19:20.489Z</time></trkpt><trkpt lat="44.0790572" lon="11.9915648"><ele>358.00000000000006</ele><time>2026-04-25T10:19:21.491Z</time></trkpt><trkpt lat="44.079109" lon="11.9916402"><ele>358.0</ele><time>2026-04-25T10:19:22.491Z</time></trkpt><trkpt lat="44.0791611" lon="11.9917251"><ele>356.66666666666663</ele><time>2026-04-25T10:19:23.486Z</time></trkpt><trkpt lat="44.0792059" lon="11.9918052"><ele>355.3333333333333</ele><time>2026-04-25T10:19:24.488Z</time></trkpt><trkpt lat="44.0792763" lon="11.9919082"><ele>354.0</ele><time>2026-04-25T10:19:26.489Z</time></trkpt><trkpt lat="44.0793391" lon="11.9919909"><ele>352.6666666666667</ele><time>2026-04-25T10:19:28.499Z</time></trkpt><trkpt lat="44.0793981" lon="11.9920495"><ele>351.33333333333337</ele><time>2026-04-25T10:19:30.5Z</time></trkpt><trkpt lat="44.07946" lon="11.9921111"><ele>350.0</ele><time>2026-04-25T10:19:32.496Z</time></trkpt><trkpt lat="44.0795464" lon="11.9921858"><ele>350.0</ele><time>2026-04-25T10:19:34.496Z</time></trkpt><trkpt lat="44.0796501" lon="11.9922777"><ele>350.0</ele><time>2026-04-25T10:19:36.489Z</time></trkpt><trkpt lat="44.0797134" lon="11.9923375"><ele>350.0</ele><time>2026-04-25T10:19:37.482Z</time></trkpt><trkpt lat="44.0797796" lon="11.9923958"><ele>350.0</ele><time>2026-04-25T10:19:38.493Z</time></trkpt><trkpt lat="44.079877" lon="11.9925045"><ele>350.0</ele><time>2026-04-25T10:19:40.511Z</time></trkpt><trkpt lat="44.079944" lon="11.9925649"><ele>348.4</ele><time>2026-04-25T10:19:41.492Z</time></trkpt><trkpt lat="44.0800124" lon="11.9926309"><ele>346.8</ele><time>2026-04-25T10:19:42.486Z</time></trkpt><trkpt lat="44.080086" lon="11.9927009"><ele>345.20000000000005</ele><time>2026-04-25T10:19:43.489Z</time></trkpt><trkpt lat="44.0801637" lon="11.9927859"><ele>343.6</ele><time>2026-04-25T10:19:44.488Z</time></trkpt><trkpt lat="44.080243" lon="11.9928771"><ele>342.0</ele><time>2026-04-25T10:19:45.486Z</time></trkpt><trkpt lat="44.0803346" lon="11.992998"><ele>342.0</ele><time>2026-04-25T10:19:46.489Z</time></trkpt><trkpt lat="44.0804262" lon="11.9931244"><ele>342.0</ele><time>2026-04-25T10:19:47.492Z</time></trkpt><trkpt lat="44.0805023" lon="11.9932543"><ele>342.0</ele><time>2026-04-25T10:19:48.493Z</time></trkpt><trkpt lat="44.0805667" lon="11.9934028"><ele>342.0</ele><time>2026-04-25T10:19:49.489Z</time></trkpt><trkpt lat="44.0806156" lon="11.9935526"><ele>341.6</ele><time>2026-04-25T10:19:50.5Z</time></trkpt><trkpt lat="44.0806444" lon="11.9936699"><ele>341.20000000000005</ele><time>2026-04-25T10:19:51.497Z</time></trkpt><trkpt lat="44.0806724" lon="11.9938006"><ele>340.8</ele><time>2026-04-25T10:19:52.502Z</time></trkpt><trkpt lat="44.0807073" lon="11.9939349"><ele>340.4</ele><time>2026-04-25T10:19:53.491Z</time></trkpt><trkpt lat="44.080744" lon="11.9940573"><ele>340.0</ele><time>2026-04-25T10:19:54.502Z</time></trkpt><trkpt lat="44.0808101" lon="11.9941739"><ele>340.0</ele><time>2026-04-25T10:19:55.485Z</time></trkpt><trkpt lat="44.0809037" lon="11.9942698"><ele>340.0</ele><time>2026-04-25T10:19:56.494Z</time></trkpt><trkpt lat="44.0810048" lon="11.994375"><ele>340.0</ele><time>2026-04-25T10:19:57.494Z</time></trkpt><trkpt lat="44.0811102" lon="11.9944841"><ele>340.0</ele><time>2026-04-25T10:19:58.49Z</time></trkpt><trkpt lat="44.0812179" lon="11.9945945"><ele>340.0</ele><time>2026-04-25T10:19:59.487Z</time></trkpt><trkpt lat="44.0813187" lon="11.9946981"><ele>340.0</ele><time>2026-04-25T10:20:00.494Z</time></trkpt><trkpt lat="44.0814178" lon="11.9948031"><ele>340.0</ele><time>2026-04-25T10:20:01.493Z</time></trkpt><trkpt lat="44.0815168" lon="11.9949062"><ele>340.0</ele><time>2026-04-25T10:20:02.492Z</time></trkpt><trkpt lat="44.0816137" lon="11.9950032"><ele>344.2</ele><time>2026-04-25T10:20:03.489Z</time></trkpt><trkpt lat="44.0816957" lon="11.9950974"><ele>348.4</ele><time>2026-04-25T10:20:04.489Z</time></trkpt><trkpt lat="44.0817728" lon="11.9952073"><ele>352.6</ele><time>2026-04-25T10:20:05.483Z</time></trkpt><trkpt lat="44.0818485" lon="11.995337"><ele>356.8</ele><time>2026-04-25T10:20:06.499Z</time></trkpt><trkpt lat="44.0819133" lon="11.9954628"><ele>361.0</ele><time>2026-04-25T10:20:07.488Z</time></trkpt><trkpt lat="44.0819716" lon="11.9955825"><ele>361.0</ele><time>2026-04-25T10:20:08.497Z</time></trkpt><trkpt lat="44.0820318" lon="11.9956939"><ele>361.0</ele><time>2026-04-25T10:20:09.492Z</time></trkpt><trkpt lat="44.0821013" lon="11.9958117"><ele>361.0</ele><time>2026-04-25T10:20:10.51Z</time></trkpt><trkpt lat="44.0821785" lon="11.9959376"><ele>361.0</ele><time>2026-04-25T10:20:11.489Z</time></trkpt><trkpt lat="44.0822702" lon="11.9960657"><ele>360.20000000000005</ele><time>2026-04-25T10:20:12.496Z</time></trkpt><trkpt lat="44.0823552" lon="11.9961698"><ele>359.40000000000003</ele><time>2026-04-25T10:20:13.482Z</time></trkpt><trkpt lat="44.0824432" lon="11.9962444"><ele>358.6</ele><time>2026-04-25T10:20:14.494Z</time></trkpt><trkpt lat="44.0825292" lon="11.9963092"><ele>357.8</ele><time>2026-04-25T10:20:15.486Z</time></trkpt><trkpt lat="44.0826053" lon="11.9963601"><ele>357.0</ele><time>2026-04-25T10:20:16.497Z</time></trkpt><trkpt lat="44.0826725" lon="11.9963936"><ele>359.5</ele><time>2026-04-25T10:20:17.49Z</time></trkpt><trkpt lat="44.0827631" lon="11.996434"><ele>362.0</ele><time>2026-04-25T10:20:19.485Z</time></trkpt><trkpt lat="44.0828055" lon="11.9965019"><ele>364.5</ele><time>2026-04-25T10:20:21.487Z</time></trkpt><trkpt lat="44.0828858" lon="11.9966267"><ele>367.0</ele><time>2026-04-25T10:20:23.493Z</time></trkpt><trkpt lat="44.0829309" lon="11.9967199"><ele>369.5</ele><time>2026-04-25T10:20:24.498Z</time></trkpt><trkpt lat="44.0829706" lon="11.9968028"><ele>372.0</ele><time>2026-04-25T10:20:25.489Z</time></trkpt><trkpt lat="44.0830491" lon="11.996936"><ele>372.0</ele><time>2026-04-25T10:20:27.495Z</time></trkpt><trkpt lat="44.0831234" lon="11.9970652"><ele>372.0</ele><time>2026-04-25T10:20:29.495Z</time></trkpt><trkpt lat="44.0831664" lon="11.9971421"><ele>372.0</ele><time>2026-04-25T10:20:30.491Z</time></trkpt><trkpt lat="44.0832226" lon="11.9972224"><ele>372.0</ele><time>2026-04-25T10:20:31.488Z</time></trkpt><trkpt lat="44.0832882" lon="11.9973003"><ele>372.0</ele><time>2026-04-25T10:20:32.499Z</time></trkpt><trkpt lat="44.083355" lon="11.9973866"><ele>372.0</ele><time>2026-04-25T10:20:33.494Z</time></trkpt><trkpt lat="44.0834223" lon="11.997466"><ele>373.14285714285717</ele><time>2026-04-25T10:20:34.495Z</time></trkpt><trkpt lat="44.0834771" lon="11.9975302"><ele>374.2857142857143</ele><time>2026-04-25T10:20:35.485Z</time></trkpt><trkpt lat="44.0835276" lon="11.9975912"><ele>375.42857142857144</ele><time>2026-04-25T10:20:36.497Z</time></trkpt><trkpt lat="44.0835888" lon="11.9976406"><ele>376.57142857142856</ele><time>2026-04-25T10:20:37.494Z</time></trkpt><trkpt lat="44.0836484" lon="11.9976751"><ele>377.7142857142857</ele><time>2026-04-25T10:20:38.498Z</time></trkpt><trkpt lat="44.0837107" lon="11.9977093"><ele>378.8571428571429</ele><time>2026-04-25T10:20:39.486Z</time></trkpt><trkpt lat="44.0838145" lon="11.9977489"><ele>380.0</ele><time>2026-04-25T10:20:41.491Z</time></trkpt><trkpt lat="44.0838863" lon="11.9977638"><ele>380.0</ele><time>2026-04-25T10:20:43.489Z</time></trkpt><trkpt lat="44.0839634" lon="11.9978597"><ele>380.0</ele><time>2026-04-25T10:20:46.501Z</time></trkpt><trkpt lat="44.0840377" lon="11.9979592"><ele>380.0</ele><time>2026-04-25T10:20:48.498Z</time></trkpt><trkpt lat="44.0841531" lon="11.9980422"><ele>380.0</ele><time>2026-04-25T10:20:50.51Z</time></trkpt><trkpt lat="44.0842244" lon="11.9980516"><ele>380.0</ele><time>2026-04-25T10:20:51.5Z</time></trkpt><trkpt lat="44.084307" lon="11.9980642"><ele>382.0</ele><time>2026-04-25T10:20:52.521Z</time></trkpt><trkpt lat="44.0843725" lon="11.9980792"><ele>384.0</ele><time>2026-04-25T10:20:53.496Z</time></trkpt><trkpt lat="44.0844339" lon="11.9980538"><ele>386.0</ele><time>2026-04-25T10:20:55.513Z</time></trkpt><trkpt lat="44.0844812" lon="11.9979577"><ele>388.0</ele><time>2026-04-25T10:20:57.503Z</time></trkpt><trkpt lat="44.084533" lon="11.9978247"><ele>389.99999999999994</ele><time>2026-04-25T10:20:59.499Z</time></trkpt><trkpt lat="44.0845823" lon="11.9976694"><ele>392.0</ele><time>2026-04-25T10:21:01.494Z</time></trkpt><trkpt lat="44.0846108" lon="11.997589"><ele>391.16666666666663</ele><time>2026-04-25T10:21:02.501Z</time></trkpt><trkpt lat="44.0846444" lon="11.9974983"><ele>390.3333333333333</ele><time>2026-04-25T10:21:03.494Z</time></trkpt><trkpt lat="44.0846789" lon="11.9974115"><ele>389.5</ele><time>2026-04-25T10:21:04.504Z</time></trkpt><trkpt lat="44.0847179" lon="11.9973158"><ele>388.66666666666663</ele><time>2026-04-25T10:21:05.491Z</time></trkpt><trkpt lat="44.0847582" lon="11.9972135"><ele>387.8333333333333</ele><time>2026-04-25T10:21:06.5Z</time></trkpt><trkpt lat="44.0847916" lon="11.9971079"><ele>387.0</ele><time>2026-04-25T10:21:07.494Z</time></trkpt><trkpt lat="44.084817" lon="11.9970129"><ele>387.0</ele><time>2026-04-25T10:21:08.554Z</time></trkpt><trkpt lat="44.0848417" lon="11.9969151"><ele>387.0</ele><time>2026-04-25T10:21:09.516Z</time></trkpt><trkpt lat="44.0848737" lon="11.996813"><ele>387.0</ele><time>2026-04-25T10:21:10.515Z</time></trkpt><trkpt lat="44.084921" lon="11.9967334"><ele>387.0</ele><time>2026-04-25T10:21:11.496Z</time></trkpt><trkpt lat="44.0849846" lon="11.996664"><ele>387.0</ele><time>2026-04-25T10:21:12.492Z</time></trkpt><trkpt lat="44.0850541" lon="11.9966036"><ele>387.0</ele><time>2026-04-25T10:21:13.507Z</time></trkpt><trkpt lat="44.0851248" lon="11.996545"><ele>383.5</ele><time>2026-04-25T10:21:14.508Z</time></trkpt><trkpt lat="44.0851988" lon="11.9964838"><ele>380.0</ele><time>2026-04-25T10:21:15.486Z</time></trkpt><trkpt lat="44.0852735" lon="11.9964221"><ele>376.5</ele><time>2026-04-25T10:21:16.498Z</time></trkpt><trkpt lat="44.0853475" lon="11.9963609"><ele>373.0</ele><time>2026-04-25T10:21:17.49Z</time></trkpt><trkpt lat="44.0854159" lon="11.9963102"><ele>369.5</ele><time>2026-04-25T10:21:18.489Z</time></trkpt><trkpt lat="44.0854735" lon="11.9962612"><ele>366.0</ele><time>2026-04-25T10:21:19.494Z</time></trkpt><trkpt lat="44.0855362" lon="11.9962138"><ele>366.0</ele><time>2026-04-25T10:21:20.491Z</time></trkpt><trkpt lat="44.0855929" lon="11.9961619"><ele>366.0</ele><time>2026-04-25T10:21:21.496Z</time></trkpt><trkpt lat="44.0856488" lon="11.9960956"><ele>366.0</ele><time>2026-04-25T10:21:22.541Z</time></trkpt><trkpt lat="44.0857059" lon="11.9960288"><ele>366.0</ele><time>2026-04-25T10:21:23.49Z</time></trkpt><trkpt lat="44.0857623" lon="11.9959688"><ele>366.0</ele><time>2026-04-25T10:21:24.488Z</time></trkpt><trkpt lat="44.0858159" lon="11.9959185"><ele>366.0</ele><time>2026-04-25T10:21:25.489Z</time></trkpt><trkpt lat="44.0858678" lon="11.9958679"><ele>366.0</ele><time>2026-04-25T10:21:26.5Z</time></trkpt><trkpt lat="44.0859804" lon="11.9957936"><ele>364.1666666666667</ele><time>2026-04-25T10:21:28.49Z</time></trkpt><trkpt lat="44.0860423" lon="11.995736"><ele>362.3333333333333</ele><time>2026-04-25T10:21:29.491Z</time></trkpt><trkpt lat="44.0861051" lon="11.9956769"><ele>360.5</ele><time>2026-04-25T10:21:30.497Z</time></trkpt><trkpt lat="44.0861673" lon="11.9956146"><ele>358.66666666666663</ele><time>2026-04-25T10:21:31.497Z</time></trkpt><trkpt lat="44.0862231" lon="11.995549"><ele>356.8333333333333</ele><time>2026-04-25T10:21:32.491Z</time></trkpt><trkpt lat="44.0862708" lon="11.9954772"><ele>355.0</ele><time>2026-04-25T10:21:33.498Z</time></trkpt><trkpt lat="44.0863309" lon="11.9953361"><ele>355.0</ele><time>2026-04-25T10:21:35.494Z</time></trkpt><trkpt lat="44.0863596" lon="11.9951906"><ele>355.0</ele><time>2026-04-25T10:21:37.485Z</time></trkpt><trkpt lat="44.0864001" lon="11.9950626"><ele>355.0</ele><time>2026-04-25T10:21:39.488Z</time></trkpt><trkpt lat="44.0864725" lon="11.9949191"><ele>355.0</ele><time>2026-04-25T10:21:41.497Z</time></trkpt><trkpt lat="44.0865226" lon="11.9948548"><ele>355.0</ele><time>2026-04-25T10:21:42.494Z</time></trkpt><trkpt lat="44.0865754" lon="11.9947866"><ele>352.85714285714283</ele><time>2026-04-25T10:21:43.494Z</time></trkpt><trkpt lat="44.0866304" lon="11.9947236"><ele>350.7142857142857</ele><time>2026-04-25T10:21:44.495Z</time></trkpt><trkpt lat="44.0866821" lon="11.9946525"><ele>348.57142857142856</ele><time>2026-04-25T10:21:45.487Z</time></trkpt><trkpt lat="44.0867358" lon="11.9945743"><ele>346.42857142857144</ele><time>2026-04-25T10:21:46.493Z</time></trkpt><trkpt lat="44.0867855" lon="11.9944923"><ele>344.2857142857143</ele><time>2026-04-25T10:21:47.504Z</time></trkpt><trkpt lat="44.0868333" lon="11.9944171"><ele>342.14285714285717</ele><time>2026-04-25T10:21:48.502Z</time></trkpt><trkpt lat="44.0868758" lon="11.9943444"><ele>340.0</ele><time>2026-04-25T10:21:49.494Z</time></trkpt><trkpt lat="44.0869538" lon="11.9942317"><ele>337.16666666666663</ele><time>2026-04-25T10:21:51.498Z</time></trkpt><trkpt lat="44.0870187" lon="11.994104"><ele>334.3333333333333</ele><time>2026-04-25T10:21:53.492Z</time></trkpt><trkpt lat="44.0870565" lon="11.994017"><ele>331.5</ele><time>2026-04-25T10:21:54.494Z</time></trkpt><trkpt lat="44.0870854" lon="11.993923"><ele>328.6666666666667</ele><time>2026-04-25T10:21:55.492Z</time></trkpt><trkpt lat="44.0871169" lon="11.9938374"><ele>325.83333333333337</ele><time>2026-04-25T10:21:56.492Z</time></trkpt><trkpt lat="44.0871416" lon="11.9937493"><ele>323.0</ele><time>2026-04-25T10:21:57.485Z</time></trkpt><trkpt lat="44.0871656" lon="11.9936617"><ele>323.0</ele><time>2026-04-25T10:21:58.495Z</time></trkpt><trkpt lat="44.0871989" lon="11.9935837"><ele>323.0</ele><time>2026-04-25T10:21:59.491Z</time></trkpt><trkpt lat="44.0872458" lon="11.9935014"><ele>323.0</ele><time>2026-04-25T10:22:00.491Z</time></trkpt><trkpt lat="44.0872967" lon="11.9934164"><ele>323.0</ele><time>2026-04-25T10:22:01.482Z</time></trkpt><trkpt lat="44.0873446" lon="11.9933213"><ele>323.0</ele><time>2026-04-25T10:22:02.515Z</time></trkpt><trkpt lat="44.0873919" lon="11.9932348"><ele>323.0</ele><time>2026-04-25T10:22:03.489Z</time></trkpt><trkpt lat="44.0874443" lon="11.9931506"><ele>319.6666666666667</ele><time>2026-04-25T10:22:04.494Z</time></trkpt><trkpt lat="44.0874944" lon="11.9930607"><ele>316.33333333333337</ele><time>2026-04-25T10:22:05.488Z</time></trkpt><trkpt lat="44.0875378" lon="11.992975"><ele>313.0</ele><time>2026-04-25T10:22:06.496Z</time></trkpt><trkpt lat="44.0875674" lon="11.9928865"><ele>309.6666666666667</ele><time>2026-04-25T10:22:07.5Z</time></trkpt><trkpt lat="44.0876002" lon="11.9927934"><ele>306.3333333333333</ele><time>2026-04-25T10:22:08.478Z</time></trkpt><trkpt lat="44.0876394" lon="11.9926923"><ele>303.0</ele><time>2026-04-25T10:22:09.491Z</time></trkpt><trkpt lat="44.0876867" lon="11.9925877"><ele>301.6666666666667</ele><time>2026-04-25T10:22:10.488Z</time></trkpt><trkpt lat="44.0877298" lon="11.9924779"><ele>300.3333333333333</ele><time>2026-04-25T10:22:11.48Z</time></trkpt><trkpt lat="44.0877705" lon="11.9923679"><ele>299.0</ele><time>2026-04-25T10:22:12.503Z</time></trkpt><trkpt lat="44.0878074" lon="11.9922545"><ele>297.66666666666663</ele><time>2026-04-25T10:22:13.49Z</time></trkpt><trkpt lat="44.0878349" lon="11.992153"><ele>296.3333333333333</ele><time>2026-04-25T10:22:14.492Z</time></trkpt><trkpt lat="44.0878639" lon="11.9920151"><ele>295.0</ele><time>2026-04-25T10:22:16.498Z</time></trkpt><trkpt lat="44.0878896" lon="11.9918891"><ele>295.0</ele><time>2026-04-25T10:22:18.494Z</time></trkpt><trkpt lat="44.0879061" lon="11.9917975"><ele>295.0</ele><time>2026-04-25T10:22:19.507Z</time></trkpt><trkpt lat="44.0879288" lon="11.9916895"><ele>295.0</ele><time>2026-04-25T10:22:20.492Z</time></trkpt><trkpt lat="44.0879557" lon="11.991581"><ele>295.0</ele><time>2026-04-25T10:22:21.496Z</time></trkpt><trkpt lat="44.0879911" lon="11.9914778"><ele>295.0</ele><time>2026-04-25T10:22:22.492Z</time></trkpt><trkpt lat="44.0880341" lon="11.9913722"><ele>295.0</ele><time>2026-04-25T10:22:23.49Z</time></trkpt><trkpt lat="44.0880884" lon="11.9912786"><ele>293.8333333333333</ele><time>2026-04-25T10:22:24.491Z</time></trkpt><trkpt lat="44.0881435" lon="11.991184"><ele>292.66666666666663</ele><time>2026-04-25T10:22:25.485Z</time></trkpt><trkpt lat="44.0881908" lon="11.9910737"><ele>291.5</ele><time>2026-04-25T10:22:26.494Z</time></trkpt><trkpt lat="44.0882322" lon="11.9909623"><ele>290.3333333333333</ele><time>2026-04-25T10:22:27.492Z</time></trkpt><trkpt lat="44.0882743" lon="11.9908631"><ele>289.1666666666667</ele><time>2026-04-25T10:22:28.495Z</time></trkpt><trkpt lat="44.0883223" lon="11.9907631"><ele>288.0</ele><time>2026-04-25T10:22:29.5Z</time></trkpt><trkpt lat="44.0883743" lon="11.9906535"><ele>286.6666666666667</ele><time>2026-04-25T10:22:30.49Z</time></trkpt><trkpt lat="44.0884242" lon="11.9905401"><ele>285.3333333333333</ele><time>2026-04-25T10:22:31.488Z</time></trkpt><trkpt lat="44.0884698" lon="11.9904443"><ele>284.0</ele><time>2026-04-25T10:22:32.498Z</time></trkpt><trkpt lat="44.0885088" lon="11.9903696"><ele>282.66666666666663</ele><time>2026-04-25T10:22:33.495Z</time></trkpt><trkpt lat="44.0885682" lon="11.9902758"><ele>281.3333333333333</ele><time>2026-04-25T10:22:36.492Z</time></trkpt><trkpt lat="44.0886387" lon="11.9901712"><ele>280.0</ele><time>2026-04-25T10:22:38.492Z</time></trkpt><trkpt lat="44.0887169" lon="11.9900605"><ele>277.6</ele><time>2026-04-25T10:22:40.498Z</time></trkpt><trkpt lat="44.0887788" lon="11.9899512"><ele>275.2</ele><time>2026-04-25T10:22:42.491Z</time></trkpt><trkpt lat="44.0888155" lon="11.9898081"><ele>272.8</ele><time>2026-04-25T10:22:44.502Z</time></trkpt><trkpt lat="44.0888197" lon="11.9896726"><ele>270.4</ele><time>2026-04-25T10:22:46.489Z</time></trkpt><trkpt lat="44.0888213" lon="11.9895579"><ele>268.0</ele><time>2026-04-25T10:22:48.501Z</time></trkpt><trkpt lat="44.0888267" lon="11.9894543"><ele>268.0</ele><time>2026-04-25T10:25:35.489Z</time></trkpt><trkpt lat="44.0888506" lon="11.9893359"><ele>268.0</ele><time>2026-04-25T10:25:38.514Z</time></trkpt><trkpt lat="44.0888644" lon="11.989225"><ele>268.0</ele><time>2026-04-25T10:25:40.517Z</time></trkpt><trkpt lat="44.0888667" lon="11.9891061"><ele>268.0</ele><time>2026-04-25T10:25:42.502Z</time></trkpt><trkpt lat="44.0888636" lon="11.9889814"><ele>268.0</ele><time>2026-04-25T10:25:44.507Z</time></trkpt><trkpt lat="44.0888476" lon="11.9888519"><ele>268.0</ele><time>2026-04-25T10:25:46.502Z</time></trkpt><trkpt lat="44.0888571" lon="11.9887272"><ele>266.6</ele><time>2026-04-25T10:25:48.504Z</time></trkpt><trkpt lat="44.0888986" lon="11.9886"><ele>265.20000000000005</ele><time>2026-04-25T10:25:50.492Z</time></trkpt><trkpt lat="44.0889683" lon="11.9884749"><ele>263.8</ele><time>2026-04-25T10:25:52.497Z</time></trkpt><trkpt lat="44.0890599" lon="11.9883773"><ele>262.40000000000003</ele><time>2026-04-25T10:25:54.498Z</time></trkpt><trkpt lat="44.0891577" lon="11.9882879"><ele>261.0</ele><time>2026-04-25T10:25:56.496Z</time></trkpt><trkpt lat="44.0892522" lon="11.9882629"><ele>259.3333333333333</ele><time>2026-04-25T10:25:58.506Z</time></trkpt><trkpt lat="44.0893324" lon="11.9883293"><ele>257.6666666666667</ele><time>2026-04-25T10:26:00.499Z</time></trkpt><trkpt lat="44.089374" lon="11.9883965"><ele>256.0</ele><time>2026-04-25T10:26:01.485Z</time></trkpt><trkpt lat="44.0894272" lon="11.9884764"><ele>254.33333333333334</ele><time>2026-04-25T10:26:02.492Z</time></trkpt><trkpt lat="44.0894848" lon="11.9885556"><ele>252.66666666666669</ele><time>2026-04-25T10:26:03.5Z</time></trkpt><trkpt lat="44.0895491" lon="11.9886421"><ele>251.0</ele><time>2026-04-25T10:26:04.498Z</time></trkpt><trkpt lat="44.0896174" lon="11.9887292"><ele>251.0</ele><time>2026-04-25T10:26:05.492Z</time></trkpt><trkpt lat="44.0896813" lon="11.9888186"><ele>251.00000000000003</ele><time>2026-04-25T10:26:06.497Z</time></trkpt><trkpt lat="44.0897434" lon="11.9889061"><ele>251.00000000000003</ele><time>2026-04-25T10:26:07.507Z</time></trkpt><trkpt lat="44.0898085" lon="11.9890056"><ele>251.0</ele><time>2026-04-25T10:26:08.496Z</time></trkpt><trkpt lat="44.0898709" lon="11.9891066"><ele>251.0</ele><time>2026-04-25T10:26:09.501Z</time></trkpt><trkpt lat="44.0899289" lon="11.9891949"><ele>248.1428571428571</ele><time>2026-04-25T10:26:10.514Z</time></trkpt><trkpt lat="44.0899847" lon="11.9892652"><ele>245.28571428571428</ele><time>2026-04-25T10:26:11.496Z</time></trkpt><trkpt lat="44.0900402" lon="11.9893326"><ele>242.42857142857142</ele><time>2026-04-25T10:26:12.519Z</time></trkpt><trkpt lat="44.090095" lon="11.9893963"><ele>239.57142857142856</ele><time>2026-04-25T10:26:13.501Z</time></trkpt><trkpt lat="44.0901483" lon="11.989462"><ele>236.71428571428572</ele><time>2026-04-25T10:26:14.511Z</time></trkpt><trkpt lat="44.0901953" lon="11.9895268"><ele>233.85714285714286</ele><time>2026-04-25T10:26:15.496Z</time></trkpt><trkpt lat="44.0902307" lon="11.9896037"><ele>231.0</ele><time>2026-04-25T10:26:16.496Z</time></trkpt><trkpt lat="44.0902957" lon="11.9897264"><ele>231.0</ele><time>2026-04-25T10:26:18.498Z</time></trkpt><trkpt lat="44.0904015" lon="11.9897896"><ele>231.0</ele><time>2026-04-25T10:26:20.493Z</time></trkpt><trkpt lat="44.0904643" lon="11.9898032"><ele>231.0</ele><time>2026-04-25T10:26:21.495Z</time></trkpt><trkpt lat="44.0905288" lon="11.9897899"><ele>231.0</ele><time>2026-04-25T10:26:22.493Z</time></trkpt><trkpt lat="44.0906059" lon="11.9897515"><ele>231.0</ele><time>2026-04-25T10:26:23.494Z</time></trkpt><trkpt lat="44.0906886" lon="11.989692"><ele>231.0</ele><time>2026-04-25T10:26:24.497Z</time></trkpt><trkpt lat="44.0907601" lon="11.9896238"><ele>228.16666666666666</ele><time>2026-04-25T10:26:25.489Z</time></trkpt><trkpt lat="44.090826" lon="11.9895678"><ele>225.33333333333331</ele><time>2026-04-25T10:26:26.502Z</time></trkpt><trkpt lat="44.0909029" lon="11.9895214"><ele>222.5</ele><time>2026-04-25T10:26:27.492Z</time></trkpt><trkpt lat="44.0909851" lon="11.9894788"><ele>219.66666666666666</ele><time>2026-04-25T10:26:28.506Z</time></trkpt><trkpt lat="44.0910696" lon="11.9894415"><ele>216.83333333333331</ele><time>2026-04-25T10:26:29.491Z</time></trkpt><trkpt lat="44.0911482" lon="11.989402"><ele>214.0</ele><time>2026-04-25T10:26:30.491Z</time></trkpt><trkpt lat="44.0912167" lon="11.9893514"><ele>213.99999999999997</ele><time>2026-04-25T10:26:31.495Z</time></trkpt><trkpt lat="44.0912832" lon="11.9892994"><ele>214.0</ele><time>2026-04-25T10:26:32.494Z</time></trkpt><trkpt lat="44.0913393" lon="11.9892471"><ele>214.0</ele><time>2026-04-25T10:26:33.489Z</time></trkpt><trkpt lat="44.0914199" lon="11.9891771"><ele>214.0</ele><time>2026-04-25T10:26:35.482Z</time></trkpt><trkpt lat="44.0914897" lon="11.9891135"><ele>213.99999999999997</ele><time>2026-04-25T10:26:37.493Z</time></trkpt><trkpt lat="44.0915716" lon="11.9890112"><ele>214.0</ele><time>2026-04-25T10:26:39.497Z</time></trkpt><trkpt lat="44.0916534" lon="11.9889047"><ele>213.16666666666666</ele><time>2026-04-25T10:26:41.501Z</time></trkpt><trkpt lat="44.0917173" lon="11.9888113"><ele>212.33333333333331</ele><time>2026-04-25T10:26:43.488Z</time></trkpt><trkpt lat="44.0917591" lon="11.9887094"><ele>211.5</ele><time>2026-04-25T10:26:45.505Z</time></trkpt><trkpt lat="44.0917882" lon="11.9885492"><ele>210.66666666666669</ele><time>2026-04-25T10:26:47.496Z</time></trkpt><trkpt lat="44.0917996" lon="11.988447"><ele>209.83333333333334</ele><time>2026-04-25T10:26:48.497Z</time></trkpt><trkpt lat="44.0918073" lon="11.988352"><ele>209.0</ele><time>2026-04-25T10:26:49.492Z</time></trkpt><trkpt lat="44.0918115" lon="11.9881888"><ele>209.0</ele><time>2026-04-25T10:26:51.493Z</time></trkpt><trkpt lat="44.0918009" lon="11.9880506"><ele>209.0</ele><time>2026-04-25T10:26:53.498Z</time></trkpt><trkpt lat="44.0917795" lon="11.9879661"><ele>209.0</ele><time>2026-04-25T10:26:55.486Z</time></trkpt><trkpt lat="44.0917664" lon="11.9878174"><ele>209.0</ele><time>2026-04-25T10:26:58.495Z</time></trkpt><trkpt lat="44.0917932" lon="11.9876851"><ele>209.0</ele><time>2026-04-25T10:27:00.487Z</time></trkpt><trkpt lat="44.0917629" lon="11.9875461"><ele>207.0</ele><time>2026-04-25T10:27:02.506Z</time></trkpt><trkpt lat="44.0916766" lon="11.9874433"><ele>205.0</ele><time>2026-04-25T10:27:04.493Z</time></trkpt><trkpt lat="44.0915734" lon="11.9873654"><ele>203.0</ele><time>2026-04-25T10:27:06.485Z</time></trkpt><trkpt lat="44.0914781" lon="11.9872926"><ele>201.0</ele><time>2026-04-25T10:27:08.506Z</time></trkpt><trkpt lat="44.0913814" lon="11.9872234"><ele>199.0</ele><time>2026-04-25T10:27:10.51Z</time></trkpt><trkpt lat="44.0912819" lon="11.9871492"><ele>198.99999999999997</ele><time>2026-04-25T10:27:12.502Z</time></trkpt><trkpt lat="44.0911846" lon="11.9870542"><ele>199.0</ele><time>2026-04-25T10:27:14.498Z</time></trkpt><trkpt lat="44.0910909" lon="11.9869399"><ele>199.0</ele><time>2026-04-25T10:27:16.497Z</time></trkpt><trkpt lat="44.0910407" lon="11.9868778"><ele>199.0</ele><time>2026-04-25T10:27:17.498Z</time></trkpt><trkpt lat="44.0909918" lon="11.9868114"><ele>198.99999999999997</ele><time>2026-04-25T10:27:18.506Z</time></trkpt><trkpt lat="44.0909404" lon="11.9867503"><ele>199.0</ele><time>2026-04-25T10:27:19.496Z</time></trkpt><trkpt lat="44.0908607" lon="11.9866864"><ele>199.16666666666666</ele><time>2026-04-25T10:27:21.488Z</time></trkpt><trkpt lat="44.0907955" lon="11.9866235"><ele>199.33333333333331</ele><time>2026-04-25T10:27:23.493Z</time></trkpt><trkpt lat="44.0907208" lon="11.9865096"><ele>199.5</ele><time>2026-04-25T10:27:25.5Z</time></trkpt><trkpt lat="44.090678" lon="11.986432"><ele>199.66666666666669</ele><time>2026-04-25T10:27:26.477Z</time></trkpt><trkpt lat="44.0906289" lon="11.9863555"><ele>199.83333333333334</ele><time>2026-04-25T10:27:27.544Z</time></trkpt><trkpt lat="44.0905744" lon="11.9862648"><ele>200.0</ele><time>2026-04-25T10:27:28.496Z</time></trkpt><trkpt lat="44.0905256" lon="11.986179"><ele>200.00000000000003</ele><time>2026-04-25T10:27:29.49Z</time></trkpt><trkpt lat="44.090476" lon="11.9860873"><ele>200.0</ele><time>2026-04-25T10:27:30.494Z</time></trkpt><trkpt lat="44.0904299" lon="11.9860087"><ele>200.0</ele><time>2026-04-25T10:27:31.494Z</time></trkpt><trkpt lat="44.0903834" lon="11.9859236"><ele>200.0</ele><time>2026-04-25T10:27:32.484Z</time></trkpt><trkpt lat="44.0903343" lon="11.9858438"><ele>200.00000000000003</ele><time>2026-04-25T10:27:33.498Z</time></trkpt><trkpt lat="44.0902807" lon="11.985777"><ele>200.0</ele><time>2026-04-25T10:27:34.491Z</time></trkpt><trkpt lat="44.0902193" lon="11.9857244"><ele>198.71428571428572</ele><time>2026-04-25T10:27:35.489Z</time></trkpt><trkpt lat="44.09015" lon="11.9856826"><ele>197.42857142857144</ele><time>2026-04-25T10:27:36.5Z</time></trkpt><trkpt lat="44.0900862" lon="11.9856375"><ele>196.14285714285717</ele><time>2026-04-25T10:27:37.483Z</time></trkpt><trkpt lat="44.0900222" lon="11.9855952"><ele>194.85714285714286</ele><time>2026-04-25T10:27:38.494Z</time></trkpt><trkpt lat="44.0899588" lon="11.9855426"><ele>193.57142857142856</ele><time>2026-04-25T10:27:39.49Z</time></trkpt><trkpt lat="44.089894" lon="11.9854901"><ele>192.2857142857143</ele><time>2026-04-25T10:27:40.486Z</time></trkpt><trkpt lat="44.0898311" lon="11.9854312"><ele>191.0</ele><time>2026-04-25T10:27:41.498Z</time></trkpt><trkpt lat="44.0897665" lon="11.9853664"><ele>191.0</ele><time>2026-04-25T10:27:42.488Z</time></trkpt><trkpt lat="44.0897001" lon="11.9852984"><ele>191.0</ele><time>2026-04-25T10:27:43.494Z</time></trkpt><trkpt lat="44.089628" lon="11.9852411"><ele>191.0</ele><time>2026-04-25T10:27:44.505Z</time></trkpt><trkpt lat="44.089552" lon="11.9852036"><ele>191.0</ele><time>2026-04-25T10:27:45.5Z</time></trkpt><trkpt lat="44.0894859" lon="11.9851709"><ele>191.0</ele><time>2026-04-25T10:27:46.5Z</time></trkpt><trkpt lat="44.089392" lon="11.9851259"><ele>191.0</ele><time>2026-04-25T10:27:48.5Z</time></trkpt><trkpt lat="44.089367" lon="11.9850263"><ele>186.33333333333331</ele><time>2026-04-25T10:27:50.491Z</time></trkpt><trkpt lat="44.0893965" lon="11.9849254"><ele>181.66666666666666</ele><time>2026-04-25T10:27:52.488Z</time></trkpt><trkpt lat="44.0894786" lon="11.9848988"><ele>177.0</ele><time>2026-04-25T10:27:55.501Z</time></trkpt><trkpt lat="44.0895592" lon="11.9848816"><ele>172.33333333333334</ele><time>2026-04-25T10:27:58.485Z</time></trkpt><trkpt lat="44.0895127" lon="11.9848061"><ele>167.66666666666669</ele><time>2026-04-25T10:28:01.491Z</time></trkpt><trkpt lat="44.0894206" lon="11.9847814"><ele>163.0</ele><time>2026-04-25T10:28:03.501Z</time></trkpt><trkpt lat="44.0893562" lon="11.9847261"><ele>163.0</ele><time>2026-04-25T10:28:04.49Z</time></trkpt><trkpt lat="44.08929" lon="11.9846659"><ele>163.0</ele><time>2026-04-25T10:28:05.475Z</time></trkpt><trkpt lat="44.0892189" lon="11.98459"><ele>163.0</ele><time>2026-04-25T10:28:06.491Z</time></trkpt><trkpt lat="44.0891376" lon="11.9845104"><ele>163.0</ele><time>2026-04-25T10:28:07.494Z</time></trkpt><trkpt lat="44.0890588" lon="11.9844257"><ele>163.0</ele><time>2026-04-25T10:28:08.5Z</time></trkpt><trkpt lat="44.0889824" lon="11.9843522"><ele>164.0</ele><time>2026-04-25T10:28:09.487Z</time></trkpt><trkpt lat="44.0889139" lon="11.9842639"><ele>165.0</ele><time>2026-04-25T10:28:10.487Z</time></trkpt><trkpt lat="44.0888403" lon="11.9841862"><ele>166.0</ele><time>2026-04-25T10:28:11.493Z</time></trkpt><trkpt lat="44.0887679" lon="11.9841181"><ele>167.0</ele><time>2026-04-25T10:28:12.506Z</time></trkpt><trkpt lat="44.0886894" lon="11.9840677"><ele>168.0</ele><time>2026-04-25T10:28:13.503Z</time></trkpt><trkpt lat="44.0885906" lon="11.984033"><ele>166.8</ele><time>2026-04-25T10:28:14.5Z</time></trkpt><trkpt lat="44.0885008" lon="11.9839981"><ele>165.60000000000002</ele><time>2026-04-25T10:28:15.487Z</time></trkpt><trkpt lat="44.0884176" lon="11.9839702"><ele>164.39999999999998</ele><time>2026-04-25T10:28:16.492Z</time></trkpt><trkpt lat="44.0883121" lon="11.9839134"><ele>163.2</ele><time>2026-04-25T10:28:18.488Z</time></trkpt><trkpt lat="44.0882255" lon="11.9838629"><ele>162.0</ele><time>2026-04-25T10:28:20.497Z</time></trkpt><trkpt lat="44.0882022" lon="11.9837653"><ele>162.0</ele><time>2026-04-25T10:28:24.493Z</time></trkpt><trkpt lat="44.0882315" lon="11.9836768"><ele>162.0</ele><time>2026-04-25T10:28:30.501Z</time></trkpt><trkpt lat="44.0882345" lon="11.9835855"><ele>162.0</ele><time>2026-04-25T10:28:33.498Z</time></trkpt><trkpt lat="44.0881865" lon="11.9835134"><ele>162.0</ele><time>2026-04-25T10:28:37.493Z</time></trkpt><trkpt lat="44.0881283" lon="11.9834788"><ele>162.0</ele><time>2026-04-25T10:28:39.49Z</time></trkpt><trkpt lat="44.088066" lon="11.9835286"><ele>162.0</ele><time>2026-04-25T10:28:42.511Z</time></trkpt><trkpt lat="44.088164" lon="11.9835119"><ele>162.0</ele><time>2026-04-25T10:28:50.488Z</time></trkpt><trkpt lat="44.0882418" lon="11.9835896"><ele>162.0</ele><time>2026-04-25T10:28:52.491Z</time></trkpt><trkpt lat="44.0882566" lon="11.9836842"><ele>162.0</ele><time>2026-04-25T10:28:54.493Z</time></trkpt><trkpt lat="44.0882456" lon="11.9837821"><ele>162.0</ele><time>2026-04-25T10:28:56.499Z</time></trkpt><trkpt lat="44.0882884" lon="11.9838706"><ele>162.0</ele><time>2026-04-25T10:28:58.493Z</time></trkpt><trkpt lat="44.088375" lon="11.9839177"><ele>162.0</ele><time>2026-04-25T10:29:00.492Z</time></trkpt><trkpt lat="44.0884457" lon="11.9839621"><ele>162.0</ele><time>2026-04-25T10:29:02.49Z</time></trkpt><trkpt lat="44.088544" lon="11.9840123"><ele>163.0</ele><time>2026-04-25T10:29:04.491Z</time></trkpt><trkpt lat="44.0886525" lon="11.9840575"><ele>164.0</ele><time>2026-04-25T10:29:06.497Z</time></trkpt><trkpt lat="44.0887135" lon="11.9840849"><ele>165.0</ele><time>2026-04-25T10:29:07.495Z</time></trkpt><trkpt lat="44.0887749" lon="11.9841174"><ele>166.0</ele><time>2026-04-25T10:29:08.486Z</time></trkpt><trkpt lat="44.0888811" lon="11.9842141"><ele>167.0</ele><time>2026-04-25T10:29:10.48Z</time></trkpt><trkpt lat="44.0889359" lon="11.9842644"><ele>168.0</ele><time>2026-04-25T10:29:11.511Z</time></trkpt><trkpt lat="44.0889898" lon="11.9843223"><ele>168.0</ele><time>2026-04-25T10:29:12.491Z</time></trkpt><trkpt lat="44.0890393" lon="11.9843775"><ele>168.0</ele><time>2026-04-25T10:29:13.486Z</time></trkpt><trkpt lat="44.0890928" lon="11.9844426"><ele>168.0</ele><time>2026-04-25T10:29:14.492Z</time></trkpt><trkpt lat="44.0891479" lon="11.9845079"><ele>168.0</ele><time>2026-04-25T10:29:15.489Z</time></trkpt><trkpt lat="44.0892037" lon="11.9845679"><ele>168.0</ele><time>2026-04-25T10:29:16.506Z</time></trkpt><trkpt lat="44.0892669" lon="11.9846254"><ele>168.0</ele><time>2026-04-25T10:29:17.497Z</time></trkpt><trkpt lat="44.0893409" lon="11.984691"><ele>168.0</ele><time>2026-04-25T10:29:18.486Z</time></trkpt><trkpt lat="44.0894081" lon="11.9847497"><ele>167.0</ele><time>2026-04-25T10:29:19.491Z</time></trkpt><trkpt lat="44.0895026" lon="11.9848104"><ele>166.0</ele><time>2026-04-25T10:29:21.494Z</time></trkpt><trkpt lat="44.0895899" lon="11.9848309"><ele>165.0</ele><time>2026-04-25T10:29:23.488Z</time></trkpt><trkpt lat="44.0896687" lon="11.9848238"><ele>164.0</ele><time>2026-04-25T10:29:25.487Z</time></trkpt><trkpt lat="44.0897738" lon="11.9848015"><ele>163.0</ele><time>2026-04-25T10:29:27.492Z</time></trkpt><trkpt lat="44.0898772" lon="11.9847554"><ele>162.83333333333334</ele><time>2026-04-25T10:29:29.492Z</time></trkpt><trkpt lat="44.0899563" lon="11.9846907"><ele>162.66666666666669</ele><time>2026-04-25T10:29:31.489Z</time></trkpt><trkpt lat="44.0900118" lon="11.9845905"><ele>162.5</ele><time>2026-04-25T10:29:33.491Z</time></trkpt><trkpt lat="44.0900721" lon="11.9844485"><ele>162.33333333333334</ele><time>2026-04-25T10:29:35.484Z</time></trkpt><trkpt lat="44.0900959" lon="11.9843504"><ele>162.16666666666666</ele><time>2026-04-25T10:29:36.484Z</time></trkpt><trkpt lat="44.0901237" lon="11.9842557"><ele>162.0</ele><time>2026-04-25T10:29:37.491Z</time></trkpt><trkpt lat="44.0901665" lon="11.9841532"><ele>160.6</ele><time>2026-04-25T10:29:38.499Z</time></trkpt><trkpt lat="44.0902195" lon="11.9840363"><ele>159.2</ele><time>2026-04-25T10:29:39.491Z</time></trkpt><trkpt lat="44.0902695" lon="11.9839223"><ele>157.8</ele><time>2026-04-25T10:29:40.504Z</time></trkpt><trkpt lat="44.0903155" lon="11.9837915"><ele>156.4</ele><time>2026-04-25T10:29:41.505Z</time></trkpt><trkpt lat="44.0903652" lon="11.983663"><ele>155.0</ele><time>2026-04-25T10:29:42.491Z</time></trkpt><trkpt lat="44.0904128" lon="11.9835489"><ele>155.0</ele><time>2026-04-25T10:29:43.501Z</time></trkpt><trkpt lat="44.0904584" lon="11.9834333"><ele>155.0</ele><time>2026-04-25T10:29:44.506Z</time></trkpt><trkpt lat="44.0905058" lon="11.9833325"><ele>155.0</ele><time>2026-04-25T10:29:45.487Z</time></trkpt><trkpt lat="44.090545" lon="11.9832334"><ele>155.0</ele><time>2026-04-25T10:29:46.492Z</time></trkpt><trkpt lat="44.0905835" lon="11.9831242"><ele>155.0</ele><time>2026-04-25T10:29:47.499Z</time></trkpt><trkpt lat="44.0906257" lon="11.9830192"><ele>155.0</ele><time>2026-04-25T10:29:48.489Z</time></trkpt><trkpt lat="44.0906742" lon="11.982911"><ele>154.16666666666666</ele><time>2026-04-25T10:29:49.484Z</time></trkpt><trkpt lat="44.0907323" lon="11.9828121"><ele>153.33333333333331</ele><time>2026-04-25T10:29:50.492Z</time></trkpt><trkpt lat="44.0907959" lon="11.9827238"><ele>152.5</ele><time>2026-04-25T10:29:51.499Z</time></trkpt><trkpt lat="44.0908671" lon="11.9826514"><ele>151.66666666666666</ele><time>2026-04-25T10:29:52.496Z</time></trkpt><trkpt lat="44.090958" lon="11.9826005"><ele>150.83333333333334</ele><time>2026-04-25T10:29:53.493Z</time></trkpt><trkpt lat="44.0910305" lon="11.9825652"><ele>150.0</ele><time>2026-04-25T10:29:54.499Z</time></trkpt><trkpt lat="44.0910994" lon="11.9825244"><ele>149.33333333333334</ele><time>2026-04-25T10:29:55.497Z</time></trkpt><trkpt lat="44.0911597" lon="11.9824864"><ele>148.66666666666666</ele><time>2026-04-25T10:29:56.494Z</time></trkpt><trkpt lat="44.0912189" lon="11.9824445"><ele>148.0</ele><time>2026-04-25T10:29:57.486Z</time></trkpt><trkpt lat="44.0913014" lon="11.9823363"><ele>147.33333333333331</ele><time>2026-04-25T10:29:59.493Z</time></trkpt><trkpt lat="44.0913455" lon="11.982267"><ele>146.66666666666666</ele><time>2026-04-25T10:30:00.489Z</time></trkpt><trkpt lat="44.0913905" lon="11.9821732"><ele>146.0</ele><time>2026-04-25T10:30:01.49Z</time></trkpt><trkpt lat="44.0914261" lon="11.9820615"><ele>146.0</ele><time>2026-04-25T10:30:02.494Z</time></trkpt><trkpt lat="44.0914569" lon="11.9819629"><ele>146.0</ele><time>2026-04-25T10:30:03.496Z</time></trkpt><trkpt lat="44.0914838" lon="11.981881"><ele>146.0</ele><time>2026-04-25T10:30:04.489Z</time></trkpt><trkpt lat="44.0915348" lon="11.9817375"><ele>146.0</ele><time>2026-04-25T10:30:06.492Z</time></trkpt><trkpt lat="44.0915832" lon="11.9815872"><ele>146.0</ele><time>2026-04-25T10:30:08.493Z</time></trkpt><trkpt lat="44.0916256" lon="11.9814511"><ele>145.4</ele><time>2026-04-25T10:30:10.499Z</time></trkpt><trkpt lat="44.0916615" lon="11.9813401"><ele>144.8</ele><time>2026-04-25T10:30:12.505Z</time></trkpt><trkpt lat="44.091679" lon="11.9812416"><ele>144.20000000000002</ele><time>2026-04-25T10:30:14.498Z</time></trkpt><trkpt lat="44.0916521" lon="11.9811434"><ele>143.6</ele><time>2026-04-25T10:30:17.501Z</time></trkpt><trkpt lat="44.091547" lon="11.9811426"><ele>143.0</ele><time>2026-04-25T10:30:19.506Z</time></trkpt><trkpt lat="44.0914175" lon="11.9811513"><ele>143.0</ele><time>2026-04-25T10:30:21.489Z</time></trkpt><trkpt lat="44.0913347" lon="11.9811063"><ele>143.0</ele><time>2026-04-25T10:30:22.487Z</time></trkpt><trkpt lat="44.091249" lon="11.981068"><ele>143.0</ele><time>2026-04-25T10:30:23.49Z</time></trkpt><trkpt lat="44.0911624" lon="11.9810261"><ele>143.0</ele><time>2026-04-25T10:30:24.507Z</time></trkpt><trkpt lat="44.0910797" lon="11.9809728"><ele>143.0</ele><time>2026-04-25T10:30:25.486Z</time></trkpt><trkpt lat="44.091002" lon="11.9809053"><ele>143.20000000000002</ele><time>2026-04-25T10:30:26.494Z</time></trkpt><trkpt lat="44.090922" lon="11.9808181"><ele>143.4</ele><time>2026-04-25T10:30:27.492Z</time></trkpt><trkpt lat="44.0908416" lon="11.980736"><ele>143.60000000000002</ele><time>2026-04-25T10:30:28.505Z</time></trkpt><trkpt lat="44.0907609" lon="11.9806388"><ele>143.8</ele><time>2026-04-25T10:30:29.499Z</time></trkpt><trkpt lat="44.0906705" lon="11.980542"><ele>144.0</ele><time>2026-04-25T10:30:30.491Z</time></trkpt><trkpt lat="44.0905792" lon="11.9804461"><ele>144.0</ele><time>2026-04-25T10:30:31.485Z</time></trkpt><trkpt lat="44.0904846" lon="11.9803472"><ele>144.0</ele><time>2026-04-25T10:30:32.494Z</time></trkpt><trkpt lat="44.0903896" lon="11.9802537"><ele>144.0</ele><time>2026-04-25T10:30:33.491Z</time></trkpt><trkpt lat="44.0903081" lon="11.980162"><ele>144.0</ele><time>2026-04-25T10:30:34.498Z</time></trkpt><trkpt lat="44.0902214" lon="11.9800776"><ele>144.0</ele><time>2026-04-25T10:30:35.494Z</time></trkpt><trkpt lat="44.0901435" lon="11.9800045"><ele>144.8</ele><time>2026-04-25T10:30:36.485Z</time></trkpt><trkpt lat="44.090089" lon="11.9799545"><ele>145.60000000000002</ele><time>2026-04-25T10:30:37.506Z</time></trkpt><trkpt lat="44.0899791" lon="11.9798228"><ele>146.4</ele><time>2026-04-25T10:30:39.496Z</time></trkpt><trkpt lat="44.0898925" lon="11.9797411"><ele>147.20000000000002</ele><time>2026-04-25T10:30:40.49Z</time></trkpt><trkpt lat="44.089792" lon="11.9796807"><ele>148.0</ele><time>2026-04-25T10:30:41.489Z</time></trkpt><trkpt lat="44.0896763" lon="11.9796291"><ele>148.0</ele><time>2026-04-25T10:30:42.49Z</time></trkpt><trkpt lat="44.0895659" lon="11.9795681"><ele>148.0</ele><time>2026-04-25T10:30:43.491Z</time></trkpt><trkpt lat="44.0894566" lon="11.9795185"><ele>148.0</ele><time>2026-04-25T10:30:44.492Z</time></trkpt><trkpt lat="44.089354" lon="11.9794668"><ele>148.0</ele><time>2026-04-25T10:30:45.497Z</time></trkpt><trkpt lat="44.0892492" lon="11.9794179"><ele>148.0</ele><time>2026-04-25T10:30:46.484Z</time></trkpt><trkpt lat="44.0891468" lon="11.9793667"><ele>148.0</ele><time>2026-04-25T10:30:47.49Z</time></trkpt><trkpt lat="44.0890397" lon="11.9793199"><ele>148.0</ele><time>2026-04-25T10:30:48.489Z</time></trkpt><trkpt lat="44.0889268" lon="11.9792617"><ele>148.0</ele><time>2026-04-25T10:30:49.5Z</time></trkpt><trkpt lat="44.0888084" lon="11.9791975"><ele>150.0</ele><time>2026-04-25T10:30:50.498Z</time></trkpt><trkpt lat="44.0886803" lon="11.9791217"><ele>152.0</ele><time>2026-04-25T10:30:51.498Z</time></trkpt><trkpt lat="44.0885499" lon="11.9790475"><ele>154.0</ele><time>2026-04-25T10:30:52.486Z</time></trkpt><trkpt lat="44.0884279" lon="11.9789727"><ele>156.0</ele><time>2026-04-25T10:30:53.484Z</time></trkpt><trkpt lat="44.0883195" lon="11.9789068"><ele>155.25</ele><time>2026-04-25T10:30:54.49Z</time></trkpt><trkpt lat="44.0882061" lon="11.978837"><ele>154.5</ele><time>2026-04-25T10:30:55.49Z</time></trkpt><trkpt lat="44.0880917" lon="11.9787652"><ele>153.75</ele><time>2026-04-25T10:30:56.488Z</time></trkpt><trkpt lat="44.0879739" lon="11.9786938"><ele>153.0</ele><time>2026-04-25T10:30:57.49Z</time></trkpt><trkpt lat="44.0878585" lon="11.9786255"><ele>153.0</ele><time>2026-04-25T10:30:58.49Z</time></trkpt><trkpt lat="44.087743" lon="11.9785517"><ele>153.0</ele><time>2026-04-25T10:30:59.487Z</time></trkpt><trkpt lat="44.0876192" lon="11.9784727"><ele>153.0</ele><time>2026-04-25T10:31:00.492Z</time></trkpt><trkpt lat="44.0874959" lon="11.9783909"><ele>153.0</ele><time>2026-04-25T10:31:01.494Z</time></trkpt><trkpt lat="44.0873723" lon="11.9783149"><ele>153.25</ele><time>2026-04-25T10:31:02.49Z</time></trkpt><trkpt lat="44.0872586" lon="11.9782414"><ele>153.5</ele><time>2026-04-25T10:31:03.5Z</time></trkpt><trkpt lat="44.0871438" lon="11.9781728"><ele>153.75</ele><time>2026-04-25T10:31:04.491Z</time></trkpt><trkpt lat="44.0870409" lon="11.9781114"><ele>154.0</ele><time>2026-04-25T10:31:05.491Z</time></trkpt><trkpt lat="44.0869525" lon="11.9780542"><ele>154.0</ele><time>2026-04-25T10:31:06.498Z</time></trkpt><trkpt lat="44.0868722" lon="11.9780013"><ele>154.0</ele><time>2026-04-25T10:31:07.487Z</time></trkpt><trkpt lat="44.0867963" lon="11.9779571"><ele>154.0</ele><time>2026-04-25T10:31:08.49Z</time></trkpt><trkpt lat="44.0867199" lon="11.9779061"><ele>154.0</ele><time>2026-04-25T10:31:09.483Z</time></trkpt><trkpt lat="44.0866423" lon="11.9778551"><ele>154.0</ele><time>2026-04-25T10:31:10.492Z</time></trkpt><trkpt lat="44.0865713" lon="11.9778086"><ele>154.0</ele><time>2026-04-25T10:31:11.487Z</time></trkpt><trkpt lat="44.0865114" lon="11.9777691"><ele>154.0</ele><time>2026-04-25T10:31:12.489Z</time></trkpt><trkpt lat="44.0864293" lon="11.9777176"><ele>154.0</ele><time>2026-04-25T10:31:14.494Z</time></trkpt><trkpt lat="44.0864319" lon="11.9778055"><ele>154.0</ele><time>2026-04-25T10:31:18.501Z</time></trkpt><trkpt lat="44.0865177" lon="11.9778271"><ele>154.0</ele><time>2026-04-25T10:31:20.499Z</time></trkpt><trkpt lat="44.0865807" lon="11.9778586"><ele>154.0</ele><time>2026-04-25T10:31:21.507Z</time></trkpt><trkpt lat="44.0866634" lon="11.9779032"><ele>154.0</ele><time>2026-04-25T10:31:22.494Z</time></trkpt><trkpt lat="44.0867595" lon="11.9779582"><ele>154.0</ele><time>2026-04-25T10:31:23.49Z</time></trkpt><trkpt lat="44.0868556" lon="11.9780291"><ele>154.0</ele><time>2026-04-25T10:31:24.503Z</time></trkpt><trkpt lat="44.0869372" lon="11.9780813"><ele>154.0</ele><time>2026-04-25T10:31:25.488Z</time></trkpt><trkpt lat="44.0870348" lon="11.9780916"><ele>154.0</ele><time>2026-04-25T10:31:27.488Z</time></trkpt><trkpt lat="44.087096" lon="11.9779833"><ele>154.0</ele><time>2026-04-25T10:31:29.49Z</time></trkpt><trkpt lat="44.0870681" lon="11.9778224"><ele>154.0</ele><time>2026-04-25T10:31:31.485Z</time></trkpt><trkpt lat="44.0870085" lon="11.9777641"><ele>154.0</ele><time>2026-04-25T10:31:32.505Z</time></trkpt><trkpt lat="44.08693" lon="11.9776668"><ele>154.0</ele><time>2026-04-25T10:31:34.493Z</time></trkpt><trkpt lat="44.0869677" lon="11.9775354"><ele>154.0</ele><time>2026-04-25T10:31:36.488Z</time></trkpt><trkpt lat="44.0870673" lon="11.9774457"><ele>154.0</ele><time>2026-04-25T10:31:38.495Z</time></trkpt><trkpt lat="44.0871362" lon="11.9773682"><ele>154.66666666666669</ele><time>2026-04-25T10:31:39.49Z</time></trkpt><trkpt lat="44.0872017" lon="11.9772993"><ele>155.33333333333334</ele><time>2026-04-25T10:31:40.495Z</time></trkpt><trkpt lat="44.0872536" lon="11.9772214"><ele>156.0</ele><time>2026-04-25T10:31:41.482Z</time></trkpt><trkpt lat="44.0872952" lon="11.9771349"><ele>156.66666666666666</ele><time>2026-04-25T10:31:42.49Z</time></trkpt><trkpt lat="44.087318" lon="11.9770375"><ele>157.33333333333331</ele><time>2026-04-25T10:31:43.486Z</time></trkpt><trkpt lat="44.0873253" lon="11.9769378"><ele>158.0</ele><time>2026-04-25T10:31:44.488Z</time></trkpt><trkpt lat="44.0873113" lon="11.9767698"><ele>159.16666666666666</ele><time>2026-04-25T10:31:46.49Z</time></trkpt><trkpt lat="44.0872515" lon="11.9766154"><ele>160.33333333333331</ele><time>2026-04-25T10:31:48.49Z</time></trkpt><trkpt lat="44.087201" lon="11.9765498"><ele>161.5</ele><time>2026-04-25T10:31:49.484Z</time></trkpt><trkpt lat="44.0871407" lon="11.9765046"><ele>162.66666666666666</ele><time>2026-04-25T10:31:50.495Z</time></trkpt><trkpt lat="44.0870708" lon="11.9764692"><ele>163.83333333333334</ele><time>2026-04-25T10:31:51.484Z</time></trkpt><trkpt lat="44.0870026" lon="11.9764244"><ele>165.0</ele><time>2026-04-25T10:31:52.489Z</time></trkpt><trkpt lat="44.0869345" lon="11.9763712"><ele>165.0</ele><time>2026-04-25T10:31:53.482Z</time></trkpt><trkpt lat="44.0868953" lon="11.9763015"><ele>165.0</ele><time>2026-04-25T10:31:54.496Z</time></trkpt><trkpt lat="44.0869278" lon="11.9761876"><ele>165.0</ele><time>2026-04-25T10:31:56.492Z</time></trkpt><trkpt lat="44.0870188" lon="11.9761633"><ele>165.0</ele><time>2026-04-25T10:31:58.487Z</time></trkpt><trkpt lat="44.0870901" lon="11.9761446"><ele>165.0</ele><time>2026-04-25T10:31:59.487Z</time></trkpt><trkpt lat="44.0871625" lon="11.976105"><ele>165.0</ele><time>2026-04-25T10:32:00.501Z</time></trkpt><trkpt lat="44.0872196" lon="11.9760442"><ele>165.0</ele><time>2026-04-25T10:32:01.485Z</time></trkpt><trkpt lat="44.0872578" lon="11.9759618"><ele>165.0</ele><time>2026-04-25T10:32:02.485Z</time></trkpt><trkpt lat="44.0872808" lon="11.9758562"><ele>165.0</ele><time>2026-04-25T10:32:04.492Z</time></trkpt><trkpt lat="44.0872978" lon="11.9757493"><ele>165.0</ele><time>2026-04-25T10:32:07.491Z</time></trkpt><trkpt lat="44.0873002" lon="11.9756613"><ele>165.0</ele><time>2026-04-25T10:32:09.489Z</time></trkpt><trkpt lat="44.0873081" lon="11.975566"><ele>165.0</ele><time>2026-04-25T10:32:11.496Z</time></trkpt><trkpt lat="44.087311" lon="11.9754246"><ele>166.83333333333334</ele><time>2026-04-25T10:32:13.483Z</time></trkpt><trkpt lat="44.0873218" lon="11.9753344"><ele>168.66666666666666</ele><time>2026-04-25T10:32:14.501Z</time></trkpt><trkpt lat="44.0873328" lon="11.9752264"><ele>170.5</ele><time>2026-04-25T10:32:15.486Z</time></trkpt><trkpt lat="44.0873384" lon="11.9750971"><ele>172.33333333333331</ele><time>2026-04-25T10:32:16.49Z</time></trkpt><trkpt lat="44.0873407" lon="11.9749723"><ele>174.16666666666666</ele><time>2026-04-25T10:32:17.488Z</time></trkpt><trkpt lat="44.0873474" lon="11.9748425"><ele>176.0</ele><time>2026-04-25T10:32:18.502Z</time></trkpt><trkpt lat="44.0873509" lon="11.9747218"><ele>178.16666666666666</ele><time>2026-04-25T10:32:19.495Z</time></trkpt><trkpt lat="44.0873621" lon="11.974602"><ele>180.33333333333331</ele><time>2026-04-25T10:32:20.5Z</time></trkpt><trkpt lat="44.0873645" lon="11.9744815"><ele>182.5</ele><time>2026-04-25T10:32:21.488Z</time></trkpt><trkpt lat="44.0873628" lon="11.9743576"><ele>184.66666666666666</ele><time>2026-04-25T10:32:22.484Z</time></trkpt><trkpt lat="44.0873271" lon="11.974236"><ele>186.83333333333334</ele><time>2026-04-25T10:32:23.489Z</time></trkpt><trkpt lat="44.0872889" lon="11.9741204"><ele>189.0</ele><time>2026-04-25T10:32:24.506Z</time></trkpt><trkpt lat="44.0872523" lon="11.9740033"><ele>189.6</ele><time>2026-04-25T10:32:25.479Z</time></trkpt><trkpt lat="44.0872376" lon="11.9738774"><ele>190.2</ele><time>2026-04-25T10:32:26.499Z</time></trkpt><trkpt lat="44.0872449" lon="11.9737465"><ele>190.79999999999998</ele><time>2026-04-25T10:32:27.49Z</time></trkpt><trkpt lat="44.0872732" lon="11.973607"><ele>191.39999999999998</ele><time>2026-04-25T10:32:28.495Z</time></trkpt><trkpt lat="44.0873061" lon="11.9734691"><ele>192.0</ele><time>2026-04-25T10:32:29.488Z</time></trkpt><trkpt lat="44.0873332" lon="11.973353"><ele>192.66666666666666</ele><time>2026-04-25T10:32:30.493Z</time></trkpt><trkpt lat="44.0873493" lon="11.973258"><ele>193.33333333333331</ele><time>2026-04-25T10:32:31.488Z</time></trkpt><trkpt lat="44.0873424" lon="11.9731614"><ele>194.0</ele><time>2026-04-25T10:32:32.502Z</time></trkpt><trkpt lat="44.0873085" lon="11.9730765"><ele>194.66666666666666</ele><time>2026-04-25T10:32:33.484Z</time></trkpt><trkpt lat="44.0872496" lon="11.9729828"><ele>195.33333333333331</ele><time>2026-04-25T10:32:34.495Z</time></trkpt><trkpt lat="44.087173" lon="11.9729007"><ele>196.0</ele><time>2026-04-25T10:32:35.482Z</time></trkpt><trkpt lat="44.0870908" lon="11.9728217"><ele>196.0</ele><time>2026-04-25T10:32:36.497Z</time></trkpt><trkpt lat="44.0870151" lon="11.9727407"><ele>196.0</ele><time>2026-04-25T10:32:37.487Z</time></trkpt><trkpt lat="44.0869556" lon="11.9726296"><ele>196.0</ele><time>2026-04-25T10:32:38.501Z</time></trkpt><trkpt lat="44.086924" lon="11.972517"><ele>196.0</ele><time>2026-04-25T10:32:39.483Z</time></trkpt><trkpt lat="44.0869092" lon="11.9723848"><ele>196.0</ele><time>2026-04-25T10:32:40.49Z</time></trkpt><trkpt lat="44.0869025" lon="11.9722476"><ele>198.5</ele><time>2026-04-25T10:32:41.481Z</time></trkpt><trkpt lat="44.0868918" lon="11.9720932"><ele>201.0</ele><time>2026-04-25T10:32:42.494Z</time></trkpt><trkpt lat="44.0868755" lon="11.9719291"><ele>203.5</ele><time>2026-04-25T10:32:43.493Z</time></trkpt><trkpt lat="44.0868592" lon="11.9717456"><ele>206.0</ele><time>2026-04-25T10:32:44.499Z</time></trkpt><trkpt lat="44.086839" lon="11.9715445"><ele>207.0</ele><time>2026-04-25T10:32:45.476Z</time></trkpt><trkpt lat="44.0868248" lon="11.9713654"><ele>208.0</ele><time>2026-04-25T10:32:46.499Z</time></trkpt><trkpt lat="44.0868121" lon="11.9711927"><ele>209.0</ele><time>2026-04-25T10:32:47.488Z</time></trkpt><trkpt lat="44.0868119" lon="11.9710342"><ele>210.0</ele><time>2026-04-25T10:32:48.491Z</time></trkpt><trkpt lat="44.0868225" lon="11.9708965"><ele>210.5</ele><time>2026-04-25T10:32:49.492Z</time></trkpt><trkpt lat="44.0868336" lon="11.9707644"><ele>211.0</ele><time>2026-04-25T10:32:50.493Z</time></trkpt><trkpt lat="44.0868296" lon="11.9706457"><ele>211.5</ele><time>2026-04-25T10:32:51.494Z</time></trkpt><trkpt lat="44.0868059" lon="11.9705454"><ele>212.0</ele><time>2026-04-25T10:32:52.49Z</time></trkpt><trkpt lat="44.0867825" lon="11.9704408"><ele>212.5</ele><time>2026-04-25T10:32:53.487Z</time></trkpt><trkpt lat="44.086795" lon="11.9703412"><ele>213.0</ele><time>2026-04-25T10:32:54.497Z</time></trkpt><trkpt lat="44.0868369" lon="11.9702583"><ele>213.0</ele><time>2026-04-25T10:32:55.477Z</time></trkpt><trkpt lat="44.0868976" lon="11.9702004"><ele>213.0</ele><time>2026-04-25T10:32:56.489Z</time></trkpt><trkpt lat="44.086975" lon="11.9701455"><ele>213.0</ele><time>2026-04-25T10:32:57.486Z</time></trkpt><trkpt lat="44.0870492" lon="11.9700847"><ele>213.0</ele><time>2026-04-25T10:32:58.492Z</time></trkpt><trkpt lat="44.0871126" lon="11.9699949"><ele>213.0</ele><time>2026-04-25T10:32:59.488Z</time></trkpt><trkpt lat="44.0871768" lon="11.9698823"><ele>213.0</ele><time>2026-04-25T10:33:00.501Z</time></trkpt><trkpt lat="44.0872447" lon="11.9697642"><ele>215.25</ele><time>2026-04-25T10:33:01.489Z</time></trkpt><trkpt lat="44.0873179" lon="11.9696544"><ele>217.5</ele><time>2026-04-25T10:33:02.49Z</time></trkpt><trkpt lat="44.087392" lon="11.9695431"><ele>219.75</ele><time>2026-04-25T10:33:03.493Z</time></trkpt><trkpt lat="44.0874555" lon="11.9694054"><ele>222.0</ele><time>2026-04-25T10:33:04.494Z</time></trkpt><trkpt lat="44.0875064" lon="11.9692582"><ele>224.0</ele><time>2026-04-25T10:33:05.485Z</time></trkpt><trkpt lat="44.0875442" lon="11.9691072"><ele>226.0</ele><time>2026-04-25T10:33:06.491Z</time></trkpt><trkpt lat="44.0875818" lon="11.9689607"><ele>228.0</ele><time>2026-04-25T10:33:07.495Z</time></trkpt><trkpt lat="44.087607" lon="11.968835"><ele>230.0</ele><time>2026-04-25T10:33:08.49Z</time></trkpt><trkpt lat="44.0876197" lon="11.9687"><ele>232.0</ele><time>2026-04-25T10:33:09.483Z</time></trkpt><trkpt lat="44.0876171" lon="11.9685544"><ele>232.0</ele><time>2026-04-25T10:33:10.488Z</time></trkpt><trkpt lat="44.0876163" lon="11.9684117"><ele>232.0</ele><time>2026-04-25T10:33:11.494Z</time></trkpt><trkpt lat="44.0876182" lon="11.9682677"><ele>232.0</ele><time>2026-04-25T10:33:12.501Z</time></trkpt><trkpt lat="44.0876339" lon="11.9681227"><ele>232.0</ele><time>2026-04-25T10:33:13.485Z</time></trkpt><trkpt lat="44.0876614" lon="11.9679978"><ele>232.0</ele><time>2026-04-25T10:33:14.495Z</time></trkpt><trkpt lat="44.087701" lon="11.9678759"><ele>232.2</ele><time>2026-04-25T10:33:15.484Z</time></trkpt><trkpt lat="44.0877363" lon="11.9677553"><ele>232.39999999999998</ele><time>2026-04-25T10:33:16.487Z</time></trkpt><trkpt lat="44.0877594" lon="11.9676196"><ele>232.60000000000002</ele><time>2026-04-25T10:33:17.483Z</time></trkpt><trkpt lat="44.087771" lon="11.9674667"><ele>232.8</ele><time>2026-04-25T10:33:18.48Z</time></trkpt><trkpt lat="44.0877785" lon="11.9673195"><ele>233.0</ele><time>2026-04-25T10:33:19.483Z</time></trkpt><trkpt lat="44.0877856" lon="11.9671723"><ele>233.0</ele><time>2026-04-25T10:33:20.489Z</time></trkpt><trkpt lat="44.0878084" lon="11.9670316"><ele>233.0</ele><time>2026-04-25T10:33:21.491Z</time></trkpt><trkpt lat="44.0878504" lon="11.9668878"><ele>233.0</ele><time>2026-04-25T10:33:22.492Z</time></trkpt><trkpt lat="44.0879049" lon="11.9667487"><ele>233.0</ele><time>2026-04-25T10:33:23.493Z</time></trkpt><trkpt lat="44.087961" lon="11.9666118"><ele>233.0</ele><time>2026-04-25T10:33:24.489Z</time></trkpt><trkpt lat="44.0880087" lon="11.9664729"><ele>234.0</ele><time>2026-04-25T10:33:25.486Z</time></trkpt><trkpt lat="44.0880352" lon="11.966341"><ele>235.0</ele><time>2026-04-25T10:33:26.482Z</time></trkpt><trkpt lat="44.0880344" lon="11.9662013"><ele>236.0</ele><time>2026-04-25T10:33:27.498Z</time></trkpt><trkpt lat="44.0880186" lon="11.9660427"><ele>237.0</ele><time>2026-04-25T10:33:28.492Z</time></trkpt><trkpt lat="44.0879844" lon="11.9658855"><ele>238.0</ele><time>2026-04-25T10:33:29.482Z</time></trkpt><trkpt lat="44.0879416" lon="11.9657383"><ele>240.75</ele><time>2026-04-25T10:33:30.493Z</time></trkpt><trkpt lat="44.0878994" lon="11.9655787"><ele>243.5</ele><time>2026-04-25T10:33:31.487Z</time></trkpt><trkpt lat="44.0878527" lon="11.9654156"><ele>246.25</ele><time>2026-04-25T10:33:32.49Z</time></trkpt><trkpt lat="44.0878075" lon="11.9652441"><ele>249.0</ele><time>2026-04-25T10:33:33.487Z</time></trkpt><trkpt lat="44.0877598" lon="11.965072"><ele>252.0</ele><time>2026-04-25T10:33:34.504Z</time></trkpt><trkpt lat="44.0877155" lon="11.9648937"><ele>255.0</ele><time>2026-04-25T10:33:35.486Z</time></trkpt><trkpt lat="44.0876729" lon="11.9647177"><ele>258.0</ele><time>2026-04-25T10:33:36.489Z</time></trkpt><trkpt lat="44.087636" lon="11.9645599"><ele>261.0</ele><time>2026-04-25T10:33:37.488Z</time></trkpt><trkpt lat="44.0876074" lon="11.96442"><ele>261.0</ele><time>2026-04-25T10:33:38.507Z</time></trkpt><trkpt lat="44.0875859" lon="11.9642956"><ele>261.0</ele><time>2026-04-25T10:33:39.491Z</time></trkpt><trkpt lat="44.0875731" lon="11.9641832"><ele>261.0</ele><time>2026-04-25T10:33:40.493Z</time></trkpt><trkpt lat="44.087572" lon="11.9640713"><ele>261.0</ele><time>2026-04-25T10:33:41.49Z</time></trkpt><trkpt lat="44.087592" lon="11.963946"><ele>261.0</ele><time>2026-04-25T10:33:42.49Z</time></trkpt><trkpt lat="44.0876281" lon="11.963827"><ele>261.0</ele><time>2026-04-25T10:33:43.485Z</time></trkpt><trkpt lat="44.0876804" lon="11.9637163"><ele>261.6</ele><time>2026-04-25T10:33:44.486Z</time></trkpt><trkpt lat="44.0877574" lon="11.9636113"><ele>262.20000000000005</ele><time>2026-04-25T10:33:45.484Z</time></trkpt><trkpt lat="44.0878479" lon="11.9635328"><ele>262.79999999999995</ele><time>2026-04-25T10:33:46.482Z</time></trkpt><trkpt lat="44.0879409" lon="11.9634579"><ele>263.4</ele><time>2026-04-25T10:33:47.496Z</time></trkpt><trkpt lat="44.0880356" lon="11.9633738"><ele>264.0</ele><time>2026-04-25T10:33:48.489Z</time></trkpt><trkpt lat="44.0881209" lon="11.9632646"><ele>264.0</ele><time>2026-04-25T10:33:49.491Z</time></trkpt><trkpt lat="44.0882021" lon="11.9631276"><ele>264.0</ele><time>2026-04-25T10:33:50.492Z</time></trkpt><trkpt lat="44.0882671" lon="11.9629656"><ele>264.0</ele><time>2026-04-25T10:33:51.484Z</time></trkpt><trkpt lat="44.0883266" lon="11.9628124"><ele>264.0</ele><time>2026-04-25T10:33:52.494Z</time></trkpt><trkpt lat="44.0883849" lon="11.9626845"><ele>267.2</ele><time>2026-04-25T10:33:53.484Z</time></trkpt><trkpt lat="44.0884545" lon="11.9625909"><ele>270.4</ele><time>2026-04-25T10:33:54.497Z</time></trkpt><trkpt lat="44.0885498" lon="11.9625372"><ele>273.6</ele><time>2026-04-25T10:33:55.485Z</time></trkpt><trkpt lat="44.088647" lon="11.9625073"><ele>276.8</ele><time>2026-04-25T10:33:56.487Z</time></trkpt><trkpt lat="44.0887541" lon="11.9624748"><ele>280.0</ele><time>2026-04-25T10:33:57.508Z</time></trkpt><trkpt lat="44.0888347" lon="11.9624443"><ele>280.3333333333333</ele><time>2026-04-25T10:33:58.501Z</time></trkpt><trkpt lat="44.0889212" lon="11.9623492"><ele>280.66666666666663</ele><time>2026-04-25T10:34:00.494Z</time></trkpt><trkpt lat="44.0889008" lon="11.9621989"><ele>281.0</ele><time>2026-04-25T10:34:02.491Z</time></trkpt><trkpt lat="44.0888448" lon="11.9621502"><ele>281.3333333333333</ele><time>2026-04-25T10:34:03.485Z</time></trkpt><trkpt lat="44.0887824" lon="11.9621189"><ele>281.6666666666667</ele><time>2026-04-25T10:34:04.496Z</time></trkpt><trkpt lat="44.0887138" lon="11.9620754"><ele>282.0</ele><time>2026-04-25T10:34:05.482Z</time></trkpt><trkpt lat="44.0886498" lon="11.9620458"><ele>282.0</ele><time>2026-04-25T10:34:06.497Z</time></trkpt><trkpt lat="44.0886317" lon="11.9619319"><ele>282.0</ele><time>2026-04-25T10:34:07.508Z</time></trkpt><trkpt lat="44.0886451" lon="11.9618003"><ele>282.0</ele><time>2026-04-25T10:34:08.498Z</time></trkpt><trkpt lat="44.0886697" lon="11.9616646"><ele>282.0</ele><time>2026-04-25T10:34:09.498Z</time></trkpt><trkpt lat="44.0887076" lon="11.9615168"><ele>282.0</ele><time>2026-04-25T10:34:10.499Z</time></trkpt><trkpt lat="44.0887389" lon="11.9613661"><ele>283.0</ele><time>2026-04-25T10:34:11.498Z</time></trkpt><trkpt lat="44.0887493" lon="11.9612306"><ele>284.0</ele><time>2026-04-25T10:34:12.502Z</time></trkpt><trkpt lat="44.0887435" lon="11.9611114"><ele>285.0</ele><time>2026-04-25T10:34:13.494Z</time></trkpt><trkpt lat="44.0887159" lon="11.961014"><ele>286.0</ele><time>2026-04-25T10:34:14.504Z</time></trkpt><trkpt lat="44.0886826" lon="11.9609177"><ele>287.0</ele><time>2026-04-25T10:34:15.482Z</time></trkpt><trkpt lat="44.0886508" lon="11.96082"><ele>288.0</ele><time>2026-04-25T10:34:16.49Z</time></trkpt><trkpt lat="44.0886282" lon="11.960715"><ele>290.2</ele><time>2026-04-25T10:34:17.492Z</time></trkpt><trkpt lat="44.0886244" lon="11.960597"><ele>292.4</ele><time>2026-04-25T10:34:18.485Z</time></trkpt><trkpt lat="44.0886375" lon="11.9604649"><ele>294.59999999999997</ele><time>2026-04-25T10:34:19.486Z</time></trkpt><trkpt lat="44.0886547" lon="11.9603189"><ele>296.8</ele><time>2026-04-25T10:34:20.504Z</time></trkpt><trkpt lat="44.0886713" lon="11.9601738"><ele>299.0</ele><time>2026-04-25T10:34:21.491Z</time></trkpt><trkpt lat="44.0886721" lon="11.9600302"><ele>301.2</ele><time>2026-04-25T10:34:22.517Z</time></trkpt><trkpt lat="44.0886471" lon="11.9598796"><ele>303.4</ele><time>2026-04-25T10:34:23.482Z</time></trkpt><trkpt lat="44.0886123" lon="11.9597394"><ele>305.6</ele><time>2026-04-25T10:34:24.484Z</time></trkpt><trkpt lat="44.0885591" lon="11.9596159"><ele>307.8</ele><time>2026-04-25T10:34:25.496Z</time></trkpt><trkpt lat="44.088517" lon="11.9594843"><ele>310.0</ele><time>2026-04-25T10:34:26.485Z</time></trkpt><trkpt lat="44.0884943" lon="11.9593678"><ele>310.0</ele><time>2026-04-25T10:34:27.49Z</time></trkpt><trkpt lat="44.0884831" lon="11.95926"><ele>310.0</ele><time>2026-04-25T10:34:28.51Z</time></trkpt><trkpt lat="44.0884661" lon="11.9591506"><ele>310.0</ele><time>2026-04-25T10:34:29.494Z</time></trkpt><trkpt lat="44.0884452" lon="11.9590265"><ele>310.0</ele><time>2026-04-25T10:34:30.482Z</time></trkpt><trkpt lat="44.0884295" lon="11.9588868"><ele>310.0</ele><time>2026-04-25T10:34:31.493Z</time></trkpt><trkpt lat="44.0884194" lon="11.9587437"><ele>312.0</ele><time>2026-04-25T10:34:32.482Z</time></trkpt><trkpt lat="44.0884056" lon="11.9586048"><ele>314.0</ele><time>2026-04-25T10:34:33.479Z</time></trkpt><trkpt lat="44.0883843" lon="11.9584677"><ele>316.0</ele><time>2026-04-25T10:34:34.507Z</time></trkpt><trkpt lat="44.0883557" lon="11.9583408"><ele>318.0</ele><time>2026-04-25T10:34:35.485Z</time></trkpt><trkpt lat="44.0883257" lon="11.9582197"><ele>320.0</ele><time>2026-04-25T10:34:36.492Z</time></trkpt><trkpt lat="44.0883125" lon="11.95811"><ele>321.83333333333337</ele><time>2026-04-25T10:34:37.494Z</time></trkpt><trkpt lat="44.0883154" lon="11.9580083"><ele>323.6666666666667</ele><time>2026-04-25T10:34:38.495Z</time></trkpt><trkpt lat="44.0883274" lon="11.9579006"><ele>325.5</ele><time>2026-04-25T10:34:39.484Z</time></trkpt><trkpt lat="44.0883499" lon="11.9577965"><ele>327.3333333333333</ele><time>2026-04-25T10:34:40.484Z</time></trkpt><trkpt lat="44.0883802" lon="11.9576972"><ele>329.16666666666663</ele><time>2026-04-25T10:34:41.49Z</time></trkpt><trkpt lat="44.0884106" lon="11.9576032"><ele>331.0</ele><time>2026-04-25T10:34:42.507Z</time></trkpt><trkpt lat="44.0884251" lon="11.9575076"><ele>333.5</ele><time>2026-04-25T10:34:43.485Z</time></trkpt><trkpt lat="44.0884201" lon="11.9573995"><ele>336.0</ele><time>2026-04-25T10:34:44.492Z</time></trkpt><trkpt lat="44.0884163" lon="11.9572879"><ele>338.5</ele><time>2026-04-25T10:34:45.487Z</time></trkpt><trkpt lat="44.088419" lon="11.9571752"><ele>341.0</ele><time>2026-04-25T10:34:46.502Z</time></trkpt><trkpt lat="44.0884399" lon="11.9570634"><ele>343.5</ele><time>2026-04-25T10:34:47.485Z</time></trkpt><trkpt lat="44.0884522" lon="11.9569388"><ele>346.0</ele><time>2026-04-25T10:34:48.484Z</time></trkpt><trkpt lat="44.0884545" lon="11.9568048"><ele>348.3333333333333</ele><time>2026-04-25T10:34:49.481Z</time></trkpt><trkpt lat="44.0884525" lon="11.956678"><ele>350.66666666666663</ele><time>2026-04-25T10:34:50.492Z</time></trkpt><trkpt lat="44.0884549" lon="11.9565544"><ele>353.0</ele><time>2026-04-25T10:34:51.494Z</time></trkpt><trkpt lat="44.0884712" lon="11.9564435"><ele>355.3333333333333</ele><time>2026-04-25T10:34:52.489Z</time></trkpt><trkpt lat="44.0885019" lon="11.9563299"><ele>357.6666666666667</ele><time>2026-04-25T10:34:53.496Z</time></trkpt><trkpt lat="44.0885359" lon="11.956206"><ele>360.0</ele><time>2026-04-25T10:34:54.51Z</time></trkpt><trkpt lat="44.0885715" lon="11.9560843"><ele>360.0</ele><time>2026-04-25T10:34:55.489Z</time></trkpt><trkpt lat="44.0886144" lon="11.9559562"><ele>360.0</ele><time>2026-04-25T10:34:56.494Z</time></trkpt><trkpt lat="44.0886659" lon="11.955848"><ele>360.0</ele><time>2026-04-25T10:34:57.486Z</time></trkpt><trkpt lat="44.0887169" lon="11.9557536"><ele>360.0</ele><time>2026-04-25T10:34:58.523Z</time></trkpt><trkpt lat="44.0887616" lon="11.9556586"><ele>360.0</ele><time>2026-04-25T10:34:59.492Z</time></trkpt><trkpt lat="44.0888023" lon="11.95555"><ele>360.0</ele><time>2026-04-25T10:35:00.491Z</time></trkpt><trkpt lat="44.088837" lon="11.9554474"><ele>360.3333333333333</ele><time>2026-04-25T10:35:01.481Z</time></trkpt><trkpt lat="44.0888846" lon="11.95535"><ele>360.6666666666667</ele><time>2026-04-25T10:35:02.5Z</time></trkpt><trkpt lat="44.0889454" lon="11.95529"><ele>361.0</ele><time>2026-04-25T10:35:03.496Z</time></trkpt><trkpt lat="44.0890145" lon="11.9552475"><ele>361.33333333333337</ele><time>2026-04-25T10:35:04.497Z</time></trkpt><trkpt lat="44.0891127" lon="11.9552251"><ele>361.6666666666667</ele><time>2026-04-25T10:35:05.488Z</time></trkpt><trkpt lat="44.0892234" lon="11.9552131"><ele>362.0</ele><time>2026-04-25T10:35:06.501Z</time></trkpt><trkpt lat="44.0893425" lon="11.9552232"><ele>362.0</ele><time>2026-04-25T10:35:07.503Z</time></trkpt><trkpt lat="44.0894623" lon="11.9552386"><ele>362.0</ele><time>2026-04-25T10:35:08.527Z</time></trkpt><trkpt lat="44.0895804" lon="11.9552521"><ele>362.0</ele><time>2026-04-25T10:35:09.505Z</time></trkpt><trkpt lat="44.0896658" lon="11.9552487"><ele>362.0</ele><time>2026-04-25T10:35:10.491Z</time></trkpt><trkpt lat="44.0897811" lon="11.9552938"><ele>362.0</ele><time>2026-04-25T10:35:12.5Z</time></trkpt><trkpt lat="44.0898339" lon="11.9553491"><ele>362.0</ele><time>2026-04-25T10:35:13.488Z</time></trkpt><trkpt lat="44.0898817" lon="11.9554141"><ele>362.0</ele><time>2026-04-25T10:35:14.493Z</time></trkpt><trkpt lat="44.0899421" lon="11.955446"><ele>362.0</ele><time>2026-04-25T10:35:15.499Z</time></trkpt><trkpt lat="44.0900478" lon="11.9554337"><ele>362.0</ele><time>2026-04-25T10:35:17.492Z</time></trkpt><trkpt lat="44.0901051" lon="11.9553864"><ele>362.0</ele><time>2026-04-25T10:35:18.493Z</time></trkpt><trkpt lat="44.0901684" lon="11.9553184"><ele>362.0</ele><time>2026-04-25T10:35:19.495Z</time></trkpt><trkpt lat="44.0902359" lon="11.9552707"><ele>363.5</ele><time>2026-04-25T10:35:20.494Z</time></trkpt><trkpt lat="44.0903099" lon="11.9552274"><ele>365.0</ele><time>2026-04-25T10:35:21.478Z</time></trkpt><trkpt lat="44.0903672" lon="11.955191"><ele>366.5</ele><time>2026-04-25T10:35:22.51Z</time></trkpt><trkpt lat="44.0904621" lon="11.955151"><ele>368.0</ele><time>2026-04-25T10:35:24.498Z</time></trkpt><trkpt lat="44.0905737" lon="11.9551983"><ele>369.5</ele><time>2026-04-25T10:35:26.5Z</time></trkpt><trkpt lat="44.0906381" lon="11.9552526"><ele>371.0</ele><time>2026-04-25T10:35:27.483Z</time></trkpt><trkpt lat="44.0907144" lon="11.955311"><ele>371.0</ele><time>2026-04-25T10:35:28.487Z</time></trkpt><trkpt lat="44.0907951" lon="11.9553678"><ele>371.0</ele><time>2026-04-25T10:35:29.491Z</time></trkpt><trkpt lat="44.0908696" lon="11.9554229"><ele>371.0</ele><time>2026-04-25T10:35:30.51Z</time></trkpt><trkpt lat="44.090948" lon="11.9554714"><ele>371.0</ele><time>2026-04-25T10:35:31.483Z</time></trkpt><trkpt lat="44.0910248" lon="11.9555156"><ele>371.0</ele><time>2026-04-25T10:35:32.508Z</time></trkpt><trkpt lat="44.0910898" lon="11.9555691"><ele>371.0</ele><time>2026-04-25T10:35:33.488Z</time></trkpt><trkpt lat="44.0911524" lon="11.9556397"><ele>371.0</ele><time>2026-04-25T10:35:34.5Z</time></trkpt><trkpt lat="44.0912078" lon="11.9557184"><ele>371.0</ele><time>2026-04-25T10:35:35.485Z</time></trkpt><trkpt lat="44.0912543" lon="11.9558014"><ele>371.0</ele><time>2026-04-25T10:35:36.495Z</time></trkpt><trkpt lat="44.0913018" lon="11.9558755"><ele>371.0</ele><time>2026-04-25T10:35:37.488Z</time></trkpt><trkpt lat="44.091343" lon="11.9559479"><ele>371.0</ele><time>2026-04-25T10:35:38.495Z</time></trkpt><trkpt lat="44.0913843" lon="11.956027"><ele>371.0</ele><time>2026-04-25T10:35:39.499Z</time></trkpt><trkpt lat="44.0914226" lon="11.956112"><ele>371.0</ele><time>2026-04-25T10:35:40.49Z</time></trkpt><trkpt lat="44.0914543" lon="11.9561888"><ele>369.6666666666667</ele><time>2026-04-25T10:35:41.491Z</time></trkpt><trkpt lat="44.0914746" lon="11.9562729"><ele>368.33333333333337</ele><time>2026-04-25T10:35:42.495Z</time></trkpt><trkpt lat="44.0914972" lon="11.9564353"><ele>367.0</ele><time>2026-04-25T10:35:44.496Z</time></trkpt><trkpt lat="44.0914985" lon="11.9565716"><ele>365.6666666666667</ele><time>2026-04-25T10:35:46.504Z</time></trkpt><trkpt lat="44.0915361" lon="11.9566498"><ele>364.3333333333333</ele><time>2026-04-25T10:37:00.497Z</time></trkpt><trkpt lat="44.0915039" lon="11.95657"><ele>363.0</ele><time>2026-04-25T10:37:04.502Z</time></trkpt><trkpt lat="44.0914957" lon="11.9564607"><ele>363.0</ele><time>2026-04-25T10:37:06.49Z</time></trkpt><trkpt lat="44.0914894" lon="11.9562939"><ele>363.0</ele><time>2026-04-25T10:37:08.494Z</time></trkpt><trkpt lat="44.0914533" lon="11.9561571"><ele>363.0</ele><time>2026-04-25T10:37:10.491Z</time></trkpt><trkpt lat="44.0914046" lon="11.9560546"><ele>363.0</ele><time>2026-04-25T10:37:12.502Z</time></trkpt><trkpt lat="44.0913579" lon="11.9559531"><ele>363.0</ele><time>2026-04-25T10:37:15.49Z</time></trkpt><trkpt lat="44.0912991" lon="11.9558854"><ele>363.0</ele><time>2026-04-25T10:37:18.495Z</time></trkpt><trkpt lat="44.0912654" lon="11.9559883"><ele>363.0</ele><time>2026-04-25T10:37:21.489Z</time></trkpt><trkpt lat="44.0912836" lon="11.9560841"><ele>363.0</ele><time>2026-04-25T10:37:23.493Z</time></trkpt><trkpt lat="44.0913275" lon="11.9561634"><ele>363.0</ele><time>2026-04-25T10:37:26.504Z</time></trkpt><trkpt lat="44.091376" lon="11.9562734"><ele>363.0</ele><time>2026-04-25T10:37:34.477Z</time></trkpt><trkpt lat="44.0913799" lon="11.9563926"><ele>363.0</ele><time>2026-04-25T10:37:36.493Z</time></trkpt><trkpt lat="44.0913277" lon="11.9564999"><ele>362.99999999999994</ele><time>2026-04-25T10:37:38.484Z</time></trkpt><trkpt lat="44.0912598" lon="11.9565674"><ele>363.0</ele><time>2026-04-25T10:37:40.494Z</time></trkpt><trkpt lat="44.0912027" lon="11.956612"><ele>363.0</ele><time>2026-04-25T10:37:42.491Z</time></trkpt><trkpt lat="44.091142" lon="11.956658"><ele>363.0</ele><time>2026-04-25T10:37:44.492Z</time></trkpt><trkpt lat="44.0910831" lon="11.9567037"><ele>363.0</ele><time>2026-04-25T10:37:46.5Z</time></trkpt><trkpt lat="44.0910136" lon="11.9567512"><ele>362.99999999999994</ele><time>2026-04-25T10:37:49.499Z</time></trkpt><trkpt lat="44.0909399" lon="11.9567772"><ele>363.0</ele><time>2026-04-25T10:37:52.491Z</time></trkpt><trkpt lat="44.0908792" lon="11.9568325"><ele>359.57142857142856</ele><time>2026-04-25T10:37:56.499Z</time></trkpt><trkpt lat="44.090885" lon="11.9569231"><ele>356.1428571428571</ele><time>2026-04-25T10:38:00.499Z</time></trkpt><trkpt lat="44.0909274" lon="11.9569963"><ele>352.71428571428567</ele><time>2026-04-25T10:38:03.494Z</time></trkpt><trkpt lat="44.0910066" lon="11.9570177"><ele>349.2857142857143</ele><time>2026-04-25T10:38:06.496Z</time></trkpt><trkpt lat="44.0910857" lon="11.9569869"><ele>345.8571428571429</ele><time>2026-04-25T10:38:08.498Z</time></trkpt><trkpt lat="44.0911516" lon="11.9569887"><ele>342.4285714285714</ele><time>2026-04-25T10:38:48.509Z</time></trkpt><trkpt lat="44.0912101" lon="11.9570231"><ele>339.0</ele><time>2026-04-25T10:40:34.5Z</time></trkpt><trkpt lat="44.0912695" lon="11.9570597"><ele>339.0</ele><time>2026-04-25T10:42:21.483Z</time></trkpt><trkpt lat="44.0913443" lon="11.9570865"><ele>339.0</ele><time>2026-04-25T10:42:24.499Z</time></trkpt><trkpt lat="44.0914105" lon="11.9571139"><ele>339.0</ele><time>2026-04-25T10:42:26.482Z</time></trkpt><trkpt lat="44.0914871" lon="11.9571484"><ele>339.0</ele><time>2026-04-25T10:42:29.485Z</time></trkpt><trkpt lat="44.0914113" lon="11.9571264"><ele>339.0</ele><time>2026-04-25T10:44:06.482Z</time></trkpt><trkpt lat="44.0912926" lon="11.9570746"><ele>339.0</ele><time>2026-04-25T10:44:08.494Z</time></trkpt><trkpt lat="44.0911932" lon="11.9570119"><ele>339.0</ele><time>2026-04-25T10:44:10.498Z</time></trkpt><trkpt lat="44.0911366" lon="11.9569593"><ele>339.0</ele><time>2026-04-25T10:44:14.497Z</time></trkpt><trkpt lat="44.0910717" lon="11.9569735"><ele>339.0</ele><time>2026-04-25T10:44:47.478Z</time></trkpt><trkpt lat="44.0910078" lon="11.956983"><ele>339.0</ele><time>2026-04-25T10:44:49.513Z</time></trkpt><trkpt lat="44.0909358" lon="11.9569914"><ele>339.0</ele><time>2026-04-25T10:44:52.505Z</time></trkpt><trkpt lat="44.0908638" lon="11.956914"><ele>339.0</ele><time>2026-04-25T10:44:55.498Z</time></trkpt><trkpt lat="44.0908449" lon="11.956822"><ele>339.0</ele><time>2026-04-25T10:44:57.496Z</time></trkpt><trkpt lat="44.0908734" lon="11.956727"><ele>339.0</ele><time>2026-04-25T10:44:59.494Z</time></trkpt><trkpt lat="44.0909411" lon="11.9566886"><ele>339.0</ele><time>2026-04-25T10:45:01.489Z</time></trkpt><trkpt lat="44.0910362" lon="11.9566932"><ele>339.0</ele><time>2026-04-25T10:45:04.512Z</time></trkpt><trkpt lat="44.0910912" lon="11.9566296"><ele>339.0</ele><time>2026-04-25T10:45:06.503Z</time></trkpt><trkpt lat="44.0910443" lon="11.9565612"><ele>339.0</ele><time>2026-04-25T10:45:08.491Z</time></trkpt><trkpt lat="44.0909636" lon="11.9566202"><ele>339.0</ele><time>2026-04-25T10:45:11.489Z</time></trkpt><trkpt lat="44.0909223" lon="11.9567079"><ele>339.0</ele><time>2026-04-25T10:45:14.487Z</time></trkpt><trkpt lat="44.0908976" lon="11.9568014"><ele>339.0</ele><time>2026-04-25T10:45:21.482Z</time></trkpt><trkpt lat="44.0908342" lon="11.9568068"><ele>339.0</ele><time>2026-04-25T10:45:25.485Z</time></trkpt><trkpt lat="44.0907974" lon="11.9567351"><ele>339.0</ele><time>2026-04-25T10:45:27.488Z</time></trkpt><trkpt lat="44.0907904" lon="11.9566371"><ele>339.0</ele><time>2026-04-25T10:45:29.487Z</time></trkpt><trkpt lat="44.0908391" lon="11.9564796"><ele>339.0</ele><time>2026-04-25T10:45:31.483Z</time></trkpt><trkpt lat="44.0908803" lon="11.9564"><ele>342.4285714285714</ele><time>2026-04-25T10:45:32.505Z</time></trkpt><trkpt lat="44.0909284" lon="11.9563323"><ele>345.8571428571429</ele><time>2026-04-25T10:45:33.491Z</time></trkpt><trkpt lat="44.09097" lon="11.9562611"><ele>349.2857142857143</ele><time>2026-04-25T10:45:34.496Z</time></trkpt><trkpt lat="44.0910129" lon="11.9561787"><ele>352.71428571428567</ele><time>2026-04-25T10:45:35.483Z</time></trkpt><trkpt lat="44.0910535" lon="11.9560872"><ele>356.1428571428571</ele><time>2026-04-25T10:45:36.491Z</time></trkpt><trkpt lat="44.0910932" lon="11.9559932"><ele>359.57142857142856</ele><time>2026-04-25T10:45:37.484Z</time></trkpt><trkpt lat="44.0911247" lon="11.9558987"><ele>363.0</ele><time>2026-04-25T10:45:38.493Z</time></trkpt><trkpt lat="44.0911432" lon="11.9558108"><ele>364.3333333333333</ele><time>2026-04-25T10:45:39.486Z</time></trkpt><trkpt lat="44.0911486" lon="11.9556826"><ele>365.6666666666667</ele><time>2026-04-25T10:45:41.488Z</time></trkpt><trkpt lat="44.0911175" lon="11.9556037"><ele>367.0</ele><time>2026-04-25T10:45:43.486Z</time></trkpt><trkpt lat="44.0910549" lon="11.95553"><ele>368.33333333333337</ele><time>2026-04-25T10:45:46.499Z</time></trkpt><trkpt lat="44.0909736" lon="11.9554841"><ele>369.6666666666667</ele><time>2026-04-25T10:45:48.511Z</time></trkpt><trkpt lat="44.0909118" lon="11.9554402"><ele>371.0</ele><time>2026-04-25T10:45:49.486Z</time></trkpt><trkpt lat="44.0908453" lon="11.9553987"><ele>371.0</ele><time>2026-04-25T10:45:50.493Z</time></trkpt><trkpt lat="44.0907695" lon="11.9553504"><ele>371.0</ele><time>2026-04-25T10:45:51.5Z</time></trkpt><trkpt lat="44.0906926" lon="11.9553025"><ele>371.0</ele><time>2026-04-25T10:45:52.483Z</time></trkpt><trkpt lat="44.0906242" lon="11.9552536"><ele>371.0</ele><time>2026-04-25T10:45:53.491Z</time></trkpt><trkpt lat="44.0905656" lon="11.9552127"><ele>371.0</ele><time>2026-04-25T10:45:54.492Z</time></trkpt><trkpt lat="44.0904864" lon="11.9551528"><ele>371.0</ele><time>2026-04-25T10:45:56.482Z</time></trkpt><trkpt lat="44.0904206" lon="11.9551268"><ele>371.0</ele><time>2026-04-25T10:45:59.482Z</time></trkpt><trkpt lat="44.0904695" lon="11.9550821"><ele>371.0</ele><time>2026-04-25T10:53:45.499Z</time></trkpt><trkpt lat="44.0904427" lon="11.9549784"><ele>371.0</ele><time>2026-04-25T10:53:50.495Z</time></trkpt><trkpt lat="44.0904228" lon="11.9548708"><ele>371.0</ele><time>2026-04-25T10:53:53.498Z</time></trkpt><trkpt lat="44.0904053" lon="11.9547863"><ele>371.0</ele><time>2026-04-25T10:53:55.484Z</time></trkpt><trkpt lat="44.0903903" lon="11.9546845"><ele>371.0</ele><time>2026-04-25T10:53:57.497Z</time></trkpt><trkpt lat="44.0903869" lon="11.9545752"><ele>371.0</ele><time>2026-04-25T10:53:59.481Z</time></trkpt><trkpt lat="44.0903793" lon="11.9544825"><ele>372.8</ele><time>2026-04-25T10:54:01.486Z</time></trkpt><trkpt lat="44.0903677" lon="11.9543406"><ele>374.6</ele><time>2026-04-25T10:54:03.486Z</time></trkpt><trkpt lat="44.0903798" lon="11.9542058"><ele>376.4</ele><time>2026-04-25T10:54:05.495Z</time></trkpt><trkpt lat="44.0903865" lon="11.9540919"><ele>378.2</ele><time>2026-04-25T10:54:07.497Z</time></trkpt><trkpt lat="44.0903905" lon="11.9539733"><ele>380.0</ele><time>2026-04-25T10:54:09.479Z</time></trkpt><trkpt lat="44.0903984" lon="11.953826"><ele>380.1666666666667</ele><time>2026-04-25T10:54:11.491Z</time></trkpt><trkpt lat="44.0904145" lon="11.953689"><ele>380.33333333333337</ele><time>2026-04-25T10:54:13.48Z</time></trkpt><trkpt lat="44.0904221" lon="11.9535719"><ele>380.5</ele><time>2026-04-25T10:54:15.468Z</time></trkpt><trkpt lat="44.0904433" lon="11.9534766"><ele>380.6666666666667</ele><time>2026-04-25T10:54:17.492Z</time></trkpt><trkpt lat="44.0904759" lon="11.9533672"><ele>380.8333333333333</ele><time>2026-04-25T10:54:20.484Z</time></trkpt><trkpt lat="44.0905196" lon="11.9532769"><ele>381.0</ele><time>2026-04-25T10:54:23.485Z</time></trkpt><trkpt lat="44.0905688" lon="11.9531796"><ele>381.0</ele><time>2026-04-25T10:54:26.483Z</time></trkpt><trkpt lat="44.0906184" lon="11.9530782"><ele>381.0</ele><time>2026-04-25T10:54:29.509Z</time></trkpt><trkpt lat="44.0906593" lon="11.9530038"><ele>381.0</ele><time>2026-04-25T10:54:32.485Z</time></trkpt><trkpt lat="44.0906765" lon="11.9529124"><ele>381.0</ele><time>2026-04-25T10:54:46.472Z</time></trkpt><trkpt lat="44.0907164" lon="11.9528119"><ele>381.0</ele><time>2026-04-25T10:54:51.483Z</time></trkpt><trkpt lat="44.0907618" lon="11.9527424"><ele>381.0</ele><time>2026-04-25T10:54:54.476Z</time></trkpt><trkpt lat="44.0908186" lon="11.9526925"><ele>381.0</ele><time>2026-04-25T10:54:59.484Z</time></trkpt><trkpt lat="44.0907628" lon="11.952741"><ele>381.0</ele><time>2026-04-25T10:59:12.48Z</time></trkpt><trkpt lat="44.0907152" lon="11.9528452"><ele>381.0</ele><time>2026-04-25T10:59:15.489Z</time></trkpt><trkpt lat="44.0906826" lon="11.9529342"><ele>381.0</ele><time>2026-04-25T10:59:27.478Z</time></trkpt><trkpt lat="44.0906339" lon="11.9530341"><ele>381.0</ele><time>2026-04-25T10:59:33.477Z</time></trkpt><trkpt lat="44.0905816" lon="11.9531367"><ele>381.0</ele><time>2026-04-25T10:59:35.485Z</time></trkpt><trkpt lat="44.090527" lon="11.9532284"><ele>381.0</ele><time>2026-04-25T10:59:38.475Z</time></trkpt><trkpt lat="44.0904647" lon="11.9533209"><ele>381.0</ele><time>2026-04-25T10:59:40.48Z</time></trkpt><trkpt lat="44.0904276" lon="11.9534525"><ele>381.0</ele><time>2026-04-25T10:59:42.477Z</time></trkpt><trkpt lat="44.0904085" lon="11.9536128"><ele>381.0</ele><time>2026-04-25T10:59:44.481Z</time></trkpt><trkpt lat="44.0903909" lon="11.9537811"><ele>381.0</ele><time>2026-04-25T10:59:46.483Z</time></trkpt><trkpt lat="44.0903852" lon="11.9538751"><ele>381.0</ele><time>2026-04-25T10:59:47.482Z</time></trkpt><trkpt lat="44.0903811" lon="11.9539822"><ele>381.0</ele><time>2026-04-25T10:59:48.48Z</time></trkpt><trkpt lat="44.0903815" lon="11.9540903"><ele>381.0</ele><time>2026-04-25T10:59:49.476Z</time></trkpt><trkpt lat="44.0903787" lon="11.9541906"><ele>381.0</ele><time>2026-04-25T10:59:50.478Z</time></trkpt><trkpt lat="44.0903702" lon="11.9542971"><ele>381.0</ele><time>2026-04-25T10:59:51.472Z</time></trkpt><trkpt lat="44.090371" lon="11.9544005"><ele>381.0</ele><time>2026-04-25T10:59:52.483Z</time></trkpt><trkpt lat="44.0903704" lon="11.9545005"><ele>381.0</ele><time>2026-04-25T10:59:53.481Z</time></trkpt><trkpt lat="44.090376" lon="11.9546012"><ele>381.0</ele><time>2026-04-25T10:59:54.479Z</time></trkpt><trkpt lat="44.090392" lon="11.9547606"><ele>380.8333333333333</ele><time>2026-04-25T10:59:56.477Z</time></trkpt><trkpt lat="44.0904141" lon="11.9548953"><ele>380.6666666666667</ele><time>2026-04-25T10:59:58.49Z</time></trkpt><trkpt lat="44.0904489" lon="11.9550206"><ele>380.5</ele><time>2026-04-25T11:00:00.482Z</time></trkpt><trkpt lat="44.0904614" lon="11.9551121"><ele>380.33333333333337</ele><time>2026-04-25T11:00:02.49Z</time></trkpt><trkpt lat="44.0904106" lon="11.9551661"><ele>380.1666666666667</ele><time>2026-04-25T11:01:28.485Z</time></trkpt><trkpt lat="44.0903439" lon="11.9552179"><ele>380.0</ele><time>2026-04-25T11:01:30.485Z</time></trkpt><trkpt lat="44.0902799" lon="11.9552678"><ele>378.5</ele><time>2026-04-25T11:01:32.483Z</time></trkpt><trkpt lat="44.0902178" lon="11.9553017"><ele>377.0</ele><time>2026-04-25T11:01:35.495Z</time></trkpt><trkpt lat="44.0901422" lon="11.9553506"><ele>375.5</ele><time>2026-04-25T11:01:45.495Z</time></trkpt><trkpt lat="44.0900613" lon="11.9554045"><ele>374.0</ele><time>2026-04-25T11:01:48.487Z</time></trkpt><trkpt lat="44.0899982" lon="11.9554529"><ele>372.5</ele><time>2026-04-25T11:01:50.498Z</time></trkpt><trkpt lat="44.0899248" lon="11.9554604"><ele>371.0</ele><time>2026-04-25T11:01:52.502Z</time></trkpt><trkpt lat="44.0898526" lon="11.9553955"><ele>369.20000000000005</ele><time>2026-04-25T11:01:54.474Z</time></trkpt><trkpt lat="44.0897817" lon="11.9553216"><ele>367.40000000000003</ele><time>2026-04-25T11:01:56.497Z</time></trkpt><trkpt lat="44.0896945" lon="11.9552646"><ele>365.6</ele><time>2026-04-25T11:01:58.491Z</time></trkpt><trkpt lat="44.0895684" lon="11.9552428"><ele>363.8</ele><time>2026-04-25T11:02:00.481Z</time></trkpt><trkpt lat="44.0894784" lon="11.9552417"><ele>362.0</ele><time>2026-04-25T11:02:01.484Z</time></trkpt><trkpt lat="44.0893783" lon="11.955243"><ele>362.0</ele><time>2026-04-25T11:02:02.477Z</time></trkpt><trkpt lat="44.0892787" lon="11.9552334"><ele>362.0</ele><time>2026-04-25T11:02:03.484Z</time></trkpt><trkpt lat="44.089185" lon="11.9552232"><ele>362.0</ele><time>2026-04-25T11:02:04.481Z</time></trkpt><trkpt lat="44.0890989" lon="11.9552211"><ele>362.0</ele><time>2026-04-25T11:02:05.493Z</time></trkpt><trkpt lat="44.0890114" lon="11.9552408"><ele>362.0</ele><time>2026-04-25T11:02:06.491Z</time></trkpt><trkpt lat="44.0889359" lon="11.9552835"><ele>361.6666666666667</ele><time>2026-04-25T11:02:07.482Z</time></trkpt><trkpt lat="44.0888743" lon="11.9553425"><ele>361.33333333333337</ele><time>2026-04-25T11:02:08.491Z</time></trkpt><trkpt lat="44.0888214" lon="11.9554397"><ele>361.0</ele><time>2026-04-25T11:02:09.482Z</time></trkpt><trkpt lat="44.0887852" lon="11.9555518"><ele>360.6666666666667</ele><time>2026-04-25T11:02:10.488Z</time></trkpt><trkpt lat="44.088746" lon="11.9556698"><ele>360.3333333333333</ele><time>2026-04-25T11:02:11.485Z</time></trkpt><trkpt lat="44.0887044" lon="11.9557775"><ele>360.0</ele><time>2026-04-25T11:02:12.483Z</time></trkpt><trkpt lat="44.0886521" lon="11.9558744"><ele>360.0</ele><time>2026-04-25T11:02:13.488Z</time></trkpt><trkpt lat="44.0885978" lon="11.955981"><ele>360.0</ele><time>2026-04-25T11:02:14.482Z</time></trkpt><trkpt lat="44.0885572" lon="11.9560946"><ele>360.0</ele><time>2026-04-25T11:02:15.489Z</time></trkpt><trkpt lat="44.088527" lon="11.9562101"><ele>360.0</ele><time>2026-04-25T11:02:16.489Z</time></trkpt><trkpt lat="44.0884991" lon="11.95631"><ele>360.0</ele><time>2026-04-25T11:02:17.488Z</time></trkpt><trkpt lat="44.088475" lon="11.9564035"><ele>360.0</ele><time>2026-04-25T11:02:18.486Z</time></trkpt><trkpt lat="44.0884601" lon="11.9564924"><ele>360.0</ele><time>2026-04-25T11:02:19.486Z</time></trkpt><trkpt lat="44.0884547" lon="11.9565843"><ele>360.0</ele><time>2026-04-25T11:02:20.488Z</time></trkpt><trkpt lat="44.0884607" lon="11.9567612"><ele>360.0</ele><time>2026-04-25T11:02:22.48Z</time></trkpt><trkpt lat="44.0884605" lon="11.9568562"><ele>360.0</ele><time>2026-04-25T11:02:23.475Z</time></trkpt><trkpt lat="44.0884529" lon="11.956959"><ele>360.0</ele><time>2026-04-25T11:02:24.491Z</time></trkpt><trkpt lat="44.0884395" lon="11.9570634"><ele>360.0</ele><time>2026-04-25T11:02:25.487Z</time></trkpt><trkpt lat="44.0884282" lon="11.957173"><ele>358.0</ele><time>2026-04-25T11:02:26.48Z</time></trkpt><trkpt lat="44.088417" lon="11.957274"><ele>356.0</ele><time>2026-04-25T11:02:27.486Z</time></trkpt><trkpt lat="44.0884143" lon="11.9573769"><ele>354.0</ele><time>2026-04-25T11:02:28.487Z</time></trkpt><trkpt lat="44.0884177" lon="11.9574749"><ele>352.0</ele><time>2026-04-25T11:02:29.488Z</time></trkpt><trkpt lat="44.0884135" lon="11.9575708"><ele>350.0</ele><time>2026-04-25T11:02:30.493Z</time></trkpt><trkpt lat="44.0883992" lon="11.9576658"><ele>348.0</ele><time>2026-04-25T11:02:31.486Z</time></trkpt><trkpt lat="44.0883708" lon="11.9577526"><ele>346.0</ele><time>2026-04-25T11:02:32.493Z</time></trkpt><trkpt lat="44.088341" lon="11.9578334"><ele>343.5</ele><time>2026-04-25T11:02:33.49Z</time></trkpt><trkpt lat="44.0883089" lon="11.9580031"><ele>341.0</ele><time>2026-04-25T11:02:35.493Z</time></trkpt><trkpt lat="44.0883079" lon="11.9580923"><ele>338.5</ele><time>2026-04-25T11:02:36.481Z</time></trkpt><trkpt lat="44.0883182" lon="11.9581883"><ele>336.0</ele><time>2026-04-25T11:02:37.488Z</time></trkpt><trkpt lat="44.0883395" lon="11.9582919"><ele>333.5</ele><time>2026-04-25T11:02:38.498Z</time></trkpt><trkpt lat="44.0883681" lon="11.9584071"><ele>331.0</ele><time>2026-04-25T11:02:39.493Z</time></trkpt><trkpt lat="44.0883923" lon="11.9585291"><ele>329.16666666666663</ele><time>2026-04-25T11:02:40.489Z</time></trkpt><trkpt lat="44.0884116" lon="11.9586488"><ele>327.3333333333333</ele><time>2026-04-25T11:02:41.485Z</time></trkpt><trkpt lat="44.0884242" lon="11.9587646"><ele>325.5</ele><time>2026-04-25T11:02:42.49Z</time></trkpt><trkpt lat="44.0884349" lon="11.95887"><ele>323.6666666666667</ele><time>2026-04-25T11:02:43.484Z</time></trkpt><trkpt lat="44.0884411" lon="11.958973"><ele>321.83333333333337</ele><time>2026-04-25T11:02:44.491Z</time></trkpt><trkpt lat="44.0884511" lon="11.9590663"><ele>320.0</ele><time>2026-04-25T11:02:45.496Z</time></trkpt><trkpt lat="44.0884818" lon="11.9592234"><ele>318.33333333333337</ele><time>2026-04-25T11:02:47.483Z</time></trkpt><trkpt lat="44.0885021" lon="11.9593608"><ele>316.6666666666667</ele><time>2026-04-25T11:02:49.487Z</time></trkpt><trkpt lat="44.0885147" lon="11.9594686"><ele>315.0</ele><time>2026-04-25T11:02:51.5Z</time></trkpt><trkpt lat="44.0885388" lon="11.9595633"><ele>313.3333333333333</ele><time>2026-04-25T11:02:53.489Z</time></trkpt><trkpt lat="44.0885835" lon="11.9596642"><ele>311.66666666666663</ele><time>2026-04-25T11:02:55.491Z</time></trkpt><trkpt lat="44.088622" lon="11.9597691"><ele>310.0</ele><time>2026-04-25T11:02:57.489Z</time></trkpt><trkpt lat="44.088644" lon="11.9598623"><ele>310.0</ele><time>2026-04-25T11:03:28.487Z</time></trkpt><trkpt lat="44.0886531" lon="11.9599495"><ele>310.0</ele><time>2026-04-25T11:03:33.483Z</time></trkpt><trkpt lat="44.0886491" lon="11.9598499"><ele>310.0</ele><time>2026-04-25T11:04:02.5Z</time></trkpt><trkpt lat="44.0886076" lon="11.9596755"><ele>310.0</ele><time>2026-04-25T11:04:04.495Z</time></trkpt><trkpt lat="44.0885503" lon="11.9595742"><ele>310.0</ele><time>2026-04-25T11:04:05.501Z</time></trkpt><trkpt lat="44.0885139" lon="11.9594592"><ele>310.0</ele><time>2026-04-25T11:04:06.475Z</time></trkpt><trkpt lat="44.0884993" lon="11.9593318"><ele>310.0</ele><time>2026-04-25T11:04:07.487Z</time></trkpt><trkpt lat="44.0884806" lon="11.9592288"><ele>310.0</ele><time>2026-04-25T11:04:08.5Z</time></trkpt><trkpt lat="44.0884558" lon="11.9591319"><ele>310.0</ele><time>2026-04-25T11:04:09.489Z</time></trkpt><trkpt lat="44.088402" lon="11.9590465"><ele>310.0</ele><time>2026-04-25T11:04:10.5Z</time></trkpt><trkpt lat="44.0883358" lon="11.9589741"><ele>310.0</ele><time>2026-04-25T11:04:11.497Z</time></trkpt><trkpt lat="44.0882716" lon="11.9589065"><ele>311.16666666666663</ele><time>2026-04-25T11:04:12.48Z</time></trkpt><trkpt lat="44.0882164" lon="11.9588376"><ele>312.3333333333333</ele><time>2026-04-25T11:04:13.484Z</time></trkpt><trkpt lat="44.0881682" lon="11.9587697"><ele>313.5</ele><time>2026-04-25T11:04:14.493Z</time></trkpt><trkpt lat="44.0881162" lon="11.958694"><ele>314.6666666666667</ele><time>2026-04-25T11:04:15.495Z</time></trkpt><trkpt lat="44.0880517" lon="11.9586072"><ele>315.83333333333337</ele><time>2026-04-25T11:04:16.487Z</time></trkpt><trkpt lat="44.0879785" lon="11.9585092"><ele>317.0</ele><time>2026-04-25T11:04:17.481Z</time></trkpt><trkpt lat="44.0879206" lon="11.9584251"><ele>319.1666666666667</ele><time>2026-04-25T11:04:18.488Z</time></trkpt><trkpt lat="44.0878695" lon="11.9583548"><ele>321.33333333333337</ele><time>2026-04-25T11:04:19.486Z</time></trkpt><trkpt lat="44.0878128" lon="11.9582838"><ele>323.5</ele><time>2026-04-25T11:04:20.491Z</time></trkpt><trkpt lat="44.0877475" lon="11.9582228"><ele>325.6666666666667</ele><time>2026-04-25T11:04:21.481Z</time></trkpt><trkpt lat="44.0876764" lon="11.9581728"><ele>327.8333333333333</ele><time>2026-04-25T11:04:22.489Z</time></trkpt><trkpt lat="44.0875902" lon="11.9581489"><ele>330.0</ele><time>2026-04-25T11:04:23.487Z</time></trkpt><trkpt lat="44.0874941" lon="11.9581375"><ele>328.8</ele><time>2026-04-25T11:04:24.488Z</time></trkpt><trkpt lat="44.0873942" lon="11.9581204"><ele>327.6</ele><time>2026-04-25T11:04:25.489Z</time></trkpt><trkpt lat="44.0872988" lon="11.9580866"><ele>326.4</ele><time>2026-04-25T11:04:26.488Z</time></trkpt><trkpt lat="44.087198" lon="11.9580323"><ele>325.2</ele><time>2026-04-25T11:04:27.479Z</time></trkpt><trkpt lat="44.0870927" lon="11.9579552"><ele>324.0</ele><time>2026-04-25T11:04:28.478Z</time></trkpt><trkpt lat="44.0869826" lon="11.9578724"><ele>324.0</ele><time>2026-04-25T11:04:29.494Z</time></trkpt><trkpt lat="44.0868767" lon="11.9578004"><ele>324.0</ele><time>2026-04-25T11:04:30.487Z</time></trkpt><trkpt lat="44.0867873" lon="11.9577381"><ele>324.0</ele><time>2026-04-25T11:04:31.48Z</time></trkpt><trkpt lat="44.0867039" lon="11.95768"><ele>324.0</ele><time>2026-04-25T11:04:32.494Z</time></trkpt><trkpt lat="44.0866298" lon="11.9576269"><ele>324.0</ele><time>2026-04-25T11:04:33.486Z</time></trkpt><trkpt lat="44.0865708" lon="11.9575676"><ele>323.3333333333333</ele><time>2026-04-25T11:04:34.487Z</time></trkpt><trkpt lat="44.0865269" lon="11.9574962"><ele>322.6666666666667</ele><time>2026-04-25T11:04:35.502Z</time></trkpt><trkpt lat="44.0864931" lon="11.9574051"><ele>322.0</ele><time>2026-04-25T11:04:36.483Z</time></trkpt><trkpt lat="44.0864743" lon="11.9572953"><ele>321.33333333333337</ele><time>2026-04-25T11:04:37.483Z</time></trkpt><trkpt lat="44.0864604" lon="11.9571754"><ele>320.6666666666667</ele><time>2026-04-25T11:04:38.487Z</time></trkpt><trkpt lat="44.0864605" lon="11.9570296"><ele>320.0</ele><time>2026-04-25T11:04:39.485Z</time></trkpt><trkpt lat="44.0864738" lon="11.9568674"><ele>320.0</ele><time>2026-04-25T11:04:40.495Z</time></trkpt><trkpt lat="44.0864765" lon="11.9567173"><ele>320.0</ele><time>2026-04-25T11:04:41.479Z</time></trkpt><trkpt lat="44.0864705" lon="11.9565896"><ele>320.0</ele><time>2026-04-25T11:04:42.485Z</time></trkpt><trkpt lat="44.0864448" lon="11.9564724"><ele>320.0</ele><time>2026-04-25T11:04:43.49Z</time></trkpt><trkpt lat="44.0864007" lon="11.9563642"><ele>320.0</ele><time>2026-04-25T11:04:44.484Z</time></trkpt><trkpt lat="44.0863327" lon="11.9562646"><ele>323.0</ele><time>2026-04-25T11:04:45.486Z</time></trkpt><trkpt lat="44.0862505" lon="11.9561814"><ele>326.0</ele><time>2026-04-25T11:04:46.48Z</time></trkpt><trkpt lat="44.0861613" lon="11.9561178"><ele>329.0</ele><time>2026-04-25T11:04:47.486Z</time></trkpt><trkpt lat="44.0860645" lon="11.9560476"><ele>332.0</ele><time>2026-04-25T11:04:48.482Z</time></trkpt><trkpt lat="44.0859633" lon="11.9559729"><ele>335.0</ele><time>2026-04-25T11:04:49.481Z</time></trkpt><trkpt lat="44.0858734" lon="11.9559116"><ele>335.5</ele><time>2026-04-25T11:04:50.473Z</time></trkpt><trkpt lat="44.0857849" lon="11.9558551"><ele>336.0</ele><time>2026-04-25T11:04:51.484Z</time></trkpt><trkpt lat="44.0856969" lon="11.9558149"><ele>336.5</ele><time>2026-04-25T11:04:52.488Z</time></trkpt><trkpt lat="44.0856135" lon="11.9558061"><ele>337.0</ele><time>2026-04-25T11:04:53.488Z</time></trkpt><trkpt lat="44.0855351" lon="11.9558259"><ele>337.5</ele><time>2026-04-25T11:04:54.489Z</time></trkpt><trkpt lat="44.0854686" lon="11.9558764"><ele>338.0</ele><time>2026-04-25T11:04:55.495Z</time></trkpt><trkpt lat="44.0854136" lon="11.955939"><ele>338.0</ele><time>2026-04-25T11:04:56.487Z</time></trkpt><trkpt lat="44.0853482" lon="11.9560174"><ele>338.0</ele><time>2026-04-25T11:04:57.479Z</time></trkpt><trkpt lat="44.085286" lon="11.9560875"><ele>338.0</ele><time>2026-04-25T11:04:58.491Z</time></trkpt><trkpt lat="44.0852261" lon="11.9561302"><ele>338.0</ele><time>2026-04-25T11:04:59.491Z</time></trkpt><trkpt lat="44.0851563" lon="11.9561476"><ele>338.0</ele><time>2026-04-25T11:05:00.494Z</time></trkpt><trkpt lat="44.0850863" lon="11.956136"><ele>338.0</ele><time>2026-04-25T11:05:01.48Z</time></trkpt><trkpt lat="44.0850021" lon="11.9561017"><ele>337.75</ele><time>2026-04-25T11:05:02.488Z</time></trkpt><trkpt lat="44.0848937" lon="11.9560479"><ele>337.5</ele><time>2026-04-25T11:05:03.479Z</time></trkpt><trkpt lat="44.0847732" lon="11.9560034"><ele>337.25</ele><time>2026-04-25T11:05:04.5Z</time></trkpt><trkpt lat="44.0846326" lon="11.9559603"><ele>337.0</ele><time>2026-04-25T11:05:05.493Z</time></trkpt><trkpt lat="44.0845104" lon="11.955924"><ele>337.0</ele><time>2026-04-25T11:05:06.502Z</time></trkpt><trkpt lat="44.0844071" lon="11.9559021"><ele>337.0</ele><time>2026-04-25T11:05:07.489Z</time></trkpt><trkpt lat="44.0843112" lon="11.9558789"><ele>337.0</ele><time>2026-04-25T11:05:08.502Z</time></trkpt><trkpt lat="44.0842221" lon="11.9558503"><ele>337.0</ele><time>2026-04-25T11:05:09.479Z</time></trkpt><trkpt lat="44.084145" lon="11.9558244"><ele>337.0</ele><time>2026-04-25T11:05:10.499Z</time></trkpt><trkpt lat="44.0840828" lon="11.9557291"><ele>341.20000000000005</ele><time>2026-04-25T11:05:12.493Z</time></trkpt><trkpt lat="44.0841356" lon="11.9556012"><ele>345.4</ele><time>2026-04-25T11:05:14.483Z</time></trkpt><trkpt lat="44.0842056" lon="11.9555682"><ele>349.6</ele><time>2026-04-25T11:05:15.508Z</time></trkpt><trkpt lat="44.0842817" lon="11.9555355"><ele>353.79999999999995</ele><time>2026-04-25T11:05:16.487Z</time></trkpt><trkpt lat="44.0843679" lon="11.9555037"><ele>358.0</ele><time>2026-04-25T11:05:17.483Z</time></trkpt><trkpt lat="44.0844764" lon="11.9554555"><ele>358.0</ele><time>2026-04-25T11:05:18.488Z</time></trkpt><trkpt lat="44.0845829" lon="11.9554019"><ele>358.0</ele><time>2026-04-25T11:05:19.482Z</time></trkpt><trkpt lat="44.0846627" lon="11.9553586"><ele>358.0</ele><time>2026-04-25T11:05:20.486Z</time></trkpt><trkpt lat="44.0847465" lon="11.955253"><ele>358.0</ele><time>2026-04-25T11:05:22.486Z</time></trkpt><trkpt lat="44.0847065" lon="11.9551277"><ele>358.0</ele><time>2026-04-25T11:05:24.477Z</time></trkpt><trkpt lat="44.0846359" lon="11.9550833"><ele>362.25</ele><time>2026-04-25T11:05:25.474Z</time></trkpt><trkpt lat="44.0845481" lon="11.955036"><ele>366.5</ele><time>2026-04-25T11:05:26.495Z</time></trkpt><trkpt lat="44.0844476" lon="11.9549668"><ele>370.75</ele><time>2026-04-25T11:05:27.484Z</time></trkpt><trkpt lat="44.0843259" lon="11.9548746"><ele>375.0</ele><time>2026-04-25T11:05:28.476Z</time></trkpt><trkpt lat="44.0841877" lon="11.9547757"><ele>375.75</ele><time>2026-04-25T11:05:29.482Z</time></trkpt><trkpt lat="44.0840511" lon="11.9546855"><ele>376.5</ele><time>2026-04-25T11:05:30.489Z</time></trkpt><trkpt lat="44.0839306" lon="11.9546155"><ele>377.25</ele><time>2026-04-25T11:05:31.488Z</time></trkpt><trkpt lat="44.0838178" lon="11.9545445"><ele>378.0</ele><time>2026-04-25T11:05:32.471Z</time></trkpt><trkpt lat="44.0837163" lon="11.9544499"><ele>378.0</ele><time>2026-04-25T11:05:33.485Z</time></trkpt><trkpt lat="44.0836257" lon="11.9543376"><ele>378.0</ele><time>2026-04-25T11:05:34.483Z</time></trkpt><trkpt lat="44.083546" lon="11.9542389"><ele>378.0</ele><time>2026-04-25T11:05:35.492Z</time></trkpt><trkpt lat="44.0834732" lon="11.9541701"><ele>378.0</ele><time>2026-04-25T11:05:36.488Z</time></trkpt><trkpt lat="44.0833982" lon="11.9541309"><ele>378.0</ele><time>2026-04-25T11:05:37.475Z</time></trkpt><trkpt lat="44.0833192" lon="11.9541276"><ele>383.0</ele><time>2026-04-25T11:05:38.484Z</time></trkpt><trkpt lat="44.0832296" lon="11.9541659"><ele>388.0</ele><time>2026-04-25T11:05:39.478Z</time></trkpt><trkpt lat="44.083141" lon="11.9542352"><ele>393.0</ele><time>2026-04-25T11:05:40.483Z</time></trkpt><trkpt lat="44.0830418" lon="11.9543378"><ele>398.0</ele><time>2026-04-25T11:05:41.478Z</time></trkpt><trkpt lat="44.0829306" lon="11.9544697"><ele>398.0</ele><time>2026-04-25T11:05:42.477Z</time></trkpt><trkpt lat="44.0828154" lon="11.9546223"><ele>398.0</ele><time>2026-04-25T11:05:43.472Z</time></trkpt><trkpt lat="44.0827079" lon="11.9547557"><ele>398.0</ele><time>2026-04-25T11:05:44.483Z</time></trkpt><trkpt lat="44.0825945" lon="11.9548758"><ele>398.0</ele><time>2026-04-25T11:05:45.483Z</time></trkpt><trkpt lat="44.0824937" lon="11.9549739"><ele>396.66666666666663</ele><time>2026-04-25T11:05:46.476Z</time></trkpt><trkpt lat="44.0824089" lon="11.9550554"><ele>395.3333333333333</ele><time>2026-04-25T11:05:47.481Z</time></trkpt><trkpt lat="44.0823304" lon="11.9551214"><ele>394.0</ele><time>2026-04-25T11:05:48.486Z</time></trkpt><trkpt lat="44.082265" lon="11.9551634"><ele>392.66666666666663</ele><time>2026-04-25T11:05:49.493Z</time></trkpt><trkpt lat="44.0821513" lon="11.9551776"><ele>391.3333333333333</ele><time>2026-04-25T11:05:51.476Z</time></trkpt><trkpt lat="44.0821061" lon="11.9552475"><ele>390.0</ele><time>2026-04-25T11:07:05.504Z</time></trkpt><trkpt lat="44.0821894" lon="11.9551878"><ele>390.0</ele><time>2026-04-25T11:07:22.484Z</time></trkpt><trkpt lat="44.0822981" lon="11.955164"><ele>390.0</ele><time>2026-04-25T11:07:24.479Z</time></trkpt><trkpt lat="44.0823644" lon="11.9551061"><ele>390.0</ele><time>2026-04-25T11:07:25.493Z</time></trkpt><trkpt lat="44.0824294" lon="11.9550455"><ele>390.0</ele><time>2026-04-25T11:07:26.479Z</time></trkpt><trkpt lat="44.0824869" lon="11.9549901"><ele>390.0</ele><time>2026-04-25T11:07:27.474Z</time></trkpt><trkpt lat="44.0825463" lon="11.9549346"><ele>390.0</ele><time>2026-04-25T11:07:28.478Z</time></trkpt><trkpt lat="44.0826051" lon="11.9548785"><ele>391.3333333333333</ele><time>2026-04-25T11:07:29.475Z</time></trkpt><trkpt lat="44.0826669" lon="11.9548026"><ele>392.66666666666663</ele><time>2026-04-25T11:07:30.47Z</time></trkpt><trkpt lat="44.082734" lon="11.9547233"><ele>394.0</ele><time>2026-04-25T11:07:31.483Z</time></trkpt><trkpt lat="44.0828009" lon="11.9546356"><ele>395.3333333333333</ele><time>2026-04-25T11:07:32.476Z</time></trkpt><trkpt lat="44.0828679" lon="11.9545511"><ele>396.66666666666663</ele><time>2026-04-25T11:07:33.496Z</time></trkpt><trkpt lat="44.0829364" lon="11.954469"><ele>398.0</ele><time>2026-04-25T11:07:34.479Z</time></trkpt><trkpt lat="44.0830032" lon="11.9543845"><ele>397.99999999999994</ele><time>2026-04-25T11:07:35.481Z</time></trkpt><trkpt lat="44.0830711" lon="11.9543086"><ele>398.0</ele><time>2026-04-25T11:07:36.47Z</time></trkpt><trkpt lat="44.0831367" lon="11.9542503"><ele>398.0</ele><time>2026-04-25T11:07:37.476Z</time></trkpt><trkpt lat="44.0832083" lon="11.9542086"><ele>398.0</ele><time>2026-04-25T11:07:38.477Z</time></trkpt><trkpt lat="44.0832734" lon="11.9541683"><ele>397.99999999999994</ele><time>2026-04-25T11:07:39.473Z</time></trkpt><trkpt lat="44.0833391" lon="11.9541444"><ele>398.0</ele><time>2026-04-25T11:07:40.471Z</time></trkpt><trkpt lat="44.0834617" lon="11.9541752"><ele>394.66666666666663</ele><time>2026-04-25T11:07:42.481Z</time></trkpt><trkpt lat="44.0835293" lon="11.9542326"><ele>391.3333333333333</ele><time>2026-04-25T11:07:43.481Z</time></trkpt><trkpt lat="44.0835901" lon="11.9542974"><ele>388.0</ele><time>2026-04-25T11:07:44.48Z</time></trkpt><trkpt lat="44.0836499" lon="11.9543729"><ele>384.66666666666663</ele><time>2026-04-25T11:07:45.494Z</time></trkpt><trkpt lat="44.0837098" lon="11.9544442"><ele>381.3333333333333</ele><time>2026-04-25T11:07:46.483Z</time></trkpt><trkpt lat="44.0837723" lon="11.9545041"><ele>378.0</ele><time>2026-04-25T11:07:47.477Z</time></trkpt><trkpt lat="44.0838325" lon="11.9545468"><ele>378.0</ele><time>2026-04-25T11:07:48.478Z</time></trkpt><trkpt lat="44.08389" lon="11.9545834"><ele>378.0</ele><time>2026-04-25T11:07:49.49Z</time></trkpt><trkpt lat="44.0839568" lon="11.9546264"><ele>378.0</ele><time>2026-04-25T11:07:50.488Z</time></trkpt><trkpt lat="44.0840353" lon="11.9546729"><ele>378.0</ele><time>2026-04-25T11:07:51.476Z</time></trkpt><trkpt lat="44.0841238" lon="11.9547294"><ele>378.0</ele><time>2026-04-25T11:07:52.483Z</time></trkpt><trkpt lat="44.0842216" lon="11.9547912"><ele>378.0</ele><time>2026-04-25T11:07:53.483Z</time></trkpt><trkpt lat="44.0843181" lon="11.9548604"><ele>377.4</ele><time>2026-04-25T11:07:54.483Z</time></trkpt><trkpt lat="44.084412" lon="11.954923"><ele>376.79999999999995</ele><time>2026-04-25T11:07:55.487Z</time></trkpt><trkpt lat="44.0844984" lon="11.9549874"><ele>376.2</ele><time>2026-04-25T11:07:56.49Z</time></trkpt><trkpt lat="44.0845759" lon="11.9550408"><ele>375.6</ele><time>2026-04-25T11:07:57.477Z</time></trkpt><trkpt lat="44.0846466" lon="11.9550846"><ele>375.0</ele><time>2026-04-25T11:07:58.487Z</time></trkpt><trkpt lat="44.0847378" lon="11.9551741"><ele>371.6</ele><time>2026-04-25T11:08:00.49Z</time></trkpt><trkpt lat="44.0847222" lon="11.9553186"><ele>368.2</ele><time>2026-04-25T11:08:02.479Z</time></trkpt><trkpt lat="44.0846037" lon="11.9553957"><ele>364.79999999999995</ele><time>2026-04-25T11:08:04.494Z</time></trkpt><trkpt lat="44.0845235" lon="11.955412"><ele>361.4</ele><time>2026-04-25T11:08:05.49Z</time></trkpt><trkpt lat="44.0844538" lon="11.9554526"><ele>358.0</ele><time>2026-04-25T11:08:06.474Z</time></trkpt><trkpt lat="44.0843839" lon="11.9554991"><ele>358.0</ele><time>2026-04-25T11:08:07.48Z</time></trkpt><trkpt lat="44.0843125" lon="11.9555356"><ele>358.0</ele><time>2026-04-25T11:08:08.481Z</time></trkpt><trkpt lat="44.0842489" lon="11.9555611"><ele>358.0</ele><time>2026-04-25T11:08:09.478Z</time></trkpt><trkpt lat="44.0841442" lon="11.9555994"><ele>358.0</ele><time>2026-04-25T11:08:11.478Z</time></trkpt><trkpt lat="44.0840753" lon="11.9556755"><ele>358.0</ele><time>2026-04-25T11:08:13.485Z</time></trkpt><trkpt lat="44.0840981" lon="11.9557946"><ele>358.0</ele><time>2026-04-25T11:08:15.492Z</time></trkpt><trkpt lat="44.0842013" lon="11.955853"><ele>353.79999999999995</ele><time>2026-04-25T11:08:17.481Z</time></trkpt><trkpt lat="44.0842733" lon="11.9558756"><ele>349.6</ele><time>2026-04-25T11:08:18.466Z</time></trkpt><trkpt lat="44.0843579" lon="11.9559035"><ele>345.4</ele><time>2026-04-25T11:08:19.487Z</time></trkpt><trkpt lat="44.0844538" lon="11.9559309"><ele>341.20000000000005</ele><time>2026-04-25T11:08:20.477Z</time></trkpt><trkpt lat="44.0845513" lon="11.9559577"><ele>337.0</ele><time>2026-04-25T11:08:21.48Z</time></trkpt><trkpt lat="44.0846463" lon="11.9559799"><ele>337.0</ele><time>2026-04-25T11:08:22.486Z</time></trkpt><trkpt lat="44.084744" lon="11.9560011"><ele>337.0</ele><time>2026-04-25T11:08:23.491Z</time></trkpt><trkpt lat="44.084832" lon="11.9560227"><ele>337.0</ele><time>2026-04-25T11:08:24.485Z</time></trkpt><trkpt lat="44.0849145" lon="11.9560487"><ele>337.0</ele><time>2026-04-25T11:08:25.492Z</time></trkpt><trkpt lat="44.0849941" lon="11.9560852"><ele>337.0</ele><time>2026-04-25T11:08:26.476Z</time></trkpt><trkpt lat="44.085072" lon="11.9561188"><ele>337.0</ele><time>2026-04-25T11:08:27.479Z</time></trkpt><trkpt lat="44.0851419" lon="11.9561302"><ele>337.16666666666663</ele><time>2026-04-25T11:08:28.479Z</time></trkpt><trkpt lat="44.0852608" lon="11.9560891"><ele>337.3333333333333</ele><time>2026-04-25T11:08:30.481Z</time></trkpt><trkpt lat="44.085329" lon="11.9560163"><ele>337.5</ele><time>2026-04-25T11:08:31.479Z</time></trkpt><trkpt lat="44.0853924" lon="11.9559464"><ele>337.6666666666667</ele><time>2026-04-25T11:08:32.477Z</time></trkpt><trkpt lat="44.0854576" lon="11.9558791"><ele>337.83333333333337</ele><time>2026-04-25T11:08:33.481Z</time></trkpt><trkpt lat="44.0855245" lon="11.9558268"><ele>338.0</ele><time>2026-04-25T11:08:34.481Z</time></trkpt><trkpt lat="44.0855992" lon="11.9558006"><ele>337.4</ele><time>2026-04-25T11:08:35.495Z</time></trkpt><trkpt lat="44.0856886" lon="11.9558013"><ele>336.79999999999995</ele><time>2026-04-25T11:08:36.475Z</time></trkpt><trkpt lat="44.0857725" lon="11.9558304"><ele>336.2</ele><time>2026-04-25T11:08:37.48Z</time></trkpt><trkpt lat="44.0858579" lon="11.9558835"><ele>335.6</ele><time>2026-04-25T11:08:38.481Z</time></trkpt><trkpt lat="44.0859419" lon="11.9559477"><ele>335.0</ele><time>2026-04-25T11:08:39.48Z</time></trkpt><trkpt lat="44.086027" lon="11.9560138"><ele>335.0</ele><time>2026-04-25T11:08:40.47Z</time></trkpt><trkpt lat="44.08611" lon="11.9560767"><ele>335.0</ele><time>2026-04-25T11:08:41.48Z</time></trkpt><trkpt lat="44.0861953" lon="11.9561336"><ele>335.0</ele><time>2026-04-25T11:08:42.48Z</time></trkpt><trkpt lat="44.0862779" lon="11.9561964"><ele>335.0</ele><time>2026-04-25T11:08:43.479Z</time></trkpt><trkpt lat="44.0863506" lon="11.9562653"><ele>335.0</ele><time>2026-04-25T11:08:44.475Z</time></trkpt><trkpt lat="44.086408" lon="11.9563498"><ele>335.0</ele><time>2026-04-25T11:08:45.489Z</time></trkpt><trkpt lat="44.0864506" lon="11.9564461"><ele>335.0</ele><time>2026-04-25T11:08:46.48Z</time></trkpt><trkpt lat="44.0864771" lon="11.9565533"><ele>335.0</ele><time>2026-04-25T11:08:47.472Z</time></trkpt><trkpt lat="44.0864839" lon="11.9566714"><ele>335.0</ele><time>2026-04-25T11:08:48.48Z</time></trkpt><trkpt lat="44.0864762" lon="11.9568078"><ele>335.0</ele><time>2026-04-25T11:08:49.476Z</time></trkpt><trkpt lat="44.0864695" lon="11.9569341"><ele>335.0</ele><time>2026-04-25T11:08:50.482Z</time></trkpt><trkpt lat="44.0864654" lon="11.957058"><ele>333.1666666666667</ele><time>2026-04-25T11:08:51.493Z</time></trkpt><trkpt lat="44.0864637" lon="11.9571777"><ele>331.33333333333337</ele><time>2026-04-25T11:08:52.492Z</time></trkpt><trkpt lat="44.0864698" lon="11.9572838"><ele>329.5</ele><time>2026-04-25T11:08:53.48Z</time></trkpt><trkpt lat="44.0864829" lon="11.9573838"><ele>327.6666666666667</ele><time>2026-04-25T11:08:54.481Z</time></trkpt><trkpt lat="44.0865092" lon="11.9574791"><ele>325.8333333333333</ele><time>2026-04-25T11:08:55.49Z</time></trkpt><trkpt lat="44.0865583" lon="11.9575636"><ele>324.0</ele><time>2026-04-25T11:08:56.485Z</time></trkpt><trkpt lat="44.0866272" lon="11.9576293"><ele>324.0</ele><time>2026-04-25T11:08:57.478Z</time></trkpt><trkpt lat="44.0867226" lon="11.9576951"><ele>324.0</ele><time>2026-04-25T11:08:58.485Z</time></trkpt><trkpt lat="44.0868274" lon="11.9577558"><ele>324.0</ele><time>2026-04-25T11:08:59.477Z</time></trkpt><trkpt lat="44.086943" lon="11.9578322"><ele>324.0</ele><time>2026-04-25T11:09:00.492Z</time></trkpt><trkpt lat="44.0870482" lon="11.9579044"><ele>324.0</ele><time>2026-04-25T11:09:01.482Z</time></trkpt><trkpt lat="44.0871392" lon="11.9579705"><ele>324.0</ele><time>2026-04-25T11:09:02.487Z</time></trkpt><trkpt lat="44.0872237" lon="11.9580326"><ele>324.0</ele><time>2026-04-25T11:09:03.481Z</time></trkpt><trkpt lat="44.0873133" lon="11.9580905"><ele>324.0</ele><time>2026-04-25T11:09:04.483Z</time></trkpt><trkpt lat="44.0874182" lon="11.9581166"><ele>324.0</ele><time>2026-04-25T11:09:05.481Z</time></trkpt><trkpt lat="44.0875232" lon="11.9581326"><ele>325.2</ele><time>2026-04-25T11:09:06.487Z</time></trkpt><trkpt lat="44.0876256" lon="11.9581447"><ele>326.4</ele><time>2026-04-25T11:09:07.482Z</time></trkpt><trkpt lat="44.0877124" lon="11.9581835"><ele>327.6</ele><time>2026-04-25T11:09:08.485Z</time></trkpt><trkpt lat="44.0877994" lon="11.9582593"><ele>328.8</ele><time>2026-04-25T11:09:09.485Z</time></trkpt><trkpt lat="44.0878802" lon="11.9583578"><ele>330.0</ele><time>2026-04-25T11:09:10.484Z</time></trkpt><trkpt lat="44.0879647" lon="11.9584722"><ele>328.0</ele><time>2026-04-25T11:09:11.484Z</time></trkpt><trkpt lat="44.0880488" lon="11.958592"><ele>326.0</ele><time>2026-04-25T11:09:12.483Z</time></trkpt><trkpt lat="44.0881275" lon="11.9587063"><ele>324.0</ele><time>2026-04-25T11:09:13.496Z</time></trkpt><trkpt lat="44.088204" lon="11.9588137"><ele>322.0</ele><time>2026-04-25T11:09:14.485Z</time></trkpt><trkpt lat="44.0882807" lon="11.9589143"><ele>320.0</ele><time>2026-04-25T11:09:15.495Z</time></trkpt><trkpt lat="44.0883571" lon="11.9590031"><ele>320.0</ele><time>2026-04-25T11:09:16.483Z</time></trkpt><trkpt lat="44.0884229" lon="11.9590861"><ele>320.0</ele><time>2026-04-25T11:09:17.48Z</time></trkpt><trkpt lat="44.0884659" lon="11.959181"><ele>320.0</ele><time>2026-04-25T11:09:18.477Z</time></trkpt><trkpt lat="44.0884908" lon="11.9593033"><ele>320.0</ele><time>2026-04-25T11:09:19.487Z</time></trkpt><trkpt lat="44.088512" lon="11.9594284"><ele>320.0</ele><time>2026-04-25T11:09:20.498Z</time></trkpt><trkpt lat="44.0885357" lon="11.9595474"><ele>320.0</ele><time>2026-04-25T11:09:21.493Z</time></trkpt><trkpt lat="44.0885717" lon="11.9596616"><ele>318.33333333333337</ele><time>2026-04-25T11:09:22.487Z</time></trkpt><trkpt lat="44.0886142" lon="11.9597675"><ele>316.6666666666667</ele><time>2026-04-25T11:09:23.484Z</time></trkpt><trkpt lat="44.0886487" lon="11.9598809"><ele>315.0</ele><time>2026-04-25T11:09:24.507Z</time></trkpt><trkpt lat="44.088668" lon="11.9599979"><ele>313.3333333333333</ele><time>2026-04-25T11:09:25.49Z</time></trkpt><trkpt lat="44.0886718" lon="11.9601217"><ele>311.66666666666663</ele><time>2026-04-25T11:09:26.5Z</time></trkpt><trkpt lat="44.0886673" lon="11.9602409"><ele>310.0</ele><time>2026-04-25T11:09:27.491Z</time></trkpt><trkpt lat="44.0886554" lon="11.9603564"><ele>308.16666666666663</ele><time>2026-04-25T11:09:28.505Z</time></trkpt><trkpt lat="44.0886409" lon="11.960466"><ele>306.3333333333333</ele><time>2026-04-25T11:09:29.505Z</time></trkpt><trkpt lat="44.0886282" lon="11.9605696"><ele>304.5</ele><time>2026-04-25T11:09:30.504Z</time></trkpt><trkpt lat="44.0886285" lon="11.9606744"><ele>302.6666666666667</ele><time>2026-04-25T11:09:31.495Z</time></trkpt><trkpt lat="44.0886501" lon="11.960773"><ele>300.83333333333337</ele><time>2026-04-25T11:09:32.49Z</time></trkpt><trkpt lat="44.0886808" lon="11.9608695"><ele>299.0</ele><time>2026-04-25T11:09:33.506Z</time></trkpt><trkpt lat="44.0887158" lon="11.9609631"><ele>297.42857142857144</ele><time>2026-04-25T11:09:34.493Z</time></trkpt><trkpt lat="44.0887445" lon="11.9610599"><ele>295.8571428571429</ele><time>2026-04-25T11:09:35.498Z</time></trkpt><trkpt lat="44.0887596" lon="11.9611621"><ele>294.28571428571433</ele><time>2026-04-25T11:09:36.493Z</time></trkpt><trkpt lat="44.0887579" lon="11.961265"><ele>292.7142857142857</ele><time>2026-04-25T11:09:37.513Z</time></trkpt><trkpt lat="44.0887445" lon="11.9613637"><ele>291.14285714285717</ele><time>2026-04-25T11:09:38.503Z</time></trkpt><trkpt lat="44.0887248" lon="11.9614607"><ele>289.5714285714286</ele><time>2026-04-25T11:09:39.487Z</time></trkpt><trkpt lat="44.0886997" lon="11.9615551"><ele>288.0</ele><time>2026-04-25T11:09:40.487Z</time></trkpt><trkpt lat="44.0886788" lon="11.9616501"><ele>287.0</ele><time>2026-04-25T11:09:41.488Z</time></trkpt><trkpt lat="44.0886564" lon="11.9617391"><ele>286.0</ele><time>2026-04-25T11:09:42.481Z</time></trkpt><trkpt lat="44.0886436" lon="11.961828"><ele>285.0</ele><time>2026-04-25T11:09:43.485Z</time></trkpt><trkpt lat="44.0886659" lon="11.9619968"><ele>284.0</ele><time>2026-04-25T11:09:45.514Z</time></trkpt><trkpt lat="44.0887147" lon="11.9620607"><ele>283.0</ele><time>2026-04-25T11:09:46.478Z</time></trkpt><trkpt lat="44.0887743" lon="11.9621012"><ele>282.0</ele><time>2026-04-25T11:09:47.482Z</time></trkpt><trkpt lat="44.0888364" lon="11.9621265"><ele>282.0</ele><time>2026-04-25T11:09:48.485Z</time></trkpt><trkpt lat="44.0889009" lon="11.9621652"><ele>282.0</ele><time>2026-04-25T11:09:49.482Z</time></trkpt><trkpt lat="44.0889411" lon="11.9623215"><ele>282.0</ele><time>2026-04-25T11:09:51.484Z</time></trkpt><trkpt lat="44.0888545" lon="11.9624378"><ele>282.0</ele><time>2026-04-25T11:09:53.483Z</time></trkpt><trkpt lat="44.0887854" lon="11.9624615"><ele>282.0</ele><time>2026-04-25T11:09:54.49Z</time></trkpt><trkpt lat="44.0887122" lon="11.9624806"><ele>282.0</ele><time>2026-04-25T11:09:55.491Z</time></trkpt><trkpt lat="44.0886324" lon="11.9625061"><ele>282.0</ele><time>2026-04-25T11:09:56.482Z</time></trkpt><trkpt lat="44.0885539" lon="11.9625323"><ele>282.0</ele><time>2026-04-25T11:09:57.487Z</time></trkpt><trkpt lat="44.0884818" lon="11.9625775"><ele>282.0</ele><time>2026-04-25T11:09:58.486Z</time></trkpt><trkpt lat="44.0884214" lon="11.9626519"><ele>282.0</ele><time>2026-04-25T11:09:59.48Z</time></trkpt><trkpt lat="44.0883687" lon="11.9627587"><ele>282.0</ele><time>2026-04-25T11:10:00.477Z</time></trkpt><trkpt lat="44.088316" lon="11.9628896"><ele>281.6</ele><time>2026-04-25T11:10:01.482Z</time></trkpt><trkpt lat="44.0882691" lon="11.9630161"><ele>281.2</ele><time>2026-04-25T11:10:02.48Z</time></trkpt><trkpt lat="44.0882124" lon="11.9631383"><ele>280.8</ele><time>2026-04-25T11:10:03.482Z</time></trkpt><trkpt lat="44.0881443" lon="11.9632443"><ele>280.4</ele><time>2026-04-25T11:10:04.501Z</time></trkpt><trkpt lat="44.0880711" lon="11.9633398"><ele>280.0</ele><time>2026-04-25T11:10:05.484Z</time></trkpt><trkpt lat="44.0879887" lon="11.9634362"><ele>277.6</ele><time>2026-04-25T11:10:06.483Z</time></trkpt><trkpt lat="44.0879002" lon="11.9635207"><ele>275.2</ele><time>2026-04-25T11:10:07.483Z</time></trkpt><trkpt lat="44.0878191" lon="11.9635949"><ele>272.8</ele><time>2026-04-25T11:10:08.491Z</time></trkpt><trkpt lat="44.087745" lon="11.9636734"><ele>270.4</ele><time>2026-04-25T11:10:09.479Z</time></trkpt><trkpt lat="44.087682" lon="11.9637646"><ele>268.0</ele><time>2026-04-25T11:10:10.487Z</time></trkpt><trkpt lat="44.0876355" lon="11.9638625"><ele>268.0</ele><time>2026-04-25T11:10:11.48Z</time></trkpt><trkpt lat="44.0876108" lon="11.9639734"><ele>268.0</ele><time>2026-04-25T11:10:12.49Z</time></trkpt><trkpt lat="44.0875956" lon="11.964092"><ele>268.0</ele><time>2026-04-25T11:10:13.486Z</time></trkpt><trkpt lat="44.0875889" lon="11.9642242"><ele>268.0</ele><time>2026-04-25T11:10:14.486Z</time></trkpt><trkpt lat="44.0876043" lon="11.9643538"><ele>268.0</ele><time>2026-04-25T11:10:15.508Z</time></trkpt><trkpt lat="44.0876332" lon="11.9645022"><ele>266.25</ele><time>2026-04-25T11:10:16.482Z</time></trkpt><trkpt lat="44.0876708" lon="11.9646528"><ele>264.5</ele><time>2026-04-25T11:10:17.479Z</time></trkpt><trkpt lat="44.0877084" lon="11.9648038"><ele>262.75</ele><time>2026-04-25T11:10:18.486Z</time></trkpt><trkpt lat="44.0877467" lon="11.9649539"><ele>261.0</ele><time>2026-04-25T11:10:19.496Z</time></trkpt><trkpt lat="44.0877845" lon="11.9651047"><ele>258.0</ele><time>2026-04-25T11:10:20.491Z</time></trkpt><trkpt lat="44.0878263" lon="11.9652514"><ele>255.0</ele><time>2026-04-25T11:10:21.479Z</time></trkpt><trkpt lat="44.0878655" lon="11.9654039"><ele>252.0</ele><time>2026-04-25T11:10:22.483Z</time></trkpt><trkpt lat="44.0879095" lon="11.965562"><ele>249.0</ele><time>2026-04-25T11:10:23.479Z</time></trkpt><trkpt lat="44.0879546" lon="11.9657214"><ele>246.79999999999998</ele><time>2026-04-25T11:10:24.479Z</time></trkpt><trkpt lat="44.0879972" lon="11.9658792"><ele>244.59999999999997</ele><time>2026-04-25T11:10:25.504Z</time></trkpt><trkpt lat="44.0880333" lon="11.9660255"><ele>242.4</ele><time>2026-04-25T11:10:26.482Z</time></trkpt><trkpt lat="44.0880494" lon="11.9661688"><ele>240.2</ele><time>2026-04-25T11:10:27.482Z</time></trkpt><trkpt lat="44.0880439" lon="11.9663053"><ele>238.0</ele><time>2026-04-25T11:10:28.48Z</time></trkpt><trkpt lat="44.0880203" lon="11.9664414"><ele>238.0</ele><time>2026-04-25T11:10:29.489Z</time></trkpt><trkpt lat="44.0879751" lon="11.966574"><ele>238.0</ele><time>2026-04-25T11:10:30.495Z</time></trkpt><trkpt lat="44.0879253" lon="11.9666975"><ele>238.0</ele><time>2026-04-25T11:10:31.475Z</time></trkpt><trkpt lat="44.0878781" lon="11.9668214"><ele>238.0</ele><time>2026-04-25T11:10:32.486Z</time></trkpt><trkpt lat="44.087836" lon="11.9669531"><ele>238.0</ele><time>2026-04-25T11:10:33.483Z</time></trkpt><trkpt lat="44.0878088" lon="11.9670878"><ele>237.2</ele><time>2026-04-25T11:10:34.496Z</time></trkpt><trkpt lat="44.0877868" lon="11.9672161"><ele>236.4</ele><time>2026-04-25T11:10:35.479Z</time></trkpt><trkpt lat="44.0877808" lon="11.9673599"><ele>235.59999999999997</ele><time>2026-04-25T11:10:36.481Z</time></trkpt><trkpt lat="44.0877839" lon="11.9675052"><ele>234.79999999999998</ele><time>2026-04-25T11:10:37.486Z</time></trkpt><trkpt lat="44.0877798" lon="11.9676498"><ele>234.0</ele><time>2026-04-25T11:10:38.484Z</time></trkpt><trkpt lat="44.0877536" lon="11.9677853"><ele>234.0</ele><time>2026-04-25T11:10:39.483Z</time></trkpt><trkpt lat="44.0877104" lon="11.9679188"><ele>233.99999999999997</ele><time>2026-04-25T11:10:40.486Z</time></trkpt><trkpt lat="44.0876794" lon="11.9680492"><ele>233.99999999999997</ele><time>2026-04-25T11:10:41.479Z</time></trkpt><trkpt lat="44.0876565" lon="11.9682001"><ele>234.0</ele><time>2026-04-25T11:10:42.487Z</time></trkpt><trkpt lat="44.0876354" lon="11.9683573"><ele>234.0</ele><time>2026-04-25T11:10:43.491Z</time></trkpt><trkpt lat="44.0876269" lon="11.9684957"><ele>233.6</ele><time>2026-04-25T11:10:44.484Z</time></trkpt><trkpt lat="44.0876283" lon="11.9686159"><ele>233.2</ele><time>2026-04-25T11:10:45.477Z</time></trkpt><trkpt lat="44.0876161" lon="11.9687394"><ele>232.79999999999998</ele><time>2026-04-25T11:10:46.48Z</time></trkpt><trkpt lat="44.0875926" lon="11.9688681"><ele>232.39999999999998</ele><time>2026-04-25T11:10:47.483Z</time></trkpt><trkpt lat="44.0875632" lon="11.9690067"><ele>232.0</ele><time>2026-04-25T11:10:48.482Z</time></trkpt><trkpt lat="44.0875266" lon="11.9691414"><ele>230.0</ele><time>2026-04-25T11:10:49.488Z</time></trkpt><trkpt lat="44.0874933" lon="11.9692727"><ele>228.0</ele><time>2026-04-25T11:10:50.484Z</time></trkpt><trkpt lat="44.0874592" lon="11.9693937"><ele>226.0</ele><time>2026-04-25T11:10:51.479Z</time></trkpt><trkpt lat="44.0874177" lon="11.9695053"><ele>224.0</ele><time>2026-04-25T11:10:52.477Z</time></trkpt><trkpt lat="44.0873656" lon="11.9696019"><ele>222.0</ele><time>2026-04-25T11:10:53.473Z</time></trkpt><trkpt lat="44.0873066" lon="11.9696802"><ele>222.0</ele><time>2026-04-25T11:10:54.483Z</time></trkpt><trkpt lat="44.0872442" lon="11.9697504"><ele>222.0</ele><time>2026-04-25T11:10:55.505Z</time></trkpt><trkpt lat="44.0871811" lon="11.9698434"><ele>222.0</ele><time>2026-04-25T11:10:56.481Z</time></trkpt><trkpt lat="44.0871229" lon="11.969956"><ele>222.0</ele><time>2026-04-25T11:10:57.488Z</time></trkpt><trkpt lat="44.0870636" lon="11.9700586"><ele>222.0</ele><time>2026-04-25T11:10:58.478Z</time></trkpt><trkpt lat="44.0869852" lon="11.9701334"><ele>220.5</ele><time>2026-04-25T11:10:59.476Z</time></trkpt><trkpt lat="44.0869182" lon="11.9701933"><ele>219.0</ele><time>2026-04-25T11:11:00.484Z</time></trkpt><trkpt lat="44.0868551" lon="11.9702331"><ele>217.5</ele><time>2026-04-25T11:11:01.472Z</time></trkpt><trkpt lat="44.0867879" lon="11.9703543"><ele>216.0</ele><time>2026-04-25T11:11:03.476Z</time></trkpt><trkpt lat="44.0867931" lon="11.970518"><ele>214.5</ele><time>2026-04-25T11:11:05.488Z</time></trkpt><trkpt lat="44.0868165" lon="11.9706102"><ele>213.0</ele><time>2026-04-25T11:11:06.479Z</time></trkpt><trkpt lat="44.0868316" lon="11.9707062"><ele>213.0</ele><time>2026-04-25T11:11:07.482Z</time></trkpt><trkpt lat="44.0868222" lon="11.9708464"><ele>213.0</ele><time>2026-04-25T11:11:09.489Z</time></trkpt><trkpt lat="44.0868068" lon="11.9709707"><ele>213.0</ele><time>2026-04-25T11:11:12.477Z</time></trkpt><trkpt lat="44.0868015" lon="11.9710813"><ele>213.0</ele><time>2026-04-25T11:11:14.473Z</time></trkpt><trkpt lat="44.0868036" lon="11.9711692"><ele>213.0</ele><time>2026-04-25T11:11:15.5Z</time></trkpt><trkpt lat="44.0868155" lon="11.9712642"><ele>213.0</ele><time>2026-04-25T11:11:16.485Z</time></trkpt><trkpt lat="44.0868222" lon="11.9713583"><ele>212.5</ele><time>2026-04-25T11:11:17.494Z</time></trkpt><trkpt lat="44.0868353" lon="11.971448"><ele>212.0</ele><time>2026-04-25T11:11:18.483Z</time></trkpt><trkpt lat="44.0868442" lon="11.9715481"><ele>211.5</ele><time>2026-04-25T11:11:19.481Z</time></trkpt><trkpt lat="44.0868531" lon="11.971655"><ele>211.0</ele><time>2026-04-25T11:11:20.481Z</time></trkpt><trkpt lat="44.0868648" lon="11.9717725"><ele>210.5</ele><time>2026-04-25T11:11:21.479Z</time></trkpt><trkpt lat="44.0868737" lon="11.9718878"><ele>210.0</ele><time>2026-04-25T11:11:22.482Z</time></trkpt><trkpt lat="44.0868823" lon="11.9719994"><ele>209.33333333333334</ele><time>2026-04-25T11:11:23.478Z</time></trkpt><trkpt lat="44.0868935" lon="11.9721053"><ele>208.66666666666669</ele><time>2026-04-25T11:11:24.474Z</time></trkpt><trkpt lat="44.0869041" lon="11.9722124"><ele>208.0</ele><time>2026-04-25T11:11:25.493Z</time></trkpt><trkpt lat="44.0869075" lon="11.9723183"><ele>207.33333333333334</ele><time>2026-04-25T11:11:26.484Z</time></trkpt><trkpt lat="44.0869089" lon="11.9724262"><ele>206.66666666666669</ele><time>2026-04-25T11:11:27.481Z</time></trkpt><trkpt lat="44.0869247" lon="11.9725357"><ele>206.0</ele><time>2026-04-25T11:11:28.477Z</time></trkpt><trkpt lat="44.0869649" lon="11.972645"><ele>204.33333333333334</ele><time>2026-04-25T11:11:29.483Z</time></trkpt><trkpt lat="44.0870223" lon="11.972742"><ele>202.66666666666669</ele><time>2026-04-25T11:11:30.481Z</time></trkpt><trkpt lat="44.087096" lon="11.9728292"><ele>201.0</ele><time>2026-04-25T11:11:31.48Z</time></trkpt><trkpt lat="44.0871695" lon="11.9729069"><ele>199.33333333333331</ele><time>2026-04-25T11:11:32.474Z</time></trkpt><trkpt lat="44.0872426" lon="11.9729775"><ele>197.66666666666666</ele><time>2026-04-25T11:11:33.477Z</time></trkpt><trkpt lat="44.087296" lon="11.9730523"><ele>196.0</ele><time>2026-04-25T11:11:34.478Z</time></trkpt><trkpt lat="44.0873336" lon="11.9731405"><ele>195.99999999999997</ele><time>2026-04-25T11:11:35.503Z</time></trkpt><trkpt lat="44.0873477" lon="11.973238"><ele>196.0</ele><time>2026-04-25T11:11:36.485Z</time></trkpt><trkpt lat="44.0873314" lon="11.9733533"><ele>196.0</ele><time>2026-04-25T11:11:37.484Z</time></trkpt><trkpt lat="44.0873037" lon="11.9734793"><ele>196.0</ele><time>2026-04-25T11:11:38.473Z</time></trkpt><trkpt lat="44.087264" lon="11.9736059"><ele>195.99999999999997</ele><time>2026-04-25T11:11:39.478Z</time></trkpt><trkpt lat="44.0872361" lon="11.97373"><ele>196.0</ele><time>2026-04-25T11:11:40.48Z</time></trkpt><trkpt lat="44.0872277" lon="11.9738562"><ele>195.20000000000002</ele><time>2026-04-25T11:11:41.487Z</time></trkpt><trkpt lat="44.0872355" lon="11.9739869"><ele>194.4</ele><time>2026-04-25T11:11:42.473Z</time></trkpt><trkpt lat="44.0872581" lon="11.9741135"><ele>193.6</ele><time>2026-04-25T11:11:43.485Z</time></trkpt><trkpt lat="44.0872904" lon="11.9742329"><ele>192.8</ele><time>2026-04-25T11:11:44.483Z</time></trkpt><trkpt lat="44.0873255" lon="11.9743479"><ele>192.0</ele><time>2026-04-25T11:11:45.499Z</time></trkpt><trkpt lat="44.087353" lon="11.9744788"><ele>191.39999999999998</ele><time>2026-04-25T11:11:46.477Z</time></trkpt><trkpt lat="44.0873613" lon="11.9746126"><ele>190.79999999999998</ele><time>2026-04-25T11:11:47.48Z</time></trkpt><trkpt lat="44.0873552" lon="11.9747517"><ele>190.2</ele><time>2026-04-25T11:11:48.476Z</time></trkpt><trkpt lat="44.0873377" lon="11.9748888"><ele>189.6</ele><time>2026-04-25T11:11:49.475Z</time></trkpt><trkpt lat="44.0873237" lon="11.9750328"><ele>189.0</ele><time>2026-04-25T11:11:50.491Z</time></trkpt><trkpt lat="44.0873153" lon="11.9751717"><ele>186.83333333333334</ele><time>2026-04-25T11:11:51.477Z</time></trkpt><trkpt lat="44.087311" lon="11.9753145"><ele>184.66666666666666</ele><time>2026-04-25T11:11:52.489Z</time></trkpt><trkpt lat="44.0873026" lon="11.9754357"><ele>182.5</ele><time>2026-04-25T11:11:53.478Z</time></trkpt><trkpt lat="44.0872987" lon="11.9755536"><ele>180.33333333333331</ele><time>2026-04-25T11:11:54.479Z</time></trkpt><trkpt lat="44.0872918" lon="11.975673"><ele>178.16666666666666</ele><time>2026-04-25T11:11:55.486Z</time></trkpt><trkpt lat="44.0872725" lon="11.9757915"><ele>176.0</ele><time>2026-04-25T11:11:56.484Z</time></trkpt><trkpt lat="44.087253" lon="11.9758997"><ele>174.16666666666666</ele><time>2026-04-25T11:11:57.493Z</time></trkpt><trkpt lat="44.087229" lon="11.9759891"><ele>172.33333333333331</ele><time>2026-04-25T11:11:58.484Z</time></trkpt><trkpt lat="44.0871857" lon="11.9760554"><ele>170.5</ele><time>2026-04-25T11:11:59.481Z</time></trkpt><trkpt lat="44.0871268" lon="11.9761125"><ele>168.66666666666666</ele><time>2026-04-25T11:12:00.48Z</time></trkpt><trkpt lat="44.0870582" lon="11.9761471"><ele>166.83333333333334</ele><time>2026-04-25T11:12:01.484Z</time></trkpt><trkpt lat="44.0869929" lon="11.9761689"><ele>165.0</ele><time>2026-04-25T11:12:02.481Z</time></trkpt><trkpt lat="44.0868873" lon="11.9762002"><ele>165.00000000000003</ele><time>2026-04-25T11:12:04.487Z</time></trkpt><trkpt lat="44.0868709" lon="11.9763054"><ele>165.0</ele><time>2026-04-25T11:12:06.483Z</time></trkpt><trkpt lat="44.0869445" lon="11.9763858"><ele>165.0</ele><time>2026-04-25T11:12:08.487Z</time></trkpt><trkpt lat="44.0870023" lon="11.9764262"><ele>165.0</ele><time>2026-04-25T11:12:09.484Z</time></trkpt><trkpt lat="44.0870585" lon="11.9764683"><ele>165.0</ele><time>2026-04-25T11:12:10.476Z</time></trkpt><trkpt lat="44.0871174" lon="11.9765077"><ele>165.00000000000003</ele><time>2026-04-25T11:12:11.475Z</time></trkpt><trkpt lat="44.0871799" lon="11.9765433"><ele>165.0</ele><time>2026-04-25T11:12:12.479Z</time></trkpt><trkpt lat="44.0872363" lon="11.9765858"><ele>163.6</ele><time>2026-04-25T11:12:13.478Z</time></trkpt><trkpt lat="44.0873007" lon="11.9767456"><ele>162.2</ele><time>2026-04-25T11:12:15.477Z</time></trkpt><trkpt lat="44.087312" lon="11.9768413"><ele>160.8</ele><time>2026-04-25T11:12:16.481Z</time></trkpt><trkpt lat="44.0873051" lon="11.9769992"><ele>159.4</ele><time>2026-04-25T11:12:18.49Z</time></trkpt><trkpt lat="44.0872933" lon="11.9770873"><ele>158.0</ele><time>2026-04-25T11:12:19.477Z</time></trkpt><trkpt lat="44.0872512" lon="11.9772433"><ele>158.0</ele><time>2026-04-25T11:12:21.48Z</time></trkpt><trkpt lat="44.087211" lon="11.9773122"><ele>158.0</ele><time>2026-04-25T11:12:22.492Z</time></trkpt><trkpt lat="44.0871608" lon="11.9773765"><ele>158.0</ele><time>2026-04-25T11:12:23.485Z</time></trkpt><trkpt lat="44.0871041" lon="11.9774397"><ele>158.0</ele><time>2026-04-25T11:12:24.475Z</time></trkpt><trkpt lat="44.0870027" lon="11.9775394"><ele>158.0</ele><time>2026-04-25T11:12:26.483Z</time></trkpt><trkpt lat="44.0869237" lon="11.9776345"><ele>158.0</ele><time>2026-04-25T11:12:28.478Z</time></trkpt><trkpt lat="44.0869289" lon="11.977752"><ele>157.33333333333331</ele><time>2026-04-25T11:12:30.478Z</time></trkpt><trkpt lat="44.0869884" lon="11.9777924"><ele>156.66666666666666</ele><time>2026-04-25T11:12:31.482Z</time></trkpt><trkpt lat="44.0870833" lon="11.9778557"><ele>156.0</ele><time>2026-04-25T11:12:33.49Z</time></trkpt><trkpt lat="44.0870861" lon="11.9779767"><ele>155.33333333333334</ele><time>2026-04-25T11:12:35.487Z</time></trkpt><trkpt lat="44.0870545" lon="11.9780576"><ele>154.66666666666669</ele><time>2026-04-25T11:12:37.483Z</time></trkpt><trkpt lat="44.086952" lon="11.9780488"><ele>154.0</ele><time>2026-04-25T11:12:40.486Z</time></trkpt><trkpt lat="44.0868778" lon="11.9780143"><ele>154.0</ele><time>2026-04-25T11:12:41.474Z</time></trkpt><trkpt lat="44.0868006" lon="11.9779606"><ele>154.0</ele><time>2026-04-25T11:12:42.472Z</time></trkpt><trkpt lat="44.0867111" lon="11.9779109"><ele>154.0</ele><time>2026-04-25T11:12:43.472Z</time></trkpt><trkpt lat="44.0866319" lon="11.9778642"><ele>154.0</ele><time>2026-04-25T11:12:44.471Z</time></trkpt><trkpt lat="44.0865689" lon="11.9778256"><ele>154.0</ele><time>2026-04-25T11:12:45.482Z</time></trkpt><trkpt lat="44.0865062" lon="11.977777"><ele>154.0</ele><time>2026-04-25T11:12:46.474Z</time></trkpt><trkpt lat="44.0864372" lon="11.9777233"><ele>153.4</ele><time>2026-04-25T11:12:47.48Z</time></trkpt><trkpt lat="44.0863617" lon="11.9776629"><ele>152.8</ele><time>2026-04-25T11:12:48.475Z</time></trkpt><trkpt lat="44.0862872" lon="11.9775915"><ele>152.2</ele><time>2026-04-25T11:12:49.479Z</time></trkpt><trkpt lat="44.0862179" lon="11.9775154"><ele>151.6</ele><time>2026-04-25T11:12:50.478Z</time></trkpt><trkpt lat="44.0861581" lon="11.9774243"><ele>151.0</ele><time>2026-04-25T11:12:51.477Z</time></trkpt><trkpt lat="44.0860978" lon="11.9773141"><ele>151.0</ele><time>2026-04-25T11:12:52.482Z</time></trkpt><trkpt lat="44.0860439" lon="11.9771873"><ele>151.0</ele><time>2026-04-25T11:12:53.481Z</time></trkpt><trkpt lat="44.0859968" lon="11.9770399"><ele>151.0</ele><time>2026-04-25T11:12:54.495Z</time></trkpt><trkpt lat="44.0859602" lon="11.9768677"><ele>151.0</ele><time>2026-04-25T11:12:55.479Z</time></trkpt><trkpt lat="44.0859341" lon="11.9766908"><ele>151.25</ele><time>2026-04-25T11:12:56.48Z</time></trkpt><trkpt lat="44.0859044" lon="11.976513"><ele>151.5</ele><time>2026-04-25T11:12:57.47Z</time></trkpt><trkpt lat="44.0858728" lon="11.9763319"><ele>151.75</ele><time>2026-04-25T11:12:58.493Z</time></trkpt><trkpt lat="44.085837" lon="11.9761601"><ele>152.0</ele><time>2026-04-25T11:12:59.473Z</time></trkpt><trkpt lat="44.0857886" lon="11.9760058"><ele>152.0</ele><time>2026-04-25T11:13:00.476Z</time></trkpt><trkpt lat="44.0857178" lon="11.9758797"><ele>152.0</ele><time>2026-04-25T11:13:01.474Z</time></trkpt><trkpt lat="44.0856179" lon="11.9757697"><ele>152.0</ele><time>2026-04-25T11:13:02.476Z</time></trkpt><trkpt lat="44.0855022" lon="11.9756831"><ele>152.0</ele><time>2026-04-25T11:13:03.472Z</time></trkpt><trkpt lat="44.0853773" lon="11.9756124"><ele>152.0</ele><time>2026-04-25T11:13:04.477Z</time></trkpt><trkpt lat="44.0852413" lon="11.9755561"><ele>152.0</ele><time>2026-04-25T11:13:05.485Z</time></trkpt><trkpt lat="44.085096" lon="11.9755313"><ele>152.0</ele><time>2026-04-25T11:13:06.473Z</time></trkpt><trkpt lat="44.0849496" lon="11.9755452"><ele>152.0</ele><time>2026-04-25T11:13:07.479Z</time></trkpt><trkpt lat="44.084786" lon="11.9755962"><ele>152.33333333333331</ele><time>2026-04-25T11:13:08.479Z</time></trkpt><trkpt lat="44.0846125" lon="11.9756742"><ele>152.66666666666666</ele><time>2026-04-25T11:13:09.479Z</time></trkpt><trkpt lat="44.0844442" lon="11.9757299"><ele>153.0</ele><time>2026-04-25T11:13:10.482Z</time></trkpt><trkpt lat="44.0842922" lon="11.975778"><ele>153.0</ele><time>2026-04-25T11:13:11.475Z</time></trkpt><trkpt lat="44.0841576" lon="11.9758227"><ele>153.0</ele><time>2026-04-25T11:13:12.487Z</time></trkpt><trkpt lat="44.0840258" lon="11.9758654"><ele>153.0</ele><time>2026-04-25T11:13:13.49Z</time></trkpt><trkpt lat="44.0838781" lon="11.9758959"><ele>153.0</ele><time>2026-04-25T11:13:14.483Z</time></trkpt><trkpt lat="44.0837207" lon="11.9759235"><ele>153.0</ele><time>2026-04-25T11:13:15.5Z</time></trkpt><trkpt lat="44.0835644" lon="11.9759293"><ele>153.0</ele><time>2026-04-25T11:13:16.485Z</time></trkpt><trkpt lat="44.0833955" lon="11.975927"><ele>153.0</ele><time>2026-04-25T11:13:17.48Z</time></trkpt><trkpt lat="44.083217" lon="11.9759019"><ele>153.0</ele><time>2026-04-25T11:13:18.485Z</time></trkpt><trkpt lat="44.0830384" lon="11.9758706"><ele>153.0</ele><time>2026-04-25T11:13:19.477Z</time></trkpt><trkpt lat="44.08286" lon="11.9758138"><ele>153.0</ele><time>2026-04-25T11:13:20.475Z</time></trkpt><trkpt lat="44.0826878" lon="11.975758"><ele>154.0</ele><time>2026-04-25T11:13:21.478Z</time></trkpt><trkpt lat="44.0825076" lon="11.9756929"><ele>155.0</ele><time>2026-04-25T11:13:22.492Z</time></trkpt><trkpt lat="44.0823259" lon="11.9756242"><ele>156.0</ele><time>2026-04-25T11:13:23.489Z</time></trkpt><trkpt lat="44.0821488" lon="11.9755452"><ele>156.66666666666666</ele><time>2026-04-25T11:13:24.479Z</time></trkpt><trkpt lat="44.0819798" lon="11.975465"><ele>157.33333333333331</ele><time>2026-04-25T11:13:25.497Z</time></trkpt><trkpt lat="44.0818063" lon="11.9753924"><ele>158.0</ele><time>2026-04-25T11:13:26.469Z</time></trkpt><trkpt lat="44.0816339" lon="11.9753078"><ele>159.0</ele><time>2026-04-25T11:13:27.48Z</time></trkpt><trkpt lat="44.0814631" lon="11.9752232"><ele>160.0</ele><time>2026-04-25T11:13:28.482Z</time></trkpt><trkpt lat="44.0812891" lon="11.975148"><ele>161.0</ele><time>2026-04-25T11:13:29.48Z</time></trkpt><trkpt lat="44.0811085" lon="11.975066"><ele>161.33333333333331</ele><time>2026-04-25T11:13:30.485Z</time></trkpt><trkpt lat="44.0809275" lon="11.9749824"><ele>161.66666666666666</ele><time>2026-04-25T11:13:31.481Z</time></trkpt><trkpt lat="44.0807464" lon="11.9748961"><ele>162.0</ele><time>2026-04-25T11:13:32.487Z</time></trkpt><trkpt lat="44.0805638" lon="11.9748069"><ele>162.0</ele><time>2026-04-25T11:13:33.488Z</time></trkpt><trkpt lat="44.0803875" lon="11.9747176"><ele>162.0</ele><time>2026-04-25T11:13:34.478Z</time></trkpt><trkpt lat="44.0802097" lon="11.9746211"><ele>162.0</ele><time>2026-04-25T11:13:35.482Z</time></trkpt><trkpt lat="44.0800405" lon="11.9745214"><ele>161.33333333333334</ele><time>2026-04-25T11:13:36.491Z</time></trkpt><trkpt lat="44.0798747" lon="11.9744284"><ele>160.66666666666669</ele><time>2026-04-25T11:13:37.474Z</time></trkpt><trkpt lat="44.0797108" lon="11.9743295"><ele>160.0</ele><time>2026-04-25T11:13:38.479Z</time></trkpt><trkpt lat="44.0795525" lon="11.9742346"><ele>161.66666666666669</ele><time>2026-04-25T11:13:39.475Z</time></trkpt><trkpt lat="44.0794004" lon="11.9741396"><ele>163.33333333333334</ele><time>2026-04-25T11:13:40.482Z</time></trkpt><trkpt lat="44.0792433" lon="11.9740461"><ele>165.0</ele><time>2026-04-25T11:13:41.48Z</time></trkpt><trkpt lat="44.0790785" lon="11.9739555"><ele>165.0</ele><time>2026-04-25T11:13:42.477Z</time></trkpt><trkpt lat="44.0789114" lon="11.9738613"><ele>165.0</ele><time>2026-04-25T11:13:43.454Z</time></trkpt><trkpt lat="44.0787357" lon="11.9737658"><ele>165.0</ele><time>2026-04-25T11:13:44.485Z</time></trkpt><trkpt lat="44.078555" lon="11.9736666"><ele>165.0</ele><time>2026-04-25T11:13:45.494Z</time></trkpt><trkpt lat="44.0783783" lon="11.9735685"><ele>165.0</ele><time>2026-04-25T11:13:46.485Z</time></trkpt><trkpt lat="44.0782069" lon="11.9734737"><ele>165.0</ele><time>2026-04-25T11:13:47.469Z</time></trkpt><trkpt lat="44.078035" lon="11.9733883"><ele>166.33333333333334</ele><time>2026-04-25T11:13:48.484Z</time></trkpt><trkpt lat="44.0778622" lon="11.9733142"><ele>167.66666666666669</ele><time>2026-04-25T11:13:49.486Z</time></trkpt><trkpt lat="44.0776887" lon="11.9732479"><ele>169.0</ele><time>2026-04-25T11:13:50.481Z</time></trkpt><trkpt lat="44.077511" lon="11.973196"><ele>168.33333333333334</ele><time>2026-04-25T11:13:51.477Z</time></trkpt><trkpt lat="44.0773337" lon="11.9731785"><ele>167.66666666666666</ele><time>2026-04-25T11:13:52.472Z</time></trkpt><trkpt lat="44.0771477" lon="11.9731833"><ele>167.0</ele><time>2026-04-25T11:13:53.478Z</time></trkpt><trkpt lat="44.0769429" lon="11.9732058"><ele>167.0</ele><time>2026-04-25T11:13:54.479Z</time></trkpt><trkpt lat="44.0767347" lon="11.9732168"><ele>167.0</ele><time>2026-04-25T11:13:55.475Z</time></trkpt><trkpt lat="44.0765377" lon="11.9732221"><ele>167.0</ele><time>2026-04-25T11:13:56.479Z</time></trkpt><trkpt lat="44.0763473" lon="11.9732377"><ele>167.33333333333331</ele><time>2026-04-25T11:13:57.478Z</time></trkpt><trkpt lat="44.0761664" lon="11.9732469"><ele>167.66666666666666</ele><time>2026-04-25T11:13:58.474Z</time></trkpt><trkpt lat="44.075994" lon="11.9732599"><ele>168.0</ele><time>2026-04-25T11:13:59.48Z</time></trkpt><trkpt lat="44.0758296" lon="11.9732792"><ele>170.0</ele><time>2026-04-25T11:14:00.475Z</time></trkpt><trkpt lat="44.0756783" lon="11.9732984"><ele>172.0</ele><time>2026-04-25T11:14:01.476Z</time></trkpt><trkpt lat="44.075536" lon="11.9733162"><ele>174.0</ele><time>2026-04-25T11:14:02.482Z</time></trkpt><trkpt lat="44.0754087" lon="11.9733349"><ele>176.0</ele><time>2026-04-25T11:14:03.48Z</time></trkpt><trkpt lat="44.0752887" lon="11.9733377"><ele>176.0</ele><time>2026-04-25T11:14:04.48Z</time></trkpt><trkpt lat="44.0751564" lon="11.9733326"><ele>176.0</ele><time>2026-04-25T11:14:05.473Z</time></trkpt><trkpt lat="44.0750201" lon="11.9733171"><ele>176.0</ele><time>2026-04-25T11:14:06.476Z</time></trkpt><trkpt lat="44.0748935" lon="11.9732931"><ele>176.0</ele><time>2026-04-25T11:14:07.48Z</time></trkpt><trkpt lat="44.0747738" lon="11.9732625"><ele>175.75</ele><time>2026-04-25T11:14:08.474Z</time></trkpt><trkpt lat="44.0746303" lon="11.9732354"><ele>175.5</ele><time>2026-04-25T11:14:09.481Z</time></trkpt><trkpt lat="44.0744767" lon="11.9732168"><ele>175.25</ele><time>2026-04-25T11:14:10.482Z</time></trkpt><trkpt lat="44.074333" lon="11.9731847"><ele>175.0</ele><time>2026-04-25T11:14:11.478Z</time></trkpt><trkpt lat="44.0741941" lon="11.9731391"><ele>174.0</ele><time>2026-04-25T11:14:12.474Z</time></trkpt><trkpt lat="44.0740436" lon="11.9730868"><ele>173.0</ele><time>2026-04-25T11:14:13.479Z</time></trkpt><trkpt lat="44.0738893" lon="11.973037"><ele>172.0</ele><time>2026-04-25T11:14:14.485Z</time></trkpt><trkpt lat="44.0737304" lon="11.9729884"><ele>172.0</ele><time>2026-04-25T11:14:15.476Z</time></trkpt><trkpt lat="44.0735782" lon="11.9729468"><ele>172.0</ele><time>2026-04-25T11:14:16.48Z</time></trkpt><trkpt lat="44.0734437" lon="11.9729076"><ele>172.0</ele><time>2026-04-25T11:14:17.475Z</time></trkpt><trkpt lat="44.0733162" lon="11.972871"><ele>172.0</ele><time>2026-04-25T11:14:18.477Z</time></trkpt><trkpt lat="44.0731954" lon="11.9728384"><ele>170.25</ele><time>2026-04-25T11:14:19.478Z</time></trkpt><trkpt lat="44.0730795" lon="11.972812"><ele>168.5</ele><time>2026-04-25T11:14:20.488Z</time></trkpt><trkpt lat="44.0729672" lon="11.9727858"><ele>166.75</ele><time>2026-04-25T11:14:21.479Z</time></trkpt><trkpt lat="44.0728543" lon="11.9727531"><ele>165.0</ele><time>2026-04-25T11:14:22.471Z</time></trkpt><trkpt lat="44.0727334" lon="11.9727195"><ele>165.0</ele><time>2026-04-25T11:14:23.487Z</time></trkpt><trkpt lat="44.0726182" lon="11.9726859"><ele>165.0</ele><time>2026-04-25T11:14:24.474Z</time></trkpt><trkpt lat="44.0725046" lon="11.9726579"><ele>165.0</ele><time>2026-04-25T11:14:25.483Z</time></trkpt><trkpt lat="44.0723852" lon="11.9726257"><ele>165.0</ele><time>2026-04-25T11:14:26.479Z</time></trkpt><trkpt lat="44.0722633" lon="11.9725915"><ele>165.0</ele><time>2026-04-25T11:14:27.478Z</time></trkpt><trkpt lat="44.072143" lon="11.9725594"><ele>165.0</ele><time>2026-04-25T11:14:28.498Z</time></trkpt><trkpt lat="44.0720232" lon="11.9725276"><ele>165.0</ele><time>2026-04-25T11:14:29.479Z</time></trkpt><trkpt lat="44.0719012" lon="11.9724981"><ele>165.0</ele><time>2026-04-25T11:14:30.481Z</time></trkpt><trkpt lat="44.0717726" lon="11.9724641"><ele>165.66666666666666</ele><time>2026-04-25T11:14:31.478Z</time></trkpt><trkpt lat="44.0716248" lon="11.9724336"><ele>166.33333333333331</ele><time>2026-04-25T11:14:32.486Z</time></trkpt><trkpt lat="44.0714724" lon="11.9723965"><ele>167.0</ele><time>2026-04-25T11:14:33.481Z</time></trkpt><trkpt lat="44.0713244" lon="11.9723628"><ele>167.25</ele><time>2026-04-25T11:14:34.477Z</time></trkpt><trkpt lat="44.0711833" lon="11.9723269"><ele>167.5</ele><time>2026-04-25T11:14:35.487Z</time></trkpt><trkpt lat="44.0710547" lon="11.9722931"><ele>167.75</ele><time>2026-04-25T11:14:36.476Z</time></trkpt><trkpt lat="44.0709593" lon="11.97227"><ele>168.0</ele><time>2026-04-25T11:14:37.485Z</time></trkpt><trkpt lat="44.0708738" lon="11.9722607"><ele>168.0</ele><time>2026-04-25T11:14:38.488Z</time></trkpt><trkpt lat="44.070775" lon="11.9722451"><ele>168.0</ele><time>2026-04-25T11:14:39.476Z</time></trkpt><trkpt lat="44.0706693" lon="11.9722204"><ele>168.0</ele><time>2026-04-25T11:14:40.478Z</time></trkpt><trkpt lat="44.0705618" lon="11.9721866"><ele>168.0</ele><time>2026-04-25T11:14:41.47Z</time></trkpt><trkpt lat="44.0704492" lon="11.9721529"><ele>168.0</ele><time>2026-04-25T11:14:42.476Z</time></trkpt><trkpt lat="44.0703314" lon="11.972129"><ele>168.25</ele><time>2026-04-25T11:14:43.481Z</time></trkpt><trkpt lat="44.0702118" lon="11.9720946"><ele>168.5</ele><time>2026-04-25T11:14:44.495Z</time></trkpt><trkpt lat="44.0700872" lon="11.9720689"><ele>168.75</ele><time>2026-04-25T11:14:45.481Z</time></trkpt><trkpt lat="44.0699522" lon="11.9720362"><ele>169.0</ele><time>2026-04-25T11:14:46.485Z</time></trkpt><trkpt lat="44.0698066" lon="11.9719974"><ele>172.33333333333334</ele><time>2026-04-25T11:14:47.473Z</time></trkpt><trkpt lat="44.0696497" lon="11.9719586"><ele>175.66666666666666</ele><time>2026-04-25T11:14:48.485Z</time></trkpt><trkpt lat="44.0694985" lon="11.9719224"><ele>179.0</ele><time>2026-04-25T11:14:49.483Z</time></trkpt><trkpt lat="44.0693559" lon="11.9718829"><ele>179.0</ele><time>2026-04-25T11:14:50.486Z</time></trkpt><trkpt lat="44.0692241" lon="11.9718345"><ele>179.0</ele><time>2026-04-25T11:14:51.48Z</time></trkpt><trkpt lat="44.0690968" lon="11.9717637"><ele>179.0</ele><time>2026-04-25T11:14:52.512Z</time></trkpt><trkpt lat="44.0689702" lon="11.9716784"><ele>179.0</ele><time>2026-04-25T11:14:53.48Z</time></trkpt><trkpt lat="44.0688475" lon="11.9715744"><ele>181.0</ele><time>2026-04-25T11:14:54.486Z</time></trkpt><trkpt lat="44.0687219" lon="11.9714573"><ele>183.0</ele><time>2026-04-25T11:14:55.503Z</time></trkpt><trkpt lat="44.0685924" lon="11.9713345"><ele>185.0</ele><time>2026-04-25T11:14:56.49Z</time></trkpt><trkpt lat="44.0684587" lon="11.9712197"><ele>185.0</ele><time>2026-04-25T11:14:57.486Z</time></trkpt><trkpt lat="44.0683265" lon="11.9711166"><ele>185.0</ele><time>2026-04-25T11:14:58.478Z</time></trkpt><trkpt lat="44.0681979" lon="11.9710342"><ele>185.0</ele><time>2026-04-25T11:14:59.475Z</time></trkpt><trkpt lat="44.0680777" lon="11.9709631"><ele>185.0</ele><time>2026-04-25T11:15:00.486Z</time></trkpt><trkpt lat="44.0679584" lon="11.9709008"><ele>185.33333333333331</ele><time>2026-04-25T11:15:01.477Z</time></trkpt><trkpt lat="44.0678594" lon="11.9708562"><ele>185.66666666666666</ele><time>2026-04-25T11:15:02.479Z</time></trkpt><trkpt lat="44.06777" lon="11.9708116"><ele>186.0</ele><time>2026-04-25T11:15:03.48Z</time></trkpt><trkpt lat="44.0676913" lon="11.9707785"><ele>186.33333333333334</ele><time>2026-04-25T11:15:04.495Z</time></trkpt><trkpt lat="44.0676212" lon="11.970746"><ele>186.66666666666669</ele><time>2026-04-25T11:15:05.484Z</time></trkpt><trkpt lat="44.067554" lon="11.9707081"><ele>187.0</ele><time>2026-04-25T11:15:06.482Z</time></trkpt><trkpt lat="44.067471" lon="11.9706568"><ele>187.0</ele><time>2026-04-25T11:15:08.486Z</time></trkpt><trkpt lat="44.0675202" lon="11.9707233"><ele>187.0</ele><time>2026-04-25T11:15:54.475Z</time></trkpt><trkpt lat="44.0675874" lon="11.9707479"><ele>187.0</ele><time>2026-04-25T11:15:55.477Z</time></trkpt><trkpt lat="44.0676644" lon="11.9707805"><ele>187.0</ele><time>2026-04-25T11:15:56.478Z</time></trkpt><trkpt lat="44.0677515" lon="11.9708231"><ele>187.0</ele><time>2026-04-25T11:15:57.471Z</time></trkpt><trkpt lat="44.0678467" lon="11.9708781"><ele>187.0</ele><time>2026-04-25T11:15:58.473Z</time></trkpt><trkpt lat="44.0679475" lon="11.9709316"><ele>186.5</ele><time>2026-04-25T11:15:59.471Z</time></trkpt><trkpt lat="44.0680544" lon="11.9709859"><ele>186.0</ele><time>2026-04-25T11:16:00.483Z</time></trkpt><trkpt lat="44.0681673" lon="11.9710499"><ele>185.5</ele><time>2026-04-25T11:16:01.476Z</time></trkpt><trkpt lat="44.0682777" lon="11.9711207"><ele>185.0</ele><time>2026-04-25T11:16:02.474Z</time></trkpt><trkpt lat="44.068392" lon="11.9711985"><ele>185.0</ele><time>2026-04-25T11:16:03.476Z</time></trkpt><trkpt lat="44.0685011" lon="11.9712813"><ele>185.0</ele><time>2026-04-25T11:16:04.486Z</time></trkpt><trkpt lat="44.0686087" lon="11.9713615"><ele>185.0</ele><time>2026-04-25T11:16:05.475Z</time></trkpt><trkpt lat="44.0687068" lon="11.971455"><ele>185.0</ele><time>2026-04-25T11:16:06.482Z</time></trkpt><trkpt lat="44.0688055" lon="11.9715542"><ele>185.0</ele><time>2026-04-25T11:16:07.472Z</time></trkpt><trkpt lat="44.0689066" lon="11.9716518"><ele>185.0</ele><time>2026-04-25T11:16:08.474Z</time></trkpt><trkpt lat="44.0690083" lon="11.971739"><ele>185.0</ele><time>2026-04-25T11:16:09.473Z</time></trkpt><trkpt lat="44.0691085" lon="11.9717992"><ele>185.0</ele><time>2026-04-25T11:16:10.49Z</time></trkpt><trkpt lat="44.0692125" lon="11.9718469"><ele>183.8</ele><time>2026-04-25T11:16:11.478Z</time></trkpt><trkpt lat="44.0693238" lon="11.9718801"><ele>182.6</ele><time>2026-04-25T11:16:12.478Z</time></trkpt><trkpt lat="44.0694328" lon="11.9719083"><ele>181.39999999999998</ele><time>2026-04-25T11:16:13.485Z</time></trkpt><trkpt lat="44.0695397" lon="11.971941"><ele>180.2</ele><time>2026-04-25T11:16:14.484Z</time></trkpt><trkpt lat="44.069651" lon="11.9719698"><ele>179.0</ele><time>2026-04-25T11:16:15.478Z</time></trkpt><trkpt lat="44.0697585" lon="11.971998"><ele>179.0</ele><time>2026-04-25T11:16:16.482Z</time></trkpt><trkpt lat="44.069865" lon="11.9720247"><ele>179.0</ele><time>2026-04-25T11:16:17.472Z</time></trkpt><trkpt lat="44.0699721" lon="11.9720474"><ele>179.0</ele><time>2026-04-25T11:16:18.486Z</time></trkpt><trkpt lat="44.0700833" lon="11.9720715"><ele>179.0</ele><time>2026-04-25T11:16:19.481Z</time></trkpt><trkpt lat="44.0701919" lon="11.9720972"><ele>179.0</ele><time>2026-04-25T11:16:20.499Z</time></trkpt><trkpt lat="44.0703039" lon="11.9721292"><ele>177.0</ele><time>2026-04-25T11:16:21.474Z</time></trkpt><trkpt lat="44.0704105" lon="11.9721622"><ele>175.0</ele><time>2026-04-25T11:16:22.479Z</time></trkpt><trkpt lat="44.0705215" lon="11.9721909"><ele>173.0</ele><time>2026-04-25T11:16:23.478Z</time></trkpt><trkpt lat="44.070634" lon="11.9722182"><ele>171.0</ele><time>2026-04-25T11:16:24.486Z</time></trkpt><trkpt lat="44.0707413" lon="11.972246"><ele>169.0</ele><time>2026-04-25T11:16:25.472Z</time></trkpt><trkpt lat="44.0708507" lon="11.9722644"><ele>168.75</ele><time>2026-04-25T11:16:26.472Z</time></trkpt><trkpt lat="44.0709636" lon="11.9722914"><ele>168.5</ele><time>2026-04-25T11:16:27.472Z</time></trkpt><trkpt lat="44.0710738" lon="11.972317"><ele>168.25</ele><time>2026-04-25T11:16:28.473Z</time></trkpt><trkpt lat="44.0711872" lon="11.9723516"><ele>168.0</ele><time>2026-04-25T11:16:29.471Z</time></trkpt><trkpt lat="44.0712993" lon="11.9723833"><ele>168.0</ele><time>2026-04-25T11:16:30.47Z</time></trkpt><trkpt lat="44.0714102" lon="11.9724051"><ele>168.0</ele><time>2026-04-25T11:16:31.47Z</time></trkpt><trkpt lat="44.0715206" lon="11.9724219"><ele>168.0</ele><time>2026-04-25T11:16:32.479Z</time></trkpt><trkpt lat="44.0716286" lon="11.9724459"><ele>168.0</ele><time>2026-04-25T11:16:33.473Z</time></trkpt><trkpt lat="44.0717339" lon="11.9724781"><ele>168.0</ele><time>2026-04-25T11:16:34.483Z</time></trkpt><trkpt lat="44.0718468" lon="11.9725179"><ele>167.25</ele><time>2026-04-25T11:16:35.468Z</time></trkpt><trkpt lat="44.0719602" lon="11.9725501"><ele>166.5</ele><time>2026-04-25T11:16:36.484Z</time></trkpt><trkpt lat="44.0720744" lon="11.9725761"><ele>165.75</ele><time>2026-04-25T11:16:37.473Z</time></trkpt><trkpt lat="44.0721953" lon="11.9726043"><ele>165.0</ele><time>2026-04-25T11:16:38.478Z</time></trkpt><trkpt lat="44.0723129" lon="11.9726356"><ele>165.0</ele><time>2026-04-25T11:16:39.481Z</time></trkpt><trkpt lat="44.0724275" lon="11.9726689"><ele>165.0</ele><time>2026-04-25T11:16:40.479Z</time></trkpt><trkpt lat="44.0725435" lon="11.9727046"><ele>165.0</ele><time>2026-04-25T11:16:41.479Z</time></trkpt><trkpt lat="44.0726599" lon="11.9727325"><ele>165.0</ele><time>2026-04-25T11:16:42.473Z</time></trkpt><trkpt lat="44.0727764" lon="11.9727573"><ele>165.0</ele><time>2026-04-25T11:16:43.491Z</time></trkpt><trkpt lat="44.0728919" lon="11.9727851"><ele>165.0</ele><time>2026-04-25T11:16:44.484Z</time></trkpt><trkpt lat="44.0730078" lon="11.9728145"><ele>165.0</ele><time>2026-04-25T11:16:45.477Z</time></trkpt><trkpt lat="44.0731214" lon="11.9728441"><ele>165.0</ele><time>2026-04-25T11:16:46.477Z</time></trkpt><trkpt lat="44.0732382" lon="11.9728785"><ele>166.75</ele><time>2026-04-25T11:16:47.481Z</time></trkpt><trkpt lat="44.0733616" lon="11.972914"><ele>168.5</ele><time>2026-04-25T11:16:48.477Z</time></trkpt><trkpt lat="44.0734861" lon="11.9729469"><ele>170.25</ele><time>2026-04-25T11:16:49.478Z</time></trkpt><trkpt lat="44.0736109" lon="11.9729831"><ele>172.0</ele><time>2026-04-25T11:16:50.478Z</time></trkpt><trkpt lat="44.0737403" lon="11.9730206"><ele>172.0</ele><time>2026-04-25T11:16:51.484Z</time></trkpt><trkpt lat="44.0738807" lon="11.973059"><ele>172.0</ele><time>2026-04-25T11:16:52.491Z</time></trkpt><trkpt lat="44.0740136" lon="11.9730936"><ele>172.0</ele><time>2026-04-25T11:16:53.475Z</time></trkpt><trkpt lat="44.0741461" lon="11.9731313"><ele>172.0</ele><time>2026-04-25T11:16:54.484Z</time></trkpt><trkpt lat="44.0742791" lon="11.9731732"><ele>172.75</ele><time>2026-04-25T11:16:55.484Z</time></trkpt><trkpt lat="44.0744037" lon="11.9732068"><ele>173.5</ele><time>2026-04-25T11:16:56.478Z</time></trkpt><trkpt lat="44.0745204" lon="11.9732318"><ele>174.25</ele><time>2026-04-25T11:16:57.471Z</time></trkpt><trkpt lat="44.0746393" lon="11.9732414"><ele>175.0</ele><time>2026-04-25T11:16:58.474Z</time></trkpt><trkpt lat="44.0747581" lon="11.9732572"><ele>175.0</ele><time>2026-04-25T11:16:59.478Z</time></trkpt><trkpt lat="44.0748777" lon="11.9732845"><ele>175.0</ele><time>2026-04-25T11:17:00.475Z</time></trkpt><trkpt lat="44.0749985" lon="11.9733191"><ele>175.0</ele><time>2026-04-25T11:17:01.479Z</time></trkpt><trkpt lat="44.075131" lon="11.9733381"><ele>175.0</ele><time>2026-04-25T11:17:02.487Z</time></trkpt><trkpt lat="44.075274" lon="11.9733463"><ele>175.33333333333334</ele><time>2026-04-25T11:17:03.476Z</time></trkpt><trkpt lat="44.0754329" lon="11.9733297"><ele>175.66666666666666</ele><time>2026-04-25T11:17:04.471Z</time></trkpt><trkpt lat="44.0755965" lon="11.9733087"><ele>176.0</ele><time>2026-04-25T11:17:05.474Z</time></trkpt><trkpt lat="44.0757628" lon="11.9732897"><ele>173.33333333333331</ele><time>2026-04-25T11:17:06.47Z</time></trkpt><trkpt lat="44.0759333" lon="11.9732777"><ele>170.66666666666666</ele><time>2026-04-25T11:17:07.468Z</time></trkpt><trkpt lat="44.076103" lon="11.9732688"><ele>168.0</ele><time>2026-04-25T11:17:08.472Z</time></trkpt><trkpt lat="44.0762705" lon="11.9732548"><ele>168.0</ele><time>2026-04-25T11:17:09.481Z</time></trkpt><trkpt lat="44.0764428" lon="11.9732419"><ele>168.0</ele><time>2026-04-25T11:17:10.479Z</time></trkpt><trkpt lat="44.0766214" lon="11.9732266"><ele>168.0</ele><time>2026-04-25T11:17:11.483Z</time></trkpt><trkpt lat="44.0768009" lon="11.9732165"><ele>167.66666666666666</ele><time>2026-04-25T11:17:12.47Z</time></trkpt><trkpt lat="44.0769787" lon="11.9732066"><ele>167.33333333333331</ele><time>2026-04-25T11:17:13.477Z</time></trkpt><trkpt lat="44.0771625" lon="11.9732008"><ele>167.0</ele><time>2026-04-25T11:17:14.477Z</time></trkpt><trkpt lat="44.077337" lon="11.9732003"><ele>167.66666666666666</ele><time>2026-04-25T11:17:15.481Z</time></trkpt><trkpt lat="44.0775058" lon="11.9732237"><ele>168.33333333333334</ele><time>2026-04-25T11:17:16.488Z</time></trkpt><trkpt lat="44.0776772" lon="11.9732722"><ele>169.0</ele><time>2026-04-25T11:17:17.483Z</time></trkpt><trkpt lat="44.077852" lon="11.9733443"><ele>167.66666666666669</ele><time>2026-04-25T11:17:18.48Z</time></trkpt><trkpt lat="44.0780347" lon="11.9734316"><ele>166.33333333333334</ele><time>2026-04-25T11:17:19.48Z</time></trkpt><trkpt lat="44.0782322" lon="11.9735309"><ele>165.0</ele><time>2026-04-25T11:17:20.487Z</time></trkpt><trkpt lat="44.0784303" lon="11.9736348"><ele>165.0</ele><time>2026-04-25T11:17:21.485Z</time></trkpt><trkpt lat="44.0786278" lon="11.973741"><ele>165.0</ele><time>2026-04-25T11:17:22.485Z</time></trkpt><trkpt lat="44.0788356" lon="11.9738482"><ele>165.0</ele><time>2026-04-25T11:17:23.484Z</time></trkpt><trkpt lat="44.0790496" lon="11.9739636"><ele>166.0</ele><time>2026-04-25T11:17:24.486Z</time></trkpt><trkpt lat="44.0792659" lon="11.9740853"><ele>167.0</ele><time>2026-04-25T11:17:25.48Z</time></trkpt><trkpt lat="44.0794776" lon="11.9742114"><ele>165.33333333333331</ele><time>2026-04-25T11:17:26.481Z</time></trkpt><trkpt lat="44.0796796" lon="11.9743403"><ele>163.66666666666666</ele><time>2026-04-25T11:17:27.482Z</time></trkpt><trkpt lat="44.0798829" lon="11.9744664"><ele>162.0</ele><time>2026-04-25T11:17:28.478Z</time></trkpt><trkpt lat="44.0801008" lon="11.9745937"><ele>162.0</ele><time>2026-04-25T11:17:29.477Z</time></trkpt><trkpt lat="44.0803255" lon="11.974718"><ele>162.0</ele><time>2026-04-25T11:17:30.486Z</time></trkpt><trkpt lat="44.0805551" lon="11.9748356"><ele>161.5</ele><time>2026-04-25T11:17:31.484Z</time></trkpt><trkpt lat="44.0807848" lon="11.9749464"><ele>161.0</ele><time>2026-04-25T11:17:32.475Z</time></trkpt><trkpt lat="44.0810155" lon="11.9750568"><ele>161.0</ele><time>2026-04-25T11:17:33.482Z</time></trkpt><trkpt lat="44.0812348" lon="11.9751551"><ele>161.0</ele><time>2026-04-25T11:17:34.481Z</time></trkpt><trkpt lat="44.0814431" lon="11.9752443"><ele>161.0</ele><time>2026-04-25T11:17:35.479Z</time></trkpt><trkpt lat="44.0816381" lon="11.9753291"><ele>160.0</ele><time>2026-04-25T11:17:36.479Z</time></trkpt><trkpt lat="44.0818254" lon="11.9754138"><ele>159.0</ele><time>2026-04-25T11:17:37.478Z</time></trkpt><trkpt lat="44.0820039" lon="11.9755032"><ele>158.0</ele><time>2026-04-25T11:17:38.476Z</time></trkpt><trkpt lat="44.0821822" lon="11.975586"><ele>158.0</ele><time>2026-04-25T11:17:39.486Z</time></trkpt><trkpt lat="44.082351" lon="11.9756587"><ele>158.0</ele><time>2026-04-25T11:17:40.483Z</time></trkpt><trkpt lat="44.0825126" lon="11.9757258"><ele>158.0</ele><time>2026-04-25T11:17:41.483Z</time></trkpt><trkpt lat="44.0826688" lon="11.9757913"><ele>157.33333333333331</ele><time>2026-04-25T11:17:42.476Z</time></trkpt><trkpt lat="44.0828242" lon="11.9758453"><ele>156.66666666666666</ele><time>2026-04-25T11:17:43.488Z</time></trkpt><trkpt lat="44.0829812" lon="11.9758877"><ele>156.0</ele><time>2026-04-25T11:17:44.469Z</time></trkpt><trkpt lat="44.0831354" lon="11.9759245"><ele>154.33333333333334</ele><time>2026-04-25T11:17:45.479Z</time></trkpt><trkpt lat="44.0832999" lon="11.9759472"><ele>152.66666666666669</ele><time>2026-04-25T11:17:46.48Z</time></trkpt><trkpt lat="44.0834686" lon="11.9759543"><ele>151.0</ele><time>2026-04-25T11:17:47.483Z</time></trkpt><trkpt lat="44.0836456" lon="11.9759503"><ele>151.0</ele><time>2026-04-25T11:17:48.487Z</time></trkpt><trkpt lat="44.0838299" lon="11.9759289"><ele>151.0</ele><time>2026-04-25T11:17:49.476Z</time></trkpt><trkpt lat="44.0840274" lon="11.975886"><ele>151.0</ele><time>2026-04-25T11:17:50.48Z</time></trkpt><trkpt lat="44.0842245" lon="11.9758151"><ele>151.66666666666669</ele><time>2026-04-25T11:17:51.474Z</time></trkpt><trkpt lat="44.0844102" lon="11.9757488"><ele>152.33333333333334</ele><time>2026-04-25T11:17:52.487Z</time></trkpt><trkpt lat="44.0845822" lon="11.9756924"><ele>153.0</ele><time>2026-04-25T11:17:53.481Z</time></trkpt><trkpt lat="44.0847479" lon="11.9756354"><ele>153.0</ele><time>2026-04-25T11:17:54.47Z</time></trkpt><trkpt lat="44.0849072" lon="11.9755812"><ele>153.0</ele><time>2026-04-25T11:17:55.483Z</time></trkpt><trkpt lat="44.0850632" lon="11.9755541"><ele>153.0</ele><time>2026-04-25T11:17:56.477Z</time></trkpt><trkpt lat="44.0852133" lon="11.9755618"><ele>152.75</ele><time>2026-04-25T11:17:57.476Z</time></trkpt><trkpt lat="44.0853515" lon="11.9756055"><ele>152.5</ele><time>2026-04-25T11:17:58.484Z</time></trkpt><trkpt lat="44.0854817" lon="11.9756826"><ele>152.25</ele><time>2026-04-25T11:17:59.47Z</time></trkpt><trkpt lat="44.0856042" lon="11.9757799"><ele>152.0</ele><time>2026-04-25T11:18:00.485Z</time></trkpt><trkpt lat="44.0857144" lon="11.9758971"><ele>152.0</ele><time>2026-04-25T11:18:01.477Z</time></trkpt><trkpt lat="44.0857888" lon="11.9760522"><ele>152.0</ele><time>2026-04-25T11:18:02.471Z</time></trkpt><trkpt lat="44.0858419" lon="11.9762291"><ele>152.0</ele><time>2026-04-25T11:18:03.469Z</time></trkpt><trkpt lat="44.0858678" lon="11.9764156"><ele>152.0</ele><time>2026-04-25T11:18:04.476Z</time></trkpt><trkpt lat="44.0858942" lon="11.9766158"><ele>151.75</ele><time>2026-04-25T11:18:05.491Z</time></trkpt><trkpt lat="44.0859301" lon="11.9768076"><ele>151.5</ele><time>2026-04-25T11:18:06.482Z</time></trkpt><trkpt lat="44.0859718" lon="11.9770007"><ele>151.25</ele><time>2026-04-25T11:18:07.471Z</time></trkpt><trkpt lat="44.0860338" lon="11.9771819"><ele>151.0</ele><time>2026-04-25T11:18:08.473Z</time></trkpt><trkpt lat="44.0861162" lon="11.9773641"><ele>150.66666666666669</ele><time>2026-04-25T11:18:09.475Z</time></trkpt><trkpt lat="44.0862153" lon="11.9775236"><ele>150.33333333333334</ele><time>2026-04-25T11:18:10.476Z</time></trkpt><trkpt lat="44.0863344" lon="11.9776587"><ele>150.0</ele><time>2026-04-25T11:18:11.473Z</time></trkpt><trkpt lat="44.0864664" lon="11.9777625"><ele>151.33333333333334</ele><time>2026-04-25T11:18:12.482Z</time></trkpt><trkpt lat="44.0866222" lon="11.9778623"><ele>152.66666666666669</ele><time>2026-04-25T11:18:13.476Z</time></trkpt><trkpt lat="44.0867863" lon="11.9779666"><ele>154.0</ele><time>2026-04-25T11:18:14.474Z</time></trkpt><trkpt lat="44.0869498" lon="11.9780706"><ele>154.0</ele><time>2026-04-25T11:18:15.478Z</time></trkpt><trkpt lat="44.0871077" lon="11.9781691"><ele>154.0</ele><time>2026-04-25T11:18:16.471Z</time></trkpt><trkpt lat="44.0872583" lon="11.9782619"><ele>154.0</ele><time>2026-04-25T11:18:17.475Z</time></trkpt><trkpt lat="44.0874078" lon="11.9783598"><ele>153.66666666666669</ele><time>2026-04-25T11:18:18.477Z</time></trkpt><trkpt lat="44.0875663" lon="11.9784592"><ele>153.33333333333334</ele><time>2026-04-25T11:18:19.472Z</time></trkpt><trkpt lat="44.0877328" lon="11.9785619"><ele>153.0</ele><time>2026-04-25T11:18:20.479Z</time></trkpt><trkpt lat="44.0878967" lon="11.9786642"><ele>153.0</ele><time>2026-04-25T11:18:21.465Z</time></trkpt><trkpt lat="44.0880582" lon="11.9787667"><ele>153.0</ele><time>2026-04-25T11:18:22.472Z</time></trkpt><trkpt lat="44.0882135" lon="11.9788605"><ele>153.0</ele><time>2026-04-25T11:18:23.47Z</time></trkpt><trkpt lat="44.088366" lon="11.9789538"><ele>154.0</ele><time>2026-04-25T11:18:24.469Z</time></trkpt><trkpt lat="44.0885197" lon="11.9790424"><ele>155.0</ele><time>2026-04-25T11:18:25.476Z</time></trkpt><trkpt lat="44.0886721" lon="11.9791332"><ele>156.0</ele><time>2026-04-25T11:18:26.475Z</time></trkpt><trkpt lat="44.0888289" lon="11.9792203"><ele>153.33333333333334</ele><time>2026-04-25T11:18:27.478Z</time></trkpt><trkpt lat="44.0889848" lon="11.9793089"><ele>150.66666666666669</ele><time>2026-04-25T11:18:28.481Z</time></trkpt><trkpt lat="44.0891403" lon="11.9793937"><ele>148.0</ele><time>2026-04-25T11:18:29.481Z</time></trkpt><trkpt lat="44.0892998" lon="11.979476"><ele>148.0</ele><time>2026-04-25T11:18:30.489Z</time></trkpt><trkpt lat="44.0894603" lon="11.9795571"><ele>148.0</ele><time>2026-04-25T11:18:31.475Z</time></trkpt><trkpt lat="44.0896218" lon="11.9796369"><ele>148.0</ele><time>2026-04-25T11:18:32.475Z</time></trkpt><trkpt lat="44.0897842" lon="11.97972"><ele>149.0</ele><time>2026-04-25T11:18:33.486Z</time></trkpt><trkpt lat="44.0899463" lon="11.97981"><ele>150.0</ele><time>2026-04-25T11:18:34.474Z</time></trkpt><trkpt lat="44.0901028" lon="11.9798921"><ele>151.0</ele><time>2026-04-25T11:18:35.471Z</time></trkpt><trkpt lat="44.0902627" lon="11.9799648"><ele>148.66666666666669</ele><time>2026-04-25T11:18:36.477Z</time></trkpt><trkpt lat="44.0904229" lon="11.9800285"><ele>146.33333333333334</ele><time>2026-04-25T11:18:37.472Z</time></trkpt><trkpt lat="44.0905842" lon="11.9800832"><ele>144.0</ele><time>2026-04-25T11:18:38.474Z</time></trkpt><trkpt lat="44.0907421" lon="11.9801199"><ele>144.33333333333334</ele><time>2026-04-25T11:18:39.468Z</time></trkpt><trkpt lat="44.0909015" lon="11.9801408"><ele>144.66666666666669</ele><time>2026-04-25T11:18:40.478Z</time></trkpt><trkpt lat="44.0910579" lon="11.9801362"><ele>145.0</ele><time>2026-04-25T11:18:41.478Z</time></trkpt><trkpt lat="44.0912187" lon="11.9801145"><ele>145.0</ele><time>2026-04-25T11:18:42.47Z</time></trkpt><trkpt lat="44.0913826" lon="11.980083"><ele>145.0</ele><time>2026-04-25T11:18:43.468Z</time></trkpt><trkpt lat="44.091549" lon="11.9800425"><ele>145.0</ele><time>2026-04-25T11:18:44.488Z</time></trkpt><trkpt lat="44.0917091" lon="11.9799975"><ele>147.0</ele><time>2026-04-25T11:18:45.479Z</time></trkpt><trkpt lat="44.0918577" lon="11.9799535"><ele>149.0</ele><time>2026-04-25T11:18:46.479Z</time></trkpt><trkpt lat="44.0920042" lon="11.9799032"><ele>151.0</ele><time>2026-04-25T11:18:47.48Z</time></trkpt><trkpt lat="44.092142" lon="11.9798621"><ele>153.0</ele><time>2026-04-25T11:18:48.485Z</time></trkpt><trkpt lat="44.0922646" lon="11.9798196"><ele>153.0</ele><time>2026-04-25T11:18:49.476Z</time></trkpt><trkpt lat="44.0923828" lon="11.9797838"><ele>153.0</ele><time>2026-04-25T11:18:50.469Z</time></trkpt><trkpt lat="44.0924941" lon="11.9797556"><ele>153.0</ele><time>2026-04-25T11:18:51.477Z</time></trkpt><trkpt lat="44.0926073" lon="11.9797249"><ele>153.0</ele><time>2026-04-25T11:18:52.479Z</time></trkpt><trkpt lat="44.09273" lon="11.9796928"><ele>153.0</ele><time>2026-04-25T11:18:53.479Z</time></trkpt><trkpt lat="44.0928601" lon="11.9796593"><ele>153.0</ele><time>2026-04-25T11:18:54.475Z</time></trkpt><trkpt lat="44.0929883" lon="11.9796243"><ele>153.0</ele><time>2026-04-25T11:18:55.482Z</time></trkpt><trkpt lat="44.0931174" lon="11.9795842"><ele>153.0</ele><time>2026-04-25T11:18:56.48Z</time></trkpt><trkpt lat="44.0932468" lon="11.9795377"><ele>151.75</ele><time>2026-04-25T11:18:57.481Z</time></trkpt><trkpt lat="44.0933796" lon="11.9794935"><ele>150.5</ele><time>2026-04-25T11:18:58.589Z</time></trkpt><trkpt lat="44.0935163" lon="11.9794615"><ele>149.25</ele><time>2026-04-25T11:18:59.494Z</time></trkpt><trkpt lat="44.093657" lon="11.9794525"><ele>148.0</ele><time>2026-04-25T11:19:00.503Z</time></trkpt><trkpt lat="44.0938049" lon="11.9794732"><ele>148.0</ele><time>2026-04-25T11:19:01.473Z</time></trkpt><trkpt lat="44.0939483" lon="11.9795314"><ele>148.0</ele><time>2026-04-25T11:19:02.474Z</time></trkpt><trkpt lat="44.0940916" lon="11.9796176"><ele>148.0</ele><time>2026-04-25T11:19:03.47Z</time></trkpt><trkpt lat="44.0942301" lon="11.9797113"><ele>148.0</ele><time>2026-04-25T11:19:04.484Z</time></trkpt><trkpt lat="44.0943642" lon="11.9798126"><ele>148.0</ele><time>2026-04-25T11:19:05.477Z</time></trkpt><trkpt lat="44.094493" lon="11.9799084"><ele>148.0</ele><time>2026-04-25T11:19:06.471Z</time></trkpt><trkpt lat="44.0946232" lon="11.9799973"><ele>148.0</ele><time>2026-04-25T11:19:07.474Z</time></trkpt><trkpt lat="44.0947568" lon="11.980086"><ele>148.0</ele><time>2026-04-25T11:19:08.481Z</time></trkpt><trkpt lat="44.094891" lon="11.9801739"><ele>148.0</ele><time>2026-04-25T11:19:09.473Z</time></trkpt><trkpt lat="44.0950136" lon="11.9802654"><ele>148.0</ele><time>2026-04-25T11:19:10.476Z</time></trkpt><trkpt lat="44.095141" lon="11.9803555"><ele>148.0</ele><time>2026-04-25T11:19:11.472Z</time></trkpt><trkpt lat="44.0952724" lon="11.9804498"><ele>148.0</ele><time>2026-04-25T11:19:12.477Z</time></trkpt><trkpt lat="44.0954029" lon="11.9805478"><ele>148.0</ele><time>2026-04-25T11:19:13.474Z</time></trkpt><trkpt lat="44.0955383" lon="11.9806497"><ele>148.0</ele><time>2026-04-25T11:19:14.471Z</time></trkpt><trkpt lat="44.0956668" lon="11.9807411"><ele>148.0</ele><time>2026-04-25T11:19:15.478Z</time></trkpt><trkpt lat="44.0957741" lon="11.9808167"><ele>147.5</ele><time>2026-04-25T11:19:16.479Z</time></trkpt><trkpt lat="44.0958756" lon="11.9808929"><ele>147.0</ele><time>2026-04-25T11:19:17.486Z</time></trkpt><trkpt lat="44.095982" lon="11.9809747"><ele>146.5</ele><time>2026-04-25T11:19:18.483Z</time></trkpt><trkpt lat="44.0960901" lon="11.9810561"><ele>146.0</ele><time>2026-04-25T11:19:19.479Z</time></trkpt><trkpt lat="44.096196" lon="11.9811341"><ele>146.0</ele><time>2026-04-25T11:19:20.476Z</time></trkpt><trkpt lat="44.0963139" lon="11.9812077"><ele>146.0</ele><time>2026-04-25T11:19:21.471Z</time></trkpt><trkpt lat="44.0964307" lon="11.9812786"><ele>146.0</ele><time>2026-04-25T11:19:22.472Z</time></trkpt><trkpt lat="44.0965545" lon="11.9813373"><ele>146.0</ele><time>2026-04-25T11:19:23.475Z</time></trkpt><trkpt lat="44.0966792" lon="11.9813865"><ele>145.75</ele><time>2026-04-25T11:19:24.479Z</time></trkpt><trkpt lat="44.0968115" lon="11.9814325"><ele>145.5</ele><time>2026-04-25T11:19:25.484Z</time></trkpt><trkpt lat="44.0969427" lon="11.9814702"><ele>145.25</ele><time>2026-04-25T11:19:26.472Z</time></trkpt><trkpt lat="44.0970749" lon="11.9814956"><ele>145.0</ele><time>2026-04-25T11:19:27.479Z</time></trkpt><trkpt lat="44.0972071" lon="11.9815116"><ele>145.0</ele><time>2026-04-25T11:19:28.481Z</time></trkpt><trkpt lat="44.09734" lon="11.9815153"><ele>145.0</ele><time>2026-04-25T11:19:29.482Z</time></trkpt><trkpt lat="44.0974614" lon="11.9815118"><ele>145.0</ele><time>2026-04-25T11:19:30.478Z</time></trkpt><trkpt lat="44.0975819" lon="11.9814976"><ele>145.0</ele><time>2026-04-25T11:19:31.47Z</time></trkpt><trkpt lat="44.0977058" lon="11.9814757"><ele>144.5</ele><time>2026-04-25T11:19:32.475Z</time></trkpt><trkpt lat="44.09783" lon="11.9814498"><ele>144.0</ele><time>2026-04-25T11:19:33.482Z</time></trkpt><trkpt lat="44.0979584" lon="11.9814244"><ele>143.5</ele><time>2026-04-25T11:19:34.472Z</time></trkpt><trkpt lat="44.0980947" lon="11.9814012"><ele>143.0</ele><time>2026-04-25T11:19:35.481Z</time></trkpt><trkpt lat="44.0982355" lon="11.9813798"><ele>142.75</ele><time>2026-04-25T11:19:36.476Z</time></trkpt><trkpt lat="44.0983702" lon="11.9813496"><ele>142.5</ele><time>2026-04-25T11:19:37.491Z</time></trkpt><trkpt lat="44.0985061" lon="11.9813188"><ele>142.25</ele><time>2026-04-25T11:19:38.476Z</time></trkpt><trkpt lat="44.0986437" lon="11.9812908"><ele>142.0</ele><time>2026-04-25T11:19:39.47Z</time></trkpt><trkpt lat="44.0987793" lon="11.9812682"><ele>142.0</ele><time>2026-04-25T11:19:40.476Z</time></trkpt><trkpt lat="44.0989186" lon="11.9812407"><ele>142.0</ele><time>2026-04-25T11:19:41.48Z</time></trkpt><trkpt lat="44.0990577" lon="11.9812141"><ele>142.0</ele><time>2026-04-25T11:19:42.477Z</time></trkpt><trkpt lat="44.0992054" lon="11.9811854"><ele>142.0</ele><time>2026-04-25T11:19:43.481Z</time></trkpt><trkpt lat="44.0993525" lon="11.9811581"><ele>142.0</ele><time>2026-04-25T11:19:44.474Z</time></trkpt><trkpt lat="44.0994952" lon="11.9811304"><ele>142.0</ele><time>2026-04-25T11:19:45.482Z</time></trkpt><trkpt lat="44.0996413" lon="11.9811031"><ele>142.0</ele><time>2026-04-25T11:19:46.476Z</time></trkpt><trkpt lat="44.0997868" lon="11.9810797"><ele>142.0</ele><time>2026-04-25T11:19:47.476Z</time></trkpt><trkpt lat="44.0999269" lon="11.9810594"><ele>140.75</ele><time>2026-04-25T11:19:48.468Z</time></trkpt><trkpt lat="44.10007" lon="11.9810372"><ele>139.5</ele><time>2026-04-25T11:19:49.473Z</time></trkpt><trkpt lat="44.1002107" lon="11.9810285"><ele>138.25</ele><time>2026-04-25T11:19:50.479Z</time></trkpt><trkpt lat="44.1003435" lon="11.9810275"><ele>137.0</ele><time>2026-04-25T11:19:51.477Z</time></trkpt><trkpt lat="44.100479" lon="11.9810398"><ele>137.0</ele><time>2026-04-25T11:19:52.482Z</time></trkpt><trkpt lat="44.100611" lon="11.9810563"><ele>137.0</ele><time>2026-04-25T11:19:53.473Z</time></trkpt><trkpt lat="44.1007432" lon="11.9810866"><ele>137.0</ele><time>2026-04-25T11:19:54.481Z</time></trkpt><trkpt lat="44.1008696" lon="11.9811285"><ele>137.0</ele><time>2026-04-25T11:19:55.471Z</time></trkpt><trkpt lat="44.1009825" lon="11.981166"><ele>137.2</ele><time>2026-04-25T11:19:56.478Z</time></trkpt><trkpt lat="44.1010959" lon="11.9811987"><ele>137.39999999999998</ele><time>2026-04-25T11:19:57.482Z</time></trkpt><trkpt lat="44.1012019" lon="11.9812189"><ele>137.60000000000002</ele><time>2026-04-25T11:19:58.473Z</time></trkpt><trkpt lat="44.1013012" lon="11.9812532"><ele>137.8</ele><time>2026-04-25T11:19:59.473Z</time></trkpt><trkpt lat="44.1013907" lon="11.9812734"><ele>138.0</ele><time>2026-04-25T11:20:00.485Z</time></trkpt><trkpt lat="44.1014833" lon="11.9813047"><ele>138.0</ele><time>2026-04-25T11:20:01.476Z</time></trkpt><trkpt lat="44.1015817" lon="11.9813428"><ele>138.0</ele><time>2026-04-25T11:20:02.479Z</time></trkpt><trkpt lat="44.1016772" lon="11.9813879"><ele>138.0</ele><time>2026-04-25T11:20:03.478Z</time></trkpt><trkpt lat="44.1017737" lon="11.981422"><ele>138.0</ele><time>2026-04-25T11:20:04.483Z</time></trkpt><trkpt lat="44.1018697" lon="11.981454"><ele>138.0</ele><time>2026-04-25T11:20:05.474Z</time></trkpt><trkpt lat="44.1019688" lon="11.9814837"><ele>137.6</ele><time>2026-04-25T11:20:06.472Z</time></trkpt><trkpt lat="44.1020562" lon="11.9815104"><ele>137.20000000000002</ele><time>2026-04-25T11:20:07.479Z</time></trkpt><trkpt lat="44.1021499" lon="11.9815371"><ele>136.8</ele><time>2026-04-25T11:20:08.48Z</time></trkpt><trkpt lat="44.1022396" lon="11.9815526"><ele>136.4</ele><time>2026-04-25T11:20:09.477Z</time></trkpt><trkpt lat="44.1023336" lon="11.9815605"><ele>136.0</ele><time>2026-04-25T11:20:10.476Z</time></trkpt><trkpt lat="44.1024179" lon="11.9815611"><ele>135.2</ele><time>2026-04-25T11:20:11.481Z</time></trkpt><trkpt lat="44.1025029" lon="11.9815692"><ele>134.39999999999998</ele><time>2026-04-25T11:20:12.477Z</time></trkpt><trkpt lat="44.1025966" lon="11.9815733"><ele>133.6</ele><time>2026-04-25T11:20:13.473Z</time></trkpt><trkpt lat="44.1026959" lon="11.9815791"><ele>132.79999999999998</ele><time>2026-04-25T11:20:14.476Z</time></trkpt><trkpt lat="44.1027939" lon="11.981571"><ele>132.0</ele><time>2026-04-25T11:20:15.475Z</time></trkpt><trkpt lat="44.1028928" lon="11.981564"><ele>132.0</ele><time>2026-04-25T11:20:16.471Z</time></trkpt><trkpt lat="44.1029957" lon="11.9815593"><ele>132.0</ele><time>2026-04-25T11:20:17.477Z</time></trkpt><trkpt lat="44.1030942" lon="11.981564"><ele>132.0</ele><time>2026-04-25T11:20:18.482Z</time></trkpt><trkpt lat="44.1031941" lon="11.9815725"><ele>132.0</ele><time>2026-04-25T11:20:19.479Z</time></trkpt><trkpt lat="44.1032921" lon="11.9815795"><ele>132.0</ele><time>2026-04-25T11:20:20.49Z</time></trkpt><trkpt lat="44.1033847" lon="11.9815864"><ele>132.0</ele><time>2026-04-25T11:20:21.476Z</time></trkpt><trkpt lat="44.1034781" lon="11.9815878"><ele>132.0</ele><time>2026-04-25T11:20:22.481Z</time></trkpt><trkpt lat="44.1035674" lon="11.9815853"><ele>132.0</ele><time>2026-04-25T11:20:23.486Z</time></trkpt><trkpt lat="44.1036569" lon="11.9815837"><ele>132.0</ele><time>2026-04-25T11:20:24.479Z</time></trkpt><trkpt lat="44.1037459" lon="11.9815814"><ele>132.0</ele><time>2026-04-25T11:20:25.476Z</time></trkpt><trkpt lat="44.1038375" lon="11.9815846"><ele>132.0</ele><time>2026-04-25T11:20:26.48Z</time></trkpt><trkpt lat="44.1039254" lon="11.9815851"><ele>132.0</ele><time>2026-04-25T11:20:27.476Z</time></trkpt><trkpt lat="44.1040178" lon="11.9815889"><ele>132.0</ele><time>2026-04-25T11:20:28.476Z</time></trkpt><trkpt lat="44.1041224" lon="11.981596"><ele>132.0</ele><time>2026-04-25T11:20:29.473Z</time></trkpt><trkpt lat="44.1042208" lon="11.9816021"><ele>132.0</ele><time>2026-04-25T11:20:30.473Z</time></trkpt><trkpt lat="44.1043195" lon="11.981609"><ele>131.79999999999998</ele><time>2026-04-25T11:20:31.48Z</time></trkpt><trkpt lat="44.1044193" lon="11.9816137"><ele>131.6</ele><time>2026-04-25T11:20:32.478Z</time></trkpt><trkpt lat="44.1045225" lon="11.9816213"><ele>131.39999999999998</ele><time>2026-04-25T11:20:33.472Z</time></trkpt><trkpt lat="44.1046228" lon="11.9816237"><ele>131.2</ele><time>2026-04-25T11:20:34.474Z</time></trkpt><trkpt lat="44.1047218" lon="11.9816251"><ele>131.0</ele><time>2026-04-25T11:20:35.48Z</time></trkpt><trkpt lat="44.1048224" lon="11.981633"><ele>130.6</ele><time>2026-04-25T11:20:36.482Z</time></trkpt><trkpt lat="44.1049279" lon="11.9816417"><ele>130.2</ele><time>2026-04-25T11:20:37.471Z</time></trkpt><trkpt lat="44.1050357" lon="11.9816469"><ele>129.8</ele><time>2026-04-25T11:20:38.469Z</time></trkpt><trkpt lat="44.1051454" lon="11.9816487"><ele>129.4</ele><time>2026-04-25T11:20:39.47Z</time></trkpt><trkpt lat="44.1052381" lon="11.9816568"><ele>129.0</ele><time>2026-04-25T11:20:40.475Z</time></trkpt><trkpt lat="44.1053108" lon="11.9816681"><ele>128.99999999999997</ele><time>2026-04-25T11:20:41.477Z</time></trkpt><trkpt lat="44.1053884" lon="11.9816735"><ele>129.0</ele><time>2026-04-25T11:20:42.477Z</time></trkpt><trkpt lat="44.105455" lon="11.9816713"><ele>129.0</ele><time>2026-04-25T11:20:43.469Z</time></trkpt><trkpt lat="44.1055199" lon="11.9816699"><ele>129.0</ele><time>2026-04-25T11:20:44.477Z</time></trkpt><trkpt lat="44.1055908" lon="11.9816688"><ele>129.0</ele><time>2026-04-25T11:20:45.489Z</time></trkpt><trkpt lat="44.1056645" lon="11.9816614"><ele>128.99999999999997</ele><time>2026-04-25T11:20:46.472Z</time></trkpt><trkpt lat="44.1057368" lon="11.9816656"><ele>129.0</ele><time>2026-04-25T11:20:47.47Z</time></trkpt><trkpt lat="44.1058054" lon="11.9816681"><ele>129.0</ele><time>2026-04-25T11:20:48.481Z</time></trkpt><trkpt lat="44.1058726" lon="11.9816593"><ele>129.0</ele><time>2026-04-25T11:20:49.477Z</time></trkpt><trkpt lat="44.1059962" lon="11.9816611"><ele>129.0</ele><time>2026-04-25T11:20:51.476Z</time></trkpt><trkpt lat="44.1061134" lon="11.98167"><ele>129.0</ele><time>2026-04-25T11:20:53.482Z</time></trkpt><trkpt lat="44.1061782" lon="11.9816699"><ele>129.0</ele><time>2026-04-25T11:20:54.476Z</time></trkpt><trkpt lat="44.106252" lon="11.9816665"><ele>129.0</ele><time>2026-04-25T11:20:55.478Z</time></trkpt><trkpt lat="44.1063258" lon="11.9816504"><ele>129.0</ele><time>2026-04-25T11:20:56.476Z</time></trkpt><trkpt lat="44.1063915" lon="11.9816345"><ele>129.0</ele><time>2026-04-25T11:20:57.47Z</time></trkpt><trkpt lat="44.1065029" lon="11.9816152"><ele>129.0</ele><time>2026-04-25T11:20:59.477Z</time></trkpt><trkpt lat="44.1065867" lon="11.9816067"><ele>129.0</ele><time>2026-04-25T11:21:01.473Z</time></trkpt><trkpt lat="44.1066496" lon="11.9816011"><ele>129.0</ele><time>2026-04-25T11:21:03.474Z</time></trkpt><trkpt lat="44.1065736" lon="11.981645"><ele>129.0</ele><time>2026-04-25T11:46:25.463Z</time></trkpt><trkpt lat="44.1066184" lon="11.9815658"><ele>129.0</ele><time>2026-04-25T11:51:24.462Z</time></trkpt><trkpt lat="44.1067369" lon="11.9815315"><ele>129.0</ele><time>2026-04-25T11:51:26.467Z</time></trkpt><trkpt lat="44.1067881" lon="11.9814791"><ele>129.0</ele><time>2026-04-25T11:51:27.467Z</time></trkpt><trkpt lat="44.106817" lon="11.9813079"><ele>129.0</ele><time>2026-04-25T11:51:29.475Z</time></trkpt><trkpt lat="44.1068057" lon="11.9811967"><ele>129.0</ele><time>2026-04-25T11:51:30.465Z</time></trkpt><trkpt lat="44.1067915" lon="11.9810893"><ele>129.0</ele><time>2026-04-25T11:51:31.464Z</time></trkpt><trkpt lat="44.1067651" lon="11.9809793"><ele>129.0</ele><time>2026-04-25T11:51:32.46Z</time></trkpt><trkpt lat="44.1067445" lon="11.9808869"><ele>129.0</ele><time>2026-04-25T11:51:33.464Z</time></trkpt><trkpt lat="44.1067185" lon="11.9807509"><ele>129.0</ele><time>2026-04-25T11:51:35.469Z</time></trkpt><trkpt lat="44.1066725" lon="11.9805992"><ele>129.0</ele><time>2026-04-25T11:51:37.46Z</time></trkpt><trkpt lat="44.1066165" lon="11.9805477"><ele>129.0</ele><time>2026-04-25T11:51:38.47Z</time></trkpt><trkpt lat="44.1064923" lon="11.9805247"><ele>129.85714285714283</ele><time>2026-04-25T11:51:40.469Z</time></trkpt><trkpt lat="44.1064283" lon="11.980542"><ele>130.71428571428572</ele><time>2026-04-25T11:51:41.463Z</time></trkpt><trkpt lat="44.1063457" lon="11.9805731"><ele>131.57142857142856</ele><time>2026-04-25T11:51:43.46Z</time></trkpt><trkpt lat="44.1062724" lon="11.9805886"><ele>132.42857142857142</ele><time>2026-04-25T11:51:45.461Z</time></trkpt><trkpt lat="44.1062057" lon="11.9806125"><ele>133.28571428571428</ele><time>2026-04-25T11:51:46.458Z</time></trkpt><trkpt lat="44.106124" lon="11.9806336"><ele>134.14285714285714</ele><time>2026-04-25T11:51:47.469Z</time></trkpt><trkpt lat="44.1060528" lon="11.9806517"><ele>135.0</ele><time>2026-04-25T11:51:48.469Z</time></trkpt><trkpt lat="44.1059316" lon="11.9806756"><ele>135.0</ele><time>2026-04-25T11:51:50.459Z</time></trkpt><trkpt lat="44.1058687" lon="11.9806819"><ele>135.0</ele><time>2026-04-25T11:51:51.474Z</time></trkpt><trkpt lat="44.1058054" lon="11.9806814"><ele>135.0</ele><time>2026-04-25T11:51:52.47Z</time></trkpt><trkpt lat="44.1056935" lon="11.9806223"><ele>135.0</ele><time>2026-04-25T11:51:54.465Z</time></trkpt><trkpt lat="44.1056301" lon="11.9805548"><ele>135.0</ele><time>2026-04-25T11:51:55.473Z</time></trkpt><trkpt lat="44.1055729" lon="11.9804729"><ele>135.0</ele><time>2026-04-25T11:51:56.47Z</time></trkpt><trkpt lat="44.1055296" lon="11.9804085"><ele>134.16666666666666</ele><time>2026-04-25T11:51:57.474Z</time></trkpt><trkpt lat="44.1054585" lon="11.9803412"><ele>133.33333333333334</ele><time>2026-04-25T11:51:59.468Z</time></trkpt><trkpt lat="44.1053931" lon="11.9802943"><ele>132.5</ele><time>2026-04-25T11:52:01.469Z</time></trkpt><trkpt lat="44.1052698" lon="11.9802554"><ele>131.66666666666669</ele><time>2026-04-25T11:52:03.465Z</time></trkpt><trkpt lat="44.1052042" lon="11.9802306"><ele>130.83333333333334</ele><time>2026-04-25T11:52:04.484Z</time></trkpt><trkpt lat="44.1051364" lon="11.9802014"><ele>130.0</ele><time>2026-04-25T11:52:05.467Z</time></trkpt><trkpt lat="44.1050717" lon="11.9801507"><ele>130.0</ele><time>2026-04-25T11:52:06.478Z</time></trkpt><trkpt lat="44.1050093" lon="11.9801001"><ele>130.0</ele><time>2026-04-25T11:52:07.47Z</time></trkpt><trkpt lat="44.1049497" lon="11.9800372"><ele>130.0</ele><time>2026-04-25T11:52:08.463Z</time></trkpt><trkpt lat="44.1048927" lon="11.9799613"><ele>130.0</ele><time>2026-04-25T11:52:09.47Z</time></trkpt><trkpt lat="44.1048401" lon="11.9798573"><ele>130.0</ele><time>2026-04-25T11:52:10.47Z</time></trkpt><trkpt lat="44.104801" lon="11.9797509"><ele>130.0</ele><time>2026-04-25T11:52:11.459Z</time></trkpt><trkpt lat="44.1047694" lon="11.9796421"><ele>131.6</ele><time>2026-04-25T11:52:12.454Z</time></trkpt><trkpt lat="44.1047567" lon="11.9795425"><ele>133.2</ele><time>2026-04-25T11:52:13.477Z</time></trkpt><trkpt lat="44.1047955" lon="11.9793905"><ele>134.8</ele><time>2026-04-25T11:52:15.465Z</time></trkpt><trkpt lat="44.1048671" lon="11.9792459"><ele>136.4</ele><time>2026-04-25T11:52:17.469Z</time></trkpt><trkpt lat="44.104904" lon="11.9791575"><ele>138.0</ele><time>2026-04-25T11:52:18.467Z</time></trkpt><trkpt lat="44.1049357" lon="11.9790569"><ele>141.4</ele><time>2026-04-25T11:52:19.468Z</time></trkpt><trkpt lat="44.1049558" lon="11.9789498"><ele>144.8</ele><time>2026-04-25T11:52:20.471Z</time></trkpt><trkpt lat="44.1049664" lon="11.9788387"><ele>148.2</ele><time>2026-04-25T11:52:21.465Z</time></trkpt><trkpt lat="44.1049429" lon="11.978707"><ele>151.6</ele><time>2026-04-25T11:52:23.461Z</time></trkpt><trkpt lat="44.1048544" lon="11.9786796"><ele>155.0</ele><time>2026-04-25T11:52:25.464Z</time></trkpt><trkpt lat="44.1047176" lon="11.9787323"><ele>155.83333333333331</ele><time>2026-04-25T11:52:27.46Z</time></trkpt><trkpt lat="44.1046366" lon="11.9787428"><ele>156.66666666666666</ele><time>2026-04-25T11:52:28.471Z</time></trkpt><trkpt lat="44.1045673" lon="11.9787208"><ele>157.5</ele><time>2026-04-25T11:52:29.481Z</time></trkpt><trkpt lat="44.1045009" lon="11.9786856"><ele>158.33333333333334</ele><time>2026-04-25T11:52:30.469Z</time></trkpt><trkpt lat="44.1044328" lon="11.9786276"><ele>159.16666666666669</ele><time>2026-04-25T11:52:31.465Z</time></trkpt><trkpt lat="44.1043563" lon="11.9785586"><ele>160.0</ele><time>2026-04-25T11:52:32.471Z</time></trkpt><trkpt lat="44.1042768" lon="11.9784788"><ele>160.0</ele><time>2026-04-25T11:52:33.475Z</time></trkpt><trkpt lat="44.1041988" lon="11.978386"><ele>160.0</ele><time>2026-04-25T11:52:34.474Z</time></trkpt><trkpt lat="44.1041244" lon="11.9783026"><ele>160.0</ele><time>2026-04-25T11:52:35.471Z</time></trkpt><trkpt lat="44.1040537" lon="11.9782266"><ele>160.0</ele><time>2026-04-25T11:52:36.465Z</time></trkpt><trkpt lat="44.1040042" lon="11.9781668"><ele>160.0</ele><time>2026-04-25T11:52:37.466Z</time></trkpt><trkpt lat="44.1039308" lon="11.9781008"><ele>160.0</ele><time>2026-04-25T11:52:39.471Z</time></trkpt><trkpt lat="44.1038937" lon="11.9780095"><ele>160.4</ele><time>2026-04-25T11:52:43.473Z</time></trkpt><trkpt lat="44.1039586" lon="11.9779621"><ele>160.8</ele><time>2026-04-25T11:52:46.466Z</time></trkpt><trkpt lat="44.1040473" lon="11.9778906"><ele>161.2</ele><time>2026-04-25T11:52:48.467Z</time></trkpt><trkpt lat="44.1041515" lon="11.9778121"><ele>161.6</ele><time>2026-04-25T11:52:50.468Z</time></trkpt><trkpt lat="44.1042429" lon="11.9777234"><ele>162.0</ele><time>2026-04-25T11:52:52.471Z</time></trkpt><trkpt lat="44.1043162" lon="11.9776339"><ele>164.66666666666666</ele><time>2026-04-25T11:52:54.487Z</time></trkpt><trkpt lat="44.1044028" lon="11.9775327"><ele>167.33333333333334</ele><time>2026-04-25T11:52:56.465Z</time></trkpt><trkpt lat="44.1044767" lon="11.9774145"><ele>170.0</ele><time>2026-04-25T11:52:58.475Z</time></trkpt><trkpt lat="44.1045063" lon="11.9773333"><ele>172.66666666666669</ele><time>2026-04-25T11:52:59.467Z</time></trkpt><trkpt lat="44.1045314" lon="11.9772433"><ele>175.33333333333334</ele><time>2026-04-25T11:53:00.47Z</time></trkpt><trkpt lat="44.1045546" lon="11.9771531"><ele>178.0</ele><time>2026-04-25T11:53:01.47Z</time></trkpt><trkpt lat="44.1045799" lon="11.9770455"><ele>180.5</ele><time>2026-04-25T11:53:02.473Z</time></trkpt><trkpt lat="44.1046053" lon="11.9769348"><ele>183.0</ele><time>2026-04-25T11:53:03.471Z</time></trkpt><trkpt lat="44.1046312" lon="11.9768254"><ele>185.5</ele><time>2026-04-25T11:53:04.465Z</time></trkpt><trkpt lat="44.104652" lon="11.9767113"><ele>188.0</ele><time>2026-04-25T11:53:05.473Z</time></trkpt><trkpt lat="44.1046774" lon="11.9766025"><ele>190.49999999999997</ele><time>2026-04-25T11:53:06.467Z</time></trkpt><trkpt lat="44.1047005" lon="11.9764986"><ele>193.0</ele><time>2026-04-25T11:53:07.475Z</time></trkpt><trkpt lat="44.1047196" lon="11.9764055"><ele>196.4</ele><time>2026-04-25T11:53:08.458Z</time></trkpt><trkpt lat="44.1047698" lon="11.9762925"><ele>199.8</ele><time>2026-04-25T11:53:10.471Z</time></trkpt><trkpt lat="44.1048656" lon="11.9762018"><ele>203.2</ele><time>2026-04-25T11:53:12.462Z</time></trkpt><trkpt lat="44.1049254" lon="11.9761549"><ele>206.6</ele><time>2026-04-25T11:53:13.466Z</time></trkpt><trkpt lat="44.1050065" lon="11.9760623"><ele>210.0</ele><time>2026-04-25T11:53:15.467Z</time></trkpt><trkpt lat="44.1050626" lon="11.9759099"><ele>213.2</ele><time>2026-04-25T11:53:17.47Z</time></trkpt><trkpt lat="44.1050621" lon="11.9757684"><ele>216.4</ele><time>2026-04-25T11:53:19.468Z</time></trkpt><trkpt lat="44.105016" lon="11.9756866"><ele>219.60000000000002</ele><time>2026-04-25T11:53:21.466Z</time></trkpt><trkpt lat="44.1049677" lon="11.9755702"><ele>222.8</ele><time>2026-04-25T11:53:23.465Z</time></trkpt><trkpt lat="44.1049208" lon="11.9754614"><ele>226.0</ele><time>2026-04-25T11:53:25.465Z</time></trkpt><trkpt lat="44.1048819" lon="11.975345"><ele>226.0</ele><time>2026-04-25T11:53:27.465Z</time></trkpt><trkpt lat="44.1048471" lon="11.9752163"><ele>226.00000000000003</ele><time>2026-04-25T11:53:29.462Z</time></trkpt><trkpt lat="44.1048083" lon="11.9750806"><ele>226.00000000000003</ele><time>2026-04-25T11:53:31.474Z</time></trkpt><trkpt lat="44.1047681" lon="11.9749386"><ele>226.0</ele><time>2026-04-25T11:53:33.472Z</time></trkpt><trkpt lat="44.1047293" lon="11.974815"><ele>226.0</ele><time>2026-04-25T11:53:35.476Z</time></trkpt><trkpt lat="44.1047164" lon="11.9746999"><ele>225.99999999999997</ele><time>2026-04-25T11:53:37.461Z</time></trkpt><trkpt lat="44.1047309" lon="11.9748028"><ele>226.0</ele><time>2026-04-25T11:58:12.482Z</time></trkpt><trkpt lat="44.1047487" lon="11.9749293"><ele>226.0</ele><time>2026-04-25T11:58:16.461Z</time></trkpt><trkpt lat="44.1047762" lon="11.9750084"><ele>226.0</ele><time>2026-04-25T11:58:18.464Z</time></trkpt><trkpt lat="44.1048067" lon="11.975122"><ele>225.99999999999997</ele><time>2026-04-25T11:58:21.471Z</time></trkpt><trkpt lat="44.1048355" lon="11.9752091"><ele>226.0</ele><time>2026-04-25T11:58:23.475Z</time></trkpt><trkpt lat="44.1048654" lon="11.9753052"><ele>225.99999999999997</ele><time>2026-04-25T11:58:25.469Z</time></trkpt><trkpt lat="44.1048989" lon="11.9754139"><ele>226.0</ele><time>2026-04-25T11:58:27.466Z</time></trkpt><trkpt lat="44.1049213" lon="11.975503"><ele>226.0</ele><time>2026-04-25T11:58:29.463Z</time></trkpt><trkpt lat="44.1049583" lon="11.975582"><ele>226.0</ele><time>2026-04-25T11:58:33.466Z</time></trkpt><trkpt lat="44.1049997" lon="11.9756633"><ele>225.99999999999997</ele><time>2026-04-25T11:58:37.457Z</time></trkpt><trkpt lat="44.1050518" lon="11.9757468"><ele>226.0</ele><time>2026-04-25T11:58:57.47Z</time></trkpt><trkpt lat="44.1050711" lon="11.9758726"><ele>222.8</ele><time>2026-04-25T11:59:00.464Z</time></trkpt><trkpt lat="44.1050385" lon="11.9760063"><ele>219.60000000000002</ele><time>2026-04-25T11:59:02.449Z</time></trkpt><trkpt lat="44.1049707" lon="11.9761254"><ele>216.4</ele><time>2026-04-25T11:59:04.475Z</time></trkpt><trkpt lat="44.1048765" lon="11.9762039"><ele>213.2</ele><time>2026-04-25T11:59:06.484Z</time></trkpt><trkpt lat="44.1047875" lon="11.9762611"><ele>210.0</ele><time>2026-04-25T11:59:08.462Z</time></trkpt><trkpt lat="44.1047213" lon="11.9763715"><ele>210.0</ele><time>2026-04-25T11:59:10.467Z</time></trkpt><trkpt lat="44.1046849" lon="11.9765512"><ele>210.0</ele><time>2026-04-25T11:59:12.471Z</time></trkpt><trkpt lat="44.1046671" lon="11.9766398"><ele>210.0</ele><time>2026-04-25T11:59:13.471Z</time></trkpt><trkpt lat="44.1046476" lon="11.9767362"><ele>210.0</ele><time>2026-04-25T11:59:14.473Z</time></trkpt><trkpt lat="44.1046244" lon="11.976827"><ele>210.0</ele><time>2026-04-25T11:59:15.487Z</time></trkpt><trkpt lat="44.1045837" lon="11.9769921"><ele>207.16666666666666</ele><time>2026-04-25T11:59:17.467Z</time></trkpt><trkpt lat="44.1045642" lon="11.9770778"><ele>204.33333333333331</ele><time>2026-04-25T11:59:18.48Z</time></trkpt><trkpt lat="44.1045454" lon="11.9771617"><ele>201.5</ele><time>2026-04-25T11:59:19.463Z</time></trkpt><trkpt lat="44.1045255" lon="11.9772457"><ele>198.66666666666666</ele><time>2026-04-25T11:59:20.471Z</time></trkpt><trkpt lat="44.1044837" lon="11.9774034"><ele>195.83333333333331</ele><time>2026-04-25T11:59:22.478Z</time></trkpt><trkpt lat="44.1044191" lon="11.9775268"><ele>193.0</ele><time>2026-04-25T11:59:24.48Z</time></trkpt><trkpt lat="44.1043277" lon="11.9776222"><ele>190.49999999999997</ele><time>2026-04-25T11:59:26.475Z</time></trkpt><trkpt lat="44.1042505" lon="11.9777094"><ele>188.0</ele><time>2026-04-25T11:59:28.489Z</time></trkpt><trkpt lat="44.1041817" lon="11.9777958"><ele>185.5</ele><time>2026-04-25T11:59:30.479Z</time></trkpt><trkpt lat="44.1041148" lon="11.9778623"><ele>183.0</ele><time>2026-04-25T11:59:32.488Z</time></trkpt><trkpt lat="44.1040406" lon="11.9779136"><ele>180.5</ele><time>2026-04-25T11:59:34.471Z</time></trkpt><trkpt lat="44.1039706" lon="11.9779565"><ele>178.0</ele><time>2026-04-25T11:59:36.474Z</time></trkpt><trkpt lat="44.1038954" lon="11.9780108"><ele>178.0</ele><time>2026-04-25T11:59:39.476Z</time></trkpt><trkpt lat="44.1039195" lon="11.9781002"><ele>178.0</ele><time>2026-04-25T11:59:43.471Z</time></trkpt><trkpt lat="44.1039813" lon="11.9781463"><ele>178.0</ele><time>2026-04-25T11:59:45.467Z</time></trkpt><trkpt lat="44.1040727" lon="11.9782218"><ele>178.0</ele><time>2026-04-25T11:59:47.472Z</time></trkpt><trkpt lat="44.1041608" lon="11.9783113"><ele>178.0</ele><time>2026-04-25T11:59:49.465Z</time></trkpt><trkpt lat="44.1042448" lon="11.9784093"><ele>174.4</ele><time>2026-04-25T11:59:51.478Z</time></trkpt><trkpt lat="44.1043282" lon="11.9784924"><ele>170.8</ele><time>2026-04-25T11:59:53.483Z</time></trkpt><trkpt lat="44.1044042" lon="11.9785746"><ele>167.2</ele><time>2026-04-25T11:59:55.465Z</time></trkpt><trkpt lat="44.1044965" lon="11.9786621"><ele>163.6</ele><time>2026-04-25T11:59:57.465Z</time></trkpt><trkpt lat="44.1045918" lon="11.97872"><ele>160.0</ele><time>2026-04-25T11:59:59.476Z</time></trkpt><trkpt lat="44.104695" lon="11.9787403"><ele>160.0</ele><time>2026-04-25T12:00:01.462Z</time></trkpt><trkpt lat="44.1048049" lon="11.9787082"><ele>160.0</ele><time>2026-04-25T12:00:03.476Z</time></trkpt><trkpt lat="44.1049065" lon="11.9786907"><ele>160.0</ele><time>2026-04-25T12:00:05.453Z</time></trkpt><trkpt lat="44.1049771" lon="11.9787786"><ele>160.0</ele><time>2026-04-25T12:00:07.463Z</time></trkpt><trkpt lat="44.1049718" lon="11.9789165"><ele>160.0</ele><time>2026-04-25T12:00:09.47Z</time></trkpt><trkpt lat="44.1049498" lon="11.9790638"><ele>156.6</ele><time>2026-04-25T12:00:11.463Z</time></trkpt><trkpt lat="44.1049137" lon="11.9792089"><ele>153.2</ele><time>2026-04-25T12:00:13.462Z</time></trkpt><trkpt lat="44.1048471" lon="11.9793293"><ele>149.8</ele><time>2026-04-25T12:00:15.458Z</time></trkpt><trkpt lat="44.1047839" lon="11.9794358"><ele>146.4</ele><time>2026-04-25T12:00:17.461Z</time></trkpt><trkpt lat="44.104748" lon="11.9795515"><ele>143.0</ele><time>2026-04-25T12:00:19.464Z</time></trkpt><trkpt lat="44.1047728" lon="11.9796846"><ele>143.0</ele><time>2026-04-25T12:00:21.47Z</time></trkpt><trkpt lat="44.1048275" lon="11.9798223"><ele>143.0</ele><time>2026-04-25T12:00:23.477Z</time></trkpt><trkpt lat="44.1048666" lon="11.9798971"><ele>143.0</ele><time>2026-04-25T12:00:24.464Z</time></trkpt><trkpt lat="44.1049411" lon="11.9800027"><ele>143.0</ele><time>2026-04-25T12:00:26.46Z</time></trkpt><trkpt lat="44.1050079" lon="11.9800732"><ele>143.0</ele><time>2026-04-25T12:00:28.459Z</time></trkpt><trkpt lat="44.1050921" lon="11.9801281"><ele>140.83333333333331</ele><time>2026-04-25T12:00:31.46Z</time></trkpt><trkpt lat="44.1051779" lon="11.9801845"><ele>138.66666666666666</ele><time>2026-04-25T12:00:33.472Z</time></trkpt><trkpt lat="44.1052906" lon="11.9802372"><ele>136.5</ele><time>2026-04-25T12:00:35.47Z</time></trkpt><trkpt lat="44.1053582" lon="11.9802598"><ele>134.33333333333334</ele><time>2026-04-25T12:00:36.471Z</time></trkpt><trkpt lat="44.1054203" lon="11.9802985"><ele>132.16666666666669</ele><time>2026-04-25T12:00:37.476Z</time></trkpt><trkpt lat="44.1054788" lon="11.9803617"><ele>130.0</ele><time>2026-04-25T12:00:38.465Z</time></trkpt><trkpt lat="44.1055325" lon="11.9804253"><ele>130.0</ele><time>2026-04-25T12:00:39.483Z</time></trkpt><trkpt lat="44.1055773" lon="11.9804925"><ele>130.0</ele><time>2026-04-25T12:00:40.468Z</time></trkpt><trkpt lat="44.1056283" lon="11.9805583"><ele>130.0</ele><time>2026-04-25T12:00:41.467Z</time></trkpt><trkpt lat="44.1057287" lon="11.9806385"><ele>130.0</ele><time>2026-04-25T12:00:43.473Z</time></trkpt><trkpt lat="44.1058117" lon="11.9806442"><ele>130.0</ele><time>2026-04-25T12:00:45.461Z</time></trkpt><trkpt lat="44.1058746" lon="11.980636"><ele>130.0</ele><time>2026-04-25T12:00:47.458Z</time></trkpt><trkpt lat="44.105946" lon="11.9806259"><ele>131.0</ele><time>2026-04-25T12:00:49.467Z</time></trkpt><trkpt lat="44.1060626" lon="11.9805989"><ele>132.0</ele><time>2026-04-25T12:00:51.466Z</time></trkpt><trkpt lat="44.1061736" lon="11.9805819"><ele>133.0</ele><time>2026-04-25T12:00:53.457Z</time></trkpt><trkpt lat="44.1062873" lon="11.9805492"><ele>134.0</ele><time>2026-04-25T12:00:55.462Z</time></trkpt><trkpt lat="44.1063615" lon="11.9805344"><ele>135.0</ele><time>2026-04-25T12:00:56.458Z</time></trkpt><trkpt lat="44.1064267" lon="11.9805217"><ele>135.0</ele><time>2026-04-25T12:00:57.465Z</time></trkpt><trkpt lat="44.1065467" lon="11.9805181"><ele>135.0</ele><time>2026-04-25T12:00:59.47Z</time></trkpt><trkpt lat="44.1066532" lon="11.9805669"><ele>135.0</ele><time>2026-04-25T12:01:01.477Z</time></trkpt><trkpt lat="44.1067006" lon="11.9807294"><ele>135.0</ele><time>2026-04-25T12:01:03.47Z</time></trkpt><trkpt lat="44.1067273" lon="11.9808859"><ele>133.8</ele><time>2026-04-25T12:01:05.454Z</time></trkpt><trkpt lat="44.1067654" lon="11.9810444"><ele>132.6</ele><time>2026-04-25T12:01:07.471Z</time></trkpt><trkpt lat="44.1067925" lon="11.9812008"><ele>131.4</ele><time>2026-04-25T12:01:09.453Z</time></trkpt><trkpt lat="44.1068156" lon="11.9813122"><ele>130.2</ele><time>2026-04-25T12:01:11.472Z</time></trkpt><trkpt lat="44.1068351" lon="11.9814119"><ele>129.0</ele><time>2026-04-25T12:01:13.464Z</time></trkpt><trkpt lat="44.1068148" lon="11.9815124"><ele>129.0</ele><time>2026-04-25T12:01:17.454Z</time></trkpt><trkpt lat="44.106707" lon="11.9815424"><ele>129.0</ele><time>2026-04-25T12:01:19.48Z</time></trkpt><trkpt lat="44.1066499" lon="11.9815008"><ele>129.0</ele><time>2026-04-25T12:01:20.453Z</time></trkpt><trkpt lat="44.1065827" lon="11.9815035"><ele>129.0</ele><time>2026-04-25T12:01:21.461Z</time></trkpt><trkpt lat="44.1064934" lon="11.9815369"><ele>129.0</ele><time>2026-04-25T12:01:22.461Z</time></trkpt><trkpt lat="44.1063993" lon="11.9815746"><ele>129.0</ele><time>2026-04-25T12:01:23.46Z</time></trkpt><trkpt lat="44.1063153" lon="11.9816096"><ele>129.0</ele><time>2026-04-25T12:01:24.474Z</time></trkpt><trkpt lat="44.1062323" lon="11.9816303"><ele>129.0</ele><time>2026-04-25T12:01:25.459Z</time></trkpt><trkpt lat="44.1061461" lon="11.9816505"><ele>129.0</ele><time>2026-04-25T12:01:26.468Z</time></trkpt><trkpt lat="44.1060559" lon="11.9816616"><ele>129.0</ele><time>2026-04-25T12:01:27.463Z</time></trkpt><trkpt lat="44.1059589" lon="11.9816686"><ele>129.0</ele><time>2026-04-25T12:01:28.457Z</time></trkpt><trkpt lat="44.1058579" lon="11.9816754"><ele>129.0</ele><time>2026-04-25T12:01:29.456Z</time></trkpt><trkpt lat="44.105758" lon="11.9816769"><ele>129.0</ele><time>2026-04-25T12:01:30.472Z</time></trkpt><trkpt lat="44.1056568" lon="11.9816726"><ele>129.0</ele><time>2026-04-25T12:01:31.473Z</time></trkpt><trkpt lat="44.1055597" lon="11.9816705"><ele>129.0</ele><time>2026-04-25T12:01:32.477Z</time></trkpt><trkpt lat="44.1054603" lon="11.9816675"><ele>129.0</ele><time>2026-04-25T12:01:33.46Z</time></trkpt><trkpt lat="44.1053606" lon="11.9816657"><ele>129.0</ele><time>2026-04-25T12:01:34.46Z</time></trkpt><trkpt lat="44.1052571" lon="11.9816624"><ele>129.0</ele><time>2026-04-25T12:01:35.465Z</time></trkpt><trkpt lat="44.1051565" lon="11.9816552"><ele>129.0</ele><time>2026-04-25T12:01:36.462Z</time></trkpt><trkpt lat="44.1050546" lon="11.9816498"><ele>129.0</ele><time>2026-04-25T12:01:37.484Z</time></trkpt><trkpt lat="44.1049533" lon="11.9816423"><ele>129.0</ele><time>2026-04-25T12:01:38.462Z</time></trkpt><trkpt lat="44.1048556" lon="11.9816391"><ele>129.4</ele><time>2026-04-25T12:01:39.465Z</time></trkpt><trkpt lat="44.1047549" lon="11.9816277"><ele>129.8</ele><time>2026-04-25T12:01:40.472Z</time></trkpt><trkpt lat="44.1046586" lon="11.9816151"><ele>130.2</ele><time>2026-04-25T12:01:41.479Z</time></trkpt><trkpt lat="44.1045581" lon="11.981607"><ele>130.6</ele><time>2026-04-25T12:01:42.467Z</time></trkpt><trkpt lat="44.104459" lon="11.9816012"><ele>131.0</ele><time>2026-04-25T12:01:43.468Z</time></trkpt><trkpt lat="44.1043614" lon="11.9816"><ele>131.0</ele><time>2026-04-25T12:01:44.462Z</time></trkpt><trkpt lat="44.1042584" lon="11.9815988"><ele>131.0</ele><time>2026-04-25T12:01:45.468Z</time></trkpt><trkpt lat="44.1041596" lon="11.9816013"><ele>131.0</ele><time>2026-04-25T12:01:46.465Z</time></trkpt><trkpt lat="44.104052" lon="11.9815993"><ele>131.0</ele><time>2026-04-25T12:01:47.47Z</time></trkpt><trkpt lat="44.1039443" lon="11.9815997"><ele>131.0</ele><time>2026-04-25T12:01:48.466Z</time></trkpt><trkpt lat="44.1038356" lon="11.9815951"><ele>131.2</ele><time>2026-04-25T12:01:49.461Z</time></trkpt><trkpt lat="44.1037239" lon="11.9815981"><ele>131.39999999999998</ele><time>2026-04-25T12:01:50.469Z</time></trkpt><trkpt lat="44.1036192" lon="11.9815928"><ele>131.6</ele><time>2026-04-25T12:01:51.469Z</time></trkpt><trkpt lat="44.1035182" lon="11.9815884"><ele>131.79999999999998</ele><time>2026-04-25T12:01:52.465Z</time></trkpt><trkpt lat="44.1034146" lon="11.9815816"><ele>132.0</ele><time>2026-04-25T12:01:53.466Z</time></trkpt><trkpt lat="44.1033148" lon="11.9815801"><ele>132.0</ele><time>2026-04-25T12:01:54.467Z</time></trkpt><trkpt lat="44.1032125" lon="11.9815859"><ele>132.0</ele><time>2026-04-25T12:01:55.464Z</time></trkpt><trkpt lat="44.1031041" lon="11.9815843"><ele>132.0</ele><time>2026-04-25T12:01:56.469Z</time></trkpt><trkpt lat="44.1029932" lon="11.9815824"><ele>132.0</ele><time>2026-04-25T12:01:57.467Z</time></trkpt><trkpt lat="44.1028824" lon="11.9815804"><ele>132.0</ele><time>2026-04-25T12:01:58.465Z</time></trkpt><trkpt lat="44.1027751" lon="11.9815891"><ele>132.0</ele><time>2026-04-25T12:01:59.461Z</time></trkpt><trkpt lat="44.1026749" lon="11.981585"><ele>132.0</ele><time>2026-04-25T12:02:00.482Z</time></trkpt><trkpt lat="44.1025887" lon="11.9815749"><ele>132.0</ele><time>2026-04-25T12:02:01.468Z</time></trkpt><trkpt lat="44.1025202" lon="11.9815593"><ele>132.0</ele><time>2026-04-25T12:02:02.459Z</time></trkpt><trkpt lat="44.1024607" lon="11.9815225"><ele>132.0</ele><time>2026-04-25T12:02:03.464Z</time></trkpt><trkpt lat="44.1024134" lon="11.9814531"><ele>132.0</ele><time>2026-04-25T12:02:04.466Z</time></trkpt><trkpt lat="44.102376" lon="11.9813614"><ele>132.79999999999998</ele><time>2026-04-25T12:02:05.456Z</time></trkpt><trkpt lat="44.1023634" lon="11.9812518"><ele>133.6</ele><time>2026-04-25T12:02:06.466Z</time></trkpt><trkpt lat="44.1023578" lon="11.981126"><ele>134.39999999999998</ele><time>2026-04-25T12:02:07.467Z</time></trkpt><trkpt lat="44.1023637" lon="11.9809803"><ele>135.2</ele><time>2026-04-25T12:02:08.469Z</time></trkpt><trkpt lat="44.1023622" lon="11.9808237"><ele>136.0</ele><time>2026-04-25T12:02:09.468Z</time></trkpt><trkpt lat="44.1023644" lon="11.9806629"><ele>137.75</ele><time>2026-04-25T12:02:10.463Z</time></trkpt><trkpt lat="44.1023633" lon="11.9804959"><ele>139.5</ele><time>2026-04-25T12:02:11.462Z</time></trkpt><trkpt lat="44.1023624" lon="11.9803251"><ele>141.25</ele><time>2026-04-25T12:02:12.458Z</time></trkpt><trkpt lat="44.1023594" lon="11.9801487"><ele>143.0</ele><time>2026-04-25T12:02:13.469Z</time></trkpt><trkpt lat="44.1023566" lon="11.9799661"><ele>144.75</ele><time>2026-04-25T12:02:14.468Z</time></trkpt><trkpt lat="44.1023497" lon="11.9797705"><ele>146.5</ele><time>2026-04-25T12:02:15.463Z</time></trkpt><trkpt lat="44.102341" lon="11.979579"><ele>148.25</ele><time>2026-04-25T12:02:16.464Z</time></trkpt><trkpt lat="44.1023344" lon="11.979387"><ele>150.0</ele><time>2026-04-25T12:02:17.461Z</time></trkpt><trkpt lat="44.1023242" lon="11.9791941"><ele>149.25</ele><time>2026-04-25T12:02:18.466Z</time></trkpt><trkpt lat="44.1023135" lon="11.9789974"><ele>148.5</ele><time>2026-04-25T12:02:19.463Z</time></trkpt><trkpt lat="44.1023029" lon="11.9787992"><ele>147.75</ele><time>2026-04-25T12:02:20.467Z</time></trkpt><trkpt lat="44.1022938" lon="11.9786065"><ele>147.0</ele><time>2026-04-25T12:02:21.467Z</time></trkpt><trkpt lat="44.1022867" lon="11.9784112"><ele>145.75</ele><time>2026-04-25T12:02:22.464Z</time></trkpt><trkpt lat="44.102275" lon="11.9782328"><ele>144.5</ele><time>2026-04-25T12:02:23.468Z</time></trkpt><trkpt lat="44.1022548" lon="11.9780686"><ele>143.25</ele><time>2026-04-25T12:02:24.461Z</time></trkpt><trkpt lat="44.1022178" lon="11.9779025"><ele>142.0</ele><time>2026-04-25T12:02:25.468Z</time></trkpt><trkpt lat="44.1021693" lon="11.9777445"><ele>142.0</ele><time>2026-04-25T12:02:26.465Z</time></trkpt><trkpt lat="44.1021115" lon="11.977593"><ele>142.0</ele><time>2026-04-25T12:02:27.462Z</time></trkpt><trkpt lat="44.102053" lon="11.9774394"><ele>142.0</ele><time>2026-04-25T12:02:28.464Z</time></trkpt><trkpt lat="44.1019994" lon="11.9772808"><ele>142.0</ele><time>2026-04-25T12:02:29.454Z</time></trkpt><trkpt lat="44.1019442" lon="11.9771178"><ele>142.0</ele><time>2026-04-25T12:02:30.459Z</time></trkpt><trkpt lat="44.1018844" lon="11.9769536"><ele>142.0</ele><time>2026-04-25T12:02:31.467Z</time></trkpt><trkpt lat="44.101822" lon="11.976784"><ele>142.0</ele><time>2026-04-25T12:02:32.473Z</time></trkpt><trkpt lat="44.1017603" lon="11.9766187"><ele>142.0</ele><time>2026-04-25T12:02:33.474Z</time></trkpt><trkpt lat="44.1016991" lon="11.9764509"><ele>143.25</ele><time>2026-04-25T12:02:34.466Z</time></trkpt><trkpt lat="44.1016413" lon="11.9762827"><ele>144.5</ele><time>2026-04-25T12:02:35.465Z</time></trkpt><trkpt lat="44.1015873" lon="11.9761247"><ele>145.75</ele><time>2026-04-25T12:02:36.459Z</time></trkpt><trkpt lat="44.1015466" lon="11.9759862"><ele>147.0</ele><time>2026-04-25T12:02:37.467Z</time></trkpt><trkpt lat="44.1015118" lon="11.9758505"><ele>151.0</ele><time>2026-04-25T12:02:38.461Z</time></trkpt><trkpt lat="44.1014858" lon="11.9757097"><ele>155.0</ele><time>2026-04-25T12:02:39.463Z</time></trkpt><trkpt lat="44.1014755" lon="11.9755566"><ele>159.0</ele><time>2026-04-25T12:02:40.471Z</time></trkpt><trkpt lat="44.1014692" lon="11.975382"><ele>163.0</ele><time>2026-04-25T12:02:41.465Z</time></trkpt><trkpt lat="44.101464" lon="11.9751876"><ele>163.0</ele><time>2026-04-25T12:02:42.455Z</time></trkpt><trkpt lat="44.1014573" lon="11.9749844"><ele>163.0</ele><time>2026-04-25T12:02:43.47Z</time></trkpt><trkpt lat="44.1014481" lon="11.9747651"><ele>163.0</ele><time>2026-04-25T12:02:44.467Z</time></trkpt><trkpt lat="44.101436" lon="11.9745296"><ele>163.0</ele><time>2026-04-25T12:02:45.458Z</time></trkpt><trkpt lat="44.1014268" lon="11.9742818"><ele>163.0</ele><time>2026-04-25T12:02:46.467Z</time></trkpt><trkpt lat="44.1014125" lon="11.974029"><ele>163.0</ele><time>2026-04-25T12:02:47.457Z</time></trkpt><trkpt lat="44.1013988" lon="11.973776"><ele>163.0</ele><time>2026-04-25T12:02:48.463Z</time></trkpt><trkpt lat="44.1013867" lon="11.9735191"><ele>163.0</ele><time>2026-04-25T12:02:49.455Z</time></trkpt><trkpt lat="44.1013804" lon="11.9732792"><ele>163.0</ele><time>2026-04-25T12:02:50.454Z</time></trkpt><trkpt lat="44.1013934" lon="11.9730541"><ele>161.66666666666669</ele><time>2026-04-25T12:02:51.466Z</time></trkpt><trkpt lat="44.1014262" lon="11.9728362"><ele>160.33333333333334</ele><time>2026-04-25T12:02:52.458Z</time></trkpt><trkpt lat="44.1014699" lon="11.972626"><ele>159.0</ele><time>2026-04-25T12:02:53.457Z</time></trkpt><trkpt lat="44.1015183" lon="11.9724211"><ele>159.0</ele><time>2026-04-25T12:02:54.452Z</time></trkpt><trkpt lat="44.1015463" lon="11.9722305"><ele>159.0</ele><time>2026-04-25T12:02:55.462Z</time></trkpt><trkpt lat="44.1015509" lon="11.9720539"><ele>159.0</ele><time>2026-04-25T12:02:56.452Z</time></trkpt><trkpt lat="44.1015259" lon="11.9718508"><ele>159.0</ele><time>2026-04-25T12:02:57.456Z</time></trkpt><trkpt lat="44.1014815" lon="11.9716358"><ele>159.66666666666666</ele><time>2026-04-25T12:02:58.447Z</time></trkpt><trkpt lat="44.1014246" lon="11.9714105"><ele>160.33333333333331</ele><time>2026-04-25T12:02:59.455Z</time></trkpt><trkpt lat="44.1013648" lon="11.9711664"><ele>161.0</ele><time>2026-04-25T12:03:00.452Z</time></trkpt><trkpt lat="44.1013045" lon="11.9709137"><ele>160.0</ele><time>2026-04-25T12:03:01.453Z</time></trkpt><trkpt lat="44.1012415" lon="11.9706722"><ele>159.0</ele><time>2026-04-25T12:03:02.453Z</time></trkpt><trkpt lat="44.1011732" lon="11.970448"><ele>158.0</ele><time>2026-04-25T12:03:03.457Z</time></trkpt><trkpt lat="44.1010799" lon="11.9702432"><ele>158.0</ele><time>2026-04-25T12:03:04.464Z</time></trkpt><trkpt lat="44.1009707" lon="11.9700376"><ele>158.0</ele><time>2026-04-25T12:03:05.464Z</time></trkpt><trkpt lat="44.1008527" lon="11.9698228"><ele>158.0</ele><time>2026-04-25T12:03:06.454Z</time></trkpt><trkpt lat="44.1007227" lon="11.9696271"><ele>161.0</ele><time>2026-04-25T12:03:07.455Z</time></trkpt><trkpt lat="44.1005916" lon="11.9694424"><ele>164.0</ele><time>2026-04-25T12:03:08.452Z</time></trkpt><trkpt lat="44.1004648" lon="11.9692664"><ele>167.0</ele><time>2026-04-25T12:03:09.46Z</time></trkpt><trkpt lat="44.1003456" lon="11.9691069"><ele>167.0</ele><time>2026-04-25T12:03:10.455Z</time></trkpt><trkpt lat="44.1002294" lon="11.9689471"><ele>167.0</ele><time>2026-04-25T12:03:11.461Z</time></trkpt><trkpt lat="44.1001184" lon="11.9687889"><ele>167.0</ele><time>2026-04-25T12:03:12.454Z</time></trkpt><trkpt lat="44.1000089" lon="11.9686358"><ele>167.0</ele><time>2026-04-25T12:03:13.457Z</time></trkpt><trkpt lat="44.0999032" lon="11.9684843"><ele>167.0</ele><time>2026-04-25T12:03:14.458Z</time></trkpt><trkpt lat="44.0998118" lon="11.9683209"><ele>167.0</ele><time>2026-04-25T12:03:15.46Z</time></trkpt><trkpt lat="44.0997378" lon="11.9681465"><ele>167.0</ele><time>2026-04-25T12:03:16.466Z</time></trkpt><trkpt lat="44.0996867" lon="11.9679599"><ele>167.0</ele><time>2026-04-25T12:03:17.464Z</time></trkpt><trkpt lat="44.0996508" lon="11.9677533"><ele>167.0</ele><time>2026-04-25T12:03:18.464Z</time></trkpt><trkpt lat="44.0996282" lon="11.9675299"><ele>167.0</ele><time>2026-04-25T12:03:19.474Z</time></trkpt><trkpt lat="44.0996107" lon="11.9673194"><ele>167.33333333333331</ele><time>2026-04-25T12:03:20.46Z</time></trkpt><trkpt lat="44.099589" lon="11.9671075"><ele>167.66666666666666</ele><time>2026-04-25T12:03:21.455Z</time></trkpt><trkpt lat="44.0995609" lon="11.9669005"><ele>168.0</ele><time>2026-04-25T12:03:22.461Z</time></trkpt><trkpt lat="44.0995401" lon="11.9666868"><ele>168.0</ele><time>2026-04-25T12:03:23.46Z</time></trkpt><trkpt lat="44.0995194" lon="11.9664672"><ele>168.0</ele><time>2026-04-25T12:03:24.461Z</time></trkpt><trkpt lat="44.0994981" lon="11.9662442"><ele>168.0</ele><time>2026-04-25T12:03:25.455Z</time></trkpt><trkpt lat="44.0994751" lon="11.9660306"><ele>169.25</ele><time>2026-04-25T12:03:26.459Z</time></trkpt><trkpt lat="44.0994486" lon="11.9658253"><ele>170.5</ele><time>2026-04-25T12:03:27.459Z</time></trkpt><trkpt lat="44.0994218" lon="11.9656369"><ele>171.75</ele><time>2026-04-25T12:03:28.474Z</time></trkpt><trkpt lat="44.0993889" lon="11.9654735"><ele>173.0</ele><time>2026-04-25T12:03:29.459Z</time></trkpt><trkpt lat="44.0993558" lon="11.9653392"><ele>173.0</ele><time>2026-04-25T12:03:30.45Z</time></trkpt><trkpt lat="44.0993454" lon="11.9652421"><ele>173.0</ele><time>2026-04-25T12:03:31.452Z</time></trkpt><trkpt lat="44.0994089" lon="11.9651312"><ele>173.0</ele><time>2026-04-25T12:03:33.46Z</time></trkpt><trkpt lat="44.0994689" lon="11.9651608"><ele>173.0</ele><time>2026-04-25T12:03:34.469Z</time></trkpt><trkpt lat="44.0995155" lon="11.9652354"><ele>173.0</ele><time>2026-04-25T12:03:35.454Z</time></trkpt><trkpt lat="44.0995531" lon="11.9653396"><ele>173.0</ele><time>2026-04-25T12:03:36.452Z</time></trkpt><trkpt lat="44.0995899" lon="11.9654819"><ele>173.0</ele><time>2026-04-25T12:03:37.458Z</time></trkpt><trkpt lat="44.0996544" lon="11.9656407"><ele>173.0</ele><time>2026-04-25T12:03:38.462Z</time></trkpt><trkpt lat="44.0997315" lon="11.9658168"><ele>173.0</ele><time>2026-04-25T12:03:39.453Z</time></trkpt><trkpt lat="44.0998079" lon="11.9659963"><ele>173.0</ele><time>2026-04-25T12:03:40.459Z</time></trkpt><trkpt lat="44.0998615" lon="11.9661439"><ele>172.0</ele><time>2026-04-25T12:03:41.459Z</time></trkpt><trkpt lat="44.0999023" lon="11.9662627"><ele>171.0</ele><time>2026-04-25T12:03:42.465Z</time></trkpt><trkpt lat="44.0999524" lon="11.9663333"><ele>170.0</ele><time>2026-04-25T12:03:43.458Z</time></trkpt><trkpt lat="44.1000619" lon="11.9663283"><ele>169.0</ele><time>2026-04-25T12:03:45.46Z</time></trkpt><trkpt lat="44.1000865" lon="11.9661642"><ele>168.0</ele><time>2026-04-25T12:03:47.462Z</time></trkpt><trkpt lat="44.1000688" lon="11.9660724"><ele>170.0</ele><time>2026-04-25T12:03:48.466Z</time></trkpt><trkpt lat="44.1000467" lon="11.9659663"><ele>172.0</ele><time>2026-04-25T12:03:49.467Z</time></trkpt><trkpt lat="44.1000355" lon="11.9658574"><ele>174.0</ele><time>2026-04-25T12:03:50.461Z</time></trkpt><trkpt lat="44.1000471" lon="11.9657467"><ele>176.0</ele><time>2026-04-25T12:03:51.457Z</time></trkpt><trkpt lat="44.1000694" lon="11.9656307"><ele>178.0</ele><time>2026-04-25T12:03:52.466Z</time></trkpt><trkpt lat="44.1000906" lon="11.965505"><ele>180.0</ele><time>2026-04-25T12:03:53.45Z</time></trkpt><trkpt lat="44.1000873" lon="11.9653736"><ele>179.6</ele><time>2026-04-25T12:03:54.456Z</time></trkpt><trkpt lat="44.1000627" lon="11.9652338"><ele>179.2</ele><time>2026-04-25T12:03:55.465Z</time></trkpt><trkpt lat="44.1000313" lon="11.9650891"><ele>178.8</ele><time>2026-04-25T12:03:56.468Z</time></trkpt><trkpt lat="44.0999952" lon="11.9649457"><ele>178.4</ele><time>2026-04-25T12:03:57.458Z</time></trkpt><trkpt lat="44.0999566" lon="11.9648073"><ele>178.0</ele><time>2026-04-25T12:03:58.464Z</time></trkpt><trkpt lat="44.0999147" lon="11.9646856"><ele>178.0</ele><time>2026-04-25T12:03:59.466Z</time></trkpt><trkpt lat="44.0998864" lon="11.9645862"><ele>178.0</ele><time>2026-04-25T12:04:00.462Z</time></trkpt><trkpt lat="44.0999335" lon="11.964435"><ele>178.0</ele><time>2026-04-25T12:04:02.459Z</time></trkpt><trkpt lat="44.1000022" lon="11.9644216"><ele>178.0</ele><time>2026-04-25T12:04:03.461Z</time></trkpt><trkpt lat="44.1000615" lon="11.9644589"><ele>178.0</ele><time>2026-04-25T12:04:04.46Z</time></trkpt><trkpt lat="44.1001106" lon="11.9645466"><ele>178.0</ele><time>2026-04-25T12:04:05.464Z</time></trkpt><trkpt lat="44.1001678" lon="11.9646485"><ele>180.4</ele><time>2026-04-25T12:04:06.449Z</time></trkpt><trkpt lat="44.1002139" lon="11.9647474"><ele>182.8</ele><time>2026-04-25T12:04:07.472Z</time></trkpt><trkpt lat="44.1002778" lon="11.9648456"><ele>185.2</ele><time>2026-04-25T12:04:08.461Z</time></trkpt><trkpt lat="44.1003446" lon="11.9649566"><ele>187.6</ele><time>2026-04-25T12:04:09.464Z</time></trkpt><trkpt lat="44.1003878" lon="11.965083"><ele>190.0</ele><time>2026-04-25T12:04:10.456Z</time></trkpt><trkpt lat="44.1004057" lon="11.9652135"><ele>190.0</ele><time>2026-04-25T12:04:11.462Z</time></trkpt><trkpt lat="44.100395" lon="11.9653396"><ele>190.0</ele><time>2026-04-25T12:04:12.477Z</time></trkpt><trkpt lat="44.1003755" lon="11.9654455"><ele>190.0</ele><time>2026-04-25T12:04:13.468Z</time></trkpt><trkpt lat="44.100421" lon="11.9655963"><ele>190.0</ele><time>2026-04-25T12:04:15.461Z</time></trkpt><trkpt lat="44.1004846" lon="11.9656091"><ele>190.0</ele><time>2026-04-25T12:04:16.457Z</time></trkpt><trkpt lat="44.1005458" lon="11.9655773"><ele>190.0</ele><time>2026-04-25T12:04:17.461Z</time></trkpt><trkpt lat="44.1005857" lon="11.9653984"><ele>190.0</ele><time>2026-04-25T12:04:19.479Z</time></trkpt><trkpt lat="44.1005852" lon="11.9652797"><ele>190.0</ele><time>2026-04-25T12:04:20.455Z</time></trkpt><trkpt lat="44.100587" lon="11.9651485"><ele>190.0</ele><time>2026-04-25T12:04:21.459Z</time></trkpt><trkpt lat="44.1005894" lon="11.9650041"><ele>190.0</ele><time>2026-04-25T12:04:22.466Z</time></trkpt><trkpt lat="44.1005877" lon="11.9648587"><ele>190.0</ele><time>2026-04-25T12:04:23.464Z</time></trkpt><trkpt lat="44.1005684" lon="11.9647217"><ele>191.0</ele><time>2026-04-25T12:04:24.467Z</time></trkpt><trkpt lat="44.1005215" lon="11.9646037"><ele>192.0</ele><time>2026-04-25T12:04:25.467Z</time></trkpt><trkpt lat="44.1004487" lon="11.9645043"><ele>193.0</ele><time>2026-04-25T12:04:26.465Z</time></trkpt><trkpt lat="44.1003635" lon="11.9644256"><ele>194.0</ele><time>2026-04-25T12:04:27.464Z</time></trkpt><trkpt lat="44.1002742" lon="11.9643451"><ele>195.0</ele><time>2026-04-25T12:04:28.461Z</time></trkpt><trkpt lat="44.1001984" lon="11.9642613"><ele>194.33333333333334</ele><time>2026-04-25T12:04:29.46Z</time></trkpt><trkpt lat="44.1001386" lon="11.9641741"><ele>193.66666666666666</ele><time>2026-04-25T12:04:30.463Z</time></trkpt><trkpt lat="44.1000907" lon="11.9640755"><ele>193.0</ele><time>2026-04-25T12:04:31.471Z</time></trkpt><trkpt lat="44.1000639" lon="11.9639639"><ele>192.33333333333331</ele><time>2026-04-25T12:04:32.463Z</time></trkpt><trkpt lat="44.1000287" lon="11.9638528"><ele>191.66666666666666</ele><time>2026-04-25T12:04:33.467Z</time></trkpt><trkpt lat="44.0999789" lon="11.9637517"><ele>191.0</ele><time>2026-04-25T12:04:34.463Z</time></trkpt><trkpt lat="44.0999123" lon="11.9636731"><ele>191.0</ele><time>2026-04-25T12:04:35.454Z</time></trkpt><trkpt lat="44.0998163" lon="11.963602"><ele>191.0</ele><time>2026-04-25T12:04:36.465Z</time></trkpt><trkpt lat="44.0996999" lon="11.9635471"><ele>191.0</ele><time>2026-04-25T12:04:37.459Z</time></trkpt><trkpt lat="44.0995791" lon="11.963517"><ele>191.0</ele><time>2026-04-25T12:04:38.468Z</time></trkpt><trkpt lat="44.099458" lon="11.96349"><ele>191.0</ele><time>2026-04-25T12:04:39.467Z</time></trkpt><trkpt lat="44.0993448" lon="11.9634473"><ele>191.0</ele><time>2026-04-25T12:04:40.463Z</time></trkpt><trkpt lat="44.0992433" lon="11.9633812"><ele>191.0</ele><time>2026-04-25T12:04:41.459Z</time></trkpt><trkpt lat="44.0991485" lon="11.9632758"><ele>191.0</ele><time>2026-04-25T12:04:42.468Z</time></trkpt><trkpt lat="44.0990581" lon="11.9631472"><ele>193.5</ele><time>2026-04-25T12:04:43.466Z</time></trkpt><trkpt lat="44.0989818" lon="11.9630114"><ele>196.0</ele><time>2026-04-25T12:04:44.472Z</time></trkpt><trkpt lat="44.0989061" lon="11.9628655"><ele>198.5</ele><time>2026-04-25T12:04:45.478Z</time></trkpt><trkpt lat="44.098847" lon="11.9627276"><ele>201.0</ele><time>2026-04-25T12:04:46.469Z</time></trkpt><trkpt lat="44.0988102" lon="11.9625812"><ele>202.60000000000002</ele><time>2026-04-25T12:04:47.469Z</time></trkpt><trkpt lat="44.0987958" lon="11.9624365"><ele>204.2</ele><time>2026-04-25T12:04:48.469Z</time></trkpt><trkpt lat="44.0987873" lon="11.9622934"><ele>205.8</ele><time>2026-04-25T12:04:49.46Z</time></trkpt><trkpt lat="44.0987709" lon="11.9621505"><ele>207.39999999999998</ele><time>2026-04-25T12:04:50.476Z</time></trkpt><trkpt lat="44.0987168" lon="11.9620143"><ele>209.0</ele><time>2026-04-25T12:04:51.464Z</time></trkpt><trkpt lat="44.0986274" lon="11.9618849"><ele>209.0</ele><time>2026-04-25T12:04:52.474Z</time></trkpt><trkpt lat="44.0985317" lon="11.9617737"><ele>209.0</ele><time>2026-04-25T12:04:53.45Z</time></trkpt><trkpt lat="44.0984424" lon="11.9616592"><ele>209.0</ele><time>2026-04-25T12:04:54.47Z</time></trkpt><trkpt lat="44.0983679" lon="11.9615326"><ele>209.0</ele><time>2026-04-25T12:04:55.461Z</time></trkpt><trkpt lat="44.0983369" lon="11.961393"><ele>211.75</ele><time>2026-04-25T12:04:56.493Z</time></trkpt><trkpt lat="44.0983334" lon="11.961233"><ele>214.5</ele><time>2026-04-25T12:04:57.455Z</time></trkpt><trkpt lat="44.0983482" lon="11.9610669"><ele>217.25</ele><time>2026-04-25T12:04:58.475Z</time></trkpt><trkpt lat="44.0983593" lon="11.9608985"><ele>220.0</ele><time>2026-04-25T12:04:59.469Z</time></trkpt><trkpt lat="44.0983701" lon="11.9607343"><ele>221.4</ele><time>2026-04-25T12:05:00.459Z</time></trkpt><trkpt lat="44.0983729" lon="11.960575"><ele>222.8</ele><time>2026-04-25T12:05:01.466Z</time></trkpt><trkpt lat="44.098383" lon="11.9604248"><ele>224.2</ele><time>2026-04-25T12:05:02.452Z</time></trkpt><trkpt lat="44.0983899" lon="11.9602764"><ele>225.6</ele><time>2026-04-25T12:05:03.459Z</time></trkpt><trkpt lat="44.0983964" lon="11.9601442"><ele>227.0</ele><time>2026-04-25T12:05:04.454Z</time></trkpt><trkpt lat="44.0983974" lon="11.9600227"><ele>227.00000000000003</ele><time>2026-04-25T12:05:05.461Z</time></trkpt><trkpt lat="44.0984088" lon="11.9599221"><ele>227.0</ele><time>2026-04-25T12:05:06.533Z</time></trkpt><trkpt lat="44.0984952" lon="11.9598358"><ele>227.0</ele><time>2026-04-25T12:05:08.462Z</time></trkpt><trkpt lat="44.0985615" lon="11.9598657"><ele>227.0</ele><time>2026-04-25T12:05:09.476Z</time></trkpt><trkpt lat="44.0985967" lon="11.960011"><ele>227.00000000000003</ele><time>2026-04-25T12:05:11.479Z</time></trkpt><trkpt lat="44.0985839" lon="11.960121"><ele>227.0</ele><time>2026-04-25T12:05:12.487Z</time></trkpt><trkpt lat="44.0985714" lon="11.9602377"><ele>227.00000000000003</ele><time>2026-04-25T12:05:13.481Z</time></trkpt><trkpt lat="44.0985759" lon="11.9603763"><ele>227.0</ele><time>2026-04-25T12:05:14.462Z</time></trkpt><trkpt lat="44.0985871" lon="11.9605048"><ele>227.0</ele><time>2026-04-25T12:05:15.438Z</time></trkpt><trkpt lat="44.0985982" lon="11.9606141"><ele>227.0</ele><time>2026-04-25T12:05:16.462Z</time></trkpt><trkpt lat="44.0986142" lon="11.9607108"><ele>227.00000000000003</ele><time>2026-04-25T12:05:17.469Z</time></trkpt><trkpt lat="44.0986396" lon="11.9607926"><ele>227.0</ele><time>2026-04-25T12:05:18.484Z</time></trkpt><trkpt lat="44.0986895" lon="11.9608947"><ele>225.83333333333334</ele><time>2026-04-25T12:05:20.467Z</time></trkpt><trkpt lat="44.0987602" lon="11.9609504"><ele>224.66666666666669</ele><time>2026-04-25T12:05:24.469Z</time></trkpt><trkpt lat="44.0988046" lon="11.9610431"><ele>223.5</ele><time>2026-04-25T12:05:27.46Z</time></trkpt><trkpt lat="44.0988329" lon="11.9611311"><ele>222.33333333333331</ele><time>2026-04-25T12:05:29.474Z</time></trkpt><trkpt lat="44.0988642" lon="11.9612424"><ele>221.16666666666666</ele><time>2026-04-25T12:05:31.466Z</time></trkpt><trkpt lat="44.0989033" lon="11.9613668"><ele>220.0</ele><time>2026-04-25T12:05:33.478Z</time></trkpt><trkpt lat="44.0989484" lon="11.9614762"><ele>219.99999999999997</ele><time>2026-04-25T12:05:35.475Z</time></trkpt><trkpt lat="44.0990063" lon="11.9615532"><ele>220.0</ele><time>2026-04-25T12:05:37.465Z</time></trkpt><trkpt lat="44.099068" lon="11.9616284"><ele>220.0</ele><time>2026-04-25T12:05:39.472Z</time></trkpt><trkpt lat="44.0991446" lon="11.9616855"><ele>220.0</ele><time>2026-04-25T12:05:41.482Z</time></trkpt><trkpt lat="44.0992172" lon="11.9617422"><ele>219.99999999999997</ele><time>2026-04-25T12:05:43.464Z</time></trkpt><trkpt lat="44.0992791" lon="11.9617941"><ele>220.0</ele><time>2026-04-25T12:05:45.467Z</time></trkpt><trkpt lat="44.0993208" lon="11.9618796"><ele>220.0</ele><time>2026-04-25T12:05:49.458Z</time></trkpt><trkpt lat="44.0992652" lon="11.9618259"><ele>220.0</ele><time>2026-04-25T12:06:10.472Z</time></trkpt><trkpt lat="44.099183" lon="11.9617568"><ele>220.0</ele><time>2026-04-25T12:06:12.466Z</time></trkpt><trkpt lat="44.099083" lon="11.9616735"><ele>220.0</ele><time>2026-04-25T12:06:14.458Z</time></trkpt><trkpt lat="44.0989877" lon="11.9615699"><ele>220.0</ele><time>2026-04-25T12:06:16.469Z</time></trkpt><trkpt lat="44.0989475" lon="11.9615022"><ele>219.99999999999997</ele><time>2026-04-25T12:06:17.461Z</time></trkpt><trkpt lat="44.0989144" lon="11.9614224"><ele>220.0</ele><time>2026-04-25T12:06:18.463Z</time></trkpt><trkpt lat="44.0988798" lon="11.9613402"><ele>220.0</ele><time>2026-04-25T12:06:19.449Z</time></trkpt><trkpt lat="44.0988338" lon="11.9611825"><ele>220.0</ele><time>2026-04-25T12:06:21.463Z</time></trkpt><trkpt lat="44.0988106" lon="11.9610989"><ele>219.99999999999997</ele><time>2026-04-25T12:06:22.471Z</time></trkpt><trkpt lat="44.0987897" lon="11.9609679"><ele>220.0</ele><time>2026-04-25T12:06:24.452Z</time></trkpt><trkpt lat="44.0987834" lon="11.9608791"><ele>221.4</ele><time>2026-04-25T12:07:05.476Z</time></trkpt><trkpt lat="44.0987645" lon="11.9607027"><ele>222.8</ele><time>2026-04-25T12:07:07.456Z</time></trkpt><trkpt lat="44.098761" lon="11.9605926"><ele>224.2</ele><time>2026-04-25T12:07:08.474Z</time></trkpt><trkpt lat="44.098749" lon="11.9604698"><ele>225.6</ele><time>2026-04-25T12:07:09.463Z</time></trkpt><trkpt lat="44.0987418" lon="11.9603434"><ele>227.0</ele><time>2026-04-25T12:07:10.461Z</time></trkpt><trkpt lat="44.0987369" lon="11.9602106"><ele>227.0</ele><time>2026-04-25T12:07:11.47Z</time></trkpt><trkpt lat="44.0987402" lon="11.9600839"><ele>227.0</ele><time>2026-04-25T12:07:12.461Z</time></trkpt><trkpt lat="44.0987573" lon="11.9599616"><ele>227.0</ele><time>2026-04-25T12:07:13.455Z</time></trkpt><trkpt lat="44.0988012" lon="11.9598421"><ele>227.0</ele><time>2026-04-25T12:07:14.451Z</time></trkpt><trkpt lat="44.0988578" lon="11.959734"><ele>227.0</ele><time>2026-04-25T12:07:15.453Z</time></trkpt><trkpt lat="44.0989247" lon="11.9596415"><ele>227.16666666666669</ele><time>2026-04-25T12:07:16.472Z</time></trkpt><trkpt lat="44.0989988" lon="11.9595738"><ele>227.33333333333334</ele><time>2026-04-25T12:07:17.456Z</time></trkpt><trkpt lat="44.0990722" lon="11.9595395"><ele>227.5</ele><time>2026-04-25T12:07:18.46Z</time></trkpt><trkpt lat="44.0991741" lon="11.9596245"><ele>227.66666666666669</ele><time>2026-04-25T12:07:20.465Z</time></trkpt><trkpt lat="44.0991975" lon="11.9597317"><ele>227.83333333333334</ele><time>2026-04-25T12:07:21.465Z</time></trkpt><trkpt lat="44.0991925" lon="11.959848"><ele>228.0</ele><time>2026-04-25T12:07:22.474Z</time></trkpt><trkpt lat="44.0991871" lon="11.9599795"><ele>231.4</ele><time>2026-04-25T12:07:23.459Z</time></trkpt><trkpt lat="44.099183" lon="11.9601223"><ele>234.8</ele><time>2026-04-25T12:07:24.459Z</time></trkpt><trkpt lat="44.0991799" lon="11.9602698"><ele>238.2</ele><time>2026-04-25T12:07:25.463Z</time></trkpt><trkpt lat="44.0991811" lon="11.9604088"><ele>241.6</ele><time>2026-04-25T12:07:26.466Z</time></trkpt><trkpt lat="44.0991938" lon="11.9605247"><ele>245.0</ele><time>2026-04-25T12:07:27.456Z</time></trkpt><trkpt lat="44.0992266" lon="11.9606104"><ele>245.00000000000003</ele><time>2026-04-25T12:07:28.454Z</time></trkpt><trkpt lat="44.0992756" lon="11.960666"><ele>245.0</ele><time>2026-04-25T12:07:29.47Z</time></trkpt><trkpt lat="44.0993447" lon="11.9606824"><ele>245.0</ele><time>2026-04-25T12:07:30.471Z</time></trkpt><trkpt lat="44.0994277" lon="11.9606812"><ele>245.0</ele><time>2026-04-25T12:07:31.463Z</time></trkpt><trkpt lat="44.0995209" lon="11.9606716"><ele>245.00000000000003</ele><time>2026-04-25T12:07:32.456Z</time></trkpt><trkpt lat="44.0996295" lon="11.9606709"><ele>245.0</ele><time>2026-04-25T12:07:33.473Z</time></trkpt><trkpt lat="44.0997511" lon="11.960682"><ele>245.0</ele><time>2026-04-25T12:07:34.461Z</time></trkpt><trkpt lat="44.0998755" lon="11.9606835"><ele>245.0</ele><time>2026-04-25T12:07:35.456Z</time></trkpt><trkpt lat="44.1000029" lon="11.9606596"><ele>245.0</ele><time>2026-04-25T12:07:36.465Z</time></trkpt><trkpt lat="44.1001199" lon="11.9606007"><ele>245.0</ele><time>2026-04-25T12:07:37.456Z</time></trkpt><trkpt lat="44.1002422" lon="11.9605361"><ele>247.75</ele><time>2026-04-25T12:07:38.465Z</time></trkpt><trkpt lat="44.1003648" lon="11.9604707"><ele>250.5</ele><time>2026-04-25T12:07:39.475Z</time></trkpt><trkpt lat="44.1004821" lon="11.9604142"><ele>253.25</ele><time>2026-04-25T12:07:40.468Z</time></trkpt><trkpt lat="44.1005908" lon="11.9603809"><ele>256.0</ele><time>2026-04-25T12:07:41.47Z</time></trkpt><trkpt lat="44.1006896" lon="11.9603709"><ele>257.8</ele><time>2026-04-25T12:07:42.449Z</time></trkpt><trkpt lat="44.1007829" lon="11.9603953"><ele>259.6</ele><time>2026-04-25T12:07:43.465Z</time></trkpt><trkpt lat="44.1008648" lon="11.9604736"><ele>261.4</ele><time>2026-04-25T12:07:44.458Z</time></trkpt><trkpt lat="44.1009187" lon="11.9605858"><ele>263.2</ele><time>2026-04-25T12:07:45.459Z</time></trkpt><trkpt lat="44.1009452" lon="11.9607265"><ele>265.0</ele><time>2026-04-25T12:07:46.472Z</time></trkpt><trkpt lat="44.1009514" lon="11.96087"><ele>265.0</ele><time>2026-04-25T12:07:47.45Z</time></trkpt><trkpt lat="44.1009799" lon="11.9610225"><ele>265.0</ele><time>2026-04-25T12:07:48.452Z</time></trkpt><trkpt lat="44.1010252" lon="11.9611652"><ele>265.0</ele><time>2026-04-25T12:07:49.462Z</time></trkpt><trkpt lat="44.1010965" lon="11.9613055"><ele>265.0</ele><time>2026-04-25T12:07:50.461Z</time></trkpt><trkpt lat="44.1011827" lon="11.9614371"><ele>265.0</ele><time>2026-04-25T12:07:51.461Z</time></trkpt><trkpt lat="44.1012854" lon="11.9615653"><ele>265.0</ele><time>2026-04-25T12:07:52.462Z</time></trkpt><trkpt lat="44.1013962" lon="11.9617038"><ele>265.0</ele><time>2026-04-25T12:07:53.453Z</time></trkpt><trkpt lat="44.1014935" lon="11.9618367"><ele>265.0</ele><time>2026-04-25T12:07:54.469Z</time></trkpt><trkpt lat="44.1015813" lon="11.9619482"><ele>264.2</ele><time>2026-04-25T12:07:55.457Z</time></trkpt><trkpt lat="44.1016739" lon="11.9620142"><ele>263.4</ele><time>2026-04-25T12:07:56.465Z</time></trkpt><trkpt lat="44.1017676" lon="11.9620357"><ele>262.6</ele><time>2026-04-25T12:07:57.46Z</time></trkpt><trkpt lat="44.1018419" lon="11.9619993"><ele>261.8</ele><time>2026-04-25T12:07:58.453Z</time></trkpt><trkpt lat="44.1019115" lon="11.9619334"><ele>261.0</ele><time>2026-04-25T12:07:59.46Z</time></trkpt><trkpt lat="44.1019723" lon="11.9618236"><ele>262.8333333333333</ele><time>2026-04-25T12:08:00.464Z</time></trkpt><trkpt lat="44.1020227" lon="11.9616978"><ele>264.6666666666667</ele><time>2026-04-25T12:08:01.475Z</time></trkpt><trkpt lat="44.102082" lon="11.9616015"><ele>266.5</ele><time>2026-04-25T12:08:02.457Z</time></trkpt><trkpt lat="44.1021358" lon="11.9615422"><ele>268.33333333333337</ele><time>2026-04-25T12:08:03.469Z</time></trkpt><trkpt lat="44.1022084" lon="11.9615127"><ele>270.1666666666667</ele><time>2026-04-25T12:08:04.461Z</time></trkpt><trkpt lat="44.1022941" lon="11.9615007"><ele>272.0</ele><time>2026-04-25T12:08:05.472Z</time></trkpt><trkpt lat="44.1023926" lon="11.9614995"><ele>273.4</ele><time>2026-04-25T12:08:06.488Z</time></trkpt><trkpt lat="44.1024927" lon="11.9614979"><ele>274.79999999999995</ele><time>2026-04-25T12:08:07.462Z</time></trkpt><trkpt lat="44.1025979" lon="11.9614955"><ele>276.2</ele><time>2026-04-25T12:08:08.469Z</time></trkpt><trkpt lat="44.1026997" lon="11.9614627"><ele>277.59999999999997</ele><time>2026-04-25T12:08:09.461Z</time></trkpt><trkpt lat="44.1028044" lon="11.9614182"><ele>279.0</ele><time>2026-04-25T12:08:10.469Z</time></trkpt><trkpt lat="44.1029092" lon="11.9613688"><ele>279.0</ele><time>2026-04-25T12:08:11.454Z</time></trkpt><trkpt lat="44.1030141" lon="11.9613305"><ele>279.0</ele><time>2026-04-25T12:08:12.47Z</time></trkpt><trkpt lat="44.1031194" lon="11.9613185"><ele>279.0</ele><time>2026-04-25T12:08:13.452Z</time></trkpt><trkpt lat="44.1032268" lon="11.9613207"><ele>279.0</ele><time>2026-04-25T12:08:14.457Z</time></trkpt><trkpt lat="44.1033257" lon="11.961327"><ele>279.0</ele><time>2026-04-25T12:08:15.463Z</time></trkpt><trkpt lat="44.1034229" lon="11.9613541"><ele>279.2</ele><time>2026-04-25T12:08:16.47Z</time></trkpt><trkpt lat="44.1035184" lon="11.9613922"><ele>279.4</ele><time>2026-04-25T12:08:17.455Z</time></trkpt><trkpt lat="44.1036059" lon="11.9614279"><ele>279.6</ele><time>2026-04-25T12:08:18.465Z</time></trkpt><trkpt lat="44.1036866" lon="11.9614597"><ele>279.8</ele><time>2026-04-25T12:08:19.463Z</time></trkpt><trkpt lat="44.103768" lon="11.9614918"><ele>280.0</ele><time>2026-04-25T12:08:20.47Z</time></trkpt><trkpt lat="44.1038563" lon="11.9615207"><ele>280.0</ele><time>2026-04-25T12:08:21.455Z</time></trkpt><trkpt lat="44.1039437" lon="11.9615535"><ele>280.0</ele><time>2026-04-25T12:08:22.458Z</time></trkpt><trkpt lat="44.1040243" lon="11.9615759"><ele>280.0</ele><time>2026-04-25T12:08:23.467Z</time></trkpt><trkpt lat="44.1040939" lon="11.9615926"><ele>280.0</ele><time>2026-04-25T12:08:24.452Z</time></trkpt><trkpt lat="44.1041945" lon="11.9616718"><ele>280.0</ele><time>2026-04-25T12:08:26.469Z</time></trkpt><trkpt lat="44.1042377" lon="11.961754"><ele>280.0</ele><time>2026-04-25T12:08:28.466Z</time></trkpt><trkpt lat="44.1042764" lon="11.9618342"><ele>280.0</ele><time>2026-04-25T12:08:31.452Z</time></trkpt><trkpt lat="44.1043137" lon="11.961917"><ele>280.0</ele><time>2026-04-25T12:08:35.457Z</time></trkpt><trkpt lat="44.1043285" lon="11.9620148"><ele>280.0</ele><time>2026-04-25T12:08:39.456Z</time></trkpt><trkpt lat="44.1043174" lon="11.9621355"><ele>280.0</ele><time>2026-04-25T12:08:41.456Z</time></trkpt><trkpt lat="44.1043263" lon="11.9622327"><ele>280.0</ele><time>2026-04-25T12:08:43.453Z</time></trkpt><trkpt lat="44.1043931" lon="11.9621981"><ele>280.0</ele><time>2026-04-25T12:08:46.453Z</time></trkpt><trkpt lat="44.1043547" lon="11.9621251"><ele>280.0</ele><time>2026-04-25T12:08:53.457Z</time></trkpt><trkpt lat="44.1043066" lon="11.9619892"><ele>280.0</ele><time>2026-04-25T12:08:55.464Z</time></trkpt><trkpt lat="44.1042544" lon="11.9618659"><ele>280.0</ele><time>2026-04-25T12:08:57.464Z</time></trkpt><trkpt lat="44.1041994" lon="11.9618206"><ele>280.0</ele><time>2026-04-25T12:08:58.451Z</time></trkpt><trkpt lat="44.1041304" lon="11.9617876"><ele>280.0</ele><time>2026-04-25T12:08:59.457Z</time></trkpt><trkpt lat="44.1040479" lon="11.9617671"><ele>280.0</ele><time>2026-04-25T12:09:00.469Z</time></trkpt><trkpt lat="44.1039672" lon="11.9617545"><ele>280.0</ele><time>2026-04-25T12:09:01.454Z</time></trkpt><trkpt lat="44.1038904" lon="11.9617461"><ele>277.6</ele><time>2026-04-25T12:09:02.459Z</time></trkpt><trkpt lat="44.103794" lon="11.9617359"><ele>275.2</ele><time>2026-04-25T12:09:03.45Z</time></trkpt><trkpt lat="44.1036894" lon="11.9617229"><ele>272.8</ele><time>2026-04-25T12:09:04.458Z</time></trkpt><trkpt lat="44.1035889" lon="11.9617128"><ele>270.4</ele><time>2026-04-25T12:09:05.45Z</time></trkpt><trkpt lat="44.1034852" lon="11.9617313"><ele>268.0</ele><time>2026-04-25T12:09:06.45Z</time></trkpt><trkpt lat="44.1033711" lon="11.9617989"><ele>268.0</ele><time>2026-04-25T12:09:07.455Z</time></trkpt><trkpt lat="44.1032581" lon="11.9618745"><ele>268.0</ele><time>2026-04-25T12:09:08.455Z</time></trkpt><trkpt lat="44.1031545" lon="11.9619413"><ele>268.0</ele><time>2026-04-25T12:09:09.439Z</time></trkpt><trkpt lat="44.1030512" lon="11.9620045"><ele>268.0</ele><time>2026-04-25T12:09:10.452Z</time></trkpt><trkpt lat="44.1029517" lon="11.9620604"><ele>267.2</ele><time>2026-04-25T12:09:11.451Z</time></trkpt><trkpt lat="44.1028626" lon="11.9621195"><ele>266.4</ele><time>2026-04-25T12:09:12.458Z</time></trkpt><trkpt lat="44.1027674" lon="11.962178"><ele>265.59999999999997</ele><time>2026-04-25T12:09:13.46Z</time></trkpt><trkpt lat="44.1026832" lon="11.9622534"><ele>264.8</ele><time>2026-04-25T12:09:14.458Z</time></trkpt><trkpt lat="44.1026099" lon="11.9623539"><ele>264.0</ele><time>2026-04-25T12:09:15.452Z</time></trkpt><trkpt lat="44.1025464" lon="11.962459"><ele>261.8</ele><time>2026-04-25T12:09:16.456Z</time></trkpt><trkpt lat="44.1024791" lon="11.9625609"><ele>259.59999999999997</ele><time>2026-04-25T12:09:17.457Z</time></trkpt><trkpt lat="44.1024109" lon="11.9626495"><ele>257.4</ele><time>2026-04-25T12:09:18.473Z</time></trkpt><trkpt lat="44.1023256" lon="11.9627341"><ele>255.2</ele><time>2026-04-25T12:09:19.462Z</time></trkpt><trkpt lat="44.1022433" lon="11.9627954"><ele>253.0</ele><time>2026-04-25T12:09:20.462Z</time></trkpt><trkpt lat="44.102148" lon="11.9628422"><ele>251.99999999999997</ele><time>2026-04-25T12:09:21.454Z</time></trkpt><trkpt lat="44.1020511" lon="11.962883"><ele>251.0</ele><time>2026-04-25T12:09:22.469Z</time></trkpt><trkpt lat="44.1019625" lon="11.9629191"><ele>250.0</ele><time>2026-04-25T12:09:23.45Z</time></trkpt><trkpt lat="44.101876" lon="11.9629383"><ele>249.0</ele><time>2026-04-25T12:09:24.465Z</time></trkpt><trkpt lat="44.1017919" lon="11.9629461"><ele>247.99999999999997</ele><time>2026-04-25T12:09:25.468Z</time></trkpt><trkpt lat="44.1017164" lon="11.9629368"><ele>247.0</ele><time>2026-04-25T12:09:26.465Z</time></trkpt><trkpt lat="44.1016442" lon="11.9629342"><ele>246.99999999999997</ele><time>2026-04-25T12:09:27.464Z</time></trkpt><trkpt lat="44.1015435" lon="11.9629253"><ele>247.0</ele><time>2026-04-25T12:09:29.454Z</time></trkpt><trkpt lat="44.1014995" lon="11.9629922"><ele>247.0</ele><time>2026-04-25T12:09:35.49Z</time></trkpt><trkpt lat="44.1015764" lon="11.9630441"><ele>247.0</ele><time>2026-04-25T12:09:39.458Z</time></trkpt><trkpt lat="44.1016666" lon="11.9630687"><ele>246.99999999999997</ele><time>2026-04-25T12:09:41.46Z</time></trkpt><trkpt lat="44.101729" lon="11.9630815"><ele>247.0</ele><time>2026-04-25T12:09:42.461Z</time></trkpt><trkpt lat="44.101847" lon="11.9631067"><ele>246.99999999999997</ele><time>2026-04-25T12:09:44.458Z</time></trkpt><trkpt lat="44.1019141" lon="11.9631311"><ele>247.0</ele><time>2026-04-25T12:09:45.467Z</time></trkpt><trkpt lat="44.101983" lon="11.9631576"><ele>247.0</ele><time>2026-04-25T12:09:46.466Z</time></trkpt><trkpt lat="44.1020483" lon="11.9631896"><ele>247.0</ele><time>2026-04-25T12:09:47.457Z</time></trkpt><trkpt lat="44.1021079" lon="11.9632205"><ele>246.99999999999997</ele><time>2026-04-25T12:09:48.463Z</time></trkpt><trkpt lat="44.1022145" lon="11.9632762"><ele>247.0</ele><time>2026-04-25T12:09:50.476Z</time></trkpt><trkpt lat="44.1023051" lon="11.9633317"><ele>246.83333333333331</ele><time>2026-04-25T12:09:52.454Z</time></trkpt><trkpt lat="44.1023911" lon="11.9634435"><ele>246.66666666666666</ele><time>2026-04-25T12:09:54.469Z</time></trkpt><trkpt lat="44.102419" lon="11.9635357"><ele>246.5</ele><time>2026-04-25T12:09:55.465Z</time></trkpt><trkpt lat="44.1024166" lon="11.963644"><ele>246.33333333333331</ele><time>2026-04-25T12:09:56.463Z</time></trkpt><trkpt lat="44.1023921" lon="11.9637405"><ele>246.16666666666666</ele><time>2026-04-25T12:09:57.466Z</time></trkpt><trkpt lat="44.1023576" lon="11.9638485"><ele>246.0</ele><time>2026-04-25T12:09:58.46Z</time></trkpt><trkpt lat="44.1023186" lon="11.9639853"><ele>245.16666666666666</ele><time>2026-04-25T12:09:59.486Z</time></trkpt><trkpt lat="44.1022822" lon="11.9641128"><ele>244.33333333333331</ele><time>2026-04-25T12:10:00.463Z</time></trkpt><trkpt lat="44.102257" lon="11.9642408"><ele>243.5</ele><time>2026-04-25T12:10:01.461Z</time></trkpt><trkpt lat="44.1022542" lon="11.9643636"><ele>242.66666666666666</ele><time>2026-04-25T12:10:02.477Z</time></trkpt><trkpt lat="44.1022542" lon="11.9644716"><ele>241.83333333333331</ele><time>2026-04-25T12:10:03.467Z</time></trkpt><trkpt lat="44.1022551" lon="11.9645831"><ele>241.0</ele><time>2026-04-25T12:10:04.464Z</time></trkpt><trkpt lat="44.1022547" lon="11.9646907"><ele>238.60000000000002</ele><time>2026-04-25T12:10:05.461Z</time></trkpt><trkpt lat="44.102239" lon="11.9647939"><ele>236.20000000000002</ele><time>2026-04-25T12:10:06.463Z</time></trkpt><trkpt lat="44.1022109" lon="11.9648869"><ele>233.79999999999998</ele><time>2026-04-25T12:10:07.454Z</time></trkpt><trkpt lat="44.1021951" lon="11.9649846"><ele>231.39999999999998</ele><time>2026-04-25T12:10:08.445Z</time></trkpt><trkpt lat="44.1022255" lon="11.965152"><ele>229.0</ele><time>2026-04-25T12:10:10.464Z</time></trkpt><trkpt lat="44.1023055" lon="11.9652651"><ele>229.83333333333331</ele><time>2026-04-25T12:10:12.473Z</time></trkpt><trkpt lat="44.1023616" lon="11.9653214"><ele>230.66666666666666</ele><time>2026-04-25T12:10:13.46Z</time></trkpt><trkpt lat="44.1024128" lon="11.9653975"><ele>231.5</ele><time>2026-04-25T12:10:14.461Z</time></trkpt><trkpt lat="44.1024596" lon="11.9654948"><ele>232.33333333333331</ele><time>2026-04-25T12:10:15.462Z</time></trkpt><trkpt lat="44.1025041" lon="11.9656072"><ele>233.16666666666666</ele><time>2026-04-25T12:10:16.455Z</time></trkpt><trkpt lat="44.1025523" lon="11.9657119"><ele>234.0</ele><time>2026-04-25T12:10:17.465Z</time></trkpt><trkpt lat="44.1026159" lon="11.9657961"><ele>234.0</ele><time>2026-04-25T12:10:18.464Z</time></trkpt><trkpt lat="44.1026803" lon="11.9658528"><ele>234.0</ele><time>2026-04-25T12:10:19.464Z</time></trkpt><trkpt lat="44.1027468" lon="11.9658878"><ele>234.0</ele><time>2026-04-25T12:10:20.461Z</time></trkpt><trkpt lat="44.1028235" lon="11.9659015"><ele>234.0</ele><time>2026-04-25T12:10:21.489Z</time></trkpt><trkpt lat="44.1029104" lon="11.9659047"><ele>234.0</ele><time>2026-04-25T12:10:22.465Z</time></trkpt><trkpt lat="44.1029921" lon="11.9658977"><ele>234.0</ele><time>2026-04-25T12:10:23.46Z</time></trkpt><trkpt lat="44.1030693" lon="11.9659121"><ele>234.0</ele><time>2026-04-25T12:10:24.469Z</time></trkpt><trkpt lat="44.1031393" lon="11.965963"><ele>234.0</ele><time>2026-04-25T12:10:25.459Z</time></trkpt><trkpt lat="44.1032099" lon="11.9660423"><ele>234.0</ele><time>2026-04-25T12:10:26.459Z</time></trkpt><trkpt lat="44.1032752" lon="11.9661291"><ele>234.0</ele><time>2026-04-25T12:10:27.463Z</time></trkpt><trkpt lat="44.1033317" lon="11.9662154"><ele>234.0</ele><time>2026-04-25T12:10:28.461Z</time></trkpt><trkpt lat="44.1033779" lon="11.9663083"><ele>234.0</ele><time>2026-04-25T12:10:29.473Z</time></trkpt><trkpt lat="44.1034" lon="11.9664136"><ele>234.0</ele><time>2026-04-25T12:10:30.494Z</time></trkpt><trkpt lat="44.1034118" lon="11.9665141"><ele>233.99999999999997</ele><time>2026-04-25T12:10:31.453Z</time></trkpt><trkpt lat="44.1034573" lon="11.9666598"><ele>233.99999999999997</ele><time>2026-04-25T12:10:33.452Z</time></trkpt><trkpt lat="44.1035218" lon="11.966734"><ele>234.0</ele><time>2026-04-25T12:10:35.457Z</time></trkpt><trkpt lat="44.1034491" lon="11.9666552"><ele>234.0</ele><time>2026-04-25T12:11:30.459Z</time></trkpt><trkpt lat="44.1034005" lon="11.9665424"><ele>234.0</ele><time>2026-04-25T12:11:32.466Z</time></trkpt><trkpt lat="44.103361" lon="11.9663943"><ele>233.99999999999997</ele><time>2026-04-25T12:11:34.471Z</time></trkpt><trkpt lat="44.1033189" lon="11.9662313"><ele>233.99999999999997</ele><time>2026-04-25T12:11:36.454Z</time></trkpt><trkpt lat="44.1032785" lon="11.9661553"><ele>234.0</ele><time>2026-04-25T12:11:37.457Z</time></trkpt><trkpt lat="44.1032234" lon="11.9660845"><ele>234.0</ele><time>2026-04-25T12:11:38.458Z</time></trkpt><trkpt lat="44.1031624" lon="11.966015"><ele>231.5</ele><time>2026-04-25T12:11:39.45Z</time></trkpt><trkpt lat="44.1030996" lon="11.965964"><ele>229.0</ele><time>2026-04-25T12:11:40.482Z</time></trkpt><trkpt lat="44.1030367" lon="11.9659266"><ele>226.5</ele><time>2026-04-25T12:11:41.475Z</time></trkpt><trkpt lat="44.1029678" lon="11.9659263"><ele>224.0</ele><time>2026-04-25T12:11:42.464Z</time></trkpt><trkpt lat="44.1028965" lon="11.9659327"><ele>221.5</ele><time>2026-04-25T12:11:43.456Z</time></trkpt><trkpt lat="44.1028287" lon="11.9659368"><ele>219.0</ele><time>2026-04-25T12:11:44.455Z</time></trkpt><trkpt lat="44.1027152" lon="11.9659025"><ele>218.71428571428572</ele><time>2026-04-25T12:11:46.45Z</time></trkpt><trkpt lat="44.1026609" lon="11.9658543"><ele>218.42857142857142</ele><time>2026-04-25T12:11:47.458Z</time></trkpt><trkpt lat="44.1026098" lon="11.9657964"><ele>218.14285714285714</ele><time>2026-04-25T12:11:48.462Z</time></trkpt><trkpt lat="44.102559" lon="11.9657272"><ele>217.85714285714286</ele><time>2026-04-25T12:11:49.473Z</time></trkpt><trkpt lat="44.1025156" lon="11.9656543"><ele>217.57142857142856</ele><time>2026-04-25T12:11:50.464Z</time></trkpt><trkpt lat="44.102478" lon="11.9655712"><ele>217.28571428571428</ele><time>2026-04-25T12:11:51.468Z</time></trkpt><trkpt lat="44.1024448" lon="11.965491"><ele>217.0</ele><time>2026-04-25T12:11:52.503Z</time></trkpt><trkpt lat="44.1023752" lon="11.9653566"><ele>217.0</ele><time>2026-04-25T12:11:54.473Z</time></trkpt><trkpt lat="44.1022887" lon="11.9652705"><ele>217.0</ele><time>2026-04-25T12:11:56.481Z</time></trkpt><trkpt lat="44.1022128" lon="11.9651492"><ele>217.0</ele><time>2026-04-25T12:11:58.465Z</time></trkpt><trkpt lat="44.1022022" lon="11.9649837"><ele>217.0</ele><time>2026-04-25T12:12:00.467Z</time></trkpt><trkpt lat="44.1022268" lon="11.9648794"><ele>217.0</ele><time>2026-04-25T12:12:01.461Z</time></trkpt><trkpt lat="44.1022553" lon="11.9647556"><ele>219.39999999999998</ele><time>2026-04-25T12:12:02.465Z</time></trkpt><trkpt lat="44.1022644" lon="11.9646315"><ele>221.79999999999998</ele><time>2026-04-25T12:12:03.46Z</time></trkpt><trkpt lat="44.1022581" lon="11.9644982"><ele>224.2</ele><time>2026-04-25T12:12:04.47Z</time></trkpt><trkpt lat="44.1022461" lon="11.9643604"><ele>226.6</ele><time>2026-04-25T12:12:05.466Z</time></trkpt><trkpt lat="44.1022466" lon="11.9642331"><ele>229.0</ele><time>2026-04-25T12:12:06.462Z</time></trkpt><trkpt lat="44.1022578" lon="11.9641077"><ele>230.99999999999997</ele><time>2026-04-25T12:12:07.469Z</time></trkpt><trkpt lat="44.1022916" lon="11.9639789"><ele>233.0</ele><time>2026-04-25T12:12:08.457Z</time></trkpt><trkpt lat="44.1023312" lon="11.9638508"><ele>235.0</ele><time>2026-04-25T12:12:09.477Z</time></trkpt><trkpt lat="44.1023688" lon="11.9637302"><ele>237.0</ele><time>2026-04-25T12:12:10.47Z</time></trkpt><trkpt lat="44.1023934" lon="11.9636393"><ele>238.99999999999997</ele><time>2026-04-25T12:12:11.461Z</time></trkpt><trkpt lat="44.102403" lon="11.9635493"><ele>241.0</ele><time>2026-04-25T12:12:12.475Z</time></trkpt><trkpt lat="44.1023904" lon="11.9634621"><ele>242.20000000000002</ele><time>2026-04-25T12:12:13.468Z</time></trkpt><trkpt lat="44.1023081" lon="11.9633362"><ele>243.40000000000003</ele><time>2026-04-25T12:12:15.451Z</time></trkpt><trkpt lat="44.1022322" lon="11.9632803"><ele>244.6</ele><time>2026-04-25T12:12:16.477Z</time></trkpt><trkpt lat="44.1021228" lon="11.963223"><ele>245.8</ele><time>2026-04-25T12:12:17.459Z</time></trkpt><trkpt lat="44.1020183" lon="11.9631731"><ele>247.0</ele><time>2026-04-25T12:12:18.465Z</time></trkpt><trkpt lat="44.1019373" lon="11.9631471"><ele>246.99999999999997</ele><time>2026-04-25T12:12:19.464Z</time></trkpt><trkpt lat="44.1018755" lon="11.9631284"><ele>247.0</ele><time>2026-04-25T12:12:20.457Z</time></trkpt><trkpt lat="44.1017548" lon="11.9630909"><ele>247.0</ele><time>2026-04-25T12:12:22.485Z</time></trkpt><trkpt lat="44.1016901" lon="11.9630816"><ele>247.0</ele><time>2026-04-25T12:12:24.462Z</time></trkpt><trkpt lat="44.1016214" lon="11.9630742"><ele>246.99999999999997</ele><time>2026-04-25T12:12:27.474Z</time></trkpt><trkpt lat="44.1015469" lon="11.963034"><ele>247.0</ele><time>2026-04-25T12:12:31.475Z</time></trkpt><trkpt lat="44.1015301" lon="11.9629415"><ele>247.0</ele><time>2026-04-25T12:12:35.46Z</time></trkpt><trkpt lat="44.1015971" lon="11.9629197"><ele>247.0</ele><time>2026-04-25T12:12:37.463Z</time></trkpt><trkpt lat="44.1016805" lon="11.9629352"><ele>247.0</ele><time>2026-04-25T12:12:38.467Z</time></trkpt><trkpt lat="44.1017893" lon="11.9629379"><ele>247.0</ele><time>2026-04-25T12:12:39.45Z</time></trkpt><trkpt lat="44.1019169" lon="11.9629233"><ele>247.0</ele><time>2026-04-25T12:12:40.469Z</time></trkpt><trkpt lat="44.1020471" lon="11.9628898"><ele>247.0</ele><time>2026-04-25T12:12:41.463Z</time></trkpt><trkpt lat="44.1021639" lon="11.962833"><ele>247.0</ele><time>2026-04-25T12:12:42.459Z</time></trkpt><trkpt lat="44.102276" lon="11.9627682"><ele>247.0</ele><time>2026-04-25T12:12:43.458Z</time></trkpt><trkpt lat="44.1023776" lon="11.962685"><ele>247.0</ele><time>2026-04-25T12:12:44.458Z</time></trkpt><trkpt lat="44.1024868" lon="11.9625613"><ele>251.25</ele><time>2026-04-25T12:12:45.451Z</time></trkpt><trkpt lat="44.1025881" lon="11.9624039"><ele>255.5</ele><time>2026-04-25T12:12:46.464Z</time></trkpt><trkpt lat="44.1026821" lon="11.962278"><ele>259.75</ele><time>2026-04-25T12:12:47.459Z</time></trkpt><trkpt lat="44.1027637" lon="11.9621948"><ele>264.0</ele><time>2026-04-25T12:12:48.475Z</time></trkpt><trkpt lat="44.102831" lon="11.9621379"><ele>264.0</ele><time>2026-04-25T12:12:49.449Z</time></trkpt><trkpt lat="44.1028967" lon="11.9621039"><ele>264.0</ele><time>2026-04-25T12:12:50.447Z</time></trkpt><trkpt lat="44.1029757" lon="11.9620354"><ele>264.0</ele><time>2026-04-25T12:12:52.456Z</time></trkpt><trkpt lat="44.1030602" lon="11.9619778"><ele>264.0</ele><time>2026-04-25T12:12:54.464Z</time></trkpt><trkpt lat="44.1031465" lon="11.9619301"><ele>264.0</ele><time>2026-04-25T12:12:55.456Z</time></trkpt><trkpt lat="44.1032583" lon="11.9618713"><ele>265.0</ele><time>2026-04-25T12:12:56.468Z</time></trkpt><trkpt lat="44.1033711" lon="11.9618081"><ele>266.0</ele><time>2026-04-25T12:12:57.453Z</time></trkpt><trkpt lat="44.1034833" lon="11.9617536"><ele>267.0</ele><time>2026-04-25T12:12:58.457Z</time></trkpt><trkpt lat="44.1036045" lon="11.9617093"><ele>268.0</ele><time>2026-04-25T12:12:59.451Z</time></trkpt><trkpt lat="44.1037389" lon="11.9617013"><ele>268.0</ele><time>2026-04-25T12:13:00.454Z</time></trkpt><trkpt lat="44.1038722" lon="11.9617113"><ele>268.0</ele><time>2026-04-25T12:13:01.475Z</time></trkpt><trkpt lat="44.1039922" lon="11.9617187"><ele>268.0</ele><time>2026-04-25T12:13:02.46Z</time></trkpt><trkpt lat="44.1040857" lon="11.9617362"><ele>268.0</ele><time>2026-04-25T12:13:03.45Z</time></trkpt><trkpt lat="44.1041789" lon="11.9617266"><ele>268.0</ele><time>2026-04-25T12:13:05.458Z</time></trkpt><trkpt lat="44.1041887" lon="11.9616373"><ele>270.4</ele><time>2026-04-25T12:13:07.452Z</time></trkpt><trkpt lat="44.1041189" lon="11.9616063"><ele>272.8</ele><time>2026-04-25T12:13:08.467Z</time></trkpt><trkpt lat="44.1040315" lon="11.9615797"><ele>275.2</ele><time>2026-04-25T12:13:09.453Z</time></trkpt><trkpt lat="44.1039212" lon="11.9615616"><ele>277.6</ele><time>2026-04-25T12:13:10.457Z</time></trkpt><trkpt lat="44.1038035" lon="11.9615352"><ele>280.0</ele><time>2026-04-25T12:13:11.462Z</time></trkpt><trkpt lat="44.1036741" lon="11.9614867"><ele>280.0</ele><time>2026-04-25T12:13:12.452Z</time></trkpt><trkpt lat="44.1035413" lon="11.9614212"><ele>280.0</ele><time>2026-04-25T12:13:13.45Z</time></trkpt><trkpt lat="44.1034096" lon="11.9613598"><ele>280.0</ele><time>2026-04-25T12:13:14.455Z</time></trkpt><trkpt lat="44.1032713" lon="11.961314"><ele>280.0</ele><time>2026-04-25T12:13:15.459Z</time></trkpt><trkpt lat="44.1031254" lon="11.9613057"><ele>279.75</ele><time>2026-04-25T12:13:16.475Z</time></trkpt><trkpt lat="44.1029936" lon="11.9613216"><ele>279.5</ele><time>2026-04-25T12:13:17.465Z</time></trkpt><trkpt lat="44.1028616" lon="11.9613598"><ele>279.25</ele><time>2026-04-25T12:13:18.463Z</time></trkpt><trkpt lat="44.1027417" lon="11.9614134"><ele>279.0</ele><time>2026-04-25T12:13:19.465Z</time></trkpt><trkpt lat="44.1026289" lon="11.961459"><ele>279.0</ele><time>2026-04-25T12:13:20.459Z</time></trkpt><trkpt lat="44.1025171" lon="11.9614853"><ele>279.0</ele><time>2026-04-25T12:13:21.448Z</time></trkpt><trkpt lat="44.1024158" lon="11.961494"><ele>279.0</ele><time>2026-04-25T12:13:22.48Z</time></trkpt><trkpt lat="44.102324" lon="11.9614987"><ele>279.0</ele><time>2026-04-25T12:13:23.457Z</time></trkpt><trkpt lat="44.1022462" lon="11.9614963"><ele>279.0</ele><time>2026-04-25T12:13:24.451Z</time></trkpt><trkpt lat="44.1021386" lon="11.9614744"><ele>279.3333333333333</ele><time>2026-04-25T12:13:26.448Z</time></trkpt><trkpt lat="44.102067" lon="11.9613506"><ele>279.6666666666667</ele><time>2026-04-25T12:13:28.488Z</time></trkpt><trkpt lat="44.1020543" lon="11.9612621"><ele>280.0</ele><time>2026-04-25T12:13:29.488Z</time></trkpt><trkpt lat="44.1020494" lon="11.9611513"><ele>280.33333333333337</ele><time>2026-04-25T12:13:30.461Z</time></trkpt><trkpt lat="44.1020399" lon="11.9610296"><ele>280.6666666666667</ele><time>2026-04-25T12:13:31.469Z</time></trkpt><trkpt lat="44.1020239" lon="11.9609052"><ele>281.0</ele><time>2026-04-25T12:13:32.482Z</time></trkpt><trkpt lat="44.1019937" lon="11.960766"><ele>281.0</ele><time>2026-04-25T12:13:33.471Z</time></trkpt><trkpt lat="44.1019532" lon="11.9606091"><ele>281.0</ele><time>2026-04-25T12:13:34.467Z</time></trkpt><trkpt lat="44.1018947" lon="11.9604561"><ele>281.0</ele><time>2026-04-25T12:13:35.46Z</time></trkpt><trkpt lat="44.1018263" lon="11.96032"><ele>281.0</ele><time>2026-04-25T12:13:36.465Z</time></trkpt><trkpt lat="44.1017433" lon="11.9601966"><ele>281.0</ele><time>2026-04-25T12:13:37.468Z</time></trkpt><trkpt lat="44.1016541" lon="11.9600999"><ele>281.0</ele><time>2026-04-25T12:13:38.469Z</time></trkpt><trkpt lat="44.1015634" lon="11.9600361"><ele>281.0</ele><time>2026-04-25T12:13:39.459Z</time></trkpt><trkpt lat="44.1014843" lon="11.9599842"><ele>281.0</ele><time>2026-04-25T12:13:40.477Z</time></trkpt><trkpt lat="44.1013926" lon="11.9599368"><ele>281.0</ele><time>2026-04-25T12:13:42.459Z</time></trkpt><trkpt lat="44.1013275" lon="11.9598977"><ele>281.0</ele><time>2026-04-25T12:13:45.46Z</time></trkpt><trkpt lat="44.1012572" lon="11.9598295"><ele>281.0</ele><time>2026-04-25T12:13:50.464Z</time></trkpt><trkpt lat="44.1011882" lon="11.9597465"><ele>281.0</ele><time>2026-04-25T12:13:52.466Z</time></trkpt><trkpt lat="44.1011375" lon="11.9596636"><ele>281.0</ele><time>2026-04-25T12:13:53.471Z</time></trkpt><trkpt lat="44.1010931" lon="11.9595702"><ele>281.0</ele><time>2026-04-25T12:13:54.484Z</time></trkpt><trkpt lat="44.101051" lon="11.9594728"><ele>281.0</ele><time>2026-04-25T12:13:55.456Z</time></trkpt><trkpt lat="44.1010312" lon="11.9593756"><ele>281.0</ele><time>2026-04-25T12:13:56.452Z</time></trkpt><trkpt lat="44.1010129" lon="11.9592304"><ele>281.0</ele><time>2026-04-25T12:13:58.466Z</time></trkpt><trkpt lat="44.1009508" lon="11.9592528"><ele>281.0</ele><time>2026-04-25T12:14:02.481Z</time></trkpt><trkpt lat="44.1010229" lon="11.9592869"><ele>281.0</ele><time>2026-04-25T12:14:06.467Z</time></trkpt><trkpt lat="44.1010555" lon="11.9593946"><ele>281.0</ele><time>2026-04-25T12:14:09.474Z</time></trkpt><trkpt lat="44.1010698" lon="11.9595016"><ele>281.0</ele><time>2026-04-25T12:14:11.49Z</time></trkpt><trkpt lat="44.1011154" lon="11.9596025"><ele>281.0</ele><time>2026-04-25T12:14:14.479Z</time></trkpt><trkpt lat="44.1011477" lon="11.959678"><ele>281.0</ele><time>2026-04-25T12:14:16.462Z</time></trkpt><trkpt lat="44.1011957" lon="11.95975"><ele>281.0</ele><time>2026-04-25T12:14:18.46Z</time></trkpt><trkpt lat="44.1012901" lon="11.9598491"><ele>281.0</ele><time>2026-04-25T12:14:20.455Z</time></trkpt><trkpt lat="44.1013716" lon="11.9598784"><ele>281.0</ele><time>2026-04-25T12:14:22.459Z</time></trkpt><trkpt lat="44.1014506" lon="11.9598598"><ele>281.0</ele><time>2026-04-25T12:14:24.466Z</time></trkpt><trkpt lat="44.101517" lon="11.9598805"><ele>281.0</ele><time>2026-04-25T12:14:25.468Z</time></trkpt><trkpt lat="44.1015954" lon="11.9599326"><ele>281.0</ele><time>2026-04-25T12:14:26.467Z</time></trkpt><trkpt lat="44.1016721" lon="11.9599931"><ele>281.0</ele><time>2026-04-25T12:14:27.461Z</time></trkpt><trkpt lat="44.1017492" lon="11.9600343"><ele>281.0</ele><time>2026-04-25T12:14:28.468Z</time></trkpt><trkpt lat="44.1018469" lon="11.9600872"><ele>281.0</ele><time>2026-04-25T12:14:29.449Z</time></trkpt><trkpt lat="44.1019384" lon="11.9601433"><ele>281.0</ele><time>2026-04-25T12:14:30.457Z</time></trkpt><trkpt lat="44.1020185" lon="11.9601908"><ele>281.0</ele><time>2026-04-25T12:14:31.45Z</time></trkpt><trkpt lat="44.1020797" lon="11.9602733"><ele>281.0</ele><time>2026-04-25T12:14:32.46Z</time></trkpt><trkpt lat="44.1021272" lon="11.9603964"><ele>281.0</ele><time>2026-04-25T12:14:33.463Z</time></trkpt><trkpt lat="44.1021571" lon="11.9605377"><ele>281.0</ele><time>2026-04-25T12:14:34.454Z</time></trkpt><trkpt lat="44.1021844" lon="11.9606815"><ele>281.0</ele><time>2026-04-25T12:14:35.459Z</time></trkpt><trkpt lat="44.1022104" lon="11.960797"><ele>281.0</ele><time>2026-04-25T12:14:36.455Z</time></trkpt><trkpt lat="44.1022555" lon="11.9608929"><ele>281.0</ele><time>2026-04-25T12:14:37.472Z</time></trkpt><trkpt lat="44.1023171" lon="11.9609427"><ele>281.0</ele><time>2026-04-25T12:14:38.459Z</time></trkpt><trkpt lat="44.1023882" lon="11.9609617"><ele>281.0</ele><time>2026-04-25T12:14:39.486Z</time></trkpt><trkpt lat="44.1024632" lon="11.960946"><ele>281.0</ele><time>2026-04-25T12:14:40.473Z</time></trkpt><trkpt lat="44.1025392" lon="11.9608891"><ele>285.75</ele><time>2026-04-25T12:14:41.452Z</time></trkpt><trkpt lat="44.1026213" lon="11.9608162"><ele>290.5</ele><time>2026-04-25T12:14:42.457Z</time></trkpt><trkpt lat="44.1027149" lon="11.9607584"><ele>295.25</ele><time>2026-04-25T12:14:43.473Z</time></trkpt><trkpt lat="44.1028365" lon="11.9607149"><ele>300.0</ele><time>2026-04-25T12:14:44.457Z</time></trkpt><trkpt lat="44.1029586" lon="11.9606478"><ele>300.0</ele><time>2026-04-25T12:14:45.456Z</time></trkpt><trkpt lat="44.1030642" lon="11.96057"><ele>300.0</ele><time>2026-04-25T12:14:46.477Z</time></trkpt><trkpt lat="44.1031554" lon="11.9605494"><ele>300.0</ele><time>2026-04-25T12:14:47.468Z</time></trkpt><trkpt lat="44.1032475" lon="11.9605886"><ele>300.0</ele><time>2026-04-25T12:14:48.455Z</time></trkpt><trkpt lat="44.1033269" lon="11.9606578"><ele>300.0</ele><time>2026-04-25T12:14:49.458Z</time></trkpt><trkpt lat="44.1034022" lon="11.9607432"><ele>301.0</ele><time>2026-04-25T12:14:50.473Z</time></trkpt><trkpt lat="44.1034863" lon="11.9607975"><ele>302.0</ele><time>2026-04-25T12:14:51.459Z</time></trkpt><trkpt lat="44.1035907" lon="11.9608226"><ele>303.0</ele><time>2026-04-25T12:14:52.449Z</time></trkpt><trkpt lat="44.1036987" lon="11.9608358"><ele>304.0</ele><time>2026-04-25T12:14:53.472Z</time></trkpt><trkpt lat="44.1037982" lon="11.9608323"><ele>305.0</ele><time>2026-04-25T12:14:54.459Z</time></trkpt><trkpt lat="44.103866" lon="11.9608099"><ele>305.0</ele><time>2026-04-25T12:14:55.45Z</time></trkpt><trkpt lat="44.1039414" lon="11.9607494"><ele>305.0</ele><time>2026-04-25T12:14:56.465Z</time></trkpt><trkpt lat="44.1040235" lon="11.9606811"><ele>305.0</ele><time>2026-04-25T12:14:57.462Z</time></trkpt><trkpt lat="44.1041066" lon="11.9606232"><ele>305.0</ele><time>2026-04-25T12:14:58.457Z</time></trkpt><trkpt lat="44.1042005" lon="11.960595"><ele>305.0</ele><time>2026-04-25T12:14:59.468Z</time></trkpt><trkpt lat="44.1043069" lon="11.9606007"><ele>306.0</ele><time>2026-04-25T12:15:00.473Z</time></trkpt><trkpt lat="44.1044008" lon="11.9606053"><ele>307.0</ele><time>2026-04-25T12:15:01.451Z</time></trkpt><trkpt lat="44.1044918" lon="11.9605562"><ele>308.0</ele><time>2026-04-25T12:15:02.474Z</time></trkpt><trkpt lat="44.1045787" lon="11.9604977"><ele>309.0</ele><time>2026-04-25T12:15:03.458Z</time></trkpt><trkpt lat="44.104655" lon="11.9604879"><ele>310.0</ele><time>2026-04-25T12:15:04.482Z</time></trkpt><trkpt lat="44.1047219" lon="11.9605524"><ele>311.0</ele><time>2026-04-25T12:15:05.455Z</time></trkpt><trkpt lat="44.1047902" lon="11.9606524"><ele>311.0</ele><time>2026-04-25T12:15:06.475Z</time></trkpt><trkpt lat="44.1048616" lon="11.9607996"><ele>311.0</ele><time>2026-04-25T12:15:07.457Z</time></trkpt><trkpt lat="44.1049321" lon="11.9609438"><ele>311.0</ele><time>2026-04-25T12:15:08.464Z</time></trkpt><trkpt lat="44.1049955" lon="11.9610486"><ele>311.0</ele><time>2026-04-25T12:15:09.454Z</time></trkpt><trkpt lat="44.105069" lon="11.9611212"><ele>311.0</ele><time>2026-04-25T12:15:10.468Z</time></trkpt><trkpt lat="44.1051505" lon="11.9611315"><ele>309.6</ele><time>2026-04-25T12:15:11.471Z</time></trkpt><trkpt lat="44.1052381" lon="11.9611012"><ele>308.20000000000005</ele><time>2026-04-25T12:15:12.464Z</time></trkpt><trkpt lat="44.1053136" lon="11.961046"><ele>306.79999999999995</ele><time>2026-04-25T12:15:13.454Z</time></trkpt><trkpt lat="44.1053893" lon="11.9609649"><ele>305.4</ele><time>2026-04-25T12:15:14.446Z</time></trkpt><trkpt lat="44.105483" lon="11.9608731"><ele>304.0</ele><time>2026-04-25T12:15:15.453Z</time></trkpt><trkpt lat="44.1055818" lon="11.9607955"><ele>307.3333333333333</ele><time>2026-04-25T12:15:16.471Z</time></trkpt><trkpt lat="44.1056804" lon="11.9607291"><ele>310.66666666666663</ele><time>2026-04-25T12:15:17.449Z</time></trkpt><trkpt lat="44.1057578" lon="11.9606818"><ele>314.0</ele><time>2026-04-25T12:15:18.474Z</time></trkpt><trkpt lat="44.1058145" lon="11.9606266"><ele>317.3333333333333</ele><time>2026-04-25T12:15:19.473Z</time></trkpt><trkpt lat="44.1058531" lon="11.9605388"><ele>320.6666666666667</ele><time>2026-04-25T12:15:20.457Z</time></trkpt><trkpt lat="44.1058606" lon="11.9604162"><ele>324.0</ele><time>2026-04-25T12:15:21.457Z</time></trkpt><trkpt lat="44.1058733" lon="11.9602958"><ele>325.2</ele><time>2026-04-25T12:15:22.464Z</time></trkpt><trkpt lat="44.1059172" lon="11.9601853"><ele>326.4</ele><time>2026-04-25T12:15:23.463Z</time></trkpt><trkpt lat="44.1059901" lon="11.960085"><ele>327.6</ele><time>2026-04-25T12:15:24.457Z</time></trkpt><trkpt lat="44.1060843" lon="11.9599754"><ele>328.8</ele><time>2026-04-25T12:15:25.457Z</time></trkpt><trkpt lat="44.1061745" lon="11.9598672"><ele>330.0</ele><time>2026-04-25T12:15:26.471Z</time></trkpt><trkpt lat="44.1062613" lon="11.9597839"><ele>333.0</ele><time>2026-04-25T12:15:27.462Z</time></trkpt><trkpt lat="44.1063452" lon="11.9597531"><ele>336.0</ele><time>2026-04-25T12:15:28.464Z</time></trkpt><trkpt lat="44.1064325" lon="11.9597617"><ele>339.0</ele><time>2026-04-25T12:15:29.447Z</time></trkpt><trkpt lat="44.1065142" lon="11.959792"><ele>342.0</ele><time>2026-04-25T12:15:30.463Z</time></trkpt><trkpt lat="44.1065812" lon="11.9597907"><ele>345.0</ele><time>2026-04-25T12:15:31.461Z</time></trkpt><trkpt lat="44.1066332" lon="11.9596919"><ele>348.0</ele><time>2026-04-25T12:15:33.46Z</time></trkpt><trkpt lat="44.1065608" lon="11.9595898"><ele>348.0</ele><time>2026-04-25T12:15:35.454Z</time></trkpt><trkpt lat="44.1064815" lon="11.9595762"><ele>348.0</ele><time>2026-04-25T12:15:36.459Z</time></trkpt><trkpt lat="44.1063711" lon="11.9595528"><ele>348.0</ele><time>2026-04-25T12:15:37.457Z</time></trkpt><trkpt lat="44.1062441" lon="11.959551"><ele>348.0</ele><time>2026-04-25T12:15:38.464Z</time></trkpt><trkpt lat="44.1061171" lon="11.9595541"><ele>348.0</ele><time>2026-04-25T12:15:39.465Z</time></trkpt><trkpt lat="44.1060023" lon="11.959575"><ele>348.0</ele><time>2026-04-25T12:15:40.455Z</time></trkpt><trkpt lat="44.1059018" lon="11.9596654"><ele>348.0</ele><time>2026-04-25T12:15:41.457Z</time></trkpt><trkpt lat="44.1058028" lon="11.9597825"><ele>348.0</ele><time>2026-04-25T12:15:42.457Z</time></trkpt><trkpt lat="44.1057269" lon="11.959874"><ele>348.0</ele><time>2026-04-25T12:15:43.453Z</time></trkpt><trkpt lat="44.105663" lon="11.9599109"><ele>348.0</ele><time>2026-04-25T12:15:44.46Z</time></trkpt><trkpt lat="44.1055392" lon="11.9598456"><ele>347.0</ele><time>2026-04-25T12:15:46.483Z</time></trkpt><trkpt lat="44.1054856" lon="11.9597641"><ele>346.0</ele><time>2026-04-25T12:15:47.471Z</time></trkpt><trkpt lat="44.1054177" lon="11.9596558"><ele>345.0</ele><time>2026-04-25T12:15:48.466Z</time></trkpt><trkpt lat="44.1053459" lon="11.9595229"><ele>344.0</ele><time>2026-04-25T12:15:49.482Z</time></trkpt><trkpt lat="44.1052851" lon="11.959364"><ele>343.0</ele><time>2026-04-25T12:15:50.46Z</time></trkpt><trkpt lat="44.105249" lon="11.9592206"><ele>343.0</ele><time>2026-04-25T12:15:51.465Z</time></trkpt><trkpt lat="44.1052422" lon="11.959109"><ele>343.0</ele><time>2026-04-25T12:15:52.482Z</time></trkpt><trkpt lat="44.1052967" lon="11.9590643"><ele>343.0</ele><time>2026-04-25T12:15:54.458Z</time></trkpt><trkpt lat="44.1053825" lon="11.9591513"><ele>343.0</ele><time>2026-04-25T12:15:56.468Z</time></trkpt><trkpt lat="44.1054105" lon="11.9592463"><ele>343.0</ele><time>2026-04-25T12:15:57.467Z</time></trkpt><trkpt lat="44.105437" lon="11.9593467"><ele>343.0</ele><time>2026-04-25T12:15:58.465Z</time></trkpt><trkpt lat="44.1055273" lon="11.9594662"><ele>343.0</ele><time>2026-04-25T12:16:00.468Z</time></trkpt><trkpt lat="44.1055922" lon="11.9594891"><ele>343.0</ele><time>2026-04-25T12:16:01.462Z</time></trkpt><trkpt lat="44.1056691" lon="11.9594832"><ele>343.0</ele><time>2026-04-25T12:16:02.474Z</time></trkpt><trkpt lat="44.1057513" lon="11.959464"><ele>343.0</ele><time>2026-04-25T12:16:03.458Z</time></trkpt><trkpt lat="44.1058236" lon="11.9594408"><ele>343.0</ele><time>2026-04-25T12:16:04.453Z</time></trkpt><trkpt lat="44.1058897" lon="11.9593924"><ele>343.0</ele><time>2026-04-25T12:16:05.461Z</time></trkpt><trkpt lat="44.1059366" lon="11.9592838"><ele>349.5</ele><time>2026-04-25T12:16:06.471Z</time></trkpt><trkpt lat="44.1059847" lon="11.9591247"><ele>356.0</ele><time>2026-04-25T12:16:07.461Z</time></trkpt><trkpt lat="44.1060335" lon="11.9589495"><ele>362.5</ele><time>2026-04-25T12:16:08.452Z</time></trkpt><trkpt lat="44.1060857" lon="11.9587839"><ele>369.0</ele><time>2026-04-25T12:16:09.478Z</time></trkpt><trkpt lat="44.1061654" lon="11.9586467"><ele>369.0</ele><time>2026-04-25T12:16:10.472Z</time></trkpt><trkpt lat="44.1062769" lon="11.9585499"><ele>369.0</ele><time>2026-04-25T12:16:11.458Z</time></trkpt><trkpt lat="44.1064056" lon="11.9584747"><ele>369.0</ele><time>2026-04-25T12:16:12.458Z</time></trkpt><trkpt lat="44.1065346" lon="11.9584154"><ele>369.0</ele><time>2026-04-25T12:16:13.469Z</time></trkpt><trkpt lat="44.106656" lon="11.9583822"><ele>367.0</ele><time>2026-04-25T12:16:14.485Z</time></trkpt><trkpt lat="44.1067806" lon="11.9583774"><ele>365.0</ele><time>2026-04-25T12:16:15.464Z</time></trkpt><trkpt lat="44.106915" lon="11.958418"><ele>363.0</ele><time>2026-04-25T12:16:16.467Z</time></trkpt><trkpt lat="44.1070489" lon="11.9584792"><ele>361.0</ele><time>2026-04-25T12:16:17.465Z</time></trkpt><trkpt lat="44.1071536" lon="11.958522"><ele>361.0</ele><time>2026-04-25T12:16:18.477Z</time></trkpt><trkpt lat="44.1072349" lon="11.9585459"><ele>361.0</ele><time>2026-04-25T12:16:19.461Z</time></trkpt><trkpt lat="44.1073389" lon="11.9585665"><ele>361.0</ele><time>2026-04-25T12:16:21.458Z</time></trkpt><trkpt lat="44.1074042" lon="11.958513"><ele>361.0</ele><time>2026-04-25T12:16:23.471Z</time></trkpt><trkpt lat="44.1074176" lon="11.9583828"><ele>361.0</ele><time>2026-04-25T12:16:25.463Z</time></trkpt><trkpt lat="44.107388" lon="11.9582805"><ele>361.0</ele><time>2026-04-25T12:16:26.465Z</time></trkpt><trkpt lat="44.1073576" lon="11.9581828"><ele>365.0</ele><time>2026-04-25T12:16:27.463Z</time></trkpt><trkpt lat="44.1073316" lon="11.958086"><ele>369.0</ele><time>2026-04-25T12:16:28.466Z</time></trkpt><trkpt lat="44.1073058" lon="11.9579962"><ele>373.0</ele><time>2026-04-25T12:16:29.45Z</time></trkpt><trkpt lat="44.1072673" lon="11.9578381"><ele>377.0</ele><time>2026-04-25T12:16:31.47Z</time></trkpt><trkpt lat="44.1072528" lon="11.9576857"><ele>381.0</ele><time>2026-04-25T12:16:33.477Z</time></trkpt><trkpt lat="44.1072597" lon="11.9575225"><ele>383.1666666666667</ele><time>2026-04-25T12:16:35.469Z</time></trkpt><trkpt lat="44.1072311" lon="11.957365"><ele>385.33333333333337</ele><time>2026-04-25T12:16:37.476Z</time></trkpt><trkpt lat="44.1071861" lon="11.9572855"><ele>387.5</ele><time>2026-04-25T12:16:38.474Z</time></trkpt><trkpt lat="44.1071299" lon="11.9572174"><ele>389.6666666666667</ele><time>2026-04-25T12:16:39.462Z</time></trkpt><trkpt lat="44.1070628" lon="11.9571399"><ele>391.83333333333337</ele><time>2026-04-25T12:16:40.465Z</time></trkpt><trkpt lat="44.1069922" lon="11.9570474"><ele>394.0</ele><time>2026-04-25T12:16:41.459Z</time></trkpt><trkpt lat="44.1069167" lon="11.9569316"><ele>394.0</ele><time>2026-04-25T12:16:42.457Z</time></trkpt><trkpt lat="44.106854" lon="11.9567943"><ele>394.0</ele><time>2026-04-25T12:16:43.454Z</time></trkpt><trkpt lat="44.1068025" lon="11.9566472"><ele>394.0</ele><time>2026-04-25T12:16:44.478Z</time></trkpt><trkpt lat="44.1067677" lon="11.9564862"><ele>394.0</ele><time>2026-04-25T12:16:45.454Z</time></trkpt><trkpt lat="44.106741" lon="11.9563155"><ele>392.4</ele><time>2026-04-25T12:16:46.475Z</time></trkpt><trkpt lat="44.1067123" lon="11.956162"><ele>390.79999999999995</ele><time>2026-04-25T12:16:47.472Z</time></trkpt><trkpt lat="44.1066826" lon="11.9560261"><ele>389.20000000000005</ele><time>2026-04-25T12:16:48.455Z</time></trkpt><trkpt lat="44.1066369" lon="11.9559105"><ele>387.6</ele><time>2026-04-25T12:16:49.475Z</time></trkpt><trkpt lat="44.1065742" lon="11.9558104"><ele>386.0</ele><time>2026-04-25T12:16:50.456Z</time></trkpt><trkpt lat="44.1064978" lon="11.9557215"><ele>389.49999999999994</ele><time>2026-04-25T12:16:51.479Z</time></trkpt><trkpt lat="44.1064231" lon="11.9556354"><ele>393.0</ele><time>2026-04-25T12:16:52.451Z</time></trkpt><trkpt lat="44.1063806" lon="11.9555468"><ele>396.5</ele><time>2026-04-25T12:16:53.462Z</time></trkpt><trkpt lat="44.1063514" lon="11.9554277"><ele>400.0</ele><time>2026-04-25T12:16:54.465Z</time></trkpt><trkpt lat="44.1063528" lon="11.9553013"><ele>403.49999999999994</ele><time>2026-04-25T12:16:55.454Z</time></trkpt><trkpt lat="44.1063628" lon="11.9551704"><ele>407.0</ele><time>2026-04-25T12:16:56.458Z</time></trkpt><trkpt lat="44.1063662" lon="11.9550556"><ele>405.49999999999994</ele><time>2026-04-25T12:16:57.472Z</time></trkpt><trkpt lat="44.1063413" lon="11.9549549"><ele>404.0</ele><time>2026-04-25T12:16:58.473Z</time></trkpt><trkpt lat="44.1063094" lon="11.954859"><ele>402.5</ele><time>2026-04-25T12:16:59.463Z</time></trkpt><trkpt lat="44.1062681" lon="11.9547833"><ele>401.0</ele><time>2026-04-25T12:17:00.464Z</time></trkpt><trkpt lat="44.1062353" lon="11.9547032"><ele>399.49999999999994</ele><time>2026-04-25T12:17:01.453Z</time></trkpt><trkpt lat="44.1062486" lon="11.9545314"><ele>398.0</ele><time>2026-04-25T12:17:03.467Z</time></trkpt><trkpt lat="44.1062939" lon="11.9544171"><ele>398.0</ele><time>2026-04-25T12:17:04.471Z</time></trkpt><trkpt lat="44.1063634" lon="11.9542587"><ele>398.0</ele><time>2026-04-25T12:17:05.458Z</time></trkpt><trkpt lat="44.1064235" lon="11.9540681"><ele>398.0</ele><time>2026-04-25T12:17:06.453Z</time></trkpt><trkpt lat="44.1064876" lon="11.9538879"><ele>398.0</ele><time>2026-04-25T12:17:07.465Z</time></trkpt><trkpt lat="44.1065564" lon="11.9537183"><ele>394.0</ele><time>2026-04-25T12:17:08.464Z</time></trkpt><trkpt lat="44.1066406" lon="11.9535594"><ele>390.0</ele><time>2026-04-25T12:17:09.453Z</time></trkpt><trkpt lat="44.1067257" lon="11.9533919"><ele>386.0</ele><time>2026-04-25T12:17:10.463Z</time></trkpt><trkpt lat="44.1068111" lon="11.953208"><ele>382.0</ele><time>2026-04-25T12:17:11.451Z</time></trkpt><trkpt lat="44.1069001" lon="11.9530237"><ele>382.0</ele><time>2026-04-25T12:17:12.464Z</time></trkpt><trkpt lat="44.1069926" lon="11.9528469"><ele>382.0</ele><time>2026-04-25T12:17:13.468Z</time></trkpt><trkpt lat="44.1070736" lon="11.9526897"><ele>382.0</ele><time>2026-04-25T12:17:14.455Z</time></trkpt><trkpt lat="44.1071479" lon="11.9525415"><ele>382.0</ele><time>2026-04-25T12:17:15.462Z</time></trkpt><trkpt lat="44.1072143" lon="11.9524291"><ele>383.8333333333333</ele><time>2026-04-25T12:17:16.456Z</time></trkpt><trkpt lat="44.1072624" lon="11.9523408"><ele>385.66666666666663</ele><time>2026-04-25T12:17:17.454Z</time></trkpt><trkpt lat="44.1073032" lon="11.952213"><ele>387.5</ele><time>2026-04-25T12:17:19.457Z</time></trkpt><trkpt lat="44.1072889" lon="11.9521086"><ele>389.3333333333333</ele><time>2026-04-25T12:17:21.471Z</time></trkpt><trkpt lat="44.1072266" lon="11.9520595"><ele>391.1666666666667</ele><time>2026-04-25T12:17:23.492Z</time></trkpt><trkpt lat="44.1071249" lon="11.9520993"><ele>393.0</ele><time>2026-04-25T12:17:25.464Z</time></trkpt><trkpt lat="44.1070638" lon="11.9521434"><ele>393.0</ele><time>2026-04-25T12:17:26.464Z</time></trkpt><trkpt lat="44.106997" lon="11.9522"><ele>393.0</ele><time>2026-04-25T12:17:27.456Z</time></trkpt><trkpt lat="44.1069165" lon="11.9522257"><ele>393.0</ele><time>2026-04-25T12:17:28.471Z</time></trkpt><trkpt lat="44.1068447" lon="11.9522087"><ele>393.0</ele><time>2026-04-25T12:17:29.462Z</time></trkpt><trkpt lat="44.1067757" lon="11.9521554"><ele>393.0</ele><time>2026-04-25T12:17:30.461Z</time></trkpt><trkpt lat="44.1066871" lon="11.9520859"><ele>393.0</ele><time>2026-04-25T12:17:31.498Z</time></trkpt><trkpt lat="44.1065873" lon="11.9520116"><ele>395.5</ele><time>2026-04-25T12:17:32.477Z</time></trkpt><trkpt lat="44.1064978" lon="11.9519619"><ele>398.0</ele><time>2026-04-25T12:17:33.44Z</time></trkpt><trkpt lat="44.1064212" lon="11.9519301"><ele>400.5</ele><time>2026-04-25T12:17:34.47Z</time></trkpt><trkpt lat="44.1063443" lon="11.9519169"><ele>403.0</ele><time>2026-04-25T12:17:35.472Z</time></trkpt><trkpt lat="44.10627" lon="11.9519218"><ele>405.5</ele><time>2026-04-25T12:17:36.47Z</time></trkpt><trkpt lat="44.1061868" lon="11.9519287"><ele>408.0</ele><time>2026-04-25T12:17:37.465Z</time></trkpt><trkpt lat="44.106097" lon="11.9519266"><ele>408.0</ele><time>2026-04-25T12:17:38.484Z</time></trkpt><trkpt lat="44.106024" lon="11.9518908"><ele>408.0</ele><time>2026-04-25T12:17:39.468Z</time></trkpt><trkpt lat="44.1059572" lon="11.9518573"><ele>408.0</ele><time>2026-04-25T12:17:40.461Z</time></trkpt><trkpt lat="44.1058783" lon="11.9517755"><ele>408.0</ele><time>2026-04-25T12:17:42.473Z</time></trkpt><trkpt lat="44.1058044" lon="11.9516672"><ele>408.0</ele><time>2026-04-25T12:17:44.467Z</time></trkpt><trkpt lat="44.1057193" lon="11.9515767"><ele>408.8333333333333</ele><time>2026-04-25T12:17:46.473Z</time></trkpt><trkpt lat="44.1056378" lon="11.9515337"><ele>409.66666666666663</ele><time>2026-04-25T12:17:48.462Z</time></trkpt><trkpt lat="44.1055573" lon="11.9514966"><ele>410.5</ele><time>2026-04-25T12:17:50.47Z</time></trkpt><trkpt lat="44.1054773" lon="11.9514702"><ele>411.3333333333333</ele><time>2026-04-25T12:17:52.462Z</time></trkpt><trkpt lat="44.1053937" lon="11.9514233"><ele>412.16666666666663</ele><time>2026-04-25T12:17:54.469Z</time></trkpt><trkpt lat="44.105302" lon="11.9513573"><ele>413.0</ele><time>2026-04-25T12:17:56.48Z</time></trkpt><trkpt lat="44.1052023" lon="11.9512811"><ele>412.99999999999994</ele><time>2026-04-25T12:17:58.464Z</time></trkpt><trkpt lat="44.105093" lon="11.951183"><ele>413.0</ele><time>2026-04-25T12:18:00.455Z</time></trkpt><trkpt lat="44.1050312" lon="11.9511269"><ele>413.0</ele><time>2026-04-25T12:18:01.46Z</time></trkpt><trkpt lat="44.1049744" lon="11.9510798"><ele>413.0</ele><time>2026-04-25T12:18:02.475Z</time></trkpt><trkpt lat="44.104885" lon="11.9510218"><ele>412.99999999999994</ele><time>2026-04-25T12:18:04.449Z</time></trkpt><trkpt lat="44.1048201" lon="11.9509749"><ele>413.0</ele><time>2026-04-25T12:18:06.488Z</time></trkpt><trkpt lat="44.104757" lon="11.9509149"><ele>412.99999999999994</ele><time>2026-04-25T12:18:08.46Z</time></trkpt><trkpt lat="44.1046997" lon="11.9508614"><ele>413.0</ele><time>2026-04-25T12:18:10.469Z</time></trkpt><trkpt lat="44.1046252" lon="11.9508047"><ele>413.0</ele><time>2026-04-25T12:18:13.46Z</time></trkpt><trkpt lat="44.1045868" lon="11.9507323"><ele>413.0</ele><time>2026-04-25T12:18:15.462Z</time></trkpt><trkpt lat="44.1045584" lon="11.9506463"><ele>412.99999999999994</ele><time>2026-04-25T12:18:17.467Z</time></trkpt><trkpt lat="44.1045467" lon="11.9505369"><ele>413.0</ele><time>2026-04-25T12:18:20.454Z</time></trkpt><trkpt lat="44.1045576" lon="11.9504125"><ele>413.0</ele><time>2026-04-25T12:18:23.449Z</time></trkpt><trkpt lat="44.104588" lon="11.9502436"><ele>413.0</ele><time>2026-04-25T12:18:25.469Z</time></trkpt><trkpt lat="44.1046075" lon="11.9501324"><ele>413.0</ele><time>2026-04-25T12:18:26.471Z</time></trkpt><trkpt lat="44.1046208" lon="11.9500264"><ele>413.0</ele><time>2026-04-25T12:18:27.457Z</time></trkpt><trkpt lat="44.1046133" lon="11.9499343"><ele>413.0</ele><time>2026-04-25T12:18:28.459Z</time></trkpt><trkpt lat="44.1045343" lon="11.9498137"><ele>411.0</ele><time>2026-04-25T12:18:30.459Z</time></trkpt><trkpt lat="44.1044649" lon="11.9497984"><ele>409.0</ele><time>2026-04-25T12:18:31.472Z</time></trkpt><trkpt lat="44.104384" lon="11.9498059"><ele>407.0</ele><time>2026-04-25T12:18:32.473Z</time></trkpt><trkpt lat="44.1042807" lon="11.9498321"><ele>405.0</ele><time>2026-04-25T12:18:33.469Z</time></trkpt><trkpt lat="44.1041721" lon="11.9498687"><ele>403.0</ele><time>2026-04-25T12:18:34.463Z</time></trkpt><trkpt lat="44.104072" lon="11.9499097"><ele>403.0</ele><time>2026-04-25T12:18:35.461Z</time></trkpt><trkpt lat="44.1039826" lon="11.9499447"><ele>403.0</ele><time>2026-04-25T12:18:36.447Z</time></trkpt><trkpt lat="44.1038935" lon="11.9499732"><ele>403.0</ele><time>2026-04-25T12:18:37.456Z</time></trkpt><trkpt lat="44.1037975" lon="11.9499808"><ele>403.0</ele><time>2026-04-25T12:18:38.473Z</time></trkpt><trkpt lat="44.1037024" lon="11.9499566"><ele>403.0</ele><time>2026-04-25T12:18:39.472Z</time></trkpt><trkpt lat="44.1035952" lon="11.9499272"><ele>403.0</ele><time>2026-04-25T12:18:40.479Z</time></trkpt><trkpt lat="44.103482" lon="11.9498801"><ele>403.0</ele><time>2026-04-25T12:18:41.449Z</time></trkpt><trkpt lat="44.1033775" lon="11.9498274"><ele>403.0</ele><time>2026-04-25T12:18:42.476Z</time></trkpt><trkpt lat="44.1032789" lon="11.9497658"><ele>403.0</ele><time>2026-04-25T12:18:43.462Z</time></trkpt><trkpt lat="44.1031831" lon="11.9496829"><ele>400.79999999999995</ele><time>2026-04-25T12:18:44.462Z</time></trkpt><trkpt lat="44.103098" lon="11.9496013"><ele>398.6</ele><time>2026-04-25T12:18:45.47Z</time></trkpt><trkpt lat="44.1030191" lon="11.9495096"><ele>396.4</ele><time>2026-04-25T12:18:46.453Z</time></trkpt><trkpt lat="44.1029527" lon="11.9494094"><ele>394.20000000000005</ele><time>2026-04-25T12:18:47.45Z</time></trkpt><trkpt lat="44.1028979" lon="11.9493218"><ele>392.0</ele><time>2026-04-25T12:18:48.463Z</time></trkpt><trkpt lat="44.1028307" lon="11.9492672"><ele>391.99999999999994</ele><time>2026-04-25T12:18:49.477Z</time></trkpt><trkpt lat="44.1027553" lon="11.9492319"><ele>392.0</ele><time>2026-04-25T12:18:50.454Z</time></trkpt><trkpt lat="44.1026821" lon="11.9492267"><ele>392.0</ele><time>2026-04-25T12:18:51.471Z</time></trkpt><trkpt lat="44.1025798" lon="11.9492505"><ele>392.0</ele><time>2026-04-25T12:18:53.453Z</time></trkpt><trkpt lat="44.1025135" lon="11.9492652"><ele>391.99999999999994</ele><time>2026-04-25T12:18:55.463Z</time></trkpt><trkpt lat="44.1024563" lon="11.9492208"><ele>392.0</ele><time>2026-04-25T12:18:58.469Z</time></trkpt><trkpt lat="44.1025085" lon="11.9491449"><ele>391.66666666666663</ele><time>2026-04-25T12:19:01.454Z</time></trkpt><trkpt lat="44.1025819" lon="11.9491306"><ele>391.3333333333333</ele><time>2026-04-25T12:19:04.472Z</time></trkpt><trkpt lat="44.102648" lon="11.9490889"><ele>391.0</ele><time>2026-04-25T12:19:07.469Z</time></trkpt><trkpt lat="44.1027133" lon="11.9490689"><ele>390.66666666666663</ele><time>2026-04-25T12:19:11.471Z</time></trkpt><trkpt lat="44.1027988" lon="11.9490288"><ele>390.3333333333333</ele><time>2026-04-25T12:20:03.459Z</time></trkpt><trkpt lat="44.1028924" lon="11.9491031"><ele>390.0</ele><time>2026-04-25T12:20:06.478Z</time></trkpt><trkpt lat="44.1029506" lon="11.9491731"><ele>390.3333333333333</ele><time>2026-04-25T12:20:07.451Z</time></trkpt><trkpt lat="44.1029911" lon="11.9492664"><ele>390.66666666666663</ele><time>2026-04-25T12:20:08.472Z</time></trkpt><trkpt lat="44.1030507" lon="11.9493515"><ele>391.0</ele><time>2026-04-25T12:20:09.464Z</time></trkpt><trkpt lat="44.1031191" lon="11.9494239"><ele>391.3333333333333</ele><time>2026-04-25T12:20:10.459Z</time></trkpt><trkpt lat="44.1031935" lon="11.9494788"><ele>391.66666666666663</ele><time>2026-04-25T12:20:11.474Z</time></trkpt><trkpt lat="44.1032845" lon="11.9495201"><ele>392.0</ele><time>2026-04-25T12:20:12.456Z</time></trkpt><trkpt lat="44.1034045" lon="11.9495745"><ele>394.75</ele><time>2026-04-25T12:20:13.456Z</time></trkpt><trkpt lat="44.103522" lon="11.9496126"><ele>397.5</ele><time>2026-04-25T12:20:14.459Z</time></trkpt><trkpt lat="44.1036601" lon="11.9495944"><ele>400.25</ele><time>2026-04-25T12:20:15.457Z</time></trkpt><trkpt lat="44.1037837" lon="11.9495429"><ele>403.0</ele><time>2026-04-25T12:20:16.452Z</time></trkpt><trkpt lat="44.1039214" lon="11.9494587"><ele>403.0</ele><time>2026-04-25T12:20:17.46Z</time></trkpt><trkpt lat="44.1040612" lon="11.949407"><ele>403.0</ele><time>2026-04-25T12:20:18.478Z</time></trkpt><trkpt lat="44.1041802" lon="11.9493295"><ele>403.0</ele><time>2026-04-25T12:20:19.453Z</time></trkpt><trkpt lat="44.1042977" lon="11.9492645"><ele>403.0</ele><time>2026-04-25T12:20:20.457Z</time></trkpt><trkpt lat="44.1043989" lon="11.9492139"><ele>395.5</ele><time>2026-04-25T12:20:21.455Z</time></trkpt><trkpt lat="44.1044999" lon="11.949148"><ele>388.0</ele><time>2026-04-25T12:20:22.456Z</time></trkpt><trkpt lat="44.104614" lon="11.94906"><ele>380.5</ele><time>2026-04-25T12:20:23.452Z</time></trkpt><trkpt lat="44.1047137" lon="11.9489187"><ele>373.0</ele><time>2026-04-25T12:20:24.461Z</time></trkpt><trkpt lat="44.1048263" lon="11.9487698"><ele>374.0</ele><time>2026-04-25T12:20:25.456Z</time></trkpt><trkpt lat="44.1049431" lon="11.9486326"><ele>375.0</ele><time>2026-04-25T12:20:26.457Z</time></trkpt><trkpt lat="44.105031" lon="11.9484863"><ele>376.0</ele><time>2026-04-25T12:20:27.462Z</time></trkpt><trkpt lat="44.1051277" lon="11.9483641"><ele>377.0</ele><time>2026-04-25T12:20:28.469Z</time></trkpt><trkpt lat="44.105211" lon="11.9482103"><ele>373.25</ele><time>2026-04-25T12:20:29.448Z</time></trkpt><trkpt lat="44.10528" lon="11.948038"><ele>369.5</ele><time>2026-04-25T12:20:30.46Z</time></trkpt><trkpt lat="44.1053385" lon="11.9478558"><ele>365.75</ele><time>2026-04-25T12:20:31.464Z</time></trkpt><trkpt lat="44.1053803" lon="11.9476509"><ele>362.0</ele><time>2026-04-25T12:20:32.446Z</time></trkpt><trkpt lat="44.1053954" lon="11.9474206"><ele>355.33333333333337</ele><time>2026-04-25T12:20:33.452Z</time></trkpt><trkpt lat="44.105395" lon="11.9471987"><ele>348.6666666666667</ele><time>2026-04-25T12:20:34.459Z</time></trkpt><trkpt lat="44.1053969" lon="11.9469872"><ele>342.0</ele><time>2026-04-25T12:20:35.445Z</time></trkpt><trkpt lat="44.1054111" lon="11.9467874"><ele>340.75</ele><time>2026-04-25T12:20:36.452Z</time></trkpt><trkpt lat="44.1054314" lon="11.9466035"><ele>339.5</ele><time>2026-04-25T12:20:37.447Z</time></trkpt><trkpt lat="44.1054334" lon="11.9464417"><ele>338.25</ele><time>2026-04-25T12:20:38.452Z</time></trkpt><trkpt lat="44.1054065" lon="11.9462825"><ele>337.0</ele><time>2026-04-25T12:20:39.461Z</time></trkpt><trkpt lat="44.1053514" lon="11.9461217"><ele>337.0</ele><time>2026-04-25T12:20:40.456Z</time></trkpt><trkpt lat="44.1052823" lon="11.9459669"><ele>337.0</ele><time>2026-04-25T12:20:41.445Z</time></trkpt><trkpt lat="44.1052245" lon="11.9457996"><ele>337.0</ele><time>2026-04-25T12:20:42.455Z</time></trkpt><trkpt lat="44.1051781" lon="11.9456297"><ele>337.0</ele><time>2026-04-25T12:20:43.46Z</time></trkpt><trkpt lat="44.1051212" lon="11.9454611"><ele>337.75</ele><time>2026-04-25T12:20:44.456Z</time></trkpt><trkpt lat="44.1050665" lon="11.9452993"><ele>338.5</ele><time>2026-04-25T12:20:45.462Z</time></trkpt><trkpt lat="44.1050171" lon="11.9451398"><ele>339.25</ele><time>2026-04-25T12:20:46.46Z</time></trkpt><trkpt lat="44.1049873" lon="11.9449842"><ele>340.0</ele><time>2026-04-25T12:20:47.451Z</time></trkpt><trkpt lat="44.1049656" lon="11.9448314"><ele>340.4</ele><time>2026-04-25T12:20:48.467Z</time></trkpt><trkpt lat="44.1049542" lon="11.9446919"><ele>340.8</ele><time>2026-04-25T12:20:49.469Z</time></trkpt><trkpt lat="44.1049672" lon="11.944559"><ele>341.20000000000005</ele><time>2026-04-25T12:20:50.471Z</time></trkpt><trkpt lat="44.1050021" lon="11.9444305"><ele>341.6</ele><time>2026-04-25T12:20:51.447Z</time></trkpt><trkpt lat="44.1050698" lon="11.9443035"><ele>342.0</ele><time>2026-04-25T12:20:52.477Z</time></trkpt><trkpt lat="44.105137" lon="11.9441635"><ele>340.0</ele><time>2026-04-25T12:20:53.456Z</time></trkpt><trkpt lat="44.1051805" lon="11.9440221"><ele>338.0</ele><time>2026-04-25T12:20:54.459Z</time></trkpt><trkpt lat="44.1052049" lon="11.9438701"><ele>336.0</ele><time>2026-04-25T12:20:55.463Z</time></trkpt><trkpt lat="44.1052056" lon="11.9437098"><ele>334.0</ele><time>2026-04-25T12:20:56.46Z</time></trkpt><trkpt lat="44.1052046" lon="11.9435646"><ele>332.0</ele><time>2026-04-25T12:20:57.46Z</time></trkpt><trkpt lat="44.1052108" lon="11.9434358"><ele>329.20000000000005</ele><time>2026-04-25T12:20:58.473Z</time></trkpt><trkpt lat="44.1052409" lon="11.9433261"><ele>326.40000000000003</ele><time>2026-04-25T12:20:59.471Z</time></trkpt><trkpt lat="44.105297" lon="11.9432372"><ele>323.6</ele><time>2026-04-25T12:21:00.458Z</time></trkpt><trkpt lat="44.1053783" lon="11.9431763"><ele>320.8</ele><time>2026-04-25T12:21:01.46Z</time></trkpt><trkpt lat="44.1054784" lon="11.9431207"><ele>318.0</ele><time>2026-04-25T12:21:02.464Z</time></trkpt><trkpt lat="44.1055839" lon="11.9430603"><ele>318.0</ele><time>2026-04-25T12:21:03.468Z</time></trkpt><trkpt lat="44.1056939" lon="11.9430018"><ele>318.0</ele><time>2026-04-25T12:21:04.453Z</time></trkpt><trkpt lat="44.1057848" lon="11.9429326"><ele>318.0</ele><time>2026-04-25T12:21:05.46Z</time></trkpt><trkpt lat="44.1058698" lon="11.9428781"><ele>318.0</ele><time>2026-04-25T12:21:06.454Z</time></trkpt><trkpt lat="44.1059562" lon="11.9428602"><ele>318.0</ele><time>2026-04-25T12:21:07.459Z</time></trkpt><trkpt lat="44.106032" lon="11.9428802"><ele>321.4</ele><time>2026-04-25T12:21:08.46Z</time></trkpt><trkpt lat="44.1061099" lon="11.9429401"><ele>324.8</ele><time>2026-04-25T12:21:09.46Z</time></trkpt><trkpt lat="44.1061922" lon="11.9430239"><ele>328.2</ele><time>2026-04-25T12:21:10.45Z</time></trkpt><trkpt lat="44.1062849" lon="11.9431209"><ele>331.6</ele><time>2026-04-25T12:21:11.466Z</time></trkpt><trkpt lat="44.1063745" lon="11.9432265"><ele>335.0</ele><time>2026-04-25T12:21:12.456Z</time></trkpt><trkpt lat="44.1064578" lon="11.94334"><ele>335.83333333333337</ele><time>2026-04-25T12:21:13.46Z</time></trkpt><trkpt lat="44.1065307" lon="11.9434584"><ele>336.6666666666667</ele><time>2026-04-25T12:21:14.428Z</time></trkpt><trkpt lat="44.1065958" lon="11.9435538"><ele>337.5</ele><time>2026-04-25T12:21:15.454Z</time></trkpt><trkpt lat="44.1066625" lon="11.9435965"><ele>338.3333333333333</ele><time>2026-04-25T12:21:16.453Z</time></trkpt><trkpt lat="44.1067219" lon="11.9436311"><ele>339.16666666666663</ele><time>2026-04-25T12:21:18.449Z</time></trkpt><trkpt lat="44.1067806" lon="11.9435787"><ele>340.0</ele><time>2026-04-25T12:27:51.456Z</time></trkpt><trkpt lat="44.1069083" lon="11.9435532"><ele>340.0</ele><time>2026-04-25T12:27:53.454Z</time></trkpt><trkpt lat="44.1069808" lon="11.943551"><ele>340.0</ele><time>2026-04-25T12:27:54.47Z</time></trkpt><trkpt lat="44.1070661" lon="11.9435668"><ele>340.0</ele><time>2026-04-25T12:27:55.442Z</time></trkpt><trkpt lat="44.1071463" lon="11.943622"><ele>340.0</ele><time>2026-04-25T12:27:56.453Z</time></trkpt><trkpt lat="44.1072112" lon="11.9436923"><ele>340.0</ele><time>2026-04-25T12:27:57.447Z</time></trkpt><trkpt lat="44.1072616" lon="11.9437909"><ele>340.0</ele><time>2026-04-25T12:27:58.449Z</time></trkpt><trkpt lat="44.1072982" lon="11.9439175"><ele>340.0</ele><time>2026-04-25T12:27:59.454Z</time></trkpt><trkpt lat="44.1073403" lon="11.9440524"><ele>340.0</ele><time>2026-04-25T12:28:00.452Z</time></trkpt><trkpt lat="44.1073943" lon="11.944181"><ele>340.0</ele><time>2026-04-25T12:28:01.448Z</time></trkpt><trkpt lat="44.1074656" lon="11.9443165"><ele>340.0</ele><time>2026-04-25T12:28:02.453Z</time></trkpt><trkpt lat="44.1075588" lon="11.9444484"><ele>338.0</ele><time>2026-04-25T12:28:03.452Z</time></trkpt><trkpt lat="44.1076641" lon="11.9445704"><ele>336.0</ele><time>2026-04-25T12:28:04.454Z</time></trkpt><trkpt lat="44.107768" lon="11.9446921"><ele>334.0</ele><time>2026-04-25T12:28:05.451Z</time></trkpt><trkpt lat="44.1078597" lon="11.9448007"><ele>332.0</ele><time>2026-04-25T12:28:06.45Z</time></trkpt><trkpt lat="44.1079588" lon="11.9448928"><ele>332.0</ele><time>2026-04-25T12:28:07.445Z</time></trkpt><trkpt lat="44.1080696" lon="11.944968"><ele>332.0</ele><time>2026-04-25T12:28:08.442Z</time></trkpt><trkpt lat="44.1081971" lon="11.9450096"><ele>332.0</ele><time>2026-04-25T12:28:09.455Z</time></trkpt><trkpt lat="44.108322" lon="11.9450284"><ele>332.0</ele><time>2026-04-25T12:28:10.455Z</time></trkpt><trkpt lat="44.1084354" lon="11.9450469"><ele>330.8</ele><time>2026-04-25T12:28:11.458Z</time></trkpt><trkpt lat="44.1085294" lon="11.9450645"><ele>329.6</ele><time>2026-04-25T12:28:12.455Z</time></trkpt><trkpt lat="44.1086209" lon="11.9451034"><ele>328.40000000000003</ele><time>2026-04-25T12:28:13.449Z</time></trkpt><trkpt lat="44.1087023" lon="11.9451852"><ele>327.20000000000005</ele><time>2026-04-25T12:28:14.45Z</time></trkpt><trkpt lat="44.1087898" lon="11.9452862"><ele>326.0</ele><time>2026-04-25T12:28:15.45Z</time></trkpt><trkpt lat="44.108876" lon="11.9453911"><ele>326.0</ele><time>2026-04-25T12:28:16.461Z</time></trkpt><trkpt lat="44.1089772" lon="11.9454954"><ele>326.0</ele><time>2026-04-25T12:28:17.449Z</time></trkpt><trkpt lat="44.1090739" lon="11.9455881"><ele>326.0</ele><time>2026-04-25T12:28:18.453Z</time></trkpt><trkpt lat="44.1091821" lon="11.9456653"><ele>326.0</ele><time>2026-04-25T12:28:19.456Z</time></trkpt><trkpt lat="44.1092956" lon="11.9457142"><ele>325.25</ele><time>2026-04-25T12:28:20.455Z</time></trkpt><trkpt lat="44.1094213" lon="11.9457483"><ele>324.5</ele><time>2026-04-25T12:28:21.457Z</time></trkpt><trkpt lat="44.109549" lon="11.9457721"><ele>323.75</ele><time>2026-04-25T12:28:22.459Z</time></trkpt><trkpt lat="44.1096732" lon="11.9457878"><ele>323.0</ele><time>2026-04-25T12:28:23.458Z</time></trkpt><trkpt lat="44.1098019" lon="11.9457949"><ele>322.25</ele><time>2026-04-25T12:28:24.462Z</time></trkpt><trkpt lat="44.1099321" lon="11.9457836"><ele>321.5</ele><time>2026-04-25T12:28:25.459Z</time></trkpt><trkpt lat="44.1100651" lon="11.9457627"><ele>320.75</ele><time>2026-04-25T12:28:26.458Z</time></trkpt><trkpt lat="44.1101958" lon="11.9457471"><ele>320.0</ele><time>2026-04-25T12:28:27.468Z</time></trkpt><trkpt lat="44.110325" lon="11.9457435"><ele>320.0</ele><time>2026-04-25T12:28:28.463Z</time></trkpt><trkpt lat="44.1104505" lon="11.9457441"><ele>320.0</ele><time>2026-04-25T12:28:29.464Z</time></trkpt><trkpt lat="44.1105824" lon="11.9457642"><ele>320.0</ele><time>2026-04-25T12:28:30.469Z</time></trkpt><trkpt lat="44.1107152" lon="11.9457887"><ele>320.0</ele><time>2026-04-25T12:28:31.462Z</time></trkpt><trkpt lat="44.1108523" lon="11.945833"><ele>317.75</ele><time>2026-04-25T12:28:32.466Z</time></trkpt><trkpt lat="44.1109924" lon="11.9458917"><ele>315.5</ele><time>2026-04-25T12:28:33.459Z</time></trkpt><trkpt lat="44.1111364" lon="11.945958"><ele>313.25</ele><time>2026-04-25T12:28:34.453Z</time></trkpt><trkpt lat="44.1112769" lon="11.94603"><ele>311.0</ele><time>2026-04-25T12:28:35.463Z</time></trkpt><trkpt lat="44.1114116" lon="11.9461075"><ele>311.0</ele><time>2026-04-25T12:28:36.461Z</time></trkpt><trkpt lat="44.111534" lon="11.9461925"><ele>311.0</ele><time>2026-04-25T12:28:37.457Z</time></trkpt><trkpt lat="44.1116434" lon="11.9462824"><ele>311.0</ele><time>2026-04-25T12:28:38.459Z</time></trkpt><trkpt lat="44.1117395" lon="11.946352"><ele>311.0</ele><time>2026-04-25T12:28:39.46Z</time></trkpt><trkpt lat="44.1118362" lon="11.9463825"><ele>314.0</ele><time>2026-04-25T12:28:40.466Z</time></trkpt><trkpt lat="44.1119329" lon="11.9463912"><ele>317.0</ele><time>2026-04-25T12:28:41.46Z</time></trkpt><trkpt lat="44.112044" lon="11.946372"><ele>320.0</ele><time>2026-04-25T12:28:42.46Z</time></trkpt><trkpt lat="44.1121604" lon="11.946335"><ele>323.0</ele><time>2026-04-25T12:28:43.462Z</time></trkpt><trkpt lat="44.112284" lon="11.9462903"><ele>323.25</ele><time>2026-04-25T12:28:44.464Z</time></trkpt><trkpt lat="44.1124124" lon="11.9462506"><ele>323.5</ele><time>2026-04-25T12:28:45.465Z</time></trkpt><trkpt lat="44.1125356" lon="11.9462177"><ele>323.75</ele><time>2026-04-25T12:28:46.465Z</time></trkpt><trkpt lat="44.1126429" lon="11.9461844"><ele>324.0</ele><time>2026-04-25T12:28:47.458Z</time></trkpt><trkpt lat="44.1127424" lon="11.9461538"><ele>324.0</ele><time>2026-04-25T12:28:48.459Z</time></trkpt><trkpt lat="44.1128447" lon="11.9461287"><ele>324.0</ele><time>2026-04-25T12:28:49.461Z</time></trkpt><trkpt lat="44.1129574" lon="11.9461366"><ele>324.0</ele><time>2026-04-25T12:28:50.467Z</time></trkpt><trkpt lat="44.1130741" lon="11.94618"><ele>324.0</ele><time>2026-04-25T12:28:51.457Z</time></trkpt><trkpt lat="44.1131834" lon="11.9462403"><ele>326.25</ele><time>2026-04-25T12:28:52.463Z</time></trkpt><trkpt lat="44.1132954" lon="11.9463292"><ele>328.5</ele><time>2026-04-25T12:28:53.453Z</time></trkpt><trkpt lat="44.1134143" lon="11.9464287"><ele>330.75</ele><time>2026-04-25T12:28:54.454Z</time></trkpt><trkpt lat="44.1135346" lon="11.9465254"><ele>333.0</ele><time>2026-04-25T12:28:55.452Z</time></trkpt><trkpt lat="44.1136431" lon="11.9466116"><ele>333.0</ele><time>2026-04-25T12:28:56.459Z</time></trkpt><trkpt lat="44.1137385" lon="11.9467082"><ele>333.0</ele><time>2026-04-25T12:28:57.454Z</time></trkpt><trkpt lat="44.1138259" lon="11.946805"><ele>333.0</ele><time>2026-04-25T12:28:58.463Z</time></trkpt><trkpt lat="44.1139114" lon="11.9469162"><ele>333.0</ele><time>2026-04-25T12:28:59.462Z</time></trkpt><trkpt lat="44.1139944" lon="11.9470396"><ele>332.0</ele><time>2026-04-25T12:29:00.458Z</time></trkpt><trkpt lat="44.1140731" lon="11.9471545"><ele>331.0</ele><time>2026-04-25T12:29:01.438Z</time></trkpt><trkpt lat="44.1141413" lon="11.9472563"><ele>330.0</ele><time>2026-04-25T12:29:02.451Z</time></trkpt><trkpt lat="44.1142065" lon="11.9473368"><ele>329.0</ele><time>2026-04-25T12:29:03.454Z</time></trkpt><trkpt lat="44.1142743" lon="11.9473811"><ele>328.0</ele><time>2026-04-25T12:29:04.471Z</time></trkpt><trkpt lat="44.1143595" lon="11.9474064"><ele>328.0</ele><time>2026-04-25T12:29:05.454Z</time></trkpt><trkpt lat="44.1144413" lon="11.9473935"><ele>328.0</ele><time>2026-04-25T12:29:06.452Z</time></trkpt><trkpt lat="44.1145215" lon="11.9473631"><ele>328.0</ele><time>2026-04-25T12:29:07.459Z</time></trkpt><trkpt lat="44.1146003" lon="11.9473076"><ele>328.0</ele><time>2026-04-25T12:29:08.452Z</time></trkpt><trkpt lat="44.1146726" lon="11.9472275"><ele>328.0</ele><time>2026-04-25T12:29:09.462Z</time></trkpt><trkpt lat="44.1147534" lon="11.9471204"><ele>328.0</ele><time>2026-04-25T12:29:10.468Z</time></trkpt><trkpt lat="44.1148423" lon="11.9470147"><ele>328.0</ele><time>2026-04-25T12:29:11.471Z</time></trkpt><trkpt lat="44.1149224" lon="11.9469045"><ele>328.0</ele><time>2026-04-25T12:29:12.468Z</time></trkpt><trkpt lat="44.1150001" lon="11.9467964"><ele>328.0</ele><time>2026-04-25T12:29:13.467Z</time></trkpt><trkpt lat="44.1150931" lon="11.9467149"><ele>328.0</ele><time>2026-04-25T12:29:14.457Z</time></trkpt><trkpt lat="44.1151861" lon="11.9466482"><ele>329.75</ele><time>2026-04-25T12:29:15.455Z</time></trkpt><trkpt lat="44.1153068" lon="11.9466164"><ele>331.5</ele><time>2026-04-25T12:29:16.46Z</time></trkpt><trkpt lat="44.1154415" lon="11.946597"><ele>333.25</ele><time>2026-04-25T12:29:17.459Z</time></trkpt><trkpt lat="44.115586" lon="11.9465832"><ele>335.0</ele><time>2026-04-25T12:29:18.459Z</time></trkpt><trkpt lat="44.1157272" lon="11.9465719"><ele>333.0</ele><time>2026-04-25T12:29:19.455Z</time></trkpt><trkpt lat="44.1158568" lon="11.9465756"><ele>331.0</ele><time>2026-04-25T12:29:20.467Z</time></trkpt><trkpt lat="44.1159817" lon="11.9465838"><ele>329.0</ele><time>2026-04-25T12:29:21.457Z</time></trkpt><trkpt lat="44.1160946" lon="11.9466189"><ele>327.0</ele><time>2026-04-25T12:29:22.449Z</time></trkpt><trkpt lat="44.1161979" lon="11.9466778"><ele>322.5</ele><time>2026-04-25T12:29:23.455Z</time></trkpt><trkpt lat="44.1163149" lon="11.9467541"><ele>318.0</ele><time>2026-04-25T12:29:24.471Z</time></trkpt><trkpt lat="44.1164251" lon="11.9468276"><ele>313.5</ele><time>2026-04-25T12:29:25.462Z</time></trkpt><trkpt lat="44.1165254" lon="11.9469071"><ele>309.0</ele><time>2026-04-25T12:29:26.46Z</time></trkpt><trkpt lat="44.1166146" lon="11.9469798"><ele>309.0</ele><time>2026-04-25T12:29:27.459Z</time></trkpt><trkpt lat="44.116707" lon="11.9470433"><ele>309.0</ele><time>2026-04-25T12:29:28.448Z</time></trkpt><trkpt lat="44.1167969" lon="11.9471016"><ele>309.0</ele><time>2026-04-25T12:29:29.459Z</time></trkpt><trkpt lat="44.116892" lon="11.9471401"><ele>309.0</ele><time>2026-04-25T12:29:30.467Z</time></trkpt><trkpt lat="44.1169872" lon="11.9471654"><ele>309.0</ele><time>2026-04-25T12:29:31.454Z</time></trkpt><trkpt lat="44.1170919" lon="11.9471858"><ele>309.0</ele><time>2026-04-25T12:29:32.453Z</time></trkpt><trkpt lat="44.1171978" lon="11.9472095"><ele>309.0</ele><time>2026-04-25T12:29:33.448Z</time></trkpt><trkpt lat="44.11731" lon="11.9472254"><ele>309.0</ele><time>2026-04-25T12:29:34.454Z</time></trkpt><trkpt lat="44.1174266" lon="11.9472417"><ele>309.0</ele><time>2026-04-25T12:29:35.462Z</time></trkpt><trkpt lat="44.1175451" lon="11.9472541"><ele>309.75</ele><time>2026-04-25T12:29:36.466Z</time></trkpt><trkpt lat="44.1176532" lon="11.9472603"><ele>310.5</ele><time>2026-04-25T12:29:37.447Z</time></trkpt><trkpt lat="44.1177634" lon="11.947278"><ele>311.25</ele><time>2026-04-25T12:29:38.451Z</time></trkpt><trkpt lat="44.1178714" lon="11.9473229"><ele>312.0</ele><time>2026-04-25T12:29:39.457Z</time></trkpt><trkpt lat="44.1179895" lon="11.9473864"><ele>312.0</ele><time>2026-04-25T12:29:40.468Z</time></trkpt><trkpt lat="44.1181114" lon="11.947449"><ele>312.0</ele><time>2026-04-25T12:29:41.463Z</time></trkpt><trkpt lat="44.1182418" lon="11.947504"><ele>312.0</ele><time>2026-04-25T12:29:42.459Z</time></trkpt><trkpt lat="44.1183758" lon="11.9475549"><ele>312.0</ele><time>2026-04-25T12:29:43.456Z</time></trkpt><trkpt lat="44.1185068" lon="11.9476146"><ele>309.0</ele><time>2026-04-25T12:29:44.454Z</time></trkpt><trkpt lat="44.118631" lon="11.9476644"><ele>306.0</ele><time>2026-04-25T12:29:45.452Z</time></trkpt><trkpt lat="44.1187535" lon="11.9477065"><ele>303.0</ele><time>2026-04-25T12:29:46.45Z</time></trkpt><trkpt lat="44.1188715" lon="11.947723"><ele>300.0</ele><time>2026-04-25T12:29:47.457Z</time></trkpt><trkpt lat="44.1189949" lon="11.9477331"><ele>303.0</ele><time>2026-04-25T12:29:48.457Z</time></trkpt><trkpt lat="44.1191141" lon="11.9477342"><ele>306.0</ele><time>2026-04-25T12:29:49.462Z</time></trkpt><trkpt lat="44.1192346" lon="11.9477358"><ele>309.0</ele><time>2026-04-25T12:29:50.455Z</time></trkpt><trkpt lat="44.119348" lon="11.947732"><ele>312.0</ele><time>2026-04-25T12:29:51.468Z</time></trkpt><trkpt lat="44.1194665" lon="11.9477132"><ele>312.0</ele><time>2026-04-25T12:29:52.453Z</time></trkpt><trkpt lat="44.1195881" lon="11.9476937"><ele>312.0</ele><time>2026-04-25T12:29:53.453Z</time></trkpt><trkpt lat="44.1197105" lon="11.9476785"><ele>312.0</ele><time>2026-04-25T12:29:54.457Z</time></trkpt><trkpt lat="44.1198239" lon="11.9476723"><ele>312.0</ele><time>2026-04-25T12:29:55.473Z</time></trkpt><trkpt lat="44.1199246" lon="11.9476874"><ele>314.5</ele><time>2026-04-25T12:29:56.47Z</time></trkpt><trkpt lat="44.1200289" lon="11.9477265"><ele>317.0</ele><time>2026-04-25T12:29:57.46Z</time></trkpt><trkpt lat="44.1201337" lon="11.9477912"><ele>319.5</ele><time>2026-04-25T12:29:58.464Z</time></trkpt><trkpt lat="44.1202431" lon="11.9478719"><ele>322.0</ele><time>2026-04-25T12:29:59.458Z</time></trkpt><trkpt lat="44.1203541" lon="11.9479607"><ele>322.0</ele><time>2026-04-25T12:30:00.471Z</time></trkpt><trkpt lat="44.1204641" lon="11.948057"><ele>322.0</ele><time>2026-04-25T12:30:01.469Z</time></trkpt><trkpt lat="44.1205696" lon="11.9481646"><ele>322.0</ele><time>2026-04-25T12:30:02.462Z</time></trkpt><trkpt lat="44.1206679" lon="11.9482793"><ele>322.0</ele><time>2026-04-25T12:30:03.469Z</time></trkpt><trkpt lat="44.1207426" lon="11.9484024"><ele>325.8</ele><time>2026-04-25T12:30:04.46Z</time></trkpt><trkpt lat="44.1207923" lon="11.948538"><ele>329.6</ele><time>2026-04-25T12:30:05.456Z</time></trkpt><trkpt lat="44.1208128" lon="11.9486763"><ele>333.40000000000003</ele><time>2026-04-25T12:30:06.448Z</time></trkpt><trkpt lat="44.120814" lon="11.9488143"><ele>337.20000000000005</ele><time>2026-04-25T12:30:07.483Z</time></trkpt><trkpt lat="44.1207955" lon="11.9489689"><ele>341.0</ele><time>2026-04-25T12:30:08.463Z</time></trkpt><trkpt lat="44.1207669" lon="11.9491284"><ele>338.5</ele><time>2026-04-25T12:30:09.465Z</time></trkpt><trkpt lat="44.1207313" lon="11.9493127"><ele>336.0</ele><time>2026-04-25T12:30:10.458Z</time></trkpt><trkpt lat="44.1206889" lon="11.9495115"><ele>333.5</ele><time>2026-04-25T12:30:11.461Z</time></trkpt><trkpt lat="44.1206555" lon="11.9497009"><ele>331.0</ele><time>2026-04-25T12:30:12.457Z</time></trkpt><trkpt lat="44.1206217" lon="11.9498623"><ele>331.0</ele><time>2026-04-25T12:30:13.461Z</time></trkpt><trkpt lat="44.1205654" lon="11.9499991"><ele>331.0</ele><time>2026-04-25T12:30:14.453Z</time></trkpt><trkpt lat="44.1204885" lon="11.950112"><ele>331.0</ele><time>2026-04-25T12:30:15.447Z</time></trkpt><trkpt lat="44.1204003" lon="11.9502178"><ele>331.0</ele><time>2026-04-25T12:30:16.456Z</time></trkpt><trkpt lat="44.1203348" lon="11.9503296"><ele>331.0</ele><time>2026-04-25T12:30:17.46Z</time></trkpt><trkpt lat="44.120295" lon="11.9504674"><ele>333.75</ele><time>2026-04-25T12:30:18.45Z</time></trkpt><trkpt lat="44.1202589" lon="11.9506293"><ele>336.5</ele><time>2026-04-25T12:30:19.455Z</time></trkpt><trkpt lat="44.1202246" lon="11.9508175"><ele>339.25</ele><time>2026-04-25T12:30:20.459Z</time></trkpt><trkpt lat="44.120164" lon="11.9509965"><ele>342.0</ele><time>2026-04-25T12:30:21.453Z</time></trkpt><trkpt lat="44.1200776" lon="11.9511651"><ele>340.3333333333333</ele><time>2026-04-25T12:30:22.465Z</time></trkpt><trkpt lat="44.1199649" lon="11.9513291"><ele>338.66666666666663</ele><time>2026-04-25T12:30:23.44Z</time></trkpt><trkpt lat="44.1198524" lon="11.9514723"><ele>337.0</ele><time>2026-04-25T12:30:24.457Z</time></trkpt><trkpt lat="44.1197447" lon="11.9515942"><ele>338.66666666666663</ele><time>2026-04-25T12:30:25.465Z</time></trkpt><trkpt lat="44.1196744" lon="11.9517077"><ele>340.3333333333333</ele><time>2026-04-25T12:30:26.463Z</time></trkpt><trkpt lat="44.1196382" lon="11.9518074"><ele>342.0</ele><time>2026-04-25T12:30:27.453Z</time></trkpt><trkpt lat="44.1196156" lon="11.951899"><ele>343.6666666666667</ele><time>2026-04-25T12:30:28.459Z</time></trkpt><trkpt lat="44.1196727" lon="11.9520244"><ele>345.33333333333337</ele><time>2026-04-25T12:30:30.461Z</time></trkpt><trkpt lat="44.119734" lon="11.9520509"><ele>347.0</ele><time>2026-04-25T12:30:31.445Z</time></trkpt><trkpt lat="44.1198166" lon="11.952054"><ele>351.75</ele><time>2026-04-25T12:30:32.455Z</time></trkpt><trkpt lat="44.1199177" lon="11.9520348"><ele>356.5</ele><time>2026-04-25T12:30:33.465Z</time></trkpt><trkpt lat="44.1200311" lon="11.9520094"><ele>361.25</ele><time>2026-04-25T12:30:34.456Z</time></trkpt><trkpt lat="44.1201589" lon="11.9519674"><ele>366.0</ele><time>2026-04-25T12:30:35.458Z</time></trkpt><trkpt lat="44.1202913" lon="11.9519233"><ele>366.0</ele><time>2026-04-25T12:30:36.485Z</time></trkpt><trkpt lat="44.1204198" lon="11.9518727"><ele>366.0</ele><time>2026-04-25T12:30:37.467Z</time></trkpt><trkpt lat="44.1205431" lon="11.9518191"><ele>366.0</ele><time>2026-04-25T12:30:38.452Z</time></trkpt><trkpt lat="44.1206633" lon="11.951747"><ele>366.0</ele><time>2026-04-25T12:30:39.453Z</time></trkpt><trkpt lat="44.1207694" lon="11.9516653"><ele>367.0</ele><time>2026-04-25T12:30:40.459Z</time></trkpt><trkpt lat="44.1208457" lon="11.9515728"><ele>368.0</ele><time>2026-04-25T12:30:41.463Z</time></trkpt><trkpt lat="44.1209062" lon="11.9514644"><ele>369.0</ele><time>2026-04-25T12:30:42.452Z</time></trkpt><trkpt lat="44.1209448" lon="11.9513438"><ele>370.0</ele><time>2026-04-25T12:30:43.451Z</time></trkpt><trkpt lat="44.1209564" lon="11.9512005"><ele>371.0</ele><time>2026-04-25T12:30:44.45Z</time></trkpt><trkpt lat="44.1209566" lon="11.9510363"><ele>371.0</ele><time>2026-04-25T12:30:45.457Z</time></trkpt><trkpt lat="44.120952" lon="11.950875"><ele>371.0</ele><time>2026-04-25T12:30:46.453Z</time></trkpt><trkpt lat="44.1209656" lon="11.9507392"><ele>371.0</ele><time>2026-04-25T12:30:47.464Z</time></trkpt><trkpt lat="44.1209941" lon="11.9506383"><ele>371.0</ele><time>2026-04-25T12:30:48.479Z</time></trkpt><trkpt lat="44.1210468" lon="11.9505596"><ele>371.0</ele><time>2026-04-25T12:30:49.469Z</time></trkpt><trkpt lat="44.1211196" lon="11.9505133"><ele>371.0</ele><time>2026-04-25T12:30:50.458Z</time></trkpt><trkpt lat="44.1212098" lon="11.9504763"><ele>369.25</ele><time>2026-04-25T12:30:51.457Z</time></trkpt><trkpt lat="44.1213172" lon="11.95044"><ele>367.5</ele><time>2026-04-25T12:30:52.452Z</time></trkpt><trkpt lat="44.1214391" lon="11.9503864"><ele>365.75</ele><time>2026-04-25T12:30:53.457Z</time></trkpt><trkpt lat="44.1215691" lon="11.9503181"><ele>364.0</ele><time>2026-04-25T12:30:54.458Z</time></trkpt><trkpt lat="44.1217091" lon="11.950255"><ele>372.3333333333333</ele><time>2026-04-25T12:30:55.453Z</time></trkpt><trkpt lat="44.1218662" lon="11.9501917"><ele>380.66666666666663</ele><time>2026-04-25T12:30:56.463Z</time></trkpt><trkpt lat="44.1220221" lon="11.9501255"><ele>389.0</ele><time>2026-04-25T12:30:57.474Z</time></trkpt><trkpt lat="44.1221549" lon="11.9500588"><ele>388.0</ele><time>2026-04-25T12:30:58.442Z</time></trkpt><trkpt lat="44.1222793" lon="11.9500003"><ele>387.0</ele><time>2026-04-25T12:30:59.461Z</time></trkpt><trkpt lat="44.1224025" lon="11.9499708"><ele>386.0</ele><time>2026-04-25T12:31:00.458Z</time></trkpt><trkpt lat="44.1225223" lon="11.9499744"><ele>385.0</ele><time>2026-04-25T12:31:01.456Z</time></trkpt><trkpt lat="44.122647" lon="11.9500112"><ele>385.8</ele><time>2026-04-25T12:31:02.464Z</time></trkpt><trkpt lat="44.1227573" lon="11.9500615"><ele>386.6</ele><time>2026-04-25T12:31:03.468Z</time></trkpt><trkpt lat="44.1228648" lon="11.9501059"><ele>387.4</ele><time>2026-04-25T12:31:04.472Z</time></trkpt><trkpt lat="44.1229699" lon="11.9501232"><ele>388.2</ele><time>2026-04-25T12:31:05.461Z</time></trkpt><trkpt lat="44.1230679" lon="11.9501185"><ele>389.0</ele><time>2026-04-25T12:31:06.469Z</time></trkpt><trkpt lat="44.1231591" lon="11.9500763"><ele>387.75</ele><time>2026-04-25T12:31:07.461Z</time></trkpt><trkpt lat="44.1232531" lon="11.9500014"><ele>386.5</ele><time>2026-04-25T12:31:08.452Z</time></trkpt><trkpt lat="44.1233476" lon="11.9499111"><ele>385.25</ele><time>2026-04-25T12:31:09.452Z</time></trkpt><trkpt lat="44.1234416" lon="11.9498074"><ele>384.0</ele><time>2026-04-25T12:31:10.473Z</time></trkpt><trkpt lat="44.1235452" lon="11.9497035"><ele>384.0</ele><time>2026-04-25T12:31:11.462Z</time></trkpt><trkpt lat="44.1236672" lon="11.9496313"><ele>384.0</ele><time>2026-04-25T12:31:12.469Z</time></trkpt><trkpt lat="44.1238157" lon="11.9495819"><ele>384.0</ele><time>2026-04-25T12:31:13.465Z</time></trkpt><trkpt lat="44.1239693" lon="11.9495479"><ele>384.0</ele><time>2026-04-25T12:31:14.458Z</time></trkpt><trkpt lat="44.1241386" lon="11.9495189"><ele>383.0</ele><time>2026-04-25T12:31:15.458Z</time></trkpt><trkpt lat="44.1243033" lon="11.9494846"><ele>382.0</ele><time>2026-04-25T12:31:16.481Z</time></trkpt><trkpt lat="44.1244528" lon="11.9494557"><ele>381.0</ele><time>2026-04-25T12:31:17.463Z</time></trkpt><trkpt lat="44.1245815" lon="11.9494335"><ele>380.0</ele><time>2026-04-25T12:31:18.47Z</time></trkpt><trkpt lat="44.1247003" lon="11.9494148"><ele>380.0</ele><time>2026-04-25T12:31:19.458Z</time></trkpt><trkpt lat="44.1248157" lon="11.9494054"><ele>380.0</ele><time>2026-04-25T12:31:20.463Z</time></trkpt><trkpt lat="44.1249208" lon="11.9494054"><ele>380.0</ele><time>2026-04-25T12:31:21.458Z</time></trkpt><trkpt lat="44.1250249" lon="11.9494326"><ele>380.0</ele><time>2026-04-25T12:31:22.449Z</time></trkpt><trkpt lat="44.1251239" lon="11.9494902"><ele>380.0</ele><time>2026-04-25T12:31:23.469Z</time></trkpt><trkpt lat="44.1252171" lon="11.9495702"><ele>379.75</ele><time>2026-04-25T12:31:24.474Z</time></trkpt><trkpt lat="44.125311" lon="11.9496898"><ele>379.5</ele><time>2026-04-25T12:31:25.469Z</time></trkpt><trkpt lat="44.1254066" lon="11.9497965"><ele>379.25</ele><time>2026-04-25T12:31:26.465Z</time></trkpt><trkpt lat="44.1255163" lon="11.9498897"><ele>379.0</ele><time>2026-04-25T12:31:27.463Z</time></trkpt><trkpt lat="44.1256343" lon="11.9499744"><ele>377.79999999999995</ele><time>2026-04-25T12:31:28.477Z</time></trkpt><trkpt lat="44.1257486" lon="11.9500515"><ele>376.59999999999997</ele><time>2026-04-25T12:31:29.455Z</time></trkpt><trkpt lat="44.1258488" lon="11.9501311"><ele>375.4</ele><time>2026-04-25T12:31:30.446Z</time></trkpt><trkpt lat="44.1259344" lon="11.9502125"><ele>374.2</ele><time>2026-04-25T12:31:31.463Z</time></trkpt><trkpt lat="44.1260047" lon="11.9503083"><ele>373.0</ele><time>2026-04-25T12:31:32.459Z</time></trkpt><trkpt lat="44.1260619" lon="11.950416"><ele>373.0</ele><time>2026-04-25T12:31:33.463Z</time></trkpt><trkpt lat="44.1261093" lon="11.950495"><ele>373.0</ele><time>2026-04-25T12:31:34.468Z</time></trkpt><trkpt lat="44.1261681" lon="11.9505378"><ele>373.0</ele><time>2026-04-25T12:31:35.449Z</time></trkpt><trkpt lat="44.1262326" lon="11.9505384"><ele>373.0</ele><time>2026-04-25T12:31:36.458Z</time></trkpt><trkpt lat="44.1263009" lon="11.9505091"><ele>373.0</ele><time>2026-04-25T12:31:37.473Z</time></trkpt><trkpt lat="44.1263744" lon="11.9504368"><ele>373.0</ele><time>2026-04-25T12:31:38.463Z</time></trkpt><trkpt lat="44.1264474" lon="11.9503456"><ele>373.0</ele><time>2026-04-25T12:31:39.46Z</time></trkpt><trkpt lat="44.1265253" lon="11.9502231"><ele>373.0</ele><time>2026-04-25T12:31:40.476Z</time></trkpt><trkpt lat="44.1266012" lon="11.950112"><ele>373.0</ele><time>2026-04-25T12:31:41.456Z</time></trkpt><trkpt lat="44.1266885" lon="11.9500144"><ele>373.0</ele><time>2026-04-25T12:31:42.472Z</time></trkpt><trkpt lat="44.1267827" lon="11.9499406"><ele>373.0</ele><time>2026-04-25T12:31:43.46Z</time></trkpt><trkpt lat="44.1268918" lon="11.9498934"><ele>377.25</ele><time>2026-04-25T12:31:44.449Z</time></trkpt><trkpt lat="44.1270058" lon="11.9498803"><ele>381.5</ele><time>2026-04-25T12:31:45.456Z</time></trkpt><trkpt lat="44.1271248" lon="11.9498869"><ele>385.75</ele><time>2026-04-25T12:31:46.463Z</time></trkpt><trkpt lat="44.1272432" lon="11.9499068"><ele>390.0</ele><time>2026-04-25T12:31:47.463Z</time></trkpt><trkpt lat="44.1273586" lon="11.9499476"><ele>388.2</ele><time>2026-04-25T12:31:48.463Z</time></trkpt><trkpt lat="44.1274592" lon="11.9499839"><ele>386.4</ele><time>2026-04-25T12:31:49.458Z</time></trkpt><trkpt lat="44.1275506" lon="11.9500295"><ele>384.6</ele><time>2026-04-25T12:31:50.471Z</time></trkpt><trkpt lat="44.1276293" lon="11.950067"><ele>382.8</ele><time>2026-04-25T12:31:51.472Z</time></trkpt><trkpt lat="44.127706" lon="11.9500866"><ele>381.0</ele><time>2026-04-25T12:31:52.458Z</time></trkpt><trkpt lat="44.1278128" lon="11.9500255"><ele>381.0</ele><time>2026-04-25T12:31:54.472Z</time></trkpt><trkpt lat="44.1278547" lon="11.9498628"><ele>381.0</ele><time>2026-04-25T12:31:56.456Z</time></trkpt><trkpt lat="44.1278465" lon="11.949771"><ele>381.0</ele><time>2026-04-25T12:31:57.475Z</time></trkpt><trkpt lat="44.127812" lon="11.9496707"><ele>381.0</ele><time>2026-04-25T12:31:58.473Z</time></trkpt><trkpt lat="44.1277681" lon="11.9495535"><ele>381.0</ele><time>2026-04-25T12:31:59.463Z</time></trkpt><trkpt lat="44.1277293" lon="11.9494251"><ele>381.0</ele><time>2026-04-25T12:32:00.455Z</time></trkpt><trkpt lat="44.1276893" lon="11.949283"><ele>381.0</ele><time>2026-04-25T12:32:01.45Z</time></trkpt><trkpt lat="44.1276521" lon="11.9491277"><ele>381.0</ele><time>2026-04-25T12:32:02.464Z</time></trkpt><trkpt lat="44.1276406" lon="11.9489693"><ele>381.0</ele><time>2026-04-25T12:32:03.466Z</time></trkpt><trkpt lat="44.127636" lon="11.9488123"><ele>380.6</ele><time>2026-04-25T12:32:04.459Z</time></trkpt><trkpt lat="44.1276328" lon="11.948654"><ele>380.20000000000005</ele><time>2026-04-25T12:32:05.463Z</time></trkpt><trkpt lat="44.1276359" lon="11.9485078"><ele>379.79999999999995</ele><time>2026-04-25T12:32:06.455Z</time></trkpt><trkpt lat="44.1276372" lon="11.9483504"><ele>379.4</ele><time>2026-04-25T12:32:07.467Z</time></trkpt><trkpt lat="44.1276495" lon="11.9482014"><ele>379.0</ele><time>2026-04-25T12:32:08.454Z</time></trkpt><trkpt lat="44.127661" lon="11.9480714"><ele>379.0</ele><time>2026-04-25T12:32:09.45Z</time></trkpt><trkpt lat="44.1276844" lon="11.9479595"><ele>379.0</ele><time>2026-04-25T12:32:10.458Z</time></trkpt><trkpt lat="44.1277187" lon="11.947863"><ele>379.0</ele><time>2026-04-25T12:32:11.456Z</time></trkpt><trkpt lat="44.127763" lon="11.9477986"><ele>379.0</ele><time>2026-04-25T12:32:12.457Z</time></trkpt><trkpt lat="44.1278665" lon="11.9477887"><ele>379.0</ele><time>2026-04-25T12:32:14.455Z</time></trkpt><trkpt lat="44.1279468" lon="11.9477815"><ele>379.0</ele><time>2026-04-25T12:32:16.465Z</time></trkpt><trkpt lat="44.1280113" lon="11.9476874"><ele>379.0</ele><time>2026-04-25T12:32:19.451Z</time></trkpt><trkpt lat="44.1280625" lon="11.9476044"><ele>379.0</ele><time>2026-04-25T12:32:22.448Z</time></trkpt><trkpt lat="44.1281208" lon="11.9475478"><ele>379.0</ele><time>2026-04-25T12:32:25.458Z</time></trkpt><trkpt lat="44.1281809" lon="11.9474879"><ele>379.0</ele><time>2026-04-25T12:32:28.467Z</time></trkpt><trkpt lat="44.1282412" lon="11.9474341"><ele>379.0</ele><time>2026-04-25T12:32:30.471Z</time></trkpt><trkpt lat="44.1283212" lon="11.9473529"><ele>379.0</ele><time>2026-04-25T12:32:32.454Z</time></trkpt><trkpt lat="44.1284092" lon="11.9472714"><ele>376.79999999999995</ele><time>2026-04-25T12:32:34.469Z</time></trkpt><trkpt lat="44.1284877" lon="11.947204"><ele>374.59999999999997</ele><time>2026-04-25T12:32:36.467Z</time></trkpt><trkpt lat="44.128599" lon="11.9471178"><ele>372.4</ele><time>2026-04-25T12:32:38.452Z</time></trkpt><trkpt lat="44.1286777" lon="11.9470568"><ele>370.2</ele><time>2026-04-25T12:32:39.457Z</time></trkpt><trkpt lat="44.1287712" lon="11.9469889"><ele>368.0</ele><time>2026-04-25T12:32:40.455Z</time></trkpt><trkpt lat="44.1288781" lon="11.9469102"><ele>368.0</ele><time>2026-04-25T12:32:41.46Z</time></trkpt><trkpt lat="44.128988" lon="11.9468258"><ele>368.0</ele><time>2026-04-25T12:32:42.464Z</time></trkpt><trkpt lat="44.129103" lon="11.946739"><ele>368.0</ele><time>2026-04-25T12:32:43.455Z</time></trkpt><trkpt lat="44.1292148" lon="11.9466567"><ele>368.0</ele><time>2026-04-25T12:32:44.453Z</time></trkpt><trkpt lat="44.1293147" lon="11.9465881"><ele>366.79999999999995</ele><time>2026-04-25T12:32:45.455Z</time></trkpt><trkpt lat="44.1293918" lon="11.9465295"><ele>365.6</ele><time>2026-04-25T12:32:46.458Z</time></trkpt><trkpt lat="44.1294564" lon="11.9464788"><ele>364.4</ele><time>2026-04-25T12:32:47.463Z</time></trkpt><trkpt lat="44.1295579" lon="11.946418"><ele>363.20000000000005</ele><time>2026-04-25T12:32:49.456Z</time></trkpt><trkpt lat="44.1296698" lon="11.9463471"><ele>362.0</ele><time>2026-04-25T12:32:51.458Z</time></trkpt><trkpt lat="44.129766" lon="11.9462773"><ele>362.0</ele><time>2026-04-25T12:32:53.458Z</time></trkpt><trkpt lat="44.1298305" lon="11.9462219"><ele>362.0</ele><time>2026-04-25T12:32:55.472Z</time></trkpt><trkpt lat="44.1299" lon="11.9461159"><ele>362.0</ele><time>2026-04-25T12:32:58.463Z</time></trkpt><trkpt lat="44.1299411" lon="11.9460228"><ele>362.0</ele><time>2026-04-25T12:33:00.459Z</time></trkpt><trkpt lat="44.1299877" lon="11.9459007"><ele>362.0</ele><time>2026-04-25T12:33:02.454Z</time></trkpt><trkpt lat="44.1300431" lon="11.9457497"><ele>364.0</ele><time>2026-04-25T12:33:04.459Z</time></trkpt><trkpt lat="44.1301168" lon="11.9456226"><ele>366.0</ele><time>2026-04-25T12:33:06.458Z</time></trkpt><trkpt lat="44.130193" lon="11.9455431"><ele>368.0</ele><time>2026-04-25T12:33:08.457Z</time></trkpt><trkpt lat="44.1302638" lon="11.9454961"><ele>370.0</ele><time>2026-04-25T12:33:11.446Z</time></trkpt><trkpt lat="44.1303634" lon="11.9454815"><ele>372.0</ele><time>2026-04-25T12:33:25.458Z</time></trkpt><trkpt lat="44.1304765" lon="11.9455178"><ele>372.0</ele><time>2026-04-25T12:33:27.461Z</time></trkpt><trkpt lat="44.1305429" lon="11.9455606"><ele>372.0</ele><time>2026-04-25T12:33:28.461Z</time></trkpt><trkpt lat="44.1306029" lon="11.945623"><ele>372.0</ele><time>2026-04-25T12:33:29.459Z</time></trkpt><trkpt lat="44.1306635" lon="11.9456941"><ele>372.0</ele><time>2026-04-25T12:33:30.458Z</time></trkpt><trkpt lat="44.1307386" lon="11.9457721"><ele>372.0</ele><time>2026-04-25T12:33:31.473Z</time></trkpt><trkpt lat="44.1308288" lon="11.9458422"><ele>372.0</ele><time>2026-04-25T12:33:32.461Z</time></trkpt><trkpt lat="44.1309181" lon="11.9459016"><ele>369.75</ele><time>2026-04-25T12:33:33.468Z</time></trkpt><trkpt lat="44.131015" lon="11.9459506"><ele>367.5</ele><time>2026-04-25T12:33:34.458Z</time></trkpt><trkpt lat="44.1311211" lon="11.9459995"><ele>365.25</ele><time>2026-04-25T12:33:35.457Z</time></trkpt><trkpt lat="44.131234" lon="11.9460431"><ele>363.0</ele><time>2026-04-25T12:33:36.466Z</time></trkpt><trkpt lat="44.1313548" lon="11.9460849"><ele>363.0</ele><time>2026-04-25T12:33:37.457Z</time></trkpt><trkpt lat="44.1314878" lon="11.9461389"><ele>363.0</ele><time>2026-04-25T12:33:38.459Z</time></trkpt><trkpt lat="44.1316166" lon="11.9461842"><ele>363.0</ele><time>2026-04-25T12:33:39.461Z</time></trkpt><trkpt lat="44.1317366" lon="11.946231"><ele>363.0</ele><time>2026-04-25T12:33:40.469Z</time></trkpt><trkpt lat="44.1318699" lon="11.94628"><ele>362.75</ele><time>2026-04-25T12:33:41.468Z</time></trkpt><trkpt lat="44.132002" lon="11.9463279"><ele>362.5</ele><time>2026-04-25T12:33:42.471Z</time></trkpt><trkpt lat="44.1321261" lon="11.9463602"><ele>362.25</ele><time>2026-04-25T12:33:43.459Z</time></trkpt><trkpt lat="44.132251" lon="11.9463984"><ele>362.0</ele><time>2026-04-25T12:33:44.463Z</time></trkpt><trkpt lat="44.132369" lon="11.9464308"><ele>362.40000000000003</ele><time>2026-04-25T12:33:45.46Z</time></trkpt><trkpt lat="44.1324747" lon="11.9464623"><ele>362.8</ele><time>2026-04-25T12:33:46.456Z</time></trkpt><trkpt lat="44.1325672" lon="11.9464678"><ele>363.2</ele><time>2026-04-25T12:33:47.459Z</time></trkpt><trkpt lat="44.1326581" lon="11.9464576"><ele>363.6</ele><time>2026-04-25T12:33:48.443Z</time></trkpt><trkpt lat="44.1327563" lon="11.9464363"><ele>364.0</ele><time>2026-04-25T12:33:49.46Z</time></trkpt><trkpt lat="44.1328636" lon="11.9463825"><ele>364.0</ele><time>2026-04-25T12:33:50.484Z</time></trkpt><trkpt lat="44.1329725" lon="11.9463161"><ele>364.0</ele><time>2026-04-25T12:33:51.47Z</time></trkpt><trkpt lat="44.1330956" lon="11.9462521"><ele>364.0</ele><time>2026-04-25T12:33:52.469Z</time></trkpt><trkpt lat="44.1332216" lon="11.946206"><ele>364.0</ele><time>2026-04-25T12:33:53.464Z</time></trkpt><trkpt lat="44.1333465" lon="11.9461727"><ele>365.25</ele><time>2026-04-25T12:33:54.458Z</time></trkpt><trkpt lat="44.1334719" lon="11.9461519"><ele>366.5</ele><time>2026-04-25T12:33:55.462Z</time></trkpt><trkpt lat="44.1335927" lon="11.9461468"><ele>367.75</ele><time>2026-04-25T12:33:56.457Z</time></trkpt><trkpt lat="44.1337106" lon="11.9461568"><ele>369.0</ele><time>2026-04-25T12:33:57.464Z</time></trkpt><trkpt lat="44.1338243" lon="11.9461902"><ele>369.0</ele><time>2026-04-25T12:33:58.466Z</time></trkpt><trkpt lat="44.1339371" lon="11.9462344"><ele>369.0</ele><time>2026-04-25T12:33:59.456Z</time></trkpt><trkpt lat="44.1340418" lon="11.9462965"><ele>369.0</ele><time>2026-04-25T12:34:00.46Z</time></trkpt><trkpt lat="44.1341334" lon="11.946377"><ele>369.0</ele><time>2026-04-25T12:34:01.473Z</time></trkpt><trkpt lat="44.1342311" lon="11.9464745"><ele>369.0</ele><time>2026-04-25T12:34:02.459Z</time></trkpt><trkpt lat="44.134341" lon="11.9465905"><ele>369.0</ele><time>2026-04-25T12:34:03.462Z</time></trkpt><trkpt lat="44.1344484" lon="11.9467144"><ele>369.0</ele><time>2026-04-25T12:34:04.448Z</time></trkpt><trkpt lat="44.1345527" lon="11.9468363"><ele>369.0</ele><time>2026-04-25T12:34:05.467Z</time></trkpt><trkpt lat="44.1346578" lon="11.9469547"><ele>367.75</ele><time>2026-04-25T12:34:06.475Z</time></trkpt><trkpt lat="44.1347608" lon="11.9470731"><ele>366.5</ele><time>2026-04-25T12:34:07.468Z</time></trkpt><trkpt lat="44.1348564" lon="11.9471821"><ele>365.25</ele><time>2026-04-25T12:34:08.458Z</time></trkpt><trkpt lat="44.1349471" lon="11.9472793"><ele>364.0</ele><time>2026-04-25T12:34:09.467Z</time></trkpt><trkpt lat="44.1350437" lon="11.9473749"><ele>364.0</ele><time>2026-04-25T12:34:10.451Z</time></trkpt><trkpt lat="44.1351411" lon="11.947489"><ele>364.0</ele><time>2026-04-25T12:34:11.467Z</time></trkpt><trkpt lat="44.1352357" lon="11.947614"><ele>364.0</ele><time>2026-04-25T12:34:12.462Z</time></trkpt><trkpt lat="44.1353233" lon="11.9477484"><ele>364.0</ele><time>2026-04-25T12:34:13.455Z</time></trkpt><trkpt lat="44.1353996" lon="11.9478955"><ele>360.2</ele><time>2026-04-25T12:34:14.459Z</time></trkpt><trkpt lat="44.1354681" lon="11.9480292"><ele>356.4</ele><time>2026-04-25T12:34:15.467Z</time></trkpt><trkpt lat="44.1355303" lon="11.9481496"><ele>352.6</ele><time>2026-04-25T12:34:16.476Z</time></trkpt><trkpt lat="44.1355896" lon="11.9482647"><ele>348.8</ele><time>2026-04-25T12:34:17.479Z</time></trkpt><trkpt lat="44.1356364" lon="11.9483638"><ele>345.0</ele><time>2026-04-25T12:34:18.456Z</time></trkpt><trkpt lat="44.1356853" lon="11.9484535"><ele>345.2</ele><time>2026-04-25T12:34:19.459Z</time></trkpt><trkpt lat="44.1357354" lon="11.9485194"><ele>345.4</ele><time>2026-04-25T12:34:20.453Z</time></trkpt><trkpt lat="44.1358408" lon="11.9485463"><ele>345.6</ele><time>2026-04-25T12:34:22.469Z</time></trkpt><trkpt lat="44.1359167" lon="11.9484249"><ele>345.8</ele><time>2026-04-25T12:34:24.447Z</time></trkpt><trkpt lat="44.1359123" lon="11.9482344"><ele>346.0</ele><time>2026-04-25T12:34:26.463Z</time></trkpt><trkpt lat="44.135892" lon="11.9480897"><ele>347.4</ele><time>2026-04-25T12:34:27.471Z</time></trkpt><trkpt lat="44.1358656" lon="11.9479347"><ele>348.8</ele><time>2026-04-25T12:34:28.459Z</time></trkpt><trkpt lat="44.1358461" lon="11.9477958"><ele>350.2</ele><time>2026-04-25T12:34:29.455Z</time></trkpt><trkpt lat="44.1358339" lon="11.947671"><ele>351.59999999999997</ele><time>2026-04-25T12:34:30.481Z</time></trkpt><trkpt lat="44.1358302" lon="11.9475605"><ele>353.0</ele><time>2026-04-25T12:34:31.469Z</time></trkpt><trkpt lat="44.1358334" lon="11.9474699"><ele>353.5</ele><time>2026-04-25T12:34:32.461Z</time></trkpt><trkpt lat="44.1358599" lon="11.947383"><ele>354.0</ele><time>2026-04-25T12:34:33.466Z</time></trkpt><trkpt lat="44.1359108" lon="11.9472973"><ele>354.5</ele><time>2026-04-25T12:34:34.468Z</time></trkpt><trkpt lat="44.135978" lon="11.947228"><ele>355.0</ele><time>2026-04-25T12:34:35.46Z</time></trkpt><trkpt lat="44.1360558" lon="11.9471877"><ele>355.5</ele><time>2026-04-25T12:34:36.461Z</time></trkpt><trkpt lat="44.1361403" lon="11.9471823"><ele>356.0</ele><time>2026-04-25T12:34:37.455Z</time></trkpt><trkpt lat="44.1362321" lon="11.9472045"><ele>356.0</ele><time>2026-04-25T12:34:38.464Z</time></trkpt><trkpt lat="44.1363254" lon="11.9472339"><ele>356.0</ele><time>2026-04-25T12:34:39.467Z</time></trkpt><trkpt lat="44.1364213" lon="11.9472592"><ele>356.0</ele><time>2026-04-25T12:34:40.47Z</time></trkpt><trkpt lat="44.1365159" lon="11.9472723"><ele>356.0</ele><time>2026-04-25T12:34:41.461Z</time></trkpt><trkpt lat="44.1366102" lon="11.9472762"><ele>356.0</ele><time>2026-04-25T12:34:42.455Z</time></trkpt><trkpt lat="44.1366968" lon="11.9472429"><ele>351.4</ele><time>2026-04-25T12:34:43.47Z</time></trkpt><trkpt lat="44.136776" lon="11.9471908"><ele>346.8</ele><time>2026-04-25T12:34:44.463Z</time></trkpt><trkpt lat="44.1368509" lon="11.9471061"><ele>342.2</ele><time>2026-04-25T12:34:45.46Z</time></trkpt><trkpt lat="44.1369167" lon="11.9470033"><ele>337.59999999999997</ele><time>2026-04-25T12:34:46.469Z</time></trkpt><trkpt lat="44.1369736" lon="11.9468818"><ele>333.0</ele><time>2026-04-25T12:34:47.452Z</time></trkpt><trkpt lat="44.1370207" lon="11.9467375"><ele>335.0</ele><time>2026-04-25T12:34:48.453Z</time></trkpt><trkpt lat="44.1370538" lon="11.946596"><ele>337.0</ele><time>2026-04-25T12:34:49.466Z</time></trkpt><trkpt lat="44.13708" lon="11.9464585"><ele>339.0</ele><time>2026-04-25T12:34:50.466Z</time></trkpt><trkpt lat="44.1370989" lon="11.94632"><ele>341.0</ele><time>2026-04-25T12:34:51.461Z</time></trkpt><trkpt lat="44.1371345" lon="11.9461901"><ele>343.0</ele><time>2026-04-25T12:34:52.455Z</time></trkpt><trkpt lat="44.1371914" lon="11.9460708"><ele>343.0</ele><time>2026-04-25T12:34:53.459Z</time></trkpt><trkpt lat="44.1372642" lon="11.9459612"><ele>343.0</ele><time>2026-04-25T12:34:54.452Z</time></trkpt><trkpt lat="44.1373241" lon="11.9458614"><ele>343.0</ele><time>2026-04-25T12:34:55.456Z</time></trkpt><trkpt lat="44.1373609" lon="11.9457797"><ele>343.0</ele><time>2026-04-25T12:34:56.46Z</time></trkpt><trkpt lat="44.1373827" lon="11.9456494"><ele>343.0</ele><time>2026-04-25T12:34:58.464Z</time></trkpt><trkpt lat="44.1374387" lon="11.9455468"><ele>340.16666666666663</ele><time>2026-04-25T12:35:00.472Z</time></trkpt><trkpt lat="44.1375445" lon="11.9454764"><ele>337.3333333333333</ele><time>2026-04-25T12:35:02.465Z</time></trkpt><trkpt lat="44.1376096" lon="11.9454574"><ele>334.5</ele><time>2026-04-25T12:35:03.459Z</time></trkpt><trkpt lat="44.1376795" lon="11.9454466"><ele>331.6666666666667</ele><time>2026-04-25T12:35:04.474Z</time></trkpt><trkpt lat="44.1377516" lon="11.9454404"><ele>328.83333333333337</ele><time>2026-04-25T12:35:05.462Z</time></trkpt><trkpt lat="44.1378216" lon="11.9454354"><ele>326.0</ele><time>2026-04-25T12:35:06.46Z</time></trkpt><trkpt lat="44.1378886" lon="11.945428"><ele>326.0</ele><time>2026-04-25T12:35:07.46Z</time></trkpt><trkpt lat="44.1379536" lon="11.9454299"><ele>326.0</ele><time>2026-04-25T12:35:08.473Z</time></trkpt><trkpt lat="44.1380687" lon="11.9454243"><ele>326.0</ele><time>2026-04-25T12:35:10.46Z</time></trkpt><trkpt lat="44.1381706" lon="11.9454234"><ele>326.0</ele><time>2026-04-25T12:35:12.448Z</time></trkpt><trkpt lat="44.1382684" lon="11.9454111"><ele>326.0</ele><time>2026-04-25T12:35:14.467Z</time></trkpt><trkpt lat="44.1383658" lon="11.9453858"><ele>322.40000000000003</ele><time>2026-04-25T12:35:16.5Z</time></trkpt><trkpt lat="44.1384545" lon="11.9453493"><ele>318.8</ele><time>2026-04-25T12:35:18.46Z</time></trkpt><trkpt lat="44.1385495" lon="11.94531"><ele>315.20000000000005</ele><time>2026-04-25T12:35:20.465Z</time></trkpt><trkpt lat="44.1386346" lon="11.9452619"><ele>311.6</ele><time>2026-04-25T12:35:22.449Z</time></trkpt><trkpt lat="44.1387187" lon="11.9452157"><ele>308.0</ele><time>2026-04-25T12:35:24.458Z</time></trkpt><trkpt lat="44.1388151" lon="11.9451668"><ele>308.0</ele><time>2026-04-25T12:35:26.46Z</time></trkpt><trkpt lat="44.1389203" lon="11.9451132"><ele>308.0</ele><time>2026-04-25T12:35:28.453Z</time></trkpt><trkpt lat="44.1390495" lon="11.9450702"><ele>308.0</ele><time>2026-04-25T12:35:30.474Z</time></trkpt><trkpt lat="44.1391221" lon="11.9450564"><ele>308.0</ele><time>2026-04-25T12:35:31.454Z</time></trkpt><trkpt lat="44.1391961" lon="11.9450409"><ele>308.0</ele><time>2026-04-25T12:35:32.452Z</time></trkpt><trkpt lat="44.1392761" lon="11.9450249"><ele>302.6</ele><time>2026-04-25T12:35:33.462Z</time></trkpt><trkpt lat="44.139368" lon="11.9450077"><ele>297.20000000000005</ele><time>2026-04-25T12:35:34.465Z</time></trkpt><trkpt lat="44.1394686" lon="11.9449926"><ele>291.8</ele><time>2026-04-25T12:35:35.455Z</time></trkpt><trkpt lat="44.1395726" lon="11.944979"><ele>286.40000000000003</ele><time>2026-04-25T12:35:36.459Z</time></trkpt><trkpt lat="44.139675" lon="11.9449731"><ele>281.0</ele><time>2026-04-25T12:35:37.468Z</time></trkpt><trkpt lat="44.1397747" lon="11.9449794"><ele>281.0</ele><time>2026-04-25T12:35:38.45Z</time></trkpt><trkpt lat="44.1398696" lon="11.944988"><ele>281.0</ele><time>2026-04-25T12:35:39.452Z</time></trkpt><trkpt lat="44.1399519" lon="11.9450105"><ele>281.0</ele><time>2026-04-25T12:35:40.462Z</time></trkpt><trkpt lat="44.1400234" lon="11.9450262"><ele>281.0</ele><time>2026-04-25T12:35:41.46Z</time></trkpt><trkpt lat="44.1400874" lon="11.9450371"><ele>281.0</ele><time>2026-04-25T12:35:42.444Z</time></trkpt><trkpt lat="44.1401745" lon="11.9450448"><ele>281.0</ele><time>2026-04-25T12:35:44.46Z</time></trkpt><trkpt lat="44.1402495" lon="11.9450332"><ele>277.83333333333337</ele><time>2026-04-25T12:36:03.444Z</time></trkpt><trkpt lat="44.1403387" lon="11.9450028"><ele>274.6666666666667</ele><time>2026-04-25T12:36:05.485Z</time></trkpt><trkpt lat="44.140403" lon="11.9449737"><ele>271.5</ele><time>2026-04-25T12:36:06.468Z</time></trkpt><trkpt lat="44.1405187" lon="11.9449091"><ele>268.3333333333333</ele><time>2026-04-25T12:36:08.471Z</time></trkpt><trkpt lat="44.1405851" lon="11.9448762"><ele>265.16666666666663</ele><time>2026-04-25T12:36:09.462Z</time></trkpt><trkpt lat="44.1406506" lon="11.9448457"><ele>262.0</ele><time>2026-04-25T12:36:10.467Z</time></trkpt><trkpt lat="44.1407131" lon="11.9448171"><ele>257.6</ele><time>2026-04-25T12:36:11.462Z</time></trkpt><trkpt lat="44.1407727" lon="11.9447835"><ele>253.2</ele><time>2026-04-25T12:36:12.459Z</time></trkpt><trkpt lat="44.1408314" lon="11.9447501"><ele>248.8</ele><time>2026-04-25T12:36:13.468Z</time></trkpt><trkpt lat="44.1409388" lon="11.9446864"><ele>244.4</ele><time>2026-04-25T12:36:15.458Z</time></trkpt><trkpt lat="44.1410445" lon="11.9446202"><ele>240.0</ele><time>2026-04-25T12:36:17.469Z</time></trkpt><trkpt lat="44.1411506" lon="11.9445542"><ele>240.0</ele><time>2026-04-25T12:36:19.46Z</time></trkpt><trkpt lat="44.1412582" lon="11.9444818"><ele>240.0</ele><time>2026-04-25T12:36:21.458Z</time></trkpt><trkpt lat="44.141362" lon="11.9444035"><ele>240.0</ele><time>2026-04-25T12:36:23.46Z</time></trkpt><trkpt lat="44.1414648" lon="11.9443292"><ele>240.0</ele><time>2026-04-25T12:36:25.458Z</time></trkpt><trkpt lat="44.1415721" lon="11.9442518"><ele>234.8</ele><time>2026-04-25T12:36:27.457Z</time></trkpt><trkpt lat="44.1416767" lon="11.9441746"><ele>229.6</ele><time>2026-04-25T12:36:29.466Z</time></trkpt><trkpt lat="44.1417757" lon="11.9440989"><ele>224.39999999999998</ele><time>2026-04-25T12:36:31.457Z</time></trkpt><trkpt lat="44.141868" lon="11.9440104"><ele>219.2</ele><time>2026-04-25T12:36:33.463Z</time></trkpt><trkpt lat="44.1419475" lon="11.9439344"><ele>214.0</ele><time>2026-04-25T12:36:35.453Z</time></trkpt><trkpt lat="44.1420317" lon="11.9438638"><ele>214.0</ele><time>2026-04-25T12:36:37.457Z</time></trkpt><trkpt lat="44.1421442" lon="11.9438202"><ele>213.99999999999997</ele><time>2026-04-25T12:36:39.458Z</time></trkpt><trkpt lat="44.1422683" lon="11.9438587"><ele>213.99999999999997</ele><time>2026-04-25T12:36:41.454Z</time></trkpt><trkpt lat="44.1423312" lon="11.9439001"><ele>214.0</ele><time>2026-04-25T12:36:42.472Z</time></trkpt><trkpt lat="44.1424018" lon="11.9439462"><ele>214.0</ele><time>2026-04-25T12:36:43.462Z</time></trkpt><trkpt lat="44.1424779" lon="11.9439922"><ele>209.79999999999998</ele><time>2026-04-25T12:36:44.46Z</time></trkpt><trkpt lat="44.1425762" lon="11.9440342"><ele>205.59999999999997</ele><time>2026-04-25T12:36:45.482Z</time></trkpt><trkpt lat="44.1426886" lon="11.9440547"><ele>201.4</ele><time>2026-04-25T12:36:46.454Z</time></trkpt><trkpt lat="44.1428015" lon="11.9440576"><ele>197.2</ele><time>2026-04-25T12:36:47.454Z</time></trkpt><trkpt lat="44.1429184" lon="11.9440375"><ele>193.0</ele><time>2026-04-25T12:36:48.463Z</time></trkpt><trkpt lat="44.143038" lon="11.9440026"><ele>193.0</ele><time>2026-04-25T12:36:49.479Z</time></trkpt><trkpt lat="44.1431532" lon="11.9439544"><ele>193.0</ele><time>2026-04-25T12:36:50.456Z</time></trkpt><trkpt lat="44.1432679" lon="11.9438929"><ele>193.0</ele><time>2026-04-25T12:36:51.463Z</time></trkpt><trkpt lat="44.143393" lon="11.9438282"><ele>193.0</ele><time>2026-04-25T12:36:52.454Z</time></trkpt><trkpt lat="44.1435183" lon="11.943761"><ele>191.0</ele><time>2026-04-25T12:36:53.471Z</time></trkpt><trkpt lat="44.143633" lon="11.9436926"><ele>189.0</ele><time>2026-04-25T12:36:54.466Z</time></trkpt><trkpt lat="44.1437504" lon="11.9436331"><ele>187.0</ele><time>2026-04-25T12:36:55.465Z</time></trkpt><trkpt lat="44.143866" lon="11.9435854"><ele>185.0</ele><time>2026-04-25T12:36:56.461Z</time></trkpt><trkpt lat="44.1439869" lon="11.9435558"><ele>184.0</ele><time>2026-04-25T12:36:57.464Z</time></trkpt><trkpt lat="44.1441025" lon="11.9435618"><ele>183.0</ele><time>2026-04-25T12:36:58.452Z</time></trkpt><trkpt lat="44.1442175" lon="11.9435996"><ele>182.0</ele><time>2026-04-25T12:36:59.459Z</time></trkpt><trkpt lat="44.1443226" lon="11.9436726"><ele>181.0</ele><time>2026-04-25T12:37:00.457Z</time></trkpt><trkpt lat="44.1444327" lon="11.9437753"><ele>181.0</ele><time>2026-04-25T12:37:01.457Z</time></trkpt><trkpt lat="44.144564" lon="11.9439119"><ele>181.0</ele><time>2026-04-25T12:37:02.474Z</time></trkpt><trkpt lat="44.1446899" lon="11.9440411"><ele>181.0</ele><time>2026-04-25T12:37:03.459Z</time></trkpt><trkpt lat="44.1448042" lon="11.9441523"><ele>180.60000000000002</ele><time>2026-04-25T12:37:04.46Z</time></trkpt><trkpt lat="44.1449059" lon="11.9442508"><ele>180.2</ele><time>2026-04-25T12:37:05.454Z</time></trkpt><trkpt lat="44.1450051" lon="11.9443167"><ele>179.8</ele><time>2026-04-25T12:37:06.456Z</time></trkpt><trkpt lat="44.1450928" lon="11.9443619"><ele>179.39999999999998</ele><time>2026-04-25T12:37:07.458Z</time></trkpt><trkpt lat="44.1451779" lon="11.9443987"><ele>179.0</ele><time>2026-04-25T12:37:08.462Z</time></trkpt><trkpt lat="44.1452526" lon="11.9444174"><ele>179.0</ele><time>2026-04-25T12:37:09.458Z</time></trkpt><trkpt lat="44.14532" lon="11.9444187"><ele>179.0</ele><time>2026-04-25T12:37:10.468Z</time></trkpt><trkpt lat="44.1454379" lon="11.9443984"><ele>179.0</ele><time>2026-04-25T12:37:12.462Z</time></trkpt><trkpt lat="44.1455556" lon="11.9443467"><ele>179.0</ele><time>2026-04-25T12:37:14.473Z</time></trkpt><trkpt lat="44.1456182" lon="11.9443076"><ele>179.0</ele><time>2026-04-25T12:37:15.461Z</time></trkpt><trkpt lat="44.1456835" lon="11.9442701"><ele>179.0</ele><time>2026-04-25T12:37:16.479Z</time></trkpt><trkpt lat="44.145764" lon="11.9442211"><ele>183.0</ele><time>2026-04-25T12:37:17.47Z</time></trkpt><trkpt lat="44.1458562" lon="11.944163"><ele>187.0</ele><time>2026-04-25T12:37:18.461Z</time></trkpt><trkpt lat="44.1459597" lon="11.9441015"><ele>191.0</ele><time>2026-04-25T12:37:19.463Z</time></trkpt><trkpt lat="44.1460736" lon="11.9440272"><ele>195.0</ele><time>2026-04-25T12:37:20.469Z</time></trkpt><trkpt lat="44.1462004" lon="11.9439508"><ele>195.0</ele><time>2026-04-25T12:37:21.465Z</time></trkpt><trkpt lat="44.1463327" lon="11.9438704"><ele>195.0</ele><time>2026-04-25T12:37:22.469Z</time></trkpt><trkpt lat="44.146465" lon="11.9437835"><ele>195.0</ele><time>2026-04-25T12:37:23.478Z</time></trkpt><trkpt lat="44.1466" lon="11.9436882"><ele>195.0</ele><time>2026-04-25T12:37:24.466Z</time></trkpt><trkpt lat="44.1467369" lon="11.9435816"><ele>197.75</ele><time>2026-04-25T12:37:25.482Z</time></trkpt><trkpt lat="44.1468687" lon="11.94348"><ele>200.5</ele><time>2026-04-25T12:37:26.459Z</time></trkpt><trkpt lat="44.1469765" lon="11.9433943"><ele>203.25</ele><time>2026-04-25T12:37:27.454Z</time></trkpt><trkpt lat="44.1470673" lon="11.9433439"><ele>206.0</ele><time>2026-04-25T12:37:28.461Z</time></trkpt><trkpt lat="44.1471548" lon="11.9433074"><ele>206.0</ele><time>2026-04-25T12:37:29.45Z</time></trkpt><trkpt lat="44.1472472" lon="11.9432835"><ele>206.0</ele><time>2026-04-25T12:37:30.472Z</time></trkpt><trkpt lat="44.1473377" lon="11.9432906"><ele>206.0</ele><time>2026-04-25T12:37:31.459Z</time></trkpt><trkpt lat="44.14743" lon="11.9433272"><ele>206.0</ele><time>2026-04-25T12:37:32.466Z</time></trkpt><trkpt lat="44.1475257" lon="11.9433626"><ele>206.0</ele><time>2026-04-25T12:37:33.457Z</time></trkpt><trkpt lat="44.147631" lon="11.9434171"><ele>212.75</ele><time>2026-04-25T12:37:34.477Z</time></trkpt><trkpt lat="44.1477485" lon="11.9434741"><ele>219.5</ele><time>2026-04-25T12:37:35.45Z</time></trkpt><trkpt lat="44.1478681" lon="11.9435341"><ele>226.25</ele><time>2026-04-25T12:37:36.46Z</time></trkpt><trkpt lat="44.1479853" lon="11.9435832"><ele>233.0</ele><time>2026-04-25T12:37:37.455Z</time></trkpt><trkpt lat="44.1480867" lon="11.9436241"><ele>233.00000000000003</ele><time>2026-04-25T12:37:38.452Z</time></trkpt><trkpt lat="44.1481673" lon="11.9436633"><ele>233.0</ele><time>2026-04-25T12:37:39.456Z</time></trkpt><trkpt lat="44.1482484" lon="11.9436932"><ele>233.0</ele><time>2026-04-25T12:37:40.463Z</time></trkpt><trkpt lat="44.1483357" lon="11.9437037"><ele>233.0</ele><time>2026-04-25T12:37:41.452Z</time></trkpt><trkpt lat="44.1484193" lon="11.9436933"><ele>233.00000000000003</ele><time>2026-04-25T12:37:42.454Z</time></trkpt><trkpt lat="44.148504" lon="11.9436792"><ele>233.0</ele><time>2026-04-25T12:37:43.444Z</time></trkpt><trkpt lat="44.1485837" lon="11.9436529"><ele>234.33333333333334</ele><time>2026-04-25T12:37:44.462Z</time></trkpt><trkpt lat="44.1486576" lon="11.9436296"><ele>235.66666666666669</ele><time>2026-04-25T12:37:45.463Z</time></trkpt><trkpt lat="44.1487333" lon="11.9436181"><ele>237.0</ele><time>2026-04-25T12:37:46.46Z</time></trkpt><trkpt lat="44.1488381" lon="11.94362"><ele>238.33333333333331</ele><time>2026-04-25T12:37:48.465Z</time></trkpt><trkpt lat="44.1489083" lon="11.9436541"><ele>239.66666666666666</ele><time>2026-04-25T12:37:51.459Z</time></trkpt><trkpt lat="44.1490223" lon="11.9436774"><ele>241.0</ele><time>2026-04-25T12:38:22.462Z</time></trkpt><trkpt lat="44.1490982" lon="11.9436951"><ele>241.99999999999997</ele><time>2026-04-25T12:38:23.468Z</time></trkpt><trkpt lat="44.1491829" lon="11.9437104"><ele>243.0</ele><time>2026-04-25T12:38:24.452Z</time></trkpt><trkpt lat="44.1492641" lon="11.9437227"><ele>244.0</ele><time>2026-04-25T12:38:25.453Z</time></trkpt><trkpt lat="44.1493311" lon="11.943754"><ele>245.0</ele><time>2026-04-25T12:38:26.458Z</time></trkpt><trkpt lat="44.1493922" lon="11.9437991"><ele>245.99999999999997</ele><time>2026-04-25T12:38:27.466Z</time></trkpt><trkpt lat="44.1494463" lon="11.9438622"><ele>247.0</ele><time>2026-04-25T12:38:28.46Z</time></trkpt><trkpt lat="44.1495027" lon="11.9439595"><ele>247.0</ele><time>2026-04-25T12:38:29.454Z</time></trkpt><trkpt lat="44.1495568" lon="11.9440736"><ele>247.0</ele><time>2026-04-25T12:38:30.467Z</time></trkpt><trkpt lat="44.1496028" lon="11.9442013"><ele>247.0</ele><time>2026-04-25T12:38:31.462Z</time></trkpt><trkpt lat="44.1496312" lon="11.94433"><ele>247.0</ele><time>2026-04-25T12:38:32.464Z</time></trkpt><trkpt lat="44.1496527" lon="11.9444686"><ele>247.0</ele><time>2026-04-25T12:38:33.452Z</time></trkpt><trkpt lat="44.1496626" lon="11.9446177"><ele>250.8</ele><time>2026-04-25T12:38:34.463Z</time></trkpt><trkpt lat="44.1496726" lon="11.9447643"><ele>254.6</ele><time>2026-04-25T12:38:35.472Z</time></trkpt><trkpt lat="44.1496929" lon="11.9449066"><ele>258.40000000000003</ele><time>2026-04-25T12:38:36.456Z</time></trkpt><trkpt lat="44.1497364" lon="11.9450497"><ele>262.2</ele><time>2026-04-25T12:38:37.448Z</time></trkpt><trkpt lat="44.1498038" lon="11.945193"><ele>266.0</ele><time>2026-04-25T12:38:38.466Z</time></trkpt><trkpt lat="44.1498869" lon="11.9453256"><ele>266.0</ele><time>2026-04-25T12:38:39.456Z</time></trkpt><trkpt lat="44.1499813" lon="11.9454427"><ele>266.0</ele><time>2026-04-25T12:38:40.448Z</time></trkpt><trkpt lat="44.1500853" lon="11.9455644"><ele>266.0</ele><time>2026-04-25T12:38:41.469Z</time></trkpt><trkpt lat="44.1501724" lon="11.9456954"><ele>266.0</ele><time>2026-04-25T12:38:42.458Z</time></trkpt><trkpt lat="44.1502685" lon="11.9458453"><ele>271.5</ele><time>2026-04-25T12:38:43.465Z</time></trkpt><trkpt lat="44.1503541" lon="11.9460008"><ele>277.0</ele><time>2026-04-25T12:38:44.455Z</time></trkpt><trkpt lat="44.1504397" lon="11.9461159"><ele>282.5</ele><time>2026-04-25T12:38:45.457Z</time></trkpt><trkpt lat="44.1505176" lon="11.9462055"><ele>288.0</ele><time>2026-04-25T12:38:46.46Z</time></trkpt><trkpt lat="44.1506052" lon="11.9462621"><ele>288.0</ele><time>2026-04-25T12:38:47.46Z</time></trkpt><trkpt lat="44.150692" lon="11.9462922"><ele>288.0</ele><time>2026-04-25T12:38:48.466Z</time></trkpt><trkpt lat="44.1507746" lon="11.9463228"><ele>288.0</ele><time>2026-04-25T12:38:49.461Z</time></trkpt><trkpt lat="44.1508569" lon="11.9463616"><ele>288.0</ele><time>2026-04-25T12:38:50.462Z</time></trkpt><trkpt lat="44.1509342" lon="11.9464385"><ele>288.0</ele><time>2026-04-25T12:38:51.454Z</time></trkpt><trkpt lat="44.151" lon="11.9465274"><ele>288.0</ele><time>2026-04-25T12:38:52.471Z</time></trkpt><trkpt lat="44.151048" lon="11.9466182"><ele>287.1666666666667</ele><time>2026-04-25T12:38:53.453Z</time></trkpt><trkpt lat="44.1510954" lon="11.9466915"><ele>286.3333333333333</ele><time>2026-04-25T12:38:54.457Z</time></trkpt><trkpt lat="44.1511503" lon="11.9467731"><ele>285.5</ele><time>2026-04-25T12:38:56.467Z</time></trkpt><trkpt lat="44.1511939" lon="11.9468366"><ele>284.66666666666663</ele><time>2026-04-25T12:38:58.463Z</time></trkpt><trkpt lat="44.1512843" lon="11.946905"><ele>283.8333333333333</ele><time>2026-04-25T12:39:01.454Z</time></trkpt><trkpt lat="44.1513453" lon="11.946944"><ele>283.0</ele><time>2026-04-25T12:39:03.471Z</time></trkpt><trkpt lat="44.1513544" lon="11.9470512"><ele>283.0</ele><time>2026-04-25T12:39:05.468Z</time></trkpt><trkpt lat="44.1512982" lon="11.9471659"><ele>283.0</ele><time>2026-04-25T12:39:07.468Z</time></trkpt><trkpt lat="44.1512296" lon="11.9472242"><ele>283.0</ele><time>2026-04-25T12:39:08.458Z</time></trkpt><trkpt lat="44.1511559" lon="11.9472827"><ele>283.0</ele><time>2026-04-25T12:39:09.476Z</time></trkpt><trkpt lat="44.1510881" lon="11.9473334"><ele>283.0</ele><time>2026-04-25T12:39:10.457Z</time></trkpt><trkpt lat="44.1510241" lon="11.9473842"><ele>283.0</ele><time>2026-04-25T12:39:11.464Z</time></trkpt><trkpt lat="44.1509538" lon="11.9474287"><ele>283.0</ele><time>2026-04-25T12:39:12.472Z</time></trkpt><trkpt lat="44.1508729" lon="11.9474632"><ele>283.0</ele><time>2026-04-25T12:39:13.466Z</time></trkpt><trkpt lat="44.1507684" lon="11.9474935"><ele>283.0</ele><time>2026-04-25T12:39:14.461Z</time></trkpt><trkpt lat="44.1506572" lon="11.9475238"><ele>283.0</ele><time>2026-04-25T12:39:15.445Z</time></trkpt><trkpt lat="44.1505556" lon="11.9475541"><ele>283.0</ele><time>2026-04-25T12:39:16.463Z</time></trkpt><trkpt lat="44.1504885" lon="11.9475771"><ele>282.5</ele><time>2026-04-25T12:39:17.463Z</time></trkpt><trkpt lat="44.1504028" lon="11.9475898"><ele>282.0</ele><time>2026-04-25T12:39:19.458Z</time></trkpt><trkpt lat="44.1502855" lon="11.9475804"><ele>281.5</ele><time>2026-04-25T12:39:21.46Z</time></trkpt><trkpt lat="44.1502119" lon="11.9475514"><ele>281.0</ele><time>2026-04-25T12:39:23.477Z</time></trkpt><trkpt lat="44.1501463" lon="11.9475205"><ele>280.5</ele><time>2026-04-25T12:39:26.478Z</time></trkpt><trkpt lat="44.1502339" lon="11.9475442"><ele>280.0</ele><time>2026-04-25T12:39:40.458Z</time></trkpt><trkpt lat="44.1503007" lon="11.9475846"><ele>280.0</ele><time>2026-04-25T12:39:42.469Z</time></trkpt><trkpt lat="44.1503766" lon="11.9475922"><ele>280.0</ele><time>2026-04-25T12:39:44.455Z</time></trkpt><trkpt lat="44.1504389" lon="11.9475776"><ele>280.0</ele><time>2026-04-25T12:39:46.467Z</time></trkpt><trkpt lat="44.1504973" lon="11.9476141"><ele>280.0</ele><time>2026-04-25T12:40:05.456Z</time></trkpt><trkpt lat="44.1505187" lon="11.9477664"><ele>280.0</ele><time>2026-04-25T12:40:08.463Z</time></trkpt><trkpt lat="44.1505022" lon="11.9479429"><ele>280.0</ele><time>2026-04-25T12:40:10.472Z</time></trkpt><trkpt lat="44.150498" lon="11.9480431"><ele>280.0</ele><time>2026-04-25T12:40:11.463Z</time></trkpt><trkpt lat="44.1505008" lon="11.9481332"><ele>280.0</ele><time>2026-04-25T12:40:12.454Z</time></trkpt><trkpt lat="44.1505291" lon="11.9482966"><ele>280.0</ele><time>2026-04-25T12:40:14.444Z</time></trkpt><trkpt lat="44.1505661" lon="11.9484436"><ele>280.0</ele><time>2026-04-25T12:40:16.47Z</time></trkpt><trkpt lat="44.150608" lon="11.9485859"><ele>280.0</ele><time>2026-04-25T12:40:18.455Z</time></trkpt><trkpt lat="44.150614" lon="11.9487372"><ele>277.5</ele><time>2026-04-25T12:40:20.458Z</time></trkpt><trkpt lat="44.1505939" lon="11.9489006"><ele>275.0</ele><time>2026-04-25T12:40:22.472Z</time></trkpt><trkpt lat="44.1505682" lon="11.9489833"><ele>272.5</ele><time>2026-04-25T12:40:23.458Z</time></trkpt><trkpt lat="44.1504982" lon="11.9491303"><ele>270.0</ele><time>2026-04-25T12:40:25.459Z</time></trkpt><trkpt lat="44.1504578" lon="11.9492089"><ele>267.5</ele><time>2026-04-25T12:40:26.46Z</time></trkpt><trkpt lat="44.1504178" lon="11.9492808"><ele>265.0</ele><time>2026-04-25T12:40:27.461Z</time></trkpt><trkpt lat="44.1503768" lon="11.9493544"><ele>263.16666666666663</ele><time>2026-04-25T12:40:28.462Z</time></trkpt><trkpt lat="44.1502986" lon="11.9494653"><ele>261.3333333333333</ele><time>2026-04-25T12:40:30.472Z</time></trkpt><trkpt lat="44.1502091" lon="11.9495727"><ele>259.5</ele><time>2026-04-25T12:40:32.456Z</time></trkpt><trkpt lat="44.150157" lon="11.9496273"><ele>257.6666666666667</ele><time>2026-04-25T12:40:33.455Z</time></trkpt><trkpt lat="44.1500963" lon="11.9496838"><ele>255.83333333333334</ele><time>2026-04-25T12:40:34.457Z</time></trkpt><trkpt lat="44.1500363" lon="11.9497458"><ele>254.0</ele><time>2026-04-25T12:40:35.466Z</time></trkpt><trkpt lat="44.1499796" lon="11.9498126"><ele>254.00000000000003</ele><time>2026-04-25T12:40:36.473Z</time></trkpt><trkpt lat="44.1499368" lon="11.9498775"><ele>254.0</ele><time>2026-04-25T12:40:37.459Z</time></trkpt><trkpt lat="44.1498893" lon="11.9499957"><ele>254.0</ele><time>2026-04-25T12:40:39.461Z</time></trkpt><trkpt lat="44.1499109" lon="11.950113"><ele>254.0</ele><time>2026-04-25T12:40:41.448Z</time></trkpt><trkpt lat="44.1499749" lon="11.9501755"><ele>254.00000000000003</ele><time>2026-04-25T12:40:43.463Z</time></trkpt><trkpt lat="44.1500394" lon="11.9501739"><ele>254.0</ele><time>2026-04-25T12:40:45.458Z</time></trkpt><trkpt lat="44.1501173" lon="11.9500984"><ele>254.0</ele><time>2026-04-25T12:40:47.456Z</time></trkpt><trkpt lat="44.1501912" lon="11.9499981"><ele>253.99999999999997</ele><time>2026-04-25T12:40:49.477Z</time></trkpt><trkpt lat="44.1502277" lon="11.9499222"><ele>253.99999999999997</ele><time>2026-04-25T12:40:51.455Z</time></trkpt><trkpt lat="44.1502343" lon="11.9498109"><ele>254.0</ele><time>2026-04-25T12:40:54.464Z</time></trkpt><trkpt lat="44.1501605" lon="11.9497609"><ele>254.0</ele><time>2026-04-25T12:40:56.451Z</time></trkpt><trkpt lat="44.1500348" lon="11.9497882"><ele>254.00000000000003</ele><time>2026-04-25T12:40:58.466Z</time></trkpt><trkpt lat="44.1499765" lon="11.9498388"><ele>254.0</ele><time>2026-04-25T12:40:59.463Z</time></trkpt><trkpt lat="44.1499189" lon="11.9499328"><ele>254.0</ele><time>2026-04-25T12:41:01.445Z</time></trkpt><trkpt lat="44.1498477" lon="11.9500053"><ele>254.0</ele><time>2026-04-25T12:41:04.457Z</time></trkpt><trkpt lat="44.1497873" lon="11.9500445"><ele>254.00000000000003</ele><time>2026-04-25T12:41:06.463Z</time></trkpt><trkpt lat="44.1497303" lon="11.9501067"><ele>254.0</ele><time>2026-04-25T12:41:08.457Z</time></trkpt><trkpt lat="44.1497282" lon="11.9502375"><ele>250.0</ele><time>2026-04-25T12:41:10.455Z</time></trkpt><trkpt lat="44.1497577" lon="11.9503972"><ele>246.0</ele><time>2026-04-25T12:41:12.457Z</time></trkpt><trkpt lat="44.1497865" lon="11.9505384"><ele>242.0</ele><time>2026-04-25T12:41:14.468Z</time></trkpt><trkpt lat="44.1498437" lon="11.9506852"><ele>238.0</ele><time>2026-04-25T12:41:16.46Z</time></trkpt><trkpt lat="44.1498886" lon="11.9508496"><ele>235.16666666666666</ele><time>2026-04-25T12:41:18.452Z</time></trkpt><trkpt lat="44.1499073" lon="11.9509387"><ele>232.33333333333331</ele><time>2026-04-25T12:41:19.464Z</time></trkpt><trkpt lat="44.1499419" lon="11.9511129"><ele>229.5</ele><time>2026-04-25T12:41:21.457Z</time></trkpt><trkpt lat="44.1499629" lon="11.9512037"><ele>226.66666666666669</ele><time>2026-04-25T12:41:22.467Z</time></trkpt><trkpt lat="44.149984" lon="11.9512926"><ele>223.83333333333334</ele><time>2026-04-25T12:41:23.457Z</time></trkpt><trkpt lat="44.1500091" lon="11.9513779"><ele>221.0</ele><time>2026-04-25T12:41:24.464Z</time></trkpt><trkpt lat="44.1500312" lon="11.9514675"><ele>221.00000000000003</ele><time>2026-04-25T12:41:25.449Z</time></trkpt><trkpt lat="44.1500467" lon="11.9515574"><ele>221.0</ele><time>2026-04-25T12:41:26.46Z</time></trkpt><trkpt lat="44.1500581" lon="11.9516571"><ele>221.0</ele><time>2026-04-25T12:41:27.458Z</time></trkpt><trkpt lat="44.150073" lon="11.951758"><ele>221.0</ele><time>2026-04-25T12:41:28.463Z</time></trkpt><trkpt lat="44.1500795" lon="11.9518617"><ele>221.00000000000003</ele><time>2026-04-25T12:41:29.458Z</time></trkpt><trkpt lat="44.1500857" lon="11.9519688"><ele>221.0</ele><time>2026-04-25T12:41:30.466Z</time></trkpt><trkpt lat="44.1500913" lon="11.9520874"><ele>217.60000000000002</ele><time>2026-04-25T12:41:31.465Z</time></trkpt><trkpt lat="44.1500982" lon="11.9522092"><ele>214.20000000000002</ele><time>2026-04-25T12:41:32.456Z</time></trkpt><trkpt lat="44.1501023" lon="11.9523322"><ele>210.8</ele><time>2026-04-25T12:41:33.453Z</time></trkpt><trkpt lat="44.1501064" lon="11.9524586"><ele>207.39999999999998</ele><time>2026-04-25T12:41:34.479Z</time></trkpt><trkpt lat="44.1501137" lon="11.9525891"><ele>204.0</ele><time>2026-04-25T12:41:35.45Z</time></trkpt><trkpt lat="44.1501188" lon="11.9527229"><ele>201.33333333333334</ele><time>2026-04-25T12:41:36.462Z</time></trkpt><trkpt lat="44.1501277" lon="11.9528559"><ele>198.66666666666666</ele><time>2026-04-25T12:41:37.457Z</time></trkpt><trkpt lat="44.1501328" lon="11.9529817"><ele>196.0</ele><time>2026-04-25T12:41:38.452Z</time></trkpt><trkpt lat="44.1501363" lon="11.9530982"><ele>193.33333333333331</ele><time>2026-04-25T12:41:39.469Z</time></trkpt><trkpt lat="44.1501387" lon="11.9532044"><ele>190.66666666666666</ele><time>2026-04-25T12:41:40.46Z</time></trkpt><trkpt lat="44.1501417" lon="11.9533128"><ele>188.0</ele><time>2026-04-25T12:41:41.471Z</time></trkpt><trkpt lat="44.1501448" lon="11.9534235"><ele>184.4</ele><time>2026-04-25T12:41:42.46Z</time></trkpt><trkpt lat="44.1501516" lon="11.9535259"><ele>180.8</ele><time>2026-04-25T12:41:43.455Z</time></trkpt><trkpt lat="44.1501556" lon="11.9536182"><ele>177.2</ele><time>2026-04-25T12:41:44.476Z</time></trkpt><trkpt lat="44.1501665" lon="11.953775"><ele>173.6</ele><time>2026-04-25T12:41:46.45Z</time></trkpt><trkpt lat="44.1501684" lon="11.9539064"><ele>170.0</ele><time>2026-04-25T12:41:48.461Z</time></trkpt><trkpt lat="44.1501689" lon="11.9540492"><ele>167.0</ele><time>2026-04-25T12:41:50.454Z</time></trkpt><trkpt lat="44.1501734" lon="11.9542059"><ele>164.0</ele><time>2026-04-25T12:41:52.455Z</time></trkpt><trkpt lat="44.1501743" lon="11.9542999"><ele>161.0</ele><time>2026-04-25T12:41:53.449Z</time></trkpt><trkpt lat="44.1501737" lon="11.9543992"><ele>158.0</ele><time>2026-04-25T12:41:54.475Z</time></trkpt><trkpt lat="44.1501722" lon="11.9545042"><ele>155.0</ele><time>2026-04-25T12:41:55.479Z</time></trkpt><trkpt lat="44.150169" lon="11.9546148"><ele>152.0</ele><time>2026-04-25T12:41:56.458Z</time></trkpt><trkpt lat="44.1501715" lon="11.954727"><ele>152.0</ele><time>2026-04-25T12:41:57.461Z</time></trkpt><trkpt lat="44.150174" lon="11.954835"><ele>152.0</ele><time>2026-04-25T12:41:58.457Z</time></trkpt><trkpt lat="44.1501765" lon="11.9549437"><ele>152.0</ele><time>2026-04-25T12:41:59.454Z</time></trkpt><trkpt lat="44.1501779" lon="11.95506"><ele>152.0</ele><time>2026-04-25T12:42:00.461Z</time></trkpt><trkpt lat="44.1501791" lon="11.9551706"><ele>152.0</ele><time>2026-04-25T12:42:01.462Z</time></trkpt><trkpt lat="44.1501846" lon="11.9552763"><ele>152.0</ele><time>2026-04-25T12:42:02.462Z</time></trkpt><trkpt lat="44.1501868" lon="11.9553688"><ele>149.4</ele><time>2026-04-25T12:42:03.476Z</time></trkpt><trkpt lat="44.1501868" lon="11.9555225"><ele>146.79999999999998</ele><time>2026-04-25T12:42:05.458Z</time></trkpt><trkpt lat="44.1501856" lon="11.9556808"><ele>144.2</ele><time>2026-04-25T12:42:07.451Z</time></trkpt><trkpt lat="44.150187" lon="11.9558117"><ele>141.6</ele><time>2026-04-25T12:42:09.464Z</time></trkpt><trkpt lat="44.150185" lon="11.9559485"><ele>139.0</ele><time>2026-04-25T12:42:11.454Z</time></trkpt><trkpt lat="44.1501752" lon="11.9561126"><ele>137.33333333333334</ele><time>2026-04-25T12:42:13.456Z</time></trkpt><trkpt lat="44.1501522" lon="11.95626"><ele>135.66666666666669</ele><time>2026-04-25T12:42:15.451Z</time></trkpt><trkpt lat="44.1501268" lon="11.956398"><ele>134.0</ele><time>2026-04-25T12:42:17.47Z</time></trkpt><trkpt lat="44.1501247" lon="11.9565331"><ele>132.33333333333334</ele><time>2026-04-25T12:42:19.437Z</time></trkpt><trkpt lat="44.1501357" lon="11.9566224"><ele>130.66666666666666</ele><time>2026-04-25T12:42:20.457Z</time></trkpt><trkpt lat="44.1501536" lon="11.9567205"><ele>129.0</ele><time>2026-04-25T12:42:21.454Z</time></trkpt><trkpt lat="44.1502154" lon="11.9568634"><ele>129.0</ele><time>2026-04-25T12:42:23.452Z</time></trkpt><trkpt lat="44.1502671" lon="11.9569247"><ele>129.0</ele><time>2026-04-25T12:42:24.45Z</time></trkpt><trkpt lat="44.150327" lon="11.9569938"><ele>129.0</ele><time>2026-04-25T12:42:25.466Z</time></trkpt><trkpt lat="44.1504059" lon="11.9570726"><ele>129.0</ele><time>2026-04-25T12:42:27.457Z</time></trkpt><trkpt lat="44.1504735" lon="11.9570709"><ele>129.0</ele><time>2026-04-25T12:42:29.466Z</time></trkpt><trkpt lat="44.1505346" lon="11.9570408"><ele>129.0</ele><time>2026-04-25T12:42:32.461Z</time></trkpt><trkpt lat="44.1505921" lon="11.9569388"><ele>129.0</ele><time>2026-04-25T12:42:45.457Z</time></trkpt><trkpt lat="44.150647" lon="11.9568466"><ele>129.0</ele><time>2026-04-25T12:42:47.447Z</time></trkpt><trkpt lat="44.1507104" lon="11.9567356"><ele>129.0</ele><time>2026-04-25T12:42:49.451Z</time></trkpt><trkpt lat="44.15079" lon="11.9566278"><ele>129.0</ele><time>2026-04-25T12:42:51.456Z</time></trkpt><trkpt lat="44.1508575" lon="11.9565225"><ele>129.0</ele><time>2026-04-25T12:42:53.445Z</time></trkpt><trkpt lat="44.1509364" lon="11.9564198"><ele>129.66666666666666</ele><time>2026-04-25T12:42:55.46Z</time></trkpt><trkpt lat="44.1510259" lon="11.956316"><ele>130.33333333333334</ele><time>2026-04-25T12:42:57.458Z</time></trkpt><trkpt lat="44.1510798" lon="11.9562626"><ele>131.0</ele><time>2026-04-25T12:42:59.453Z</time></trkpt><trkpt lat="44.1511464" lon="11.9562613"><ele>131.66666666666669</ele><time>2026-04-25T13:00:56.456Z</time></trkpt><trkpt lat="44.1510726" lon="11.9562741"><ele>132.33333333333334</ele><time>2026-04-25T13:01:05.443Z</time></trkpt><trkpt lat="44.1510216" lon="11.9563266"><ele>133.0</ele><time>2026-04-25T13:01:09.45Z</time></trkpt><trkpt lat="44.1509446" lon="11.9564105"><ele>133.0</ele><time>2026-04-25T13:01:12.466Z</time></trkpt><trkpt lat="44.1508764" lon="11.9564949"><ele>133.0</ele><time>2026-04-25T13:01:14.441Z</time></trkpt><trkpt lat="44.1508244" lon="11.9565751"><ele>133.0</ele><time>2026-04-25T13:01:16.452Z</time></trkpt><trkpt lat="44.150776" lon="11.956649"><ele>133.0</ele><time>2026-04-25T13:01:18.454Z</time></trkpt><trkpt lat="44.1507164" lon="11.956739"><ele>133.0</ele><time>2026-04-25T13:01:20.447Z</time></trkpt><trkpt lat="44.1506544" lon="11.9568337"><ele>133.0</ele><time>2026-04-25T13:01:22.458Z</time></trkpt><trkpt lat="44.1506055" lon="11.9569165"><ele>132.42857142857142</ele><time>2026-04-25T13:01:24.455Z</time></trkpt><trkpt lat="44.1505647" lon="11.9569875"><ele>131.85714285714286</ele><time>2026-04-25T13:01:26.448Z</time></trkpt><trkpt lat="44.1505094" lon="11.9570615"><ele>131.28571428571428</ele><time>2026-04-25T13:01:29.448Z</time></trkpt><trkpt lat="44.1504442" lon="11.9570725"><ele>130.71428571428572</ele><time>2026-04-25T13:01:32.45Z</time></trkpt><trkpt lat="44.1503699" lon="11.957038"><ele>130.14285714285714</ele><time>2026-04-25T13:01:35.453Z</time></trkpt><trkpt lat="44.1503067" lon="11.9569642"><ele>129.57142857142856</ele><time>2026-04-25T13:01:38.456Z</time></trkpt><trkpt lat="44.1502673" lon="11.9568923"><ele>129.0</ele><time>2026-04-25T13:01:40.448Z</time></trkpt><trkpt lat="44.1501994" lon="11.9567852"><ele>128.83333333333334</ele><time>2026-04-25T13:01:42.485Z</time></trkpt><trkpt lat="44.1501492" lon="11.9566911"><ele>128.66666666666666</ele><time>2026-04-25T13:01:44.454Z</time></trkpt><trkpt lat="44.1501423" lon="11.9565744"><ele>128.5</ele><time>2026-04-25T13:01:47.454Z</time></trkpt><trkpt lat="44.1501304" lon="11.9564825"><ele>128.33333333333331</ele><time>2026-04-25T13:01:51.437Z</time></trkpt><trkpt lat="44.1501422" lon="11.9563377"><ele>128.16666666666666</ele><time>2026-04-25T13:02:08.442Z</time></trkpt><trkpt lat="44.1501602" lon="11.9562484"><ele>128.0</ele><time>2026-04-25T13:02:09.453Z</time></trkpt><trkpt lat="44.1501736" lon="11.9561454"><ele>127.99999999999999</ele><time>2026-04-25T13:02:10.435Z</time></trkpt><trkpt lat="44.1501899" lon="11.9560407"><ele>128.0</ele><time>2026-04-25T13:02:11.452Z</time></trkpt><trkpt lat="44.1501982" lon="11.9559408"><ele>128.0</ele><time>2026-04-25T13:02:12.447Z</time></trkpt><trkpt lat="44.150196" lon="11.9558324"><ele>128.0</ele><time>2026-04-25T13:02:13.441Z</time></trkpt><trkpt lat="44.1501976" lon="11.9557035"><ele>127.99999999999999</ele><time>2026-04-25T13:02:14.453Z</time></trkpt><trkpt lat="44.150198" lon="11.9555635"><ele>128.0</ele><time>2026-04-25T13:02:15.444Z</time></trkpt><trkpt lat="44.1501916" lon="11.9554184"><ele>130.20000000000002</ele><time>2026-04-25T13:02:16.45Z</time></trkpt><trkpt lat="44.1501852" lon="11.9552802"><ele>132.4</ele><time>2026-04-25T13:02:17.441Z</time></trkpt><trkpt lat="44.1501863" lon="11.9551474"><ele>134.60000000000002</ele><time>2026-04-25T13:02:18.446Z</time></trkpt><trkpt lat="44.1501881" lon="11.9550129"><ele>136.8</ele><time>2026-04-25T13:02:19.428Z</time></trkpt><trkpt lat="44.1501808" lon="11.9548685"><ele>139.0</ele><time>2026-04-25T13:02:20.447Z</time></trkpt><trkpt lat="44.150179" lon="11.9547166"><ele>142.25</ele><time>2026-04-25T13:02:21.449Z</time></trkpt><trkpt lat="44.1501808" lon="11.9545556"><ele>145.5</ele><time>2026-04-25T13:02:22.462Z</time></trkpt><trkpt lat="44.1501765" lon="11.9543869"><ele>148.75</ele><time>2026-04-25T13:02:23.465Z</time></trkpt><trkpt lat="44.1501772" lon="11.9542235"><ele>152.0</ele><time>2026-04-25T13:02:24.433Z</time></trkpt><trkpt lat="44.1501708" lon="11.954062"><ele>155.0</ele><time>2026-04-25T13:02:25.452Z</time></trkpt><trkpt lat="44.1501676" lon="11.953908"><ele>158.0</ele><time>2026-04-25T13:02:26.452Z</time></trkpt><trkpt lat="44.1501648" lon="11.9537826"><ele>161.0</ele><time>2026-04-25T13:02:27.445Z</time></trkpt><trkpt lat="44.1501585" lon="11.953669"><ele>164.0</ele><time>2026-04-25T13:02:28.453Z</time></trkpt><trkpt lat="44.1501474" lon="11.9535486"><ele>167.0</ele><time>2026-04-25T13:02:29.439Z</time></trkpt><trkpt lat="44.1501411" lon="11.9534388"><ele>170.0</ele><time>2026-04-25T13:02:30.449Z</time></trkpt><trkpt lat="44.1501432" lon="11.9533482"><ele>173.6</ele><time>2026-04-25T13:02:31.436Z</time></trkpt><trkpt lat="44.1501363" lon="11.9532443"><ele>177.2</ele><time>2026-04-25T13:02:32.439Z</time></trkpt><trkpt lat="44.1501304" lon="11.9531229"><ele>180.8</ele><time>2026-04-25T13:02:33.446Z</time></trkpt><trkpt lat="44.1501201" lon="11.9529767"><ele>184.4</ele><time>2026-04-25T13:02:34.449Z</time></trkpt><trkpt lat="44.1501104" lon="11.952828"><ele>188.0</ele><time>2026-04-25T13:02:35.468Z</time></trkpt><trkpt lat="44.1501029" lon="11.9526777"><ele>191.2</ele><time>2026-04-25T13:02:36.449Z</time></trkpt><trkpt lat="44.1500896" lon="11.9525294"><ele>194.4</ele><time>2026-04-25T13:02:37.449Z</time></trkpt><trkpt lat="44.1500816" lon="11.9523855"><ele>197.6</ele><time>2026-04-25T13:02:38.444Z</time></trkpt><trkpt lat="44.1500725" lon="11.9522434"><ele>200.79999999999998</ele><time>2026-04-25T13:02:39.441Z</time></trkpt><trkpt lat="44.1500638" lon="11.9520874"><ele>204.0</ele><time>2026-04-25T13:02:40.446Z</time></trkpt><trkpt lat="44.1500565" lon="11.9519225"><ele>204.0</ele><time>2026-04-25T13:02:41.449Z</time></trkpt><trkpt lat="44.1500489" lon="11.9517419"><ele>204.0</ele><time>2026-04-25T13:02:42.441Z</time></trkpt><trkpt lat="44.1500306" lon="11.9515719"><ele>204.0</ele><time>2026-04-25T13:02:43.447Z</time></trkpt><trkpt lat="44.1500065" lon="11.9514134"><ele>204.0</ele><time>2026-04-25T13:02:44.453Z</time></trkpt><trkpt lat="44.1499718" lon="11.9512563"><ele>207.0</ele><time>2026-04-25T13:02:45.446Z</time></trkpt><trkpt lat="44.1499361" lon="11.9511032"><ele>210.0</ele><time>2026-04-25T13:02:46.458Z</time></trkpt><trkpt lat="44.1499037" lon="11.9509455"><ele>212.99999999999997</ele><time>2026-04-25T13:02:47.446Z</time></trkpt><trkpt lat="44.1498718" lon="11.9508101"><ele>216.0</ele><time>2026-04-25T13:02:48.458Z</time></trkpt><trkpt lat="44.1498369" lon="11.9506916"><ele>219.0</ele><time>2026-04-25T13:02:49.44Z</time></trkpt><trkpt lat="44.1498011" lon="11.9505766"><ele>219.0</ele><time>2026-04-25T13:02:50.456Z</time></trkpt><trkpt lat="44.1497722" lon="11.9504621"><ele>219.0</ele><time>2026-04-25T13:02:51.442Z</time></trkpt><trkpt lat="44.1497501" lon="11.9503631"><ele>219.0</ele><time>2026-04-25T13:02:52.439Z</time></trkpt><trkpt lat="44.1497392" lon="11.9502739"><ele>219.0</ele><time>2026-04-25T13:02:53.455Z</time></trkpt><trkpt lat="44.149728" lon="11.9501137"><ele>219.0</ele><time>2026-04-25T13:02:55.455Z</time></trkpt><trkpt lat="44.1497579" lon="11.9500187"><ele>219.0</ele><time>2026-04-25T13:02:57.453Z</time></trkpt><trkpt lat="44.1498296" lon="11.9499701"><ele>221.71428571428572</ele><time>2026-04-25T13:02:59.456Z</time></trkpt><trkpt lat="44.1498936" lon="11.9499872"><ele>224.42857142857142</ele><time>2026-04-25T13:03:01.456Z</time></trkpt><trkpt lat="44.1499199" lon="11.9500687"><ele>227.14285714285714</ele><time>2026-04-25T13:03:13.446Z</time></trkpt><trkpt lat="44.1499427" lon="11.9501534"><ele>229.85714285714286</ele><time>2026-04-25T13:03:16.436Z</time></trkpt><trkpt lat="44.1498846" lon="11.9501088"><ele>232.57142857142856</ele><time>2026-04-25T13:03:18.443Z</time></trkpt><trkpt lat="44.1498811" lon="11.9499704"><ele>235.28571428571428</ele><time>2026-04-25T13:03:20.453Z</time></trkpt><trkpt lat="44.1499251" lon="11.9498792"><ele>238.0</ele><time>2026-04-25T13:03:21.439Z</time></trkpt><trkpt lat="44.1499904" lon="11.9497779"><ele>241.2</ele><time>2026-04-25T13:03:22.441Z</time></trkpt><trkpt lat="44.150069" lon="11.9496741"><ele>244.4</ele><time>2026-04-25T13:03:23.44Z</time></trkpt><trkpt lat="44.1501596" lon="11.9495821"><ele>247.59999999999997</ele><time>2026-04-25T13:03:24.453Z</time></trkpt><trkpt lat="44.1502478" lon="11.9495035"><ele>250.79999999999998</ele><time>2026-04-25T13:03:25.449Z</time></trkpt><trkpt lat="44.1503259" lon="11.9494305"><ele>254.0</ele><time>2026-04-25T13:03:26.447Z</time></trkpt><trkpt lat="44.1503841" lon="11.9493505"><ele>254.0</ele><time>2026-04-25T13:03:27.449Z</time></trkpt><trkpt lat="44.1504289" lon="11.9492731"><ele>254.0</ele><time>2026-04-25T13:03:28.46Z</time></trkpt><trkpt lat="44.150477" lon="11.9491902"><ele>254.0</ele><time>2026-04-25T13:03:29.45Z</time></trkpt><trkpt lat="44.1505118" lon="11.9491041"><ele>254.0</ele><time>2026-04-25T13:03:30.479Z</time></trkpt><trkpt lat="44.1505504" lon="11.9490214"><ele>254.0</ele><time>2026-04-25T13:03:31.448Z</time></trkpt><trkpt lat="44.1505843" lon="11.9489295"><ele>254.0</ele><time>2026-04-25T13:03:32.463Z</time></trkpt><trkpt lat="44.1506082" lon="11.9488385"><ele>254.0</ele><time>2026-04-25T13:03:33.439Z</time></trkpt><trkpt lat="44.1506162" lon="11.9487483"><ele>255.83333333333334</ele><time>2026-04-25T13:03:34.45Z</time></trkpt><trkpt lat="44.1506136" lon="11.9486548"><ele>257.6666666666667</ele><time>2026-04-25T13:03:35.463Z</time></trkpt><trkpt lat="44.1505982" lon="11.9485443"><ele>259.5</ele><time>2026-04-25T13:03:36.456Z</time></trkpt><trkpt lat="44.1505726" lon="11.9484268"><ele>261.3333333333333</ele><time>2026-04-25T13:03:37.441Z</time></trkpt><trkpt lat="44.1505452" lon="11.948312"><ele>263.16666666666663</ele><time>2026-04-25T13:03:38.444Z</time></trkpt><trkpt lat="44.1505184" lon="11.9482136"><ele>265.0</ele><time>2026-04-25T13:03:39.45Z</time></trkpt><trkpt lat="44.1505017" lon="11.9481056"><ele>267.5</ele><time>2026-04-25T13:03:40.459Z</time></trkpt><trkpt lat="44.1504972" lon="11.9479844"><ele>270.0</ele><time>2026-04-25T13:03:41.446Z</time></trkpt><trkpt lat="44.1505018" lon="11.9478559"><ele>272.5</ele><time>2026-04-25T13:03:42.449Z</time></trkpt><trkpt lat="44.1505014" lon="11.9477531"><ele>275.0</ele><time>2026-04-25T13:03:43.44Z</time></trkpt><trkpt lat="44.1505007" lon="11.9476418"><ele>277.5</ele><time>2026-04-25T13:03:45.441Z</time></trkpt><trkpt lat="44.1505462" lon="11.9475599"><ele>280.0</ele><time>2026-04-25T13:03:57.433Z</time></trkpt><trkpt lat="44.1506532" lon="11.9475224"><ele>280.5</ele><time>2026-04-25T13:03:59.464Z</time></trkpt><trkpt lat="44.1507278" lon="11.9475043"><ele>281.0</ele><time>2026-04-25T13:04:00.46Z</time></trkpt><trkpt lat="44.150806" lon="11.9474794"><ele>281.5</ele><time>2026-04-25T13:04:01.451Z</time></trkpt><trkpt lat="44.1508893" lon="11.9474515"><ele>282.0</ele><time>2026-04-25T13:04:02.456Z</time></trkpt><trkpt lat="44.1509745" lon="11.9474186"><ele>282.5</ele><time>2026-04-25T13:04:03.448Z</time></trkpt><trkpt lat="44.1510549" lon="11.9473708"><ele>283.0</ele><time>2026-04-25T13:04:04.453Z</time></trkpt><trkpt lat="44.1511997" lon="11.9472418"><ele>283.0</ele><time>2026-04-25T13:04:06.456Z</time></trkpt><trkpt lat="44.1512552" lon="11.947189"><ele>283.0</ele><time>2026-04-25T13:04:07.469Z</time></trkpt><trkpt lat="44.1513255" lon="11.947057"><ele>283.0</ele><time>2026-04-25T13:04:09.446Z</time></trkpt><trkpt lat="44.1513944" lon="11.946981"><ele>283.0</ele><time>2026-04-25T13:04:11.441Z</time></trkpt><trkpt lat="44.151457" lon="11.9469933"><ele>283.0</ele><time>2026-04-25T13:04:12.435Z</time></trkpt><trkpt lat="44.1515237" lon="11.9470278"><ele>283.0</ele><time>2026-04-25T13:04:13.438Z</time></trkpt><trkpt lat="44.1515996" lon="11.9470698"><ele>279.8</ele><time>2026-04-25T13:04:14.434Z</time></trkpt><trkpt lat="44.1516807" lon="11.9471091"><ele>276.6</ele><time>2026-04-25T13:04:15.461Z</time></trkpt><trkpt lat="44.1517589" lon="11.9471412"><ele>273.4</ele><time>2026-04-25T13:04:16.456Z</time></trkpt><trkpt lat="44.1518511" lon="11.9471861"><ele>270.2</ele><time>2026-04-25T13:04:17.445Z</time></trkpt><trkpt lat="44.1519503" lon="11.9472282"><ele>267.0</ele><time>2026-04-25T13:04:18.45Z</time></trkpt><trkpt lat="44.1520632" lon="11.9472868"><ele>267.0</ele><time>2026-04-25T13:04:19.451Z</time></trkpt><trkpt lat="44.1521838" lon="11.9473402"><ele>267.0</ele><time>2026-04-25T13:04:20.441Z</time></trkpt><trkpt lat="44.152289" lon="11.9473897"><ele>267.0</ele><time>2026-04-25T13:04:21.441Z</time></trkpt><trkpt lat="44.1523957" lon="11.9474268"><ele>267.0</ele><time>2026-04-25T13:04:22.443Z</time></trkpt><trkpt lat="44.1524932" lon="11.9474542"><ele>267.0</ele><time>2026-04-25T13:04:23.47Z</time></trkpt><trkpt lat="44.1525851" lon="11.9474713"><ele>265.5</ele><time>2026-04-25T13:04:24.454Z</time></trkpt><trkpt lat="44.1526784" lon="11.9474832"><ele>264.0</ele><time>2026-04-25T13:04:25.445Z</time></trkpt><trkpt lat="44.1527915" lon="11.947495"><ele>262.5</ele><time>2026-04-25T13:04:26.452Z</time></trkpt><trkpt lat="44.1529173" lon="11.9475159"><ele>261.0</ele><time>2026-04-25T13:04:27.446Z</time></trkpt><trkpt lat="44.1530375" lon="11.9475558"><ele>257.75</ele><time>2026-04-25T13:04:28.44Z</time></trkpt><trkpt lat="44.1531525" lon="11.947612"><ele>254.5</ele><time>2026-04-25T13:04:29.448Z</time></trkpt><trkpt lat="44.1532636" lon="11.9476807"><ele>251.25</ele><time>2026-04-25T13:04:30.461Z</time></trkpt><trkpt lat="44.1533901" lon="11.9477555"><ele>248.0</ele><time>2026-04-25T13:04:31.448Z</time></trkpt><trkpt lat="44.1535266" lon="11.9478328"><ele>248.0</ele><time>2026-04-25T13:04:32.439Z</time></trkpt><trkpt lat="44.1536415" lon="11.9478939"><ele>248.0</ele><time>2026-04-25T13:04:33.454Z</time></trkpt><trkpt lat="44.1537615" lon="11.9479507"><ele>248.0</ele><time>2026-04-25T13:04:34.449Z</time></trkpt><trkpt lat="44.1538799" lon="11.9480051"><ele>248.0</ele><time>2026-04-25T13:04:35.451Z</time></trkpt><trkpt lat="44.1539963" lon="11.9480566"><ele>250.25</ele><time>2026-04-25T13:04:36.453Z</time></trkpt><trkpt lat="44.1541027" lon="11.9481139"><ele>252.5</ele><time>2026-04-25T13:04:37.457Z</time></trkpt><trkpt lat="44.1542133" lon="11.9481736"><ele>254.75</ele><time>2026-04-25T13:04:38.45Z</time></trkpt><trkpt lat="44.1543202" lon="11.9482542"><ele>257.0</ele><time>2026-04-25T13:04:39.445Z</time></trkpt><trkpt lat="44.154416" lon="11.9483326"><ele>255.16666666666669</ele><time>2026-04-25T13:04:40.449Z</time></trkpt><trkpt lat="44.1544927" lon="11.9484006"><ele>253.33333333333334</ele><time>2026-04-25T13:04:41.446Z</time></trkpt><trkpt lat="44.1545638" lon="11.9484623"><ele>251.5</ele><time>2026-04-25T13:04:42.461Z</time></trkpt><trkpt lat="44.1546233" lon="11.948505"><ele>249.66666666666669</ele><time>2026-04-25T13:04:43.445Z</time></trkpt><trkpt lat="44.154681" lon="11.9485424"><ele>247.83333333333334</ele><time>2026-04-25T13:04:44.447Z</time></trkpt><trkpt lat="44.1547473" lon="11.9485908"><ele>246.0</ele><time>2026-04-25T13:04:45.45Z</time></trkpt><trkpt lat="44.1548334" lon="11.9486471"><ele>246.8</ele><time>2026-04-25T13:04:46.45Z</time></trkpt><trkpt lat="44.1549068" lon="11.9487229"><ele>247.60000000000002</ele><time>2026-04-25T13:04:47.453Z</time></trkpt><trkpt lat="44.1549638" lon="11.9488413"><ele>248.4</ele><time>2026-04-25T13:04:48.444Z</time></trkpt><trkpt lat="44.1550136" lon="11.9489734"><ele>249.2</ele><time>2026-04-25T13:04:49.449Z</time></trkpt><trkpt lat="44.1550555" lon="11.9491392"><ele>250.0</ele><time>2026-04-25T13:04:50.454Z</time></trkpt><trkpt lat="44.1550891" lon="11.9493409"><ele>250.0</ele><time>2026-04-25T13:04:51.441Z</time></trkpt><trkpt lat="44.155131" lon="11.9495488"><ele>250.0</ele><time>2026-04-25T13:04:52.441Z</time></trkpt><trkpt lat="44.155179" lon="11.9497674"><ele>250.0</ele><time>2026-04-25T13:04:53.442Z</time></trkpt><trkpt lat="44.15522" lon="11.949983"><ele>248.0</ele><time>2026-04-25T13:04:54.453Z</time></trkpt><trkpt lat="44.1552718" lon="11.9501807"><ele>246.0</ele><time>2026-04-25T13:04:55.439Z</time></trkpt><trkpt lat="44.155318" lon="11.950359"><ele>244.0</ele><time>2026-04-25T13:04:56.448Z</time></trkpt><trkpt lat="44.1553547" lon="11.9505196"><ele>242.0</ele><time>2026-04-25T13:04:57.444Z</time></trkpt><trkpt lat="44.1553892" lon="11.9506821"><ele>242.0</ele><time>2026-04-25T13:04:58.438Z</time></trkpt><trkpt lat="44.1554232" lon="11.9508548"><ele>242.0</ele><time>2026-04-25T13:04:59.439Z</time></trkpt><trkpt lat="44.1554759" lon="11.9510293"><ele>242.0</ele><time>2026-04-25T13:05:00.436Z</time></trkpt><trkpt lat="44.1555427" lon="11.9511682"><ele>242.0</ele><time>2026-04-25T13:05:01.448Z</time></trkpt><trkpt lat="44.1556122" lon="11.9513029"><ele>241.0</ele><time>2026-04-25T13:05:02.452Z</time></trkpt><trkpt lat="44.1556761" lon="11.9514559"><ele>240.0</ele><time>2026-04-25T13:05:03.436Z</time></trkpt><trkpt lat="44.1557153" lon="11.9516059"><ele>239.0</ele><time>2026-04-25T13:05:04.444Z</time></trkpt><trkpt lat="44.1557467" lon="11.951743"><ele>238.0</ele><time>2026-04-25T13:05:05.442Z</time></trkpt><trkpt lat="44.155788" lon="11.951853"><ele>237.0</ele><time>2026-04-25T13:05:06.435Z</time></trkpt><trkpt lat="44.155839" lon="11.9519509"><ele>241.0</ele><time>2026-04-25T13:05:07.438Z</time></trkpt><trkpt lat="44.1559009" lon="11.9520297"><ele>245.0</ele><time>2026-04-25T13:05:08.443Z</time></trkpt><trkpt lat="44.1559786" lon="11.9521058"><ele>249.0</ele><time>2026-04-25T13:05:09.461Z</time></trkpt><trkpt lat="44.156056" lon="11.952198"><ele>253.0</ele><time>2026-04-25T13:05:10.444Z</time></trkpt><trkpt lat="44.156117" lon="11.9522848"><ele>257.0</ele><time>2026-04-25T13:05:11.442Z</time></trkpt><trkpt lat="44.1561625" lon="11.9523848"><ele>257.0</ele><time>2026-04-25T13:05:12.447Z</time></trkpt><trkpt lat="44.1561949" lon="11.9525054"><ele>257.0</ele><time>2026-04-25T13:05:13.447Z</time></trkpt><trkpt lat="44.1562192" lon="11.9526306"><ele>257.0</ele><time>2026-04-25T13:05:14.444Z</time></trkpt><trkpt lat="44.1562266" lon="11.9527608"><ele>257.0</ele><time>2026-04-25T13:05:15.443Z</time></trkpt><trkpt lat="44.1562109" lon="11.9528957"><ele>257.0</ele><time>2026-04-25T13:05:16.441Z</time></trkpt><trkpt lat="44.1561756" lon="11.9530322"><ele>257.0</ele><time>2026-04-25T13:05:17.445Z</time></trkpt><trkpt lat="44.1561358" lon="11.9531591"><ele>257.0</ele><time>2026-04-25T13:05:18.455Z</time></trkpt><trkpt lat="44.1561014" lon="11.9532757"><ele>257.0</ele><time>2026-04-25T13:05:19.455Z</time></trkpt><trkpt lat="44.156076" lon="11.9533915"><ele>257.0</ele><time>2026-04-25T13:05:20.445Z</time></trkpt><trkpt lat="44.1560516" lon="11.9534944"><ele>257.0</ele><time>2026-04-25T13:05:21.444Z</time></trkpt><trkpt lat="44.1560283" lon="11.9535841"><ele>257.0</ele><time>2026-04-25T13:05:22.441Z</time></trkpt><trkpt lat="44.1560017" lon="11.9536785"><ele>257.0</ele><time>2026-04-25T13:05:23.443Z</time></trkpt><trkpt lat="44.1559819" lon="11.9537768"><ele>257.0</ele><time>2026-04-25T13:05:24.453Z</time></trkpt><trkpt lat="44.1559711" lon="11.9538727"><ele>257.0</ele><time>2026-04-25T13:05:25.439Z</time></trkpt><trkpt lat="44.1559661" lon="11.9539637"><ele>257.0</ele><time>2026-04-25T13:05:26.442Z</time></trkpt><trkpt lat="44.1559737" lon="11.9540528"><ele>257.0</ele><time>2026-04-25T13:05:27.461Z</time></trkpt><trkpt lat="44.1560033" lon="11.9541331"><ele>257.0</ele><time>2026-04-25T13:05:28.465Z</time></trkpt><trkpt lat="44.1561005" lon="11.9542551"><ele>254.16666666666669</ele><time>2026-04-25T13:05:30.468Z</time></trkpt><trkpt lat="44.1561541" lon="11.9543131"><ele>251.33333333333334</ele><time>2026-04-25T13:05:31.443Z</time></trkpt><trkpt lat="44.1562163" lon="11.954377"><ele>248.5</ele><time>2026-04-25T13:05:32.462Z</time></trkpt><trkpt lat="44.156281" lon="11.9544481"><ele>245.66666666666669</ele><time>2026-04-25T13:05:33.438Z</time></trkpt><trkpt lat="44.1563486" lon="11.9545189"><ele>242.83333333333334</ele><time>2026-04-25T13:05:34.456Z</time></trkpt><trkpt lat="44.1564181" lon="11.9545817"><ele>240.0</ele><time>2026-04-25T13:05:35.44Z</time></trkpt><trkpt lat="44.1564815" lon="11.9546441"><ele>239.16666666666666</ele><time>2026-04-25T13:05:36.455Z</time></trkpt><trkpt lat="44.1565414" lon="11.9547065"><ele>238.33333333333331</ele><time>2026-04-25T13:05:37.444Z</time></trkpt><trkpt lat="44.1565909" lon="11.9547738"><ele>237.5</ele><time>2026-04-25T13:05:38.448Z</time></trkpt><trkpt lat="44.1566525" lon="11.9549011"><ele>236.66666666666666</ele><time>2026-04-25T13:05:40.47Z</time></trkpt><trkpt lat="44.1567195" lon="11.9550221"><ele>235.83333333333331</ele><time>2026-04-25T13:05:42.449Z</time></trkpt><trkpt lat="44.1567592" lon="11.9551086"><ele>235.0</ele><time>2026-04-25T13:05:43.449Z</time></trkpt><trkpt lat="44.1568044" lon="11.9552089"><ele>235.0</ele><time>2026-04-25T13:05:44.444Z</time></trkpt><trkpt lat="44.1568616" lon="11.9553106"><ele>235.0</ele><time>2026-04-25T13:05:45.439Z</time></trkpt><trkpt lat="44.156931" lon="11.9554015"><ele>235.0</ele><time>2026-04-25T13:05:46.443Z</time></trkpt><trkpt lat="44.157027" lon="11.955496"><ele>235.0</ele><time>2026-04-25T13:05:47.453Z</time></trkpt><trkpt lat="44.1571467" lon="11.9556103"><ele>235.0</ele><time>2026-04-25T13:05:48.468Z</time></trkpt><trkpt lat="44.1572623" lon="11.9557241"><ele>235.0</ele><time>2026-04-25T13:05:49.463Z</time></trkpt><trkpt lat="44.1573842" lon="11.9558415"><ele>235.0</ele><time>2026-04-25T13:05:50.464Z</time></trkpt><trkpt lat="44.1574902" lon="11.9559534"><ele>235.0</ele><time>2026-04-25T13:05:51.456Z</time></trkpt><trkpt lat="44.1575641" lon="11.9560425"><ele>236.49999999999997</ele><time>2026-04-25T13:05:52.452Z</time></trkpt><trkpt lat="44.1576166" lon="11.9561125"><ele>238.0</ele><time>2026-04-25T13:05:53.487Z</time></trkpt><trkpt lat="44.1576674" lon="11.956199"><ele>239.5</ele><time>2026-04-25T13:05:54.457Z</time></trkpt><trkpt lat="44.1577186" lon="11.9563039"><ele>241.0</ele><time>2026-04-25T13:05:55.459Z</time></trkpt><trkpt lat="44.1577662" lon="11.9564088"><ele>242.49999999999997</ele><time>2026-04-25T13:05:56.454Z</time></trkpt><trkpt lat="44.157807" lon="11.9565171"><ele>244.0</ele><time>2026-04-25T13:05:57.452Z</time></trkpt><trkpt lat="44.157853" lon="11.9566391"><ele>244.83333333333331</ele><time>2026-04-25T13:05:58.447Z</time></trkpt><trkpt lat="44.1579085" lon="11.9567695"><ele>245.66666666666666</ele><time>2026-04-25T13:05:59.486Z</time></trkpt><trkpt lat="44.1579547" lon="11.9568751"><ele>246.5</ele><time>2026-04-25T13:06:00.453Z</time></trkpt><trkpt lat="44.157989" lon="11.9569813"><ele>247.33333333333331</ele><time>2026-04-25T13:06:01.457Z</time></trkpt><trkpt lat="44.1580196" lon="11.9570755"><ele>248.16666666666666</ele><time>2026-04-25T13:06:02.448Z</time></trkpt><trkpt lat="44.1580463" lon="11.9571845"><ele>249.0</ele><time>2026-04-25T13:06:03.452Z</time></trkpt><trkpt lat="44.1580728" lon="11.957288"><ele>249.0</ele><time>2026-04-25T13:06:04.446Z</time></trkpt><trkpt lat="44.1580931" lon="11.9573905"><ele>249.0</ele><time>2026-04-25T13:06:05.441Z</time></trkpt><trkpt lat="44.1581033" lon="11.9574826"><ele>249.0</ele><time>2026-04-25T13:06:06.444Z</time></trkpt><trkpt lat="44.1580663" lon="11.9576552"><ele>249.0</ele><time>2026-04-25T13:06:08.448Z</time></trkpt><trkpt lat="44.1580181" lon="11.9577325"><ele>249.0</ele><time>2026-04-25T13:06:09.453Z</time></trkpt><trkpt lat="44.1579589" lon="11.9578145"><ele>249.0</ele><time>2026-04-25T13:06:10.452Z</time></trkpt><trkpt lat="44.157888" lon="11.9578914"><ele>249.5</ele><time>2026-04-25T13:06:11.446Z</time></trkpt><trkpt lat="44.1578093" lon="11.9579462"><ele>250.0</ele><time>2026-04-25T13:06:12.447Z</time></trkpt><trkpt lat="44.157727" lon="11.9579912"><ele>250.5</ele><time>2026-04-25T13:06:13.452Z</time></trkpt><trkpt lat="44.1576614" lon="11.9580411"><ele>251.0</ele><time>2026-04-25T13:06:14.453Z</time></trkpt><trkpt lat="44.1575937" lon="11.9580952"><ele>251.5</ele><time>2026-04-25T13:06:15.445Z</time></trkpt><trkpt lat="44.1575398" lon="11.9581717"><ele>252.0</ele><time>2026-04-25T13:06:16.433Z</time></trkpt><trkpt lat="44.1574992" lon="11.9582698"><ele>250.8</ele><time>2026-04-25T13:06:17.443Z</time></trkpt><trkpt lat="44.1574724" lon="11.9583951"><ele>249.6</ele><time>2026-04-25T13:06:18.454Z</time></trkpt><trkpt lat="44.1574691" lon="11.9585245"><ele>248.40000000000003</ele><time>2026-04-25T13:06:19.453Z</time></trkpt><trkpt lat="44.1574638" lon="11.9586596"><ele>247.20000000000002</ele><time>2026-04-25T13:06:20.459Z</time></trkpt><trkpt lat="44.1574482" lon="11.9588064"><ele>246.0</ele><time>2026-04-25T13:06:21.455Z</time></trkpt><trkpt lat="44.1574287" lon="11.9589466"><ele>246.0</ele><time>2026-04-25T13:06:22.442Z</time></trkpt><trkpt lat="44.1574085" lon="11.9590695"><ele>246.00000000000003</ele><time>2026-04-25T13:06:23.435Z</time></trkpt><trkpt lat="44.1573982" lon="11.9591804"><ele>246.00000000000003</ele><time>2026-04-25T13:06:24.455Z</time></trkpt><trkpt lat="44.1574075" lon="11.9592735"><ele>246.0</ele><time>2026-04-25T13:06:25.446Z</time></trkpt><trkpt lat="44.157469" lon="11.9594206"><ele>246.0</ele><time>2026-04-25T13:06:27.439Z</time></trkpt><trkpt lat="44.1575878" lon="11.9594355"><ele>246.0</ele><time>2026-04-25T13:06:29.44Z</time></trkpt><trkpt lat="44.1576509" lon="11.9594092"><ele>246.00000000000003</ele><time>2026-04-25T13:06:30.47Z</time></trkpt><trkpt lat="44.1577174" lon="11.9593559"><ele>246.00000000000003</ele><time>2026-04-25T13:06:31.45Z</time></trkpt><trkpt lat="44.1577996" lon="11.9592602"><ele>246.0</ele><time>2026-04-25T13:06:32.441Z</time></trkpt><trkpt lat="44.157889" lon="11.9591264"><ele>246.0</ele><time>2026-04-25T13:06:33.444Z</time></trkpt><trkpt lat="44.1579945" lon="11.9589662"><ele>246.0</ele><time>2026-04-25T13:06:34.452Z</time></trkpt><trkpt lat="44.1581108" lon="11.9587898"><ele>246.0</ele><time>2026-04-25T13:06:35.447Z</time></trkpt><trkpt lat="44.1582106" lon="11.9586483"><ele>246.0</ele><time>2026-04-25T13:06:36.445Z</time></trkpt><trkpt lat="44.1583029" lon="11.9585369"><ele>246.0</ele><time>2026-04-25T13:06:37.444Z</time></trkpt><trkpt lat="44.1584018" lon="11.9584249"><ele>246.20000000000002</ele><time>2026-04-25T13:06:38.453Z</time></trkpt><trkpt lat="44.1584971" lon="11.9583174"><ele>246.40000000000003</ele><time>2026-04-25T13:06:39.442Z</time></trkpt><trkpt lat="44.1585678" lon="11.9582024"><ele>246.6</ele><time>2026-04-25T13:06:40.444Z</time></trkpt><trkpt lat="44.1586384" lon="11.9580901"><ele>246.8</ele><time>2026-04-25T13:06:41.434Z</time></trkpt><trkpt lat="44.1586996" lon="11.9579616"><ele>247.0</ele><time>2026-04-25T13:06:42.442Z</time></trkpt><trkpt lat="44.1587812" lon="11.9578368"><ele>247.0</ele><time>2026-04-25T13:06:43.433Z</time></trkpt><trkpt lat="44.1588868" lon="11.9577264"><ele>247.0</ele><time>2026-04-25T13:06:44.442Z</time></trkpt><trkpt lat="44.1589928" lon="11.9576344"><ele>247.0</ele><time>2026-04-25T13:06:45.438Z</time></trkpt><trkpt lat="44.1591164" lon="11.9575542"><ele>247.0</ele><time>2026-04-25T13:06:46.443Z</time></trkpt><trkpt lat="44.1592499" lon="11.9574537"><ele>242.33333333333331</ele><time>2026-04-25T13:06:47.436Z</time></trkpt><trkpt lat="44.1593798" lon="11.9573498"><ele>237.66666666666669</ele><time>2026-04-25T13:06:48.451Z</time></trkpt><trkpt lat="44.1595052" lon="11.9572312"><ele>233.0</ele><time>2026-04-25T13:06:49.446Z</time></trkpt><trkpt lat="44.159631" lon="11.9570995"><ele>233.0</ele><time>2026-04-25T13:06:50.441Z</time></trkpt><trkpt lat="44.1597503" lon="11.9569774"><ele>233.0</ele><time>2026-04-25T13:06:51.444Z</time></trkpt><trkpt lat="44.1598782" lon="11.9568653"><ele>233.0</ele><time>2026-04-25T13:06:52.453Z</time></trkpt><trkpt lat="44.1600167" lon="11.9567413"><ele>231.66666666666669</ele><time>2026-04-25T13:06:53.437Z</time></trkpt><trkpt lat="44.1601671" lon="11.9566075"><ele>230.33333333333331</ele><time>2026-04-25T13:06:54.444Z</time></trkpt><trkpt lat="44.1603183" lon="11.9564885"><ele>229.0</ele><time>2026-04-25T13:06:55.443Z</time></trkpt><trkpt lat="44.1604489" lon="11.9563783"><ele>229.0</ele><time>2026-04-25T13:06:56.446Z</time></trkpt><trkpt lat="44.1605769" lon="11.9562737"><ele>229.0</ele><time>2026-04-25T13:06:57.441Z</time></trkpt><trkpt lat="44.160693" lon="11.9561727"><ele>229.0</ele><time>2026-04-25T13:06:58.446Z</time></trkpt><trkpt lat="44.160799" lon="11.9560841"><ele>229.0</ele><time>2026-04-25T13:06:59.443Z</time></trkpt><trkpt lat="44.1608941" lon="11.9560038"><ele>225.79999999999998</ele><time>2026-04-25T13:07:00.448Z</time></trkpt><trkpt lat="44.1609916" lon="11.9559448"><ele>222.59999999999997</ele><time>2026-04-25T13:07:01.444Z</time></trkpt><trkpt lat="44.1610898" lon="11.9559069"><ele>219.4</ele><time>2026-04-25T13:07:02.438Z</time></trkpt><trkpt lat="44.1611889" lon="11.9559139"><ele>216.2</ele><time>2026-04-25T13:07:03.441Z</time></trkpt><trkpt lat="44.1613042" lon="11.9559411"><ele>213.0</ele><time>2026-04-25T13:07:04.468Z</time></trkpt><trkpt lat="44.161428" lon="11.9559914"><ele>211.25</ele><time>2026-04-25T13:07:05.45Z</time></trkpt><trkpt lat="44.1615537" lon="11.956039"><ele>209.5</ele><time>2026-04-25T13:07:06.437Z</time></trkpt><trkpt lat="44.1616783" lon="11.9560925"><ele>207.75</ele><time>2026-04-25T13:07:07.441Z</time></trkpt><trkpt lat="44.1618202" lon="11.956156"><ele>206.0</ele><time>2026-04-25T13:07:08.443Z</time></trkpt><trkpt lat="44.1619691" lon="11.9562243"><ele>206.0</ele><time>2026-04-25T13:07:09.455Z</time></trkpt><trkpt lat="44.1621145" lon="11.9562982"><ele>206.0</ele><time>2026-04-25T13:07:10.444Z</time></trkpt><trkpt lat="44.1622643" lon="11.9563653"><ele>206.0</ele><time>2026-04-25T13:07:11.45Z</time></trkpt><trkpt lat="44.1624107" lon="11.9564487"><ele>205.0</ele><time>2026-04-25T13:07:12.447Z</time></trkpt><trkpt lat="44.1625475" lon="11.9565408"><ele>204.0</ele><time>2026-04-25T13:07:13.455Z</time></trkpt><trkpt lat="44.1626904" lon="11.9566515"><ele>203.0</ele><time>2026-04-25T13:07:14.442Z</time></trkpt><trkpt lat="44.1628302" lon="11.9567779"><ele>203.25</ele><time>2026-04-25T13:07:15.45Z</time></trkpt><trkpt lat="44.1629601" lon="11.9569027"><ele>203.5</ele><time>2026-04-25T13:07:16.462Z</time></trkpt><trkpt lat="44.1630791" lon="11.9570104"><ele>203.75</ele><time>2026-04-25T13:07:17.444Z</time></trkpt><trkpt lat="44.1631808" lon="11.9571066"><ele>204.0</ele><time>2026-04-25T13:07:18.451Z</time></trkpt><trkpt lat="44.1632764" lon="11.9572011"><ele>204.0</ele><time>2026-04-25T13:07:19.445Z</time></trkpt><trkpt lat="44.163358" lon="11.9572846"><ele>204.0</ele><time>2026-04-25T13:07:20.444Z</time></trkpt><trkpt lat="44.1634235" lon="11.9573673"><ele>204.0</ele><time>2026-04-25T13:07:21.444Z</time></trkpt><trkpt lat="44.1634702" lon="11.9574538"><ele>204.0</ele><time>2026-04-25T13:07:22.447Z</time></trkpt><trkpt lat="44.1635104" lon="11.9575373"><ele>204.0</ele><time>2026-04-25T13:07:23.457Z</time></trkpt><trkpt lat="44.1635674" lon="11.9576705"><ele>203.83333333333334</ele><time>2026-04-25T13:07:25.453Z</time></trkpt><trkpt lat="44.1636094" lon="11.9577804"><ele>203.66666666666669</ele><time>2026-04-25T13:07:27.439Z</time></trkpt><trkpt lat="44.1636343" lon="11.9578629"><ele>203.5</ele><time>2026-04-25T13:07:29.447Z</time></trkpt><trkpt lat="44.1636772" lon="11.9579691"><ele>203.33333333333334</ele><time>2026-04-25T13:07:33.449Z</time></trkpt><trkpt lat="44.1637123" lon="11.958066"><ele>203.16666666666669</ele><time>2026-04-25T13:07:34.441Z</time></trkpt><trkpt lat="44.1637577" lon="11.9581788"><ele>203.0</ele><time>2026-04-25T13:07:35.45Z</time></trkpt><trkpt lat="44.1637963" lon="11.9582779"><ele>203.00000000000003</ele><time>2026-04-25T13:07:36.441Z</time></trkpt><trkpt lat="44.1638259" lon="11.9583659"><ele>203.0</ele><time>2026-04-25T13:07:37.458Z</time></trkpt><trkpt lat="44.1638663" lon="11.9584462"><ele>203.0</ele><time>2026-04-25T13:07:40.452Z</time></trkpt><trkpt lat="44.1638481" lon="11.9583431"><ele>203.0</ele><time>2026-04-25T13:07:44.434Z</time></trkpt><trkpt lat="44.16379" lon="11.9582501"><ele>203.00000000000003</ele><time>2026-04-25T13:07:46.439Z</time></trkpt><trkpt lat="44.1637427" lon="11.958139"><ele>203.0</ele><time>2026-04-25T13:07:49.44Z</time></trkpt><trkpt lat="44.1637111" lon="11.9580348"><ele>203.0</ele><time>2026-04-25T13:07:52.457Z</time></trkpt><trkpt lat="44.1636791" lon="11.9579495"><ele>203.0</ele><time>2026-04-25T13:07:55.446Z</time></trkpt><trkpt lat="44.1636355" lon="11.957836"><ele>203.0</ele><time>2026-04-25T13:07:59.449Z</time></trkpt><trkpt lat="44.1635897" lon="11.9577335"><ele>203.0</ele><time>2026-04-25T13:08:01.441Z</time></trkpt><trkpt lat="44.1635263" lon="11.957576"><ele>203.0</ele><time>2026-04-25T13:08:03.44Z</time></trkpt><trkpt lat="44.1634818" lon="11.9574735"><ele>203.2</ele><time>2026-04-25T13:08:04.444Z</time></trkpt><trkpt lat="44.1634347" lon="11.9573876"><ele>203.4</ele><time>2026-04-25T13:08:05.443Z</time></trkpt><trkpt lat="44.1633465" lon="11.9572805"><ele>203.6</ele><time>2026-04-25T13:08:07.45Z</time></trkpt><trkpt lat="44.1633356" lon="11.9571772"><ele>203.79999999999998</ele><time>2026-04-25T13:08:10.457Z</time></trkpt><trkpt lat="44.1634238" lon="11.9571671"><ele>204.0</ele><time>2026-04-25T13:08:12.443Z</time></trkpt><trkpt lat="44.1635371" lon="11.9571818"><ele>204.0</ele><time>2026-04-25T13:08:14.454Z</time></trkpt><trkpt lat="44.1636601" lon="11.9572285"><ele>204.0</ele><time>2026-04-25T13:08:16.438Z</time></trkpt><trkpt lat="44.1637658" lon="11.9572826"><ele>204.0</ele><time>2026-04-25T13:08:18.442Z</time></trkpt><trkpt lat="44.1638635" lon="11.9572997"><ele>204.0</ele><time>2026-04-25T13:08:20.445Z</time></trkpt><trkpt lat="44.1639757" lon="11.9572476"><ele>201.2</ele><time>2026-04-25T13:08:22.438Z</time></trkpt><trkpt lat="44.1640795" lon="11.9571762"><ele>198.39999999999998</ele><time>2026-04-25T13:08:24.443Z</time></trkpt><trkpt lat="44.164186" lon="11.9570919"><ele>195.6</ele><time>2026-04-25T13:08:26.437Z</time></trkpt><trkpt lat="44.1642842" lon="11.9570137"><ele>192.8</ele><time>2026-04-25T13:08:28.439Z</time></trkpt><trkpt lat="44.1643348" lon="11.9569517"><ele>190.0</ele><time>2026-04-25T13:08:29.445Z</time></trkpt><trkpt lat="44.1643931" lon="11.9568055"><ele>190.0</ele><time>2026-04-25T13:08:31.449Z</time></trkpt><trkpt lat="44.1644045" lon="11.9567151"><ele>190.0</ele><time>2026-04-25T13:08:32.445Z</time></trkpt><trkpt lat="44.1644142" lon="11.9566274"><ele>190.0</ele><time>2026-04-25T13:08:33.44Z</time></trkpt><trkpt lat="44.1644422" lon="11.9564758"><ele>190.0</ele><time>2026-04-25T13:08:35.445Z</time></trkpt><trkpt lat="44.1644766" lon="11.9563299"><ele>190.0</ele><time>2026-04-25T13:08:37.451Z</time></trkpt><trkpt lat="44.1645088" lon="11.9562289"><ele>190.0</ele><time>2026-04-25T13:08:39.439Z</time></trkpt><trkpt lat="44.1645577" lon="11.9561735"><ele>188.0</ele><time>2026-04-25T13:08:41.441Z</time></trkpt><trkpt lat="44.1646279" lon="11.9561266"><ele>186.0</ele><time>2026-04-25T13:08:45.441Z</time></trkpt><trkpt lat="44.1646999" lon="11.9560945"><ele>184.0</ele><time>2026-04-25T13:08:49.445Z</time></trkpt><trkpt lat="44.1647516" lon="11.9560304"><ele>182.0</ele><time>2026-04-25T13:08:54.433Z</time></trkpt><trkpt lat="44.1648164" lon="11.9559955"><ele>180.0</ele><time>2026-04-25T13:09:03.47Z</time></trkpt><trkpt lat="44.164912" lon="11.9559778"><ele>178.0</ele><time>2026-04-25T13:09:06.446Z</time></trkpt><trkpt lat="44.1649774" lon="11.9559629"><ele>176.57142857142856</ele><time>2026-04-25T13:09:09.456Z</time></trkpt><trkpt lat="44.1650401" lon="11.9559367"><ele>175.14285714285714</ele><time>2026-04-25T13:09:27.459Z</time></trkpt><trkpt lat="44.1651268" lon="11.9558826"><ele>173.71428571428572</ele><time>2026-04-25T13:09:30.453Z</time></trkpt><trkpt lat="44.165208" lon="11.9558251"><ele>172.28571428571428</ele><time>2026-04-25T13:09:32.452Z</time></trkpt><trkpt lat="44.165261" lon="11.9557724"><ele>170.85714285714286</ele><time>2026-04-25T13:09:34.441Z</time></trkpt><trkpt lat="44.1653151" lon="11.955717"><ele>169.42857142857142</ele><time>2026-04-25T13:09:36.455Z</time></trkpt><trkpt lat="44.1653651" lon="11.9556606"><ele>168.0</ele><time>2026-04-25T13:09:38.451Z</time></trkpt><trkpt lat="44.1654375" lon="11.9556067"><ele>166.33333333333334</ele><time>2026-04-25T13:09:40.456Z</time></trkpt><trkpt lat="44.1654946" lon="11.9555413"><ele>164.66666666666666</ele><time>2026-04-25T13:09:42.451Z</time></trkpt><trkpt lat="44.1655614" lon="11.9554831"><ele>163.0</ele><time>2026-04-25T13:09:44.46Z</time></trkpt><trkpt lat="44.1656246" lon="11.9554112"><ele>161.33333333333331</ele><time>2026-04-25T13:09:46.446Z</time></trkpt><trkpt lat="44.1656865" lon="11.9553486"><ele>159.66666666666666</ele><time>2026-04-25T13:09:48.454Z</time></trkpt><trkpt lat="44.1657542" lon="11.9552768"><ele>158.0</ele><time>2026-04-25T13:09:50.448Z</time></trkpt><trkpt lat="44.1658227" lon="11.9551791"><ele>155.4</ele><time>2026-04-25T13:09:52.454Z</time></trkpt><trkpt lat="44.1658906" lon="11.9550719"><ele>152.8</ele><time>2026-04-25T13:09:54.438Z</time></trkpt><trkpt lat="44.1659549" lon="11.9549685"><ele>150.2</ele><time>2026-04-25T13:09:56.448Z</time></trkpt><trkpt lat="44.1660174" lon="11.9548621"><ele>147.6</ele><time>2026-04-25T13:09:58.442Z</time></trkpt><trkpt lat="44.1660759" lon="11.9547693"><ele>145.0</ele><time>2026-04-25T13:10:00.443Z</time></trkpt><trkpt lat="44.1661311" lon="11.9546845"><ele>142.66666666666669</ele><time>2026-04-25T13:10:02.447Z</time></trkpt><trkpt lat="44.1661805" lon="11.9545871"><ele>140.33333333333334</ele><time>2026-04-25T13:10:04.436Z</time></trkpt><trkpt lat="44.1662124" lon="11.9545045"><ele>138.0</ele><time>2026-04-25T13:10:06.45Z</time></trkpt><trkpt lat="44.1662584" lon="11.9544353"><ele>135.66666666666666</ele><time>2026-04-25T13:10:08.46Z</time></trkpt><trkpt lat="44.1663171" lon="11.9543607"><ele>133.33333333333331</ele><time>2026-04-25T13:10:11.453Z</time></trkpt><trkpt lat="44.1663752" lon="11.9542835"><ele>131.0</ele><time>2026-04-25T13:10:17.457Z</time></trkpt><trkpt lat="44.1664519" lon="11.9542128"><ele>129.16666666666666</ele><time>2026-04-25T13:10:20.454Z</time></trkpt><trkpt lat="44.1665012" lon="11.9541552"><ele>127.33333333333333</ele><time>2026-04-25T13:10:22.456Z</time></trkpt><trkpt lat="44.1665656" lon="11.9540813"><ele>125.5</ele><time>2026-04-25T13:10:25.462Z</time></trkpt><trkpt lat="44.1666159" lon="11.9540212"><ele>123.66666666666666</ele><time>2026-04-25T13:10:29.459Z</time></trkpt><trkpt lat="44.1666753" lon="11.9539383"><ele>121.83333333333333</ele><time>2026-04-25T13:10:33.445Z</time></trkpt><trkpt lat="44.1667335" lon="11.9538537"><ele>120.0</ele><time>2026-04-25T13:10:36.456Z</time></trkpt><trkpt lat="44.1667896" lon="11.9537773"><ele>119.0</ele><time>2026-04-25T13:10:39.445Z</time></trkpt><trkpt lat="44.1668395" lon="11.9537012"><ele>118.0</ele><time>2026-04-25T13:10:42.456Z</time></trkpt><trkpt lat="44.1668952" lon="11.9536127"><ele>117.0</ele><time>2026-04-25T13:10:45.445Z</time></trkpt><trkpt lat="44.1669373" lon="11.9535431"><ele>116.0</ele><time>2026-04-25T13:10:47.437Z</time></trkpt><trkpt lat="44.1669795" lon="11.9534732"><ele>115.0</ele><time>2026-04-25T13:10:51.443Z</time></trkpt><trkpt lat="44.1670164" lon="11.9533993"><ele>114.0</ele><time>2026-04-25T13:10:57.453Z</time></trkpt><trkpt lat="44.167063" lon="11.9532932"><ele>113.0</ele><time>2026-04-25T13:11:01.449Z</time></trkpt><trkpt lat="44.1671042" lon="11.9532004"><ele>111.66666666666666</ele><time>2026-04-25T13:11:04.453Z</time></trkpt><trkpt lat="44.1670873" lon="11.9531088"><ele>110.33333333333333</ele><time>2026-04-25T13:11:07.452Z</time></trkpt><trkpt lat="44.1670462" lon="11.953031"><ele>109.0</ele><time>2026-04-25T13:11:09.444Z</time></trkpt><trkpt lat="44.1670072" lon="11.9529444"><ele>107.66666666666666</ele><time>2026-04-25T13:11:11.461Z</time></trkpt><trkpt lat="44.1669694" lon="11.9528657"><ele>106.33333333333333</ele><time>2026-04-25T13:11:13.462Z</time></trkpt><trkpt lat="44.1669379" lon="11.9527709"><ele>105.0</ele><time>2026-04-25T13:11:15.459Z</time></trkpt><trkpt lat="44.1668817" lon="11.9526433"><ele>105.0</ele><time>2026-04-25T13:11:18.453Z</time></trkpt><trkpt lat="44.1668412" lon="11.952568"><ele>105.0</ele><time>2026-04-25T13:11:19.444Z</time></trkpt><trkpt lat="44.1667743" lon="11.9524538"><ele>105.0</ele><time>2026-04-25T13:11:21.458Z</time></trkpt><trkpt lat="44.1667459" lon="11.9523673"><ele>105.0</ele><time>2026-04-25T13:11:23.453Z</time></trkpt><trkpt lat="44.166717" lon="11.952283"><ele>105.0</ele><time>2026-04-25T13:11:25.462Z</time></trkpt><trkpt lat="44.1666881" lon="11.9522035"><ele>105.0</ele><time>2026-04-25T13:11:27.443Z</time></trkpt><trkpt lat="44.1666773" lon="11.9521158"><ele>105.0</ele><time>2026-04-25T13:11:31.436Z</time></trkpt><trkpt lat="44.1666455" lon="11.9520224"><ele>105.0</ele><time>2026-04-25T13:11:42.441Z</time></trkpt><trkpt lat="44.1665596" lon="11.9519344"><ele>105.0</ele><time>2026-04-25T13:11:44.44Z</time></trkpt><trkpt lat="44.1664985" lon="11.9518924"><ele>105.0</ele><time>2026-04-25T13:11:45.444Z</time></trkpt><trkpt lat="44.1664225" lon="11.951864"><ele>105.0</ele><time>2026-04-25T13:11:46.464Z</time></trkpt><trkpt lat="44.1663315" lon="11.9518389"><ele>105.0</ele><time>2026-04-25T13:11:47.444Z</time></trkpt><trkpt lat="44.1662434" lon="11.9517869"><ele>105.0</ele><time>2026-04-25T13:11:48.439Z</time></trkpt><trkpt lat="44.1661605" lon="11.9517344"><ele>103.0</ele><time>2026-04-25T13:11:49.445Z</time></trkpt><trkpt lat="44.1660744" lon="11.9516679"><ele>101.0</ele><time>2026-04-25T13:11:50.453Z</time></trkpt><trkpt lat="44.1659804" lon="11.9515857"><ele>99.0</ele><time>2026-04-25T13:11:51.444Z</time></trkpt><trkpt lat="44.1658877" lon="11.9514982"><ele>97.0</ele><time>2026-04-25T13:11:52.452Z</time></trkpt><trkpt lat="44.1657993" lon="11.9514162"><ele>95.0</ele><time>2026-04-25T13:11:53.437Z</time></trkpt><trkpt lat="44.1657213" lon="11.9513332"><ele>96.0</ele><time>2026-04-25T13:11:54.434Z</time></trkpt><trkpt lat="44.1656405" lon="11.9512631"><ele>97.0</ele><time>2026-04-25T13:11:55.452Z</time></trkpt><trkpt lat="44.1655622" lon="11.9511936"><ele>98.0</ele><time>2026-04-25T13:11:56.453Z</time></trkpt><trkpt lat="44.1654893" lon="11.9511268"><ele>99.0</ele><time>2026-04-25T13:11:57.438Z</time></trkpt><trkpt lat="44.1654145" lon="11.951062"><ele>99.99999999999999</ele><time>2026-04-25T13:11:58.443Z</time></trkpt><trkpt lat="44.1653455" lon="11.951012"><ele>101.0</ele><time>2026-04-25T13:11:59.447Z</time></trkpt><trkpt lat="44.1652759" lon="11.9509658"><ele>101.0</ele><time>2026-04-25T13:12:00.452Z</time></trkpt><trkpt lat="44.1652014" lon="11.9509624"><ele>101.0</ele><time>2026-04-25T13:12:01.444Z</time></trkpt><trkpt lat="44.1651113" lon="11.9509723"><ele>101.0</ele><time>2026-04-25T13:12:02.447Z</time></trkpt><trkpt lat="44.1650173" lon="11.9510068"><ele>101.0</ele><time>2026-04-25T13:12:03.431Z</time></trkpt><trkpt lat="44.1649173" lon="11.9510428"><ele>101.0</ele><time>2026-04-25T13:12:04.445Z</time></trkpt><trkpt lat="44.1648019" lon="11.9510781"><ele>102.6</ele><time>2026-04-25T13:12:05.458Z</time></trkpt><trkpt lat="44.1646796" lon="11.9511065"><ele>104.19999999999999</ele><time>2026-04-25T13:12:06.454Z</time></trkpt><trkpt lat="44.164562" lon="11.9511386"><ele>105.80000000000001</ele><time>2026-04-25T13:12:07.451Z</time></trkpt><trkpt lat="44.1644696" lon="11.9511653"><ele>107.4</ele><time>2026-04-25T13:12:08.458Z</time></trkpt><trkpt lat="44.164395" lon="11.9511769"><ele>109.0</ele><time>2026-04-25T13:12:09.447Z</time></trkpt><trkpt lat="44.1643095" lon="11.9511638"><ele>109.0</ele><time>2026-04-25T13:12:11.454Z</time></trkpt><trkpt lat="44.1642186" lon="11.9511926"><ele>109.0</ele><time>2026-04-25T13:12:14.456Z</time></trkpt><trkpt lat="44.1641425" lon="11.9512979"><ele>109.0</ele><time>2026-04-25T13:12:16.441Z</time></trkpt><trkpt lat="44.1640525" lon="11.9513695"><ele>109.0</ele><time>2026-04-25T13:12:18.454Z</time></trkpt><trkpt lat="44.1639593" lon="11.9514196"><ele>109.0</ele><time>2026-04-25T13:12:20.452Z</time></trkpt><trkpt lat="44.1638412" lon="11.9515023"><ele>109.83333333333334</ele><time>2026-04-25T13:12:22.462Z</time></trkpt><trkpt lat="44.1637774" lon="11.9515473"><ele>110.66666666666667</ele><time>2026-04-25T13:12:23.445Z</time></trkpt><trkpt lat="44.1637128" lon="11.9515977"><ele>111.5</ele><time>2026-04-25T13:12:24.444Z</time></trkpt><trkpt lat="44.1636553" lon="11.9516449"><ele>112.33333333333334</ele><time>2026-04-25T13:12:25.441Z</time></trkpt><trkpt lat="44.1635761" lon="11.9517403"><ele>113.16666666666667</ele><time>2026-04-25T13:12:27.442Z</time></trkpt><trkpt lat="44.1635081" lon="11.9517714"><ele>114.0</ele><time>2026-04-25T13:12:30.452Z</time></trkpt><trkpt lat="44.1634358" lon="11.9517546"><ele>114.0</ele><time>2026-04-25T13:12:32.438Z</time></trkpt><trkpt lat="44.1633741" lon="11.9516922"><ele>113.99999999999999</ele><time>2026-04-25T13:12:35.446Z</time></trkpt><trkpt lat="44.1633688" lon="11.9515962"><ele>114.0</ele><time>2026-04-25T13:12:37.446Z</time></trkpt><trkpt lat="44.1633841" lon="11.9515041"><ele>114.0</ele><time>2026-04-25T13:12:39.449Z</time></trkpt><trkpt lat="44.1634401" lon="11.9514553"><ele>113.99999999999999</ele><time>2026-04-25T13:12:42.449Z</time></trkpt><trkpt lat="44.1635109" lon="11.9514479"><ele>114.0</ele><time>2026-04-25T13:12:45.437Z</time></trkpt><trkpt lat="44.1635864" lon="11.9514972"><ele>114.0</ele><time>2026-04-25T13:12:49.467Z</time></trkpt><trkpt lat="44.1636462" lon="11.9515724"><ele>114.0</ele><time>2026-04-25T13:12:51.44Z</time></trkpt><trkpt lat="44.1636458" lon="11.9516893"><ele>114.0</ele><time>2026-04-25T13:12:53.457Z</time></trkpt><trkpt lat="44.1635789" lon="11.9517913"><ele>114.0</ele><time>2026-04-25T13:12:55.456Z</time></trkpt><trkpt lat="44.163475" lon="11.9517881"><ele>114.0</ele><time>2026-04-25T13:12:57.449Z</time></trkpt><trkpt lat="44.1634026" lon="11.9516869"><ele>114.0</ele><time>2026-04-25T13:12:59.445Z</time></trkpt><trkpt lat="44.1633721" lon="11.9516047"><ele>114.0</ele><time>2026-04-25T13:13:00.449Z</time></trkpt><trkpt lat="44.1633748" lon="11.95147"><ele>114.0</ele><time>2026-04-25T13:13:02.433Z</time></trkpt><trkpt lat="44.1634109" lon="11.9513977"><ele>114.0</ele><time>2026-04-25T13:13:05.459Z</time></trkpt><trkpt lat="44.1634313" lon="11.9513063"><ele>114.0</ele><time>2026-04-25T13:13:09.438Z</time></trkpt><trkpt lat="44.1634701" lon="11.9512217"><ele>114.0</ele><time>2026-04-25T13:13:13.444Z</time></trkpt><trkpt lat="44.1634202" lon="11.9513748"><ele>114.0</ele><time>2026-04-25T13:13:40.455Z</time></trkpt><trkpt lat="44.16343" lon="11.9514854"><ele>114.0</ele><time>2026-04-25T13:13:42.443Z</time></trkpt><trkpt lat="44.1635056" lon="11.9514887"><ele>114.0</ele><time>2026-04-25T13:13:46.45Z</time></trkpt><trkpt lat="44.1635781" lon="11.9514873"><ele>114.0</ele><time>2026-04-25T13:13:50.447Z</time></trkpt><trkpt lat="44.1636584" lon="11.9514921"><ele>114.0</ele><time>2026-04-25T13:13:53.447Z</time></trkpt><trkpt lat="44.1637492" lon="11.9514951"><ele>114.0</ele><time>2026-04-25T13:13:55.444Z</time></trkpt><trkpt lat="44.1638241" lon="11.9514738"><ele>114.0</ele><time>2026-04-25T13:13:56.452Z</time></trkpt><trkpt lat="44.1638889" lon="11.9514391"><ele>114.0</ele><time>2026-04-25T13:13:57.448Z</time></trkpt><trkpt lat="44.1639534" lon="11.9513952"><ele>114.0</ele><time>2026-04-25T13:13:58.448Z</time></trkpt><trkpt lat="44.1640147" lon="11.95135"><ele>114.0</ele><time>2026-04-25T13:13:59.454Z</time></trkpt><trkpt lat="44.1640712" lon="11.9513104"><ele>114.0</ele><time>2026-04-25T13:14:00.451Z</time></trkpt><trkpt lat="44.1641801" lon="11.9512517"><ele>114.0</ele><time>2026-04-25T13:14:02.446Z</time></trkpt><trkpt lat="44.1642879" lon="11.9511834"><ele>114.0</ele><time>2026-04-25T13:14:04.447Z</time></trkpt><trkpt lat="44.1644206" lon="11.9511578"><ele>113.16666666666667</ele><time>2026-04-25T13:14:06.455Z</time></trkpt><trkpt lat="44.1645022" lon="11.9511422"><ele>112.33333333333334</ele><time>2026-04-25T13:14:07.441Z</time></trkpt><trkpt lat="44.1645787" lon="11.9511267"><ele>111.5</ele><time>2026-04-25T13:14:08.446Z</time></trkpt><trkpt lat="44.1646565" lon="11.9511017"><ele>110.66666666666667</ele><time>2026-04-25T13:14:09.443Z</time></trkpt><trkpt lat="44.1647412" lon="11.9510767"><ele>109.83333333333334</ele><time>2026-04-25T13:14:10.448Z</time></trkpt><trkpt lat="44.1648324" lon="11.9510502"><ele>109.0</ele><time>2026-04-25T13:14:11.442Z</time></trkpt><trkpt lat="44.1649276" lon="11.9510233"><ele>107.66666666666667</ele><time>2026-04-25T13:14:12.444Z</time></trkpt><trkpt lat="44.1650144" lon="11.9509961"><ele>106.33333333333334</ele><time>2026-04-25T13:14:13.443Z</time></trkpt><trkpt lat="44.1650945" lon="11.9509718"><ele>105.0</ele><time>2026-04-25T13:14:14.452Z</time></trkpt><trkpt lat="44.1651699" lon="11.9509659"><ele>103.66666666666666</ele><time>2026-04-25T13:14:15.442Z</time></trkpt><trkpt lat="44.165233" lon="11.9509682"><ele>102.33333333333333</ele><time>2026-04-25T13:14:16.446Z</time></trkpt><trkpt lat="44.1652989" lon="11.950988"><ele>101.0</ele><time>2026-04-25T13:14:17.456Z</time></trkpt><trkpt lat="44.165374" lon="11.9510324"><ele>100.99999999999999</ele><time>2026-04-25T13:14:18.438Z</time></trkpt><trkpt lat="44.1654538" lon="11.951105"><ele>101.0</ele><time>2026-04-25T13:14:19.436Z</time></trkpt><trkpt lat="44.1655292" lon="11.951177"><ele>101.0</ele><time>2026-04-25T13:14:20.45Z</time></trkpt><trkpt lat="44.1656019" lon="11.9512381"><ele>101.0</ele><time>2026-04-25T13:14:21.441Z</time></trkpt><trkpt lat="44.1656741" lon="11.951302"><ele>100.99999999999999</ele><time>2026-04-25T13:14:22.446Z</time></trkpt><trkpt lat="44.1657448" lon="11.9513742"><ele>101.0</ele><time>2026-04-25T13:14:23.447Z</time></trkpt><trkpt lat="44.1658141" lon="11.9514518"><ele>101.66666666666666</ele><time>2026-04-25T13:14:24.453Z</time></trkpt><trkpt lat="44.165883" lon="11.9515294"><ele>102.33333333333333</ele><time>2026-04-25T13:14:25.449Z</time></trkpt><trkpt lat="44.1659523" lon="11.9516032"><ele>103.0</ele><time>2026-04-25T13:14:26.451Z</time></trkpt><trkpt lat="44.1660265" lon="11.9516696"><ele>103.66666666666666</ele><time>2026-04-25T13:14:27.447Z</time></trkpt><trkpt lat="44.1661031" lon="11.9517268"><ele>104.33333333333333</ele><time>2026-04-25T13:14:28.455Z</time></trkpt><trkpt lat="44.1661791" lon="11.951776"><ele>105.0</ele><time>2026-04-25T13:14:29.438Z</time></trkpt><trkpt lat="44.1662596" lon="11.9518075"><ele>105.0</ele><time>2026-04-25T13:14:30.442Z</time></trkpt><trkpt lat="44.1663414" lon="11.9518347"><ele>105.0</ele><time>2026-04-25T13:14:31.432Z</time></trkpt><trkpt lat="44.1664268" lon="11.9518587"><ele>105.0</ele><time>2026-04-25T13:14:32.443Z</time></trkpt><trkpt lat="44.166509" lon="11.9518965"><ele>105.0</ele><time>2026-04-25T13:14:33.448Z</time></trkpt><trkpt lat="44.1665888" lon="11.9519514"><ele>105.0</ele><time>2026-04-25T13:14:34.44Z</time></trkpt><trkpt lat="44.1666748" lon="11.952013"><ele>105.0</ele><time>2026-04-25T13:14:35.443Z</time></trkpt><trkpt lat="44.1667635" lon="11.9520628"><ele>103.66666666666667</ele><time>2026-04-25T13:14:36.437Z</time></trkpt><trkpt lat="44.1668585" lon="11.9520866"><ele>102.33333333333334</ele><time>2026-04-25T13:14:37.446Z</time></trkpt><trkpt lat="44.1669598" lon="11.9520986"><ele>101.0</ele><time>2026-04-25T13:14:38.454Z</time></trkpt><trkpt lat="44.1670451" lon="11.9521081"><ele>99.66666666666667</ele><time>2026-04-25T13:14:39.452Z</time></trkpt><trkpt lat="44.1671236" lon="11.9521353"><ele>98.33333333333334</ele><time>2026-04-25T13:14:40.452Z</time></trkpt><trkpt lat="44.1671904" lon="11.9521898"><ele>97.0</ele><time>2026-04-25T13:14:41.457Z</time></trkpt><trkpt lat="44.1672523" lon="11.9522337"><ele>97.00000000000001</ele><time>2026-04-25T13:14:42.444Z</time></trkpt><trkpt lat="44.1673174" lon="11.9522674"><ele>97.0</ele><time>2026-04-25T13:14:43.444Z</time></trkpt><trkpt lat="44.1673982" lon="11.9523049"><ele>97.0</ele><time>2026-04-25T13:14:44.442Z</time></trkpt><trkpt lat="44.1674825" lon="11.9523332"><ele>97.0</ele><time>2026-04-25T13:14:45.449Z</time></trkpt><trkpt lat="44.1675532" lon="11.9523679"><ele>97.00000000000001</ele><time>2026-04-25T13:14:46.44Z</time></trkpt><trkpt lat="44.1676132" lon="11.9524052"><ele>97.0</ele><time>2026-04-25T13:14:47.454Z</time></trkpt><trkpt lat="44.1676887" lon="11.9524637"><ele>96.14285714285714</ele><time>2026-04-25T13:14:49.448Z</time></trkpt><trkpt lat="44.167751" lon="11.9524258"><ele>95.28571428571429</ele><time>2026-04-25T13:14:53.446Z</time></trkpt><trkpt lat="44.1677891" lon="11.9523403"><ele>94.42857142857143</ele><time>2026-04-25T13:14:58.446Z</time></trkpt><trkpt lat="44.1678695" lon="11.9523249"><ele>93.57142857142857</ele><time>2026-04-25T13:15:02.439Z</time></trkpt><trkpt lat="44.1679178" lon="11.9522681"><ele>92.71428571428572</ele><time>2026-04-25T13:15:06.446Z</time></trkpt><trkpt lat="44.1678487" lon="11.9523329"><ele>91.85714285714286</ele><time>2026-04-25T13:15:14.455Z</time></trkpt><trkpt lat="44.1679259" lon="11.9523029"><ele>91.0</ele><time>2026-04-25T13:16:12.455Z</time></trkpt><trkpt lat="44.1679915" lon="11.9522391"><ele>91.0</ele><time>2026-04-25T13:16:13.448Z</time></trkpt><trkpt lat="44.1680644" lon="11.9521584"><ele>91.0</ele><time>2026-04-25T13:16:14.454Z</time></trkpt><trkpt lat="44.1681513" lon="11.952096"><ele>91.0</ele><time>2026-04-25T13:16:15.438Z</time></trkpt><trkpt lat="44.1682504" lon="11.9520209"><ele>91.0</ele><time>2026-04-25T13:16:16.451Z</time></trkpt><trkpt lat="44.1683487" lon="11.9519356"><ele>91.0</ele><time>2026-04-25T13:16:17.438Z</time></trkpt><trkpt lat="44.1684624" lon="11.951855"><ele>90.19999999999999</ele><time>2026-04-25T13:16:18.449Z</time></trkpt><trkpt lat="44.1685692" lon="11.9517785"><ele>89.39999999999999</ele><time>2026-04-25T13:16:19.442Z</time></trkpt><trkpt lat="44.1686626" lon="11.9517098"><ele>88.6</ele><time>2026-04-25T13:16:20.471Z</time></trkpt><trkpt lat="44.168741" lon="11.9516493"><ele>87.8</ele><time>2026-04-25T13:16:21.448Z</time></trkpt><trkpt lat="44.1688117" lon="11.9515918"><ele>87.0</ele><time>2026-04-25T13:16:22.438Z</time></trkpt><trkpt lat="44.1688743" lon="11.951548"><ele>86.5</ele><time>2026-04-25T13:16:23.444Z</time></trkpt><trkpt lat="44.1689707" lon="11.9514698"><ele>86.0</ele><time>2026-04-25T13:16:25.441Z</time></trkpt><trkpt lat="44.1690312" lon="11.9514169"><ele>85.5</ele><time>2026-04-25T13:16:27.446Z</time></trkpt><trkpt lat="44.1690551" lon="11.9512979"><ele>85.0</ele><time>2026-04-25T13:16:30.439Z</time></trkpt><trkpt lat="44.1690223" lon="11.9512004"><ele>84.5</ele><time>2026-04-25T13:16:32.435Z</time></trkpt><trkpt lat="44.1689853" lon="11.9510705"><ele>84.0</ele><time>2026-04-25T13:16:34.442Z</time></trkpt><trkpt lat="44.1689414" lon="11.9509643"><ele>84.0</ele><time>2026-04-25T13:16:36.456Z</time></trkpt><trkpt lat="44.1688834" lon="11.9509026"><ele>84.0</ele><time>2026-04-25T13:16:38.434Z</time></trkpt><trkpt lat="44.1688259" lon="11.9508485"><ele>84.0</ele><time>2026-04-25T13:16:40.445Z</time></trkpt><trkpt lat="44.1688531" lon="11.950768"><ele>84.0</ele><time>2026-04-25T13:16:42.445Z</time></trkpt><trkpt lat="44.1689105" lon="11.9506629"><ele>84.0</ele><time>2026-04-25T13:16:44.447Z</time></trkpt><trkpt lat="44.1689216" lon="11.9505207"><ele>84.0</ele><time>2026-04-25T13:16:46.45Z</time></trkpt><trkpt lat="44.1688577" lon="11.9504531"><ele>82.60000000000001</ele><time>2026-04-25T13:16:48.454Z</time></trkpt><trkpt lat="44.1687578" lon="11.950491"><ele>81.2</ele><time>2026-04-25T13:16:50.456Z</time></trkpt><trkpt lat="44.1686919" lon="11.9506038"><ele>79.80000000000001</ele><time>2026-04-25T13:16:52.449Z</time></trkpt><trkpt lat="44.1685877" lon="11.950702"><ele>78.4</ele><time>2026-04-25T13:16:54.434Z</time></trkpt><trkpt lat="44.168528" lon="11.9507401"><ele>77.0</ele><time>2026-04-25T13:16:55.446Z</time></trkpt><trkpt lat="44.1684204" lon="11.9508037"><ele>77.0</ele><time>2026-04-25T13:16:57.436Z</time></trkpt><trkpt lat="44.1683216" lon="11.9508481"><ele>77.0</ele><time>2026-04-25T13:16:59.446Z</time></trkpt><trkpt lat="44.1682428" lon="11.9508497"><ele>77.0</ele><time>2026-04-25T13:17:01.437Z</time></trkpt><trkpt lat="44.1681733" lon="11.9508327"><ele>77.0</ele><time>2026-04-25T13:17:04.451Z</time></trkpt><trkpt lat="44.168049" lon="11.9507858"><ele>77.0</ele><time>2026-04-25T13:17:09.451Z</time></trkpt><trkpt lat="44.1679884" lon="11.9507562"><ele>77.0</ele><time>2026-04-25T13:17:10.442Z</time></trkpt><trkpt lat="44.167898" lon="11.9507947"><ele>77.0</ele><time>2026-04-25T13:17:12.444Z</time></trkpt><trkpt lat="44.1678763" lon="11.9508872"><ele>77.0</ele><time>2026-04-25T13:17:14.454Z</time></trkpt><trkpt lat="44.1679402" lon="11.9509493"><ele>77.0</ele><time>2026-04-25T13:17:16.454Z</time></trkpt><trkpt lat="44.1680326" lon="11.950887"><ele>77.0</ele><time>2026-04-25T13:17:18.436Z</time></trkpt><trkpt lat="44.1681401" lon="11.9508386"><ele>77.0</ele><time>2026-04-25T13:17:20.46Z</time></trkpt><trkpt lat="44.1682215" lon="11.9508498"><ele>77.0</ele><time>2026-04-25T13:17:21.442Z</time></trkpt><trkpt lat="44.1683144" lon="11.9508605"><ele>77.0</ele><time>2026-04-25T13:17:22.437Z</time></trkpt><trkpt lat="44.1684075" lon="11.9508555"><ele>77.0</ele><time>2026-04-25T13:17:23.457Z</time></trkpt><trkpt lat="44.1684816" lon="11.9508271"><ele>77.0</ele><time>2026-04-25T13:17:24.433Z</time></trkpt><trkpt lat="44.1685563" lon="11.9507846"><ele>77.0</ele><time>2026-04-25T13:17:25.444Z</time></trkpt><trkpt lat="44.1686297" lon="11.9507352"><ele>77.0</ele><time>2026-04-25T13:17:26.451Z</time></trkpt><trkpt lat="44.1687012" lon="11.9507108"><ele>77.0</ele><time>2026-04-25T13:17:27.431Z</time></trkpt><trkpt lat="44.1687759" lon="11.9506946"><ele>77.0</ele><time>2026-04-25T13:17:28.454Z</time></trkpt><trkpt lat="44.1688458" lon="11.9506961"><ele>77.0</ele><time>2026-04-25T13:17:29.44Z</time></trkpt><trkpt lat="44.1689075" lon="11.9506771"><ele>77.0</ele><time>2026-04-25T13:17:30.442Z</time></trkpt><trkpt lat="44.1689775" lon="11.9505088"><ele>77.0</ele><time>2026-04-25T13:17:32.445Z</time></trkpt><trkpt lat="44.1690073" lon="11.950374"><ele>77.0</ele><time>2026-04-25T13:17:33.454Z</time></trkpt><trkpt lat="44.1690524" lon="11.9502466"><ele>77.0</ele><time>2026-04-25T13:17:34.443Z</time></trkpt><trkpt lat="44.1691191" lon="11.9501542"><ele>77.0</ele><time>2026-04-25T13:17:35.45Z</time></trkpt><trkpt lat="44.1691983" lon="11.9500704"><ele>77.0</ele><time>2026-04-25T13:17:36.44Z</time></trkpt><trkpt lat="44.1692996" lon="11.9499856"><ele>77.0</ele><time>2026-04-25T13:17:37.45Z</time></trkpt><trkpt lat="44.1694005" lon="11.9499142"><ele>77.0</ele><time>2026-04-25T13:17:38.443Z</time></trkpt><trkpt lat="44.169505" lon="11.949846"><ele>75.6</ele><time>2026-04-25T13:17:39.462Z</time></trkpt><trkpt lat="44.1696084" lon="11.9497852"><ele>74.2</ele><time>2026-04-25T13:17:40.449Z</time></trkpt><trkpt lat="44.1697059" lon="11.9497245"><ele>72.8</ele><time>2026-04-25T13:17:41.451Z</time></trkpt><trkpt lat="44.1697857" lon="11.9496734"><ele>71.4</ele><time>2026-04-25T13:17:42.447Z</time></trkpt><trkpt lat="44.1698505" lon="11.9496251"><ele>70.0</ele><time>2026-04-25T13:17:43.442Z</time></trkpt><trkpt lat="44.1699618" lon="11.9495619"><ele>69.5</ele><time>2026-04-25T13:17:45.445Z</time></trkpt><trkpt lat="44.1700216" lon="11.9495185"><ele>69.0</ele><time>2026-04-25T13:17:46.442Z</time></trkpt><trkpt lat="44.1700967" lon="11.9494674"><ele>68.5</ele><time>2026-04-25T13:17:47.443Z</time></trkpt><trkpt lat="44.1701768" lon="11.9494148"><ele>68.0</ele><time>2026-04-25T13:17:48.441Z</time></trkpt><trkpt lat="44.1702552" lon="11.9493604"><ele>67.5</ele><time>2026-04-25T13:17:49.44Z</time></trkpt><trkpt lat="44.170327" lon="11.9493095"><ele>67.0</ele><time>2026-04-25T13:17:50.449Z</time></trkpt><trkpt lat="44.1704002" lon="11.9492651"><ele>67.0</ele><time>2026-04-25T13:17:51.441Z</time></trkpt><trkpt lat="44.1704645" lon="11.9492254"><ele>67.0</ele><time>2026-04-25T13:17:52.444Z</time></trkpt><trkpt lat="44.1705277" lon="11.9491876"><ele>67.0</ele><time>2026-04-25T13:17:53.444Z</time></trkpt><trkpt lat="44.1705873" lon="11.9491501"><ele>67.0</ele><time>2026-04-25T13:17:54.449Z</time></trkpt><trkpt lat="44.1706601" lon="11.9490291"><ele>67.0</ele><time>2026-04-25T13:17:56.443Z</time></trkpt><trkpt lat="44.1706095" lon="11.948963"><ele>67.0</ele><time>2026-04-25T13:17:58.442Z</time></trkpt><trkpt lat="44.1705678" lon="11.9490392"><ele>67.0</ele><time>2026-04-25T13:18:00.444Z</time></trkpt><trkpt lat="44.1705458" lon="11.9491565"><ele>67.0</ele><time>2026-04-25T13:18:02.447Z</time></trkpt><trkpt lat="44.1704521" lon="11.9492572"><ele>67.0</ele><time>2026-04-25T13:18:04.444Z</time></trkpt><trkpt lat="44.17037" lon="11.9492977"><ele>67.0</ele><time>2026-04-25T13:18:05.438Z</time></trkpt><trkpt lat="44.1702657" lon="11.94935"><ele>67.0</ele><time>2026-04-25T13:18:06.443Z</time></trkpt><trkpt lat="44.1701702" lon="11.9494104"><ele>67.0</ele><time>2026-04-25T13:18:07.452Z</time></trkpt><trkpt lat="44.1700844" lon="11.9494709"><ele>67.0</ele><time>2026-04-25T13:18:08.462Z</time></trkpt><trkpt lat="44.1700076" lon="11.9495219"><ele>67.0</ele><time>2026-04-25T13:18:09.448Z</time></trkpt><trkpt lat="44.169947" lon="11.9495753"><ele>67.0</ele><time>2026-04-25T13:18:10.452Z</time></trkpt><trkpt lat="44.169842" lon="11.9496251"><ele>67.0</ele><time>2026-04-25T13:18:12.445Z</time></trkpt><trkpt lat="44.1697797" lon="11.9496021"><ele>67.0</ele><time>2026-04-25T13:18:13.445Z</time></trkpt><trkpt lat="44.1697092" lon="11.9495453"><ele>67.5</ele><time>2026-04-25T13:18:14.439Z</time></trkpt><trkpt lat="44.1696448" lon="11.9494965"><ele>68.0</ele><time>2026-04-25T13:18:15.444Z</time></trkpt><trkpt lat="44.1695272" lon="11.9494272"><ele>68.5</ele><time>2026-04-25T13:18:17.442Z</time></trkpt><trkpt lat="44.1694544" lon="11.9493832"><ele>69.0</ele><time>2026-04-25T13:18:18.447Z</time></trkpt><trkpt lat="44.1693878" lon="11.9493352"><ele>69.5</ele><time>2026-04-25T13:18:19.437Z</time></trkpt><trkpt lat="44.1693116" lon="11.9492784"><ele>70.0</ele><time>2026-04-25T13:18:20.449Z</time></trkpt><trkpt lat="44.1692292" lon="11.9492236"><ele>69.0</ele><time>2026-04-25T13:18:21.449Z</time></trkpt><trkpt lat="44.1691528" lon="11.9491708"><ele>68.0</ele><time>2026-04-25T13:18:22.445Z</time></trkpt><trkpt lat="44.1690685" lon="11.9491173"><ele>67.0</ele><time>2026-04-25T13:18:23.445Z</time></trkpt><trkpt lat="44.1689602" lon="11.9490416"><ele>66.0</ele><time>2026-04-25T13:18:24.443Z</time></trkpt><trkpt lat="44.1688218" lon="11.9489618"><ele>65.0</ele><time>2026-04-25T13:18:25.462Z</time></trkpt><trkpt lat="44.1686852" lon="11.948879"><ele>65.0</ele><time>2026-04-25T13:18:26.435Z</time></trkpt><trkpt lat="44.1685495" lon="11.9488053"><ele>65.0</ele><time>2026-04-25T13:18:27.439Z</time></trkpt><trkpt lat="44.1684243" lon="11.9487315"><ele>65.0</ele><time>2026-04-25T13:18:28.442Z</time></trkpt><trkpt lat="44.168307" lon="11.9486562"><ele>65.0</ele><time>2026-04-25T13:18:29.448Z</time></trkpt><trkpt lat="44.168185" lon="11.9485837"><ele>64.6</ele><time>2026-04-25T13:18:30.439Z</time></trkpt><trkpt lat="44.1680627" lon="11.9485217"><ele>64.2</ele><time>2026-04-25T13:18:31.446Z</time></trkpt><trkpt lat="44.1679542" lon="11.9484758"><ele>63.8</ele><time>2026-04-25T13:18:32.444Z</time></trkpt><trkpt lat="44.1678584" lon="11.9484374"><ele>63.4</ele><time>2026-04-25T13:18:33.436Z</time></trkpt><trkpt lat="44.1677654" lon="11.9484024"><ele>63.0</ele><time>2026-04-25T13:18:34.441Z</time></trkpt><trkpt lat="44.1676702" lon="11.9483743"><ele>62.75</ele><time>2026-04-25T13:18:35.438Z</time></trkpt><trkpt lat="44.167559" lon="11.9483691"><ele>62.5</ele><time>2026-04-25T13:18:36.46Z</time></trkpt><trkpt lat="44.1674366" lon="11.9483678"><ele>62.25</ele><time>2026-04-25T13:18:37.441Z</time></trkpt><trkpt lat="44.1673232" lon="11.9483636"><ele>62.0</ele><time>2026-04-25T13:18:38.44Z</time></trkpt><trkpt lat="44.1672098" lon="11.948374"><ele>62.2</ele><time>2026-04-25T13:18:39.446Z</time></trkpt><trkpt lat="44.1671065" lon="11.9483821"><ele>62.400000000000006</ele><time>2026-04-25T13:18:40.447Z</time></trkpt><trkpt lat="44.1670073" lon="11.9484021"><ele>62.599999999999994</ele><time>2026-04-25T13:18:41.441Z</time></trkpt><trkpt lat="44.1669121" lon="11.948426"><ele>62.8</ele><time>2026-04-25T13:18:42.443Z</time></trkpt><trkpt lat="44.1668232" lon="11.9484506"><ele>63.0</ele><time>2026-04-25T13:18:43.446Z</time></trkpt><trkpt lat="44.166731" lon="11.9484833"><ele>63.0</ele><time>2026-04-25T13:18:44.476Z</time></trkpt><trkpt lat="44.166625" lon="11.9485196"><ele>63.0</ele><time>2026-04-25T13:18:45.454Z</time></trkpt><trkpt lat="44.1665187" lon="11.948546"><ele>63.0</ele><time>2026-04-25T13:18:46.436Z</time></trkpt><trkpt lat="44.1664132" lon="11.9485749"><ele>63.0</ele><time>2026-04-25T13:18:47.44Z</time></trkpt><trkpt lat="44.1663167" lon="11.9485985"><ele>63.0</ele><time>2026-04-25T13:18:48.443Z</time></trkpt><trkpt lat="44.166231" lon="11.9486388"><ele>63.5</ele><time>2026-04-25T13:18:49.45Z</time></trkpt><trkpt lat="44.1661512" lon="11.948678"><ele>64.0</ele><time>2026-04-25T13:18:50.452Z</time></trkpt><trkpt lat="44.1660696" lon="11.9487189"><ele>64.5</ele><time>2026-04-25T13:18:51.448Z</time></trkpt><trkpt lat="44.1659861" lon="11.9487706"><ele>65.0</ele><time>2026-04-25T13:18:52.444Z</time></trkpt><trkpt lat="44.1659033" lon="11.9488107"><ele>65.5</ele><time>2026-04-25T13:18:53.442Z</time></trkpt><trkpt lat="44.1658457" lon="11.9488465"><ele>66.0</ele><time>2026-04-25T13:18:54.449Z</time></trkpt><trkpt lat="44.1657625" lon="11.9488796"><ele>66.0</ele><time>2026-04-25T13:18:56.431Z</time></trkpt><trkpt lat="44.1657278" lon="11.9489734"><ele>66.0</ele><time>2026-04-25T13:19:07.445Z</time></trkpt><trkpt lat="44.1657535" lon="11.9490692"><ele>66.0</ele><time>2026-04-25T13:19:09.441Z</time></trkpt><trkpt lat="44.1658255" lon="11.9490255"><ele>66.0</ele><time>2026-04-25T13:19:12.432Z</time></trkpt><trkpt lat="44.1658118" lon="11.9488833"><ele>66.0</ele><time>2026-04-25T13:19:14.452Z</time></trkpt><trkpt lat="44.1658857" lon="11.9487888"><ele>66.0</ele><time>2026-04-25T13:19:17.439Z</time></trkpt><trkpt lat="44.1660073" lon="11.9487409"><ele>66.0</ele><time>2026-04-25T13:19:19.441Z</time></trkpt><trkpt lat="44.1661168" lon="11.9486872"><ele>66.0</ele><time>2026-04-25T13:19:20.458Z</time></trkpt><trkpt lat="44.1662486" lon="11.9486282"><ele>66.0</ele><time>2026-04-25T13:19:21.443Z</time></trkpt><trkpt lat="44.1663919" lon="11.9485875"><ele>66.0</ele><time>2026-04-25T13:19:22.453Z</time></trkpt><trkpt lat="44.1665313" lon="11.9485475"><ele>65.25</ele><time>2026-04-25T13:19:23.441Z</time></trkpt><trkpt lat="44.1666634" lon="11.9485111"><ele>64.5</ele><time>2026-04-25T13:19:24.452Z</time></trkpt><trkpt lat="44.166794" lon="11.9484696"><ele>63.75</ele><time>2026-04-25T13:19:25.451Z</time></trkpt><trkpt lat="44.1669175" lon="11.9484241"><ele>63.0</ele><time>2026-04-25T13:19:26.432Z</time></trkpt><trkpt lat="44.1670448" lon="11.9483969"><ele>63.0</ele><time>2026-04-25T13:19:27.442Z</time></trkpt><trkpt lat="44.1671824" lon="11.9483842"><ele>63.0</ele><time>2026-04-25T13:19:28.439Z</time></trkpt><trkpt lat="44.1673244" lon="11.9483756"><ele>63.0</ele><time>2026-04-25T13:19:29.446Z</time></trkpt><trkpt lat="44.1674542" lon="11.9483781"><ele>63.0</ele><time>2026-04-25T13:19:30.446Z</time></trkpt><trkpt lat="44.1675697" lon="11.9483803"><ele>63.0</ele><time>2026-04-25T13:19:31.447Z</time></trkpt><trkpt lat="44.1676657" lon="11.948387"><ele>63.0</ele><time>2026-04-25T13:19:32.447Z</time></trkpt><trkpt lat="44.1677588" lon="11.9484127"><ele>63.0</ele><time>2026-04-25T13:19:33.442Z</time></trkpt><trkpt lat="44.1678584" lon="11.9484523"><ele>63.0</ele><time>2026-04-25T13:19:34.456Z</time></trkpt><trkpt lat="44.1679785" lon="11.9485075"><ele>63.0</ele><time>2026-04-25T13:19:35.446Z</time></trkpt><trkpt lat="44.1681057" lon="11.9485643"><ele>63.66666666666667</ele><time>2026-04-25T13:19:36.455Z</time></trkpt><trkpt lat="44.1682471" lon="11.9486432"><ele>64.33333333333334</ele><time>2026-04-25T13:19:37.451Z</time></trkpt><trkpt lat="44.1684022" lon="11.9487278"><ele>65.0</ele><time>2026-04-25T13:19:38.433Z</time></trkpt><trkpt lat="44.1685606" lon="11.9488192"><ele>65.0</ele><time>2026-04-25T13:19:39.45Z</time></trkpt><trkpt lat="44.1687327" lon="11.9489305"><ele>65.0</ele><time>2026-04-25T13:19:40.441Z</time></trkpt><trkpt lat="44.1688893" lon="11.9490316"><ele>65.0</ele><time>2026-04-25T13:19:41.441Z</time></trkpt><trkpt lat="44.1690313" lon="11.9491065"><ele>65.0</ele><time>2026-04-25T13:19:42.442Z</time></trkpt><trkpt lat="44.1691621" lon="11.9491839"><ele>65.0</ele><time>2026-04-25T13:19:43.436Z</time></trkpt><trkpt lat="44.1692893" lon="11.9492605"><ele>65.0</ele><time>2026-04-25T13:19:44.442Z</time></trkpt><trkpt lat="44.1694072" lon="11.9493246"><ele>65.0</ele><time>2026-04-25T13:19:45.442Z</time></trkpt><trkpt lat="44.1695075" lon="11.9493955"><ele>65.33333333333334</ele><time>2026-04-25T13:19:46.442Z</time></trkpt><trkpt lat="44.1695975" lon="11.9494547"><ele>65.66666666666667</ele><time>2026-04-25T13:19:47.437Z</time></trkpt><trkpt lat="44.1696756" lon="11.9495002"><ele>66.0</ele><time>2026-04-25T13:19:48.435Z</time></trkpt><trkpt lat="44.1697345" lon="11.9495367"><ele>66.33333333333333</ele><time>2026-04-25T13:19:49.442Z</time></trkpt><trkpt lat="44.1698081" lon="11.949578"><ele>66.66666666666666</ele><time>2026-04-25T13:19:51.444Z</time></trkpt><trkpt lat="44.1698606" lon="11.9496265"><ele>67.0</ele><time>2026-04-25T13:19:53.447Z</time></trkpt><trkpt lat="44.1699486" lon="11.9495777"><ele>67.0</ele><time>2026-04-25T13:19:55.439Z</time></trkpt><trkpt lat="44.1700078" lon="11.9495316"><ele>67.0</ele><time>2026-04-25T13:19:56.432Z</time></trkpt><trkpt lat="44.1700712" lon="11.949487"><ele>67.0</ele><time>2026-04-25T13:19:57.445Z</time></trkpt><trkpt lat="44.1701385" lon="11.9494428"><ele>67.0</ele><time>2026-04-25T13:19:58.437Z</time></trkpt><trkpt lat="44.1702157" lon="11.9493891"><ele>67.0</ele><time>2026-04-25T13:19:59.443Z</time></trkpt><trkpt lat="44.1702861" lon="11.949339"><ele>67.0</ele><time>2026-04-25T13:20:00.447Z</time></trkpt><trkpt lat="44.170348" lon="11.9492977"><ele>67.0</ele><time>2026-04-25T13:20:01.436Z</time></trkpt><trkpt lat="44.1704172" lon="11.9492544"><ele>67.0</ele><time>2026-04-25T13:20:02.441Z</time></trkpt><trkpt lat="44.1704887" lon="11.949211"><ele>67.0</ele><time>2026-04-25T13:20:03.446Z</time></trkpt><trkpt lat="44.1705639" lon="11.9491651"><ele>67.0</ele><time>2026-04-25T13:20:04.459Z</time></trkpt><trkpt lat="44.170642" lon="11.9491085"><ele>67.0</ele><time>2026-04-25T13:20:05.444Z</time></trkpt><trkpt lat="44.1707188" lon="11.949047"><ele>67.0</ele><time>2026-04-25T13:20:06.452Z</time></trkpt><trkpt lat="44.1707936" lon="11.9489829"><ele>67.0</ele><time>2026-04-25T13:20:07.439Z</time></trkpt><trkpt lat="44.1708579" lon="11.9489215"><ele>66.66666666666666</ele><time>2026-04-25T13:20:08.442Z</time></trkpt><trkpt lat="44.1709202" lon="11.9488483"><ele>66.33333333333333</ele><time>2026-04-25T13:20:09.448Z</time></trkpt><trkpt lat="44.170972" lon="11.948763"><ele>66.0</ele><time>2026-04-25T13:20:10.439Z</time></trkpt><trkpt lat="44.1710118" lon="11.94866"><ele>65.66666666666667</ele><time>2026-04-25T13:20:11.437Z</time></trkpt><trkpt lat="44.1710616" lon="11.9485603"><ele>65.33333333333334</ele><time>2026-04-25T13:20:12.455Z</time></trkpt><trkpt lat="44.1711187" lon="11.9484628"><ele>65.0</ele><time>2026-04-25T13:20:13.441Z</time></trkpt><trkpt lat="44.1711751" lon="11.9483599"><ele>66.4</ele><time>2026-04-25T13:20:14.442Z</time></trkpt><trkpt lat="44.1712336" lon="11.9482489"><ele>67.8</ele><time>2026-04-25T13:20:15.449Z</time></trkpt><trkpt lat="44.171297" lon="11.9481272"><ele>69.2</ele><time>2026-04-25T13:20:16.455Z</time></trkpt><trkpt lat="44.171357" lon="11.948003"><ele>70.6</ele><time>2026-04-25T13:20:17.458Z</time></trkpt><trkpt lat="44.1714138" lon="11.9478804"><ele>72.0</ele><time>2026-04-25T13:20:18.437Z</time></trkpt><trkpt lat="44.1714585" lon="11.9477716"><ele>72.0</ele><time>2026-04-25T13:20:19.441Z</time></trkpt><trkpt lat="44.1715004" lon="11.9476758"><ele>72.0</ele><time>2026-04-25T13:20:20.436Z</time></trkpt><trkpt lat="44.1715699" lon="11.947569"><ele>72.0</ele><time>2026-04-25T13:20:22.437Z</time></trkpt><trkpt lat="44.1716193" lon="11.9474879"><ele>72.0</ele><time>2026-04-25T13:20:27.435Z</time></trkpt><trkpt lat="44.1715495" lon="11.9473639"><ele>72.0</ele><time>2026-04-25T13:20:30.451Z</time></trkpt><trkpt lat="44.1714973" lon="11.947293"><ele>72.0</ele><time>2026-04-25T13:20:31.443Z</time></trkpt><trkpt lat="44.1714477" lon="11.9472319"><ele>72.33333333333333</ele><time>2026-04-25T13:20:32.448Z</time></trkpt><trkpt lat="44.1713037" lon="11.9472301"><ele>72.66666666666667</ele><time>2026-04-25T13:20:34.431Z</time></trkpt><trkpt lat="44.1712204" lon="11.9472745"><ele>73.0</ele><time>2026-04-25T13:20:35.437Z</time></trkpt><trkpt lat="44.1711568" lon="11.9473109"><ele>73.33333333333334</ele><time>2026-04-25T13:20:36.436Z</time></trkpt><trkpt lat="44.1710917" lon="11.9473308"><ele>73.66666666666667</ele><time>2026-04-25T13:20:37.428Z</time></trkpt><trkpt lat="44.1710125" lon="11.9473395"><ele>74.0</ele><time>2026-04-25T13:20:40.451Z</time></trkpt><trkpt lat="44.1708621" lon="11.9473139"><ele>74.0</ele><time>2026-04-25T13:20:42.444Z</time></trkpt><trkpt lat="44.1707798" lon="11.9472911"><ele>74.0</ele><time>2026-04-25T13:20:43.444Z</time></trkpt><trkpt lat="44.170717" lon="11.9472298"><ele>74.0</ele><time>2026-04-25T13:20:44.449Z</time></trkpt><trkpt lat="44.1706562" lon="11.9471387"><ele>74.0</ele><time>2026-04-25T13:20:45.437Z</time></trkpt><trkpt lat="44.170599" lon="11.9470195"><ele>74.0</ele><time>2026-04-25T13:20:46.44Z</time></trkpt><trkpt lat="44.1705299" lon="11.9468711"><ele>71.75</ele><time>2026-04-25T13:20:47.437Z</time></trkpt><trkpt lat="44.1704585" lon="11.9467144"><ele>69.5</ele><time>2026-04-25T13:20:48.451Z</time></trkpt><trkpt lat="44.1703821" lon="11.9465552"><ele>67.25</ele><time>2026-04-25T13:20:49.444Z</time></trkpt><trkpt lat="44.1703004" lon="11.9463905"><ele>65.0</ele><time>2026-04-25T13:20:50.44Z</time></trkpt><trkpt lat="44.1702224" lon="11.946227"><ele>65.0</ele><time>2026-04-25T13:20:51.434Z</time></trkpt><trkpt lat="44.1701536" lon="11.9460694"><ele>65.0</ele><time>2026-04-25T13:20:52.442Z</time></trkpt><trkpt lat="44.1700799" lon="11.9459104"><ele>65.0</ele><time>2026-04-25T13:20:53.441Z</time></trkpt><trkpt lat="44.1700035" lon="11.9457495"><ele>65.0</ele><time>2026-04-25T13:20:54.444Z</time></trkpt><trkpt lat="44.1699328" lon="11.9456027"><ele>65.25</ele><time>2026-04-25T13:20:55.467Z</time></trkpt><trkpt lat="44.16987" lon="11.9454535"><ele>65.5</ele><time>2026-04-25T13:20:56.442Z</time></trkpt><trkpt lat="44.1698012" lon="11.9453014"><ele>65.75</ele><time>2026-04-25T13:20:57.44Z</time></trkpt><trkpt lat="44.169727" lon="11.9451319"><ele>66.0</ele><time>2026-04-25T13:20:58.447Z</time></trkpt><trkpt lat="44.169657" lon="11.9449618"><ele>66.25</ele><time>2026-04-25T13:20:59.448Z</time></trkpt><trkpt lat="44.1695793" lon="11.9447946"><ele>66.5</ele><time>2026-04-25T13:21:00.448Z</time></trkpt><trkpt lat="44.1695044" lon="11.9446279"><ele>66.75</ele><time>2026-04-25T13:21:01.432Z</time></trkpt><trkpt lat="44.1694293" lon="11.9444596"><ele>67.0</ele><time>2026-04-25T13:21:02.455Z</time></trkpt><trkpt lat="44.1693521" lon="11.9443009"><ele>67.75</ele><time>2026-04-25T13:21:03.428Z</time></trkpt><trkpt lat="44.1692756" lon="11.9441413"><ele>68.5</ele><time>2026-04-25T13:21:04.445Z</time></trkpt><trkpt lat="44.1692019" lon="11.943988"><ele>69.25</ele><time>2026-04-25T13:21:05.447Z</time></trkpt><trkpt lat="44.1691361" lon="11.9438404"><ele>70.0</ele><time>2026-04-25T13:21:06.458Z</time></trkpt><trkpt lat="44.1690605" lon="11.9436934"><ele>70.0</ele><time>2026-04-25T13:21:07.452Z</time></trkpt><trkpt lat="44.1689782" lon="11.9435638"><ele>70.0</ele><time>2026-04-25T13:21:08.452Z</time></trkpt><trkpt lat="44.1688699" lon="11.943459"><ele>70.0</ele><time>2026-04-25T13:21:09.435Z</time></trkpt><trkpt lat="44.1687417" lon="11.9433767"><ele>70.0</ele><time>2026-04-25T13:21:10.45Z</time></trkpt><trkpt lat="44.1686014" lon="11.9432951"><ele>70.0</ele><time>2026-04-25T13:21:11.449Z</time></trkpt><trkpt lat="44.1684581" lon="11.9431924"><ele>70.0</ele><time>2026-04-25T13:21:12.452Z</time></trkpt><trkpt lat="44.1683134" lon="11.9430953"><ele>70.0</ele><time>2026-04-25T13:21:13.448Z</time></trkpt><trkpt lat="44.1681795" lon="11.9429966"><ele>70.0</ele><time>2026-04-25T13:21:14.448Z</time></trkpt><trkpt lat="44.1680488" lon="11.9429076"><ele>70.0</ele><time>2026-04-25T13:21:15.44Z</time></trkpt><trkpt lat="44.1679317" lon="11.942822"><ele>70.0</ele><time>2026-04-25T13:21:16.434Z</time></trkpt><trkpt lat="44.1678251" lon="11.9427496"><ele>70.0</ele><time>2026-04-25T13:21:17.444Z</time></trkpt><trkpt lat="44.1677246" lon="11.9426968"><ele>70.0</ele><time>2026-04-25T13:21:18.429Z</time></trkpt><trkpt lat="44.1676158" lon="11.9426806"><ele>70.0</ele><time>2026-04-25T13:21:19.435Z</time></trkpt><trkpt lat="44.1674901" lon="11.9426868"><ele>70.0</ele><time>2026-04-25T13:21:20.434Z</time></trkpt><trkpt lat="44.1673494" lon="11.942719"><ele>70.0</ele><time>2026-04-25T13:21:21.437Z</time></trkpt><trkpt lat="44.1672016" lon="11.9427599"><ele>69.75</ele><time>2026-04-25T13:21:22.438Z</time></trkpt><trkpt lat="44.1670588" lon="11.9428034"><ele>69.5</ele><time>2026-04-25T13:21:23.437Z</time></trkpt><trkpt lat="44.1669159" lon="11.942833"><ele>69.25</ele><time>2026-04-25T13:21:24.434Z</time></trkpt><trkpt lat="44.166776" lon="11.9428656"><ele>69.0</ele><time>2026-04-25T13:21:25.443Z</time></trkpt><trkpt lat="44.1666469" lon="11.9428905"><ele>69.4</ele><time>2026-04-25T13:21:26.432Z</time></trkpt><trkpt lat="44.1665217" lon="11.9429156"><ele>69.80000000000001</ele><time>2026-04-25T13:21:27.46Z</time></trkpt><trkpt lat="44.1664133" lon="11.9429385"><ele>70.19999999999999</ele><time>2026-04-25T13:21:28.445Z</time></trkpt><trkpt lat="44.1663153" lon="11.9429579"><ele>70.6</ele><time>2026-04-25T13:21:29.446Z</time></trkpt><trkpt lat="44.1662279" lon="11.9429861"><ele>71.0</ele><time>2026-04-25T13:21:30.434Z</time></trkpt><trkpt lat="44.1661476" lon="11.9430039"><ele>71.0</ele><time>2026-04-25T13:21:31.439Z</time></trkpt><trkpt lat="44.1660757" lon="11.9430246"><ele>71.0</ele><time>2026-04-25T13:21:32.433Z</time></trkpt><trkpt lat="44.1660089" lon="11.9430482"><ele>71.0</ele><time>2026-04-25T13:21:33.438Z</time></trkpt><trkpt lat="44.1659338" lon="11.9430609"><ele>71.0</ele><time>2026-04-25T13:21:34.439Z</time></trkpt><trkpt lat="44.1658538" lon="11.9430656"><ele>71.0</ele><time>2026-04-25T13:21:35.439Z</time></trkpt><trkpt lat="44.1657666" lon="11.9430686"><ele>71.0</ele><time>2026-04-25T13:21:36.434Z</time></trkpt><trkpt lat="44.1656727" lon="11.9430668"><ele>71.6</ele><time>2026-04-25T13:21:37.44Z</time></trkpt><trkpt lat="44.1655753" lon="11.9430614"><ele>72.19999999999999</ele><time>2026-04-25T13:21:38.449Z</time></trkpt><trkpt lat="44.1654709" lon="11.9430573"><ele>72.80000000000001</ele><time>2026-04-25T13:21:39.447Z</time></trkpt><trkpt lat="44.1653631" lon="11.9430453"><ele>73.4</ele><time>2026-04-25T13:21:40.435Z</time></trkpt><trkpt lat="44.1652554" lon="11.9430391"><ele>74.0</ele><time>2026-04-25T13:21:41.449Z</time></trkpt><trkpt lat="44.1651496" lon="11.9430305"><ele>74.0</ele><time>2026-04-25T13:21:42.447Z</time></trkpt><trkpt lat="44.1650472" lon="11.9430242"><ele>74.0</ele><time>2026-04-25T13:21:43.435Z</time></trkpt><trkpt lat="44.1649554" lon="11.9430209"><ele>74.0</ele><time>2026-04-25T13:21:44.449Z</time></trkpt><trkpt lat="44.1648716" lon="11.9430319"><ele>74.0</ele><time>2026-04-25T13:21:45.444Z</time></trkpt><trkpt lat="44.1648029" lon="11.9430519"><ele>74.0</ele><time>2026-04-25T13:21:46.427Z</time></trkpt><trkpt lat="44.1647413" lon="11.9430835"><ele>74.0</ele><time>2026-04-25T13:21:47.455Z</time></trkpt><trkpt lat="44.1646685" lon="11.9432045"><ele>74.0</ele><time>2026-04-25T13:21:49.439Z</time></trkpt><trkpt lat="44.1646531" lon="11.9432978"><ele>74.0</ele><time>2026-04-25T13:21:51.429Z</time></trkpt><trkpt lat="44.164679" lon="11.9434533"><ele>74.0</ele><time>2026-04-25T13:22:14.452Z</time></trkpt><trkpt lat="44.1647137" lon="11.9435588"><ele>74.0</ele><time>2026-04-25T13:22:15.434Z</time></trkpt><trkpt lat="44.1647626" lon="11.943689"><ele>74.0</ele><time>2026-04-25T13:22:16.44Z</time></trkpt><trkpt lat="44.1648255" lon="11.9438443"><ele>73.5</ele><time>2026-04-25T13:22:17.438Z</time></trkpt><trkpt lat="44.1648855" lon="11.9440065"><ele>73.0</ele><time>2026-04-25T13:22:18.439Z</time></trkpt><trkpt lat="44.164939" lon="11.944177"><ele>72.5</ele><time>2026-04-25T13:22:19.445Z</time></trkpt><trkpt lat="44.1649964" lon="11.9443628"><ele>72.0</ele><time>2026-04-25T13:22:20.443Z</time></trkpt><trkpt lat="44.1650485" lon="11.9445645"><ele>70.66666666666667</ele><time>2026-04-25T13:22:21.445Z</time></trkpt><trkpt lat="44.165097" lon="11.9447677"><ele>69.33333333333334</ele><time>2026-04-25T13:22:22.45Z</time></trkpt><trkpt lat="44.1651396" lon="11.9449823"><ele>68.0</ele><time>2026-04-25T13:22:23.434Z</time></trkpt><trkpt lat="44.1651787" lon="11.9452025"><ele>68.0</ele><time>2026-04-25T13:22:24.444Z</time></trkpt><trkpt lat="44.165214" lon="11.9454295"><ele>68.0</ele><time>2026-04-25T13:22:25.436Z</time></trkpt><trkpt lat="44.1652428" lon="11.945651"><ele>68.0</ele><time>2026-04-25T13:22:26.444Z</time></trkpt><trkpt lat="44.165279" lon="11.9458585"><ele>67.5</ele><time>2026-04-25T13:22:27.446Z</time></trkpt><trkpt lat="44.1653052" lon="11.9460417"><ele>67.0</ele><time>2026-04-25T13:22:28.447Z</time></trkpt><trkpt lat="44.165329" lon="11.9462214"><ele>66.5</ele><time>2026-04-25T13:22:29.442Z</time></trkpt><trkpt lat="44.1653616" lon="11.9464053"><ele>66.0</ele><time>2026-04-25T13:22:30.455Z</time></trkpt><trkpt lat="44.1653949" lon="11.9465953"><ele>65.5</ele><time>2026-04-25T13:22:31.44Z</time></trkpt><trkpt lat="44.1654239" lon="11.9467827"><ele>65.0</ele><time>2026-04-25T13:22:32.44Z</time></trkpt><trkpt lat="44.1654571" lon="11.946972"><ele>64.5</ele><time>2026-04-25T13:22:33.44Z</time></trkpt><trkpt lat="44.1654826" lon="11.9471578"><ele>64.0</ele><time>2026-04-25T13:22:34.439Z</time></trkpt><trkpt lat="44.1655082" lon="11.9473361"><ele>64.0</ele><time>2026-04-25T13:22:35.435Z</time></trkpt><trkpt lat="44.1655331" lon="11.9475019"><ele>64.0</ele><time>2026-04-25T13:22:36.441Z</time></trkpt><trkpt lat="44.1655624" lon="11.9476621"><ele>64.0</ele><time>2026-04-25T13:22:37.448Z</time></trkpt><trkpt lat="44.1655885" lon="11.9478208"><ele>64.0</ele><time>2026-04-25T13:22:38.431Z</time></trkpt><trkpt lat="44.165613" lon="11.9479773"><ele>63.800000000000004</ele><time>2026-04-25T13:22:39.445Z</time></trkpt><trkpt lat="44.165635" lon="11.9481236"><ele>63.60000000000001</ele><time>2026-04-25T13:22:40.445Z</time></trkpt><trkpt lat="44.1656514" lon="11.9482665"><ele>63.4</ele><time>2026-04-25T13:22:41.443Z</time></trkpt><trkpt lat="44.1656713" lon="11.9484098"><ele>63.2</ele><time>2026-04-25T13:22:42.438Z</time></trkpt><trkpt lat="44.1656921" lon="11.9485498"><ele>63.0</ele><time>2026-04-25T13:22:43.442Z</time></trkpt><trkpt lat="44.1657154" lon="11.948689"><ele>63.75</ele><time>2026-04-25T13:22:44.503Z</time></trkpt><trkpt lat="44.1657453" lon="11.9488334"><ele>64.5</ele><time>2026-04-25T13:22:45.452Z</time></trkpt><trkpt lat="44.1657755" lon="11.9489971"><ele>65.25</ele><time>2026-04-25T13:22:46.442Z</time></trkpt><trkpt lat="44.1658105" lon="11.9491682"><ele>66.0</ele><time>2026-04-25T13:22:47.445Z</time></trkpt><trkpt lat="44.1658511" lon="11.949339"><ele>67.66666666666667</ele><time>2026-04-25T13:22:48.441Z</time></trkpt><trkpt lat="44.1659013" lon="11.9495448"><ele>69.33333333333334</ele><time>2026-04-25T13:22:49.453Z</time></trkpt><trkpt lat="44.1659658" lon="11.9497737"><ele>71.0</ele><time>2026-04-25T13:22:50.437Z</time></trkpt><trkpt lat="44.1660434" lon="11.9500115"><ele>75.33333333333334</ele><time>2026-04-25T13:22:51.437Z</time></trkpt><trkpt lat="44.166136" lon="11.9502643"><ele>79.66666666666667</ele><time>2026-04-25T13:22:52.444Z</time></trkpt><trkpt lat="44.1662487" lon="11.9505295"><ele>84.0</ele><time>2026-04-25T13:22:53.445Z</time></trkpt><trkpt lat="44.1663618" lon="11.9507902"><ele>85.66666666666667</ele><time>2026-04-25T13:22:54.441Z</time></trkpt><trkpt lat="44.1664782" lon="11.9510499"><ele>87.33333333333334</ele><time>2026-04-25T13:22:55.439Z</time></trkpt><trkpt lat="44.1665888" lon="11.9512938"><ele>89.0</ele><time>2026-04-25T13:22:56.436Z</time></trkpt><trkpt lat="44.1666911" lon="11.9515242"><ele>91.66666666666667</ele><time>2026-04-25T13:22:57.445Z</time></trkpt><trkpt lat="44.1667916" lon="11.9517447"><ele>94.33333333333334</ele><time>2026-04-25T13:22:58.437Z</time></trkpt><trkpt lat="44.1668838" lon="11.9519632"><ele>97.0</ele><time>2026-04-25T13:22:59.45Z</time></trkpt><trkpt lat="44.1669759" lon="11.9521809"><ele>97.0</ele><time>2026-04-25T13:23:00.449Z</time></trkpt><trkpt lat="44.1670651" lon="11.9523926"><ele>97.0</ele><time>2026-04-25T13:23:01.448Z</time></trkpt><trkpt lat="44.1671533" lon="11.9525912"><ele>97.0</ele><time>2026-04-25T13:23:02.432Z</time></trkpt><trkpt lat="44.1672427" lon="11.9527894"><ele>98.0</ele><time>2026-04-25T13:23:03.456Z</time></trkpt><trkpt lat="44.1673314" lon="11.9529906"><ele>99.0</ele><time>2026-04-25T13:23:04.454Z</time></trkpt><trkpt lat="44.1674254" lon="11.9532048"><ele>100.0</ele><time>2026-04-25T13:23:05.463Z</time></trkpt><trkpt lat="44.1675205" lon="11.9534179"><ele>100.0</ele><time>2026-04-25T13:23:06.438Z</time></trkpt><trkpt lat="44.1676154" lon="11.9536293"><ele>100.0</ele><time>2026-04-25T13:23:07.445Z</time></trkpt><trkpt lat="44.1677081" lon="11.9538344"><ele>100.0</ele><time>2026-04-25T13:23:08.436Z</time></trkpt><trkpt lat="44.1677918" lon="11.9540281"><ele>100.0</ele><time>2026-04-25T13:23:09.432Z</time></trkpt><trkpt lat="44.1678735" lon="11.954197"><ele>100.0</ele><time>2026-04-25T13:23:10.436Z</time></trkpt><trkpt lat="44.1679563" lon="11.9543506"><ele>100.0</ele><time>2026-04-25T13:23:11.443Z</time></trkpt><trkpt lat="44.168027" lon="11.9544909"><ele>100.0</ele><time>2026-04-25T13:23:12.431Z</time></trkpt><trkpt lat="44.1680812" lon="11.9546166"><ele>99.83333333333334</ele><time>2026-04-25T13:23:13.446Z</time></trkpt><trkpt lat="44.1681258" lon="11.9547293"><ele>99.66666666666667</ele><time>2026-04-25T13:23:14.426Z</time></trkpt><trkpt lat="44.1681715" lon="11.9548331"><ele>99.5</ele><time>2026-04-25T13:23:15.434Z</time></trkpt><trkpt lat="44.1682147" lon="11.9549322"><ele>99.33333333333334</ele><time>2026-04-25T13:23:16.436Z</time></trkpt><trkpt lat="44.1682646" lon="11.9550131"><ele>99.16666666666667</ele><time>2026-04-25T13:23:17.437Z</time></trkpt><trkpt lat="44.1683207" lon="11.9550569"><ele>99.0</ele><time>2026-04-25T13:23:18.451Z</time></trkpt><trkpt lat="44.1684525" lon="11.9550088"><ele>98.0</ele><time>2026-04-25T13:23:20.442Z</time></trkpt><trkpt lat="44.1685249" lon="11.9549403"><ele>97.0</ele><time>2026-04-25T13:23:21.447Z</time></trkpt><trkpt lat="44.168571" lon="11.9548464"><ele>96.0</ele><time>2026-04-25T13:23:22.444Z</time></trkpt><trkpt lat="44.1685921" lon="11.9547392"><ele>95.0</ele><time>2026-04-25T13:23:23.436Z</time></trkpt><trkpt lat="44.1686209" lon="11.9546244"><ele>94.0</ele><time>2026-04-25T13:23:24.439Z</time></trkpt><trkpt lat="44.1686526" lon="11.9545139"><ele>93.0</ele><time>2026-04-25T13:23:25.448Z</time></trkpt><trkpt lat="44.168689" lon="11.9544063"><ele>93.0</ele><time>2026-04-25T13:23:26.437Z</time></trkpt><trkpt lat="44.1687251" lon="11.9543007"><ele>93.0</ele><time>2026-04-25T13:23:27.44Z</time></trkpt><trkpt lat="44.1687661" lon="11.9541915"><ele>93.0</ele><time>2026-04-25T13:23:28.454Z</time></trkpt><trkpt lat="44.1688083" lon="11.954087"><ele>93.0</ele><time>2026-04-25T13:23:29.448Z</time></trkpt><trkpt lat="44.1688497" lon="11.953987"><ele>93.0</ele><time>2026-04-25T13:23:30.44Z</time></trkpt><trkpt lat="44.1688924" lon="11.9538881"><ele>93.0</ele><time>2026-04-25T13:23:31.439Z</time></trkpt><trkpt lat="44.1689291" lon="11.953802"><ele>92.66666666666667</ele><time>2026-04-25T13:23:32.45Z</time></trkpt><trkpt lat="44.1689942" lon="11.9536946"><ele>92.33333333333333</ele><time>2026-04-25T13:23:34.453Z</time></trkpt><trkpt lat="44.1690331" lon="11.9536056"><ele>92.0</ele><time>2026-04-25T13:23:36.45Z</time></trkpt><trkpt lat="44.1689652" lon="11.9535911"><ele>91.66666666666666</ele><time>2026-04-25T13:23:40.445Z</time></trkpt><trkpt lat="44.1688962" lon="11.9537197"><ele>91.33333333333333</ele><time>2026-04-25T13:25:03.445Z</time></trkpt><trkpt lat="44.1688624" lon="11.953821"><ele>91.0</ele><time>2026-04-25T13:25:04.44Z</time></trkpt><trkpt lat="44.1688105" lon="11.9539453"><ele>91.0</ele><time>2026-04-25T13:25:05.436Z</time></trkpt><trkpt lat="44.1687522" lon="11.9540952"><ele>91.0</ele><time>2026-04-25T13:25:06.437Z</time></trkpt><trkpt lat="44.1686875" lon="11.954248"><ele>91.0</ele><time>2026-04-25T13:25:07.44Z</time></trkpt><trkpt lat="44.1686347" lon="11.9543725"><ele>91.0</ele><time>2026-04-25T13:25:08.449Z</time></trkpt><trkpt lat="44.1685898" lon="11.9544703"><ele>91.0</ele><time>2026-04-25T13:25:09.447Z</time></trkpt><trkpt lat="44.1685333" lon="11.9545429"><ele>91.33333333333333</ele><time>2026-04-25T13:25:10.45Z</time></trkpt><trkpt lat="44.1684619" lon="11.954594"><ele>91.66666666666666</ele><time>2026-04-25T13:25:11.438Z</time></trkpt><trkpt lat="44.1683923" lon="11.9546039"><ele>92.0</ele><time>2026-04-25T13:25:12.45Z</time></trkpt><trkpt lat="44.1682883" lon="11.9545691"><ele>92.33333333333333</ele><time>2026-04-25T13:25:14.44Z</time></trkpt><trkpt lat="44.1682262" lon="11.9546376"><ele>92.66666666666667</ele><time>2026-04-25T13:25:17.441Z</time></trkpt><trkpt lat="44.1682842" lon="11.9547008"><ele>93.0</ele><time>2026-04-25T13:25:21.433Z</time></trkpt><trkpt lat="44.1683266" lon="11.9545907"><ele>93.0</ele><time>2026-04-25T13:25:25.445Z</time></trkpt><trkpt lat="44.1684389" lon="11.954571"><ele>93.0</ele><time>2026-04-25T13:25:28.44Z</time></trkpt><trkpt lat="44.1685482" lon="11.9545337"><ele>93.0</ele><time>2026-04-25T13:25:30.453Z</time></trkpt><trkpt lat="44.1686205" lon="11.9545127"><ele>93.0</ele><time>2026-04-25T13:25:34.44Z</time></trkpt><trkpt lat="44.1686114" lon="11.9546177"><ele>93.0</ele><time>2026-04-25T13:25:42.438Z</time></trkpt><trkpt lat="44.1685396" lon="11.9547036"><ele>93.0</ele><time>2026-04-25T13:25:44.441Z</time></trkpt><trkpt lat="44.1684445" lon="11.9547556"><ele>93.0</ele><time>2026-04-25T13:25:46.441Z</time></trkpt><trkpt lat="44.1683412" lon="11.9547626"><ele>93.0</ele><time>2026-04-25T13:25:48.442Z</time></trkpt><trkpt lat="44.168255" lon="11.9547485"><ele>93.0</ele><time>2026-04-25T13:25:50.445Z</time></trkpt><trkpt lat="44.1681969" lon="11.9547133"><ele>93.0</ele><time>2026-04-25T13:25:52.454Z</time></trkpt><trkpt lat="44.1681005" lon="11.9546455"><ele>94.4</ele><time>2026-04-25T13:26:07.432Z</time></trkpt><trkpt lat="44.1680623" lon="11.9545514"><ele>95.80000000000001</ele><time>2026-04-25T13:26:08.433Z</time></trkpt><trkpt lat="44.1680112" lon="11.9544344"><ele>97.2</ele><time>2026-04-25T13:26:09.441Z</time></trkpt><trkpt lat="44.1679477" lon="11.9542955"><ele>98.6</ele><time>2026-04-25T13:26:10.426Z</time></trkpt><trkpt lat="44.1678739" lon="11.9541337"><ele>100.0</ele><time>2026-04-25T13:26:11.439Z</time></trkpt><trkpt lat="44.1677932" lon="11.9539546"><ele>100.0</ele><time>2026-04-25T13:26:12.433Z</time></trkpt><trkpt lat="44.1677142" lon="11.9537521"><ele>100.0</ele><time>2026-04-25T13:26:13.438Z</time></trkpt><trkpt lat="44.1676278" lon="11.9535433"><ele>100.0</ele><time>2026-04-25T13:26:14.435Z</time></trkpt><trkpt lat="44.1675365" lon="11.9533347"><ele>101.66666666666667</ele><time>2026-04-25T13:26:15.435Z</time></trkpt><trkpt lat="44.1674388" lon="11.9531232"><ele>103.33333333333334</ele><time>2026-04-25T13:26:16.446Z</time></trkpt><trkpt lat="44.1673373" lon="11.9528935"><ele>105.0</ele><time>2026-04-25T13:26:17.437Z</time></trkpt><trkpt lat="44.1672303" lon="11.9526512"><ele>102.33333333333334</ele><time>2026-04-25T13:26:18.442Z</time></trkpt><trkpt lat="44.1671175" lon="11.9524052"><ele>99.66666666666667</ele><time>2026-04-25T13:26:19.442Z</time></trkpt><trkpt lat="44.1670013" lon="11.9521513"><ele>97.0</ele><time>2026-04-25T13:26:20.456Z</time></trkpt><trkpt lat="44.1668831" lon="11.9518838"><ele>93.0</ele><time>2026-04-25T13:26:21.432Z</time></trkpt><trkpt lat="44.1667627" lon="11.9516065"><ele>89.0</ele><time>2026-04-25T13:26:22.454Z</time></trkpt><trkpt lat="44.1666367" lon="11.951333"><ele>87.33333333333334</ele><time>2026-04-25T13:26:23.436Z</time></trkpt><trkpt lat="44.1665187" lon="11.9510724"><ele>85.66666666666667</ele><time>2026-04-25T13:26:24.445Z</time></trkpt><trkpt lat="44.1664067" lon="11.9508189"><ele>84.0</ele><time>2026-04-25T13:26:25.444Z</time></trkpt><trkpt lat="44.1662967" lon="11.9505658"><ele>84.0</ele><time>2026-04-25T13:26:26.445Z</time></trkpt><trkpt lat="44.1661869" lon="11.9503119"><ele>84.0</ele><time>2026-04-25T13:26:27.439Z</time></trkpt><trkpt lat="44.1660823" lon="11.950043"><ele>84.0</ele><time>2026-04-25T13:26:28.433Z</time></trkpt><trkpt lat="44.165991" lon="11.9497599"><ele>77.5</ele><time>2026-04-25T13:26:29.43Z</time></trkpt><trkpt lat="44.1659126" lon="11.949471"><ele>71.0</ele><time>2026-04-25T13:26:30.439Z</time></trkpt><trkpt lat="44.1658354" lon="11.9491718"><ele>68.5</ele><time>2026-04-25T13:26:31.444Z</time></trkpt><trkpt lat="44.165768" lon="11.9488598"><ele>66.0</ele><time>2026-04-25T13:26:32.452Z</time></trkpt><trkpt lat="44.1657084" lon="11.9485387"><ele>64.5</ele><time>2026-04-25T13:26:33.442Z</time></trkpt><trkpt lat="44.1656562" lon="11.9482213"><ele>63.0</ele><time>2026-04-25T13:26:34.444Z</time></trkpt><trkpt lat="44.1656139" lon="11.9479182"><ele>63.0</ele><time>2026-04-25T13:26:35.437Z</time></trkpt><trkpt lat="44.1655736" lon="11.9476304"><ele>63.0</ele><time>2026-04-25T13:26:36.441Z</time></trkpt><trkpt lat="44.1655336" lon="11.947352"><ele>63.0</ele><time>2026-04-25T13:26:37.438Z</time></trkpt><trkpt lat="44.1654916" lon="11.9470756"><ele>63.33333333333333</ele><time>2026-04-25T13:26:38.434Z</time></trkpt><trkpt lat="44.1654498" lon="11.9467991"><ele>63.666666666666664</ele><time>2026-04-25T13:26:39.444Z</time></trkpt><trkpt lat="44.1654076" lon="11.9465371"><ele>64.0</ele><time>2026-04-25T13:26:40.446Z</time></trkpt><trkpt lat="44.165366" lon="11.9462737"><ele>64.66666666666666</ele><time>2026-04-25T13:26:41.452Z</time></trkpt><trkpt lat="44.1653179" lon="11.9459786"><ele>65.33333333333333</ele><time>2026-04-25T13:26:42.448Z</time></trkpt><trkpt lat="44.1652733" lon="11.9456706"><ele>66.0</ele><time>2026-04-25T13:26:43.439Z</time></trkpt><trkpt lat="44.1652331" lon="11.9453809"><ele>66.66666666666667</ele><time>2026-04-25T13:26:44.456Z</time></trkpt><trkpt lat="44.1651954" lon="11.9451153"><ele>67.33333333333334</ele><time>2026-04-25T13:26:45.448Z</time></trkpt><trkpt lat="44.1651515" lon="11.9448751"><ele>68.0</ele><time>2026-04-25T13:26:46.439Z</time></trkpt><trkpt lat="44.1650956" lon="11.9446394"><ele>68.0</ele><time>2026-04-25T13:26:47.445Z</time></trkpt><trkpt lat="44.1650295" lon="11.9444038"><ele>68.0</ele><time>2026-04-25T13:26:48.451Z</time></trkpt><trkpt lat="44.1649549" lon="11.9441697"><ele>68.0</ele><time>2026-04-25T13:26:49.439Z</time></trkpt><trkpt lat="44.1648728" lon="11.9439372"><ele>70.0</ele><time>2026-04-25T13:26:50.453Z</time></trkpt><trkpt lat="44.1647861" lon="11.9437101"><ele>72.0</ele><time>2026-04-25T13:26:51.436Z</time></trkpt><trkpt lat="44.1646866" lon="11.9434859"><ele>74.0</ele><time>2026-04-25T13:26:52.434Z</time></trkpt><trkpt lat="44.1645834" lon="11.9432721"><ele>74.66666666666667</ele><time>2026-04-25T13:26:53.436Z</time></trkpt><trkpt lat="44.1644738" lon="11.9430748"><ele>75.33333333333333</ele><time>2026-04-25T13:26:54.445Z</time></trkpt><trkpt lat="44.1643614" lon="11.9428919"><ele>76.0</ele><time>2026-04-25T13:26:55.433Z</time></trkpt><trkpt lat="44.1642384" lon="11.9427092"><ele>76.0</ele><time>2026-04-25T13:26:56.435Z</time></trkpt><trkpt lat="44.1640997" lon="11.9425189"><ele>76.0</ele><time>2026-04-25T13:26:57.438Z</time></trkpt><trkpt lat="44.1639514" lon="11.9423404"><ele>76.0</ele><time>2026-04-25T13:26:58.443Z</time></trkpt><trkpt lat="44.163796" lon="11.9421702"><ele>75.33333333333333</ele><time>2026-04-25T13:26:59.441Z</time></trkpt><trkpt lat="44.1636265" lon="11.9420063"><ele>74.66666666666667</ele><time>2026-04-25T13:27:00.45Z</time></trkpt><trkpt lat="44.1634469" lon="11.9418451"><ele>74.0</ele><time>2026-04-25T13:27:01.44Z</time></trkpt><trkpt lat="44.1632607" lon="11.9416939"><ele>73.66666666666667</ele><time>2026-04-25T13:27:02.431Z</time></trkpt><trkpt lat="44.1630673" lon="11.9415563"><ele>73.33333333333333</ele><time>2026-04-25T13:27:03.438Z</time></trkpt><trkpt lat="44.1628811" lon="11.941415"><ele>73.0</ele><time>2026-04-25T13:27:04.433Z</time></trkpt><trkpt lat="44.1626951" lon="11.9412725"><ele>73.0</ele><time>2026-04-25T13:27:05.43Z</time></trkpt><trkpt lat="44.1625042" lon="11.9411352"><ele>73.0</ele><time>2026-04-25T13:27:06.433Z</time></trkpt><trkpt lat="44.1623138" lon="11.9409936"><ele>73.0</ele><time>2026-04-25T13:27:07.45Z</time></trkpt><trkpt lat="44.1621246" lon="11.9408526"><ele>72.66666666666666</ele><time>2026-04-25T13:27:08.439Z</time></trkpt><trkpt lat="44.1619412" lon="11.9407003"><ele>72.33333333333333</ele><time>2026-04-25T13:27:09.445Z</time></trkpt><trkpt lat="44.1617689" lon="11.9405482"><ele>72.0</ele><time>2026-04-25T13:27:10.441Z</time></trkpt><trkpt lat="44.1616083" lon="11.9403986"><ele>71.0</ele><time>2026-04-25T13:27:11.44Z</time></trkpt><trkpt lat="44.1614552" lon="11.9402611"><ele>70.0</ele><time>2026-04-25T13:27:12.44Z</time></trkpt><trkpt lat="44.1613108" lon="11.9401402"><ele>69.0</ele><time>2026-04-25T13:27:13.434Z</time></trkpt><trkpt lat="44.1611728" lon="11.940034"><ele>69.0</ele><time>2026-04-25T13:27:14.437Z</time></trkpt><trkpt lat="44.1610351" lon="11.9399271"><ele>69.0</ele><time>2026-04-25T13:27:15.443Z</time></trkpt><trkpt lat="44.1608967" lon="11.9398052"><ele>69.0</ele><time>2026-04-25T13:27:16.432Z</time></trkpt><trkpt lat="44.1607523" lon="11.9396823"><ele>68.66666666666667</ele><time>2026-04-25T13:27:17.439Z</time></trkpt><trkpt lat="44.1606075" lon="11.9395594"><ele>68.33333333333334</ele><time>2026-04-25T13:27:18.466Z</time></trkpt><trkpt lat="44.1604689" lon="11.9394489"><ele>68.0</ele><time>2026-04-25T13:27:19.45Z</time></trkpt><trkpt lat="44.1603454" lon="11.9393449"><ele>68.0</ele><time>2026-04-25T13:27:20.451Z</time></trkpt><trkpt lat="44.1602273" lon="11.9392473"><ele>68.0</ele><time>2026-04-25T13:27:21.444Z</time></trkpt><trkpt lat="44.1601164" lon="11.9391542"><ele>68.0</ele><time>2026-04-25T13:27:22.446Z</time></trkpt><trkpt lat="44.1600059" lon="11.9390596"><ele>68.0</ele><time>2026-04-25T13:27:23.462Z</time></trkpt><trkpt lat="44.1598982" lon="11.9389686"><ele>68.4</ele><time>2026-04-25T13:27:24.435Z</time></trkpt><trkpt lat="44.1598046" lon="11.938884"><ele>68.8</ele><time>2026-04-25T13:27:25.446Z</time></trkpt><trkpt lat="44.159723" lon="11.9388049"><ele>69.2</ele><time>2026-04-25T13:27:26.432Z</time></trkpt><trkpt lat="44.1596562" lon="11.9387525"><ele>69.6</ele><time>2026-04-25T13:27:27.44Z</time></trkpt><trkpt lat="44.1595888" lon="11.9387348"><ele>70.0</ele><time>2026-04-25T13:27:28.433Z</time></trkpt><trkpt lat="44.1595032" lon="11.9388023"><ele>70.0</ele><time>2026-04-25T13:27:30.448Z</time></trkpt><trkpt lat="44.1594304" lon="11.9388828"><ele>70.0</ele><time>2026-04-25T13:27:32.432Z</time></trkpt><trkpt lat="44.1594212" lon="11.9389984"><ele>70.0</ele><time>2026-04-25T13:27:34.431Z</time></trkpt><trkpt lat="44.1593494" lon="11.939009"><ele>70.0</ele><time>2026-04-25T13:27:52.451Z</time></trkpt><trkpt lat="44.1592941" lon="11.9389639"><ele>70.0</ele><time>2026-04-25T13:27:53.44Z</time></trkpt><trkpt lat="44.1592475" lon="11.9388771"><ele>70.0</ele><time>2026-04-25T13:27:54.453Z</time></trkpt><trkpt lat="44.1591825" lon="11.9387934"><ele>70.0</ele><time>2026-04-25T13:27:55.437Z</time></trkpt><trkpt lat="44.1590671" lon="11.9387146"><ele>70.0</ele><time>2026-04-25T13:27:56.425Z</time></trkpt><trkpt lat="44.1589521" lon="11.9386188"><ele>70.0</ele><time>2026-04-25T13:27:57.432Z</time></trkpt><trkpt lat="44.1588512" lon="11.9385106"><ele>70.0</ele><time>2026-04-25T13:27:58.452Z</time></trkpt><trkpt lat="44.1587563" lon="11.9383971"><ele>71.5</ele><time>2026-04-25T13:27:59.434Z</time></trkpt><trkpt lat="44.1586647" lon="11.938273"><ele>73.0</ele><time>2026-04-25T13:28:00.447Z</time></trkpt><trkpt lat="44.1585652" lon="11.9381495"><ele>74.5</ele><time>2026-04-25T13:28:01.439Z</time></trkpt><trkpt lat="44.1584759" lon="11.938033"><ele>76.0</ele><time>2026-04-25T13:28:02.446Z</time></trkpt><trkpt lat="44.1584012" lon="11.9379283"><ele>76.0</ele><time>2026-04-25T13:28:03.453Z</time></trkpt><trkpt lat="44.1583285" lon="11.9378346"><ele>76.0</ele><time>2026-04-25T13:28:04.446Z</time></trkpt><trkpt lat="44.1582661" lon="11.9377409"><ele>76.0</ele><time>2026-04-25T13:28:05.44Z</time></trkpt><trkpt lat="44.1582078" lon="11.9376598"><ele>76.0</ele><time>2026-04-25T13:28:06.429Z</time></trkpt><trkpt lat="44.158154" lon="11.9375896"><ele>76.0</ele><time>2026-04-25T13:28:07.43Z</time></trkpt><trkpt lat="44.1581045" lon="11.9375268"><ele>76.0</ele><time>2026-04-25T13:28:08.447Z</time></trkpt><trkpt lat="44.1580227" lon="11.9374083"><ele>76.39999999999999</ele><time>2026-04-25T13:28:10.449Z</time></trkpt><trkpt lat="44.1579828" lon="11.9373304"><ele>76.8</ele><time>2026-04-25T13:28:11.43Z</time></trkpt><trkpt lat="44.1579377" lon="11.9372335"><ele>77.19999999999999</ele><time>2026-04-25T13:28:12.458Z</time></trkpt><trkpt lat="44.1578803" lon="11.9371216"><ele>77.6</ele><time>2026-04-25T13:28:13.444Z</time></trkpt><trkpt lat="44.1578092" lon="11.9369938"><ele>78.0</ele><time>2026-04-25T13:28:14.438Z</time></trkpt><trkpt lat="44.1577252" lon="11.9368526"><ele>78.25</ele><time>2026-04-25T13:28:15.434Z</time></trkpt><trkpt lat="44.1576302" lon="11.936696"><ele>78.5</ele><time>2026-04-25T13:28:16.443Z</time></trkpt><trkpt lat="44.1575454" lon="11.9365394"><ele>78.75</ele><time>2026-04-25T13:28:17.443Z</time></trkpt><trkpt lat="44.1574526" lon="11.9363836"><ele>79.0</ele><time>2026-04-25T13:28:18.444Z</time></trkpt><trkpt lat="44.1573583" lon="11.9362107"><ele>79.66666666666666</ele><time>2026-04-25T13:28:19.451Z</time></trkpt><trkpt lat="44.1572591" lon="11.9360148"><ele>80.33333333333333</ele><time>2026-04-25T13:28:20.437Z</time></trkpt><trkpt lat="44.1571496" lon="11.9358128"><ele>81.0</ele><time>2026-04-25T13:28:21.441Z</time></trkpt><trkpt lat="44.1570368" lon="11.9356109"><ele>81.33333333333333</ele><time>2026-04-25T13:28:22.439Z</time></trkpt><trkpt lat="44.156923" lon="11.9354076"><ele>81.66666666666666</ele><time>2026-04-25T13:28:23.455Z</time></trkpt><trkpt lat="44.1567984" lon="11.9352157"><ele>82.0</ele><time>2026-04-25T13:28:24.462Z</time></trkpt><trkpt lat="44.1566662" lon="11.935026"><ele>82.0</ele><time>2026-04-25T13:28:25.444Z</time></trkpt><trkpt lat="44.1565274" lon="11.9348348"><ele>82.0</ele><time>2026-04-25T13:28:26.449Z</time></trkpt><trkpt lat="44.1563757" lon="11.9346445"><ele>82.0</ele><time>2026-04-25T13:28:27.448Z</time></trkpt><trkpt lat="44.1562093" lon="11.9344568"><ele>82.0</ele><time>2026-04-25T13:28:28.456Z</time></trkpt><trkpt lat="44.1560353" lon="11.9342717"><ele>82.0</ele><time>2026-04-25T13:28:29.44Z</time></trkpt><trkpt lat="44.1558693" lon="11.9341056"><ele>82.0</ele><time>2026-04-25T13:28:30.442Z</time></trkpt><trkpt lat="44.1557187" lon="11.9339568"><ele>83.0</ele><time>2026-04-25T13:28:31.448Z</time></trkpt><trkpt lat="44.1555718" lon="11.933818"><ele>84.0</ele><time>2026-04-25T13:28:32.441Z</time></trkpt><trkpt lat="44.1554391" lon="11.9336971"><ele>85.0</ele><time>2026-04-25T13:28:33.457Z</time></trkpt><trkpt lat="44.1553096" lon="11.9335754"><ele>85.0</ele><time>2026-04-25T13:28:34.46Z</time></trkpt><trkpt lat="44.1551858" lon="11.9334402"><ele>85.0</ele><time>2026-04-25T13:28:35.442Z</time></trkpt><trkpt lat="44.1550639" lon="11.9333079"><ele>85.0</ele><time>2026-04-25T13:28:36.459Z</time></trkpt><trkpt lat="44.154951" lon="11.933192"><ele>86.25</ele><time>2026-04-25T13:28:37.44Z</time></trkpt><trkpt lat="44.1548437" lon="11.9330977"><ele>87.5</ele><time>2026-04-25T13:28:38.441Z</time></trkpt><trkpt lat="44.1547348" lon="11.9329988"><ele>88.75</ele><time>2026-04-25T13:28:39.442Z</time></trkpt><trkpt lat="44.1546219" lon="11.9328863"><ele>90.0</ele><time>2026-04-25T13:28:40.452Z</time></trkpt><trkpt lat="44.1545007" lon="11.9327737"><ele>90.0</ele><time>2026-04-25T13:28:41.443Z</time></trkpt><trkpt lat="44.1543731" lon="11.9326436"><ele>90.0</ele><time>2026-04-25T13:28:42.452Z</time></trkpt><trkpt lat="44.1542384" lon="11.9325084"><ele>90.0</ele><time>2026-04-25T13:28:43.438Z</time></trkpt><trkpt lat="44.1541019" lon="11.9323633"><ele>90.66666666666667</ele><time>2026-04-25T13:28:44.44Z</time></trkpt><trkpt lat="44.1539685" lon="11.9322305"><ele>91.33333333333334</ele><time>2026-04-25T13:28:45.446Z</time></trkpt><trkpt lat="44.1538464" lon="11.9320972"><ele>92.0</ele><time>2026-04-25T13:28:46.45Z</time></trkpt><trkpt lat="44.1537354" lon="11.9319601"><ele>92.0</ele><time>2026-04-25T13:28:47.445Z</time></trkpt><trkpt lat="44.1536307" lon="11.9318407"><ele>92.0</ele><time>2026-04-25T13:28:48.452Z</time></trkpt><trkpt lat="44.1535387" lon="11.9317148"><ele>92.0</ele><time>2026-04-25T13:28:49.443Z</time></trkpt><trkpt lat="44.1534424" lon="11.9315944"><ele>92.0</ele><time>2026-04-25T13:28:50.441Z</time></trkpt><trkpt lat="44.1533443" lon="11.9314733"><ele>92.0</ele><time>2026-04-25T13:28:51.431Z</time></trkpt><trkpt lat="44.1532439" lon="11.9313471"><ele>92.0</ele><time>2026-04-25T13:28:52.44Z</time></trkpt><trkpt lat="44.1531471" lon="11.931222"><ele>92.0</ele><time>2026-04-25T13:28:53.436Z</time></trkpt><trkpt lat="44.1530554" lon="11.9310923"><ele>92.0</ele><time>2026-04-25T13:28:54.442Z</time></trkpt><trkpt lat="44.1529651" lon="11.9309612"><ele>91.5</ele><time>2026-04-25T13:28:55.43Z</time></trkpt><trkpt lat="44.1528744" lon="11.9308183"><ele>91.0</ele><time>2026-04-25T13:28:56.443Z</time></trkpt><trkpt lat="44.1528013" lon="11.9306722"><ele>90.5</ele><time>2026-04-25T13:28:57.444Z</time></trkpt><trkpt lat="44.1527429" lon="11.9305444"><ele>90.0</ele><time>2026-04-25T13:28:58.438Z</time></trkpt><trkpt lat="44.152709" lon="11.9304161"><ele>90.0</ele><time>2026-04-25T13:28:59.465Z</time></trkpt><trkpt lat="44.1526972" lon="11.9302648"><ele>90.0</ele><time>2026-04-25T13:29:00.45Z</time></trkpt><trkpt lat="44.1527253" lon="11.9300908"><ele>90.0</ele><time>2026-04-25T13:29:01.437Z</time></trkpt><trkpt lat="44.152776" lon="11.9298973"><ele>90.0</ele><time>2026-04-25T13:29:02.467Z</time></trkpt><trkpt lat="44.1528239" lon="11.9296877"><ele>89.33333333333333</ele><time>2026-04-25T13:29:03.454Z</time></trkpt><trkpt lat="44.152852" lon="11.9294623"><ele>88.66666666666666</ele><time>2026-04-25T13:29:04.451Z</time></trkpt><trkpt lat="44.1528535" lon="11.9292366"><ele>88.0</ele><time>2026-04-25T13:29:05.433Z</time></trkpt><trkpt lat="44.1528314" lon="11.9290122"><ele>87.66666666666666</ele><time>2026-04-25T13:29:06.448Z</time></trkpt><trkpt lat="44.152788" lon="11.9287941"><ele>87.33333333333333</ele><time>2026-04-25T13:29:07.461Z</time></trkpt><trkpt lat="44.1527221" lon="11.9285949"><ele>87.0</ele><time>2026-04-25T13:29:08.449Z</time></trkpt><trkpt lat="44.1526251" lon="11.9284081"><ele>86.33333333333333</ele><time>2026-04-25T13:29:09.45Z</time></trkpt><trkpt lat="44.1525067" lon="11.9282202"><ele>85.66666666666666</ele><time>2026-04-25T13:29:10.452Z</time></trkpt><trkpt lat="44.152391" lon="11.928044"><ele>85.0</ele><time>2026-04-25T13:29:11.457Z</time></trkpt><trkpt lat="44.1522925" lon="11.9278899"><ele>85.0</ele><time>2026-04-25T13:29:12.444Z</time></trkpt><trkpt lat="44.1522106" lon="11.9277512"><ele>85.0</ele><time>2026-04-25T13:29:13.444Z</time></trkpt><trkpt lat="44.1521407" lon="11.9276351"><ele>85.0</ele><time>2026-04-25T13:29:14.452Z</time></trkpt><trkpt lat="44.1520777" lon="11.9275508"><ele>85.0</ele><time>2026-04-25T13:29:15.435Z</time></trkpt><trkpt lat="44.1520256" lon="11.9274823"><ele>85.0</ele><time>2026-04-25T13:29:16.462Z</time></trkpt><trkpt lat="44.1520078" lon="11.9273875"><ele>85.8</ele><time>2026-04-25T13:29:18.439Z</time></trkpt><trkpt lat="44.1520702" lon="11.9273614"><ele>86.6</ele><time>2026-04-25T13:29:36.467Z</time></trkpt><trkpt lat="44.1521652" lon="11.9273807"><ele>87.4</ele><time>2026-04-25T13:29:38.443Z</time></trkpt><trkpt lat="44.1522369" lon="11.9274216"><ele>88.2</ele><time>2026-04-25T13:29:39.443Z</time></trkpt><trkpt lat="44.1523357" lon="11.9274627"><ele>89.0</ele><time>2026-04-25T13:29:40.433Z</time></trkpt><trkpt lat="44.1524424" lon="11.9275349"><ele>89.5</ele><time>2026-04-25T13:29:41.451Z</time></trkpt><trkpt lat="44.1525566" lon="11.9276383"><ele>90.0</ele><time>2026-04-25T13:29:42.447Z</time></trkpt><trkpt lat="44.1526612" lon="11.9277571"><ele>90.5</ele><time>2026-04-25T13:29:43.443Z</time></trkpt><trkpt lat="44.1527474" lon="11.9278488"><ele>91.0</ele><time>2026-04-25T13:29:44.457Z</time></trkpt><trkpt lat="44.1528154" lon="11.9279278"><ele>91.0</ele><time>2026-04-25T13:29:45.45Z</time></trkpt><trkpt lat="44.15289" lon="11.9280406"><ele>91.0</ele><time>2026-04-25T13:29:47.44Z</time></trkpt><trkpt lat="44.152966" lon="11.9279765"><ele>91.0</ele><time>2026-04-25T13:29:50.44Z</time></trkpt><trkpt lat="44.1529503" lon="11.9278341"><ele>91.0</ele><time>2026-04-25T13:29:52.448Z</time></trkpt><trkpt lat="44.1529499" lon="11.9277417"><ele>91.0</ele><time>2026-04-25T13:29:53.445Z</time></trkpt><trkpt lat="44.1529663" lon="11.9276487"><ele>91.0</ele><time>2026-04-25T13:29:54.451Z</time></trkpt><trkpt lat="44.1530055" lon="11.9275475"><ele>92.0</ele><time>2026-04-25T13:29:55.476Z</time></trkpt><trkpt lat="44.1530614" lon="11.9274459"><ele>93.0</ele><time>2026-04-25T13:29:56.458Z</time></trkpt><trkpt lat="44.1531217" lon="11.9273332"><ele>94.0</ele><time>2026-04-25T13:29:57.445Z</time></trkpt><trkpt lat="44.1531826" lon="11.9272157"><ele>95.0</ele><time>2026-04-25T13:29:58.439Z</time></trkpt><trkpt lat="44.1532446" lon="11.9270891"><ele>96.0</ele><time>2026-04-25T13:29:59.445Z</time></trkpt><trkpt lat="44.1533126" lon="11.9269565"><ele>97.8</ele><time>2026-04-25T13:30:00.439Z</time></trkpt><trkpt lat="44.1533758" lon="11.9268232"><ele>99.6</ele><time>2026-04-25T13:30:01.438Z</time></trkpt><trkpt lat="44.153444" lon="11.9266933"><ele>101.4</ele><time>2026-04-25T13:30:02.45Z</time></trkpt><trkpt lat="44.1535076" lon="11.9265659"><ele>103.2</ele><time>2026-04-25T13:30:03.444Z</time></trkpt><trkpt lat="44.1535635" lon="11.9264422"><ele>105.0</ele><time>2026-04-25T13:30:04.448Z</time></trkpt><trkpt lat="44.1536131" lon="11.9263393"><ele>105.33333333333333</ele><time>2026-04-25T13:30:05.45Z</time></trkpt><trkpt lat="44.1536547" lon="11.9262518"><ele>105.66666666666666</ele><time>2026-04-25T13:30:06.444Z</time></trkpt><trkpt lat="44.1537183" lon="11.9261276"><ele>106.0</ele><time>2026-04-25T13:30:08.442Z</time></trkpt><trkpt lat="44.1537564" lon="11.9260574"><ele>106.33333333333333</ele><time>2026-04-25T13:30:10.44Z</time></trkpt><trkpt lat="44.1537786" lon="11.9259718"><ele>106.66666666666666</ele><time>2026-04-25T13:30:13.45Z</time></trkpt><trkpt lat="44.1537072" lon="11.9258951"><ele>107.0</ele><time>2026-04-25T13:30:16.448Z</time></trkpt><trkpt lat="44.1536121" lon="11.9258321"><ele>107.39999999999999</ele><time>2026-04-25T13:30:18.45Z</time></trkpt><trkpt lat="44.1535111" lon="11.9257627"><ele>107.79999999999998</ele><time>2026-04-25T13:30:20.454Z</time></trkpt><trkpt lat="44.1534076" lon="11.9256808"><ele>108.2</ele><time>2026-04-25T13:30:22.441Z</time></trkpt><trkpt lat="44.1533227" lon="11.9255678"><ele>108.6</ele><time>2026-04-25T13:30:24.449Z</time></trkpt><trkpt lat="44.153287" lon="11.9254832"><ele>109.0</ele><time>2026-04-25T13:30:25.449Z</time></trkpt><trkpt lat="44.1532485" lon="11.9253952"><ele>109.0</ele><time>2026-04-25T13:30:26.463Z</time></trkpt><trkpt lat="44.1532058" lon="11.9252988"><ele>109.0</ele><time>2026-04-25T13:30:27.451Z</time></trkpt><trkpt lat="44.1531576" lon="11.925193"><ele>109.0</ele><time>2026-04-25T13:30:28.434Z</time></trkpt><trkpt lat="44.1531098" lon="11.9250742"><ele>109.0</ele><time>2026-04-25T13:30:29.445Z</time></trkpt><trkpt lat="44.1530565" lon="11.9249483"><ele>109.0</ele><time>2026-04-25T13:30:30.457Z</time></trkpt><trkpt lat="44.1530117" lon="11.9248276"><ele>108.33333333333334</ele><time>2026-04-25T13:30:31.448Z</time></trkpt><trkpt lat="44.1529689" lon="11.9247186"><ele>107.66666666666667</ele><time>2026-04-25T13:30:32.436Z</time></trkpt><trkpt lat="44.1529265" lon="11.9246119"><ele>107.0</ele><time>2026-04-25T13:30:33.444Z</time></trkpt><trkpt lat="44.1528876" lon="11.9245056"><ele>106.33333333333334</ele><time>2026-04-25T13:30:34.458Z</time></trkpt><trkpt lat="44.1528404" lon="11.924398"><ele>105.66666666666667</ele><time>2026-04-25T13:30:35.443Z</time></trkpt><trkpt lat="44.1527996" lon="11.9243012"><ele>105.0</ele><time>2026-04-25T13:30:36.459Z</time></trkpt><trkpt lat="44.1527622" lon="11.924221"><ele>105.0</ele><time>2026-04-25T13:30:37.445Z</time></trkpt><trkpt lat="44.1526951" lon="11.9241099"><ele>105.0</ele><time>2026-04-25T13:30:39.437Z</time></trkpt><trkpt lat="44.1526405" lon="11.9240509"><ele>105.0</ele><time>2026-04-25T13:30:41.448Z</time></trkpt><trkpt lat="44.152571" lon="11.924074"><ele>105.0</ele><time>2026-04-25T13:30:43.442Z</time></trkpt><trkpt lat="44.1524996" lon="11.9242094"><ele>105.0</ele><time>2026-04-25T13:30:45.459Z</time></trkpt><trkpt lat="44.1524607" lon="11.9242925"><ele>105.0</ele><time>2026-04-25T13:30:46.442Z</time></trkpt><trkpt lat="44.1523973" lon="11.9244311"><ele>103.0</ele><time>2026-04-25T13:30:48.445Z</time></trkpt><trkpt lat="44.1523466" lon="11.9245398"><ele>101.0</ele><time>2026-04-25T13:30:50.443Z</time></trkpt><trkpt lat="44.1522997" lon="11.9246363"><ele>99.0</ele><time>2026-04-25T13:30:52.451Z</time></trkpt><trkpt lat="44.1522488" lon="11.9247425"><ele>97.0</ele><time>2026-04-25T13:30:54.449Z</time></trkpt><trkpt lat="44.1522123" lon="11.9248402"><ele>95.0</ele><time>2026-04-25T13:30:56.446Z</time></trkpt><trkpt lat="44.1521448" lon="11.9248919"><ele>93.0</ele><time>2026-04-25T13:30:59.445Z</time></trkpt><trkpt lat="44.1520708" lon="11.9248731"><ele>93.0</ele><time>2026-04-25T13:31:07.425Z</time></trkpt><trkpt lat="44.1519833" lon="11.9248476"><ele>93.0</ele><time>2026-04-25T13:31:10.429Z</time></trkpt><trkpt lat="44.1518976" lon="11.9248564"><ele>93.0</ele><time>2026-04-25T13:31:12.454Z</time></trkpt><trkpt lat="44.1518079" lon="11.924876"><ele>93.0</ele><time>2026-04-25T13:31:14.444Z</time></trkpt><trkpt lat="44.151708" lon="11.9249046"><ele>93.0</ele><time>2026-04-25T13:31:16.453Z</time></trkpt><trkpt lat="44.1515917" lon="11.9249352"><ele>93.0</ele><time>2026-04-25T13:31:18.448Z</time></trkpt><trkpt lat="44.1515186" lon="11.9249269"><ele>93.0</ele><time>2026-04-25T13:31:20.447Z</time></trkpt><trkpt lat="44.1515316" lon="11.9248247"><ele>93.0</ele><time>2026-04-25T13:31:23.458Z</time></trkpt><trkpt lat="44.1515777" lon="11.9247392"><ele>93.0</ele><time>2026-04-25T13:31:25.439Z</time></trkpt><trkpt lat="44.1516375" lon="11.9245906"><ele>93.0</ele><time>2026-04-25T13:31:27.444Z</time></trkpt><trkpt lat="44.1516619" lon="11.9245006"><ele>93.0</ele><time>2026-04-25T13:31:28.439Z</time></trkpt><trkpt lat="44.1516925" lon="11.9244222"><ele>93.0</ele><time>2026-04-25T13:31:29.435Z</time></trkpt><trkpt lat="44.1517273" lon="11.9243322"><ele>93.0</ele><time>2026-04-25T13:31:30.44Z</time></trkpt><trkpt lat="44.1517659" lon="11.9242276"><ele>93.0</ele><time>2026-04-25T13:31:31.44Z</time></trkpt><trkpt lat="44.1518098" lon="11.9241141"><ele>93.0</ele><time>2026-04-25T13:31:32.431Z</time></trkpt><trkpt lat="44.1518586" lon="11.9239932"><ele>93.0</ele><time>2026-04-25T13:31:33.434Z</time></trkpt><trkpt lat="44.1519091" lon="11.9238664"><ele>92.5</ele><time>2026-04-25T13:31:34.439Z</time></trkpt><trkpt lat="44.1519687" lon="11.9237391"><ele>92.0</ele><time>2026-04-25T13:31:35.448Z</time></trkpt><trkpt lat="44.1520284" lon="11.9235957"><ele>91.5</ele><time>2026-04-25T13:31:36.433Z</time></trkpt><trkpt lat="44.1520931" lon="11.9234523"><ele>91.0</ele><time>2026-04-25T13:31:37.43Z</time></trkpt><trkpt lat="44.1521619" lon="11.9233024"><ele>92.0</ele><time>2026-04-25T13:31:38.435Z</time></trkpt><trkpt lat="44.1522368" lon="11.9231587"><ele>93.0</ele><time>2026-04-25T13:31:39.436Z</time></trkpt><trkpt lat="44.1523146" lon="11.9230112"><ele>94.0</ele><time>2026-04-25T13:31:40.443Z</time></trkpt><trkpt lat="44.1523995" lon="11.9228598"><ele>95.0</ele><time>2026-04-25T13:31:41.436Z</time></trkpt><trkpt lat="44.1524849" lon="11.9227053"><ele>95.25</ele><time>2026-04-25T13:31:42.444Z</time></trkpt><trkpt lat="44.1525648" lon="11.9225428"><ele>95.5</ele><time>2026-04-25T13:31:43.436Z</time></trkpt><trkpt lat="44.1526411" lon="11.922371"><ele>95.75</ele><time>2026-04-25T13:31:44.445Z</time></trkpt><trkpt lat="44.1527186" lon="11.9222079"><ele>96.0</ele><time>2026-04-25T13:31:45.431Z</time></trkpt><trkpt lat="44.1527939" lon="11.9220509"><ele>96.0</ele><time>2026-04-25T13:31:46.441Z</time></trkpt><trkpt lat="44.1528703" lon="11.9219049"><ele>96.0</ele><time>2026-04-25T13:31:47.453Z</time></trkpt><trkpt lat="44.1529445" lon="11.9217555"><ele>96.0</ele><time>2026-04-25T13:31:48.441Z</time></trkpt><trkpt lat="44.1530143" lon="11.9215969"><ele>96.0</ele><time>2026-04-25T13:31:49.438Z</time></trkpt><trkpt lat="44.1530816" lon="11.9214295"><ele>96.0</ele><time>2026-04-25T13:31:50.436Z</time></trkpt><trkpt lat="44.1531451" lon="11.9212482"><ele>96.0</ele><time>2026-04-25T13:31:51.434Z</time></trkpt><trkpt lat="44.1532078" lon="11.9210777"><ele>96.0</ele><time>2026-04-25T13:31:52.436Z</time></trkpt><trkpt lat="44.1532789" lon="11.9209114"><ele>96.0</ele><time>2026-04-25T13:31:53.446Z</time></trkpt><trkpt lat="44.1533596" lon="11.9207489"><ele>97.0</ele><time>2026-04-25T13:31:54.457Z</time></trkpt><trkpt lat="44.1534516" lon="11.920589"><ele>98.0</ele><time>2026-04-25T13:31:55.433Z</time></trkpt><trkpt lat="44.1535475" lon="11.9204282"><ele>99.0</ele><time>2026-04-25T13:31:56.436Z</time></trkpt><trkpt lat="44.1536332" lon="11.9202747"><ele>100.0</ele><time>2026-04-25T13:31:57.441Z</time></trkpt><trkpt lat="44.1537112" lon="11.920136"><ele>100.0</ele><time>2026-04-25T13:31:58.45Z</time></trkpt><trkpt lat="44.153781" lon="11.9199838"><ele>100.0</ele><time>2026-04-25T13:31:59.45Z</time></trkpt><trkpt lat="44.153849" lon="11.9198272"><ele>100.0</ele><time>2026-04-25T13:32:00.453Z</time></trkpt><trkpt lat="44.1539062" lon="11.9196546"><ele>100.0</ele><time>2026-04-25T13:32:01.452Z</time></trkpt><trkpt lat="44.1539499" lon="11.9194805"><ele>100.0</ele><time>2026-04-25T13:32:02.446Z</time></trkpt><trkpt lat="44.1539852" lon="11.9193005"><ele>100.0</ele><time>2026-04-25T13:32:03.426Z</time></trkpt><trkpt lat="44.1540072" lon="11.9191156"><ele>100.0</ele><time>2026-04-25T13:32:04.433Z</time></trkpt><trkpt lat="44.1540127" lon="11.9189387"><ele>100.0</ele><time>2026-04-25T13:32:05.458Z</time></trkpt><trkpt lat="44.1540022" lon="11.9187549"><ele>99.8</ele><time>2026-04-25T13:32:06.45Z</time></trkpt><trkpt lat="44.1539794" lon="11.9185714"><ele>99.6</ele><time>2026-04-25T13:32:07.442Z</time></trkpt><trkpt lat="44.1539558" lon="11.9184156"><ele>99.4</ele><time>2026-04-25T13:32:08.444Z</time></trkpt><trkpt lat="44.1539545" lon="11.9182752"><ele>99.2</ele><time>2026-04-25T13:32:09.452Z</time></trkpt><trkpt lat="44.153962" lon="11.9181499"><ele>99.0</ele><time>2026-04-25T13:32:10.46Z</time></trkpt><trkpt lat="44.1539835" lon="11.9180376"><ele>99.0</ele><time>2026-04-25T13:32:11.469Z</time></trkpt><trkpt lat="44.1540124" lon="11.9179418"><ele>99.0</ele><time>2026-04-25T13:32:12.441Z</time></trkpt><trkpt lat="44.1540505" lon="11.9178559"><ele>99.0</ele><time>2026-04-25T13:32:13.457Z</time></trkpt><trkpt lat="44.1540949" lon="11.9177815"><ele>99.0</ele><time>2026-04-25T13:32:14.455Z</time></trkpt><trkpt lat="44.1541471" lon="11.9176743"><ele>99.0</ele><time>2026-04-25T13:32:16.455Z</time></trkpt><trkpt lat="44.1541428" lon="11.9175656"><ele>99.0</ele><time>2026-04-25T13:32:18.443Z</time></trkpt><trkpt lat="44.1540942" lon="11.9174909"><ele>99.0</ele><time>2026-04-25T13:32:20.443Z</time></trkpt><trkpt lat="44.1540426" lon="11.9174286"><ele>99.0</ele><time>2026-04-25T13:32:24.449Z</time></trkpt><trkpt lat="44.1540728" lon="11.9175328"><ele>99.0</ele><time>2026-04-25T13:32:54.444Z</time></trkpt><trkpt lat="44.1541111" lon="11.9176424"><ele>99.0</ele><time>2026-04-25T13:32:57.456Z</time></trkpt><trkpt lat="44.1540995" lon="11.9177321"><ele>99.0</ele><time>2026-04-25T13:32:59.455Z</time></trkpt><trkpt lat="44.1540695" lon="11.9178221"><ele>99.0</ele><time>2026-04-25T13:33:01.431Z</time></trkpt><trkpt lat="44.1540281" lon="11.9179363"><ele>99.0</ele><time>2026-04-25T13:33:03.445Z</time></trkpt><trkpt lat="44.1539776" lon="11.9180545"><ele>99.0</ele><time>2026-04-25T13:33:05.439Z</time></trkpt><trkpt lat="44.1539417" lon="11.9181707"><ele>99.0</ele><time>2026-04-25T13:33:07.437Z</time></trkpt><trkpt lat="44.153934" lon="11.9182986"><ele>99.0</ele><time>2026-04-25T13:33:09.438Z</time></trkpt><trkpt lat="44.153947" lon="11.9184301"><ele>99.0</ele><time>2026-04-25T13:33:11.442Z</time></trkpt><trkpt lat="44.1539601" lon="11.9185668"><ele>99.0</ele><time>2026-04-25T13:33:13.45Z</time></trkpt><trkpt lat="44.1539817" lon="11.9187206"><ele>99.0</ele><time>2026-04-25T13:33:15.451Z</time></trkpt><trkpt lat="44.1539992" lon="11.9188801"><ele>99.0</ele><time>2026-04-25T13:33:17.444Z</time></trkpt><trkpt lat="44.1540044" lon="11.919038"><ele>99.0</ele><time>2026-04-25T13:33:19.445Z</time></trkpt><trkpt lat="44.1539851" lon="11.9192016"><ele>99.25</ele><time>2026-04-25T13:33:21.453Z</time></trkpt><trkpt lat="44.1539547" lon="11.9193606"><ele>99.5</ele><time>2026-04-25T13:33:23.444Z</time></trkpt><trkpt lat="44.1539291" lon="11.9195209"><ele>99.75</ele><time>2026-04-25T13:33:25.45Z</time></trkpt><trkpt lat="44.1538864" lon="11.9196766"><ele>100.0</ele><time>2026-04-25T13:33:27.441Z</time></trkpt><trkpt lat="44.1538297" lon="11.9198241"><ele>100.0</ele><time>2026-04-25T13:33:29.444Z</time></trkpt><trkpt lat="44.1537987" lon="11.9199053"><ele>100.0</ele><time>2026-04-25T13:33:30.439Z</time></trkpt><trkpt lat="44.153766" lon="11.9199804"><ele>100.0</ele><time>2026-04-25T13:33:31.453Z</time></trkpt><trkpt lat="44.1537138" lon="11.9201135"><ele>100.0</ele><time>2026-04-25T13:33:33.435Z</time></trkpt><trkpt lat="44.1536607" lon="11.9202315"><ele>100.0</ele><time>2026-04-25T13:33:35.444Z</time></trkpt><trkpt lat="44.1535856" lon="11.9203471"><ele>100.0</ele><time>2026-04-25T13:33:37.44Z</time></trkpt><trkpt lat="44.1535098" lon="11.9204707"><ele>100.0</ele><time>2026-04-25T13:33:39.449Z</time></trkpt><trkpt lat="44.1534332" lon="11.9205937"><ele>100.0</ele><time>2026-04-25T13:33:41.432Z</time></trkpt><trkpt lat="44.1533621" lon="11.9207192"><ele>100.0</ele><time>2026-04-25T13:33:43.438Z</time></trkpt><trkpt lat="44.1533042" lon="11.9208308"><ele>100.0</ele><time>2026-04-25T13:33:45.432Z</time></trkpt><trkpt lat="44.1532577" lon="11.9209311"><ele>100.8</ele><time>2026-04-25T13:33:47.451Z</time></trkpt><trkpt lat="44.1532127" lon="11.9210411"><ele>101.6</ele><time>2026-04-25T13:33:49.436Z</time></trkpt><trkpt lat="44.1531625" lon="11.9211589"><ele>102.4</ele><time>2026-04-25T13:33:51.435Z</time></trkpt><trkpt lat="44.1531236" lon="11.9212925"><ele>103.2</ele><time>2026-04-25T13:33:53.435Z</time></trkpt><trkpt lat="44.1530835" lon="11.9214328"><ele>104.0</ele><time>2026-04-25T13:33:55.436Z</time></trkpt><trkpt lat="44.1530318" lon="11.9215732"><ele>102.4</ele><time>2026-04-25T13:33:57.438Z</time></trkpt><trkpt lat="44.1529683" lon="11.9217089"><ele>100.80000000000001</ele><time>2026-04-25T13:33:59.433Z</time></trkpt><trkpt lat="44.1529102" lon="11.9218313"><ele>99.19999999999999</ele><time>2026-04-25T13:34:01.43Z</time></trkpt><trkpt lat="44.1528546" lon="11.9219281"><ele>97.6</ele><time>2026-04-25T13:34:03.441Z</time></trkpt><trkpt lat="44.1528027" lon="11.9220256"><ele>96.0</ele><time>2026-04-25T13:34:05.436Z</time></trkpt><trkpt lat="44.1527413" lon="11.9221399"><ele>96.0</ele><time>2026-04-25T13:34:07.434Z</time></trkpt><trkpt lat="44.1526805" lon="11.9222717"><ele>96.0</ele><time>2026-04-25T13:34:09.439Z</time></trkpt><trkpt lat="44.152614" lon="11.9224114"><ele>96.0</ele><time>2026-04-25T13:34:11.436Z</time></trkpt><trkpt lat="44.1525582" lon="11.9225412"><ele>96.0</ele><time>2026-04-25T13:34:13.433Z</time></trkpt><trkpt lat="44.1524957" lon="11.9226728"><ele>95.8</ele><time>2026-04-25T13:34:15.434Z</time></trkpt><trkpt lat="44.1524324" lon="11.9227883"><ele>95.6</ele><time>2026-04-25T13:34:17.434Z</time></trkpt><trkpt lat="44.15237" lon="11.9229102"><ele>95.4</ele><time>2026-04-25T13:34:19.458Z</time></trkpt><trkpt lat="44.1522927" lon="11.9230258"><ele>95.2</ele><time>2026-04-25T13:34:21.434Z</time></trkpt><trkpt lat="44.1522223" lon="11.923164"><ele>95.0</ele><time>2026-04-25T13:34:23.429Z</time></trkpt><trkpt lat="44.1521583" lon="11.9233094"><ele>95.0</ele><time>2026-04-25T13:34:25.434Z</time></trkpt><trkpt lat="44.1521224" lon="11.9233827"><ele>95.0</ele><time>2026-04-25T13:34:26.442Z</time></trkpt><trkpt lat="44.1520842" lon="11.9234556"><ele>95.0</ele><time>2026-04-25T13:34:27.44Z</time></trkpt><trkpt lat="44.1520104" lon="11.9236017"><ele>95.0</ele><time>2026-04-25T13:34:29.431Z</time></trkpt><trkpt lat="44.1519733" lon="11.9236842"><ele>95.0</ele><time>2026-04-25T13:34:30.447Z</time></trkpt><trkpt lat="44.1519139" lon="11.9238329"><ele>95.0</ele><time>2026-04-25T13:34:32.44Z</time></trkpt><trkpt lat="44.1518823" lon="11.9239099"><ele>94.66666666666667</ele><time>2026-04-25T13:34:33.438Z</time></trkpt><trkpt lat="44.1518243" lon="11.9240524"><ele>94.33333333333334</ele><time>2026-04-25T13:34:35.441Z</time></trkpt><trkpt lat="44.1517939" lon="11.9241344"><ele>94.0</ele><time>2026-04-25T13:34:36.434Z</time></trkpt><trkpt lat="44.1517641" lon="11.9242145"><ele>93.66666666666667</ele><time>2026-04-25T13:34:37.44Z</time></trkpt><trkpt lat="44.1517319" lon="11.9242989"><ele>93.33333333333333</ele><time>2026-04-25T13:34:38.434Z</time></trkpt><trkpt lat="44.1516976" lon="11.9243847"><ele>93.0</ele><time>2026-04-25T13:34:39.438Z</time></trkpt><trkpt lat="44.1516634" lon="11.9244647"><ele>93.00000000000001</ele><time>2026-04-25T13:34:40.439Z</time></trkpt><trkpt lat="44.1516287" lon="11.9245492"><ele>93.0</ele><time>2026-04-25T13:34:41.435Z</time></trkpt><trkpt lat="44.1515963" lon="11.924628"><ele>93.0</ele><time>2026-04-25T13:34:42.447Z</time></trkpt><trkpt lat="44.1515494" lon="11.924757"><ele>93.0</ele><time>2026-04-25T13:34:44.445Z</time></trkpt><trkpt lat="44.1515226" lon="11.9248455"><ele>93.0</ele><time>2026-04-25T13:34:46.452Z</time></trkpt><trkpt lat="44.151509" lon="11.9249312"><ele>93.00000000000001</ele><time>2026-04-25T13:34:49.44Z</time></trkpt><trkpt lat="44.1515767" lon="11.9249487"><ele>93.0</ele><time>2026-04-25T13:36:14.441Z</time></trkpt><trkpt lat="44.1516416" lon="11.9249278"><ele>93.00000000000001</ele><time>2026-04-25T13:36:22.458Z</time></trkpt><trkpt lat="44.1517056" lon="11.9249203"><ele>93.0</ele><time>2026-04-25T13:36:30.451Z</time></trkpt><trkpt lat="44.1517667" lon="11.9248912"><ele>93.0</ele><time>2026-04-25T13:36:40.453Z</time></trkpt><trkpt lat="44.1518373" lon="11.9248894"><ele>93.0</ele><time>2026-04-25T13:36:53.44Z</time></trkpt><trkpt lat="44.1519098" lon="11.9248814"><ele>93.0</ele><time>2026-04-25T13:37:03.513Z</time></trkpt><trkpt lat="44.1519799" lon="11.9248872"><ele>93.00000000000001</ele><time>2026-04-25T13:37:13.473Z</time></trkpt><trkpt lat="44.1520469" lon="11.9248955"><ele>93.0</ele><time>2026-04-25T13:37:23.443Z</time></trkpt><trkpt lat="44.1521109" lon="11.9248823"><ele>93.0</ele><time>2026-04-25T13:37:32.383Z</time></trkpt><trkpt lat="44.1521759" lon="11.9248987"><ele>93.0</ele><time>2026-04-25T13:37:42.469Z</time></trkpt><trkpt lat="44.1520828" lon="11.9247868"><ele>93.0</ele><time>2026-04-25T13:38:38.42Z</time></trkpt><trkpt lat="44.152166" lon="11.9248065"><ele>93.0</ele><time>2026-04-25T13:38:45.423Z</time></trkpt><trkpt lat="44.1521782" lon="11.9249053"><ele>93.0</ele><time>2026-04-25T13:38:50.432Z</time></trkpt><trkpt lat="44.15211" lon="11.9248774"><ele>93.0</ele><time>2026-04-25T13:40:01.44Z</time></trkpt><trkpt lat="44.1520477" lon="11.9249201"><ele>93.00000000000001</ele><time>2026-04-25T13:40:12.414Z</time></trkpt><trkpt lat="44.1519863" lon="11.9248767"><ele>93.0</ele><time>2026-04-25T13:40:24.474Z</time></trkpt><trkpt lat="44.1519212" lon="11.9248715"><ele>93.0</ele><time>2026-04-25T13:40:33.428Z</time></trkpt><trkpt lat="44.1518424" lon="11.924869"><ele>93.0</ele><time>2026-04-25T13:40:41.423Z</time></trkpt><trkpt lat="44.15178" lon="11.9248431"><ele>93.0</ele><time>2026-04-25T13:40:48.475Z</time></trkpt><trkpt lat="44.1517131" lon="11.9248515"><ele>93.00000000000001</ele><time>2026-04-25T13:40:59.238Z</time></trkpt><trkpt lat="44.1516602" lon="11.924903"><ele>93.0</ele><time>2026-04-25T13:41:05.429Z</time></trkpt><trkpt lat="44.1515976" lon="11.9249202"><ele>93.0</ele><time>2026-04-25T13:41:12.438Z</time></trkpt><trkpt lat="44.151534" lon="11.9249338"><ele>93.0</ele><time>2026-04-25T13:41:39.46Z</time></trkpt><trkpt lat="44.1515158" lon="11.9248164"><ele>93.0</ele><time>2026-04-25T13:56:31.449Z</time></trkpt><trkpt lat="44.1515531" lon="11.9247086"><ele>93.0</ele><time>2026-04-25T13:56:34.432Z</time></trkpt><trkpt lat="44.151598" lon="11.924581"><ele>93.0</ele><time>2026-04-25T13:56:37.426Z</time></trkpt><trkpt lat="44.1516483" lon="11.9244457"><ele>93.0</ele><time>2026-04-25T13:56:39.421Z</time></trkpt><trkpt lat="44.1516892" lon="11.9243322"><ele>93.0</ele><time>2026-04-25T13:56:41.429Z</time></trkpt><trkpt lat="44.1517213" lon="11.9242365"><ele>93.0</ele><time>2026-04-25T13:56:43.423Z</time></trkpt><trkpt lat="44.1517708" lon="11.9241252"><ele>93.0</ele><time>2026-04-25T13:56:45.424Z</time></trkpt><trkpt lat="44.1518229" lon="11.9240114"><ele>93.0</ele><time>2026-04-25T13:56:47.433Z</time></trkpt><trkpt lat="44.1518648" lon="11.9239149"><ele>93.0</ele><time>2026-04-25T13:56:49.432Z</time></trkpt><trkpt lat="44.1518991" lon="11.9238063"><ele>93.0</ele><time>2026-04-25T13:56:51.421Z</time></trkpt><trkpt lat="44.151941" lon="11.9237103"><ele>92.66666666666667</ele><time>2026-04-25T13:56:53.415Z</time></trkpt><trkpt lat="44.151996" lon="11.9236008"><ele>92.33333333333333</ele><time>2026-04-25T13:56:55.424Z</time></trkpt><trkpt lat="44.1520684" lon="11.9234563"><ele>92.0</ele><time>2026-04-25T13:56:57.426Z</time></trkpt><trkpt lat="44.1521117" lon="11.9233746"><ele>91.66666666666666</ele><time>2026-04-25T13:56:58.429Z</time></trkpt><trkpt lat="44.1521526" lon="11.9232877"><ele>91.33333333333333</ele><time>2026-04-25T13:56:59.421Z</time></trkpt><trkpt lat="44.1521925" lon="11.9232048"><ele>91.0</ele><time>2026-04-25T13:57:00.43Z</time></trkpt><trkpt lat="44.1522409" lon="11.9231047"><ele>92.0</ele><time>2026-04-25T13:57:01.441Z</time></trkpt><trkpt lat="44.1522986" lon="11.9229854"><ele>93.0</ele><time>2026-04-25T13:57:02.422Z</time></trkpt><trkpt lat="44.1523675" lon="11.9228678"><ele>94.0</ele><time>2026-04-25T13:57:03.427Z</time></trkpt><trkpt lat="44.1524394" lon="11.922747"><ele>95.0</ele><time>2026-04-25T13:57:04.433Z</time></trkpt><trkpt lat="44.1525115" lon="11.922599"><ele>95.25</ele><time>2026-04-25T13:57:05.432Z</time></trkpt><trkpt lat="44.1525878" lon="11.9224443"><ele>95.5</ele><time>2026-04-25T13:57:06.435Z</time></trkpt><trkpt lat="44.1526619" lon="11.9223052"><ele>95.75</ele><time>2026-04-25T13:57:07.422Z</time></trkpt><trkpt lat="44.1527316" lon="11.9221674"><ele>96.0</ele><time>2026-04-25T13:57:08.428Z</time></trkpt><trkpt lat="44.1527988" lon="11.9220218"><ele>96.0</ele><time>2026-04-25T13:57:09.428Z</time></trkpt><trkpt lat="44.1528768" lon="11.921876"><ele>96.0</ele><time>2026-04-25T13:57:10.435Z</time></trkpt><trkpt lat="44.1529507" lon="11.9217364"><ele>96.0</ele><time>2026-04-25T13:57:11.421Z</time></trkpt><trkpt lat="44.1530226" lon="11.9215942"><ele>96.0</ele><time>2026-04-25T13:57:12.427Z</time></trkpt><trkpt lat="44.1530799" lon="11.9214416"><ele>96.0</ele><time>2026-04-25T13:57:13.426Z</time></trkpt><trkpt lat="44.1531339" lon="11.9212789"><ele>96.0</ele><time>2026-04-25T13:57:14.428Z</time></trkpt><trkpt lat="44.1531904" lon="11.9211166"><ele>96.0</ele><time>2026-04-25T13:57:15.428Z</time></trkpt><trkpt lat="44.1532451" lon="11.920964"><ele>96.0</ele><time>2026-04-25T13:57:16.43Z</time></trkpt><trkpt lat="44.1533031" lon="11.92083"><ele>96.8</ele><time>2026-04-25T13:57:17.432Z</time></trkpt><trkpt lat="44.1533629" lon="11.9207233"><ele>97.6</ele><time>2026-04-25T13:57:18.421Z</time></trkpt><trkpt lat="44.1534276" lon="11.9206227"><ele>98.4</ele><time>2026-04-25T13:57:19.433Z</time></trkpt><trkpt lat="44.153488" lon="11.9205321"><ele>99.2</ele><time>2026-04-25T13:57:20.431Z</time></trkpt><trkpt lat="44.1535499" lon="11.9204407"><ele>100.0</ele><time>2026-04-25T13:57:21.425Z</time></trkpt><trkpt lat="44.1536087" lon="11.9203409"><ele>100.0</ele><time>2026-04-25T13:57:22.429Z</time></trkpt><trkpt lat="44.1536665" lon="11.9202312"><ele>100.0</ele><time>2026-04-25T13:57:23.436Z</time></trkpt><trkpt lat="44.1537273" lon="11.9201038"><ele>100.0</ele><time>2026-04-25T13:57:24.437Z</time></trkpt><trkpt lat="44.1537824" lon="11.9199762"><ele>100.0</ele><time>2026-04-25T13:57:25.415Z</time></trkpt><trkpt lat="44.1538306" lon="11.9198398"><ele>100.0</ele><time>2026-04-25T13:57:26.425Z</time></trkpt><trkpt lat="44.1538745" lon="11.9196954"><ele>100.0</ele><time>2026-04-25T13:57:27.428Z</time></trkpt><trkpt lat="44.1539169" lon="11.9195483"><ele>100.0</ele><time>2026-04-25T13:57:28.438Z</time></trkpt><trkpt lat="44.1539487" lon="11.9194108"><ele>100.0</ele><time>2026-04-25T13:57:29.432Z</time></trkpt><trkpt lat="44.153969" lon="11.9192805"><ele>100.0</ele><time>2026-04-25T13:57:30.429Z</time></trkpt><trkpt lat="44.1539865" lon="11.9191477"><ele>100.0</ele><time>2026-04-25T13:57:31.435Z</time></trkpt><trkpt lat="44.1539994" lon="11.9190186"><ele>99.83333333333334</ele><time>2026-04-25T13:57:32.427Z</time></trkpt><trkpt lat="44.1540016" lon="11.9188915"><ele>99.66666666666667</ele><time>2026-04-25T13:57:33.426Z</time></trkpt><trkpt lat="44.1539897" lon="11.9187688"><ele>99.5</ele><time>2026-04-25T13:57:34.428Z</time></trkpt><trkpt lat="44.1539732" lon="11.9186538"><ele>99.33333333333334</ele><time>2026-04-25T13:57:35.429Z</time></trkpt><trkpt lat="44.1539576" lon="11.9185393"><ele>99.16666666666667</ele><time>2026-04-25T13:57:36.434Z</time></trkpt><trkpt lat="44.1539441" lon="11.9184243"><ele>99.0</ele><time>2026-04-25T13:57:37.43Z</time></trkpt><trkpt lat="44.1539421" lon="11.9183234"><ele>99.0</ele><time>2026-04-25T13:57:38.43Z</time></trkpt><trkpt lat="44.1539524" lon="11.9182263"><ele>99.0</ele><time>2026-04-25T13:57:39.435Z</time></trkpt><trkpt lat="44.1539723" lon="11.9181251"><ele>99.0</ele><time>2026-04-25T13:57:40.432Z</time></trkpt><trkpt lat="44.1539971" lon="11.9180283"><ele>99.0</ele><time>2026-04-25T13:57:41.434Z</time></trkpt><trkpt lat="44.1540293" lon="11.9179416"><ele>99.0</ele><time>2026-04-25T13:57:42.424Z</time></trkpt><trkpt lat="44.154095" lon="11.9177924"><ele>99.0</ele><time>2026-04-25T13:57:44.417Z</time></trkpt><trkpt lat="44.1541429" lon="11.9176581"><ele>98.4</ele><time>2026-04-25T13:57:46.413Z</time></trkpt><trkpt lat="44.1541739" lon="11.9175178"><ele>97.80000000000001</ele><time>2026-04-25T13:57:48.427Z</time></trkpt><trkpt lat="44.1542454" lon="11.9173897"><ele>97.19999999999999</ele><time>2026-04-25T13:57:50.424Z</time></trkpt><trkpt lat="44.1542997" lon="11.9173229"><ele>96.6</ele><time>2026-04-25T13:57:51.441Z</time></trkpt><trkpt lat="44.1543565" lon="11.9172461"><ele>96.0</ele><time>2026-04-25T13:57:52.442Z</time></trkpt><trkpt lat="44.1544164" lon="11.9171582"><ele>96.0</ele><time>2026-04-25T13:57:53.443Z</time></trkpt><trkpt lat="44.1544745" lon="11.9170749"><ele>96.0</ele><time>2026-04-25T13:57:54.425Z</time></trkpt><trkpt lat="44.1545367" lon="11.9169863"><ele>96.0</ele><time>2026-04-25T13:57:55.431Z</time></trkpt><trkpt lat="44.1545973" lon="11.9169052"><ele>96.0</ele><time>2026-04-25T13:57:56.427Z</time></trkpt><trkpt lat="44.1546552" lon="11.9168143"><ele>96.0</ele><time>2026-04-25T13:57:57.461Z</time></trkpt><trkpt lat="44.1547069" lon="11.9167206"><ele>96.0</ele><time>2026-04-25T13:57:58.434Z</time></trkpt><trkpt lat="44.1547524" lon="11.9166226"><ele>96.33333333333333</ele><time>2026-04-25T13:57:59.432Z</time></trkpt><trkpt lat="44.1547886" lon="11.9165165"><ele>96.66666666666666</ele><time>2026-04-25T13:58:00.425Z</time></trkpt><trkpt lat="44.1548155" lon="11.9164007"><ele>97.0</ele><time>2026-04-25T13:58:01.431Z</time></trkpt><trkpt lat="44.154833" lon="11.9162748"><ele>97.33333333333333</ele><time>2026-04-25T13:58:02.426Z</time></trkpt><trkpt lat="44.1548395" lon="11.9161569"><ele>97.66666666666666</ele><time>2026-04-25T13:58:03.429Z</time></trkpt><trkpt lat="44.1548429" lon="11.9160453"><ele>98.0</ele><time>2026-04-25T13:58:04.422Z</time></trkpt><trkpt lat="44.1548404" lon="11.915933"><ele>98.66666666666666</ele><time>2026-04-25T13:58:05.433Z</time></trkpt><trkpt lat="44.1548312" lon="11.9158159"><ele>99.33333333333333</ele><time>2026-04-25T13:58:06.442Z</time></trkpt><trkpt lat="44.1548201" lon="11.9156966"><ele>100.0</ele><time>2026-04-25T13:58:07.438Z</time></trkpt><trkpt lat="44.1548077" lon="11.9155846"><ele>100.66666666666666</ele><time>2026-04-25T13:58:08.431Z</time></trkpt><trkpt lat="44.1547952" lon="11.9154699"><ele>101.33333333333333</ele><time>2026-04-25T13:58:09.432Z</time></trkpt><trkpt lat="44.1547857" lon="11.9153623"><ele>102.0</ele><time>2026-04-25T13:58:10.444Z</time></trkpt><trkpt lat="44.1547842" lon="11.9152485"><ele>102.0</ele><time>2026-04-25T13:58:11.436Z</time></trkpt><trkpt lat="44.1547841" lon="11.9151271"><ele>102.0</ele><time>2026-04-25T13:58:12.436Z</time></trkpt><trkpt lat="44.1547905" lon="11.9150036"><ele>102.0</ele><time>2026-04-25T13:58:13.434Z</time></trkpt><trkpt lat="44.1548058" lon="11.914877"><ele>102.0</ele><time>2026-04-25T13:58:14.43Z</time></trkpt><trkpt lat="44.1548321" lon="11.9147468"><ele>102.0</ele><time>2026-04-25T13:58:15.428Z</time></trkpt><trkpt lat="44.1548648" lon="11.9146161"><ele>104.16666666666667</ele><time>2026-04-25T13:58:16.427Z</time></trkpt><trkpt lat="44.1548975" lon="11.914491"><ele>106.33333333333334</ele><time>2026-04-25T13:58:17.429Z</time></trkpt><trkpt lat="44.1549388" lon="11.9143964"><ele>108.5</ele><time>2026-04-25T13:58:18.437Z</time></trkpt><trkpt lat="44.1549845" lon="11.9143268"><ele>110.66666666666667</ele><time>2026-04-25T13:58:19.433Z</time></trkpt><trkpt lat="44.1550467" lon="11.9142719"><ele>112.83333333333334</ele><time>2026-04-25T13:58:20.432Z</time></trkpt><trkpt lat="44.1551171" lon="11.9142243"><ele>115.0</ele><time>2026-04-25T13:58:21.427Z</time></trkpt><trkpt lat="44.1551779" lon="11.9141756"><ele>115.83333333333334</ele><time>2026-04-25T13:58:22.432Z</time></trkpt><trkpt lat="44.1552316" lon="11.9141131"><ele>116.66666666666667</ele><time>2026-04-25T13:58:23.442Z</time></trkpt><trkpt lat="44.1552816" lon="11.9140268"><ele>117.5</ele><time>2026-04-25T13:58:24.451Z</time></trkpt><trkpt lat="44.1553382" lon="11.9139294"><ele>118.33333333333334</ele><time>2026-04-25T13:58:25.419Z</time></trkpt><trkpt lat="44.1554051" lon="11.9138393"><ele>119.16666666666667</ele><time>2026-04-25T13:58:26.445Z</time></trkpt><trkpt lat="44.1554766" lon="11.9137478"><ele>120.0</ele><time>2026-04-25T13:58:27.437Z</time></trkpt><trkpt lat="44.1555517" lon="11.9136521"><ele>120.0</ele><time>2026-04-25T13:58:28.433Z</time></trkpt><trkpt lat="44.155622" lon="11.9135623"><ele>120.0</ele><time>2026-04-25T13:58:29.444Z</time></trkpt><trkpt lat="44.1556779" lon="11.9134675"><ele>120.0</ele><time>2026-04-25T13:58:30.447Z</time></trkpt><trkpt lat="44.1557201" lon="11.9133632"><ele>120.0</ele><time>2026-04-25T13:58:31.431Z</time></trkpt><trkpt lat="44.1557482" lon="11.9132571"><ele>120.0</ele><time>2026-04-25T13:58:32.449Z</time></trkpt><trkpt lat="44.1557724" lon="11.9131514"><ele>120.0</ele><time>2026-04-25T13:58:33.436Z</time></trkpt><trkpt lat="44.1557877" lon="11.9130386"><ele>121.0</ele><time>2026-04-25T13:58:34.438Z</time></trkpt><trkpt lat="44.1557963" lon="11.9129287"><ele>122.0</ele><time>2026-04-25T13:58:35.442Z</time></trkpt><trkpt lat="44.15581" lon="11.9128199"><ele>123.0</ele><time>2026-04-25T13:58:36.448Z</time></trkpt><trkpt lat="44.1558246" lon="11.9126987"><ele>124.0</ele><time>2026-04-25T13:58:37.443Z</time></trkpt><trkpt lat="44.1558408" lon="11.9125657"><ele>125.0</ele><time>2026-04-25T13:58:38.433Z</time></trkpt><trkpt lat="44.1558593" lon="11.9124351"><ele>126.0</ele><time>2026-04-25T13:58:39.428Z</time></trkpt><trkpt lat="44.1558832" lon="11.9122999"><ele>127.19999999999999</ele><time>2026-04-25T13:58:40.432Z</time></trkpt><trkpt lat="44.1559164" lon="11.9121732"><ele>128.39999999999998</ele><time>2026-04-25T13:58:41.425Z</time></trkpt><trkpt lat="44.1559397" lon="11.9120546"><ele>129.6</ele><time>2026-04-25T13:58:42.435Z</time></trkpt><trkpt lat="44.1559611" lon="11.9119409"><ele>130.79999999999998</ele><time>2026-04-25T13:58:43.429Z</time></trkpt><trkpt lat="44.1559851" lon="11.9118134"><ele>132.0</ele><time>2026-04-25T13:58:44.423Z</time></trkpt><trkpt lat="44.1560202" lon="11.9116681"><ele>133.0</ele><time>2026-04-25T13:58:45.429Z</time></trkpt><trkpt lat="44.1560631" lon="11.9115012"><ele>134.0</ele><time>2026-04-25T13:58:46.439Z</time></trkpt><trkpt lat="44.1561029" lon="11.9113498"><ele>135.0</ele><time>2026-04-25T13:58:47.424Z</time></trkpt><trkpt lat="44.1561293" lon="11.9112288"><ele>136.0</ele><time>2026-04-25T13:58:48.45Z</time></trkpt><trkpt lat="44.1561539" lon="11.9111304"><ele>137.0</ele><time>2026-04-25T13:58:49.444Z</time></trkpt><trkpt lat="44.1561825" lon="11.9110471"><ele>137.0</ele><time>2026-04-25T13:58:50.426Z</time></trkpt><trkpt lat="44.1562257" lon="11.9109484"><ele>137.0</ele><time>2026-04-25T13:58:52.442Z</time></trkpt><trkpt lat="44.1561626" lon="11.9109209"><ele>137.0</ele><time>2026-04-25T13:59:50.455Z</time></trkpt><trkpt lat="44.1561194" lon="11.9108556"><ele>137.0</ele><time>2026-04-25T13:59:52.421Z</time></trkpt><trkpt lat="44.1560642" lon="11.9107515"><ele>137.0</ele><time>2026-04-25T13:59:54.441Z</time></trkpt><trkpt lat="44.155997" lon="11.9106427"><ele>137.0</ele><time>2026-04-25T13:59:56.445Z</time></trkpt><trkpt lat="44.1559247" lon="11.9105525"><ele>137.16666666666666</ele><time>2026-04-25T13:59:58.443Z</time></trkpt><trkpt lat="44.155838" lon="11.9104538"><ele>137.33333333333331</ele><time>2026-04-25T14:00:00.439Z</time></trkpt><trkpt lat="44.1557868" lon="11.9103902"><ele>137.5</ele><time>2026-04-25T14:00:01.435Z</time></trkpt><trkpt lat="44.1557294" lon="11.9103245"><ele>137.66666666666666</ele><time>2026-04-25T14:00:02.436Z</time></trkpt><trkpt lat="44.1556729" lon="11.9102513"><ele>137.83333333333334</ele><time>2026-04-25T14:00:03.437Z</time></trkpt><trkpt lat="44.155607" lon="11.9101694"><ele>138.0</ele><time>2026-04-25T14:00:04.426Z</time></trkpt><trkpt lat="44.1555403" lon="11.9100924"><ele>140.0</ele><time>2026-04-25T14:00:05.441Z</time></trkpt><trkpt lat="44.1554787" lon="11.9100191"><ele>142.0</ele><time>2026-04-25T14:00:06.432Z</time></trkpt><trkpt lat="44.1554235" lon="11.9099542"><ele>144.0</ele><time>2026-04-25T14:00:07.428Z</time></trkpt><trkpt lat="44.1553618" lon="11.9098291"><ele>146.0</ele><time>2026-04-25T14:00:09.429Z</time></trkpt><trkpt lat="44.1553737" lon="11.9097071"><ele>148.0</ele><time>2026-04-25T14:00:11.446Z</time></trkpt><trkpt lat="44.1554354" lon="11.909637"><ele>150.0</ele><time>2026-04-25T14:00:14.439Z</time></trkpt><trkpt lat="44.1555291" lon="11.9096789"><ele>150.0</ele><time>2026-04-25T14:00:17.449Z</time></trkpt><trkpt lat="44.1556306" lon="11.9097472"><ele>150.0</ele><time>2026-04-25T14:00:19.429Z</time></trkpt><trkpt lat="44.1556991" lon="11.9097701"><ele>150.0</ele><time>2026-04-25T14:00:20.422Z</time></trkpt><trkpt lat="44.1557671" lon="11.9097607"><ele>150.0</ele><time>2026-04-25T14:00:21.453Z</time></trkpt><trkpt lat="44.1558397" lon="11.9097288"><ele>150.0</ele><time>2026-04-25T14:00:22.435Z</time></trkpt><trkpt lat="44.1559067" lon="11.9096811"><ele>150.0</ele><time>2026-04-25T14:00:23.438Z</time></trkpt><trkpt lat="44.1559898" lon="11.9095495"><ele>150.83333333333334</ele><time>2026-04-25T14:00:25.441Z</time></trkpt><trkpt lat="44.1560192" lon="11.9094505"><ele>151.66666666666666</ele><time>2026-04-25T14:00:26.428Z</time></trkpt><trkpt lat="44.156038" lon="11.9093448"><ele>152.5</ele><time>2026-04-25T14:00:27.438Z</time></trkpt><trkpt lat="44.1560477" lon="11.9092376"><ele>153.33333333333331</ele><time>2026-04-25T14:00:28.434Z</time></trkpt><trkpt lat="44.1560559" lon="11.9091152"><ele>154.16666666666666</ele><time>2026-04-25T14:00:29.436Z</time></trkpt><trkpt lat="44.1560624" lon="11.9089836"><ele>155.0</ele><time>2026-04-25T14:00:30.451Z</time></trkpt><trkpt lat="44.1560691" lon="11.9088503"><ele>156.5</ele><time>2026-04-25T14:00:31.429Z</time></trkpt><trkpt lat="44.1560691" lon="11.9087312"><ele>158.0</ele><time>2026-04-25T14:00:32.425Z</time></trkpt><trkpt lat="44.1560641" lon="11.9086254"><ele>159.5</ele><time>2026-04-25T14:00:33.434Z</time></trkpt><trkpt lat="44.1560574" lon="11.9085334"><ele>161.0</ele><time>2026-04-25T14:00:34.428Z</time></trkpt><trkpt lat="44.1560552" lon="11.9084422"><ele>162.5</ele><time>2026-04-25T14:00:35.452Z</time></trkpt><trkpt lat="44.156065" lon="11.9082643"><ele>164.0</ele><time>2026-04-25T14:00:37.431Z</time></trkpt><trkpt lat="44.1560751" lon="11.9081703"><ele>164.83333333333331</ele><time>2026-04-25T14:00:38.439Z</time></trkpt><trkpt lat="44.1560815" lon="11.9080744"><ele>165.66666666666666</ele><time>2026-04-25T14:00:39.432Z</time></trkpt><trkpt lat="44.1560809" lon="11.9079847"><ele>166.5</ele><time>2026-04-25T14:00:40.436Z</time></trkpt><trkpt lat="44.1560811" lon="11.9078368"><ele>167.33333333333334</ele><time>2026-04-25T14:00:42.43Z</time></trkpt><trkpt lat="44.1560996" lon="11.9077468"><ele>168.16666666666669</ele><time>2026-04-25T14:00:44.43Z</time></trkpt><trkpt lat="44.1561332" lon="11.9076593"><ele>169.0</ele><time>2026-04-25T14:01:01.452Z</time></trkpt><trkpt lat="44.1561534" lon="11.9075598"><ele>169.0</ele><time>2026-04-25T14:01:03.435Z</time></trkpt><trkpt lat="44.1561863" lon="11.9074243"><ele>169.0</ele><time>2026-04-25T14:01:05.419Z</time></trkpt><trkpt lat="44.156217" lon="11.9073371"><ele>169.0</ele><time>2026-04-25T14:01:06.442Z</time></trkpt><trkpt lat="44.1562523" lon="11.9072242"><ele>169.0</ele><time>2026-04-25T14:01:07.43Z</time></trkpt><trkpt lat="44.1562881" lon="11.907103"><ele>169.0</ele><time>2026-04-25T14:01:08.451Z</time></trkpt><trkpt lat="44.1563306" lon="11.9069636"><ele>169.0</ele><time>2026-04-25T14:01:09.442Z</time></trkpt><trkpt lat="44.1563746" lon="11.9068162"><ele>169.0</ele><time>2026-04-25T14:01:10.426Z</time></trkpt><trkpt lat="44.1564226" lon="11.9066545"><ele>169.0</ele><time>2026-04-25T14:01:11.446Z</time></trkpt><trkpt lat="44.1564711" lon="11.9064909"><ele>169.0</ele><time>2026-04-25T14:01:12.436Z</time></trkpt><trkpt lat="44.1565198" lon="11.9063281"><ele>170.75</ele><time>2026-04-25T14:01:13.433Z</time></trkpt><trkpt lat="44.1565631" lon="11.9061661"><ele>172.5</ele><time>2026-04-25T14:01:14.433Z</time></trkpt><trkpt lat="44.1566067" lon="11.9059934"><ele>174.25</ele><time>2026-04-25T14:01:15.436Z</time></trkpt><trkpt lat="44.1566453" lon="11.9058464"><ele>176.0</ele><time>2026-04-25T14:01:16.428Z</time></trkpt><trkpt lat="44.15668" lon="11.9057084"><ele>176.20000000000002</ele><time>2026-04-25T14:01:17.427Z</time></trkpt><trkpt lat="44.1567087" lon="11.9055826"><ele>176.4</ele><time>2026-04-25T14:01:18.434Z</time></trkpt><trkpt lat="44.1567399" lon="11.9054707"><ele>176.6</ele><time>2026-04-25T14:01:19.435Z</time></trkpt><trkpt lat="44.1567631" lon="11.9053593"><ele>176.8</ele><time>2026-04-25T14:01:20.44Z</time></trkpt><trkpt lat="44.1567959" lon="11.905231"><ele>177.0</ele><time>2026-04-25T14:01:21.43Z</time></trkpt><trkpt lat="44.1568327" lon="11.9050969"><ele>177.0</ele><time>2026-04-25T14:01:22.427Z</time></trkpt><trkpt lat="44.1568666" lon="11.9049554"><ele>177.0</ele><time>2026-04-25T14:01:23.431Z</time></trkpt><trkpt lat="44.1569029" lon="11.9048162"><ele>177.0</ele><time>2026-04-25T14:01:24.439Z</time></trkpt><trkpt lat="44.1569342" lon="11.9046746"><ele>177.0</ele><time>2026-04-25T14:01:25.432Z</time></trkpt><trkpt lat="44.1569592" lon="11.9045284"><ele>177.0</ele><time>2026-04-25T14:01:26.428Z</time></trkpt><trkpt lat="44.1569854" lon="11.9043893"><ele>177.0</ele><time>2026-04-25T14:01:27.432Z</time></trkpt><trkpt lat="44.1570124" lon="11.9042554"><ele>177.0</ele><time>2026-04-25T14:01:28.434Z</time></trkpt><trkpt lat="44.1570393" lon="11.9041101"><ele>177.0</ele><time>2026-04-25T14:01:29.435Z</time></trkpt><trkpt lat="44.1570683" lon="11.9039745"><ele>177.0</ele><time>2026-04-25T14:01:30.439Z</time></trkpt><trkpt lat="44.1570958" lon="11.9038361"><ele>177.0</ele><time>2026-04-25T14:01:31.428Z</time></trkpt><trkpt lat="44.1571309" lon="11.9037114"><ele>177.6</ele><time>2026-04-25T14:01:32.444Z</time></trkpt><trkpt lat="44.1571697" lon="11.9035961"><ele>178.2</ele><time>2026-04-25T14:01:33.436Z</time></trkpt><trkpt lat="44.1572097" lon="11.903473"><ele>178.8</ele><time>2026-04-25T14:01:34.435Z</time></trkpt><trkpt lat="44.1572498" lon="11.9033521"><ele>179.4</ele><time>2026-04-25T14:01:35.424Z</time></trkpt><trkpt lat="44.1572921" lon="11.9032357"><ele>180.0</ele><time>2026-04-25T14:01:36.452Z</time></trkpt><trkpt lat="44.1573312" lon="11.9031265"><ele>183.5</ele><time>2026-04-25T14:01:37.436Z</time></trkpt><trkpt lat="44.1573757" lon="11.9030311"><ele>187.0</ele><time>2026-04-25T14:01:38.438Z</time></trkpt><trkpt lat="44.157427" lon="11.9029414"><ele>190.5</ele><time>2026-04-25T14:01:39.429Z</time></trkpt><trkpt lat="44.1574702" lon="11.9028482"><ele>194.0</ele><time>2026-04-25T14:01:40.43Z</time></trkpt><trkpt lat="44.1575261" lon="11.9027532"><ele>197.5</ele><time>2026-04-25T14:01:41.429Z</time></trkpt><trkpt lat="44.1575895" lon="11.9026444"><ele>201.0</ele><time>2026-04-25T14:01:42.441Z</time></trkpt><trkpt lat="44.1576546" lon="11.9025219"><ele>202.0</ele><time>2026-04-25T14:01:43.436Z</time></trkpt><trkpt lat="44.1577202" lon="11.9023839"><ele>203.0</ele><time>2026-04-25T14:01:44.428Z</time></trkpt><trkpt lat="44.1577857" lon="11.902239"><ele>204.0</ele><time>2026-04-25T14:01:45.42Z</time></trkpt><trkpt lat="44.1578483" lon="11.902107"><ele>205.0</ele><time>2026-04-25T14:01:46.428Z</time></trkpt><trkpt lat="44.1579074" lon="11.9019681"><ele>205.0</ele><time>2026-04-25T14:01:47.438Z</time></trkpt><trkpt lat="44.1579661" lon="11.9018221"><ele>205.0</ele><time>2026-04-25T14:01:48.441Z</time></trkpt><trkpt lat="44.1580258" lon="11.9016653"><ele>205.0</ele><time>2026-04-25T14:01:49.436Z</time></trkpt><trkpt lat="44.1580828" lon="11.901513"><ele>205.0</ele><time>2026-04-25T14:01:50.439Z</time></trkpt><trkpt lat="44.1581351" lon="11.901362"><ele>204.75</ele><time>2026-04-25T14:01:51.428Z</time></trkpt><trkpt lat="44.1581887" lon="11.9012022"><ele>204.5</ele><time>2026-04-25T14:01:52.421Z</time></trkpt><trkpt lat="44.1582468" lon="11.9010369"><ele>204.25</ele><time>2026-04-25T14:01:53.432Z</time></trkpt><trkpt lat="44.1583093" lon="11.9008751"><ele>204.0</ele><time>2026-04-25T14:01:54.432Z</time></trkpt><trkpt lat="44.1583731" lon="11.9007161"><ele>209.0</ele><time>2026-04-25T14:01:55.444Z</time></trkpt><trkpt lat="44.158439" lon="11.9005625"><ele>214.0</ele><time>2026-04-25T14:01:56.425Z</time></trkpt><trkpt lat="44.1585086" lon="11.9004077"><ele>219.0</ele><time>2026-04-25T14:01:57.432Z</time></trkpt><trkpt lat="44.1585808" lon="11.9002405"><ele>224.0</ele><time>2026-04-25T14:01:58.431Z</time></trkpt><trkpt lat="44.1586522" lon="11.9000672"><ele>225.0</ele><time>2026-04-25T14:01:59.433Z</time></trkpt><trkpt lat="44.1587225" lon="11.8999077"><ele>226.0</ele><time>2026-04-25T14:02:00.431Z</time></trkpt><trkpt lat="44.1587943" lon="11.8997563"><ele>227.0</ele><time>2026-04-25T14:02:01.426Z</time></trkpt><trkpt lat="44.1588725" lon="11.8995988"><ele>228.0</ele><time>2026-04-25T14:02:02.423Z</time></trkpt><trkpt lat="44.1589555" lon="11.8994493"><ele>226.75</ele><time>2026-04-25T14:02:03.429Z</time></trkpt><trkpt lat="44.1590368" lon="11.8993129"><ele>225.5</ele><time>2026-04-25T14:02:04.433Z</time></trkpt><trkpt lat="44.1591095" lon="11.8991803"><ele>224.25</ele><time>2026-04-25T14:02:05.432Z</time></trkpt><trkpt lat="44.1591852" lon="11.8990496"><ele>223.0</ele><time>2026-04-25T14:02:06.416Z</time></trkpt><trkpt lat="44.1592516" lon="11.8989366"><ele>224.99999999999997</ele><time>2026-04-25T14:02:07.428Z</time></trkpt><trkpt lat="44.1593002" lon="11.8988653"><ele>227.0</ele><time>2026-04-25T14:02:08.433Z</time></trkpt><trkpt lat="44.1593793" lon="11.8987387"><ele>229.0</ele><time>2026-04-25T14:02:10.435Z</time></trkpt><trkpt lat="44.1594164" lon="11.8986669"><ele>231.0</ele><time>2026-04-25T14:02:11.427Z</time></trkpt><trkpt lat="44.1594903" lon="11.8985373"><ele>232.99999999999997</ele><time>2026-04-25T14:02:13.442Z</time></trkpt><trkpt lat="44.1595365" lon="11.8984689"><ele>235.0</ele><time>2026-04-25T14:02:14.439Z</time></trkpt><trkpt lat="44.159586" lon="11.8983835"><ele>234.99999999999997</ele><time>2026-04-25T14:02:15.434Z</time></trkpt><trkpt lat="44.1596355" lon="11.8982964"><ele>235.0</ele><time>2026-04-25T14:02:16.431Z</time></trkpt><trkpt lat="44.1596865" lon="11.898209"><ele>235.0</ele><time>2026-04-25T14:02:17.44Z</time></trkpt><trkpt lat="44.1597428" lon="11.8981167"><ele>235.0</ele><time>2026-04-25T14:02:18.434Z</time></trkpt><trkpt lat="44.1598086" lon="11.8980214"><ele>234.99999999999997</ele><time>2026-04-25T14:02:19.492Z</time></trkpt><trkpt lat="44.1598722" lon="11.8979367"><ele>235.0</ele><time>2026-04-25T14:02:20.437Z</time></trkpt><trkpt lat="44.1599303" lon="11.8978539"><ele>237.16666666666666</ele><time>2026-04-25T14:02:21.431Z</time></trkpt><trkpt lat="44.1599831" lon="11.8977589"><ele>239.33333333333331</ele><time>2026-04-25T14:02:22.436Z</time></trkpt><trkpt lat="44.1600209" lon="11.8976614"><ele>241.5</ele><time>2026-04-25T14:02:23.434Z</time></trkpt><trkpt lat="44.1600515" lon="11.8975639"><ele>243.66666666666669</ele><time>2026-04-25T14:02:24.452Z</time></trkpt><trkpt lat="44.1600699" lon="11.8974573"><ele>245.83333333333334</ele><time>2026-04-25T14:02:25.431Z</time></trkpt><trkpt lat="44.1600767" lon="11.8973308"><ele>248.0</ele><time>2026-04-25T14:02:26.423Z</time></trkpt><trkpt lat="44.160088" lon="11.8972077"><ele>248.83333333333334</ele><time>2026-04-25T14:02:27.429Z</time></trkpt><trkpt lat="44.160113" lon="11.8970894"><ele>249.66666666666669</ele><time>2026-04-25T14:02:28.432Z</time></trkpt><trkpt lat="44.1601421" lon="11.8969623"><ele>250.5</ele><time>2026-04-25T14:02:29.434Z</time></trkpt><trkpt lat="44.160169" lon="11.896836"><ele>251.33333333333331</ele><time>2026-04-25T14:02:30.432Z</time></trkpt><trkpt lat="44.1601984" lon="11.8967332"><ele>252.16666666666666</ele><time>2026-04-25T14:02:31.436Z</time></trkpt><trkpt lat="44.1602346" lon="11.8966397"><ele>253.0</ele><time>2026-04-25T14:02:32.421Z</time></trkpt><trkpt lat="44.1602822" lon="11.8965496"><ele>253.66666666666666</ele><time>2026-04-25T14:02:33.425Z</time></trkpt><trkpt lat="44.1603361" lon="11.8964658"><ele>254.33333333333331</ele><time>2026-04-25T14:02:34.418Z</time></trkpt><trkpt lat="44.1603903" lon="11.8963798"><ele>255.0</ele><time>2026-04-25T14:02:35.44Z</time></trkpt><trkpt lat="44.1604428" lon="11.8962841"><ele>255.66666666666669</ele><time>2026-04-25T14:02:36.428Z</time></trkpt><trkpt lat="44.1604956" lon="11.8961897"><ele>256.33333333333337</ele><time>2026-04-25T14:02:37.443Z</time></trkpt><trkpt lat="44.1605448" lon="11.8961085"><ele>257.0</ele><time>2026-04-25T14:02:38.432Z</time></trkpt><trkpt lat="44.1605846" lon="11.8960397"><ele>257.0</ele><time>2026-04-25T14:02:39.425Z</time></trkpt><trkpt lat="44.1606252" lon="11.8959704"><ele>257.0</ele><time>2026-04-25T14:02:41.423Z</time></trkpt><trkpt lat="44.160643" lon="11.8958846"><ele>257.0</ele><time>2026-04-25T14:03:21.421Z</time></trkpt><trkpt lat="44.1605788" lon="11.8958754"><ele>257.0</ele><time>2026-04-25T14:03:26.426Z</time></trkpt><trkpt lat="44.1604879" lon="11.8958528"><ele>257.0</ele><time>2026-04-25T14:03:30.424Z</time></trkpt><trkpt lat="44.1604083" lon="11.8958158"><ele>257.0</ele><time>2026-04-25T14:03:32.424Z</time></trkpt><trkpt lat="44.1603348" lon="11.8957776"><ele>257.0</ele><time>2026-04-25T14:03:34.426Z</time></trkpt><trkpt lat="44.1602717" lon="11.8957432"><ele>258.1666666666667</ele><time>2026-04-25T14:03:36.426Z</time></trkpt><trkpt lat="44.160206" lon="11.8957104"><ele>259.33333333333337</ele><time>2026-04-25T14:03:38.428Z</time></trkpt><trkpt lat="44.160138" lon="11.8956734"><ele>260.5</ele><time>2026-04-25T14:03:40.43Z</time></trkpt><trkpt lat="44.1600663" lon="11.8956311"><ele>261.6666666666667</ele><time>2026-04-25T14:03:42.429Z</time></trkpt><trkpt lat="44.1599792" lon="11.8955824"><ele>262.8333333333333</ele><time>2026-04-25T14:03:44.425Z</time></trkpt><trkpt lat="44.1598857" lon="11.8955418"><ele>264.0</ele><time>2026-04-25T14:03:46.425Z</time></trkpt><trkpt lat="44.1597782" lon="11.8954935"><ele>259.2</ele><time>2026-04-25T14:03:48.434Z</time></trkpt><trkpt lat="44.1596722" lon="11.8954326"><ele>254.39999999999998</ele><time>2026-04-25T14:03:50.439Z</time></trkpt><trkpt lat="44.1596123" lon="11.8954011"><ele>249.6</ele><time>2026-04-25T14:03:51.421Z</time></trkpt><trkpt lat="44.1595039" lon="11.8953585"><ele>244.8</ele><time>2026-04-25T14:03:53.423Z</time></trkpt><trkpt lat="44.159401" lon="11.8953486"><ele>240.0</ele><time>2026-04-25T14:03:55.444Z</time></trkpt><trkpt lat="44.1593036" lon="11.8953217"><ele>240.0</ele><time>2026-04-25T14:03:57.425Z</time></trkpt><trkpt lat="44.1592083" lon="11.8952843"><ele>240.0</ele><time>2026-04-25T14:03:59.423Z</time></trkpt><trkpt lat="44.1590882" lon="11.8952325"><ele>240.0</ele><time>2026-04-25T14:04:01.421Z</time></trkpt><trkpt lat="44.1590257" lon="11.8952125"><ele>240.0</ele><time>2026-04-25T14:04:02.423Z</time></trkpt><trkpt lat="44.1588938" lon="11.8952259"><ele>240.0</ele><time>2026-04-25T14:04:04.421Z</time></trkpt><trkpt lat="44.158825" lon="11.8952443"><ele>238.0</ele><time>2026-04-25T14:04:05.43Z</time></trkpt><trkpt lat="44.1587637" lon="11.8952755"><ele>236.0</ele><time>2026-04-25T14:04:06.42Z</time></trkpt><trkpt lat="44.158701" lon="11.8953033"><ele>234.0</ele><time>2026-04-25T14:04:07.432Z</time></trkpt><trkpt lat="44.1586347" lon="11.8953299"><ele>232.0</ele><time>2026-04-25T14:04:08.431Z</time></trkpt><trkpt lat="44.1585633" lon="11.8953635"><ele>230.0</ele><time>2026-04-25T14:04:09.429Z</time></trkpt><trkpt lat="44.1584941" lon="11.8953861"><ele>228.0</ele><time>2026-04-25T14:04:10.427Z</time></trkpt><trkpt lat="44.1583767" lon="11.8954307"><ele>228.0</ele><time>2026-04-25T14:04:12.432Z</time></trkpt><trkpt lat="44.158277" lon="11.8954632"><ele>228.0</ele><time>2026-04-25T14:04:14.429Z</time></trkpt><trkpt lat="44.1581602" lon="11.8954641"><ele>228.0</ele><time>2026-04-25T14:04:16.426Z</time></trkpt><trkpt lat="44.158096" lon="11.8954661"><ele>228.0</ele><time>2026-04-25T14:04:17.426Z</time></trkpt><trkpt lat="44.1580335" lon="11.8954782"><ele>228.0</ele><time>2026-04-25T14:04:18.434Z</time></trkpt><trkpt lat="44.1579365" lon="11.8955313"><ele>226.0</ele><time>2026-04-25T14:04:20.435Z</time></trkpt><trkpt lat="44.1578274" lon="11.8955967"><ele>224.0</ele><time>2026-04-25T14:04:22.423Z</time></trkpt><trkpt lat="44.1577626" lon="11.8956358"><ele>222.0</ele><time>2026-04-25T14:04:23.426Z</time></trkpt><trkpt lat="44.1576932" lon="11.8956723"><ele>220.0</ele><time>2026-04-25T14:04:24.434Z</time></trkpt><trkpt lat="44.1576257" lon="11.8957119"><ele>218.0</ele><time>2026-04-25T14:04:25.433Z</time></trkpt><trkpt lat="44.157564" lon="11.8957525"><ele>216.0</ele><time>2026-04-25T14:04:26.443Z</time></trkpt><trkpt lat="44.1574597" lon="11.8958119"><ele>213.0</ele><time>2026-04-25T14:04:28.43Z</time></trkpt><trkpt lat="44.1573548" lon="11.8958346"><ele>210.00000000000003</ele><time>2026-04-25T14:04:30.432Z</time></trkpt><trkpt lat="44.157247" lon="11.8958129"><ele>207.0</ele><time>2026-04-25T14:04:32.437Z</time></trkpt><trkpt lat="44.1571245" lon="11.8957662"><ele>204.0</ele><time>2026-04-25T14:04:34.426Z</time></trkpt><trkpt lat="44.1570225" lon="11.895742"><ele>201.0</ele><time>2026-04-25T14:04:36.43Z</time></trkpt><trkpt lat="44.156956" lon="11.8957189"><ele>201.0</ele><time>2026-04-25T14:04:38.429Z</time></trkpt><trkpt lat="44.1568667" lon="11.8956871"><ele>201.0</ele><time>2026-04-25T14:04:41.432Z</time></trkpt><trkpt lat="44.1568067" lon="11.8956191"><ele>201.0</ele><time>2026-04-25T14:04:43.426Z</time></trkpt><trkpt lat="44.1567461" lon="11.8955773"><ele>201.0</ele><time>2026-04-25T14:04:45.428Z</time></trkpt><trkpt lat="44.1566643" lon="11.8955413"><ele>201.0</ele><time>2026-04-25T14:04:47.421Z</time></trkpt><trkpt lat="44.1565855" lon="11.8955137"><ele>201.0</ele><time>2026-04-25T14:04:49.429Z</time></trkpt><trkpt lat="44.1565145" lon="11.895511"><ele>196.4</ele><time>2026-04-25T14:04:51.431Z</time></trkpt><trkpt lat="44.1564584" lon="11.895603"><ele>191.8</ele><time>2026-04-25T14:04:54.432Z</time></trkpt><trkpt lat="44.1564295" lon="11.8957437"><ele>187.20000000000002</ele><time>2026-04-25T14:04:56.429Z</time></trkpt><trkpt lat="44.1564111" lon="11.8959131"><ele>182.60000000000002</ele><time>2026-04-25T14:04:58.435Z</time></trkpt><trkpt lat="44.1563773" lon="11.8960877"><ele>178.0</ele><time>2026-04-25T14:05:00.425Z</time></trkpt><trkpt lat="44.1563565" lon="11.8961707"><ele>176.8</ele><time>2026-04-25T14:05:01.422Z</time></trkpt><trkpt lat="44.1563294" lon="11.8962561"><ele>175.60000000000002</ele><time>2026-04-25T14:05:02.432Z</time></trkpt><trkpt lat="44.1562721" lon="11.8964184"><ele>174.39999999999998</ele><time>2026-04-25T14:05:04.42Z</time></trkpt><trkpt lat="44.156239" lon="11.8965052"><ele>173.2</ele><time>2026-04-25T14:05:05.419Z</time></trkpt><trkpt lat="44.1562071" lon="11.8965832"><ele>172.0</ele><time>2026-04-25T14:05:06.425Z</time></trkpt><trkpt lat="44.156139" lon="11.8967345"><ele>170.39999999999998</ele><time>2026-04-25T14:05:08.427Z</time></trkpt><trkpt lat="44.1560786" lon="11.896883"><ele>168.79999999999998</ele><time>2026-04-25T14:05:10.422Z</time></trkpt><trkpt lat="44.1560112" lon="11.8970235"><ele>167.2</ele><time>2026-04-25T14:05:12.424Z</time></trkpt><trkpt lat="44.1559722" lon="11.897093"><ele>165.6</ele><time>2026-04-25T14:05:13.431Z</time></trkpt><trkpt lat="44.1558846" lon="11.8972286"><ele>164.0</ele><time>2026-04-25T14:05:15.427Z</time></trkpt><trkpt lat="44.1558387" lon="11.8972982"><ele>164.0</ele><time>2026-04-25T14:05:16.433Z</time></trkpt><trkpt lat="44.1557904" lon="11.8973702"><ele>164.0</ele><time>2026-04-25T14:05:17.418Z</time></trkpt><trkpt lat="44.1557476" lon="11.8974429"><ele>164.0</ele><time>2026-04-25T14:05:18.43Z</time></trkpt><trkpt lat="44.1556739" lon="11.8975894"><ele>164.0</ele><time>2026-04-25T14:05:20.42Z</time></trkpt><trkpt lat="44.155641" lon="11.8976688"><ele>164.0</ele><time>2026-04-25T14:05:21.429Z</time></trkpt><trkpt lat="44.155568" lon="11.8978217"><ele>160.28571428571428</ele><time>2026-04-25T14:05:23.419Z</time></trkpt><trkpt lat="44.155524" lon="11.8979084"><ele>156.57142857142856</ele><time>2026-04-25T14:05:24.428Z</time></trkpt><trkpt lat="44.1554873" lon="11.8979961"><ele>152.85714285714286</ele><time>2026-04-25T14:05:25.415Z</time></trkpt><trkpt lat="44.1554537" lon="11.8980852"><ele>149.14285714285714</ele><time>2026-04-25T14:05:26.426Z</time></trkpt><trkpt lat="44.1554177" lon="11.8981764"><ele>145.42857142857144</ele><time>2026-04-25T14:05:27.425Z</time></trkpt><trkpt lat="44.155379" lon="11.8982686"><ele>141.71428571428572</ele><time>2026-04-25T14:05:28.426Z</time></trkpt><trkpt lat="44.1553435" lon="11.898361"><ele>138.0</ele><time>2026-04-25T14:05:29.423Z</time></trkpt><trkpt lat="44.1553077" lon="11.8984469"><ele>137.14285714285714</ele><time>2026-04-25T14:05:30.429Z</time></trkpt><trkpt lat="44.1552708" lon="11.8985296"><ele>136.2857142857143</ele><time>2026-04-25T14:05:31.426Z</time></trkpt><trkpt lat="44.1552293" lon="11.8986099"><ele>135.42857142857144</ele><time>2026-04-25T14:05:32.427Z</time></trkpt><trkpt lat="44.1551891" lon="11.8986866"><ele>134.57142857142858</ele><time>2026-04-25T14:05:33.423Z</time></trkpt><trkpt lat="44.1551405" lon="11.8987433"><ele>133.71428571428572</ele><time>2026-04-25T14:05:34.425Z</time></trkpt><trkpt lat="44.155052" lon="11.8987811"><ele>132.85714285714286</ele><time>2026-04-25T14:05:36.424Z</time></trkpt><trkpt lat="44.1549745" lon="11.898787"><ele>132.0</ele><time>2026-04-25T14:05:38.432Z</time></trkpt><trkpt lat="44.1549094" lon="11.8987786"><ele>132.0</ele><time>2026-04-25T14:05:40.403Z</time></trkpt><trkpt lat="44.1548619" lon="11.8986959"><ele>132.0</ele><time>2026-04-25T14:05:43.429Z</time></trkpt><trkpt lat="44.1548609" lon="11.8985689"><ele>132.0</ele><time>2026-04-25T14:05:46.42Z</time></trkpt><trkpt lat="44.1548729" lon="11.8984487"><ele>132.0</ele><time>2026-04-25T14:05:49.418Z</time></trkpt><trkpt lat="44.1548785" lon="11.8982976"><ele>132.0</ele><time>2026-04-25T14:05:52.423Z</time></trkpt><trkpt lat="44.1548838" lon="11.8981423"><ele>133.0</ele><time>2026-04-25T14:05:54.425Z</time></trkpt><trkpt lat="44.1548878" lon="11.8980445"><ele>134.0</ele><time>2026-04-25T14:05:55.433Z</time></trkpt><trkpt lat="44.1548889" lon="11.8979354"><ele>135.0</ele><time>2026-04-25T14:05:56.425Z</time></trkpt><trkpt lat="44.1548914" lon="11.8978427"><ele>136.0</ele><time>2026-04-25T14:05:57.425Z</time></trkpt><trkpt lat="44.154893" lon="11.897706"><ele>137.0</ele><time>2026-04-25T14:05:59.419Z</time></trkpt><trkpt lat="44.1548838" lon="11.8978011"><ele>138.0</ele><time>2026-04-25T14:06:16.424Z</time></trkpt><trkpt lat="44.1548777" lon="11.8979826"><ele>138.0</ele><time>2026-04-25T14:06:18.423Z</time></trkpt><trkpt lat="44.154879" lon="11.898153"><ele>138.0</ele><time>2026-04-25T14:06:20.418Z</time></trkpt><trkpt lat="44.1548775" lon="11.8983183"><ele>138.0</ele><time>2026-04-25T14:06:22.419Z</time></trkpt><trkpt lat="44.154873" lon="11.8984782"><ele>138.0</ele><time>2026-04-25T14:06:24.42Z</time></trkpt><trkpt lat="44.1548773" lon="11.8986456"><ele>137.0</ele><time>2026-04-25T14:06:26.421Z</time></trkpt><trkpt lat="44.1548884" lon="11.8987391"><ele>136.0</ele><time>2026-04-25T14:06:27.419Z</time></trkpt><trkpt lat="44.1548958" lon="11.8988273"><ele>135.0</ele><time>2026-04-25T14:06:28.425Z</time></trkpt><trkpt lat="44.1548858" lon="11.8989556"><ele>134.0</ele><time>2026-04-25T14:06:30.425Z</time></trkpt><trkpt lat="44.1548475" lon="11.8990893"><ele>133.0</ele><time>2026-04-25T14:06:32.424Z</time></trkpt><trkpt lat="44.1548182" lon="11.8992305"><ele>132.0</ele><time>2026-04-25T14:06:34.43Z</time></trkpt><trkpt lat="44.1548038" lon="11.8993734"><ele>134.16666666666666</ele><time>2026-04-25T14:06:36.423Z</time></trkpt><trkpt lat="44.1547876" lon="11.899508"><ele>136.33333333333334</ele><time>2026-04-25T14:06:38.424Z</time></trkpt><trkpt lat="44.1547885" lon="11.8996298"><ele>138.5</ele><time>2026-04-25T14:06:40.449Z</time></trkpt><trkpt lat="44.1547955" lon="11.89972"><ele>140.66666666666669</ele><time>2026-04-25T14:06:42.424Z</time></trkpt><trkpt lat="44.154733" lon="11.8997744"><ele>142.83333333333334</ele><time>2026-04-25T14:06:46.443Z</time></trkpt><trkpt lat="44.1546708" lon="11.8997132"><ele>145.0</ele><time>2026-04-25T14:06:52.425Z</time></trkpt><trkpt lat="44.154623" lon="11.8996145"><ele>145.0</ele><time>2026-04-25T14:06:54.434Z</time></trkpt><trkpt lat="44.1546068" lon="11.899518"><ele>145.0</ele><time>2026-04-25T14:08:27.422Z</time></trkpt><trkpt lat="44.1546287" lon="11.8996159"><ele>145.0</ele><time>2026-04-25T14:08:40.429Z</time></trkpt><trkpt lat="44.1546693" lon="11.8996852"><ele>145.0</ele><time>2026-04-25T14:08:43.442Z</time></trkpt><trkpt lat="44.154725" lon="11.8997431"><ele>145.0</ele><time>2026-04-25T14:08:51.439Z</time></trkpt><trkpt lat="44.1547986" lon="11.8997265"><ele>145.0</ele><time>2026-04-25T14:08:54.426Z</time></trkpt><trkpt lat="44.154784" lon="11.8995708"><ele>145.0</ele><time>2026-04-25T14:08:58.418Z</time></trkpt><trkpt lat="44.1547833" lon="11.8994219"><ele>145.0</ele><time>2026-04-25T14:09:00.428Z</time></trkpt><trkpt lat="44.1548086" lon="11.899243"><ele>145.0</ele><time>2026-04-25T14:09:02.426Z</time></trkpt><trkpt lat="44.1548254" lon="11.8991455"><ele>145.0</ele><time>2026-04-25T14:09:03.422Z</time></trkpt><trkpt lat="44.1548442" lon="11.8990489"><ele>145.0</ele><time>2026-04-25T14:09:04.421Z</time></trkpt><trkpt lat="44.154865" lon="11.8989598"><ele>145.0</ele><time>2026-04-25T14:09:05.419Z</time></trkpt><trkpt lat="44.154889" lon="11.8988743"><ele>143.83333333333334</ele><time>2026-04-25T14:09:06.43Z</time></trkpt><trkpt lat="44.1548931" lon="11.898707"><ele>142.66666666666669</ele><time>2026-04-25T14:09:08.432Z</time></trkpt><trkpt lat="44.1548876" lon="11.8986169"><ele>141.5</ele><time>2026-04-25T14:09:09.423Z</time></trkpt><trkpt lat="44.1548777" lon="11.8985274"><ele>140.33333333333334</ele><time>2026-04-25T14:09:10.43Z</time></trkpt><trkpt lat="44.1548745" lon="11.898437"><ele>139.16666666666666</ele><time>2026-04-25T14:09:11.424Z</time></trkpt><trkpt lat="44.1548779" lon="11.8982889"><ele>138.0</ele><time>2026-04-25T14:09:13.441Z</time></trkpt><trkpt lat="44.1548846" lon="11.8981636"><ele>138.0</ele><time>2026-04-25T14:09:15.432Z</time></trkpt><trkpt lat="44.1548885" lon="11.8979775"><ele>138.0</ele><time>2026-04-25T14:09:17.426Z</time></trkpt><trkpt lat="44.1548907" lon="11.8978689"><ele>138.0</ele><time>2026-04-25T14:09:18.434Z</time></trkpt><trkpt lat="44.1548936" lon="11.8977434"><ele>138.0</ele><time>2026-04-25T14:09:19.421Z</time></trkpt><trkpt lat="44.1548936" lon="11.8976161"><ele>138.0</ele><time>2026-04-25T14:09:20.421Z</time></trkpt><trkpt lat="44.1548877" lon="11.8974972"><ele>138.66666666666666</ele><time>2026-04-25T14:09:21.429Z</time></trkpt><trkpt lat="44.1548788" lon="11.8973777"><ele>139.33333333333334</ele><time>2026-04-25T14:09:22.42Z</time></trkpt><trkpt lat="44.1548732" lon="11.8972656"><ele>140.0</ele><time>2026-04-25T14:09:23.418Z</time></trkpt><trkpt lat="44.1548687" lon="11.8971599"><ele>140.66666666666669</ele><time>2026-04-25T14:09:24.432Z</time></trkpt><trkpt lat="44.1548697" lon="11.8970504"><ele>141.33333333333334</ele><time>2026-04-25T14:09:25.417Z</time></trkpt><trkpt lat="44.154862" lon="11.8969331"><ele>142.0</ele><time>2026-04-25T14:09:26.421Z</time></trkpt><trkpt lat="44.1548506" lon="11.8968144"><ele>142.66666666666669</ele><time>2026-04-25T14:09:27.427Z</time></trkpt><trkpt lat="44.1548392" lon="11.8966974"><ele>143.33333333333334</ele><time>2026-04-25T14:09:28.427Z</time></trkpt><trkpt lat="44.1548321" lon="11.8965733"><ele>144.0</ele><time>2026-04-25T14:09:29.423Z</time></trkpt><trkpt lat="44.1548289" lon="11.8964569"><ele>144.66666666666666</ele><time>2026-04-25T14:09:30.423Z</time></trkpt><trkpt lat="44.1548349" lon="11.8963523"><ele>145.33333333333331</ele><time>2026-04-25T14:09:31.431Z</time></trkpt><trkpt lat="44.1548527" lon="11.8962542"><ele>146.0</ele><time>2026-04-25T14:09:32.426Z</time></trkpt><trkpt lat="44.1548775" lon="11.8961456"><ele>146.0</ele><time>2026-04-25T14:09:33.427Z</time></trkpt><trkpt lat="44.1549017" lon="11.8960395"><ele>146.0</ele><time>2026-04-25T14:09:34.427Z</time></trkpt><trkpt lat="44.1549138" lon="11.8959429"><ele>146.0</ele><time>2026-04-25T14:09:35.428Z</time></trkpt><trkpt lat="44.1549111" lon="11.8958414"><ele>146.0</ele><time>2026-04-25T14:09:36.42Z</time></trkpt><trkpt lat="44.154913" lon="11.8957435"><ele>146.0</ele><time>2026-04-25T14:09:37.422Z</time></trkpt><trkpt lat="44.1549093" lon="11.8956401"><ele>146.0</ele><time>2026-04-25T14:09:38.419Z</time></trkpt><trkpt lat="44.1548977" lon="11.8955469"><ele>146.0</ele><time>2026-04-25T14:09:39.418Z</time></trkpt><trkpt lat="44.1548854" lon="11.8954193"><ele>147.16666666666666</ele><time>2026-04-25T14:09:41.429Z</time></trkpt><trkpt lat="44.1549024" lon="11.8952775"><ele>148.33333333333331</ele><time>2026-04-25T14:09:43.43Z</time></trkpt><trkpt lat="44.1549461" lon="11.8951243"><ele>149.5</ele><time>2026-04-25T14:09:45.413Z</time></trkpt><trkpt lat="44.1549794" lon="11.895047"><ele>150.66666666666666</ele><time>2026-04-25T14:09:46.433Z</time></trkpt><trkpt lat="44.1550202" lon="11.8949583"><ele>151.83333333333334</ele><time>2026-04-25T14:09:47.423Z</time></trkpt><trkpt lat="44.1550634" lon="11.8948687"><ele>153.0</ele><time>2026-04-25T14:09:48.418Z</time></trkpt><trkpt lat="44.1551029" lon="11.8947806"><ele>153.0</ele><time>2026-04-25T14:09:49.432Z</time></trkpt><trkpt lat="44.1551449" lon="11.894695"><ele>153.0</ele><time>2026-04-25T14:09:50.427Z</time></trkpt><trkpt lat="44.1551896" lon="11.8946123"><ele>153.0</ele><time>2026-04-25T14:09:51.425Z</time></trkpt><trkpt lat="44.1552634" lon="11.8945083"><ele>153.0</ele><time>2026-04-25T14:09:53.421Z</time></trkpt><trkpt lat="44.1553222" lon="11.8944306"><ele>153.0</ele><time>2026-04-25T14:09:55.427Z</time></trkpt><trkpt lat="44.1553795" lon="11.8943413"><ele>153.0</ele><time>2026-04-25T14:09:57.419Z</time></trkpt><trkpt lat="44.1554192" lon="11.8942394"><ele>153.0</ele><time>2026-04-25T14:09:59.436Z</time></trkpt><trkpt lat="44.1554666" lon="11.8941627"><ele>153.0</ele><time>2026-04-25T14:10:02.423Z</time></trkpt><trkpt lat="44.1555393" lon="11.8941232"><ele>153.0</ele><time>2026-04-25T14:10:05.443Z</time></trkpt><trkpt lat="44.155624" lon="11.8941115"><ele>153.0</ele><time>2026-04-25T14:10:07.425Z</time></trkpt><trkpt lat="44.1556897" lon="11.8940991"><ele>153.0</ele><time>2026-04-25T14:10:09.424Z</time></trkpt><trkpt lat="44.15576" lon="11.8940449"><ele>153.0</ele><time>2026-04-25T14:10:11.427Z</time></trkpt><trkpt lat="44.1558291" lon="11.8939894"><ele>153.71428571428572</ele><time>2026-04-25T14:10:12.427Z</time></trkpt><trkpt lat="44.1558979" lon="11.8939491"><ele>154.42857142857144</ele><time>2026-04-25T14:10:13.432Z</time></trkpt><trkpt lat="44.1559672" lon="11.8938986"><ele>155.14285714285717</ele><time>2026-04-25T14:10:14.426Z</time></trkpt><trkpt lat="44.156038" lon="11.8938568"><ele>155.85714285714286</ele><time>2026-04-25T14:10:15.418Z</time></trkpt><trkpt lat="44.1561078" lon="11.8938209"><ele>156.57142857142858</ele><time>2026-04-25T14:10:16.438Z</time></trkpt><trkpt lat="44.1561799" lon="11.8937904"><ele>157.2857142857143</ele><time>2026-04-25T14:10:17.418Z</time></trkpt><trkpt lat="44.1562472" lon="11.8937696"><ele>158.0</ele><time>2026-04-25T14:10:18.423Z</time></trkpt><trkpt lat="44.1563142" lon="11.893745"><ele>158.0</ele><time>2026-04-25T14:10:19.415Z</time></trkpt><trkpt lat="44.1563884" lon="11.8937073"><ele>158.0</ele><time>2026-04-25T14:10:20.419Z</time></trkpt><trkpt lat="44.1564734" lon="11.8936584"><ele>158.0</ele><time>2026-04-25T14:10:21.429Z</time></trkpt><trkpt lat="44.1565666" lon="11.8935909"><ele>158.0</ele><time>2026-04-25T14:10:22.415Z</time></trkpt><trkpt lat="44.1566548" lon="11.8935348"><ele>158.0</ele><time>2026-04-25T14:10:23.419Z</time></trkpt><trkpt lat="44.1567466" lon="11.8934903"><ele>159.25</ele><time>2026-04-25T14:10:24.43Z</time></trkpt><trkpt lat="44.156854" lon="11.8934303"><ele>160.5</ele><time>2026-04-25T14:10:25.42Z</time></trkpt><trkpt lat="44.1569614" lon="11.8933571"><ele>161.75</ele><time>2026-04-25T14:10:26.432Z</time></trkpt><trkpt lat="44.1570701" lon="11.8932915"><ele>163.0</ele><time>2026-04-25T14:10:27.424Z</time></trkpt><trkpt lat="44.1571848" lon="11.8932413"><ele>163.0</ele><time>2026-04-25T14:10:28.424Z</time></trkpt><trkpt lat="44.1573006" lon="11.8932229"><ele>163.0</ele><time>2026-04-25T14:10:29.436Z</time></trkpt><trkpt lat="44.1574168" lon="11.8932022"><ele>163.0</ele><time>2026-04-25T14:10:30.42Z</time></trkpt><trkpt lat="44.1575284" lon="11.8931822"><ele>163.0</ele><time>2026-04-25T14:10:31.423Z</time></trkpt><trkpt lat="44.1576409" lon="11.8931438"><ele>165.0</ele><time>2026-04-25T14:10:32.423Z</time></trkpt><trkpt lat="44.1577513" lon="11.8931024"><ele>167.0</ele><time>2026-04-25T14:10:33.428Z</time></trkpt><trkpt lat="44.1578407" lon="11.8930803"><ele>169.0</ele><time>2026-04-25T14:10:34.421Z</time></trkpt><trkpt lat="44.1579295" lon="11.8930811"><ele>171.0</ele><time>2026-04-25T14:10:35.426Z</time></trkpt><trkpt lat="44.1580186" lon="11.8930874"><ele>173.0</ele><time>2026-04-25T14:10:36.421Z</time></trkpt><trkpt lat="44.1580974" lon="11.8930751"><ele>173.0</ele><time>2026-04-25T14:10:37.428Z</time></trkpt><trkpt lat="44.1581673" lon="11.8930178"><ele>173.0</ele><time>2026-04-25T14:10:38.417Z</time></trkpt><trkpt lat="44.1582322" lon="11.8929516"><ele>173.0</ele><time>2026-04-25T14:10:39.411Z</time></trkpt><trkpt lat="44.1582979" lon="11.8928736"><ele>173.0</ele><time>2026-04-25T14:10:40.423Z</time></trkpt><trkpt lat="44.1583639" lon="11.8927879"><ele>173.0</ele><time>2026-04-25T14:10:41.428Z</time></trkpt><trkpt lat="44.1584447" lon="11.8927083"><ele>173.0</ele><time>2026-04-25T14:10:42.422Z</time></trkpt><trkpt lat="44.1585169" lon="11.8926472"><ele>174.33333333333331</ele><time>2026-04-25T14:10:43.428Z</time></trkpt><trkpt lat="44.1585824" lon="11.8925972"><ele>175.66666666666666</ele><time>2026-04-25T14:10:45.429Z</time></trkpt><trkpt lat="44.1586394" lon="11.892551"><ele>177.0</ele><time>2026-04-25T14:10:58.438Z</time></trkpt><trkpt lat="44.1586804" lon="11.8924708"><ele>178.33333333333334</ele><time>2026-04-25T14:11:01.414Z</time></trkpt><trkpt lat="44.1587089" lon="11.8923865"><ele>179.66666666666669</ele><time>2026-04-25T14:11:04.431Z</time></trkpt><trkpt lat="44.1587329" lon="11.8922707"><ele>181.0</ele><time>2026-04-25T14:11:07.413Z</time></trkpt><trkpt lat="44.1587866" lon="11.8921789"><ele>181.0</ele><time>2026-04-25T14:11:10.427Z</time></trkpt><trkpt lat="44.1588416" lon="11.8920974"><ele>181.0</ele><time>2026-04-25T14:11:13.425Z</time></trkpt><trkpt lat="44.1588465" lon="11.8920055"><ele>181.0</ele><time>2026-04-25T14:11:30.426Z</time></trkpt><trkpt lat="44.1588291" lon="11.8921237"><ele>181.0</ele><time>2026-04-25T14:11:42.42Z</time></trkpt><trkpt lat="44.1587853" lon="11.892194"><ele>181.0</ele><time>2026-04-25T14:11:44.419Z</time></trkpt><trkpt lat="44.1587256" lon="11.8922849"><ele>181.0</ele><time>2026-04-25T14:11:47.422Z</time></trkpt><trkpt lat="44.1586952" lon="11.8923822"><ele>181.0</ele><time>2026-04-25T14:11:49.427Z</time></trkpt><trkpt lat="44.1586618" lon="11.8925023"><ele>181.0</ele><time>2026-04-25T14:11:51.417Z</time></trkpt><trkpt lat="44.1586264" lon="11.8925904"><ele>181.0</ele><time>2026-04-25T14:11:53.414Z</time></trkpt><trkpt lat="44.1585577" lon="11.8926398"><ele>181.0</ele><time>2026-04-25T14:11:57.422Z</time></trkpt><trkpt lat="44.1584855" lon="11.8927073"><ele>181.0</ele><time>2026-04-25T14:12:00.421Z</time></trkpt><trkpt lat="44.1584284" lon="11.892756"><ele>181.0</ele><time>2026-04-25T14:12:02.413Z</time></trkpt><trkpt lat="44.1583736" lon="11.8928043"><ele>181.66666666666669</ele><time>2026-04-25T14:12:04.41Z</time></trkpt><trkpt lat="44.1583005" lon="11.892872"><ele>182.33333333333334</ele><time>2026-04-25T14:12:07.423Z</time></trkpt><trkpt lat="44.1582442" lon="11.8929425"><ele>183.0</ele><time>2026-04-25T14:12:10.425Z</time></trkpt><trkpt lat="44.158183" lon="11.893011"><ele>183.66666666666666</ele><time>2026-04-25T14:12:13.427Z</time></trkpt><trkpt lat="44.1581079" lon="11.8930591"><ele>184.33333333333331</ele><time>2026-04-25T14:12:16.425Z</time></trkpt><trkpt lat="44.1580393" lon="11.8930977"><ele>185.0</ele><time>2026-04-25T14:12:19.423Z</time></trkpt><trkpt lat="44.1579644" lon="11.8931071"><ele>183.0</ele><time>2026-04-25T14:12:22.425Z</time></trkpt><trkpt lat="44.1578743" lon="11.8931014"><ele>181.0</ele><time>2026-04-25T14:12:25.436Z</time></trkpt><trkpt lat="44.1577833" lon="11.8930936"><ele>179.0</ele><time>2026-04-25T14:12:28.425Z</time></trkpt><trkpt lat="44.1577075" lon="11.8931284"><ele>177.0</ele><time>2026-04-25T14:12:30.43Z</time></trkpt><trkpt lat="44.1576435" lon="11.8931584"><ele>175.0</ele><time>2026-04-25T14:12:32.429Z</time></trkpt><trkpt lat="44.1575798" lon="11.8931853"><ele>173.0</ele><time>2026-04-25T14:12:34.429Z</time></trkpt><trkpt lat="44.1574874" lon="11.8932051"><ele>173.0</ele><time>2026-04-25T14:12:37.421Z</time></trkpt><trkpt lat="44.1574229" lon="11.8932222"><ele>173.0</ele><time>2026-04-25T14:12:39.434Z</time></trkpt><trkpt lat="44.1573387" lon="11.8932253"><ele>173.0</ele><time>2026-04-25T14:12:42.431Z</time></trkpt><trkpt lat="44.1572682" lon="11.893234"><ele>173.0</ele><time>2026-04-25T14:12:45.416Z</time></trkpt><trkpt lat="44.1572011" lon="11.8932545"><ele>173.0</ele><time>2026-04-25T14:12:48.422Z</time></trkpt><trkpt lat="44.1571359" lon="11.8932814"><ele>173.0</ele><time>2026-04-25T14:12:50.428Z</time></trkpt><trkpt lat="44.1570682" lon="11.8933188"><ele>173.0</ele><time>2026-04-25T14:12:52.421Z</time></trkpt><trkpt lat="44.1569969" lon="11.8933609"><ele>172.33333333333331</ele><time>2026-04-25T14:12:54.429Z</time></trkpt><trkpt lat="44.1569349" lon="11.8933987"><ele>171.66666666666666</ele><time>2026-04-25T14:12:56.441Z</time></trkpt><trkpt lat="44.156871" lon="11.893443"><ele>171.0</ele><time>2026-04-25T14:12:58.426Z</time></trkpt><trkpt lat="44.1568023" lon="11.8934851"><ele>170.33333333333334</ele><time>2026-04-25T14:13:00.426Z</time></trkpt><trkpt lat="44.1567081" lon="11.8935196"><ele>169.66666666666669</ele><time>2026-04-25T14:13:02.432Z</time></trkpt><trkpt lat="44.1565892" lon="11.8935795"><ele>169.0</ele><time>2026-04-25T14:13:04.422Z</time></trkpt><trkpt lat="44.1564747" lon="11.8936691"><ele>166.79999999999998</ele><time>2026-04-25T14:13:06.423Z</time></trkpt><trkpt lat="44.1563996" lon="11.8937172"><ele>164.6</ele><time>2026-04-25T14:13:07.412Z</time></trkpt><trkpt lat="44.1563156" lon="11.8937634"><ele>162.4</ele><time>2026-04-25T14:13:08.414Z</time></trkpt><trkpt lat="44.1562263" lon="11.8937996"><ele>160.2</ele><time>2026-04-25T14:13:09.422Z</time></trkpt><trkpt lat="44.1561326" lon="11.8938411"><ele>158.0</ele><time>2026-04-25T14:13:10.416Z</time></trkpt><trkpt lat="44.1560407" lon="11.893885"><ele>158.0</ele><time>2026-04-25T14:13:11.426Z</time></trkpt><trkpt lat="44.1559365" lon="11.8939423"><ele>158.0</ele><time>2026-04-25T14:13:12.426Z</time></trkpt><trkpt lat="44.155837" lon="11.893996"><ele>158.0</ele><time>2026-04-25T14:13:13.427Z</time></trkpt><trkpt lat="44.1557466" lon="11.8940527"><ele>158.0</ele><time>2026-04-25T14:13:14.414Z</time></trkpt><trkpt lat="44.1556629" lon="11.8940972"><ele>158.0</ele><time>2026-04-25T14:13:15.412Z</time></trkpt><trkpt lat="44.1555981" lon="11.8941143"><ele>157.20000000000002</ele><time>2026-04-25T14:13:16.423Z</time></trkpt><trkpt lat="44.1555049" lon="11.8941409"><ele>156.4</ele><time>2026-04-25T14:13:18.426Z</time></trkpt><trkpt lat="44.1554246" lon="11.8942307"><ele>155.60000000000002</ele><time>2026-04-25T14:13:22.421Z</time></trkpt><trkpt lat="44.1553923" lon="11.8943306"><ele>154.8</ele><time>2026-04-25T14:13:24.437Z</time></trkpt><trkpt lat="44.1553407" lon="11.8944531"><ele>154.0</ele><time>2026-04-25T14:13:26.43Z</time></trkpt><trkpt lat="44.1552532" lon="11.8945743"><ele>154.0</ele><time>2026-04-25T14:13:28.42Z</time></trkpt><trkpt lat="44.1552001" lon="11.894645"><ele>154.0</ele><time>2026-04-25T14:13:29.416Z</time></trkpt><trkpt lat="44.1551555" lon="11.8947258"><ele>154.0</ele><time>2026-04-25T14:13:30.431Z</time></trkpt><trkpt lat="44.155114" lon="11.894816"><ele>154.0</ele><time>2026-04-25T14:13:31.44Z</time></trkpt><trkpt lat="44.15508" lon="11.8948976"><ele>154.0</ele><time>2026-04-25T14:13:32.412Z</time></trkpt><trkpt lat="44.1550423" lon="11.8949742"><ele>154.0</ele><time>2026-04-25T14:13:33.426Z</time></trkpt><trkpt lat="44.155003" lon="11.8950563"><ele>154.0</ele><time>2026-04-25T14:13:34.418Z</time></trkpt><trkpt lat="44.1549641" lon="11.8951389"><ele>153.83333333333334</ele><time>2026-04-25T14:13:35.428Z</time></trkpt><trkpt lat="44.1549328" lon="11.8952204"><ele>153.66666666666669</ele><time>2026-04-25T14:13:36.426Z</time></trkpt><trkpt lat="44.1549006" lon="11.895382"><ele>153.5</ele><time>2026-04-25T14:13:38.411Z</time></trkpt><trkpt lat="44.1548991" lon="11.8954863"><ele>153.33333333333334</ele><time>2026-04-25T14:13:39.431Z</time></trkpt><trkpt lat="44.1549021" lon="11.8955935"><ele>153.16666666666666</ele><time>2026-04-25T14:13:40.433Z</time></trkpt><trkpt lat="44.1549077" lon="11.895693"><ele>153.0</ele><time>2026-04-25T14:13:41.419Z</time></trkpt><trkpt lat="44.1549118" lon="11.8958511"><ele>152.6</ele><time>2026-04-25T14:13:43.431Z</time></trkpt><trkpt lat="44.1549092" lon="11.8960061"><ele>152.20000000000002</ele><time>2026-04-25T14:13:45.425Z</time></trkpt><trkpt lat="44.1548828" lon="11.8961799"><ele>151.8</ele><time>2026-04-25T14:13:47.417Z</time></trkpt><trkpt lat="44.154855" lon="11.8962691"><ele>151.4</ele><time>2026-04-25T14:13:48.419Z</time></trkpt><trkpt lat="44.1548307" lon="11.8963618"><ele>151.0</ele><time>2026-04-25T14:13:49.42Z</time></trkpt><trkpt lat="44.1548103" lon="11.8964565"><ele>151.00000000000003</ele><time>2026-04-25T14:13:50.414Z</time></trkpt><trkpt lat="44.1548038" lon="11.8965549"><ele>151.0</ele><time>2026-04-25T14:13:51.421Z</time></trkpt><trkpt lat="44.1548098" lon="11.8966584"><ele>151.0</ele><time>2026-04-25T14:13:52.427Z</time></trkpt><trkpt lat="44.1548187" lon="11.8967552"><ele>151.0</ele><time>2026-04-25T14:13:53.439Z</time></trkpt><trkpt lat="44.1548325" lon="11.8968501"><ele>151.0</ele><time>2026-04-25T14:13:54.416Z</time></trkpt><trkpt lat="44.154845" lon="11.8969445"><ele>151.00000000000003</ele><time>2026-04-25T14:13:55.421Z</time></trkpt><trkpt lat="44.1548514" lon="11.8970444"><ele>151.0</ele><time>2026-04-25T14:13:56.442Z</time></trkpt><trkpt lat="44.1548517" lon="11.8971566"><ele>150.33333333333334</ele><time>2026-04-25T14:13:57.427Z</time></trkpt><trkpt lat="44.1548585" lon="11.8972592"><ele>149.66666666666669</ele><time>2026-04-25T14:13:58.426Z</time></trkpt><trkpt lat="44.1548657" lon="11.8973704"><ele>149.0</ele><time>2026-04-25T14:13:59.428Z</time></trkpt><trkpt lat="44.1548745" lon="11.897474"><ele>148.33333333333334</ele><time>2026-04-25T14:14:00.422Z</time></trkpt><trkpt lat="44.154882" lon="11.8975805"><ele>147.66666666666666</ele><time>2026-04-25T14:14:01.419Z</time></trkpt><trkpt lat="44.154885" lon="11.8976972"><ele>147.0</ele><time>2026-04-25T14:14:02.437Z</time></trkpt><trkpt lat="44.1548821" lon="11.8978256"><ele>147.5</ele><time>2026-04-25T14:14:03.426Z</time></trkpt><trkpt lat="44.1548794" lon="11.8979463"><ele>148.0</ele><time>2026-04-25T14:14:04.433Z</time></trkpt><trkpt lat="44.1548772" lon="11.8980731"><ele>148.5</ele><time>2026-04-25T14:14:05.417Z</time></trkpt><trkpt lat="44.1548721" lon="11.8981967"><ele>149.0</ele><time>2026-04-25T14:14:06.426Z</time></trkpt><trkpt lat="44.1548707" lon="11.8983017"><ele>149.5</ele><time>2026-04-25T14:14:07.425Z</time></trkpt><trkpt lat="44.1548706" lon="11.8984041"><ele>150.0</ele><time>2026-04-25T14:14:08.421Z</time></trkpt><trkpt lat="44.1548717" lon="11.8985104"><ele>150.16666666666666</ele><time>2026-04-25T14:14:09.422Z</time></trkpt><trkpt lat="44.154877" lon="11.8986301"><ele>150.33333333333334</ele><time>2026-04-25T14:14:10.423Z</time></trkpt><trkpt lat="44.1548817" lon="11.8987246"><ele>150.5</ele><time>2026-04-25T14:14:11.423Z</time></trkpt><trkpt lat="44.1548942" lon="11.8988244"><ele>150.66666666666669</ele><time>2026-04-25T14:14:13.427Z</time></trkpt><trkpt lat="44.1548877" lon="11.8989206"><ele>150.83333333333334</ele><time>2026-04-25T14:14:16.433Z</time></trkpt><trkpt lat="44.1548685" lon="11.8990082"><ele>151.0</ele><time>2026-04-25T14:14:18.42Z</time></trkpt><trkpt lat="44.1548374" lon="11.8991259"><ele>149.5</ele><time>2026-04-25T14:14:20.432Z</time></trkpt><trkpt lat="44.1548082" lon="11.8992895"><ele>148.0</ele><time>2026-04-25T14:14:22.428Z</time></trkpt><trkpt lat="44.1547973" lon="11.8994418"><ele>146.5</ele><time>2026-04-25T14:14:24.431Z</time></trkpt><trkpt lat="44.1547876" lon="11.8995904"><ele>145.0</ele><time>2026-04-25T14:14:26.428Z</time></trkpt><trkpt lat="44.1547966" lon="11.8997645"><ele>145.0</ele><time>2026-04-25T14:14:28.425Z</time></trkpt><trkpt lat="44.1548173" lon="11.8998575"><ele>145.0</ele><time>2026-04-25T14:14:29.419Z</time></trkpt><trkpt lat="44.1548474" lon="11.8999483"><ele>145.0</ele><time>2026-04-25T14:14:30.428Z</time></trkpt><trkpt lat="44.1548758" lon="11.900052"><ele>145.0</ele><time>2026-04-25T14:14:31.432Z</time></trkpt><trkpt lat="44.1549036" lon="11.9001635"><ele>145.0</ele><time>2026-04-25T14:14:32.43Z</time></trkpt><trkpt lat="44.1549264" lon="11.900291"><ele>145.0</ele><time>2026-04-25T14:14:33.433Z</time></trkpt><trkpt lat="44.1549449" lon="11.9004262"><ele>141.6</ele><time>2026-04-25T14:14:34.437Z</time></trkpt><trkpt lat="44.1549572" lon="11.9005636"><ele>138.2</ele><time>2026-04-25T14:14:35.422Z</time></trkpt><trkpt lat="44.1549734" lon="11.9007047"><ele>134.8</ele><time>2026-04-25T14:14:36.424Z</time></trkpt><trkpt lat="44.1549903" lon="11.9008418"><ele>131.4</ele><time>2026-04-25T14:14:37.414Z</time></trkpt><trkpt lat="44.1550101" lon="11.9009803"><ele>128.0</ele><time>2026-04-25T14:14:38.433Z</time></trkpt><trkpt lat="44.1550349" lon="11.9011138"><ele>127.80000000000001</ele><time>2026-04-25T14:14:39.425Z</time></trkpt><trkpt lat="44.1550539" lon="11.9012421"><ele>127.60000000000001</ele><time>2026-04-25T14:14:40.43Z</time></trkpt><trkpt lat="44.1550627" lon="11.9013732"><ele>127.39999999999999</ele><time>2026-04-25T14:14:41.423Z</time></trkpt><trkpt lat="44.1550619" lon="11.9015087"><ele>127.19999999999999</ele><time>2026-04-25T14:14:42.42Z</time></trkpt><trkpt lat="44.1550456" lon="11.9016389"><ele>127.0</ele><time>2026-04-25T14:14:43.438Z</time></trkpt><trkpt lat="44.1550223" lon="11.9017775"><ele>127.39999999999999</ele><time>2026-04-25T14:14:44.422Z</time></trkpt><trkpt lat="44.1549978" lon="11.9019168"><ele>127.79999999999998</ele><time>2026-04-25T14:14:45.424Z</time></trkpt><trkpt lat="44.1549724" lon="11.9020647"><ele>128.2</ele><time>2026-04-25T14:14:46.422Z</time></trkpt><trkpt lat="44.1549488" lon="11.9022081"><ele>128.6</ele><time>2026-04-25T14:14:47.43Z</time></trkpt><trkpt lat="44.1549303" lon="11.9023379"><ele>129.0</ele><time>2026-04-25T14:14:48.431Z</time></trkpt><trkpt lat="44.1549149" lon="11.9024719"><ele>128.4</ele><time>2026-04-25T14:14:49.425Z</time></trkpt><trkpt lat="44.1549033" lon="11.9025949"><ele>127.80000000000001</ele><time>2026-04-25T14:14:50.43Z</time></trkpt><trkpt lat="44.154897" lon="11.9027163"><ele>127.19999999999999</ele><time>2026-04-25T14:14:51.421Z</time></trkpt><trkpt lat="44.1548851" lon="11.9028375"><ele>126.6</ele><time>2026-04-25T14:14:52.415Z</time></trkpt><trkpt lat="44.1548727" lon="11.9029845"><ele>126.0</ele><time>2026-04-25T14:14:53.429Z</time></trkpt><trkpt lat="44.1548595" lon="11.9031502"><ele>128.0</ele><time>2026-04-25T14:14:54.428Z</time></trkpt><trkpt lat="44.1548505" lon="11.9033204"><ele>130.0</ele><time>2026-04-25T14:14:55.434Z</time></trkpt><trkpt lat="44.1548496" lon="11.9034927"><ele>132.0</ele><time>2026-04-25T14:14:56.438Z</time></trkpt><trkpt lat="44.1548572" lon="11.9036847"><ele>134.0</ele><time>2026-04-25T14:14:57.42Z</time></trkpt><trkpt lat="44.1548686" lon="11.9038967"><ele>131.5</ele><time>2026-04-25T14:14:58.42Z</time></trkpt><trkpt lat="44.1548751" lon="11.9040948"><ele>129.0</ele><time>2026-04-25T14:14:59.432Z</time></trkpt><trkpt lat="44.154879" lon="11.9042828"><ele>126.5</ele><time>2026-04-25T14:15:00.424Z</time></trkpt><trkpt lat="44.1548908" lon="11.9044646"><ele>124.0</ele><time>2026-04-25T14:15:01.417Z</time></trkpt><trkpt lat="44.1549076" lon="11.9046388"><ele>124.0</ele><time>2026-04-25T14:15:02.432Z</time></trkpt><trkpt lat="44.1549284" lon="11.904806"><ele>124.0</ele><time>2026-04-25T14:15:03.436Z</time></trkpt><trkpt lat="44.154941" lon="11.9049678"><ele>124.0</ele><time>2026-04-25T14:15:04.428Z</time></trkpt><trkpt lat="44.1549398" lon="11.9051277"><ele>124.0</ele><time>2026-04-25T14:15:05.425Z</time></trkpt><trkpt lat="44.1549319" lon="11.9052887"><ele>124.5</ele><time>2026-04-25T14:15:06.428Z</time></trkpt><trkpt lat="44.1549082" lon="11.9054521"><ele>125.0</ele><time>2026-04-25T14:15:07.425Z</time></trkpt><trkpt lat="44.1548695" lon="11.9056051"><ele>125.5</ele><time>2026-04-25T14:15:08.429Z</time></trkpt><trkpt lat="44.1548129" lon="11.90576"><ele>126.0</ele><time>2026-04-25T14:15:09.427Z</time></trkpt><trkpt lat="44.1547384" lon="11.9059405"><ele>124.0</ele><time>2026-04-25T14:15:10.431Z</time></trkpt><trkpt lat="44.1546489" lon="11.9061739"><ele>122.0</ele><time>2026-04-25T14:15:11.441Z</time></trkpt><trkpt lat="44.1545545" lon="11.9064411"><ele>120.0</ele><time>2026-04-25T14:15:12.439Z</time></trkpt><trkpt lat="44.1544564" lon="11.9067005"><ele>119.33333333333334</ele><time>2026-04-25T14:15:13.431Z</time></trkpt><trkpt lat="44.1543697" lon="11.9069428"><ele>118.66666666666667</ele><time>2026-04-25T14:15:14.414Z</time></trkpt><trkpt lat="44.1542899" lon="11.9071459"><ele>118.0</ele><time>2026-04-25T14:15:15.426Z</time></trkpt><trkpt lat="44.1542146" lon="11.9073309"><ele>118.0</ele><time>2026-04-25T14:15:16.438Z</time></trkpt><trkpt lat="44.1541331" lon="11.9075098"><ele>118.0</ele><time>2026-04-25T14:15:17.427Z</time></trkpt><trkpt lat="44.1540555" lon="11.9076971"><ele>118.0</ele><time>2026-04-25T14:15:18.426Z</time></trkpt><trkpt lat="44.1539785" lon="11.9078958"><ele>117.75</ele><time>2026-04-25T14:15:19.418Z</time></trkpt><trkpt lat="44.1539051" lon="11.908088"><ele>117.5</ele><time>2026-04-25T14:15:20.439Z</time></trkpt><trkpt lat="44.1538384" lon="11.9082759"><ele>117.25</ele><time>2026-04-25T14:15:21.426Z</time></trkpt><trkpt lat="44.1537708" lon="11.9084336"><ele>117.0</ele><time>2026-04-25T14:15:22.43Z</time></trkpt><trkpt lat="44.1537084" lon="11.9085704"><ele>116.0</ele><time>2026-04-25T14:15:23.431Z</time></trkpt><trkpt lat="44.1536616" lon="11.9087001"><ele>115.0</ele><time>2026-04-25T14:15:24.419Z</time></trkpt><trkpt lat="44.1536228" lon="11.9088535"><ele>114.0</ele><time>2026-04-25T14:15:25.42Z</time></trkpt><trkpt lat="44.1536002" lon="11.9090239"><ele>113.0</ele><time>2026-04-25T14:15:26.42Z</time></trkpt><trkpt lat="44.1535764" lon="11.9091926"><ele>113.0</ele><time>2026-04-25T14:15:27.445Z</time></trkpt><trkpt lat="44.153541" lon="11.9093525"><ele>113.0</ele><time>2026-04-25T14:15:28.428Z</time></trkpt><trkpt lat="44.1534735" lon="11.9095095"><ele>113.0</ele><time>2026-04-25T14:15:29.42Z</time></trkpt><trkpt lat="44.1533973" lon="11.9096574"><ele>113.0</ele><time>2026-04-25T14:15:30.421Z</time></trkpt><trkpt lat="44.1533149" lon="11.9097916"><ele>113.0</ele><time>2026-04-25T14:15:31.426Z</time></trkpt><trkpt lat="44.153237" lon="11.9099473"><ele>113.0</ele><time>2026-04-25T14:15:32.427Z</time></trkpt><trkpt lat="44.1531582" lon="11.9101069"><ele>113.0</ele><time>2026-04-25T14:15:33.428Z</time></trkpt><trkpt lat="44.1530936" lon="11.9102631"><ele>113.0</ele><time>2026-04-25T14:15:34.429Z</time></trkpt><trkpt lat="44.1530439" lon="11.9104207"><ele>112.5</ele><time>2026-04-25T14:15:35.43Z</time></trkpt><trkpt lat="44.1530035" lon="11.9105787"><ele>112.0</ele><time>2026-04-25T14:15:36.427Z</time></trkpt><trkpt lat="44.152978" lon="11.9107631"><ele>111.5</ele><time>2026-04-25T14:15:37.425Z</time></trkpt><trkpt lat="44.1529612" lon="11.9109924"><ele>111.0</ele><time>2026-04-25T14:15:38.426Z</time></trkpt><trkpt lat="44.1529539" lon="11.9112195"><ele>110.25</ele><time>2026-04-25T14:15:39.414Z</time></trkpt><trkpt lat="44.1529421" lon="11.9114099"><ele>109.5</ele><time>2026-04-25T14:15:40.451Z</time></trkpt><trkpt lat="44.1529124" lon="11.9115786"><ele>108.75</ele><time>2026-04-25T14:15:41.418Z</time></trkpt><trkpt lat="44.1528874" lon="11.9117488"><ele>108.0</ele><time>2026-04-25T14:15:42.415Z</time></trkpt><trkpt lat="44.1528786" lon="11.9119401"><ele>107.66666666666666</ele><time>2026-04-25T14:15:43.424Z</time></trkpt><trkpt lat="44.1528783" lon="11.9121484"><ele>107.33333333333333</ele><time>2026-04-25T14:15:44.421Z</time></trkpt><trkpt lat="44.1528747" lon="11.9123584"><ele>107.0</ele><time>2026-04-25T14:15:45.425Z</time></trkpt><trkpt lat="44.1528721" lon="11.9125711"><ele>107.0</ele><time>2026-04-25T14:15:46.442Z</time></trkpt><trkpt lat="44.1528877" lon="11.9128124"><ele>107.0</ele><time>2026-04-25T14:15:47.428Z</time></trkpt><trkpt lat="44.152915" lon="11.9130536"><ele>107.0</ele><time>2026-04-25T14:15:48.429Z</time></trkpt><trkpt lat="44.1529465" lon="11.9132844"><ele>106.75</ele><time>2026-04-25T14:15:49.42Z</time></trkpt><trkpt lat="44.1529771" lon="11.913499"><ele>106.5</ele><time>2026-04-25T14:15:50.43Z</time></trkpt><trkpt lat="44.1530114" lon="11.9136929"><ele>106.25</ele><time>2026-04-25T14:15:51.43Z</time></trkpt><trkpt lat="44.153058" lon="11.9138696"><ele>106.0</ele><time>2026-04-25T14:15:52.423Z</time></trkpt><trkpt lat="44.1530948" lon="11.9140232"><ele>106.0</ele><time>2026-04-25T14:15:53.423Z</time></trkpt><trkpt lat="44.1531054" lon="11.9141738"><ele>106.0</ele><time>2026-04-25T14:15:54.417Z</time></trkpt><trkpt lat="44.1531037" lon="11.9143368"><ele>106.0</ele><time>2026-04-25T14:15:55.42Z</time></trkpt><trkpt lat="44.1530928" lon="11.9145044"><ele>106.0</ele><time>2026-04-25T14:15:56.416Z</time></trkpt><trkpt lat="44.1530918" lon="11.91467"><ele>106.75</ele><time>2026-04-25T14:15:57.427Z</time></trkpt><trkpt lat="44.1531145" lon="11.9148339"><ele>107.5</ele><time>2026-04-25T14:15:58.429Z</time></trkpt><trkpt lat="44.1531446" lon="11.9150106"><ele>108.25</ele><time>2026-04-25T14:15:59.428Z</time></trkpt><trkpt lat="44.153176" lon="11.9151938"><ele>109.0</ele><time>2026-04-25T14:16:00.42Z</time></trkpt><trkpt lat="44.1532034" lon="11.915378"><ele>106.80000000000001</ele><time>2026-04-25T14:16:01.42Z</time></trkpt><trkpt lat="44.1532202" lon="11.9155452"><ele>104.60000000000001</ele><time>2026-04-25T14:16:02.414Z</time></trkpt><trkpt lat="44.1532473" lon="11.9156878"><ele>102.4</ele><time>2026-04-25T14:16:03.427Z</time></trkpt><trkpt lat="44.1532888" lon="11.9158115"><ele>100.2</ele><time>2026-04-25T14:16:04.426Z</time></trkpt><trkpt lat="44.1533511" lon="11.9159228"><ele>98.0</ele><time>2026-04-25T14:16:05.417Z</time></trkpt><trkpt lat="44.1534321" lon="11.916025"><ele>98.0</ele><time>2026-04-25T14:16:06.425Z</time></trkpt><trkpt lat="44.1535189" lon="11.9161104"><ele>98.0</ele><time>2026-04-25T14:16:07.423Z</time></trkpt><trkpt lat="44.1536041" lon="11.9161953"><ele>98.0</ele><time>2026-04-25T14:16:08.424Z</time></trkpt><trkpt lat="44.1536566" lon="11.9163123"><ele>98.0</ele><time>2026-04-25T14:16:09.407Z</time></trkpt><trkpt lat="44.1536864" lon="11.9164756"><ele>98.0</ele><time>2026-04-25T14:16:10.438Z</time></trkpt><trkpt lat="44.1537099" lon="11.9166465"><ele>98.5</ele><time>2026-04-25T14:16:11.421Z</time></trkpt><trkpt lat="44.1537397" lon="11.9168161"><ele>99.0</ele><time>2026-04-25T14:16:12.437Z</time></trkpt><trkpt lat="44.1537848" lon="11.9169778"><ele>99.5</ele><time>2026-04-25T14:16:13.423Z</time></trkpt><trkpt lat="44.153848" lon="11.9171304"><ele>100.0</ele><time>2026-04-25T14:16:14.422Z</time></trkpt><trkpt lat="44.1539088" lon="11.9172569"><ele>100.00000000000001</ele><time>2026-04-25T14:16:15.423Z</time></trkpt><trkpt lat="44.1539618" lon="11.9173607"><ele>100.0</ele><time>2026-04-25T14:16:16.422Z</time></trkpt><trkpt lat="44.1540132" lon="11.9174422"><ele>100.0</ele><time>2026-04-25T14:16:17.435Z</time></trkpt><trkpt lat="44.154062" lon="11.9175124"><ele>100.0</ele><time>2026-04-25T14:16:18.442Z</time></trkpt><trkpt lat="44.1540997" lon="11.9175861"><ele>100.00000000000001</ele><time>2026-04-25T14:16:19.457Z</time></trkpt><trkpt lat="44.1541148" lon="11.9177281"><ele>100.0</ele><time>2026-04-25T14:16:21.435Z</time></trkpt><trkpt lat="44.1540736" lon="11.9178428"><ele>100.16666666666667</ele><time>2026-04-25T14:16:23.442Z</time></trkpt><trkpt lat="44.1540107" lon="11.9179685"><ele>100.33333333333334</ele><time>2026-04-25T14:16:25.423Z</time></trkpt><trkpt lat="44.1539774" lon="11.9180592"><ele>100.5</ele><time>2026-04-25T14:16:26.444Z</time></trkpt><trkpt lat="44.1539489" lon="11.9181648"><ele>100.66666666666666</ele><time>2026-04-25T14:16:27.451Z</time></trkpt><trkpt lat="44.1539332" lon="11.9182745"><ele>100.83333333333333</ele><time>2026-04-25T14:16:28.44Z</time></trkpt><trkpt lat="44.1539297" lon="11.9183826"><ele>101.0</ele><time>2026-04-25T14:16:29.424Z</time></trkpt><trkpt lat="44.1539394" lon="11.9185022"><ele>100.6</ele><time>2026-04-25T14:16:30.444Z</time></trkpt><trkpt lat="44.1539569" lon="11.918627"><ele>100.19999999999999</ele><time>2026-04-25T14:16:31.413Z</time></trkpt><trkpt lat="44.1539782" lon="11.9187696"><ele>99.80000000000001</ele><time>2026-04-25T14:16:32.433Z</time></trkpt><trkpt lat="44.1539906" lon="11.9189128"><ele>99.4</ele><time>2026-04-25T14:16:33.434Z</time></trkpt><trkpt lat="44.1539913" lon="11.9190635"><ele>99.0</ele><time>2026-04-25T14:16:34.427Z</time></trkpt><trkpt lat="44.1539758" lon="11.9192327"><ele>99.25</ele><time>2026-04-25T14:16:35.438Z</time></trkpt><trkpt lat="44.1539445" lon="11.919414"><ele>99.5</ele><time>2026-04-25T14:16:36.432Z</time></trkpt><trkpt lat="44.1538986" lon="11.9195979"><ele>99.75</ele><time>2026-04-25T14:16:37.424Z</time></trkpt><trkpt lat="44.1538434" lon="11.9197784"><ele>100.0</ele><time>2026-04-25T14:16:38.419Z</time></trkpt><trkpt lat="44.1537722" lon="11.9199587"><ele>100.0</ele><time>2026-04-25T14:16:39.449Z</time></trkpt><trkpt lat="44.1536921" lon="11.920129"><ele>100.0</ele><time>2026-04-25T14:16:40.437Z</time></trkpt><trkpt lat="44.1536044" lon="11.9202962"><ele>100.0</ele><time>2026-04-25T14:16:41.426Z</time></trkpt><trkpt lat="44.1535079" lon="11.9204594"><ele>100.0</ele><time>2026-04-25T14:16:42.442Z</time></trkpt><trkpt lat="44.1534083" lon="11.920622"><ele>100.0</ele><time>2026-04-25T14:16:43.422Z</time></trkpt><trkpt lat="44.1533153" lon="11.9207829"><ele>100.0</ele><time>2026-04-25T14:16:44.43Z</time></trkpt><trkpt lat="44.1532375" lon="11.9209486"><ele>100.0</ele><time>2026-04-25T14:16:45.424Z</time></trkpt><trkpt lat="44.1531749" lon="11.9211173"><ele>100.0</ele><time>2026-04-25T14:16:46.422Z</time></trkpt><trkpt lat="44.1531171" lon="11.921291"><ele>99.0</ele><time>2026-04-25T14:16:47.419Z</time></trkpt><trkpt lat="44.1530555" lon="11.9214712"><ele>98.0</ele><time>2026-04-25T14:16:48.428Z</time></trkpt><trkpt lat="44.1529878" lon="11.9216491"><ele>97.0</ele><time>2026-04-25T14:16:49.426Z</time></trkpt><trkpt lat="44.1529022" lon="11.9218245"><ele>96.0</ele><time>2026-04-25T14:16:50.435Z</time></trkpt><trkpt lat="44.1528052" lon="11.9220117"><ele>96.0</ele><time>2026-04-25T14:16:51.421Z</time></trkpt><trkpt lat="44.15271" lon="11.9222138"><ele>96.0</ele><time>2026-04-25T14:16:52.44Z</time></trkpt><trkpt lat="44.1526204" lon="11.9224124"><ele>96.0</ele><time>2026-04-25T14:16:53.421Z</time></trkpt><trkpt lat="44.1525284" lon="11.9226112"><ele>95.66666666666667</ele><time>2026-04-25T14:16:54.422Z</time></trkpt><trkpt lat="44.1524289" lon="11.9228033"><ele>95.33333333333334</ele><time>2026-04-25T14:16:55.419Z</time></trkpt><trkpt lat="44.1523264" lon="11.9229875"><ele>95.0</ele><time>2026-04-25T14:16:56.426Z</time></trkpt><trkpt lat="44.1522278" lon="11.9231715"><ele>95.0</ele><time>2026-04-25T14:16:57.414Z</time></trkpt><trkpt lat="44.1521343" lon="11.9233658"><ele>95.0</ele><time>2026-04-25T14:16:58.436Z</time></trkpt><trkpt lat="44.1520425" lon="11.9235579"><ele>95.0</ele><time>2026-04-25T14:16:59.418Z</time></trkpt><trkpt lat="44.1519499" lon="11.9237572"><ele>94.33333333333334</ele><time>2026-04-25T14:17:00.422Z</time></trkpt><trkpt lat="44.1518621" lon="11.9239525"><ele>93.66666666666667</ele><time>2026-04-25T14:17:01.424Z</time></trkpt><trkpt lat="44.1517794" lon="11.9241347"><ele>93.0</ele><time>2026-04-25T14:17:02.418Z</time></trkpt><trkpt lat="44.1517073" lon="11.9243098"><ele>93.0</ele><time>2026-04-25T14:17:03.414Z</time></trkpt><trkpt lat="44.1516438" lon="11.9244726"><ele>93.0</ele><time>2026-04-25T14:17:04.424Z</time></trkpt><trkpt lat="44.1515921" lon="11.9246122"><ele>93.0</ele><time>2026-04-25T14:17:05.424Z</time></trkpt><trkpt lat="44.1515519" lon="11.9247404"><ele>93.0</ele><time>2026-04-25T14:17:06.436Z</time></trkpt><trkpt lat="44.1515141" lon="11.9248616"><ele>93.0</ele><time>2026-04-25T14:17:07.422Z</time></trkpt><trkpt lat="44.15148" lon="11.924988"><ele>94.16666666666667</ele><time>2026-04-25T14:17:08.413Z</time></trkpt><trkpt lat="44.1514472" lon="11.9251063"><ele>95.33333333333334</ele><time>2026-04-25T14:17:09.423Z</time></trkpt><trkpt lat="44.1514238" lon="11.9252263"><ele>96.5</ele><time>2026-04-25T14:17:10.432Z</time></trkpt><trkpt lat="44.1514192" lon="11.9253506"><ele>97.66666666666667</ele><time>2026-04-25T14:17:11.425Z</time></trkpt><trkpt lat="44.1514343" lon="11.9254727"><ele>98.83333333333334</ele><time>2026-04-25T14:17:12.435Z</time></trkpt><trkpt lat="44.1514595" lon="11.9255926"><ele>100.0</ele><time>2026-04-25T14:17:13.424Z</time></trkpt><trkpt lat="44.1514836" lon="11.9257087"><ele>100.00000000000001</ele><time>2026-04-25T14:17:14.422Z</time></trkpt><trkpt lat="44.1515026" lon="11.9258104"><ele>100.0</ele><time>2026-04-25T14:17:15.422Z</time></trkpt><trkpt lat="44.1515109" lon="11.9259068"><ele>100.0</ele><time>2026-04-25T14:17:16.425Z</time></trkpt><trkpt lat="44.1514922" lon="11.9260724"><ele>100.0</ele><time>2026-04-25T14:17:18.415Z</time></trkpt><trkpt lat="44.1514691" lon="11.9261759"><ele>100.00000000000001</ele><time>2026-04-25T14:17:19.42Z</time></trkpt><trkpt lat="44.1514364" lon="11.9262969"><ele>100.0</ele><time>2026-04-25T14:17:20.412Z</time></trkpt><trkpt lat="44.1514051" lon="11.9264251"><ele>95.0</ele><time>2026-04-25T14:17:21.421Z</time></trkpt><trkpt lat="44.1513734" lon="11.9265481"><ele>95.0</ele><time>2026-04-25T14:17:22.426Z</time></trkpt><trkpt lat="44.1513476" lon="11.9266415"><ele>95.0</ele><time>2026-04-25T14:17:23.416Z</time></trkpt><trkpt lat="44.1513237" lon="11.9267304"><ele>86.0</ele><time>2026-04-25T14:17:24.417Z</time></trkpt><trkpt lat="44.1512966" lon="11.9268108"><ele>86.0</ele><time>2026-04-25T14:17:25.424Z</time></trkpt><trkpt lat="44.1512569" lon="11.9269187"><ele>86.0</ele><time>2026-04-25T14:17:27.426Z</time></trkpt></trkseg><trkseg><trkpt lat="44.1805742" lon="12.0799204"><ele>29.25</ele><time>2026-04-25T14:46:28.406Z</time></trkpt><trkpt lat="44.1807201" lon="12.0799616"><ele>29.5</ele><time>2026-04-25T14:46:29.411Z</time></trkpt><trkpt lat="44.1808611" lon="12.0799974"><ele>29.75</ele><time>2026-04-25T14:46:30.416Z</time></trkpt><trkpt lat="44.181006" lon="12.0800329"><ele>30.0</ele><time>2026-04-25T14:46:31.435Z</time></trkpt><trkpt lat="44.1811562" lon="12.0800769"><ele>30.0</ele><time>2026-04-25T14:46:32.422Z</time></trkpt><trkpt lat="44.1816223" lon="12.080213"><ele>30.0</ele><time>2026-04-25T14:46:35.416Z</time></trkpt><trkpt lat="44.1817805" lon="12.0802713"><ele>30.0</ele><time>2026-04-25T14:46:36.409Z</time></trkpt><trkpt lat="44.181934" lon="12.0803221"><ele>30.0</ele><time>2026-04-25T14:46:37.415Z</time></trkpt><trkpt lat="44.1820988" lon="12.0803755"><ele>30.0</ele><time>2026-04-25T14:46:38.419Z</time></trkpt><trkpt lat="44.1822584" lon="12.0804178"><ele>30.0</ele><time>2026-04-25T14:46:39.421Z</time></trkpt><trkpt lat="44.1824142" lon="12.0804604"><ele>30.0</ele><time>2026-04-25T14:46:40.412Z</time></trkpt><trkpt lat="44.1825685" lon="12.0805059"><ele>29.666666666666664</ele><time>2026-04-25T14:46:41.415Z</time></trkpt><trkpt lat="44.1827308" lon="12.0805446"><ele>29.333333333333332</ele><time>2026-04-25T14:46:42.415Z</time></trkpt><trkpt lat="44.1828938" lon="12.0805843"><ele>29.0</ele><time>2026-04-25T14:46:43.421Z</time></trkpt><trkpt lat="44.183052" lon="12.080622"><ele>28.666666666666664</ele><time>2026-04-25T14:46:44.414Z</time></trkpt><trkpt lat="44.1832162" lon="12.0806631"><ele>28.333333333333336</ele><time>2026-04-25T14:46:45.417Z</time></trkpt><trkpt lat="44.1833824" lon="12.0807066"><ele>28.0</ele><time>2026-04-25T14:46:46.412Z</time></trkpt><trkpt lat="44.1835432" lon="12.0807446"><ele>28.0</ele><time>2026-04-25T14:46:47.435Z</time></trkpt><trkpt lat="44.1837048" lon="12.0807831"><ele>28.0</ele><time>2026-04-25T14:46:48.401Z</time></trkpt><trkpt lat="44.1838642" lon="12.0808182"><ele>28.0</ele><time>2026-04-25T14:46:49.429Z</time></trkpt><trkpt lat="44.1840292" lon="12.0808536"><ele>28.0</ele><time>2026-04-25T14:46:50.413Z</time></trkpt><trkpt lat="44.1841934" lon="12.0809008"><ele>28.0</ele><time>2026-04-25T14:46:51.418Z</time></trkpt><trkpt lat="44.1843563" lon="12.0809494"><ele>28.0</ele><time>2026-04-25T14:46:52.408Z</time></trkpt><trkpt lat="44.1845101" lon="12.0809875"><ele>28.0</ele><time>2026-04-25T14:46:53.427Z</time></trkpt><trkpt lat="44.18465" lon="12.0810235"><ele>28.0</ele><time>2026-04-25T14:46:54.411Z</time></trkpt><trkpt lat="44.1847898" lon="12.0810649"><ele>28.0</ele><time>2026-04-25T14:46:55.423Z</time></trkpt><trkpt lat="44.1849176" lon="12.0811286"><ele>28.0</ele><time>2026-04-25T14:46:56.409Z</time></trkpt><trkpt lat="44.1850374" lon="12.0812177"><ele>28.0</ele><time>2026-04-25T14:46:57.415Z</time></trkpt><trkpt lat="44.1851459" lon="12.0813483"><ele>28.0</ele><time>2026-04-25T14:46:58.42Z</time></trkpt><trkpt lat="44.1852353" lon="12.081509"><ele>28.0</ele><time>2026-04-25T14:46:59.421Z</time></trkpt><trkpt lat="44.1853003" lon="12.081686"><ele>28.0</ele><time>2026-04-25T14:47:00.412Z</time></trkpt><trkpt lat="44.1853439" lon="12.0818673"><ele>27.75</ele><time>2026-04-25T14:47:01.42Z</time></trkpt><trkpt lat="44.1853643" lon="12.082069"><ele>27.5</ele><time>2026-04-25T14:47:02.423Z</time></trkpt><trkpt lat="44.1853545" lon="12.0822542"><ele>27.25</ele><time>2026-04-25T14:47:03.424Z</time></trkpt><trkpt lat="44.1853245" lon="12.0824393"><ele>27.0</ele><time>2026-04-25T14:47:04.413Z</time></trkpt><trkpt lat="44.1852751" lon="12.0826448"><ele>27.0</ele><time>2026-04-25T14:47:05.415Z</time></trkpt><trkpt lat="44.1852177" lon="12.0828578"><ele>27.0</ele><time>2026-04-25T14:47:06.417Z</time></trkpt><trkpt lat="44.1851484" lon="12.0830695"><ele>27.0</ele><time>2026-04-25T14:47:07.42Z</time></trkpt><trkpt lat="44.1850756" lon="12.0832763"><ele>27.0</ele><time>2026-04-25T14:47:08.412Z</time></trkpt><trkpt lat="44.1849925" lon="12.0834824"><ele>27.0</ele><time>2026-04-25T14:47:09.431Z</time></trkpt><trkpt lat="44.1849036" lon="12.0836988"><ele>27.0</ele><time>2026-04-25T14:47:10.426Z</time></trkpt><trkpt lat="44.1848072" lon="12.0839173"><ele>27.333333333333336</ele><time>2026-04-25T14:47:11.423Z</time></trkpt><trkpt lat="44.1847099" lon="12.0841498"><ele>27.666666666666668</ele><time>2026-04-25T14:47:12.414Z</time></trkpt><trkpt lat="44.1846143" lon="12.0843819"><ele>28.0</ele><time>2026-04-25T14:47:13.432Z</time></trkpt><trkpt lat="44.1845169" lon="12.0846175"><ele>28.0</ele><time>2026-04-25T14:47:14.417Z</time></trkpt><trkpt lat="44.1844238" lon="12.0848391"><ele>28.0</ele><time>2026-04-25T14:47:15.422Z</time></trkpt><trkpt lat="44.1843319" lon="12.0850478"><ele>28.0</ele><time>2026-04-25T14:47:16.409Z</time></trkpt><trkpt lat="44.1842434" lon="12.0852535"><ele>28.0</ele><time>2026-04-25T14:47:17.427Z</time></trkpt><trkpt lat="44.1841695" lon="12.085444"><ele>28.0</ele><time>2026-04-25T14:47:18.428Z</time></trkpt><trkpt lat="44.184101" lon="12.0856232"><ele>28.0</ele><time>2026-04-25T14:47:19.402Z</time></trkpt><trkpt lat="44.1840544" lon="12.0858164"><ele>28.0</ele><time>2026-04-25T14:47:20.417Z</time></trkpt><trkpt lat="44.1840327" lon="12.0860296"><ele>27.333333333333336</ele><time>2026-04-25T14:47:21.419Z</time></trkpt><trkpt lat="44.1840342" lon="12.0862416"><ele>26.666666666666664</ele><time>2026-04-25T14:47:22.408Z</time></trkpt><trkpt lat="44.1840723" lon="12.0864524"><ele>26.0</ele><time>2026-04-25T14:47:23.433Z</time></trkpt><trkpt lat="44.1841294" lon="12.0866582"><ele>26.0</ele><time>2026-04-25T14:47:24.418Z</time></trkpt><trkpt lat="44.1842107" lon="12.0868475"><ele>26.0</ele><time>2026-04-25T14:47:25.415Z</time></trkpt><trkpt lat="44.1843116" lon="12.0870216"><ele>26.0</ele><time>2026-04-25T14:47:26.417Z</time></trkpt><trkpt lat="44.1844361" lon="12.0871719"><ele>26.0</ele><time>2026-04-25T14:47:27.421Z</time></trkpt><trkpt lat="44.1845823" lon="12.0873075"><ele>26.0</ele><time>2026-04-25T14:47:28.419Z</time></trkpt><trkpt lat="44.1847422" lon="12.0874421"><ele>26.0</ele><time>2026-04-25T14:47:29.427Z</time></trkpt><trkpt lat="44.1849035" lon="12.0875818"><ele>26.0</ele><time>2026-04-25T14:47:30.419Z</time></trkpt><trkpt lat="44.1850787" lon="12.0877296"><ele>26.0</ele><time>2026-04-25T14:47:31.452Z</time></trkpt><trkpt lat="44.1852697" lon="12.0878871"><ele>26.0</ele><time>2026-04-25T14:47:32.415Z</time></trkpt><trkpt lat="44.1854744" lon="12.0880524"><ele>26.5</ele><time>2026-04-25T14:47:33.431Z</time></trkpt><trkpt lat="44.1856869" lon="12.0882285"><ele>27.0</ele><time>2026-04-25T14:47:34.417Z</time></trkpt><trkpt lat="44.18591" lon="12.0884188"><ele>27.0</ele><time>2026-04-25T14:47:35.423Z</time></trkpt><trkpt lat="44.1861446" lon="12.0886222"><ele>27.0</ele><time>2026-04-25T14:47:36.418Z</time></trkpt><trkpt lat="44.1863863" lon="12.0888352"><ele>27.0</ele><time>2026-04-25T14:47:37.43Z</time></trkpt><trkpt lat="44.1866392" lon="12.0890592"><ele>27.0</ele><time>2026-04-25T14:47:38.417Z</time></trkpt><trkpt lat="44.1868885" lon="12.0892824"><ele>27.0</ele><time>2026-04-25T14:47:39.423Z</time></trkpt><trkpt lat="44.1871196" lon="12.0894911"><ele>27.0</ele><time>2026-04-25T14:47:40.436Z</time></trkpt><trkpt lat="44.1873363" lon="12.0896799"><ele>27.0</ele><time>2026-04-25T14:47:41.435Z</time></trkpt><trkpt lat="44.1875347" lon="12.0898671"><ele>27.0</ele><time>2026-04-25T14:47:42.42Z</time></trkpt><trkpt lat="44.1877264" lon="12.0900424"><ele>27.0</ele><time>2026-04-25T14:47:43.433Z</time></trkpt><trkpt lat="44.1879185" lon="12.0902173"><ele>27.0</ele><time>2026-04-25T14:47:44.414Z</time></trkpt><trkpt lat="44.1880989" lon="12.0903774"><ele>27.0</ele><time>2026-04-25T14:47:45.422Z</time></trkpt><trkpt lat="44.1882633" lon="12.0905284"><ele>27.0</ele><time>2026-04-25T14:47:46.413Z</time></trkpt><trkpt lat="44.188424" lon="12.0906676"><ele>27.0</ele><time>2026-04-25T14:47:47.408Z</time></trkpt><trkpt lat="44.1885776" lon="12.0907902"><ele>27.0</ele><time>2026-04-25T14:47:48.412Z</time></trkpt><trkpt lat="44.1887303" lon="12.0908787"><ele>27.0</ele><time>2026-04-25T14:47:49.416Z</time></trkpt><trkpt lat="44.1888779" lon="12.0909235"><ele>27.0</ele><time>2026-04-25T14:47:50.415Z</time></trkpt><trkpt lat="44.1890315" lon="12.0909261"><ele>27.0</ele><time>2026-04-25T14:47:51.43Z</time></trkpt><trkpt lat="44.1891889" lon="12.0909097"><ele>27.0</ele><time>2026-04-25T14:47:52.418Z</time></trkpt><trkpt lat="44.1893382" lon="12.0908512"><ele>27.0</ele><time>2026-04-25T14:47:53.429Z</time></trkpt><trkpt lat="44.189469" lon="12.0907638"><ele>27.0</ele><time>2026-04-25T14:47:54.417Z</time></trkpt><trkpt lat="44.189594" lon="12.0906357"><ele>27.0</ele><time>2026-04-25T14:47:55.427Z</time></trkpt><trkpt lat="44.1897087" lon="12.0904765"><ele>27.0</ele><time>2026-04-25T14:47:56.428Z</time></trkpt><trkpt lat="44.1898172" lon="12.0902772"><ele>27.0</ele><time>2026-04-25T14:47:57.409Z</time></trkpt><trkpt lat="44.1899218" lon="12.0900535"><ele>27.0</ele><time>2026-04-25T14:47:58.415Z</time></trkpt><trkpt lat="44.190028" lon="12.0898146"><ele>27.0</ele><time>2026-04-25T14:47:59.421Z</time></trkpt><trkpt lat="44.1901314" lon="12.0895585"><ele>27.0</ele><time>2026-04-25T14:48:00.423Z</time></trkpt><trkpt lat="44.1902416" lon="12.089283"><ele>26.5</ele><time>2026-04-25T14:48:01.444Z</time></trkpt><trkpt lat="44.1903636" lon="12.0889822"><ele>26.0</ele><time>2026-04-25T14:48:02.415Z</time></trkpt><trkpt lat="44.1904797" lon="12.088664"><ele>26.0</ele><time>2026-04-25T14:48:03.433Z</time></trkpt><trkpt lat="44.1905935" lon="12.0883439"><ele>26.0</ele><time>2026-04-25T14:48:04.412Z</time></trkpt><trkpt lat="44.1907134" lon="12.0880253"><ele>25.0</ele><time>2026-04-25T14:48:05.422Z</time></trkpt><trkpt lat="44.1908395" lon="12.0876932"><ele>24.0</ele><time>2026-04-25T14:48:06.41Z</time></trkpt><trkpt lat="44.1909717" lon="12.087364"><ele>24.0</ele><time>2026-04-25T14:48:07.433Z</time></trkpt><trkpt lat="44.1910994" lon="12.0870417"><ele>24.0</ele><time>2026-04-25T14:48:08.413Z</time></trkpt><trkpt lat="44.1912168" lon="12.0867351"><ele>24.5</ele><time>2026-04-25T14:48:09.457Z</time></trkpt><trkpt lat="44.1913274" lon="12.0864481"><ele>25.0</ele><time>2026-04-25T14:48:10.43Z</time></trkpt><trkpt lat="44.191443" lon="12.0861645"><ele>25.0</ele><time>2026-04-25T14:48:11.436Z</time></trkpt><trkpt lat="44.1915608" lon="12.0858752"><ele>25.0</ele><time>2026-04-25T14:48:12.415Z</time></trkpt><trkpt lat="44.1916774" lon="12.0855815"><ele>24.5</ele><time>2026-04-25T14:48:13.418Z</time></trkpt><trkpt lat="44.1917973" lon="12.0852729"><ele>24.0</ele><time>2026-04-25T14:48:14.421Z</time></trkpt><trkpt lat="44.1919135" lon="12.0849624"><ele>23.0</ele><time>2026-04-25T14:48:15.407Z</time></trkpt><trkpt lat="44.1920232" lon="12.0846447"><ele>22.0</ele><time>2026-04-25T14:48:16.415Z</time></trkpt><trkpt lat="44.1921306" lon="12.0843198"><ele>23.0</ele><time>2026-04-25T14:48:17.414Z</time></trkpt><trkpt lat="44.1922227" lon="12.084005"><ele>24.0</ele><time>2026-04-25T14:48:18.41Z</time></trkpt><trkpt lat="44.1923043" lon="12.083723"><ele>24.0</ele><time>2026-04-25T14:48:19.425Z</time></trkpt><trkpt lat="44.1923745" lon="12.0834627"><ele>24.0</ele><time>2026-04-25T14:48:20.405Z</time></trkpt><trkpt lat="44.1924284" lon="12.0832387"><ele>24.0</ele><time>2026-04-25T14:48:21.425Z</time></trkpt><trkpt lat="44.1924826" lon="12.0830314"><ele>24.25</ele><time>2026-04-25T14:48:22.418Z</time></trkpt><trkpt lat="44.1925416" lon="12.0828624"><ele>24.5</ele><time>2026-04-25T14:48:23.413Z</time></trkpt><trkpt lat="44.1926233" lon="12.0827236"><ele>24.75</ele><time>2026-04-25T14:48:24.412Z</time></trkpt><trkpt lat="44.1927252" lon="12.0826196"><ele>25.0</ele><time>2026-04-25T14:48:25.421Z</time></trkpt><trkpt lat="44.1928513" lon="12.0825413"><ele>25.0</ele><time>2026-04-25T14:48:26.417Z</time></trkpt><trkpt lat="44.1929748" lon="12.0824681"><ele>25.0</ele><time>2026-04-25T14:48:27.419Z</time></trkpt><trkpt lat="44.1930888" lon="12.0823864"><ele>25.0</ele><time>2026-04-25T14:48:28.417Z</time></trkpt><trkpt lat="44.193201" lon="12.0822852"><ele>25.0</ele><time>2026-04-25T14:48:29.435Z</time></trkpt><trkpt lat="44.1933262" lon="12.0821596"><ele>25.0</ele><time>2026-04-25T14:48:30.421Z</time></trkpt><trkpt lat="44.1934496" lon="12.0819962"><ele>25.0</ele><time>2026-04-25T14:48:31.446Z</time></trkpt><trkpt lat="44.1935467" lon="12.0818064"><ele>25.0</ele><time>2026-04-25T14:48:32.423Z</time></trkpt><trkpt lat="44.1936348" lon="12.0815839"><ele>24.333333333333336</ele><time>2026-04-25T14:48:33.428Z</time></trkpt><trkpt lat="44.1937172" lon="12.0813423"><ele>23.666666666666668</ele><time>2026-04-25T14:48:34.426Z</time></trkpt><trkpt lat="44.1937997" lon="12.0810908"><ele>23.0</ele><time>2026-04-25T14:48:35.433Z</time></trkpt><trkpt lat="44.1938767" lon="12.0808584"><ele>23.0</ele><time>2026-04-25T14:48:36.411Z</time></trkpt><trkpt lat="44.1939473" lon="12.0806457"><ele>23.0</ele><time>2026-04-25T14:48:37.42Z</time></trkpt><trkpt lat="44.1940089" lon="12.0804925"><ele>23.0</ele><time>2026-04-25T14:48:38.443Z</time></trkpt><trkpt lat="44.1940844" lon="12.0803585"><ele>23.0</ele><time>2026-04-25T14:48:39.428Z</time></trkpt><trkpt lat="44.1941653" lon="12.0802734"><ele>23.0</ele><time>2026-04-25T14:48:40.423Z</time></trkpt><trkpt lat="44.1942723" lon="12.0802394"><ele>23.0</ele><time>2026-04-25T14:48:41.425Z</time></trkpt><trkpt lat="44.1943918" lon="12.0802555"><ele>23.0</ele><time>2026-04-25T14:48:42.418Z</time></trkpt><trkpt lat="44.1945198" lon="12.0802945"><ele>23.0</ele><time>2026-04-25T14:48:43.434Z</time></trkpt><trkpt lat="44.1946606" lon="12.0803459"><ele>23.0</ele><time>2026-04-25T14:48:44.41Z</time></trkpt><trkpt lat="44.1948139" lon="12.0804035"><ele>23.0</ele><time>2026-04-25T14:48:45.421Z</time></trkpt><trkpt lat="44.1949623" lon="12.0804557"><ele>23.0</ele><time>2026-04-25T14:48:46.417Z</time></trkpt><trkpt lat="44.1951088" lon="12.0805016"><ele>22.333333333333336</ele><time>2026-04-25T14:48:47.431Z</time></trkpt><trkpt lat="44.1952521" lon="12.0805505"><ele>21.666666666666668</ele><time>2026-04-25T14:48:48.42Z</time></trkpt><trkpt lat="44.1954022" lon="12.0806034"><ele>21.0</ele><time>2026-04-25T14:48:49.438Z</time></trkpt><trkpt lat="44.1955541" lon="12.0806609"><ele>22.0</ele><time>2026-04-25T14:48:50.418Z</time></trkpt><trkpt lat="44.1957013" lon="12.0807155"><ele>23.0</ele><time>2026-04-25T14:48:51.423Z</time></trkpt><trkpt lat="44.1958515" lon="12.0807707"><ele>24.0</ele><time>2026-04-25T14:48:52.41Z</time></trkpt><trkpt lat="44.195999" lon="12.0808284"><ele>24.0</ele><time>2026-04-25T14:48:53.432Z</time></trkpt><trkpt lat="44.1961485" lon="12.0808787"><ele>24.0</ele><time>2026-04-25T14:48:54.415Z</time></trkpt><trkpt lat="44.1963" lon="12.0809308"><ele>24.0</ele><time>2026-04-25T14:48:55.416Z</time></trkpt><trkpt lat="44.1964479" lon="12.0809816"><ele>24.333333333333336</ele><time>2026-04-25T14:48:56.417Z</time></trkpt><trkpt lat="44.1965998" lon="12.081036"><ele>24.666666666666668</ele><time>2026-04-25T14:48:57.422Z</time></trkpt><trkpt lat="44.1967486" lon="12.0810872"><ele>25.0</ele><time>2026-04-25T14:48:58.412Z</time></trkpt><trkpt lat="44.1968976" lon="12.0811393"><ele>25.0</ele><time>2026-04-25T14:48:59.414Z</time></trkpt><trkpt lat="44.1970442" lon="12.0811894"><ele>25.0</ele><time>2026-04-25T14:49:00.417Z</time></trkpt><trkpt lat="44.1971822" lon="12.0812418"><ele>25.0</ele><time>2026-04-25T14:49:01.416Z</time></trkpt><trkpt lat="44.197321" lon="12.0812861"><ele>25.0</ele><time>2026-04-25T14:49:02.415Z</time></trkpt><trkpt lat="44.1974629" lon="12.0813383"><ele>25.0</ele><time>2026-04-25T14:49:03.414Z</time></trkpt><trkpt lat="44.1976047" lon="12.0813932"><ele>25.0</ele><time>2026-04-25T14:49:04.414Z</time></trkpt><trkpt lat="44.1977447" lon="12.0814447"><ele>25.0</ele><time>2026-04-25T14:49:05.413Z</time></trkpt><trkpt lat="44.1978841" lon="12.081487"><ele>25.0</ele><time>2026-04-25T14:49:06.411Z</time></trkpt><trkpt lat="44.1980259" lon="12.0815337"><ele>25.0</ele><time>2026-04-25T14:49:07.421Z</time></trkpt><trkpt lat="44.1981675" lon="12.0815826"><ele>25.0</ele><time>2026-04-25T14:49:08.424Z</time></trkpt><trkpt lat="44.1983049" lon="12.0816358"><ele>25.0</ele><time>2026-04-25T14:49:09.434Z</time></trkpt><trkpt lat="44.1984475" lon="12.0816838"><ele>25.0</ele><time>2026-04-25T14:49:10.413Z</time></trkpt><trkpt lat="44.1985876" lon="12.0817332"><ele>25.0</ele><time>2026-04-25T14:49:11.42Z</time></trkpt><trkpt lat="44.1987251" lon="12.081786"><ele>25.0</ele><time>2026-04-25T14:49:12.419Z</time></trkpt><trkpt lat="44.1988627" lon="12.0818476"><ele>25.0</ele><time>2026-04-25T14:49:13.414Z</time></trkpt><trkpt lat="44.1990021" lon="12.0818966"><ele>25.0</ele><time>2026-04-25T14:49:14.415Z</time></trkpt><trkpt lat="44.1991432" lon="12.0819434"><ele>25.5</ele><time>2026-04-25T14:49:15.416Z</time></trkpt><trkpt lat="44.199284" lon="12.0819864"><ele>26.0</ele><time>2026-04-25T14:49:16.419Z</time></trkpt><trkpt lat="44.1994267" lon="12.0820271"><ele>26.5</ele><time>2026-04-25T14:49:17.427Z</time></trkpt><trkpt lat="44.1995692" lon="12.0820771"><ele>27.0</ele><time>2026-04-25T14:49:18.415Z</time></trkpt><trkpt lat="44.1997147" lon="12.08212"><ele>26.5</ele><time>2026-04-25T14:49:19.415Z</time></trkpt><trkpt lat="44.1998599" lon="12.0821669"><ele>26.0</ele><time>2026-04-25T14:49:20.413Z</time></trkpt><trkpt lat="44.2000051" lon="12.0822164"><ele>25.5</ele><time>2026-04-25T14:49:21.412Z</time></trkpt><trkpt lat="44.2001428" lon="12.0822673"><ele>25.0</ele><time>2026-04-25T14:49:22.433Z</time></trkpt><trkpt lat="44.2002871" lon="12.082316"><ele>25.0</ele><time>2026-04-25T14:49:23.414Z</time></trkpt><trkpt lat="44.200425" lon="12.0823636"><ele>25.0</ele><time>2026-04-25T14:49:24.411Z</time></trkpt><trkpt lat="44.2005695" lon="12.0824128"><ele>25.0</ele><time>2026-04-25T14:49:25.43Z</time></trkpt><trkpt lat="44.2007114" lon="12.0824543"><ele>25.0</ele><time>2026-04-25T14:49:26.399Z</time></trkpt><trkpt lat="44.2008561" lon="12.0825022"><ele>25.0</ele><time>2026-04-25T14:49:27.428Z</time></trkpt><trkpt lat="44.2009984" lon="12.0825528"><ele>25.0</ele><time>2026-04-25T14:49:28.424Z</time></trkpt><trkpt lat="44.2011386" lon="12.0826081"><ele>25.0</ele><time>2026-04-25T14:49:29.421Z</time></trkpt><trkpt lat="44.2012861" lon="12.0826588"><ele>25.0</ele><time>2026-04-25T14:49:30.419Z</time></trkpt><trkpt lat="44.2014295" lon="12.082699"><ele>25.0</ele><time>2026-04-25T14:49:31.421Z</time></trkpt><trkpt lat="44.2015682" lon="12.0827471"><ele>25.0</ele><time>2026-04-25T14:49:32.414Z</time></trkpt><trkpt lat="44.2017146" lon="12.0827961"><ele>25.0</ele><time>2026-04-25T14:49:33.42Z</time></trkpt><trkpt lat="44.2018553" lon="12.0828384"><ele>25.0</ele><time>2026-04-25T14:49:34.42Z</time></trkpt><trkpt lat="44.2019923" lon="12.0828939"><ele>25.0</ele><time>2026-04-25T14:49:35.416Z</time></trkpt><trkpt lat="44.2021292" lon="12.0829491"><ele>25.0</ele><time>2026-04-25T14:49:36.416Z</time></trkpt><trkpt lat="44.2022705" lon="12.0830045"><ele>25.0</ele><time>2026-04-25T14:49:37.426Z</time></trkpt><trkpt lat="44.2024107" lon="12.0830546"><ele>25.0</ele><time>2026-04-25T14:49:38.407Z</time></trkpt><trkpt lat="44.2025444" lon="12.0831108"><ele>25.0</ele><time>2026-04-25T14:49:39.413Z</time></trkpt><trkpt lat="44.2026879" lon="12.083169"><ele>25.0</ele><time>2026-04-25T14:49:40.409Z</time></trkpt><trkpt lat="44.2028313" lon="12.0832123"><ele>25.0</ele><time>2026-04-25T14:49:41.417Z</time></trkpt><trkpt lat="44.2029733" lon="12.0832641"><ele>25.0</ele><time>2026-04-25T14:49:42.424Z</time></trkpt><trkpt lat="44.203118" lon="12.083309"><ele>25.5</ele><time>2026-04-25T14:49:43.437Z</time></trkpt><trkpt lat="44.2032543" lon="12.0833532"><ele>26.0</ele><time>2026-04-25T14:49:44.415Z</time></trkpt><trkpt lat="44.2033906" lon="12.0834114"><ele>26.5</ele><time>2026-04-25T14:49:45.414Z</time></trkpt><trkpt lat="44.2035234" lon="12.0834614"><ele>27.0</ele><time>2026-04-25T14:49:46.412Z</time></trkpt><trkpt lat="44.2036349" lon="12.0835133"><ele>27.0</ele><time>2026-04-25T14:49:47.415Z</time></trkpt><trkpt lat="44.2037397" lon="12.0835479"><ele>27.000000000000004</ele><time>2026-04-25T14:49:48.412Z</time></trkpt><trkpt lat="44.2038405" lon="12.0835822"><ele>27.000000000000004</ele><time>2026-04-25T14:49:49.414Z</time></trkpt><trkpt lat="44.2039316" lon="12.0836126"><ele>27.0</ele><time>2026-04-25T14:49:50.415Z</time></trkpt><trkpt lat="44.2040154" lon="12.0836436"><ele>27.0</ele><time>2026-04-25T14:49:51.413Z</time></trkpt><trkpt lat="44.204081" lon="12.0837053"><ele>26.8</ele><time>2026-04-25T14:49:52.408Z</time></trkpt><trkpt lat="44.2041432" lon="12.0838161"><ele>26.6</ele><time>2026-04-25T14:49:54.42Z</time></trkpt><trkpt lat="44.2041337" lon="12.0839281"><ele>26.400000000000002</ele><time>2026-04-25T14:49:57.418Z</time></trkpt><trkpt lat="44.2040769" lon="12.0841075"><ele>26.200000000000003</ele><time>2026-04-25T14:49:59.423Z</time></trkpt><trkpt lat="44.2040271" lon="12.0842372"><ele>26.0</ele><time>2026-04-25T14:50:00.418Z</time></trkpt><trkpt lat="44.2039665" lon="12.0843875"><ele>25.75</ele><time>2026-04-25T14:50:01.423Z</time></trkpt><trkpt lat="44.2039006" lon="12.0845474"><ele>25.5</ele><time>2026-04-25T14:50:02.412Z</time></trkpt><trkpt lat="44.2038359" lon="12.0847054"><ele>25.25</ele><time>2026-04-25T14:50:03.419Z</time></trkpt><trkpt lat="44.2037728" lon="12.0848588"><ele>25.0</ele><time>2026-04-25T14:50:04.413Z</time></trkpt><trkpt lat="44.2037077" lon="12.0850185"><ele>24.5</ele><time>2026-04-25T14:50:05.422Z</time></trkpt><trkpt lat="44.2036356" lon="12.0851896"><ele>24.0</ele><time>2026-04-25T14:50:06.418Z</time></trkpt><trkpt lat="44.2035669" lon="12.0853581"><ele>23.5</ele><time>2026-04-25T14:50:07.431Z</time></trkpt><trkpt lat="44.2034989" lon="12.0855191"><ele>23.0</ele><time>2026-04-25T14:50:08.421Z</time></trkpt><trkpt lat="44.2034308" lon="12.085683"><ele>22.25</ele><time>2026-04-25T14:50:09.425Z</time></trkpt><trkpt lat="44.2033628" lon="12.0858471"><ele>21.5</ele><time>2026-04-25T14:50:10.414Z</time></trkpt><trkpt lat="44.2032917" lon="12.086022"><ele>20.75</ele><time>2026-04-25T14:50:11.423Z</time></trkpt><trkpt lat="44.2032161" lon="12.0862089"><ele>20.0</ele><time>2026-04-25T14:50:12.426Z</time></trkpt><trkpt lat="44.2031356" lon="12.0863904"><ele>20.0</ele><time>2026-04-25T14:50:13.428Z</time></trkpt><trkpt lat="44.2030635" lon="12.0865719"><ele>20.0</ele><time>2026-04-25T14:50:14.413Z</time></trkpt><trkpt lat="44.2029858" lon="12.0867563"><ele>20.0</ele><time>2026-04-25T14:50:15.427Z</time></trkpt><trkpt lat="44.2029106" lon="12.0869297"><ele>20.0</ele><time>2026-04-25T14:50:16.421Z</time></trkpt><trkpt lat="44.2028362" lon="12.0870984"><ele>19.5</ele><time>2026-04-25T14:50:17.417Z</time></trkpt><trkpt lat="44.2027697" lon="12.0872634"><ele>19.0</ele><time>2026-04-25T14:50:18.423Z</time></trkpt><trkpt lat="44.2027004" lon="12.0874347"><ele>18.5</ele><time>2026-04-25T14:50:19.42Z</time></trkpt><trkpt lat="44.2026303" lon="12.0876012"><ele>18.0</ele><time>2026-04-25T14:50:20.423Z</time></trkpt><trkpt lat="44.202562" lon="12.08777"><ele>19.25</ele><time>2026-04-25T14:50:21.43Z</time></trkpt><trkpt lat="44.2025017" lon="12.0879412"><ele>20.5</ele><time>2026-04-25T14:50:22.415Z</time></trkpt><trkpt lat="44.2024413" lon="12.0881171"><ele>21.75</ele><time>2026-04-25T14:50:23.429Z</time></trkpt><trkpt lat="44.202386" lon="12.0882997"><ele>23.0</ele><time>2026-04-25T14:50:24.414Z</time></trkpt><trkpt lat="44.2023423" lon="12.0884811"><ele>21.75</ele><time>2026-04-25T14:50:25.426Z</time></trkpt><trkpt lat="44.2023084" lon="12.0886581"><ele>20.5</ele><time>2026-04-25T14:50:26.419Z</time></trkpt><trkpt lat="44.2022793" lon="12.0888366"><ele>19.25</ele><time>2026-04-25T14:50:27.412Z</time></trkpt><trkpt lat="44.2022524" lon="12.0890175"><ele>18.0</ele><time>2026-04-25T14:50:28.414Z</time></trkpt><trkpt lat="44.2022177" lon="12.0892008"><ele>17.75</ele><time>2026-04-25T14:50:29.418Z</time></trkpt><trkpt lat="44.2021705" lon="12.0893842"><ele>17.5</ele><time>2026-04-25T14:50:30.426Z</time></trkpt><trkpt lat="44.2021234" lon="12.0895586"><ele>17.25</ele><time>2026-04-25T14:50:31.443Z</time></trkpt><trkpt lat="44.2020647" lon="12.0897263"><ele>17.0</ele><time>2026-04-25T14:50:32.414Z</time></trkpt><trkpt lat="44.2020124" lon="12.0898961"><ele>17.0</ele><time>2026-04-25T14:50:33.42Z</time></trkpt><trkpt lat="44.2019509" lon="12.0900688"><ele>17.0</ele><time>2026-04-25T14:50:34.422Z</time></trkpt><trkpt lat="44.2018816" lon="12.0902407"><ele>17.0</ele><time>2026-04-25T14:50:35.427Z</time></trkpt><trkpt lat="44.2018113" lon="12.0904186"><ele>17.0</ele><time>2026-04-25T14:50:36.419Z</time></trkpt><trkpt lat="44.2017303" lon="12.0905901"><ele>17.75</ele><time>2026-04-25T14:50:37.422Z</time></trkpt><trkpt lat="44.2016434" lon="12.0907621"><ele>18.5</ele><time>2026-04-25T14:50:38.418Z</time></trkpt><trkpt lat="44.2015505" lon="12.0909305"><ele>19.25</ele><time>2026-04-25T14:50:39.426Z</time></trkpt><trkpt lat="44.2014574" lon="12.0910853"><ele>20.0</ele><time>2026-04-25T14:50:40.426Z</time></trkpt><trkpt lat="44.2013669" lon="12.0912314"><ele>19.75</ele><time>2026-04-25T14:50:41.424Z</time></trkpt><trkpt lat="44.2012682" lon="12.0913763"><ele>19.5</ele><time>2026-04-25T14:50:42.415Z</time></trkpt><trkpt lat="44.2011606" lon="12.0915112"><ele>19.25</ele><time>2026-04-25T14:50:43.436Z</time></trkpt><trkpt lat="44.2010525" lon="12.0916405"><ele>19.0</ele><time>2026-04-25T14:50:44.41Z</time></trkpt><trkpt lat="44.2009489" lon="12.0917501"><ele>19.0</ele><time>2026-04-25T14:50:45.421Z</time></trkpt><trkpt lat="44.2008432" lon="12.0918523"><ele>19.0</ele><time>2026-04-25T14:50:46.422Z</time></trkpt><trkpt lat="44.200737" lon="12.0919592"><ele>19.0</ele><time>2026-04-25T14:50:47.418Z</time></trkpt><trkpt lat="44.2006368" lon="12.0920675"><ele>19.0</ele><time>2026-04-25T14:50:48.424Z</time></trkpt><trkpt lat="44.2005428" lon="12.0921897"><ele>18.5</ele><time>2026-04-25T14:50:49.422Z</time></trkpt><trkpt lat="44.2004544" lon="12.0923311"><ele>18.0</ele><time>2026-04-25T14:50:50.422Z</time></trkpt><trkpt lat="44.200369" lon="12.0924774"><ele>17.5</ele><time>2026-04-25T14:50:51.416Z</time></trkpt><trkpt lat="44.2002952" lon="12.0926427"><ele>17.0</ele><time>2026-04-25T14:50:52.415Z</time></trkpt><trkpt lat="44.2002301" lon="12.0928034"><ele>18.25</ele><time>2026-04-25T14:50:53.421Z</time></trkpt><trkpt lat="44.200166" lon="12.092965"><ele>19.5</ele><time>2026-04-25T14:50:54.41Z</time></trkpt><trkpt lat="44.2000995" lon="12.0931237"><ele>20.75</ele><time>2026-04-25T14:50:55.426Z</time></trkpt><trkpt lat="44.2000371" lon="12.0932692"><ele>22.0</ele><time>2026-04-25T14:50:56.418Z</time></trkpt><trkpt lat="44.1999823" lon="12.0934065"><ele>22.5</ele><time>2026-04-25T14:50:57.422Z</time></trkpt><trkpt lat="44.1999339" lon="12.0935348"><ele>23.0</ele><time>2026-04-25T14:50:58.413Z</time></trkpt><trkpt lat="44.1998921" lon="12.0936491"><ele>23.5</ele><time>2026-04-25T14:50:59.424Z</time></trkpt><trkpt lat="44.1998643" lon="12.0937625"><ele>24.0</ele><time>2026-04-25T14:51:00.414Z</time></trkpt><trkpt lat="44.1998404" lon="12.0938802"><ele>24.500000000000004</ele><time>2026-04-25T14:51:01.432Z</time></trkpt><trkpt lat="44.1998257" lon="12.0939867"><ele>25.0</ele><time>2026-04-25T14:51:02.415Z</time></trkpt><trkpt lat="44.1998099" lon="12.0940955"><ele>25.000000000000004</ele><time>2026-04-25T14:51:03.423Z</time></trkpt><trkpt lat="44.1997855" lon="12.0942142"><ele>25.0</ele><time>2026-04-25T14:51:04.424Z</time></trkpt><trkpt lat="44.1997533" lon="12.094312"><ele>25.0</ele><time>2026-04-25T14:51:05.411Z</time></trkpt><trkpt lat="44.199714" lon="12.0944056"><ele>25.0</ele><time>2026-04-25T14:51:06.418Z</time></trkpt><trkpt lat="44.1996657" lon="12.0945"><ele>25.000000000000004</ele><time>2026-04-25T14:51:07.431Z</time></trkpt><trkpt lat="44.1996139" lon="12.0945979"><ele>25.0</ele><time>2026-04-25T14:51:08.409Z</time></trkpt><trkpt lat="44.1995666" lon="12.0946969"><ele>25.0</ele><time>2026-04-25T14:51:09.418Z</time></trkpt><trkpt lat="44.1995274" lon="12.0948141"><ele>25.0</ele><time>2026-04-25T14:51:10.42Z</time></trkpt><trkpt lat="44.1995" lon="12.0949382"><ele>25.0</ele><time>2026-04-25T14:51:11.432Z</time></trkpt><trkpt lat="44.1994725" lon="12.095077"><ele>25.0</ele><time>2026-04-25T14:51:12.414Z</time></trkpt><trkpt lat="44.1994358" lon="12.0952153"><ele>25.0</ele><time>2026-04-25T14:51:13.429Z</time></trkpt><trkpt lat="44.1993861" lon="12.0953459"><ele>25.25</ele><time>2026-04-25T14:51:14.421Z</time></trkpt><trkpt lat="44.1993226" lon="12.0954741"><ele>25.5</ele><time>2026-04-25T14:51:15.415Z</time></trkpt><trkpt lat="44.1992548" lon="12.0956044"><ele>25.75</ele><time>2026-04-25T14:51:16.423Z</time></trkpt><trkpt lat="44.1991957" lon="12.0957375"><ele>26.0</ele><time>2026-04-25T14:51:17.413Z</time></trkpt><trkpt lat="44.19914" lon="12.0958744"><ele>25.5</ele><time>2026-04-25T14:51:18.421Z</time></trkpt><trkpt lat="44.1990903" lon="12.0960074"><ele>25.0</ele><time>2026-04-25T14:51:19.419Z</time></trkpt><trkpt lat="44.1990412" lon="12.096147"><ele>24.5</ele><time>2026-04-25T14:51:20.418Z</time></trkpt><trkpt lat="44.1989864" lon="12.09629"><ele>24.0</ele><time>2026-04-25T14:51:21.427Z</time></trkpt><trkpt lat="44.1989312" lon="12.0964343"><ele>24.0</ele><time>2026-04-25T14:51:22.423Z</time></trkpt><trkpt lat="44.1988718" lon="12.0965814"><ele>24.0</ele><time>2026-04-25T14:51:23.422Z</time></trkpt><trkpt lat="44.1988121" lon="12.0967278"><ele>24.0</ele><time>2026-04-25T14:51:24.415Z</time></trkpt><trkpt lat="44.1987528" lon="12.0968769"><ele>24.0</ele><time>2026-04-25T14:51:25.413Z</time></trkpt><trkpt lat="44.1986899" lon="12.0970224"><ele>24.25</ele><time>2026-04-25T14:51:26.416Z</time></trkpt><trkpt lat="44.1986326" lon="12.0971673"><ele>24.5</ele><time>2026-04-25T14:51:27.416Z</time></trkpt><trkpt lat="44.1985692" lon="12.097313"><ele>24.75</ele><time>2026-04-25T14:51:28.415Z</time></trkpt><trkpt lat="44.1985015" lon="12.0974639"><ele>25.0</ele><time>2026-04-25T14:51:29.426Z</time></trkpt><trkpt lat="44.1984353" lon="12.0976164"><ele>25.333333333333336</ele><time>2026-04-25T14:51:30.423Z</time></trkpt><trkpt lat="44.1983662" lon="12.0977879"><ele>25.666666666666664</ele><time>2026-04-25T14:51:31.426Z</time></trkpt><trkpt lat="44.1982879" lon="12.0979802"><ele>26.0</ele><time>2026-04-25T14:51:32.415Z</time></trkpt><trkpt lat="44.198208" lon="12.0981732"><ele>26.0</ele><time>2026-04-25T14:51:33.425Z</time></trkpt><trkpt lat="44.1981229" lon="12.0983663"><ele>26.0</ele><time>2026-04-25T14:51:34.415Z</time></trkpt><trkpt lat="44.1980406" lon="12.0985529"><ele>26.0</ele><time>2026-04-25T14:51:35.427Z</time></trkpt><trkpt lat="44.1979649" lon="12.0987295"><ele>26.0</ele><time>2026-04-25T14:51:36.429Z</time></trkpt><trkpt lat="44.1978905" lon="12.098907"><ele>26.0</ele><time>2026-04-25T14:51:37.431Z</time></trkpt><trkpt lat="44.1978167" lon="12.0990789"><ele>26.0</ele><time>2026-04-25T14:51:38.421Z</time></trkpt><trkpt lat="44.1977444" lon="12.0992502"><ele>26.0</ele><time>2026-04-25T14:51:39.436Z</time></trkpt><trkpt lat="44.197668" lon="12.0994229"><ele>26.0</ele><time>2026-04-25T14:51:40.424Z</time></trkpt><trkpt lat="44.197594" lon="12.0995899"><ele>26.0</ele><time>2026-04-25T14:51:41.425Z</time></trkpt><trkpt lat="44.197524" lon="12.0997589"><ele>26.0</ele><time>2026-04-25T14:51:42.419Z</time></trkpt><trkpt lat="44.1974549" lon="12.0999261"><ele>26.0</ele><time>2026-04-25T14:51:43.428Z</time></trkpt><trkpt lat="44.1973828" lon="12.1001033"><ele>26.0</ele><time>2026-04-25T14:51:44.419Z</time></trkpt><trkpt lat="44.1973074" lon="12.1002833"><ele>26.0</ele><time>2026-04-25T14:51:45.423Z</time></trkpt><trkpt lat="44.1972345" lon="12.1004595"><ele>26.0</ele><time>2026-04-25T14:51:46.418Z</time></trkpt><trkpt lat="44.1971594" lon="12.1006395"><ele>26.0</ele><time>2026-04-25T14:51:47.424Z</time></trkpt><trkpt lat="44.1970849" lon="12.1008213"><ele>26.25</ele><time>2026-04-25T14:51:48.418Z</time></trkpt><trkpt lat="44.1970075" lon="12.1009969"><ele>26.5</ele><time>2026-04-25T14:51:49.427Z</time></trkpt><trkpt lat="44.1969329" lon="12.1011726"><ele>26.75</ele><time>2026-04-25T14:51:50.417Z</time></trkpt><trkpt lat="44.1968628" lon="12.1013438"><ele>27.0</ele><time>2026-04-25T14:51:51.432Z</time></trkpt><trkpt lat="44.1967946" lon="12.1015165"><ele>27.0</ele><time>2026-04-25T14:51:52.418Z</time></trkpt><trkpt lat="44.1967307" lon="12.1016872"><ele>27.0</ele><time>2026-04-25T14:51:53.428Z</time></trkpt><trkpt lat="44.1966707" lon="12.1018634"><ele>27.0</ele><time>2026-04-25T14:51:54.422Z</time></trkpt><trkpt lat="44.1966123" lon="12.1020472"><ele>27.0</ele><time>2026-04-25T14:51:55.425Z</time></trkpt><trkpt lat="44.1965462" lon="12.1022329"><ele>27.0</ele><time>2026-04-25T14:51:56.416Z</time></trkpt><trkpt lat="44.196475" lon="12.1024308"><ele>27.0</ele><time>2026-04-25T14:51:57.427Z</time></trkpt><trkpt lat="44.1964037" lon="12.1026255"><ele>27.0</ele><time>2026-04-25T14:51:58.416Z</time></trkpt><trkpt lat="44.1963332" lon="12.1028209"><ele>27.0</ele><time>2026-04-25T14:51:59.434Z</time></trkpt><trkpt lat="44.1962577" lon="12.1030249"><ele>27.0</ele><time>2026-04-25T14:52:00.416Z</time></trkpt><trkpt lat="44.1961743" lon="12.1032357"><ele>27.0</ele><time>2026-04-25T14:52:01.432Z</time></trkpt><trkpt lat="44.1960898" lon="12.1034493"><ele>27.0</ele><time>2026-04-25T14:52:02.417Z</time></trkpt><trkpt lat="44.1959948" lon="12.1036761"><ele>27.0</ele><time>2026-04-25T14:52:03.42Z</time></trkpt><trkpt lat="44.1958942" lon="12.1039103"><ele>27.0</ele><time>2026-04-25T14:52:04.425Z</time></trkpt><trkpt lat="44.1957869" lon="12.104153"><ele>27.0</ele><time>2026-04-25T14:52:05.424Z</time></trkpt><trkpt lat="44.1956775" lon="12.1044054"><ele>27.0</ele><time>2026-04-25T14:52:06.419Z</time></trkpt><trkpt lat="44.1955696" lon="12.1046628"><ele>27.0</ele><time>2026-04-25T14:52:07.426Z</time></trkpt><trkpt lat="44.1954578" lon="12.1049249"><ele>27.0</ele><time>2026-04-25T14:52:08.425Z</time></trkpt><trkpt lat="44.1953433" lon="12.1051882"><ele>27.0</ele><time>2026-04-25T14:52:09.426Z</time></trkpt><trkpt lat="44.195233" lon="12.1054487"><ele>27.0</ele><time>2026-04-25T14:52:10.421Z</time></trkpt><trkpt lat="44.1951265" lon="12.1057169"><ele>27.0</ele><time>2026-04-25T14:52:11.425Z</time></trkpt><trkpt lat="44.1950148" lon="12.1059807"><ele>27.0</ele><time>2026-04-25T14:52:12.42Z</time></trkpt><trkpt lat="44.1949086" lon="12.1062547"><ele>27.0</ele><time>2026-04-25T14:52:13.414Z</time></trkpt><trkpt lat="44.1948011" lon="12.1065215"><ele>27.0</ele><time>2026-04-25T14:52:14.42Z</time></trkpt><trkpt lat="44.1946913" lon="12.1067851"><ele>27.0</ele><time>2026-04-25T14:52:15.419Z</time></trkpt><trkpt lat="44.1945796" lon="12.1070447"><ele>27.0</ele><time>2026-04-25T14:52:16.414Z</time></trkpt><trkpt lat="44.1944706" lon="12.1073053"><ele>27.0</ele><time>2026-04-25T14:52:17.432Z</time></trkpt><trkpt lat="44.1943618" lon="12.1075701"><ele>27.0</ele><time>2026-04-25T14:52:18.421Z</time></trkpt><trkpt lat="44.1942557" lon="12.1078318"><ele>27.0</ele><time>2026-04-25T14:52:19.425Z</time></trkpt><trkpt lat="44.1941506" lon="12.108105"><ele>27.333333333333336</ele><time>2026-04-25T14:52:20.418Z</time></trkpt><trkpt lat="44.1940487" lon="12.1083703"><ele>27.666666666666668</ele><time>2026-04-25T14:52:21.423Z</time></trkpt><trkpt lat="44.1939493" lon="12.1086253"><ele>28.0</ele><time>2026-04-25T14:52:22.415Z</time></trkpt><trkpt lat="44.193857" lon="12.1088737"><ele>27.333333333333336</ele><time>2026-04-25T14:52:23.427Z</time></trkpt><trkpt lat="44.1937672" lon="12.1091118"><ele>26.666666666666664</ele><time>2026-04-25T14:52:24.421Z</time></trkpt><trkpt lat="44.1936874" lon="12.1093409"><ele>26.0</ele><time>2026-04-25T14:52:25.426Z</time></trkpt><trkpt lat="44.1936054" lon="12.1095629"><ele>26.0</ele><time>2026-04-25T14:52:26.424Z</time></trkpt><trkpt lat="44.1935315" lon="12.1097684"><ele>26.0</ele><time>2026-04-25T14:52:27.425Z</time></trkpt><trkpt lat="44.1934588" lon="12.1099534"><ele>26.0</ele><time>2026-04-25T14:52:28.417Z</time></trkpt><trkpt lat="44.1933923" lon="12.1101196"><ele>26.0</ele><time>2026-04-25T14:52:29.432Z</time></trkpt><trkpt lat="44.1933353" lon="12.1102738"><ele>26.0</ele><time>2026-04-25T14:52:30.423Z</time></trkpt><trkpt lat="44.1932889" lon="12.1104079"><ele>26.0</ele><time>2026-04-25T14:52:31.438Z</time></trkpt><trkpt lat="44.1932489" lon="12.1105549"><ele>26.0</ele><time>2026-04-25T14:52:32.414Z</time></trkpt><trkpt lat="44.1932012" lon="12.1107315"><ele>26.0</ele><time>2026-04-25T14:52:33.429Z</time></trkpt><trkpt lat="44.1931603" lon="12.1109313"><ele>26.0</ele><time>2026-04-25T14:52:34.419Z</time></trkpt><trkpt lat="44.1931356" lon="12.1111221"><ele>26.0</ele><time>2026-04-25T14:52:35.429Z</time></trkpt><trkpt lat="44.1931122" lon="12.111305"><ele>26.0</ele><time>2026-04-25T14:52:36.429Z</time></trkpt><trkpt lat="44.1930775" lon="12.1114727"><ele>26.0</ele><time>2026-04-25T14:52:37.418Z</time></trkpt><trkpt lat="44.1930179" lon="12.1116099"><ele>26.0</ele><time>2026-04-25T14:52:38.423Z</time></trkpt><trkpt lat="44.1929419" lon="12.1117107"><ele>26.0</ele><time>2026-04-25T14:52:39.419Z</time></trkpt><trkpt lat="44.1928503" lon="12.1117832"><ele>26.0</ele><time>2026-04-25T14:52:40.417Z</time></trkpt><trkpt lat="44.1927532" lon="12.1118715"><ele>26.0</ele><time>2026-04-25T14:52:41.424Z</time></trkpt><trkpt lat="44.1926685" lon="12.1119756"><ele>26.0</ele><time>2026-04-25T14:52:42.42Z</time></trkpt><trkpt lat="44.1926153" lon="12.11211"><ele>26.0</ele><time>2026-04-25T14:52:43.422Z</time></trkpt><trkpt lat="44.1925811" lon="12.1122641"><ele>26.0</ele><time>2026-04-25T14:52:44.425Z</time></trkpt><trkpt lat="44.1925588" lon="12.1124304"><ele>26.0</ele><time>2026-04-25T14:52:45.428Z</time></trkpt><trkpt lat="44.1925359" lon="12.1125897"><ele>25.8</ele><time>2026-04-25T14:52:46.421Z</time></trkpt><trkpt lat="44.1924841" lon="12.1127201"><ele>25.6</ele><time>2026-04-25T14:52:47.423Z</time></trkpt><trkpt lat="44.1924018" lon="12.1128298"><ele>25.4</ele><time>2026-04-25T14:52:48.42Z</time></trkpt><trkpt lat="44.1923158" lon="12.1129179"><ele>25.2</ele><time>2026-04-25T14:52:49.429Z</time></trkpt><trkpt lat="44.1922322" lon="12.1129803"><ele>25.0</ele><time>2026-04-25T14:52:50.414Z</time></trkpt><trkpt lat="44.1921553" lon="12.1130556"><ele>25.0</ele><time>2026-04-25T14:52:51.425Z</time></trkpt><trkpt lat="44.1920906" lon="12.113163"><ele>25.0</ele><time>2026-04-25T14:52:52.42Z</time></trkpt><trkpt lat="44.1920166" lon="12.1133307"><ele>25.0</ele><time>2026-04-25T14:52:53.426Z</time></trkpt><trkpt lat="44.1919384" lon="12.1135013"><ele>25.0</ele><time>2026-04-25T14:52:54.417Z</time></trkpt><trkpt lat="44.1918562" lon="12.1136949"><ele>25.0</ele><time>2026-04-25T14:52:55.421Z</time></trkpt><trkpt lat="44.1917697" lon="12.1138862"><ele>25.0</ele><time>2026-04-25T14:52:56.416Z</time></trkpt><trkpt lat="44.1916769" lon="12.114105"><ele>25.0</ele><time>2026-04-25T14:52:57.417Z</time></trkpt><trkpt lat="44.1915862" lon="12.1143334"><ele>24.666666666666668</ele><time>2026-04-25T14:52:58.419Z</time></trkpt><trkpt lat="44.1914926" lon="12.1145679"><ele>24.333333333333336</ele><time>2026-04-25T14:52:59.422Z</time></trkpt><trkpt lat="44.1913966" lon="12.1148055"><ele>24.0</ele><time>2026-04-25T14:53:00.418Z</time></trkpt><trkpt lat="44.1913059" lon="12.1150401"><ele>23.666666666666668</ele><time>2026-04-25T14:53:01.42Z</time></trkpt><trkpt lat="44.1912173" lon="12.1152679"><ele>23.333333333333336</ele><time>2026-04-25T14:53:02.43Z</time></trkpt><trkpt lat="44.1911316" lon="12.1154898"><ele>23.0</ele><time>2026-04-25T14:53:03.42Z</time></trkpt><trkpt lat="44.1910467" lon="12.1157159"><ele>24.0</ele><time>2026-04-25T14:53:04.409Z</time></trkpt><trkpt lat="44.1909611" lon="12.1159375"><ele>25.0</ele><time>2026-04-25T14:53:05.433Z</time></trkpt><trkpt lat="44.1908814" lon="12.1161521"><ele>26.0</ele><time>2026-04-25T14:53:06.412Z</time></trkpt><trkpt lat="44.1908113" lon="12.1163642"><ele>26.0</ele><time>2026-04-25T14:53:07.426Z</time></trkpt><trkpt lat="44.1907452" lon="12.1165661"><ele>26.0</ele><time>2026-04-25T14:53:08.436Z</time></trkpt><trkpt lat="44.1906809" lon="12.1167716"><ele>26.0</ele><time>2026-04-25T14:53:09.428Z</time></trkpt><trkpt lat="44.1906132" lon="12.1169729"><ele>26.0</ele><time>2026-04-25T14:53:10.416Z</time></trkpt><trkpt lat="44.1905385" lon="12.1171585"><ele>26.0</ele><time>2026-04-25T14:53:11.423Z</time></trkpt><trkpt lat="44.1904635" lon="12.1173436"><ele>26.0</ele><time>2026-04-25T14:53:12.419Z</time></trkpt><trkpt lat="44.190389" lon="12.1175147"><ele>26.0</ele><time>2026-04-25T14:53:13.431Z</time></trkpt><trkpt lat="44.1903042" lon="12.1176736"><ele>26.0</ele><time>2026-04-25T14:53:14.418Z</time></trkpt><trkpt lat="44.1902307" lon="12.1178175"><ele>26.0</ele><time>2026-04-25T14:53:15.426Z</time></trkpt><trkpt lat="44.1901597" lon="12.117939"><ele>26.0</ele><time>2026-04-25T14:53:16.417Z</time></trkpt><trkpt lat="44.1900906" lon="12.118049"><ele>26.0</ele><time>2026-04-25T14:53:17.432Z</time></trkpt><trkpt lat="44.1900229" lon="12.1181601"><ele>26.0</ele><time>2026-04-25T14:53:18.417Z</time></trkpt><trkpt lat="44.1899381" lon="12.1182718"><ele>26.0</ele><time>2026-04-25T14:53:19.432Z</time></trkpt><trkpt lat="44.1898424" lon="12.1183767"><ele>26.0</ele><time>2026-04-25T14:53:20.418Z</time></trkpt><trkpt lat="44.1897477" lon="12.1184844"><ele>26.0</ele><time>2026-04-25T14:53:21.424Z</time></trkpt><trkpt lat="44.1896527" lon="12.118589"><ele>26.0</ele><time>2026-04-25T14:53:22.422Z</time></trkpt><trkpt lat="44.1895654" lon="12.1186937"><ele>26.0</ele><time>2026-04-25T14:53:23.418Z</time></trkpt><trkpt lat="44.1894761" lon="12.1188056"><ele>26.0</ele><time>2026-04-25T14:53:24.423Z</time></trkpt><trkpt lat="44.1893859" lon="12.1189212"><ele>26.0</ele><time>2026-04-25T14:53:25.426Z</time></trkpt><trkpt lat="44.1892966" lon="12.1190415"><ele>26.0</ele><time>2026-04-25T14:53:26.42Z</time></trkpt><trkpt lat="44.1891986" lon="12.1191661"><ele>26.0</ele><time>2026-04-25T14:53:27.425Z</time></trkpt><trkpt lat="44.189101" lon="12.1192933"><ele>26.0</ele><time>2026-04-25T14:53:28.42Z</time></trkpt><trkpt lat="44.189005" lon="12.1194227"><ele>26.0</ele><time>2026-04-25T14:53:29.418Z</time></trkpt><trkpt lat="44.1889051" lon="12.11955"><ele>26.0</ele><time>2026-04-25T14:53:30.414Z</time></trkpt><trkpt lat="44.1888021" lon="12.1196796"><ele>26.5</ele><time>2026-04-25T14:53:31.421Z</time></trkpt><trkpt lat="44.188698" lon="12.1198205"><ele>27.0</ele><time>2026-04-25T14:53:32.428Z</time></trkpt><trkpt lat="44.1885997" lon="12.1199666"><ele>27.5</ele><time>2026-04-25T14:53:33.431Z</time></trkpt><trkpt lat="44.1885035" lon="12.120103"><ele>28.0</ele><time>2026-04-25T14:53:34.411Z</time></trkpt><trkpt lat="44.1884172" lon="12.1202436"><ele>28.25</ele><time>2026-04-25T14:53:35.427Z</time></trkpt><trkpt lat="44.1883395" lon="12.1203801"><ele>28.5</ele><time>2026-04-25T14:53:36.416Z</time></trkpt><trkpt lat="44.1882722" lon="12.1205151"><ele>28.75</ele><time>2026-04-25T14:53:37.422Z</time></trkpt><trkpt lat="44.1882105" lon="12.1206452"><ele>29.0</ele><time>2026-04-25T14:53:38.419Z</time></trkpt><trkpt lat="44.1881507" lon="12.1207737"><ele>29.166666666666664</ele><time>2026-04-25T14:53:39.431Z</time></trkpt><trkpt lat="44.1880911" lon="12.1208874"><ele>29.333333333333332</ele><time>2026-04-25T14:53:40.415Z</time></trkpt><trkpt lat="44.1880359" lon="12.1209869"><ele>29.5</ele><time>2026-04-25T14:53:41.424Z</time></trkpt><trkpt lat="44.1879852" lon="12.1210742"><ele>29.666666666666664</ele><time>2026-04-25T14:53:42.425Z</time></trkpt><trkpt lat="44.1879322" lon="12.1211589"><ele>29.833333333333332</ele><time>2026-04-25T14:53:43.42Z</time></trkpt><trkpt lat="44.1878821" lon="12.1212527"><ele>30.0</ele><time>2026-04-25T14:53:44.429Z</time></trkpt><trkpt lat="44.1878429" lon="12.1213682"><ele>30.0</ele><time>2026-04-25T14:53:45.418Z</time></trkpt><trkpt lat="44.1878302" lon="12.1214922"><ele>30.0</ele><time>2026-04-25T14:53:46.422Z</time></trkpt><trkpt lat="44.1878139" lon="12.1216042"><ele>30.0</ele><time>2026-04-25T14:53:47.453Z</time></trkpt><trkpt lat="44.1877875" lon="12.1217234"><ele>30.0</ele><time>2026-04-25T14:53:48.423Z</time></trkpt><trkpt lat="44.1877484" lon="12.121853"><ele>30.0</ele><time>2026-04-25T14:53:49.422Z</time></trkpt><trkpt lat="44.1877029" lon="12.1219644"><ele>30.0</ele><time>2026-04-25T14:53:50.424Z</time></trkpt><trkpt lat="44.1876615" lon="12.1220589"><ele>30.0</ele><time>2026-04-25T14:53:51.417Z</time></trkpt><trkpt lat="44.1876185" lon="12.12217"><ele>30.0</ele><time>2026-04-25T14:53:52.423Z</time></trkpt><trkpt lat="44.1875645" lon="12.1222973"><ele>30.0</ele><time>2026-04-25T14:53:53.419Z</time></trkpt><trkpt lat="44.187522" lon="12.1224296"><ele>30.0</ele><time>2026-04-25T14:53:54.423Z</time></trkpt><trkpt lat="44.1874797" lon="12.1225692"><ele>30.0</ele><time>2026-04-25T14:53:55.43Z</time></trkpt><trkpt lat="44.1874347" lon="12.1226965"><ele>30.0</ele><time>2026-04-25T14:53:56.423Z</time></trkpt><trkpt lat="44.1873884" lon="12.1228321"><ele>30.0</ele><time>2026-04-25T14:53:57.424Z</time></trkpt><trkpt lat="44.1873481" lon="12.1229522"><ele>30.0</ele><time>2026-04-25T14:53:58.415Z</time></trkpt><trkpt lat="44.1873103" lon="12.1230797"><ele>30.0</ele><time>2026-04-25T14:53:59.412Z</time></trkpt><trkpt lat="44.1872679" lon="12.1232016"><ele>30.0</ele><time>2026-04-25T14:54:00.413Z</time></trkpt><trkpt lat="44.1872329" lon="12.1233151"><ele>30.0</ele><time>2026-04-25T14:54:01.414Z</time></trkpt><trkpt lat="44.1872092" lon="12.1234187"><ele>30.0</ele><time>2026-04-25T14:54:03.424Z</time></trkpt><trkpt lat="44.1871569" lon="12.1235222"><ele>30.0</ele><time>2026-04-25T14:54:07.417Z</time></trkpt><trkpt lat="44.1871176" lon="12.1236319"><ele>30.0</ele><time>2026-04-25T14:54:08.412Z</time></trkpt><trkpt lat="44.1870805" lon="12.1237574"><ele>30.0</ele><time>2026-04-25T14:54:09.41Z</time></trkpt><trkpt lat="44.1870409" lon="12.1238896"><ele>30.0</ele><time>2026-04-25T14:54:10.406Z</time></trkpt><trkpt lat="44.186992" lon="12.1240299"><ele>30.0</ele><time>2026-04-25T14:54:11.408Z</time></trkpt><trkpt lat="44.1869411" lon="12.1241555"><ele>30.0</ele><time>2026-04-25T14:54:12.414Z</time></trkpt><trkpt lat="44.1869014" lon="12.1242775"><ele>30.0</ele><time>2026-04-25T14:54:13.424Z</time></trkpt><trkpt lat="44.1868569" lon="12.1244007"><ele>30.0</ele><time>2026-04-25T14:54:14.416Z</time></trkpt><trkpt lat="44.1868101" lon="12.1245309"><ele>30.0</ele><time>2026-04-25T14:54:15.416Z</time></trkpt><trkpt lat="44.1867609" lon="12.1246704"><ele>30.0</ele><time>2026-04-25T14:54:16.406Z</time></trkpt><trkpt lat="44.1867077" lon="12.1248181"><ele>30.0</ele><time>2026-04-25T14:54:17.408Z</time></trkpt><trkpt lat="44.1866602" lon="12.124956"><ele>30.0</ele><time>2026-04-25T14:54:18.428Z</time></trkpt><trkpt lat="44.1866154" lon="12.1250833"><ele>30.0</ele><time>2026-04-25T14:54:19.434Z</time></trkpt><trkpt lat="44.1865673" lon="12.1252053"><ele>30.2</ele><time>2026-04-25T14:54:20.422Z</time></trkpt><trkpt lat="44.1865292" lon="12.125314"><ele>30.4</ele><time>2026-04-25T14:54:21.417Z</time></trkpt><trkpt lat="44.1864926" lon="12.1254274"><ele>30.6</ele><time>2026-04-25T14:54:22.415Z</time></trkpt><trkpt lat="44.1864827" lon="12.1255431"><ele>30.8</ele><time>2026-04-25T14:54:23.424Z</time></trkpt><trkpt lat="44.1865042" lon="12.1256749"><ele>31.0</ele><time>2026-04-25T14:54:24.417Z</time></trkpt><trkpt lat="44.1865236" lon="12.1258184"><ele>31.0</ele><time>2026-04-25T14:54:25.423Z</time></trkpt><trkpt lat="44.1865202" lon="12.1259727"><ele>31.0</ele><time>2026-04-25T14:54:26.422Z</time></trkpt><trkpt lat="44.1864943" lon="12.1261201"><ele>31.0</ele><time>2026-04-25T14:54:27.413Z</time></trkpt><trkpt lat="44.1864492" lon="12.1262581"><ele>31.0</ele><time>2026-04-25T14:54:28.413Z</time></trkpt><trkpt lat="44.1863798" lon="12.1263793"><ele>31.0</ele><time>2026-04-25T14:54:29.423Z</time></trkpt><trkpt lat="44.1862926" lon="12.1264761"><ele>31.4</ele><time>2026-04-25T14:54:30.415Z</time></trkpt><trkpt lat="44.1861828" lon="12.1265678"><ele>31.8</ele><time>2026-04-25T14:54:31.419Z</time></trkpt><trkpt lat="44.1860894" lon="12.1266364"><ele>32.199999999999996</ele><time>2026-04-25T14:54:32.41Z</time></trkpt><trkpt lat="44.1860079" lon="12.1267044"><ele>32.6</ele><time>2026-04-25T14:54:33.423Z</time></trkpt><trkpt lat="44.1859325" lon="12.1267627"><ele>33.0</ele><time>2026-04-25T14:54:34.415Z</time></trkpt><trkpt lat="44.1858598" lon="12.1268191"><ele>33.0</ele><time>2026-04-25T14:54:35.415Z</time></trkpt><trkpt lat="44.1857981" lon="12.1268763"><ele>33.0</ele><time>2026-04-25T14:54:36.413Z</time></trkpt><trkpt lat="44.1857212" lon="12.1270063"><ele>33.0</ele><time>2026-04-25T14:54:38.411Z</time></trkpt><trkpt lat="44.1856619" lon="12.1271019"><ele>33.0</ele><time>2026-04-25T14:54:39.417Z</time></trkpt><trkpt lat="44.1855924" lon="12.1272185"><ele>33.0</ele><time>2026-04-25T14:54:40.406Z</time></trkpt><trkpt lat="44.1855362" lon="12.1273478"><ele>32.75</ele><time>2026-04-25T14:54:41.414Z</time></trkpt><trkpt lat="44.1854831" lon="12.1274885"><ele>32.5</ele><time>2026-04-25T14:54:42.404Z</time></trkpt><trkpt lat="44.1854214" lon="12.1276528"><ele>32.25</ele><time>2026-04-25T14:54:43.41Z</time></trkpt><trkpt lat="44.1853574" lon="12.1278248"><ele>32.0</ele><time>2026-04-25T14:54:44.409Z</time></trkpt><trkpt lat="44.1852938" lon="12.1280027"><ele>32.0</ele><time>2026-04-25T14:54:45.422Z</time></trkpt><trkpt lat="44.1852358" lon="12.1281979"><ele>32.0</ele><time>2026-04-25T14:54:46.413Z</time></trkpt><trkpt lat="44.1851842" lon="12.1283845"><ele>32.0</ele><time>2026-04-25T14:54:47.418Z</time></trkpt><trkpt lat="44.1851295" lon="12.1285664"><ele>32.0</ele><time>2026-04-25T14:54:48.423Z</time></trkpt><trkpt lat="44.185077" lon="12.1287409"><ele>31.833333333333332</ele><time>2026-04-25T14:54:49.418Z</time></trkpt><trkpt lat="44.1850311" lon="12.1288947"><ele>31.666666666666664</ele><time>2026-04-25T14:54:50.42Z</time></trkpt><trkpt lat="44.1849914" lon="12.1290246"><ele>31.5</ele><time>2026-04-25T14:54:51.417Z</time></trkpt><trkpt lat="44.1849584" lon="12.1291162"><ele>31.333333333333336</ele><time>2026-04-25T14:54:52.417Z</time></trkpt><trkpt lat="44.1849235" lon="12.1291998"><ele>31.166666666666668</ele><time>2026-04-25T14:54:53.429Z</time></trkpt><trkpt lat="44.1848708" lon="12.1292901"><ele>31.0</ele><time>2026-04-25T14:54:54.419Z</time></trkpt><trkpt lat="44.1848178" lon="12.1293938"><ele>31.0</ele><time>2026-04-25T14:54:55.438Z</time></trkpt><trkpt lat="44.184801" lon="12.1295314"><ele>31.0</ele><time>2026-04-25T14:54:56.417Z</time></trkpt><trkpt lat="44.1847862" lon="12.1296953"><ele>31.0</ele><time>2026-04-25T14:54:57.424Z</time></trkpt><trkpt lat="44.1847437" lon="12.1298868"><ele>31.0</ele><time>2026-04-25T14:54:58.424Z</time></trkpt><trkpt lat="44.1846836" lon="12.1300837"><ele>31.0</ele><time>2026-04-25T14:54:59.419Z</time></trkpt><trkpt lat="44.1846169" lon="12.1302937"><ele>31.0</ele><time>2026-04-25T14:55:00.419Z</time></trkpt><trkpt lat="44.1845545" lon="12.1305039"><ele>31.0</ele><time>2026-04-25T14:55:01.421Z</time></trkpt><trkpt lat="44.1844951" lon="12.1307123"><ele>31.0</ele><time>2026-04-25T14:55:02.407Z</time></trkpt><trkpt lat="44.1844311" lon="12.1309213"><ele>31.0</ele><time>2026-04-25T14:55:03.422Z</time></trkpt><trkpt lat="44.18436" lon="12.1311377"><ele>31.0</ele><time>2026-04-25T14:55:04.412Z</time></trkpt><trkpt lat="44.1842974" lon="12.1313486"><ele>31.0</ele><time>2026-04-25T14:55:05.417Z</time></trkpt><trkpt lat="44.184236" lon="12.1315533"><ele>31.0</ele><time>2026-04-25T14:55:06.409Z</time></trkpt><trkpt lat="44.184175" lon="12.1317554"><ele>31.0</ele><time>2026-04-25T14:55:07.409Z</time></trkpt><trkpt lat="44.1841132" lon="12.1319546"><ele>31.0</ele><time>2026-04-25T14:55:08.41Z</time></trkpt><trkpt lat="44.1840494" lon="12.1321586"><ele>31.0</ele><time>2026-04-25T14:55:09.419Z</time></trkpt><trkpt lat="44.1839954" lon="12.1323684"><ele>31.0</ele><time>2026-04-25T14:55:10.421Z</time></trkpt><trkpt lat="44.1839382" lon="12.1325725"><ele>31.0</ele><time>2026-04-25T14:55:11.459Z</time></trkpt><trkpt lat="44.1838801" lon="12.1327717"><ele>31.0</ele><time>2026-04-25T14:55:12.412Z</time></trkpt><trkpt lat="44.1838186" lon="12.1329766"><ele>31.0</ele><time>2026-04-25T14:55:13.441Z</time></trkpt><trkpt lat="44.1837554" lon="12.1331753"><ele>30.75</ele><time>2026-04-25T14:55:14.414Z</time></trkpt><trkpt lat="44.1836858" lon="12.1333606"><ele>30.5</ele><time>2026-04-25T14:55:15.431Z</time></trkpt><trkpt lat="44.1836193" lon="12.1335257"><ele>30.25</ele><time>2026-04-25T14:55:16.426Z</time></trkpt><trkpt lat="44.1835585" lon="12.1336814"><ele>30.0</ele><time>2026-04-25T14:55:17.415Z</time></trkpt><trkpt lat="44.1834975" lon="12.1338275"><ele>30.0</ele><time>2026-04-25T14:55:18.418Z</time></trkpt><trkpt lat="44.1834408" lon="12.1339691"><ele>30.0</ele><time>2026-04-25T14:55:19.414Z</time></trkpt><trkpt lat="44.1833819" lon="12.134112"><ele>30.0</ele><time>2026-04-25T14:55:20.412Z</time></trkpt><trkpt lat="44.1833217" lon="12.1342529"><ele>30.0</ele><time>2026-04-25T14:55:21.417Z</time></trkpt><trkpt lat="44.1832699" lon="12.134375"><ele>30.0</ele><time>2026-04-25T14:55:22.423Z</time></trkpt><trkpt lat="44.1832206" lon="12.1344837"><ele>30.0</ele><time>2026-04-25T14:55:23.418Z</time></trkpt><trkpt lat="44.1831857" lon="12.1345884"><ele>30.0</ele><time>2026-04-25T14:55:24.424Z</time></trkpt><trkpt lat="44.1831621" lon="12.1346933"><ele>30.0</ele><time>2026-04-25T14:55:25.428Z</time></trkpt><trkpt lat="44.1831569" lon="12.1348003"><ele>30.0</ele><time>2026-04-25T14:55:26.417Z</time></trkpt><trkpt lat="44.1831524" lon="12.1349197"><ele>30.0</ele><time>2026-04-25T14:55:27.422Z</time></trkpt><trkpt lat="44.1831357" lon="12.1350255"><ele>30.0</ele><time>2026-04-25T14:55:28.413Z</time></trkpt><trkpt lat="44.1830984" lon="12.1351166"><ele>30.0</ele><time>2026-04-25T14:55:29.419Z</time></trkpt><trkpt lat="44.1830436" lon="12.1351932"><ele>30.0</ele><time>2026-04-25T14:55:30.411Z</time></trkpt><trkpt lat="44.1829736" lon="12.1352631"><ele>30.0</ele><time>2026-04-25T14:55:31.426Z</time></trkpt><trkpt lat="44.1829093" lon="12.1353374"><ele>30.0</ele><time>2026-04-25T14:55:32.428Z</time></trkpt><trkpt lat="44.1828392" lon="12.135453"><ele>30.0</ele><time>2026-04-25T14:55:33.421Z</time></trkpt><trkpt lat="44.1827655" lon="12.1356214"><ele>29.666666666666664</ele><time>2026-04-25T14:55:34.421Z</time></trkpt><trkpt lat="44.1826709" lon="12.1358155"><ele>29.333333333333332</ele><time>2026-04-25T14:55:35.411Z</time></trkpt><trkpt lat="44.182581" lon="12.1360034"><ele>29.0</ele><time>2026-04-25T14:55:36.419Z</time></trkpt><trkpt lat="44.182512" lon="12.1361812"><ele>29.0</ele><time>2026-04-25T14:55:37.412Z</time></trkpt><trkpt lat="44.1824451" lon="12.1363408"><ele>29.0</ele><time>2026-04-25T14:55:38.413Z</time></trkpt><trkpt lat="44.1823875" lon="12.1364802"><ele>29.0</ele><time>2026-04-25T14:55:39.417Z</time></trkpt><trkpt lat="44.1823337" lon="12.1366319"><ele>29.0</ele><time>2026-04-25T14:55:40.415Z</time></trkpt><trkpt lat="44.1822708" lon="12.1367872"><ele>29.0</ele><time>2026-04-25T14:55:41.418Z</time></trkpt><trkpt lat="44.1822078" lon="12.1369379"><ele>29.0</ele><time>2026-04-25T14:55:42.419Z</time></trkpt><trkpt lat="44.1821415" lon="12.137096"><ele>29.0</ele><time>2026-04-25T14:55:43.424Z</time></trkpt><trkpt lat="44.1820747" lon="12.13727"><ele>29.0</ele><time>2026-04-25T14:55:44.427Z</time></trkpt><trkpt lat="44.1819998" lon="12.1374813"><ele>28.666666666666664</ele><time>2026-04-25T14:55:45.422Z</time></trkpt><trkpt lat="44.181921" lon="12.1377068"><ele>28.333333333333336</ele><time>2026-04-25T14:55:46.422Z</time></trkpt><trkpt lat="44.1818429" lon="12.1379013"><ele>28.0</ele><time>2026-04-25T14:55:47.421Z</time></trkpt><trkpt lat="44.1817671" lon="12.1380508"><ele>28.0</ele><time>2026-04-25T14:55:48.417Z</time></trkpt><trkpt lat="44.1817075" lon="12.1381937"><ele>27.999999999999996</ele><time>2026-04-25T14:55:49.425Z</time></trkpt><trkpt lat="44.181652" lon="12.1383321"><ele>27.999999999999996</ele><time>2026-04-25T14:55:50.422Z</time></trkpt><trkpt lat="44.1815977" lon="12.1384599"><ele>28.0</ele><time>2026-04-25T14:55:51.422Z</time></trkpt><trkpt lat="44.1815477" lon="12.1385837"><ele>28.0</ele><time>2026-04-25T14:55:52.415Z</time></trkpt><trkpt lat="44.18151" lon="12.1387006"><ele>27.833333333333336</ele><time>2026-04-25T14:55:53.451Z</time></trkpt><trkpt lat="44.1814912" lon="12.1388122"><ele>27.666666666666668</ele><time>2026-04-25T14:55:54.42Z</time></trkpt><trkpt lat="44.1814811" lon="12.1389313"><ele>27.5</ele><time>2026-04-25T14:55:55.421Z</time></trkpt><trkpt lat="44.1814655" lon="12.139051"><ele>27.333333333333336</ele><time>2026-04-25T14:55:56.421Z</time></trkpt><trkpt lat="44.1814319" lon="12.1391713"><ele>27.166666666666668</ele><time>2026-04-25T14:55:57.433Z</time></trkpt><trkpt lat="44.1813941" lon="12.1393007"><ele>27.0</ele><time>2026-04-25T14:55:58.418Z</time></trkpt><trkpt lat="44.1813595" lon="12.1394341"><ele>27.0</ele><time>2026-04-25T14:55:59.421Z</time></trkpt><trkpt lat="44.1813329" lon="12.1395664"><ele>27.000000000000004</ele><time>2026-04-25T14:56:00.412Z</time></trkpt><trkpt lat="44.1813018" lon="12.1397"><ele>27.000000000000004</ele><time>2026-04-25T14:56:01.425Z</time></trkpt><trkpt lat="44.1812461" lon="12.139842"><ele>27.0</ele><time>2026-04-25T14:56:02.413Z</time></trkpt><trkpt lat="44.1811733" lon="12.139962"><ele>27.0</ele><time>2026-04-25T14:56:03.439Z</time></trkpt><trkpt lat="44.1810893" lon="12.1400771"><ele>27.0</ele><time>2026-04-25T14:56:04.414Z</time></trkpt><trkpt lat="44.1810027" lon="12.1402025"><ele>27.0</ele><time>2026-04-25T14:56:05.424Z</time></trkpt><trkpt lat="44.1809183" lon="12.1403433"><ele>27.0</ele><time>2026-04-25T14:56:06.415Z</time></trkpt><trkpt lat="44.1808198" lon="12.1405205"><ele>27.0</ele><time>2026-04-25T14:56:07.427Z</time></trkpt><trkpt lat="44.1807018" lon="12.1407248"><ele>26.333333333333336</ele><time>2026-04-25T14:56:08.413Z</time></trkpt><trkpt lat="44.180572" lon="12.1409645"><ele>25.666666666666668</ele><time>2026-04-25T14:56:09.438Z</time></trkpt><trkpt lat="44.1804608" lon="12.1411919"><ele>25.0</ele><time>2026-04-25T14:56:10.414Z</time></trkpt><trkpt lat="44.1803554" lon="12.1414236"><ele>24.666666666666668</ele><time>2026-04-25T14:56:11.422Z</time></trkpt><trkpt lat="44.1802522" lon="12.1416631"><ele>24.333333333333336</ele><time>2026-04-25T14:56:12.418Z</time></trkpt><trkpt lat="44.1801472" lon="12.1419026"><ele>24.0</ele><time>2026-04-25T14:56:13.425Z</time></trkpt><trkpt lat="44.1800468" lon="12.1421406"><ele>24.0</ele><time>2026-04-25T14:56:14.418Z</time></trkpt><trkpt lat="44.1799471" lon="12.142379"><ele>24.0</ele><time>2026-04-25T14:56:15.425Z</time></trkpt><trkpt lat="44.1798474" lon="12.1426205"><ele>24.0</ele><time>2026-04-25T14:56:16.417Z</time></trkpt><trkpt lat="44.1797462" lon="12.1428666"><ele>24.666666666666664</ele><time>2026-04-25T14:56:17.422Z</time></trkpt><trkpt lat="44.1796469" lon="12.1431051"><ele>25.333333333333332</ele><time>2026-04-25T14:56:18.418Z</time></trkpt><trkpt lat="44.1795562" lon="12.1433229"><ele>26.0</ele><time>2026-04-25T14:56:19.421Z</time></trkpt><trkpt lat="44.1794701" lon="12.1435317"><ele>26.0</ele><time>2026-04-25T14:56:20.413Z</time></trkpt><trkpt lat="44.1793854" lon="12.1437347"><ele>26.0</ele><time>2026-04-25T14:56:21.42Z</time></trkpt><trkpt lat="44.1792995" lon="12.1439338"><ele>26.0</ele><time>2026-04-25T14:56:22.426Z</time></trkpt><trkpt lat="44.1792199" lon="12.1441339"><ele>26.0</ele><time>2026-04-25T14:56:23.421Z</time></trkpt><trkpt lat="44.1791418" lon="12.1443184"><ele>26.0</ele><time>2026-04-25T14:56:24.419Z</time></trkpt><trkpt lat="44.1790646" lon="12.1445059"><ele>26.0</ele><time>2026-04-25T14:56:25.437Z</time></trkpt><trkpt lat="44.1789881" lon="12.1446864"><ele>25.75</ele><time>2026-04-25T14:56:26.42Z</time></trkpt><trkpt lat="44.178915" lon="12.144863"><ele>25.5</ele><time>2026-04-25T14:56:27.422Z</time></trkpt><trkpt lat="44.1788442" lon="12.1450371"><ele>25.25</ele><time>2026-04-25T14:56:28.417Z</time></trkpt><trkpt lat="44.1787759" lon="12.1452045"><ele>25.0</ele><time>2026-04-25T14:56:29.421Z</time></trkpt><trkpt lat="44.1787066" lon="12.1453625"><ele>24.75</ele><time>2026-04-25T14:56:30.412Z</time></trkpt><trkpt lat="44.1786395" lon="12.1455255"><ele>24.5</ele><time>2026-04-25T14:56:31.429Z</time></trkpt><trkpt lat="44.1785725" lon="12.1456873"><ele>24.25</ele><time>2026-04-25T14:56:32.421Z</time></trkpt><trkpt lat="44.1785076" lon="12.1458514"><ele>24.0</ele><time>2026-04-25T14:56:33.411Z</time></trkpt><trkpt lat="44.1784419" lon="12.1460187"><ele>24.5</ele><time>2026-04-25T14:56:34.423Z</time></trkpt><trkpt lat="44.1783711" lon="12.1461803"><ele>25.0</ele><time>2026-04-25T14:56:35.421Z</time></trkpt><trkpt lat="44.178301" lon="12.1463455"><ele>25.5</ele><time>2026-04-25T14:56:36.416Z</time></trkpt><trkpt lat="44.1782312" lon="12.1465139"><ele>26.0</ele><time>2026-04-25T14:56:37.429Z</time></trkpt><trkpt lat="44.1781621" lon="12.1466824"><ele>26.0</ele><time>2026-04-25T14:56:38.418Z</time></trkpt><trkpt lat="44.1780938" lon="12.1468484"><ele>26.0</ele><time>2026-04-25T14:56:39.426Z</time></trkpt><trkpt lat="44.1780245" lon="12.1470185"><ele>26.0</ele><time>2026-04-25T14:56:40.417Z</time></trkpt><trkpt lat="44.1779544" lon="12.1471892"><ele>26.0</ele><time>2026-04-25T14:56:41.423Z</time></trkpt><trkpt lat="44.1778842" lon="12.1473596"><ele>26.5</ele><time>2026-04-25T14:56:42.418Z</time></trkpt><trkpt lat="44.1778141" lon="12.1475259"><ele>27.0</ele><time>2026-04-25T14:56:43.408Z</time></trkpt><trkpt lat="44.1777435" lon="12.1476953"><ele>27.5</ele><time>2026-04-25T14:56:44.412Z</time></trkpt><trkpt lat="44.1776704" lon="12.1478634"><ele>28.0</ele><time>2026-04-25T14:56:45.435Z</time></trkpt><trkpt lat="44.1775998" lon="12.1480307"><ele>28.0</ele><time>2026-04-25T14:56:46.415Z</time></trkpt><trkpt lat="44.1775304" lon="12.1482016"><ele>28.0</ele><time>2026-04-25T14:56:47.441Z</time></trkpt><trkpt lat="44.1774594" lon="12.1483725"><ele>28.0</ele><time>2026-04-25T14:56:48.415Z</time></trkpt><trkpt lat="44.1773892" lon="12.1485429"><ele>28.0</ele><time>2026-04-25T14:56:49.421Z</time></trkpt><trkpt lat="44.1773232" lon="12.1487062"><ele>27.5</ele><time>2026-04-25T14:56:50.422Z</time></trkpt><trkpt lat="44.1772551" lon="12.1488783"><ele>27.0</ele><time>2026-04-25T14:56:51.426Z</time></trkpt><trkpt lat="44.1771855" lon="12.1490463"><ele>26.5</ele><time>2026-04-25T14:56:52.422Z</time></trkpt><trkpt lat="44.1771125" lon="12.1492171"><ele>26.0</ele><time>2026-04-25T14:56:53.425Z</time></trkpt><trkpt lat="44.1770368" lon="12.1493852"><ele>26.0</ele><time>2026-04-25T14:56:54.422Z</time></trkpt><trkpt lat="44.1769653" lon="12.1495501"><ele>26.0</ele><time>2026-04-25T14:56:55.418Z</time></trkpt><trkpt lat="44.1768922" lon="12.1497126"><ele>26.0</ele><time>2026-04-25T14:56:56.421Z</time></trkpt><trkpt lat="44.1768158" lon="12.1498843"><ele>26.0</ele><time>2026-04-25T14:56:57.415Z</time></trkpt><trkpt lat="44.1767426" lon="12.1500552"><ele>26.0</ele><time>2026-04-25T14:56:58.42Z</time></trkpt><trkpt lat="44.1766703" lon="12.1502247"><ele>26.0</ele><time>2026-04-25T14:56:59.42Z</time></trkpt><trkpt lat="44.1765994" lon="12.1503969"><ele>26.0</ele><time>2026-04-25T14:57:00.417Z</time></trkpt><trkpt lat="44.1765256" lon="12.150565"><ele>26.0</ele><time>2026-04-25T14:57:01.428Z</time></trkpt><trkpt lat="44.1764577" lon="12.1507338"><ele>25.75</ele><time>2026-04-25T14:57:02.418Z</time></trkpt><trkpt lat="44.1763881" lon="12.1509067"><ele>25.5</ele><time>2026-04-25T14:57:03.418Z</time></trkpt><trkpt lat="44.1763165" lon="12.1510788"><ele>25.25</ele><time>2026-04-25T14:57:04.418Z</time></trkpt><trkpt lat="44.1762485" lon="12.1512483"><ele>25.0</ele><time>2026-04-25T14:57:05.426Z</time></trkpt><trkpt lat="44.1761788" lon="12.151421"><ele>25.0</ele><time>2026-04-25T14:57:06.417Z</time></trkpt><trkpt lat="44.1761043" lon="12.15159"><ele>25.0</ele><time>2026-04-25T14:57:07.411Z</time></trkpt><trkpt lat="44.1760315" lon="12.1517645"><ele>25.0</ele><time>2026-04-25T14:57:08.421Z</time></trkpt><trkpt lat="44.175957" lon="12.1519349"><ele>25.0</ele><time>2026-04-25T14:57:09.417Z</time></trkpt><trkpt lat="44.1758875" lon="12.1521055"><ele>25.0</ele><time>2026-04-25T14:57:10.415Z</time></trkpt><trkpt lat="44.1758206" lon="12.1522774"><ele>25.0</ele><time>2026-04-25T14:57:11.428Z</time></trkpt><trkpt lat="44.1757487" lon="12.1524462"><ele>25.0</ele><time>2026-04-25T14:57:12.412Z</time></trkpt><trkpt lat="44.1756769" lon="12.152615"><ele>25.0</ele><time>2026-04-25T14:57:13.429Z</time></trkpt><trkpt lat="44.1756053" lon="12.1527865"><ele>25.0</ele><time>2026-04-25T14:57:14.413Z</time></trkpt><trkpt lat="44.1755371" lon="12.1529468"><ele>25.0</ele><time>2026-04-25T14:57:15.416Z</time></trkpt><trkpt lat="44.1754721" lon="12.1531077"><ele>25.0</ele><time>2026-04-25T14:57:16.413Z</time></trkpt><trkpt lat="44.1754108" lon="12.153266"><ele>25.0</ele><time>2026-04-25T14:57:17.421Z</time></trkpt><trkpt lat="44.1753486" lon="12.1534127"><ele>25.0</ele><time>2026-04-25T14:57:18.416Z</time></trkpt><trkpt lat="44.1752855" lon="12.1535713"><ele>25.0</ele><time>2026-04-25T14:57:19.414Z</time></trkpt><trkpt lat="44.1752204" lon="12.1537321"><ele>25.0</ele><time>2026-04-25T14:57:20.408Z</time></trkpt><trkpt lat="44.1751548" lon="12.1538982"><ele>25.0</ele><time>2026-04-25T14:57:21.429Z</time></trkpt><trkpt lat="44.1750862" lon="12.1540505"><ele>25.0</ele><time>2026-04-25T14:57:22.412Z</time></trkpt><trkpt lat="44.1750189" lon="12.1542063"><ele>25.0</ele><time>2026-04-25T14:57:23.428Z</time></trkpt><trkpt lat="44.1749564" lon="12.1543558"><ele>25.0</ele><time>2026-04-25T14:57:24.42Z</time></trkpt><trkpt lat="44.174894" lon="12.1545097"><ele>25.0</ele><time>2026-04-25T14:57:25.422Z</time></trkpt><trkpt lat="44.1748286" lon="12.154671"><ele>25.25</ele><time>2026-04-25T14:57:26.421Z</time></trkpt><trkpt lat="44.1747575" lon="12.1548445"><ele>25.5</ele><time>2026-04-25T14:57:27.43Z</time></trkpt><trkpt lat="44.1746846" lon="12.1550176"><ele>25.75</ele><time>2026-04-25T14:57:28.416Z</time></trkpt><trkpt lat="44.1746141" lon="12.1551837"><ele>26.0</ele><time>2026-04-25T14:57:29.431Z</time></trkpt><trkpt lat="44.174544" lon="12.1553458"><ele>26.0</ele><time>2026-04-25T14:57:30.418Z</time></trkpt><trkpt lat="44.1744772" lon="12.155509"><ele>26.0</ele><time>2026-04-25T14:57:31.428Z</time></trkpt><trkpt lat="44.1744071" lon="12.1556696"><ele>26.0</ele><time>2026-04-25T14:57:32.42Z</time></trkpt><trkpt lat="44.174339" lon="12.1558344"><ele>26.0</ele><time>2026-04-25T14:57:33.432Z</time></trkpt><trkpt lat="44.1742669" lon="12.1560004"><ele>26.0</ele><time>2026-04-25T14:57:34.414Z</time></trkpt><trkpt lat="44.1741962" lon="12.1561725"><ele>26.0</ele><time>2026-04-25T14:57:35.431Z</time></trkpt><trkpt lat="44.1741246" lon="12.1563364"><ele>26.0</ele><time>2026-04-25T14:57:36.412Z</time></trkpt><trkpt lat="44.1740576" lon="12.1565032"><ele>26.0</ele><time>2026-04-25T14:57:37.431Z</time></trkpt><trkpt lat="44.173988" lon="12.156669"><ele>25.5</ele><time>2026-04-25T14:57:38.412Z</time></trkpt><trkpt lat="44.1739232" lon="12.1568318"><ele>25.0</ele><time>2026-04-25T14:57:39.426Z</time></trkpt><trkpt lat="44.17385" lon="12.1569877"><ele>24.5</ele><time>2026-04-25T14:57:40.413Z</time></trkpt><trkpt lat="44.1737845" lon="12.1571471"><ele>24.0</ele><time>2026-04-25T14:57:41.422Z</time></trkpt><trkpt lat="44.1737189" lon="12.1573075"><ele>24.0</ele><time>2026-04-25T14:57:42.418Z</time></trkpt><trkpt lat="44.1736491" lon="12.1574735"><ele>24.0</ele><time>2026-04-25T14:57:43.421Z</time></trkpt><trkpt lat="44.1735807" lon="12.1576506"><ele>24.0</ele><time>2026-04-25T14:57:44.413Z</time></trkpt><trkpt lat="44.1735089" lon="12.157828"><ele>24.0</ele><time>2026-04-25T14:57:45.43Z</time></trkpt><trkpt lat="44.1734392" lon="12.1579988"><ele>24.0</ele><time>2026-04-25T14:57:46.413Z</time></trkpt><trkpt lat="44.1733687" lon="12.1581709"><ele>24.0</ele><time>2026-04-25T14:57:47.42Z</time></trkpt><trkpt lat="44.1732989" lon="12.1583507"><ele>24.0</ele><time>2026-04-25T14:57:48.427Z</time></trkpt><trkpt lat="44.1732256" lon="12.1585253"><ele>24.0</ele><time>2026-04-25T14:57:49.43Z</time></trkpt><trkpt lat="44.1731549" lon="12.158684"><ele>24.75</ele><time>2026-04-25T14:57:50.415Z</time></trkpt><trkpt lat="44.1730859" lon="12.1588409"><ele>25.5</ele><time>2026-04-25T14:57:51.427Z</time></trkpt><trkpt lat="44.1730207" lon="12.1590024"><ele>26.25</ele><time>2026-04-25T14:57:52.415Z</time></trkpt><trkpt lat="44.1729564" lon="12.1591674"><ele>27.0</ele><time>2026-04-25T14:57:53.431Z</time></trkpt><trkpt lat="44.1728932" lon="12.1593272"><ele>27.0</ele><time>2026-04-25T14:57:54.409Z</time></trkpt><trkpt lat="44.1728344" lon="12.1594749"><ele>27.000000000000004</ele><time>2026-04-25T14:57:55.425Z</time></trkpt><trkpt lat="44.1727817" lon="12.1596034"><ele>27.000000000000004</ele><time>2026-04-25T14:57:56.419Z</time></trkpt><trkpt lat="44.1727334" lon="12.1597299"><ele>27.0</ele><time>2026-04-25T14:57:57.419Z</time></trkpt><trkpt lat="44.1726822" lon="12.1598723"><ele>27.0</ele><time>2026-04-25T14:57:58.42Z</time></trkpt><trkpt lat="44.1726255" lon="12.1600139"><ele>27.0</ele><time>2026-04-25T14:57:59.423Z</time></trkpt><trkpt lat="44.1725692" lon="12.160164"><ele>27.000000000000004</ele><time>2026-04-25T14:58:00.415Z</time></trkpt><trkpt lat="44.1725202" lon="12.1602946"><ele>27.000000000000004</ele><time>2026-04-25T14:58:01.409Z</time></trkpt><trkpt lat="44.1724699" lon="12.1604132"><ele>27.0</ele><time>2026-04-25T14:58:02.419Z</time></trkpt><trkpt lat="44.1724088" lon="12.160537"><ele>27.0</ele><time>2026-04-25T14:58:03.425Z</time></trkpt><trkpt lat="44.1723405" lon="12.160646"><ele>27.200000000000003</ele><time>2026-04-25T14:58:04.417Z</time></trkpt><trkpt lat="44.1722661" lon="12.1607327"><ele>27.400000000000002</ele><time>2026-04-25T14:58:05.415Z</time></trkpt><trkpt lat="44.1721969" lon="12.1608174"><ele>27.599999999999998</ele><time>2026-04-25T14:58:06.416Z</time></trkpt><trkpt lat="44.17214" lon="12.1609253"><ele>27.799999999999997</ele><time>2026-04-25T14:58:07.412Z</time></trkpt><trkpt lat="44.1720951" lon="12.1610584"><ele>28.0</ele><time>2026-04-25T14:58:08.423Z</time></trkpt><trkpt lat="44.1720683" lon="12.1612084"><ele>28.0</ele><time>2026-04-25T14:58:09.425Z</time></trkpt><trkpt lat="44.1720416" lon="12.1613668"><ele>28.0</ele><time>2026-04-25T14:58:10.411Z</time></trkpt><trkpt lat="44.1719996" lon="12.1615241"><ele>28.0</ele><time>2026-04-25T14:58:11.424Z</time></trkpt><trkpt lat="44.1719323" lon="12.1616912"><ele>28.0</ele><time>2026-04-25T14:58:12.408Z</time></trkpt><trkpt lat="44.1718562" lon="12.1618663"><ele>27.666666666666668</ele><time>2026-04-25T14:58:13.415Z</time></trkpt><trkpt lat="44.1717766" lon="12.1620799"><ele>27.333333333333336</ele><time>2026-04-25T14:58:14.413Z</time></trkpt><trkpt lat="44.171674" lon="12.1623187"><ele>27.0</ele><time>2026-04-25T14:58:15.425Z</time></trkpt><trkpt lat="44.1715546" lon="12.16258"><ele>27.0</ele><time>2026-04-25T14:58:16.414Z</time></trkpt><trkpt lat="44.1714298" lon="12.1628587"><ele>27.0</ele><time>2026-04-25T14:58:17.415Z</time></trkpt><trkpt lat="44.1713144" lon="12.1631283"><ele>27.333333333333336</ele><time>2026-04-25T14:58:18.411Z</time></trkpt><trkpt lat="44.1712102" lon="12.1633674"><ele>27.666666666666668</ele><time>2026-04-25T14:58:19.416Z</time></trkpt><trkpt lat="44.1711104" lon="12.163594"><ele>28.0</ele><time>2026-04-25T14:58:20.435Z</time></trkpt><trkpt lat="44.1710176" lon="12.1638154"><ele>28.0</ele><time>2026-04-25T14:58:21.415Z</time></trkpt><trkpt lat="44.1709271" lon="12.1640377"><ele>28.0</ele><time>2026-04-25T14:58:22.416Z</time></trkpt><trkpt lat="44.1708406" lon="12.1642812"><ele>28.0</ele><time>2026-04-25T14:58:23.421Z</time></trkpt><trkpt lat="44.1707411" lon="12.1645524"><ele>27.5</ele><time>2026-04-25T14:58:24.412Z</time></trkpt><trkpt lat="44.1706231" lon="12.1648297"><ele>27.0</ele><time>2026-04-25T14:58:25.413Z</time></trkpt><trkpt lat="44.1705047" lon="12.1651139"><ele>27.0</ele><time>2026-04-25T14:58:26.419Z</time></trkpt><trkpt lat="44.1703771" lon="12.1654282"><ele>27.0</ele><time>2026-04-25T14:58:27.431Z</time></trkpt><trkpt lat="44.1702454" lon="12.1657527"><ele>27.5</ele><time>2026-04-25T14:58:28.417Z</time></trkpt><trkpt lat="44.1701052" lon="12.1660833"><ele>28.0</ele><time>2026-04-25T14:58:29.42Z</time></trkpt><trkpt lat="44.1699722" lon="12.166399"><ele>27.5</ele><time>2026-04-25T14:58:30.416Z</time></trkpt><trkpt lat="44.1698426" lon="12.1666999"><ele>27.0</ele><time>2026-04-25T14:58:31.419Z</time></trkpt><trkpt lat="44.1697185" lon="12.1669909"><ele>27.0</ele><time>2026-04-25T14:58:32.412Z</time></trkpt><trkpt lat="44.1695951" lon="12.1672894"><ele>27.0</ele><time>2026-04-25T14:58:33.425Z</time></trkpt><trkpt lat="44.1694724" lon="12.1675851"><ele>27.0</ele><time>2026-04-25T14:58:34.414Z</time></trkpt><trkpt lat="44.1693452" lon="12.1678864"><ele>27.0</ele><time>2026-04-25T14:58:35.416Z</time></trkpt><trkpt lat="44.1692156" lon="12.1681895"><ele>27.0</ele><time>2026-04-25T14:58:36.418Z</time></trkpt><trkpt lat="44.1690875" lon="12.1685016"><ele>27.0</ele><time>2026-04-25T14:58:37.427Z</time></trkpt><trkpt lat="44.1689584" lon="12.1688149"><ele>27.0</ele><time>2026-04-25T14:58:38.413Z</time></trkpt><trkpt lat="44.1688283" lon="12.1691359"><ele>27.0</ele><time>2026-04-25T14:58:39.429Z</time></trkpt><trkpt lat="44.1686988" lon="12.1694529"><ele>27.0</ele><time>2026-04-25T14:58:40.419Z</time></trkpt><trkpt lat="44.1685647" lon="12.1697722"><ele>27.0</ele><time>2026-04-25T14:58:41.42Z</time></trkpt><trkpt lat="44.1684285" lon="12.1700939"><ele>27.0</ele><time>2026-04-25T14:58:42.411Z</time></trkpt><trkpt lat="44.1682941" lon="12.1704187"><ele>27.0</ele><time>2026-04-25T14:58:43.416Z</time></trkpt><trkpt lat="44.1681586" lon="12.1707464"><ele>27.0</ele><time>2026-04-25T14:58:44.407Z</time></trkpt><trkpt lat="44.1680233" lon="12.1710724"><ele>27.0</ele><time>2026-04-25T14:58:45.422Z</time></trkpt><trkpt lat="44.1678859" lon="12.1713957"><ele>27.5</ele><time>2026-04-25T14:58:46.414Z</time></trkpt><trkpt lat="44.1677512" lon="12.1717194"><ele>28.0</ele><time>2026-04-25T14:58:47.425Z</time></trkpt><trkpt lat="44.1676236" lon="12.1720259"><ele>28.0</ele><time>2026-04-25T14:58:48.412Z</time></trkpt><trkpt lat="44.1675042" lon="12.172318"><ele>28.0</ele><time>2026-04-25T14:58:49.408Z</time></trkpt><trkpt lat="44.1673937" lon="12.1725894"><ele>30.333333333333336</ele><time>2026-04-25T14:58:50.418Z</time></trkpt><trkpt lat="44.1672852" lon="12.1728544"><ele>32.666666666666664</ele><time>2026-04-25T14:58:51.412Z</time></trkpt><trkpt lat="44.1671788" lon="12.173122"><ele>35.0</ele><time>2026-04-25T14:58:52.415Z</time></trkpt><trkpt lat="44.1670799" lon="12.1733702"><ele>36.666666666666664</ele><time>2026-04-25T14:58:53.415Z</time></trkpt><trkpt lat="44.1669835" lon="12.1735998"><ele>38.333333333333336</ele><time>2026-04-25T14:58:54.409Z</time></trkpt><trkpt lat="44.1668908" lon="12.173828"><ele>40.0</ele><time>2026-04-25T14:58:55.423Z</time></trkpt><trkpt lat="44.1667983" lon="12.1740479"><ele>40.333333333333336</ele><time>2026-04-25T14:58:56.411Z</time></trkpt><trkpt lat="44.166696" lon="12.1742925"><ele>40.666666666666664</ele><time>2026-04-25T14:58:57.433Z</time></trkpt><trkpt lat="44.1665959" lon="12.1745419"><ele>41.0</ele><time>2026-04-25T14:58:58.413Z</time></trkpt><trkpt lat="44.1664934" lon="12.1747871"><ele>38.33333333333333</ele><time>2026-04-25T14:58:59.43Z</time></trkpt><trkpt lat="44.1663945" lon="12.175025"><ele>35.666666666666664</ele><time>2026-04-25T14:59:00.407Z</time></trkpt><trkpt lat="44.1662994" lon="12.1752432"><ele>33.0</ele><time>2026-04-25T14:59:01.434Z</time></trkpt><trkpt lat="44.1662155" lon="12.1754505"><ele>33.0</ele><time>2026-04-25T14:59:02.406Z</time></trkpt><trkpt lat="44.1661312" lon="12.1756513"><ele>33.0</ele><time>2026-04-25T14:59:03.413Z</time></trkpt><trkpt lat="44.166052" lon="12.1758439"><ele>33.0</ele><time>2026-04-25T14:59:04.409Z</time></trkpt><trkpt lat="44.1659746" lon="12.1760274"><ele>32.333333333333336</ele><time>2026-04-25T14:59:05.42Z</time></trkpt><trkpt lat="44.1659008" lon="12.1762079"><ele>31.666666666666668</ele><time>2026-04-25T14:59:06.412Z</time></trkpt><trkpt lat="44.1658239" lon="12.1763874"><ele>31.0</ele><time>2026-04-25T14:59:07.44Z</time></trkpt><trkpt lat="44.1657434" lon="12.1765803"><ele>31.0</ele><time>2026-04-25T14:59:08.413Z</time></trkpt><trkpt lat="44.1656602" lon="12.1767766"><ele>31.0</ele><time>2026-04-25T14:59:09.418Z</time></trkpt><trkpt lat="44.1655783" lon="12.176972"><ele>31.0</ele><time>2026-04-25T14:59:10.416Z</time></trkpt><trkpt lat="44.1655011" lon="12.1771641"><ele>31.333333333333336</ele><time>2026-04-25T14:59:11.42Z</time></trkpt><trkpt lat="44.1654195" lon="12.1773607"><ele>31.666666666666664</ele><time>2026-04-25T14:59:12.413Z</time></trkpt><trkpt lat="44.1653369" lon="12.1775648"><ele>32.0</ele><time>2026-04-25T14:59:13.417Z</time></trkpt><trkpt lat="44.165258" lon="12.1777674"><ele>32.0</ele><time>2026-04-25T14:59:14.415Z</time></trkpt><trkpt lat="44.1651702" lon="12.1779842"><ele>32.0</ele><time>2026-04-25T14:59:15.439Z</time></trkpt><trkpt lat="44.1650729" lon="12.1782301"><ele>32.0</ele><time>2026-04-25T14:59:16.411Z</time></trkpt><trkpt lat="44.1649719" lon="12.1784873"><ele>31.666666666666664</ele><time>2026-04-25T14:59:17.414Z</time></trkpt><trkpt lat="44.1648653" lon="12.1787376"><ele>31.333333333333336</ele><time>2026-04-25T14:59:18.415Z</time></trkpt><trkpt lat="44.1647697" lon="12.1789569"><ele>31.0</ele><time>2026-04-25T14:59:19.436Z</time></trkpt><trkpt lat="44.1646807" lon="12.1791615"><ele>31.0</ele><time>2026-04-25T14:59:20.417Z</time></trkpt><trkpt lat="44.1645981" lon="12.1793647"><ele>31.0</ele><time>2026-04-25T14:59:21.425Z</time></trkpt><trkpt lat="44.1645162" lon="12.1795596"><ele>31.0</ele><time>2026-04-25T14:59:22.417Z</time></trkpt><trkpt lat="44.1644368" lon="12.1797576"><ele>31.0</ele><time>2026-04-25T14:59:23.417Z</time></trkpt><trkpt lat="44.1643626" lon="12.1799484"><ele>31.0</ele><time>2026-04-25T14:59:24.416Z</time></trkpt><trkpt lat="44.1642827" lon="12.1801392"><ele>31.0</ele><time>2026-04-25T14:59:25.418Z</time></trkpt><trkpt lat="44.164206" lon="12.1803271"><ele>31.0</ele><time>2026-04-25T14:59:26.416Z</time></trkpt><trkpt lat="44.1641356" lon="12.1805115"><ele>31.0</ele><time>2026-04-25T14:59:27.411Z</time></trkpt><trkpt lat="44.1640743" lon="12.1806913"><ele>31.0</ele><time>2026-04-25T14:59:28.408Z</time></trkpt><trkpt lat="44.164022" lon="12.1808697"><ele>31.0</ele><time>2026-04-25T14:59:29.409Z</time></trkpt><trkpt lat="44.1639741" lon="12.1810272"><ele>30.75</ele><time>2026-04-25T14:59:30.415Z</time></trkpt><trkpt lat="44.1639363" lon="12.181185"><ele>30.5</ele><time>2026-04-25T14:59:31.421Z</time></trkpt><trkpt lat="44.1639056" lon="12.1813351"><ele>30.25</ele><time>2026-04-25T14:59:32.411Z</time></trkpt><trkpt lat="44.1638756" lon="12.18149"><ele>30.0</ele><time>2026-04-25T14:59:33.415Z</time></trkpt><trkpt lat="44.1638503" lon="12.1816588"><ele>30.5</ele><time>2026-04-25T14:59:34.41Z</time></trkpt><trkpt lat="44.1638237" lon="12.181834"><ele>31.0</ele><time>2026-04-25T14:59:35.413Z</time></trkpt><trkpt lat="44.1637986" lon="12.182014"><ele>31.5</ele><time>2026-04-25T14:59:36.409Z</time></trkpt><trkpt lat="44.1637736" lon="12.1822085"><ele>32.0</ele><time>2026-04-25T14:59:37.418Z</time></trkpt><trkpt lat="44.1637479" lon="12.182415"><ele>33.0</ele><time>2026-04-25T14:59:38.411Z</time></trkpt><trkpt lat="44.1637224" lon="12.1826219"><ele>34.0</ele><time>2026-04-25T14:59:39.419Z</time></trkpt><trkpt lat="44.1637014" lon="12.182839"><ele>35.0</ele><time>2026-04-25T14:59:40.413Z</time></trkpt><trkpt lat="44.1636803" lon="12.1830875"><ele>37.5</ele><time>2026-04-25T14:59:41.442Z</time></trkpt><trkpt lat="44.1636506" lon="12.1833884"><ele>40.0</ele><time>2026-04-25T14:59:42.415Z</time></trkpt><trkpt lat="44.1636064" lon="12.1837207"><ele>40.0</ele><time>2026-04-25T14:59:43.415Z</time></trkpt><trkpt lat="44.1635564" lon="12.1840764"><ele>40.0</ele><time>2026-04-25T14:59:44.431Z</time></trkpt><trkpt lat="44.1634997" lon="12.1844354"><ele>40.0</ele><time>2026-04-25T14:59:45.433Z</time></trkpt><trkpt lat="44.1634384" lon="12.184779"><ele>40.0</ele><time>2026-04-25T14:59:46.41Z</time></trkpt><trkpt lat="44.1633822" lon="12.1851127"><ele>38.0</ele><time>2026-04-25T14:59:47.407Z</time></trkpt><trkpt lat="44.1633261" lon="12.1854403"><ele>36.0</ele><time>2026-04-25T14:59:48.41Z</time></trkpt><trkpt lat="44.163274" lon="12.185758"><ele>35.5</ele><time>2026-04-25T14:59:49.423Z</time></trkpt><trkpt lat="44.1632125" lon="12.1860675"><ele>35.0</ele><time>2026-04-25T14:59:50.409Z</time></trkpt><trkpt lat="44.1631461" lon="12.1863633"><ele>39.0</ele><time>2026-04-25T14:59:51.415Z</time></trkpt><trkpt lat="44.1630671" lon="12.1866506"><ele>43.0</ele><time>2026-04-25T14:59:52.412Z</time></trkpt><trkpt lat="44.1629705" lon="12.1869328"><ele>47.0</ele><time>2026-04-25T14:59:53.416Z</time></trkpt><trkpt lat="44.1628537" lon="12.1872195"><ele>45.0</ele><time>2026-04-25T14:59:54.408Z</time></trkpt><trkpt lat="44.1627322" lon="12.1874925"><ele>43.0</ele><time>2026-04-25T14:59:55.407Z</time></trkpt><trkpt lat="44.1626192" lon="12.1877247"><ele>41.0</ele><time>2026-04-25T14:59:56.404Z</time></trkpt><trkpt lat="44.1625093" lon="12.187949"><ele>41.0</ele><time>2026-04-25T14:59:57.42Z</time></trkpt><trkpt lat="44.1623957" lon="12.1881513"><ele>41.0</ele><time>2026-04-25T14:59:58.419Z</time></trkpt><trkpt lat="44.1622719" lon="12.188326"><ele>41.0</ele><time>2026-04-25T14:59:59.418Z</time></trkpt><trkpt lat="44.1621324" lon="12.1884857"><ele>41.33333333333333</ele><time>2026-04-25T15:00:00.407Z</time></trkpt><trkpt lat="44.1619733" lon="12.1886187"><ele>41.666666666666664</ele><time>2026-04-25T15:00:01.415Z</time></trkpt><trkpt lat="44.1617987" lon="12.1887404"><ele>42.0</ele><time>2026-04-25T15:00:02.422Z</time></trkpt><trkpt lat="44.1616111" lon="12.1888358"><ele>41.666666666666664</ele><time>2026-04-25T15:00:03.426Z</time></trkpt><trkpt lat="44.1614133" lon="12.1889205"><ele>41.33333333333333</ele><time>2026-04-25T15:00:04.405Z</time></trkpt><trkpt lat="44.1612017" lon="12.1890065"><ele>41.0</ele><time>2026-04-25T15:00:05.422Z</time></trkpt><trkpt lat="44.1609926" lon="12.1890941"><ele>39.0</ele><time>2026-04-25T15:00:06.41Z</time></trkpt><trkpt lat="44.1607931" lon="12.1891669"><ele>37.0</ele><time>2026-04-25T15:00:07.427Z</time></trkpt><trkpt lat="44.1605983" lon="12.1892449"><ele>35.0</ele><time>2026-04-25T15:00:08.413Z</time></trkpt><trkpt lat="44.1604085" lon="12.1893222"><ele>34.666666666666664</ele><time>2026-04-25T15:00:09.418Z</time></trkpt><trkpt lat="44.1602298" lon="12.189409"><ele>34.333333333333336</ele><time>2026-04-25T15:00:10.403Z</time></trkpt><trkpt lat="44.1600515" lon="12.1895202"><ele>34.0</ele><time>2026-04-25T15:00:11.418Z</time></trkpt><trkpt lat="44.1598806" lon="12.1896599"><ele>34.0</ele><time>2026-04-25T15:00:12.409Z</time></trkpt><trkpt lat="44.1597208" lon="12.1898399"><ele>34.0</ele><time>2026-04-25T15:00:13.414Z</time></trkpt><trkpt lat="44.1595775" lon="12.1900301"><ele>34.0</ele><time>2026-04-25T15:00:14.413Z</time></trkpt><trkpt lat="44.1594541" lon="12.1902155"><ele>34.0</ele><time>2026-04-25T15:00:15.415Z</time></trkpt><trkpt lat="44.1593386" lon="12.1903954"><ele>34.0</ele><time>2026-04-25T15:00:16.415Z</time></trkpt><trkpt lat="44.1592326" lon="12.1905469"><ele>34.0</ele><time>2026-04-25T15:00:17.414Z</time></trkpt><trkpt lat="44.1591284" lon="12.1906966"><ele>34.0</ele><time>2026-04-25T15:00:18.413Z</time></trkpt><trkpt lat="44.1590199" lon="12.1908503"><ele>34.0</ele><time>2026-04-25T15:00:19.423Z</time></trkpt><trkpt lat="44.1589188" lon="12.1910103"><ele>34.0</ele><time>2026-04-25T15:00:20.411Z</time></trkpt><trkpt lat="44.1588139" lon="12.1911535"><ele>34.0</ele><time>2026-04-25T15:00:21.431Z</time></trkpt><trkpt lat="44.1586958" lon="12.1912584"><ele>34.0</ele><time>2026-04-25T15:00:22.41Z</time></trkpt><trkpt lat="44.1585619" lon="12.1913306"><ele>34.0</ele><time>2026-04-25T15:00:23.42Z</time></trkpt><trkpt lat="44.1584072" lon="12.1913749"><ele>34.0</ele><time>2026-04-25T15:00:24.408Z</time></trkpt><trkpt lat="44.1582324" lon="12.1914009"><ele>35.0</ele><time>2026-04-25T15:00:25.421Z</time></trkpt><trkpt lat="44.1580451" lon="12.1913838"><ele>36.0</ele><time>2026-04-25T15:00:26.413Z</time></trkpt><trkpt lat="44.1578266" lon="12.1913668"><ele>37.0</ele><time>2026-04-25T15:00:27.418Z</time></trkpt><trkpt lat="44.1575904" lon="12.1913423"><ele>36.5</ele><time>2026-04-25T15:00:28.41Z</time></trkpt><trkpt lat="44.1573518" lon="12.1913112"><ele>36.0</ele><time>2026-04-25T15:00:29.422Z</time></trkpt><trkpt lat="44.1571266" lon="12.1912985"><ele>36.0</ele><time>2026-04-25T15:00:30.42Z</time></trkpt><trkpt lat="44.1569217" lon="12.1912839"><ele>36.0</ele><time>2026-04-25T15:00:31.443Z</time></trkpt><trkpt lat="44.1567136" lon="12.1912626"><ele>36.0</ele><time>2026-04-25T15:00:32.413Z</time></trkpt><trkpt lat="44.1564904" lon="12.1912477"><ele>36.5</ele><time>2026-04-25T15:00:33.422Z</time></trkpt><trkpt lat="44.156261" lon="12.1912252"><ele>37.0</ele><time>2026-04-25T15:00:34.409Z</time></trkpt><trkpt lat="44.1560299" lon="12.1911949"><ele>37.0</ele><time>2026-04-25T15:00:35.409Z</time></trkpt><trkpt lat="44.1558043" lon="12.1911808"><ele>37.0</ele><time>2026-04-25T15:00:36.411Z</time></trkpt><trkpt lat="44.155586" lon="12.1911714"><ele>37.0</ele><time>2026-04-25T15:00:37.414Z</time></trkpt><trkpt lat="44.1553717" lon="12.1911591"><ele>37.333333333333336</ele><time>2026-04-25T15:00:38.415Z</time></trkpt><trkpt lat="44.1551632" lon="12.1911366"><ele>37.666666666666664</ele><time>2026-04-25T15:00:39.421Z</time></trkpt><trkpt lat="44.1549758" lon="12.1911152"><ele>38.0</ele><time>2026-04-25T15:00:40.406Z</time></trkpt><trkpt lat="44.1548111" lon="12.191097"><ele>38.33333333333333</ele><time>2026-04-25T15:00:41.424Z</time></trkpt><trkpt lat="44.1546518" lon="12.1910743"><ele>38.666666666666664</ele><time>2026-04-25T15:00:42.415Z</time></trkpt><trkpt lat="44.1544857" lon="12.1910281"><ele>39.0</ele><time>2026-04-25T15:00:43.423Z</time></trkpt><trkpt lat="44.1543171" lon="12.1909381"><ele>39.0</ele><time>2026-04-25T15:00:44.412Z</time></trkpt><trkpt lat="44.1541428" lon="12.1908343"><ele>39.0</ele><time>2026-04-25T15:00:45.419Z</time></trkpt><trkpt lat="44.1539764" lon="12.1907023"><ele>39.0</ele><time>2026-04-25T15:00:46.408Z</time></trkpt><trkpt lat="44.153814" lon="12.1905505"><ele>39.666666666666664</ele><time>2026-04-25T15:00:47.417Z</time></trkpt><trkpt lat="44.1536519" lon="12.19036"><ele>40.33333333333333</ele><time>2026-04-25T15:00:48.415Z</time></trkpt><trkpt lat="44.1534807" lon="12.1901662"><ele>41.0</ele><time>2026-04-25T15:00:49.428Z</time></trkpt><trkpt lat="44.1532972" lon="12.1899651"><ele>41.5</ele><time>2026-04-25T15:00:50.42Z</time></trkpt><trkpt lat="44.153106" lon="12.1897521"><ele>42.0</ele><time>2026-04-25T15:00:51.415Z</time></trkpt><trkpt lat="44.152917" lon="12.1895349"><ele>42.0</ele><time>2026-04-25T15:00:52.408Z</time></trkpt><trkpt lat="44.1527219" lon="12.1893124"><ele>42.0</ele><time>2026-04-25T15:00:53.423Z</time></trkpt><trkpt lat="44.15253" lon="12.1890965"><ele>40.0</ele><time>2026-04-25T15:00:54.415Z</time></trkpt><trkpt lat="44.152331" lon="12.1888968"><ele>38.0</ele><time>2026-04-25T15:00:55.418Z</time></trkpt><trkpt lat="44.1521192" lon="12.1887091"><ele>38.0</ele><time>2026-04-25T15:00:56.426Z</time></trkpt><trkpt lat="44.1518975" lon="12.188552"><ele>38.0</ele><time>2026-04-25T15:00:57.419Z</time></trkpt><trkpt lat="44.1516566" lon="12.1884156"><ele>38.0</ele><time>2026-04-25T15:00:58.418Z</time></trkpt><trkpt lat="44.1514061" lon="12.188293"><ele>38.0</ele><time>2026-04-25T15:00:59.429Z</time></trkpt><trkpt lat="44.1511462" lon="12.1881566"><ele>38.5</ele><time>2026-04-25T15:01:00.423Z</time></trkpt><trkpt lat="44.1508821" lon="12.1880074"><ele>39.0</ele><time>2026-04-25T15:01:01.425Z</time></trkpt><trkpt lat="44.1506087" lon="12.1878582"><ele>39.0</ele><time>2026-04-25T15:01:02.406Z</time></trkpt><trkpt lat="44.1503353" lon="12.187709"><ele>39.0</ele><time>2026-04-25T15:01:03.436Z</time></trkpt><trkpt lat="44.1500607" lon="12.1875579"><ele>39.0</ele><time>2026-04-25T15:01:04.413Z</time></trkpt><trkpt lat="44.1497863" lon="12.1874069"><ele>39.0</ele><time>2026-04-25T15:01:05.419Z</time></trkpt><trkpt lat="44.1495109" lon="12.1872527"><ele>40.0</ele><time>2026-04-25T15:01:06.419Z</time></trkpt><trkpt lat="44.1492416" lon="12.1871106"><ele>41.0</ele><time>2026-04-25T15:01:07.418Z</time></trkpt><trkpt lat="44.1489887" lon="12.1869662"><ele>41.5</ele><time>2026-04-25T15:01:08.412Z</time></trkpt><trkpt lat="44.1487428" lon="12.1868384"><ele>42.0</ele><time>2026-04-25T15:01:09.411Z</time></trkpt><trkpt lat="44.1485028" lon="12.1867097"><ele>42.0</ele><time>2026-04-25T15:01:10.414Z</time></trkpt><trkpt lat="44.1482621" lon="12.1865954"><ele>42.0</ele><time>2026-04-25T15:01:11.412Z</time></trkpt><trkpt lat="44.1480169" lon="12.1864863"><ele>44.5</ele><time>2026-04-25T15:01:12.415Z</time></trkpt><trkpt lat="44.1477531" lon="12.1863981"><ele>47.0</ele><time>2026-04-25T15:01:13.419Z</time></trkpt><trkpt lat="44.1474802" lon="12.1863177"><ele>45.5</ele><time>2026-04-25T15:01:14.416Z</time></trkpt><trkpt lat="44.1471987" lon="12.1862438"><ele>44.0</ele><time>2026-04-25T15:01:15.424Z</time></trkpt><trkpt lat="44.1469169" lon="12.1861741"><ele>44.0</ele><time>2026-04-25T15:01:16.409Z</time></trkpt><trkpt lat="44.146624" lon="12.1861014"><ele>44.0</ele><time>2026-04-25T15:01:17.415Z</time></trkpt><trkpt lat="44.1463218" lon="12.1860306"><ele>43.5</ele><time>2026-04-25T15:01:18.408Z</time></trkpt><trkpt lat="44.1460209" lon="12.1859551"><ele>43.0</ele><time>2026-04-25T15:01:19.43Z</time></trkpt><trkpt lat="44.1457271" lon="12.1858779"><ele>42.5</ele><time>2026-04-25T15:01:20.418Z</time></trkpt><trkpt lat="44.1454389" lon="12.1858081"><ele>42.0</ele><time>2026-04-25T15:01:21.421Z</time></trkpt><trkpt lat="44.1451576" lon="12.1857351"><ele>44.0</ele><time>2026-04-25T15:01:22.413Z</time></trkpt><trkpt lat="44.144868" lon="12.1856592"><ele>46.0</ele><time>2026-04-25T15:01:23.418Z</time></trkpt><trkpt lat="44.1445761" lon="12.1855823"><ele>46.0</ele><time>2026-04-25T15:01:24.415Z</time></trkpt><trkpt lat="44.1442848" lon="12.185509"><ele>46.0</ele><time>2026-04-25T15:01:25.422Z</time></trkpt><trkpt lat="44.1440111" lon="12.1854413"><ele>45.5</ele><time>2026-04-25T15:01:26.414Z</time></trkpt><trkpt lat="44.1437512" lon="12.1853752"><ele>45.0</ele><time>2026-04-25T15:01:27.43Z</time></trkpt><trkpt lat="44.1435029" lon="12.1853031"><ele>45.0</ele><time>2026-04-25T15:01:28.415Z</time></trkpt><trkpt lat="44.1432648" lon="12.1852404"><ele>45.0</ele><time>2026-04-25T15:01:29.422Z</time></trkpt><trkpt lat="44.1430406" lon="12.185192"><ele>45.666666666666664</ele><time>2026-04-25T15:01:30.415Z</time></trkpt><trkpt lat="44.142818" lon="12.1851415"><ele>46.33333333333333</ele><time>2026-04-25T15:01:31.432Z</time></trkpt><trkpt lat="44.1426015" lon="12.1851068"><ele>47.0</ele><time>2026-04-25T15:01:32.416Z</time></trkpt><trkpt lat="44.142387" lon="12.1850925"><ele>48.0</ele><time>2026-04-25T15:01:33.435Z</time></trkpt><trkpt lat="44.1421708" lon="12.1851186"><ele>49.0</ele><time>2026-04-25T15:01:34.426Z</time></trkpt><trkpt lat="44.1419596" lon="12.1851823"><ele>50.0</ele><time>2026-04-25T15:01:35.423Z</time></trkpt><trkpt lat="44.1417469" lon="12.1852797"><ele>50.5</ele><time>2026-04-25T15:01:36.418Z</time></trkpt><trkpt lat="44.1415322" lon="12.1854006"><ele>51.0</ele><time>2026-04-25T15:01:37.429Z</time></trkpt><trkpt lat="44.1413243" lon="12.185552"><ele>48.0</ele><time>2026-04-25T15:01:38.419Z</time></trkpt><trkpt lat="44.1411158" lon="12.1857119"><ele>45.0</ele><time>2026-04-25T15:01:39.417Z</time></trkpt><trkpt lat="44.1409048" lon="12.1858758"><ele>46.66666666666667</ele><time>2026-04-25T15:01:40.404Z</time></trkpt><trkpt lat="44.1407048" lon="12.1860207"><ele>48.333333333333336</ele><time>2026-04-25T15:01:41.422Z</time></trkpt><trkpt lat="44.1405173" lon="12.186151"><ele>50.0</ele><time>2026-04-25T15:01:42.408Z</time></trkpt><trkpt lat="44.1403442" lon="12.1862766"><ele>50.0</ele><time>2026-04-25T15:01:43.417Z</time></trkpt><trkpt lat="44.140169" lon="12.1864045"><ele>50.0</ele><time>2026-04-25T15:01:44.399Z</time></trkpt><trkpt lat="44.1399939" lon="12.1865241"><ele>50.0</ele><time>2026-04-25T15:01:45.427Z</time></trkpt><trkpt lat="44.1398128" lon="12.1866163"><ele>48.66666666666667</ele><time>2026-04-25T15:01:46.404Z</time></trkpt><trkpt lat="44.1396276" lon="12.1866749"><ele>47.333333333333336</ele><time>2026-04-25T15:01:47.415Z</time></trkpt><trkpt lat="44.1394308" lon="12.1867166"><ele>46.0</ele><time>2026-04-25T15:01:48.415Z</time></trkpt><trkpt lat="44.1392242" lon="12.186707"><ele>46.0</ele><time>2026-04-25T15:01:49.411Z</time></trkpt><trkpt lat="44.1390096" lon="12.1866755"><ele>46.0</ele><time>2026-04-25T15:01:50.405Z</time></trkpt><trkpt lat="44.1387889" lon="12.1866149"><ele>46.0</ele><time>2026-04-25T15:01:51.426Z</time></trkpt><trkpt lat="44.1385535" lon="12.1865475"><ele>47.5</ele><time>2026-04-25T15:01:52.413Z</time></trkpt><trkpt lat="44.138314" lon="12.1864811"><ele>49.0</ele><time>2026-04-25T15:01:53.419Z</time></trkpt><trkpt lat="44.1380694" lon="12.1864235"><ele>49.0</ele><time>2026-04-25T15:01:54.418Z</time></trkpt><trkpt lat="44.137823" lon="12.1863704"><ele>49.0</ele><time>2026-04-25T15:01:55.426Z</time></trkpt><trkpt lat="44.1375967" lon="12.1863348"><ele>49.33333333333333</ele><time>2026-04-25T15:01:56.419Z</time></trkpt><trkpt lat="44.1373843" lon="12.1863201"><ele>49.66666666666667</ele><time>2026-04-25T15:01:57.433Z</time></trkpt><trkpt lat="44.1371544" lon="12.1863349"><ele>50.0</ele><time>2026-04-25T15:01:58.423Z</time></trkpt><trkpt lat="44.1369232" lon="12.1863742"><ele>50.0</ele><time>2026-04-25T15:01:59.419Z</time></trkpt><trkpt lat="44.136686" lon="12.1864056"><ele>50.0</ele><time>2026-04-25T15:02:00.41Z</time></trkpt><trkpt lat="44.136445" lon="12.1864297"><ele>51.0</ele><time>2026-04-25T15:02:01.431Z</time></trkpt><trkpt lat="44.1361945" lon="12.1864589"><ele>52.0</ele><time>2026-04-25T15:02:02.422Z</time></trkpt><trkpt lat="44.1359371" lon="12.1864913"><ele>51.0</ele><time>2026-04-25T15:02:03.422Z</time></trkpt><trkpt lat="44.1356737" lon="12.1865247"><ele>50.0</ele><time>2026-04-25T15:02:04.415Z</time></trkpt><trkpt lat="44.1354096" lon="12.1865566"><ele>50.0</ele><time>2026-04-25T15:02:05.44Z</time></trkpt><trkpt lat="44.1351544" lon="12.1865834"><ele>50.0</ele><time>2026-04-25T15:02:06.405Z</time></trkpt><trkpt lat="44.1349051" lon="12.1866055"><ele>49.5</ele><time>2026-04-25T15:02:07.43Z</time></trkpt><trkpt lat="44.1346713" lon="12.1866318"><ele>49.0</ele><time>2026-04-25T15:02:08.418Z</time></trkpt><trkpt lat="44.1344483" lon="12.1866573"><ele>49.0</ele><time>2026-04-25T15:02:09.435Z</time></trkpt><trkpt lat="44.1342298" lon="12.1866807"><ele>49.0</ele><time>2026-04-25T15:02:10.41Z</time></trkpt><trkpt lat="44.1340269" lon="12.1867017"><ele>49.0</ele><time>2026-04-25T15:02:11.443Z</time></trkpt><trkpt lat="44.1338233" lon="12.1867176"><ele>49.0</ele><time>2026-04-25T15:02:12.418Z</time></trkpt><trkpt lat="44.133611" lon="12.186732"><ele>49.0</ele><time>2026-04-25T15:02:13.44Z</time></trkpt><trkpt lat="44.1334" lon="12.1867465"><ele>49.0</ele><time>2026-04-25T15:02:14.41Z</time></trkpt><trkpt lat="44.1332034" lon="12.1867631"><ele>49.33333333333333</ele><time>2026-04-25T15:02:15.427Z</time></trkpt><trkpt lat="44.1330192" lon="12.1867794"><ele>49.66666666666667</ele><time>2026-04-25T15:02:16.415Z</time></trkpt><trkpt lat="44.1328378" lon="12.1867965"><ele>50.0</ele><time>2026-04-25T15:02:17.431Z</time></trkpt><trkpt lat="44.1326628" lon="12.1868173"><ele>50.0</ele><time>2026-04-25T15:02:18.414Z</time></trkpt><trkpt lat="44.1324948" lon="12.18683"><ele>50.0</ele><time>2026-04-25T15:02:19.426Z</time></trkpt><trkpt lat="44.1323218" lon="12.1868424"><ele>50.0</ele><time>2026-04-25T15:02:20.409Z</time></trkpt><trkpt lat="44.1321621" lon="12.1868606"><ele>50.75</ele><time>2026-04-25T15:02:21.436Z</time></trkpt><trkpt lat="44.1320214" lon="12.1868857"><ele>51.5</ele><time>2026-04-25T15:02:22.42Z</time></trkpt><trkpt lat="44.1318981" lon="12.1869037"><ele>52.25</ele><time>2026-04-25T15:02:23.415Z</time></trkpt><trkpt lat="44.1317849" lon="12.1869176"><ele>53.0</ele><time>2026-04-25T15:02:24.409Z</time></trkpt><trkpt lat="44.1316792" lon="12.1869254"><ele>53.0</ele><time>2026-04-25T15:02:25.432Z</time></trkpt><trkpt lat="44.1315795" lon="12.1869247"><ele>53.0</ele><time>2026-04-25T15:02:26.417Z</time></trkpt><trkpt lat="44.1314834" lon="12.1869254"><ele>53.0</ele><time>2026-04-25T15:02:27.422Z</time></trkpt><trkpt lat="44.1313783" lon="12.1869303"><ele>53.0</ele><time>2026-04-25T15:02:28.41Z</time></trkpt><trkpt lat="44.1312591" lon="12.1869128"><ele>53.0</ele><time>2026-04-25T15:02:29.416Z</time></trkpt><trkpt lat="44.1311309" lon="12.1868545"><ele>53.333333333333336</ele><time>2026-04-25T15:02:30.418Z</time></trkpt><trkpt lat="44.1309957" lon="12.1867325"><ele>53.66666666666667</ele><time>2026-04-25T15:02:31.406Z</time></trkpt><trkpt lat="44.1308443" lon="12.1866101"><ele>54.0</ele><time>2026-04-25T15:02:32.399Z</time></trkpt><trkpt lat="44.1306731" lon="12.1864621"><ele>54.0</ele><time>2026-04-25T15:02:33.416Z</time></trkpt><trkpt lat="44.1304854" lon="12.1862872"><ele>54.0</ele><time>2026-04-25T15:02:34.415Z</time></trkpt><trkpt lat="44.1302829" lon="12.1861223"><ele>54.0</ele><time>2026-04-25T15:02:35.45Z</time></trkpt><trkpt lat="44.1300705" lon="12.1859568"><ele>54.0</ele><time>2026-04-25T15:02:36.419Z</time></trkpt><trkpt lat="44.1298516" lon="12.1858273"><ele>55.0</ele><time>2026-04-25T15:02:37.421Z</time></trkpt><trkpt lat="44.129632" lon="12.1857371"><ele>56.0</ele><time>2026-04-25T15:02:38.418Z</time></trkpt><trkpt lat="44.1294057" lon="12.1856772"><ele>56.5</ele><time>2026-04-25T15:02:39.438Z</time></trkpt><trkpt lat="44.1291681" lon="12.1856375"><ele>57.0</ele><time>2026-04-25T15:02:40.414Z</time></trkpt><trkpt lat="44.1289091" lon="12.1856025"><ele>57.0</ele><time>2026-04-25T15:02:41.425Z</time></trkpt><trkpt lat="44.1286326" lon="12.1855711"><ele>57.0</ele><time>2026-04-25T15:02:42.407Z</time></trkpt><trkpt lat="44.1283767" lon="12.1855372"><ele>57.0</ele><time>2026-04-25T15:02:43.439Z</time></trkpt><trkpt lat="44.1281505" lon="12.1855081"><ele>57.0</ele><time>2026-04-25T15:02:44.405Z</time></trkpt><trkpt lat="44.1279334" lon="12.1854921"><ele>57.0</ele><time>2026-04-25T15:02:45.415Z</time></trkpt><trkpt lat="44.1277098" lon="12.1855073"><ele>57.0</ele><time>2026-04-25T15:02:46.415Z</time></trkpt><trkpt lat="44.1274785" lon="12.1855493"><ele>57.0</ele><time>2026-04-25T15:02:47.422Z</time></trkpt><trkpt lat="44.1272384" lon="12.1856309"><ele>56.5</ele><time>2026-04-25T15:02:48.415Z</time></trkpt><trkpt lat="44.126983" lon="12.1857364"><ele>56.0</ele><time>2026-04-25T15:02:49.418Z</time></trkpt><trkpt lat="44.1267144" lon="12.1858438"><ele>57.5</ele><time>2026-04-25T15:02:50.408Z</time></trkpt><trkpt lat="44.1264323" lon="12.1859486"><ele>59.0</ele><time>2026-04-25T15:02:51.433Z</time></trkpt><trkpt lat="44.126135" lon="12.1860592"><ele>59.0</ele><time>2026-04-25T15:02:52.413Z</time></trkpt><trkpt lat="44.1258191" lon="12.1861778"><ele>59.0</ele><time>2026-04-25T15:02:53.425Z</time></trkpt><trkpt lat="44.1255214" lon="12.1863039"><ele>60.0</ele><time>2026-04-25T15:02:54.398Z</time></trkpt><trkpt lat="44.1252501" lon="12.1864094"><ele>61.0</ele><time>2026-04-25T15:02:55.415Z</time></trkpt><trkpt lat="44.1249885" lon="12.1865058"><ele>61.0</ele><time>2026-04-25T15:02:56.411Z</time></trkpt><trkpt lat="44.1247416" lon="12.1866027"><ele>61.0</ele><time>2026-04-25T15:02:57.427Z</time></trkpt><trkpt lat="44.124494" lon="12.1866929"><ele>61.0</ele><time>2026-04-25T15:02:58.412Z</time></trkpt><trkpt lat="44.1242461" lon="12.1867797"><ele>61.0</ele><time>2026-04-25T15:02:59.405Z</time></trkpt><trkpt lat="44.1239954" lon="12.1868348"><ele>61.5</ele><time>2026-04-25T15:03:00.42Z</time></trkpt><trkpt lat="44.1237351" lon="12.1868679"><ele>62.0</ele><time>2026-04-25T15:03:01.428Z</time></trkpt><trkpt lat="44.1234651" lon="12.1868784"><ele>61.5</ele><time>2026-04-25T15:03:02.422Z</time></trkpt><trkpt lat="44.1231852" lon="12.1868861"><ele>61.0</ele><time>2026-04-25T15:03:03.428Z</time></trkpt><trkpt lat="44.1229101" lon="12.1869008"><ele>61.0</ele><time>2026-04-25T15:03:04.42Z</time></trkpt><trkpt lat="44.1226555" lon="12.1869144"><ele>61.0</ele><time>2026-04-25T15:03:05.43Z</time></trkpt><trkpt lat="44.1224257" lon="12.1869245"><ele>60.666666666666664</ele><time>2026-04-25T15:03:06.402Z</time></trkpt><trkpt lat="44.1222082" lon="12.1869302"><ele>60.33333333333333</ele><time>2026-04-25T15:03:07.411Z</time></trkpt><trkpt lat="44.122003" lon="12.1869411"><ele>60.0</ele><time>2026-04-25T15:03:08.423Z</time></trkpt><trkpt lat="44.1218041" lon="12.1869498"><ele>60.0</ele><time>2026-04-25T15:03:09.418Z</time></trkpt><trkpt lat="44.1216166" lon="12.1869544"><ele>60.0</ele><time>2026-04-25T15:03:10.414Z</time></trkpt><trkpt lat="44.1214263" lon="12.186963"><ele>60.0</ele><time>2026-04-25T15:03:11.429Z</time></trkpt><trkpt lat="44.1212409" lon="12.1869835"><ele>60.0</ele><time>2026-04-25T15:03:12.416Z</time></trkpt><trkpt lat="44.1210538" lon="12.1870283"><ele>60.0</ele><time>2026-04-25T15:03:13.426Z</time></trkpt><trkpt lat="44.1208647" lon="12.1871"><ele>60.0</ele><time>2026-04-25T15:03:14.409Z</time></trkpt><trkpt lat="44.1206751" lon="12.1871897"><ele>60.66666666666667</ele><time>2026-04-25T15:03:15.418Z</time></trkpt><trkpt lat="44.1204874" lon="12.1873075"><ele>61.333333333333336</ele><time>2026-04-25T15:03:16.406Z</time></trkpt><trkpt lat="44.1202985" lon="12.1874287"><ele>62.0</ele><time>2026-04-25T15:03:17.414Z</time></trkpt><trkpt lat="44.1201106" lon="12.1875455"><ele>62.0</ele><time>2026-04-25T15:03:18.412Z</time></trkpt><trkpt lat="44.1199179" lon="12.187676"><ele>62.0</ele><time>2026-04-25T15:03:19.44Z</time></trkpt><trkpt lat="44.1197166" lon="12.1878206"><ele>62.0</ele><time>2026-04-25T15:03:20.4Z</time></trkpt><trkpt lat="44.1195101" lon="12.1880084"><ele>61.0</ele><time>2026-04-25T15:03:21.423Z</time></trkpt><trkpt lat="44.1192882" lon="12.1882173"><ele>60.0</ele><time>2026-04-25T15:03:22.413Z</time></trkpt><trkpt lat="44.1190696" lon="12.1884336"><ele>60.0</ele><time>2026-04-25T15:03:23.426Z</time></trkpt><trkpt lat="44.1188623" lon="12.188637"><ele>60.0</ele><time>2026-04-25T15:03:24.41Z</time></trkpt><trkpt lat="44.1186674" lon="12.1888367"><ele>59.5</ele><time>2026-04-25T15:03:25.413Z</time></trkpt><trkpt lat="44.1184814" lon="12.1890385"><ele>59.0</ele><time>2026-04-25T15:03:26.409Z</time></trkpt><trkpt lat="44.1183051" lon="12.189251"><ele>59.5</ele><time>2026-04-25T15:03:27.422Z</time></trkpt><trkpt lat="44.1181392" lon="12.1894777"><ele>60.0</ele><time>2026-04-25T15:03:28.406Z</time></trkpt><trkpt lat="44.1179741" lon="12.1897323"><ele>60.0</ele><time>2026-04-25T15:03:29.413Z</time></trkpt><trkpt lat="44.1178146" lon="12.190009"><ele>60.0</ele><time>2026-04-25T15:03:30.41Z</time></trkpt><trkpt lat="44.1176495" lon="12.1903067"><ele>60.0</ele><time>2026-04-25T15:03:31.429Z</time></trkpt><trkpt lat="44.117496" lon="12.1905985"><ele>60.0</ele><time>2026-04-25T15:03:32.411Z</time></trkpt><trkpt lat="44.1173575" lon="12.1908573"><ele>60.5</ele><time>2026-04-25T15:03:33.416Z</time></trkpt><trkpt lat="44.1172234" lon="12.1911067"><ele>61.0</ele><time>2026-04-25T15:03:34.408Z</time></trkpt><trkpt lat="44.1170882" lon="12.191359"><ele>59.33333333333333</ele><time>2026-04-25T15:03:35.424Z</time></trkpt><trkpt lat="44.1169601" lon="12.1915993"><ele>57.66666666666667</ele><time>2026-04-25T15:03:36.413Z</time></trkpt><trkpt lat="44.1168356" lon="12.1918265"><ele>56.0</ele><time>2026-04-25T15:03:37.421Z</time></trkpt><trkpt lat="44.1167208" lon="12.1920465"><ele>56.0</ele><time>2026-04-25T15:03:38.405Z</time></trkpt><trkpt lat="44.1166097" lon="12.192249"><ele>56.0</ele><time>2026-04-25T15:03:39.423Z</time></trkpt><trkpt lat="44.116498" lon="12.192421"><ele>56.0</ele><time>2026-04-25T15:03:40.414Z</time></trkpt><trkpt lat="44.1163693" lon="12.192558"><ele>56.333333333333336</ele><time>2026-04-25T15:03:41.416Z</time></trkpt><trkpt lat="44.1162311" lon="12.1926521"><ele>56.66666666666667</ele><time>2026-04-25T15:03:42.413Z</time></trkpt><trkpt lat="44.1160731" lon="12.1927014"><ele>57.0</ele><time>2026-04-25T15:03:43.414Z</time></trkpt><trkpt lat="44.1159063" lon="12.1927351"><ele>57.0</ele><time>2026-04-25T15:03:44.409Z</time></trkpt><trkpt lat="44.1157434" lon="12.1927266"><ele>57.0</ele><time>2026-04-25T15:03:45.414Z</time></trkpt><trkpt lat="44.1155729" lon="12.1926717"><ele>57.0</ele><time>2026-04-25T15:03:46.397Z</time></trkpt><trkpt lat="44.1154115" lon="12.1925831"><ele>57.33333333333333</ele><time>2026-04-25T15:03:47.402Z</time></trkpt><trkpt lat="44.1152463" lon="12.1924555"><ele>57.666666666666664</ele><time>2026-04-25T15:03:48.417Z</time></trkpt><trkpt lat="44.1150784" lon="12.1923146"><ele>58.0</ele><time>2026-04-25T15:03:49.431Z</time></trkpt><trkpt lat="44.1148875" lon="12.1921504"><ele>58.0</ele><time>2026-04-25T15:03:50.419Z</time></trkpt><trkpt lat="44.1146805" lon="12.1919992"><ele>58.0</ele><time>2026-04-25T15:03:51.43Z</time></trkpt><trkpt lat="44.114463" lon="12.191829"><ele>58.0</ele><time>2026-04-25T15:03:52.41Z</time></trkpt><trkpt lat="44.1142294" lon="12.1916714"><ele>58.0</ele><time>2026-04-25T15:03:53.419Z</time></trkpt><trkpt lat="44.1139767" lon="12.1915265"><ele>61.0</ele><time>2026-04-25T15:03:54.413Z</time></trkpt><trkpt lat="44.1137106" lon="12.1913989"><ele>64.0</ele><time>2026-04-25T15:03:55.414Z</time></trkpt><trkpt lat="44.1134354" lon="12.1912901"><ele>63.5</ele><time>2026-04-25T15:03:56.414Z</time></trkpt><trkpt lat="44.1131548" lon="12.1911643"><ele>63.0</ele><time>2026-04-25T15:03:57.421Z</time></trkpt><trkpt lat="44.112868" lon="12.1910368"><ele>63.0</ele><time>2026-04-25T15:03:58.42Z</time></trkpt><trkpt lat="44.1125909" lon="12.1909187"><ele>63.0</ele><time>2026-04-25T15:03:59.412Z</time></trkpt><trkpt lat="44.1123391" lon="12.1908111"><ele>62.5</ele><time>2026-04-25T15:04:00.41Z</time></trkpt><trkpt lat="44.1120977" lon="12.1906974"><ele>62.0</ele><time>2026-04-25T15:04:01.412Z</time></trkpt><trkpt lat="44.1118587" lon="12.1905965"><ele>63.0</ele><time>2026-04-25T15:04:02.418Z</time></trkpt><trkpt lat="44.1116248" lon="12.1904974"><ele>64.0</ele><time>2026-04-25T15:04:03.417Z</time></trkpt><trkpt lat="44.1113818" lon="12.1904194"><ele>65.5</ele><time>2026-04-25T15:04:04.416Z</time></trkpt><trkpt lat="44.1111368" lon="12.190368"><ele>67.0</ele><time>2026-04-25T15:04:05.424Z</time></trkpt><trkpt lat="44.1108922" lon="12.1903467"><ele>66.0</ele><time>2026-04-25T15:04:06.412Z</time></trkpt><trkpt lat="44.1106306" lon="12.1903398"><ele>65.0</ele><time>2026-04-25T15:04:07.435Z</time></trkpt><trkpt lat="44.1103656" lon="12.1903367"><ele>65.0</ele><time>2026-04-25T15:04:08.421Z</time></trkpt><trkpt lat="44.1101089" lon="12.1903332"><ele>65.0</ele><time>2026-04-25T15:04:09.433Z</time></trkpt><trkpt lat="44.1098729" lon="12.190333"><ele>64.0</ele><time>2026-04-25T15:04:10.412Z</time></trkpt><trkpt lat="44.109648" lon="12.1903381"><ele>63.0</ele><time>2026-04-25T15:04:11.415Z</time></trkpt><trkpt lat="44.1094362" lon="12.1903578"><ele>62.0</ele><time>2026-04-25T15:04:12.413Z</time></trkpt><trkpt lat="44.1092513" lon="12.1904116"><ele>62.0</ele><time>2026-04-25T15:04:13.43Z</time></trkpt><trkpt lat="44.1090757" lon="12.1905102"><ele>62.0</ele><time>2026-04-25T15:04:14.425Z</time></trkpt><trkpt lat="44.1089169" lon="12.1906502"><ele>62.0</ele><time>2026-04-25T15:04:15.436Z</time></trkpt><trkpt lat="44.1087534" lon="12.1908224"><ele>61.333333333333336</ele><time>2026-04-25T15:04:16.412Z</time></trkpt><trkpt lat="44.1086134" lon="12.1910193"><ele>60.66666666666667</ele><time>2026-04-25T15:04:17.422Z</time></trkpt><trkpt lat="44.1084877" lon="12.1912581"><ele>60.0</ele><time>2026-04-25T15:04:18.437Z</time></trkpt><trkpt lat="44.1083563" lon="12.1915371"><ele>60.0</ele><time>2026-04-25T15:04:19.434Z</time></trkpt><trkpt lat="44.1082028" lon="12.1918295"><ele>60.0</ele><time>2026-04-25T15:04:20.421Z</time></trkpt><trkpt lat="44.1080268" lon="12.1921342"><ele>60.5</ele><time>2026-04-25T15:04:21.429Z</time></trkpt><trkpt lat="44.1078482" lon="12.192407"><ele>61.0</ele><time>2026-04-25T15:04:22.422Z</time></trkpt><trkpt lat="44.107676" lon="12.1926532"><ele>61.0</ele><time>2026-04-25T15:04:23.412Z</time></trkpt><trkpt lat="44.1075168" lon="12.1928829"><ele>61.0</ele><time>2026-04-25T15:04:24.412Z</time></trkpt><trkpt lat="44.1073654" lon="12.1931045"><ele>61.0</ele><time>2026-04-25T15:04:25.43Z</time></trkpt><trkpt lat="44.107217" lon="12.1933204"><ele>61.0</ele><time>2026-04-25T15:04:26.406Z</time></trkpt><trkpt lat="44.1070733" lon="12.1935438"><ele>61.0</ele><time>2026-04-25T15:04:27.409Z</time></trkpt><trkpt lat="44.1069283" lon="12.1937874"><ele>61.0</ele><time>2026-04-25T15:04:28.405Z</time></trkpt><trkpt lat="44.1067907" lon="12.1940443"><ele>61.0</ele><time>2026-04-25T15:04:29.423Z</time></trkpt><trkpt lat="44.1066794" lon="12.1942891"><ele>61.0</ele><time>2026-04-25T15:04:30.411Z</time></trkpt><trkpt lat="44.1065742" lon="12.1945231"><ele>61.0</ele><time>2026-04-25T15:04:31.422Z</time></trkpt><trkpt lat="44.1064791" lon="12.1947293"><ele>61.0</ele><time>2026-04-25T15:04:32.412Z</time></trkpt><trkpt lat="44.1063982" lon="12.1949232"><ele>61.0</ele><time>2026-04-25T15:04:33.423Z</time></trkpt><trkpt lat="44.1063265" lon="12.1950996"><ele>61.0</ele><time>2026-04-25T15:04:34.413Z</time></trkpt><trkpt lat="44.1062572" lon="12.1952545"><ele>61.0</ele><time>2026-04-25T15:04:35.422Z</time></trkpt><trkpt lat="44.1061935" lon="12.1954042"><ele>61.0</ele><time>2026-04-25T15:04:36.42Z</time></trkpt><trkpt lat="44.1061269" lon="12.1955536"><ele>60.99999999999999</ele><time>2026-04-25T15:04:37.424Z</time></trkpt><trkpt lat="44.1060702" lon="12.195686"><ele>60.99999999999999</ele><time>2026-04-25T15:04:38.409Z</time></trkpt><trkpt lat="44.1060173" lon="12.195799"><ele>61.0</ele><time>2026-04-25T15:04:39.413Z</time></trkpt><trkpt lat="44.1059751" lon="12.1958835"><ele>61.0</ele><time>2026-04-25T15:04:40.422Z</time></trkpt><trkpt lat="44.1059005" lon="12.1960106"><ele>60.599999999999994</ele><time>2026-04-25T15:04:42.416Z</time></trkpt><trkpt lat="44.1058628" lon="12.1961524"><ele>60.199999999999996</ele><time>2026-04-25T15:04:44.412Z</time></trkpt><trkpt lat="44.1059311" lon="12.1962429"><ele>59.800000000000004</ele><time>2026-04-25T15:04:46.423Z</time></trkpt><trkpt lat="44.1060188" lon="12.1961812"><ele>59.400000000000006</ele><time>2026-04-25T15:04:48.419Z</time></trkpt><trkpt lat="44.1060413" lon="12.1960851"><ele>59.0</ele><time>2026-04-25T15:04:49.413Z</time></trkpt><trkpt lat="44.1060541" lon="12.1959431"><ele>59.00000000000001</ele><time>2026-04-25T15:04:50.401Z</time></trkpt><trkpt lat="44.1060524" lon="12.1958"><ele>59.0</ele><time>2026-04-25T15:04:51.43Z</time></trkpt><trkpt lat="44.10607" lon="12.1956876"><ele>59.0</ele><time>2026-04-25T15:04:52.423Z</time></trkpt><trkpt lat="44.1061059" lon="12.1955929"><ele>59.0</ele><time>2026-04-25T15:04:53.43Z</time></trkpt><trkpt lat="44.1061896" lon="12.1955295"><ele>59.00000000000001</ele><time>2026-04-25T15:04:55.419Z</time></trkpt><trkpt lat="44.1062489" lon="12.1955685"><ele>59.0</ele><time>2026-04-25T15:04:56.403Z</time></trkpt><trkpt lat="44.106304" lon="12.1956233"><ele>59.0</ele><time>2026-04-25T15:04:57.419Z</time></trkpt><trkpt lat="44.1063764" lon="12.1956797"><ele>59.00000000000001</ele><time>2026-04-25T15:04:58.411Z</time></trkpt><trkpt lat="44.1064443" lon="12.1957491"><ele>59.00000000000001</ele><time>2026-04-25T15:04:59.413Z</time></trkpt><trkpt lat="44.1065186" lon="12.1958393"><ele>59.0</ele><time>2026-04-25T15:05:00.411Z</time></trkpt><trkpt lat="44.1066091" lon="12.1959428"><ele>59.0</ele><time>2026-04-25T15:05:01.421Z</time></trkpt><trkpt lat="44.1067008" lon="12.1960591"><ele>59.0</ele><time>2026-04-25T15:05:02.41Z</time></trkpt><trkpt lat="44.1067841" lon="12.1961763"><ele>59.00000000000001</ele><time>2026-04-25T15:05:03.409Z</time></trkpt><trkpt lat="44.106856" lon="12.1962798"><ele>59.00000000000001</ele><time>2026-04-25T15:05:04.4Z</time></trkpt><trkpt lat="44.1069165" lon="12.1963658"><ele>59.0</ele><time>2026-04-25T15:05:05.416Z</time></trkpt><trkpt lat="44.1069678" lon="12.1964195"><ele>59.0</ele><time>2026-04-25T15:05:06.412Z</time></trkpt><trkpt lat="44.107065" lon="12.1964167"><ele>59.00000000000001</ele><time>2026-04-25T15:05:08.411Z</time></trkpt><trkpt lat="44.1071202" lon="12.196355"><ele>59.0</ele><time>2026-04-25T15:05:09.406Z</time></trkpt><trkpt lat="44.1071739" lon="12.1962636"><ele>59.0</ele><time>2026-04-25T15:05:10.416Z</time></trkpt><trkpt lat="44.1072196" lon="12.196182"><ele>59.0</ele><time>2026-04-25T15:05:11.425Z</time></trkpt><trkpt lat="44.1072797" lon="12.1960743"><ele>59.00000000000001</ele><time>2026-04-25T15:05:13.404Z</time></trkpt><trkpt lat="44.1073292" lon="12.1959782"><ele>59.0</ele><time>2026-04-25T15:07:19.432Z</time></trkpt><trkpt lat="44.1073952" lon="12.1958839"><ele>58.833333333333336</ele><time>2026-04-25T15:07:20.403Z</time></trkpt><trkpt lat="44.1074737" lon="12.1957816"><ele>58.66666666666667</ele><time>2026-04-25T15:07:21.418Z</time></trkpt><trkpt lat="44.1075306" lon="12.1957042"><ele>58.5</ele><time>2026-04-25T15:07:22.434Z</time></trkpt><trkpt lat="44.1075827" lon="12.1956369"><ele>58.33333333333333</ele><time>2026-04-25T15:07:23.409Z</time></trkpt><trkpt lat="44.1076513" lon="12.1955458"><ele>58.166666666666664</ele><time>2026-04-25T15:07:25.408Z</time></trkpt><trkpt lat="44.1076395" lon="12.19544"><ele>58.0</ele><time>2026-04-25T15:07:28.423Z</time></trkpt><trkpt lat="44.1075785" lon="12.1953604"><ele>57.99999999999999</ele><time>2026-04-25T15:07:29.426Z</time></trkpt><trkpt lat="44.1075077" lon="12.1952703"><ele>58.0</ele><time>2026-04-25T15:07:30.409Z</time></trkpt><trkpt lat="44.1074428" lon="12.1951701"><ele>58.0</ele><time>2026-04-25T15:07:31.419Z</time></trkpt><trkpt lat="44.1073805" lon="12.1950896"><ele>58.0</ele><time>2026-04-25T15:07:32.408Z</time></trkpt><trkpt lat="44.1073215" lon="12.1950355"><ele>57.99999999999999</ele><time>2026-04-25T15:07:33.413Z</time></trkpt><trkpt lat="44.1072259" lon="12.1950418"><ele>58.0</ele><time>2026-04-25T15:07:35.421Z</time></trkpt><trkpt lat="44.1071718" lon="12.195111"><ele>58.4</ele><time>2026-04-25T15:07:36.416Z</time></trkpt><trkpt lat="44.107108" lon="12.1952136"><ele>58.8</ele><time>2026-04-25T15:07:37.41Z</time></trkpt><trkpt lat="44.1070444" lon="12.1953063"><ele>59.2</ele><time>2026-04-25T15:07:38.417Z</time></trkpt><trkpt lat="44.1069827" lon="12.1954058"><ele>59.6</ele><time>2026-04-25T15:07:39.425Z</time></trkpt><trkpt lat="44.1069069" lon="12.195513"><ele>60.0</ele><time>2026-04-25T15:07:40.426Z</time></trkpt><trkpt lat="44.1068391" lon="12.1956095"><ele>59.833333333333336</ele><time>2026-04-25T15:07:41.416Z</time></trkpt><trkpt lat="44.1067798" lon="12.1956874"><ele>59.66666666666667</ele><time>2026-04-25T15:07:42.416Z</time></trkpt><trkpt lat="44.1067325" lon="12.1957571"><ele>59.5</ele><time>2026-04-25T15:07:43.412Z</time></trkpt><trkpt lat="44.1066672" lon="12.1958565"><ele>59.333333333333336</ele><time>2026-04-25T15:07:45.414Z</time></trkpt><trkpt lat="44.106581" lon="12.195862"><ele>59.16666666666667</ele><time>2026-04-25T15:07:48.412Z</time></trkpt><trkpt lat="44.1065148" lon="12.1958126"><ele>59.0</ele><time>2026-04-25T15:07:49.419Z</time></trkpt><trkpt lat="44.1064501" lon="12.1957357"><ele>59.00000000000001</ele><time>2026-04-25T15:07:50.415Z</time></trkpt><trkpt lat="44.1063753" lon="12.1956497"><ele>59.0</ele><time>2026-04-25T15:07:51.427Z</time></trkpt><trkpt lat="44.1062973" lon="12.1955801"><ele>59.0</ele><time>2026-04-25T15:07:52.403Z</time></trkpt><trkpt lat="44.1062137" lon="12.1955197"><ele>59.0</ele><time>2026-04-25T15:07:54.406Z</time></trkpt><trkpt lat="44.1061389" lon="12.1955582"><ele>59.00000000000001</ele><time>2026-04-25T15:07:56.429Z</time></trkpt><trkpt lat="44.1060902" lon="12.1956223"><ele>59.0</ele><time>2026-04-25T15:07:57.406Z</time></trkpt><trkpt lat="44.1060542" lon="12.195727"><ele>59.0</ele><time>2026-04-25T15:07:58.441Z</time></trkpt><trkpt lat="44.1060196" lon="12.1958254"><ele>59.00000000000001</ele><time>2026-04-25T15:07:59.427Z</time></trkpt><trkpt lat="44.1059951" lon="12.1959145"><ele>59.00000000000001</ele><time>2026-04-25T15:08:00.417Z</time></trkpt><trkpt lat="44.1058898" lon="12.1960052"><ele>59.0</ele><time>2026-04-25T15:08:02.401Z</time></trkpt><trkpt lat="44.105806" lon="12.1959692"><ele>59.0</ele><time>2026-04-25T15:08:03.408Z</time></trkpt><trkpt lat="44.1057301" lon="12.195894"><ele>59.400000000000006</ele><time>2026-04-25T15:08:04.413Z</time></trkpt><trkpt lat="44.1056445" lon="12.195799"><ele>59.800000000000004</ele><time>2026-04-25T15:08:05.421Z</time></trkpt><trkpt lat="44.1055494" lon="12.1956807"><ele>60.199999999999996</ele><time>2026-04-25T15:08:06.421Z</time></trkpt><trkpt lat="44.1054734" lon="12.1955972"><ele>60.599999999999994</ele><time>2026-04-25T15:08:07.411Z</time></trkpt><trkpt lat="44.1053993" lon="12.1955092"><ele>61.0</ele><time>2026-04-25T15:08:09.412Z</time></trkpt><trkpt lat="44.1054318" lon="12.1955923"><ele>60.99999999999999</ele><time>2026-04-25T15:08:15.418Z</time></trkpt><trkpt lat="44.1054942" lon="12.1956404"><ele>61.0</ele><time>2026-04-25T15:08:16.427Z</time></trkpt><trkpt lat="44.1055598" lon="12.1957016"><ele>61.0</ele><time>2026-04-25T15:08:17.428Z</time></trkpt><trkpt lat="44.10564" lon="12.1957784"><ele>61.0</ele><time>2026-04-25T15:08:18.425Z</time></trkpt><trkpt lat="44.1057024" lon="12.1958536"><ele>60.99999999999999</ele><time>2026-04-25T15:08:19.421Z</time></trkpt><trkpt lat="44.1057574" lon="12.1959215"><ele>61.0</ele><time>2026-04-25T15:08:20.421Z</time></trkpt><trkpt lat="44.1058036" lon="12.1959849"><ele>61.0</ele><time>2026-04-25T15:08:21.419Z</time></trkpt><trkpt lat="44.1058373" lon="12.1961109"><ele>60.99999999999999</ele><time>2026-04-25T15:08:23.408Z</time></trkpt><trkpt lat="44.105792" lon="12.1962289"><ele>60.99999999999999</ele><time>2026-04-25T15:08:25.425Z</time></trkpt><trkpt lat="44.1057055" lon="12.1962583"><ele>61.0</ele><time>2026-04-25T15:08:27.416Z</time></trkpt><trkpt lat="44.1055832" lon="12.1962599"><ele>61.0</ele><time>2026-04-25T15:08:29.437Z</time></trkpt><trkpt lat="44.1054993" lon="12.1962504"><ele>60.99999999999999</ele><time>2026-04-25T15:08:30.393Z</time></trkpt><trkpt lat="44.1054007" lon="12.1962564"><ele>61.0</ele><time>2026-04-25T15:08:31.418Z</time></trkpt><trkpt lat="44.1052958" lon="12.1962524"><ele>61.0</ele><time>2026-04-25T15:08:32.416Z</time></trkpt><trkpt lat="44.1052178" lon="12.1962539"><ele>61.0</ele><time>2026-04-25T15:08:33.432Z</time></trkpt><trkpt lat="44.105152" lon="12.1962426"><ele>60.99999999999999</ele><time>2026-04-25T15:08:34.406Z</time></trkpt><trkpt lat="44.1051005" lon="12.1961921"><ele>61.0</ele><time>2026-04-25T15:08:36.421Z</time></trkpt><trkpt lat="44.1051007" lon="12.1960849"><ele>61.0</ele><time>2026-04-25T15:09:56.414Z</time></trkpt><trkpt lat="44.1051039" lon="12.1959971"><ele>60.99999999999999</ele><time>2026-04-25T15:09:58.4Z</time></trkpt><trkpt lat="44.1051198" lon="12.1958788"><ele>60.99999999999999</ele><time>2026-04-25T15:10:00.406Z</time></trkpt><trkpt lat="44.1051662" lon="12.1957344"><ele>61.0</ele><time>2026-04-25T15:10:02.398Z</time></trkpt><trkpt lat="44.1052671" lon="12.1956979"><ele>61.0</ele><time>2026-04-25T15:10:03.409Z</time></trkpt><trkpt lat="44.1051822" lon="12.1957805"><ele>58.0</ele><time>2026-04-25T15:10:17.675Z</time></trkpt><trkpt lat="44.1046674" lon="12.1971765"><ele>58.5</ele><time>2026-04-25T15:10:46.385Z</time></trkpt><trkpt lat="44.1050124" lon="12.1969716"><ele>59.0</ele><time>2026-04-25T15:10:51.383Z</time></trkpt><trkpt lat="44.1050581" lon="12.1968128"><ele>59.00000000000001</ele><time>2026-04-25T15:10:53.38Z</time></trkpt><trkpt lat="44.105099" lon="12.1967286"><ele>59.0</ele><time>2026-04-25T15:10:54.385Z</time></trkpt><trkpt lat="44.1051578" lon="12.1966548"><ele>59.0</ele><time>2026-04-25T15:10:56.379Z</time></trkpt><trkpt lat="44.1052043" lon="12.1965518"><ele>59.0</ele><time>2026-04-25T15:10:59.378Z</time></trkpt><trkpt lat="44.1052323" lon="12.1964156"><ele>59.00000000000001</ele><time>2026-04-25T15:11:01.38Z</time></trkpt><trkpt lat="44.1052527" lon="12.1962799"><ele>59.0</ele><time>2026-04-25T15:11:03.379Z</time></trkpt><trkpt lat="44.1052615" lon="12.1961795"><ele>59.285714285714285</ele><time>2026-04-25T15:11:06.383Z</time></trkpt><trkpt lat="44.1052992" lon="12.1961054"><ele>59.57142857142857</ele><time>2026-04-25T15:11:11.385Z</time></trkpt><trkpt lat="44.1053204" lon="12.1960091"><ele>59.857142857142854</ele><time>2026-04-25T15:11:33.382Z</time></trkpt><trkpt lat="44.1052694" lon="12.1959516"><ele>60.14285714285714</ele><time>2026-04-25T15:12:30.378Z</time></trkpt><trkpt lat="44.1052344" lon="12.1960402"><ele>60.42857142857143</ele><time>2026-04-25T15:15:08.413Z</time></trkpt><trkpt lat="44.1051648" lon="12.1960125"><ele>60.71428571428571</ele><time>2026-04-25T15:15:22.42Z</time></trkpt><trkpt lat="44.1051294" lon="12.1961201"><ele>60.99999999999999</ele><time>2026-04-25T15:15:34.394Z</time></trkpt><trkpt lat="44.105205" lon="12.196087"><ele>60.99999999999999</ele><time>2026-04-25T15:15:49.382Z</time></trkpt><trkpt lat="44.1051639" lon="12.1959983"><ele>61.0</ele><time>2026-04-25T15:15:55.416Z</time></trkpt><trkpt lat="44.105187" lon="12.1959125"><ele>60.99999999999999</ele><time>2026-04-25T15:16:00.422Z</time></trkpt><trkpt lat="44.1051539" lon="12.1958297"><ele>60.99999999999999</ele><time>2026-04-25T15:16:04.434Z</time></trkpt><trkpt lat="44.1051606" lon="12.1957355"><ele>61.0</ele><time>2026-04-25T15:16:09.424Z</time></trkpt><trkpt lat="44.1051506" lon="12.1956444"><ele>60.99999999999999</ele><time>2026-04-25T15:16:19.442Z</time></trkpt><trkpt lat="44.1051899" lon="12.1955562"><ele>60.99999999999999</ele><time>2026-04-25T15:16:30.343Z</time></trkpt><trkpt lat="44.1052252" lon="12.1954648"><ele>60.99999999999999</ele><time>2026-04-25T15:16:36.388Z</time></trkpt><trkpt lat="44.105235" lon="12.1953693"><ele>61.0</ele><time>2026-04-25T15:16:42.41Z</time></trkpt><trkpt lat="44.1052899" lon="12.1953238"><ele>60.99999999999999</ele><time>2026-04-25T15:16:49.435Z</time></trkpt><trkpt lat="44.1053492" lon="12.1953869"><ele>60.99999999999999</ele><time>2026-04-25T15:16:54.44Z</time></trkpt><trkpt lat="44.1053897" lon="12.1954549"><ele>61.0</ele><time>2026-04-25T15:16:59.419Z</time></trkpt><trkpt lat="44.10544" lon="12.1955111"><ele>60.99999999999999</ele><time>2026-04-25T15:17:04.435Z</time></trkpt><trkpt lat="44.105384" lon="12.1955613"><ele>60.99999999999999</ele><time>2026-04-25T15:17:16.43Z</time></trkpt><trkpt lat="44.1053325" lon="12.1956219"><ele>61.0</ele><time>2026-04-25T15:17:30.42Z</time></trkpt><trkpt lat="44.1054038" lon="12.1956454"><ele>60.99999999999999</ele><time>2026-04-25T15:17:48.427Z</time></trkpt><trkpt lat="44.1054434" lon="12.1954751"><ele>60.99999999999999</ele><time>2026-04-25T15:17:50.393Z</time></trkpt><trkpt lat="44.1054517" lon="12.1952979"><ele>61.0</ele><time>2026-04-25T15:17:51.417Z</time></trkpt><trkpt lat="44.1054552" lon="12.1951317"><ele>61.0</ele><time>2026-04-25T15:17:52.395Z</time></trkpt><trkpt lat="44.1054522" lon="12.1949739"><ele>61.4</ele><time>2026-04-25T15:17:53.422Z</time></trkpt><trkpt lat="44.1054539" lon="12.1948074"><ele>61.8</ele><time>2026-04-25T15:17:54.408Z</time></trkpt><trkpt lat="44.1054737" lon="12.1946461"><ele>62.199999999999996</ele><time>2026-04-25T15:17:55.427Z</time></trkpt><trkpt lat="44.1055065" lon="12.1945041"><ele>62.599999999999994</ele><time>2026-04-25T15:17:56.435Z</time></trkpt><trkpt lat="44.1055581" lon="12.1943916"><ele>63.0</ele><time>2026-04-25T15:17:57.435Z</time></trkpt><trkpt lat="44.1056177" lon="12.1942824"><ele>63.0</ele><time>2026-04-25T15:17:58.429Z</time></trkpt><trkpt lat="44.1056828" lon="12.1941823"><ele>63.0</ele><time>2026-04-25T15:17:59.421Z</time></trkpt><trkpt lat="44.1057474" lon="12.1940662"><ele>63.0</ele><time>2026-04-25T15:18:00.435Z</time></trkpt><trkpt lat="44.1058088" lon="12.1939461"><ele>63.0</ele><time>2026-04-25T15:18:01.436Z</time></trkpt><trkpt lat="44.1058777" lon="12.1938274"><ele>63.0</ele><time>2026-04-25T15:18:02.422Z</time></trkpt><trkpt lat="44.1059528" lon="12.1937291"><ele>62.8</ele><time>2026-04-25T15:18:03.43Z</time></trkpt><trkpt lat="44.106037" lon="12.1936533"><ele>62.599999999999994</ele><time>2026-04-25T15:18:04.445Z</time></trkpt><trkpt lat="44.1061243" lon="12.1935945"><ele>62.400000000000006</ele><time>2026-04-25T15:18:05.432Z</time></trkpt><trkpt lat="44.1062248" lon="12.1935472"><ele>62.2</ele><time>2026-04-25T15:18:06.419Z</time></trkpt><trkpt lat="44.1063458" lon="12.1935099"><ele>62.0</ele><time>2026-04-25T15:18:07.422Z</time></trkpt><trkpt lat="44.1064525" lon="12.193483"><ele>62.00000000000001</ele><time>2026-04-25T15:18:08.437Z</time></trkpt><trkpt lat="44.1065513" lon="12.1934833"><ele>62.0</ele><time>2026-04-25T15:18:09.431Z</time></trkpt><trkpt lat="44.1066245" lon="12.1935107"><ele>62.0</ele><time>2026-04-25T15:18:10.422Z</time></trkpt><trkpt lat="44.1067022" lon="12.1936033"><ele>62.0</ele><time>2026-04-25T15:18:12.413Z</time></trkpt><trkpt lat="44.1067406" lon="12.1936799"><ele>62.00000000000001</ele><time>2026-04-25T15:18:15.415Z</time></trkpt><trkpt lat="44.1067365" lon="12.1937709"><ele>62.0</ele><time>2026-04-25T15:18:20.397Z</time></trkpt><trkpt lat="44.1066848" lon="12.1938253"><ele>61.833333333333336</ele><time>2026-04-25T15:18:24.41Z</time></trkpt><trkpt lat="44.106641" lon="12.1938987"><ele>61.66666666666667</ele><time>2026-04-25T15:18:29.387Z</time></trkpt><trkpt lat="44.1065935" lon="12.1939961"><ele>61.5</ele><time>2026-04-25T15:18:31.4Z</time></trkpt><trkpt lat="44.1065414" lon="12.1940726"><ele>61.33333333333333</ele><time>2026-04-25T15:18:33.427Z</time></trkpt><trkpt lat="44.1064836" lon="12.1941247"><ele>61.166666666666664</ele><time>2026-04-25T15:18:38.604Z</time></trkpt><trkpt lat="44.1064098" lon="12.1941639"><ele>61.0</ele><time>2026-04-25T15:18:47.403Z</time></trkpt><trkpt lat="44.1063351" lon="12.1941934"><ele>61.33333333333333</ele><time>2026-04-25T15:18:50.421Z</time></trkpt><trkpt lat="44.1062651" lon="12.194255"><ele>61.666666666666664</ele><time>2026-04-25T15:18:53.417Z</time></trkpt><trkpt lat="44.106213" lon="12.1943229"><ele>62.0</ele><time>2026-04-25T15:18:55.393Z</time></trkpt><trkpt lat="44.1061585" lon="12.194385"><ele>62.33333333333333</ele><time>2026-04-25T15:18:57.41Z</time></trkpt><trkpt lat="44.1060793" lon="12.1944892"><ele>62.666666666666664</ele><time>2026-04-25T15:19:00.407Z</time></trkpt><trkpt lat="44.1060162" lon="12.1945865"><ele>63.0</ele><time>2026-04-25T15:19:02.376Z</time></trkpt><trkpt lat="44.1059766" lon="12.1946627"><ele>63.0</ele><time>2026-04-25T15:19:04.417Z</time></trkpt><trkpt lat="44.1059534" lon="12.1947446"><ele>63.0</ele><time>2026-04-25T15:19:24.387Z</time></trkpt><trkpt lat="44.1059158" lon="12.1948214"><ele>63.0</ele><time>2026-04-25T15:19:27.403Z</time></trkpt><trkpt lat="44.1058815" lon="12.1949148"><ele>63.0</ele><time>2026-04-25T15:19:32.425Z</time></trkpt><trkpt lat="44.1058501" lon="12.1948086"><ele>63.0</ele><time>2026-04-25T15:20:39.385Z</time></trkpt><trkpt lat="44.1058515" lon="12.1947176"><ele>63.0</ele><time>2026-04-25T15:20:41.4Z</time></trkpt><trkpt lat="44.1058452" lon="12.1946108"><ele>63.0</ele><time>2026-04-25T15:20:44.401Z</time></trkpt><trkpt lat="44.1058562" lon="12.1943782"><ele>61.0</ele><time>2026-04-25T15:20:51.405Z</time></trkpt><trkpt lat="44.1055208" lon="12.1956093"><ele>61.0</ele><time>2026-04-25T15:21:10.398Z</time></trkpt><trkpt lat="44.1054597" lon="12.1956341"><ele>61.0</ele><time>2026-04-25T15:21:15.414Z</time></trkpt><trkpt lat="44.1054126" lon="12.1956964"><ele>61.0</ele><time>2026-04-25T15:22:10.393Z</time></trkpt><trkpt lat="44.1053442" lon="12.1957125"><ele>61.0</ele><time>2026-04-25T15:22:52.417Z</time></trkpt></trkseg></trk></gpx>